<?xml version="1.0" encoding="UTF-8"?>
<gpx xmlns="http://www.topografix.com/GPX/1/1" version="1.1" creator="Nokia Sports Tracker" xmlns:xsi="http://www.w3.org/2001/XMLSchema-instance" xsi:schemaLocation="http://www.topografix.com/GPX/1/1 http://www.topografix.com/GPX/1/1/gpx.xsd">
<metadata>
<name>19/07/2011 19:48</name>
<desc>Ciclismo</desc>
<author><name>Usuario Medio</name></author>
<time>2011-07-19T19:48:33.73</time>
</metadata>
<trk>
<name>19/07/2011 19:48</name>
<trkseg>
<trkpt lat="39.019417" lon="-3.809865">
<ele>661.0</ele>
<speed>4.6</speed>
<course>192.6</course>
<desc>Speed 4.6 km/h Distance 0.00 km</desc>
<time>2011-07-19T19:48:35.45</time>
<name>1</name>
</trkpt>
<trkpt lat="39.019412" lon="-3.809867">
<ele>661.0</ele>
<speed>1.7</speed>
<course>229.4</course>
<desc>Speed 1.7 km/h Distance 0.00 km</desc>
<time>2011-07-19T19:48:36.39</time>
<name>2</name>
</trkpt>
<trkpt lat="39.019408" lon="-3.809872">
<ele>661.0</ele>
<speed>1.7</speed>
<course>210.4</course>
<desc>Speed 1.7 km/h Distance 0.00 km</desc>
<time>2011-07-19T19:48:37.39</time>
<name>3</name>
</trkpt>
<trkpt lat="39.019402" lon="-3.809877">
<ele>661.0</ele>
<speed>1.7</speed>
<course>187.4</course>
<desc>Speed 1.7 km/h Distance 0.00 km</desc>
<time>2011-07-19T19:48:38.38</time>
<name>4</name>
</trkpt>
<trkpt lat="39.019395" lon="-3.809878">
<ele>661.5</ele>
<speed>1.7</speed>
<course>253.5</course>
<desc>Speed 1.7 km/h Distance 0.00 km</desc>
<time>2011-07-19T19:48:39.39</time>
<name>5</name>
</trkpt>
<trkpt lat="39.019390" lon="-3.809900">
<ele>660.5</ele>
<speed>6.1</speed>
<course>137.7</course>
<desc>Speed 6.1 km/h Distance 0.00 km</desc>
<time>2011-07-19T19:48:41.06</time>
<name>6</name>
</trkpt>
<trkpt lat="39.019380" lon="-3.809888">
<ele>661.5</ele>
<speed>0.3</speed>
<course>208.0</course>
<desc>Speed 0.3 km/h Distance 0.01 km</desc>
<time>2011-07-19T19:48:42.42</time>
<name>7</name>
</trkpt>
<trkpt lat="39.019375" lon="-3.809892">
<ele>662.0</ele>
<speed>1.0</speed>
<course>217.2</course>
<desc>Speed 1.0 km/h Distance 0.01 km</desc>
<time>2011-07-19T19:48:43.40</time>
<name>8</name>
</trkpt>
<trkpt lat="39.019373" lon="-3.809893">
<ele>662.0</ele>
<speed>0.3</speed>
<course>237.2</course>
<desc>Speed 0.3 km/h Distance 0.01 km</desc>
<time>2011-07-19T19:48:44.39</time>
<name>9</name>
</trkpt>
<trkpt lat="39.019372" lon="-3.809897">
<ele>662.0</ele>
<speed>0.2</speed>
<course>136.0</course>
<desc>Speed 0.2 km/h Distance 0.01 km</desc>
<time>2011-07-19T19:48:45.39</time>
<name>10</name>
</trkpt>
<trkpt lat="39.019365" lon="-3.809888">
<ele>662.5</ele>
<speed>4.1</speed>
<course>117.4</course>
<desc>Speed 4.1 km/h Distance 0.01 km</desc>
<time>2011-07-19T19:48:46.38</time>
<name>11</name>
</trkpt>
<trkpt lat="39.019362" lon="-3.809880">
<ele>663.5</ele>
<speed>2.8</speed>
<course>117.4</course>
<desc>Speed 2.8 km/h Distance 0.01 km</desc>
<time>2011-07-19T19:48:47.39</time>
<name>12</name>
</trkpt>
<trkpt lat="39.019362" lon="-3.809880">
<ele>663.5</ele>
<speed>0.6</speed>
<course>270.0</course>
<desc>Speed 0.6 km/h Distance 0.01 km</desc>
<time>2011-07-19T19:48:48.38</time>
<name>13</name>
</trkpt>
<trkpt lat="39.019362" lon="-3.809883">
<ele>663.0</ele>
<speed>1.1</speed>
<course>270.0</course>
<desc>Speed 1.1 km/h Distance 0.01 km</desc>
<time>2011-07-19T19:48:49.40</time>
<name>14</name>
</trkpt>
<trkpt lat="39.019362" lon="-3.809887">
<ele>663.5</ele>
<speed>0.8</speed>
<course>138.0</course>
<desc>Speed 0.8 km/h Distance 0.01 km</desc>
<time>2011-07-19T19:48:50.40</time>
<name>15</name>
</trkpt>
<trkpt lat="39.019330" lon="-3.809850">
<ele>667.5</ele>
<speed>1.0</speed>
<course>130.6</course>
<desc>Speed 1.0 km/h Distance 0.01 km</desc>
<time>2011-07-19T19:48:52.39</time>
<name>16</name>
</trkpt>
<trkpt lat="39.019320" lon="-3.809835">
<ele>669.5</ele>
<speed>0.5</speed>
<course>77.9</course>
<desc>Speed 0.5 km/h Distance 0.02 km</desc>
<time>2011-07-19T19:48:53.40</time>
<name>17</name>
</trkpt>
<trkpt lat="39.019322" lon="-3.809825">
<ele>670.0</ele>
<speed>1.7</speed>
<course>90.0</course>
<desc>Speed 1.7 km/h Distance 0.02 km</desc>
<time>2011-07-19T19:48:54.40</time>
<name>18</name>
</trkpt>
<trkpt lat="39.019322" lon="-3.809815">
<ele>671.0</ele>
<speed>1.7</speed>
<course>90.0</course>
<desc>Speed 1.7 km/h Distance 0.02 km</desc>
<time>2011-07-19T19:48:55.39</time>
<name>19</name>
</trkpt>
<trkpt lat="39.019322" lon="-3.809810">
<ele>671.0</ele>
<speed>0.1</speed>
<course>130.6</course>
<desc>Speed 0.1 km/h Distance 0.02 km</desc>
<time>2011-07-19T19:48:56.39</time>
<name>20</name>
</trkpt>
<trkpt lat="39.019318" lon="-3.809805">
<ele>671.5</ele>
<speed>1.6</speed>
<course>217.2</course>
<desc>Speed 1.6 km/h Distance 0.02 km</desc>
<time>2011-07-19T19:48:57.39</time>
<name>21</name>
</trkpt>
<trkpt lat="39.019315" lon="-3.809808">
<ele>671.5</ele>
<speed>1.7</speed>
<course>270.0</course>
<desc>Speed 1.7 km/h Distance 0.02 km</desc>
<time>2011-07-19T19:48:58.39</time>
<name>22</name>
</trkpt>
<trkpt lat="39.019315" lon="-3.809817">
<ele>670.5</ele>
<speed>3.0</speed>
<course>270.0</course>
<desc>Speed 3.0 km/h Distance 0.02 km</desc>
<time>2011-07-19T19:48:59.40</time>
<name>23</name>
</trkpt>
<trkpt lat="39.019315" lon="-3.809825">
<ele>670.5</ele>
<speed>3.7</speed>
<course>257.8</course>
<desc>Speed 3.7 km/h Distance 0.02 km</desc>
<time>2011-07-19T19:49:00.39</time>
<name>24</name>
</trkpt>
<trkpt lat="39.019313" lon="-3.809835">
<ele>670.0</ele>
<speed>3.5</speed>
<course>80.8</course>
<desc>Speed 3.5 km/h Distance 0.02 km</desc>
<time>2011-07-19T19:49:01.39</time>
<name>25</name>
</trkpt>
<trkpt lat="39.019315" lon="-3.809822">
<ele>670.5</ele>
<speed>4.6</speed>
<course>28.0</course>
<desc>Speed 4.6 km/h Distance 0.02 km</desc>
<time>2011-07-19T19:49:02.40</time>
<name>26</name>
</trkpt>
<trkpt lat="39.019320" lon="-3.809818">
<ele>671.0</ele>
<speed>2.3</speed>
<course>28.0</course>
<desc>Speed 2.3 km/h Distance 0.02 km</desc>
<time>2011-07-19T19:49:03.40</time>
<name>27</name>
</trkpt>
<trkpt lat="39.019325" lon="-3.809815">
<ele>672.5</ele>
<speed>2.1</speed>
<course>49.4</course>
<desc>Speed 2.1 km/h Distance 0.02 km</desc>
<time>2011-07-19T19:49:04.40</time>
<name>28</name>
</trkpt>
<trkpt lat="39.019328" lon="-3.809810">
<ele>674.0</ele>
<speed>2.3</speed>
<course>6.5</course>
<desc>Speed 2.3 km/h Distance 0.02 km</desc>
<time>2011-07-19T19:49:05.39</time>
<name>29</name>
</trkpt>
<trkpt lat="39.019385" lon="-3.809802">
<ele>674.5</ele>
<speed>11.0</speed>
<course>342.3</course>
<desc>Speed 11.0 km/h Distance 0.03 km</desc>
<time>2011-07-19T19:49:07.40</time>
<name>30</name>
</trkpt>
<trkpt lat="39.019413" lon="-3.809813">
<ele>674.5</ele>
<speed>12.3</speed>
<course>336.7</course>
<desc>Speed 12.3 km/h Distance 0.03 km</desc>
<time>2011-07-19T19:49:08.40</time>
<name>31</name>
</trkpt>
<trkpt lat="39.019443" lon="-3.809830">
<ele>675.0</ele>
<speed>13.0</speed>
<course>339.8</course>
<desc>Speed 13.0 km/h Distance 0.04 km</desc>
<time>2011-07-19T19:49:09.38</time>
<name>32</name>
</trkpt>
<trkpt lat="39.019475" lon="-3.809845">
<ele>675.0</ele>
<speed>12.9</speed>
<course>336.6</course>
<desc>Speed 12.9 km/h Distance 0.04 km</desc>
<time>2011-07-19T19:49:10.39</time>
<name>33</name>
</trkpt>
<trkpt lat="39.019505" lon="-3.809862">
<ele>675.5</ele>
<speed>12.9</speed>
<course>339.7</course>
<desc>Speed 12.9 km/h Distance 0.05 km</desc>
<time>2011-07-19T19:49:11.39</time>
<name>34</name>
</trkpt>
<trkpt lat="39.019537" lon="-3.809877">
<ele>675.5</ele>
<speed>12.7</speed>
<course>337.6</course>
<desc>Speed 12.7 km/h Distance 0.05 km</desc>
<time>2011-07-19T19:49:12.39</time>
<name>35</name>
</trkpt>
<trkpt lat="39.019565" lon="-3.809892">
<ele>676.0</ele>
<speed>12.7</speed>
<course>336.6</course>
<desc>Speed 12.7 km/h Distance 0.05 km</desc>
<time>2011-07-19T19:49:13.39</time>
<name>36</name>
</trkpt>
<trkpt lat="39.019595" lon="-3.809908">
<ele>676.0</ele>
<speed>12.9</speed>
<course>348.2</course>
<desc>Speed 12.9 km/h Distance 0.06 km</desc>
<time>2011-07-19T19:49:14.39</time>
<name>37</name>
</trkpt>
<trkpt lat="39.019638" lon="-3.809920">
<ele>676.5</ele>
<speed>16.2</speed>
<course>346.6</course>
<desc>Speed 16.2 km/h Distance 0.06 km</desc>
<time>2011-07-19T19:49:15.39</time>
<name>38</name>
</trkpt>
<trkpt lat="39.019682" lon="-3.809933">
<ele>677.0</ele>
<speed>17.5</speed>
<course>347.9</course>
<desc>Speed 17.5 km/h Distance 0.07 km</desc>
<time>2011-07-19T19:49:16.38</time>
<name>39</name>
</trkpt>
<trkpt lat="39.019730" lon="-3.809947">
<ele>677.0</ele>
<speed>18.2</speed>
<course>348.6</course>
<desc>Speed 18.2 km/h Distance 0.07 km</desc>
<time>2011-07-19T19:49:17.38</time>
<name>40</name>
</trkpt>
<trkpt lat="39.019775" lon="-3.809958">
<ele>677.0</ele>
<speed>17.0</speed>
<course>345.9</course>
<desc>Speed 17.0 km/h Distance 0.08 km</desc>
<time>2011-07-19T19:49:18.38</time>
<name>41</name>
</trkpt>
<trkpt lat="39.019822" lon="-3.809973">
<ele>677.5</ele>
<speed>17.9</speed>
<course>343.6</course>
<desc>Speed 17.9 km/h Distance 0.08 km</desc>
<time>2011-07-19T19:49:19.39</time>
<name>42</name>
</trkpt>
<trkpt lat="39.019870" lon="-3.809992">
<ele>678.0</ele>
<speed>19.0</speed>
<course>350.3</course>
<desc>Speed 19.0 km/h Distance 0.09 km</desc>
<time>2011-07-19T19:49:20.38</time>
<name>43</name>
</trkpt>
<trkpt lat="39.019998" lon="-3.810020">
<ele>677.5</ele>
<speed>23.7</speed>
<course>347.5</course>
<desc>Speed 23.7 km/h Distance 0.10 km</desc>
<time>2011-07-19T19:49:22.39</time>
<name>44</name>
</trkpt>
<trkpt lat="39.020057" lon="-3.810037">
<ele>677.5</ele>
<speed>22.8</speed>
<course>343.5</course>
<desc>Speed 22.8 km/h Distance 0.11 km</desc>
<time>2011-07-19T19:49:23.39</time>
<name>45</name>
</trkpt>
<trkpt lat="39.020113" lon="-3.810058">
<ele>677.5</ele>
<speed>23.1</speed>
<course>343.9</course>
<desc>Speed 23.1 km/h Distance 0.12 km</desc>
<time>2011-07-19T19:49:24.39</time>
<name>46</name>
</trkpt>
<trkpt lat="39.020172" lon="-3.810080">
<ele>677.5</ele>
<speed>23.0</speed>
<course>340.6</course>
<desc>Speed 23.0 km/h Distance 0.12 km</desc>
<time>2011-07-19T19:49:25.39</time>
<name>47</name>
</trkpt>
<trkpt lat="39.020227" lon="-3.810105">
<ele>677.0</ele>
<speed>22.5</speed>
<course>345.1</course>
<desc>Speed 22.5 km/h Distance 0.13 km</desc>
<time>2011-07-19T19:49:26.38</time>
<name>48</name>
</trkpt>
<trkpt lat="39.020280" lon="-3.810123">
<ele>677.0</ele>
<speed>21.3</speed>
<course>347.6</course>
<desc>Speed 21.3 km/h Distance 0.13 km</desc>
<time>2011-07-19T19:49:27.38</time>
<name>49</name>
</trkpt>
<trkpt lat="39.020333" lon="-3.810138">
<ele>677.0</ele>
<speed>20.9</speed>
<course>349.0</course>
<desc>Speed 20.9 km/h Distance 0.14 km</desc>
<time>2011-07-19T19:49:28.39</time>
<name>50</name>
</trkpt>
<trkpt lat="39.020387" lon="-3.810152">
<ele>676.5</ele>
<speed>21.0</speed>
<course>350.1</course>
<desc>Speed 21.0 km/h Distance 0.15 km</desc>
<time>2011-07-19T19:49:29.39</time>
<name>51</name>
</trkpt>
<trkpt lat="39.020438" lon="-3.810163">
<ele>676.5</ele>
<speed>20.4</speed>
<course>350.0</course>
<desc>Speed 20.4 km/h Distance 0.15 km</desc>
<time>2011-07-19T19:49:30.39</time>
<name>52</name>
</trkpt>
<trkpt lat="39.020490" lon="-3.810175">
<ele>676.0</ele>
<speed>19.9</speed>
<course>351.1</course>
<desc>Speed 19.9 km/h Distance 0.16 km</desc>
<time>2011-07-19T19:49:31.38</time>
<name>53</name>
</trkpt>
<trkpt lat="39.020540" lon="-3.810185">
<ele>676.0</ele>
<speed>19.6</speed>
<course>347.9</course>
<desc>Speed 19.6 km/h Distance 0.16 km</desc>
<time>2011-07-19T19:49:32.39</time>
<name>54</name>
</trkpt>
<trkpt lat="39.020588" lon="-3.810198">
<ele>675.5</ele>
<speed>19.4</speed>
<course>345.0</course>
<desc>Speed 19.4 km/h Distance 0.17 km</desc>
<time>2011-07-19T19:49:33.39</time>
<name>55</name>
</trkpt>
<trkpt lat="39.020637" lon="-3.810215">
<ele>675.5</ele>
<speed>19.3</speed>
<course>343.0</course>
<desc>Speed 19.3 km/h Distance 0.18 km</desc>
<time>2011-07-19T19:49:34.38</time>
<name>56</name>
</trkpt>
<trkpt lat="39.020683" lon="-3.810233">
<ele>675.0</ele>
<speed>19.0</speed>
<course>345.5</course>
<desc>Speed 19.0 km/h Distance 0.18 km</desc>
<time>2011-07-19T19:49:35.38</time>
<name>57</name>
</trkpt>
<trkpt lat="39.020728" lon="-3.810248">
<ele>674.5</ele>
<speed>18.4</speed>
<course>346.0</course>
<desc>Speed 18.4 km/h Distance 0.19 km</desc>
<time>2011-07-19T19:49:36.38</time>
<name>58</name>
</trkpt>
<trkpt lat="39.020775" lon="-3.810263">
<ele>674.5</ele>
<speed>18.8</speed>
<course>344.5</course>
<desc>Speed 18.8 km/h Distance 0.19 km</desc>
<time>2011-07-19T19:49:37.38</time>
<name>59</name>
</trkpt>
<trkpt lat="39.020822" lon="-3.810280">
<ele>674.5</ele>
<speed>19.1</speed>
<course>343.6</course>
<desc>Speed 19.1 km/h Distance 0.20 km</desc>
<time>2011-07-19T19:49:38.38</time>
<name>60</name>
</trkpt>
<trkpt lat="39.020870" lon="-3.810298">
<ele>674.5</ele>
<speed>19.5</speed>
<course>345.0</course>
<desc>Speed 19.5 km/h Distance 0.20 km</desc>
<time>2011-07-19T19:49:39.38</time>
<name>61</name>
</trkpt>
<trkpt lat="39.020918" lon="-3.810315">
<ele>674.5</ele>
<speed>19.7</speed>
<course>342.2</course>
<desc>Speed 19.7 km/h Distance 0.21 km</desc>
<time>2011-07-19T19:49:40.38</time>
<name>62</name>
</trkpt>
<trkpt lat="39.020967" lon="-3.810335">
<ele>674.5</ele>
<speed>20.2</speed>
<course>339.4</course>
<desc>Speed 20.2 km/h Distance 0.21 km</desc>
<time>2011-07-19T19:49:41.38</time>
<name>63</name>
</trkpt>
<trkpt lat="39.021015" lon="-3.810358">
<ele>674.5</ele>
<speed>20.4</speed>
<course>338.8</course>
<desc>Speed 20.4 km/h Distance 0.22 km</desc>
<time>2011-07-19T19:49:42.39</time>
<name>64</name>
</trkpt>
<trkpt lat="39.021065" lon="-3.810383">
<ele>674.5</ele>
<speed>21.1</speed>
<course>336.8</course>
<desc>Speed 21.1 km/h Distance 0.23 km</desc>
<time>2011-07-19T19:49:43.40</time>
<name>65</name>
</trkpt>
<trkpt lat="39.021113" lon="-3.810410">
<ele>674.5</ele>
<speed>20.8</speed>
<course>334.8</course>
<desc>Speed 20.8 km/h Distance 0.23 km</desc>
<time>2011-07-19T19:49:44.38</time>
<name>66</name>
</trkpt>
<trkpt lat="39.021160" lon="-3.810438">
<ele>674.5</ele>
<speed>20.3</speed>
<course>343.4</course>
<desc>Speed 20.3 km/h Distance 0.24 km</desc>
<time>2011-07-19T19:49:45.38</time>
<name>67</name>
</trkpt>
<trkpt lat="39.021203" lon="-3.810455">
<ele>675.0</ele>
<speed>17.7</speed>
<course>12.5</course>
<desc>Speed 17.7 km/h Distance 0.24 km</desc>
<time>2011-07-19T19:49:46.39</time>
<name>68</name>
</trkpt>
<trkpt lat="39.021262" lon="-3.810438">
<ele>675.0</ele>
<speed>23.2</speed>
<course>30.2</course>
<desc>Speed 23.2 km/h Distance 0.25 km</desc>
<time>2011-07-19T19:49:47.38</time>
<name>69</name>
</trkpt>
<trkpt lat="39.021308" lon="-3.810403">
<ele>673.5</ele>
<speed>21.5</speed>
<course>36.7</course>
<desc>Speed 21.5 km/h Distance 0.25 km</desc>
<time>2011-07-19T19:49:48.38</time>
<name>70</name>
</trkpt>
<trkpt lat="39.021348" lon="-3.810365">
<ele>673.5</ele>
<speed>20.2</speed>
<course>46.6</course>
<desc>Speed 20.2 km/h Distance 0.26 km</desc>
<time>2011-07-19T19:49:49.38</time>
<name>71</name>
</trkpt>
<trkpt lat="39.021385" lon="-3.810315">
<ele>673.5</ele>
<speed>21.3</speed>
<course>49.4</course>
<desc>Speed 21.3 km/h Distance 0.27 km</desc>
<time>2011-07-19T19:49:50.38</time>
<name>72</name>
</trkpt>
<trkpt lat="39.021422" lon="-3.810260">
<ele>673.5</ele>
<speed>22.2</speed>
<course>52.9</course>
<desc>Speed 22.2 km/h Distance 0.27 km</desc>
<time>2011-07-19T19:49:51.38</time>
<name>73</name>
</trkpt>
<trkpt lat="39.021455" lon="-3.810203">
<ele>673.0</ele>
<speed>22.3</speed>
<course>53.7</course>
<desc>Speed 22.3 km/h Distance 0.28 km</desc>
<time>2011-07-19T19:49:52.39</time>
<name>74</name>
</trkpt>
<trkpt lat="39.021488" lon="-3.810145">
<ele>673.0</ele>
<speed>22.2</speed>
<course>54.3</course>
<desc>Speed 22.2 km/h Distance 0.28 km</desc>
<time>2011-07-19T19:49:53.38</time>
<name>75</name>
</trkpt>
<trkpt lat="39.021520" lon="-3.810088">
<ele>673.0</ele>
<speed>22.4</speed>
<course>55.1</course>
<desc>Speed 22.4 km/h Distance 0.29 km</desc>
<time>2011-07-19T19:49:54.38</time>
<name>76</name>
</trkpt>
<trkpt lat="39.021552" lon="-3.810030">
<ele>673.5</ele>
<speed>21.9</speed>
<course>54.3</course>
<desc>Speed 21.9 km/h Distance 0.30 km</desc>
<time>2011-07-19T19:49:55.38</time>
<name>77</name>
</trkpt>
<trkpt lat="39.021583" lon="-3.809973">
<ele>673.5</ele>
<speed>22.0</speed>
<course>57.2</course>
<desc>Speed 22.0 km/h Distance 0.30 km</desc>
<time>2011-07-19T19:49:56.38</time>
<name>78</name>
</trkpt>
<trkpt lat="39.021613" lon="-3.809913">
<ele>673.5</ele>
<speed>22.2</speed>
<course>57.9</course>
<desc>Speed 22.2 km/h Distance 0.31 km</desc>
<time>2011-07-19T19:49:57.39</time>
<name>79</name>
</trkpt>
<trkpt lat="39.021643" lon="-3.809852">
<ele>673.5</ele>
<speed>22.2</speed>
<course>58.0</course>
<desc>Speed 22.2 km/h Distance 0.32 km</desc>
<time>2011-07-19T19:49:58.38</time>
<name>80</name>
</trkpt>
<trkpt lat="39.021672" lon="-3.809793">
<ele>674.0</ele>
<speed>21.8</speed>
<course>55.7</course>
<desc>Speed 21.8 km/h Distance 0.32 km</desc>
<time>2011-07-19T19:49:59.38</time>
<name>81</name>
</trkpt>
<trkpt lat="39.021702" lon="-3.809737">
<ele>674.5</ele>
<speed>21.1</speed>
<course>58.0</course>
<desc>Speed 21.1 km/h Distance 0.33 km</desc>
<time>2011-07-19T19:50:00.39</time>
<name>82</name>
</trkpt>
<trkpt lat="39.021730" lon="-3.809678">
<ele>674.5</ele>
<speed>21.3</speed>
<course>59.4</course>
<desc>Speed 21.3 km/h Distance 0.33 km</desc>
<time>2011-07-19T19:50:01.38</time>
<name>83</name>
</trkpt>
<trkpt lat="39.021758" lon="-3.809617">
<ele>674.5</ele>
<speed>21.9</speed>
<course>62.8</course>
<desc>Speed 21.9 km/h Distance 0.34 km</desc>
<time>2011-07-19T19:50:02.38</time>
<name>84</name>
</trkpt>
<trkpt lat="39.021785" lon="-3.809550">
<ele>674.0</ele>
<speed>23.1</speed>
<course>62.8</course>
<desc>Speed 23.1 km/h Distance 0.35 km</desc>
<time>2011-07-19T19:50:03.38</time>
<name>85</name>
</trkpt>
<trkpt lat="39.021812" lon="-3.809483">
<ele>673.5</ele>
<speed>23.1</speed>
<course>62.8</course>
<desc>Speed 23.1 km/h Distance 0.35 km</desc>
<time>2011-07-19T19:50:04.39</time>
<name>86</name>
</trkpt>
<trkpt lat="39.021838" lon="-3.809417">
<ele>673.0</ele>
<speed>23.1</speed>
<course>62.2</course>
<desc>Speed 23.1 km/h Distance 0.36 km</desc>
<time>2011-07-19T19:50:05.38</time>
<name>87</name>
</trkpt>
<trkpt lat="39.021865" lon="-3.809352">
<ele>672.5</ele>
<speed>23.0</speed>
<course>61.1</course>
<desc>Speed 23.0 km/h Distance 0.37 km</desc>
<time>2011-07-19T19:50:06.38</time>
<name>88</name>
</trkpt>
<trkpt lat="39.021890" lon="-3.809293">
<ele>673.5</ele>
<speed>20.1</speed>
<course>61.8</course>
<desc>Speed 20.1 km/h Distance 0.37 km</desc>
<time>2011-07-19T19:50:07.39</time>
<name>89</name>
</trkpt>
<trkpt lat="39.021915" lon="-3.809233">
<ele>673.5</ele>
<speed>21.3</speed>
<course>51.0</course>
<desc>Speed 21.3 km/h Distance 0.38 km</desc>
<time>2011-07-19T19:50:08.39</time>
<name>90</name>
</trkpt>
<trkpt lat="39.021952" lon="-3.809175">
<ele>674.0</ele>
<speed>23.0</speed>
<course>45.7</course>
<desc>Speed 23.0 km/h Distance 0.38 km</desc>
<time>2011-07-19T19:50:09.38</time>
<name>91</name>
</trkpt>
<trkpt lat="39.021988" lon="-3.809127">
<ele>675.5</ele>
<speed>21.7</speed>
<course>37.9</course>
<desc>Speed 21.7 km/h Distance 0.39 km</desc>
<time>2011-07-19T19:50:10.39</time>
<name>92</name>
</trkpt>
<trkpt lat="39.022027" lon="-3.809088">
<ele>677.0</ele>
<speed>20.4</speed>
<course>27.7</course>
<desc>Speed 20.4 km/h Distance 0.39 km</desc>
<time>2011-07-19T19:50:11.38</time>
<name>93</name>
</trkpt>
<trkpt lat="39.022083" lon="-3.809050">
<ele>677.0</ele>
<speed>25.1</speed>
<course>27.0</course>
<desc>Speed 25.1 km/h Distance 0.40 km</desc>
<time>2011-07-19T19:50:12.39</time>
<name>94</name>
</trkpt>
<trkpt lat="39.022137" lon="-3.809015">
<ele>678.0</ele>
<speed>24.1</speed>
<course>29.2</course>
<desc>Speed 24.1 km/h Distance 0.41 km</desc>
<time>2011-07-19T19:50:13.37</time>
<name>95</name>
</trkpt>
<trkpt lat="39.022190" lon="-3.808977">
<ele>678.0</ele>
<speed>24.2</speed>
<course>32.1</course>
<desc>Speed 24.2 km/h Distance 0.42 km</desc>
<time>2011-07-19T19:50:14.38</time>
<name>96</name>
</trkpt>
<trkpt lat="39.022242" lon="-3.808935">
<ele>679.0</ele>
<speed>24.4</speed>
<course>31.9</course>
<desc>Speed 24.4 km/h Distance 0.42 km</desc>
<time>2011-07-19T19:50:15.39</time>
<name>97</name>
</trkpt>
<trkpt lat="39.022292" lon="-3.808895">
<ele>679.5</ele>
<speed>23.5</speed>
<course>31.0</course>
<desc>Speed 23.5 km/h Distance 0.43 km</desc>
<time>2011-07-19T19:50:16.38</time>
<name>98</name>
</trkpt>
<trkpt lat="39.022343" lon="-3.808855">
<ele>679.5</ele>
<speed>23.8</speed>
<course>28.1</course>
<desc>Speed 23.8 km/h Distance 0.44 km</desc>
<time>2011-07-19T19:50:17.39</time>
<name>99</name>
</trkpt>
<trkpt lat="39.022397" lon="-3.808818">
<ele>679.5</ele>
<speed>23.0</speed>
<course>28.9</course>
<desc>Speed 23.0 km/h Distance 0.44 km</desc>
<time>2011-07-19T19:50:18.38</time>
<name>100</name>
</trkpt>
<trkpt lat="39.022448" lon="-3.808782">
<ele>679.5</ele>
<speed>22.8</speed>
<course>28.9</course>
<desc>Speed 22.8 km/h Distance 0.45 km</desc>
<time>2011-07-19T19:50:19.38</time>
<name>101</name>
</trkpt>
<trkpt lat="39.022500" lon="-3.808745">
<ele>679.0</ele>
<speed>22.7</speed>
<course>29.7</course>
<desc>Speed 22.7 km/h Distance 0.46 km</desc>
<time>2011-07-19T19:50:20.39</time>
<name>102</name>
</trkpt>
<trkpt lat="39.022550" lon="-3.808708">
<ele>679.0</ele>
<speed>22.6</speed>
<course>27.8</course>
<desc>Speed 22.6 km/h Distance 0.46 km</desc>
<time>2011-07-19T19:50:21.38</time>
<name>103</name>
</trkpt>
<trkpt lat="39.022602" lon="-3.808673">
<ele>678.5</ele>
<speed>22.0</speed>
<course>30.8</course>
<desc>Speed 22.0 km/h Distance 0.47 km</desc>
<time>2011-07-19T19:50:22.37</time>
<name>104</name>
</trkpt>
<trkpt lat="39.022652" lon="-3.808635">
<ele>678.5</ele>
<speed>22.2</speed>
<course>35.8</course>
<desc>Speed 22.2 km/h Distance 0.47 km</desc>
<time>2011-07-19T19:50:23.38</time>
<name>105</name>
</trkpt>
<trkpt lat="39.022698" lon="-3.808592">
<ele>678.5</ele>
<speed>22.3</speed>
<course>39.9</course>
<desc>Speed 22.3 km/h Distance 0.48 km</desc>
<time>2011-07-19T19:50:24.38</time>
<name>106</name>
</trkpt>
<trkpt lat="39.022742" lon="-3.808545">
<ele>679.0</ele>
<speed>22.4</speed>
<course>34.8</course>
<desc>Speed 22.4 km/h Distance 0.49 km</desc>
<time>2011-07-19T19:50:25.38</time>
<name>107</name>
</trkpt>
<trkpt lat="39.022788" lon="-3.808503">
<ele>679.0</ele>
<speed>21.7</speed>
<course>32.6</course>
<desc>Speed 21.7 km/h Distance 0.49 km</desc>
<time>2011-07-19T19:50:26.38</time>
<name>108</name>
</trkpt>
<trkpt lat="39.022835" lon="-3.808465">
<ele>679.5</ele>
<speed>21.2</speed>
<course>32.3</course>
<desc>Speed 21.2 km/h Distance 0.50 km</desc>
<time>2011-07-19T19:50:27.38</time>
<name>109</name>
</trkpt>
<trkpt lat="39.022880" lon="-3.808428">
<ele>680.0</ele>
<speed>20.8</speed>
<course>30.3</course>
<desc>Speed 20.8 km/h Distance 0.51 km</desc>
<time>2011-07-19T19:50:28.38</time>
<name>110</name>
</trkpt>
<trkpt lat="39.022927" lon="-3.808393">
<ele>680.5</ele>
<speed>20.7</speed>
<course>29.9</course>
<desc>Speed 20.7 km/h Distance 0.51 km</desc>
<time>2011-07-19T19:50:29.38</time>
<name>111</name>
</trkpt>
<trkpt lat="39.022972" lon="-3.808360">
<ele>681.0</ele>
<speed>19.9</speed>
<course>27.4</course>
<desc>Speed 19.9 km/h Distance 0.52 km</desc>
<time>2011-07-19T19:50:30.40</time>
<name>112</name>
</trkpt>
<trkpt lat="39.023017" lon="-3.808330">
<ele>681.5</ele>
<speed>19.7</speed>
<course>33.1</course>
<desc>Speed 19.7 km/h Distance 0.52 km</desc>
<time>2011-07-19T19:50:31.38</time>
<name>113</name>
</trkpt>
<trkpt lat="39.023058" lon="-3.808295">
<ele>682.0</ele>
<speed>19.8</speed>
<course>29.9</course>
<desc>Speed 19.8 km/h Distance 0.53 km</desc>
<time>2011-07-19T19:50:32.38</time>
<name>114</name>
</trkpt>
<trkpt lat="39.023103" lon="-3.808262">
<ele>682.5</ele>
<speed>19.9</speed>
<course>26.5</course>
<desc>Speed 19.9 km/h Distance 0.53 km</desc>
<time>2011-07-19T19:50:33.38</time>
<name>115</name>
</trkpt>
<trkpt lat="39.023150" lon="-3.808232">
<ele>683.0</ele>
<speed>19.2</speed>
<course>30.6</course>
<desc>Speed 19.2 km/h Distance 0.54 km</desc>
<time>2011-07-19T19:50:34.38</time>
<name>116</name>
</trkpt>
<trkpt lat="39.023192" lon="-3.808200">
<ele>683.5</ele>
<speed>19.0</speed>
<course>30.6</course>
<desc>Speed 19.0 km/h Distance 0.55 km</desc>
<time>2011-07-19T19:50:35.38</time>
<name>117</name>
</trkpt>
<trkpt lat="39.023233" lon="-3.808168">
<ele>684.0</ele>
<speed>18.8</speed>
<course>25.5</course>
<desc>Speed 18.8 km/h Distance 0.55 km</desc>
<time>2011-07-19T19:50:36.38</time>
<name>118</name>
</trkpt>
<trkpt lat="39.023277" lon="-3.808142">
<ele>684.5</ele>
<speed>18.1</speed>
<course>22.7</course>
<desc>Speed 18.1 km/h Distance 0.56 km</desc>
<time>2011-07-19T19:50:37.38</time>
<name>119</name>
</trkpt>
<trkpt lat="39.023320" lon="-3.808118">
<ele>684.5</ele>
<speed>18.1</speed>
<course>21.9</course>
<desc>Speed 18.1 km/h Distance 0.56 km</desc>
<time>2011-07-19T19:50:38.38</time>
<name>120</name>
</trkpt>
<trkpt lat="39.023365" lon="-3.808095">
<ele>685.0</ele>
<speed>17.6</speed>
<course>16.6</course>
<desc>Speed 17.6 km/h Distance 0.57 km</desc>
<time>2011-07-19T19:50:39.38</time>
<name>121</name>
</trkpt>
<trkpt lat="39.023408" lon="-3.808078">
<ele>685.5</ele>
<speed>17.5</speed>
<course>18.2</course>
<desc>Speed 17.5 km/h Distance 0.57 km</desc>
<time>2011-07-19T19:50:40.39</time>
<name>122</name>
</trkpt>
<trkpt lat="39.023452" lon="-3.808060">
<ele>686.0</ele>
<speed>17.2</speed>
<course>20.5</course>
<desc>Speed 17.2 km/h Distance 0.58 km</desc>
<time>2011-07-19T19:50:41.38</time>
<name>123</name>
</trkpt>
<trkpt lat="39.023493" lon="-3.808040">
<ele>686.5</ele>
<speed>16.8</speed>
<course>18.2</course>
<desc>Speed 16.8 km/h Distance 0.58 km</desc>
<time>2011-07-19T19:50:42.38</time>
<name>124</name>
</trkpt>
<trkpt lat="39.023537" lon="-3.808022">
<ele>686.5</ele>
<speed>16.8</speed>
<course>12.3</course>
<desc>Speed 16.8 km/h Distance 0.59 km</desc>
<time>2011-07-19T19:50:43.40</time>
<name>125</name>
</trkpt>
<trkpt lat="39.023578" lon="-3.808010">
<ele>687.5</ele>
<speed>16.6</speed>
<course>17.9</course>
<desc>Speed 16.6 km/h Distance 0.59 km</desc>
<time>2011-07-19T19:50:44.38</time>
<name>126</name>
</trkpt>
<trkpt lat="39.023618" lon="-3.807993">
<ele>688.5</ele>
<speed>16.1</speed>
<course>24.4</course>
<desc>Speed 16.1 km/h Distance 0.60 km</desc>
<time>2011-07-19T19:50:45.38</time>
<name>127</name>
</trkpt>
<trkpt lat="39.023658" lon="-3.807970">
<ele>689.0</ele>
<speed>15.9</speed>
<course>19.6</course>
<desc>Speed 15.9 km/h Distance 0.60 km</desc>
<time>2011-07-19T19:50:46.38</time>
<name>128</name>
</trkpt>
<trkpt lat="39.023698" lon="-3.807952">
<ele>689.5</ele>
<speed>15.6</speed>
<course>16.9</course>
<desc>Speed 15.6 km/h Distance 0.61 km</desc>
<time>2011-07-19T19:50:47.38</time>
<name>129</name>
</trkpt>
<trkpt lat="39.023737" lon="-3.807937">
<ele>690.5</ele>
<speed>15.2</speed>
<course>23.2</course>
<desc>Speed 15.2 km/h Distance 0.61 km</desc>
<time>2011-07-19T19:50:48.38</time>
<name>130</name>
</trkpt>
<trkpt lat="39.023852" lon="-3.807873">
<ele>688.5</ele>
<speed>21.2</speed>
<course>26.2</course>
<desc>Speed 21.2 km/h Distance 0.62 km</desc>
<time>2011-07-19T19:50:50.38</time>
<name>131</name>
</trkpt>
<trkpt lat="39.023902" lon="-3.807842">
<ele>688.5</ele>
<speed>20.7</speed>
<course>25.5</course>
<desc>Speed 20.7 km/h Distance 0.63 km</desc>
<time>2011-07-19T19:50:51.37</time>
<name>132</name>
</trkpt>
<trkpt lat="39.023953" lon="-3.807810">
<ele>688.0</ele>
<speed>20.7</speed>
<course>27.0</course>
<desc>Speed 20.7 km/h Distance 0.64 km</desc>
<time>2011-07-19T19:50:52.38</time>
<name>133</name>
</trkpt>
<trkpt lat="39.024002" lon="-3.807778">
<ele>687.5</ele>
<speed>20.1</speed>
<course>25.5</course>
<desc>Speed 20.1 km/h Distance 0.64 km</desc>
<time>2011-07-19T19:50:53.38</time>
<name>134</name>
</trkpt>
<trkpt lat="39.024053" lon="-3.807747">
<ele>687.0</ele>
<speed>20.1</speed>
<course>26.2</course>
<desc>Speed 20.1 km/h Distance 0.65 km</desc>
<time>2011-07-19T19:50:54.37</time>
<name>135</name>
</trkpt>
<trkpt lat="39.024103" lon="-3.807715">
<ele>686.5</ele>
<speed>19.8</speed>
<course>27.0</course>
<desc>Speed 19.8 km/h Distance 0.66 km</desc>
<time>2011-07-19T19:50:55.38</time>
<name>136</name>
</trkpt>
<trkpt lat="39.024152" lon="-3.807683">
<ele>686.0</ele>
<speed>19.5</speed>
<course>27.8</course>
<desc>Speed 19.5 km/h Distance 0.66 km</desc>
<time>2011-07-19T19:50:56.38</time>
<name>137</name>
</trkpt>
<trkpt lat="39.024198" lon="-3.807652">
<ele>685.5</ele>
<speed>19.3</speed>
<course>31.2</course>
<desc>Speed 19.3 km/h Distance 0.67 km</desc>
<time>2011-07-19T19:50:57.37</time>
<name>138</name>
</trkpt>
<trkpt lat="39.024243" lon="-3.807617">
<ele>685.5</ele>
<speed>19.3</speed>
<course>31.2</course>
<desc>Speed 19.3 km/h Distance 0.67 km</desc>
<time>2011-07-19T19:50:58.38</time>
<name>139</name>
</trkpt>
<trkpt lat="39.024288" lon="-3.807582">
<ele>685.5</ele>
<speed>19.1</speed>
<course>29.9</course>
<desc>Speed 19.1 km/h Distance 0.68 km</desc>
<time>2011-07-19T19:50:59.38</time>
<name>140</name>
</trkpt>
<trkpt lat="39.024333" lon="-3.807548">
<ele>685.5</ele>
<speed>18.8</speed>
<course>28.3</course>
<desc>Speed 18.8 km/h Distance 0.69 km</desc>
<time>2011-07-19T19:51:00.38</time>
<name>141</name>
</trkpt>
<trkpt lat="39.024377" lon="-3.807518">
<ele>685.0</ele>
<speed>18.3</speed>
<course>27.4</course>
<desc>Speed 18.3 km/h Distance 0.69 km</desc>
<time>2011-07-19T19:51:01.38</time>
<name>142</name>
</trkpt>
<trkpt lat="39.024422" lon="-3.807488">
<ele>684.5</ele>
<speed>18.2</speed>
<course>28.3</course>
<desc>Speed 18.2 km/h Distance 0.70 km</desc>
<time>2011-07-19T19:51:02.38</time>
<name>143</name>
</trkpt>
<trkpt lat="39.024465" lon="-3.807458">
<ele>684.5</ele>
<speed>17.8</speed>
<course>29.2</course>
<desc>Speed 17.8 km/h Distance 0.70 km</desc>
<time>2011-07-19T19:51:03.38</time>
<name>144</name>
</trkpt>
<trkpt lat="39.024507" lon="-3.807428">
<ele>684.5</ele>
<speed>17.6</speed>
<course>28.8</course>
<desc>Speed 17.6 km/h Distance 0.71 km</desc>
<time>2011-07-19T19:51:04.38</time>
<name>145</name>
</trkpt>
<trkpt lat="39.024547" lon="-3.807400">
<ele>684.5</ele>
<speed>17.3</speed>
<course>18.2</course>
<desc>Speed 17.3 km/h Distance 0.71 km</desc>
<time>2011-07-19T19:51:05.38</time>
<name>146</name>
</trkpt>
<trkpt lat="39.024590" lon="-3.807382">
<ele>685.0</ele>
<speed>16.8</speed>
<course>6.9</course>
<desc>Speed 16.8 km/h Distance 0.72 km</desc>
<time>2011-07-19T19:51:06.38</time>
<name>147</name>
</trkpt>
<trkpt lat="39.024633" lon="-3.807375">
<ele>685.0</ele>
<speed>16.7</speed>
<course>3.2</course>
<desc>Speed 16.7 km/h Distance 0.72 km</desc>
<time>2011-07-19T19:51:07.38</time>
<name>148</name>
</trkpt>
<trkpt lat="39.024680" lon="-3.807372">
<ele>685.0</ele>
<speed>17.4</speed>
<course>3.2</course>
<desc>Speed 17.4 km/h Distance 0.73 km</desc>
<time>2011-07-19T19:51:08.38</time>
<name>149</name>
</trkpt>
<trkpt lat="39.024727" lon="-3.807368">
<ele>685.5</ele>
<speed>17.9</speed>
<course>0.6</course>
<desc>Speed 17.9 km/h Distance 0.73 km</desc>
<time>2011-07-19T19:51:09.38</time>
<name>150</name>
</trkpt>
<trkpt lat="39.024773" lon="-3.807368">
<ele>685.5</ele>
<speed>17.9</speed>
<course>1.5</course>
<desc>Speed 17.9 km/h Distance 0.74 km</desc>
<time>2011-07-19T19:51:10.38</time>
<name>151</name>
</trkpt>
<trkpt lat="39.024818" lon="-3.807367">
<ele>685.5</ele>
<speed>17.6</speed>
<course>3.2</course>
<desc>Speed 17.6 km/h Distance 0.74 km</desc>
<time>2011-07-19T19:51:11.38</time>
<name>152</name>
</trkpt>
<trkpt lat="39.024865" lon="-3.807363">
<ele>686.0</ele>
<speed>17.2</speed>
<course>6.5</course>
<desc>Speed 17.2 km/h Distance 0.75 km</desc>
<time>2011-07-19T19:51:12.38</time>
<name>153</name>
</trkpt>
<trkpt lat="39.024910" lon="-3.807357">
<ele>686.0</ele>
<speed>17.2</speed>
<course>1.6</course>
<desc>Speed 17.2 km/h Distance 0.75 km</desc>
<time>2011-07-19T19:51:13.38</time>
<name>154</name>
</trkpt>
<trkpt lat="39.024953" lon="-3.807355">
<ele>686.5</ele>
<speed>16.9</speed>
<course>1.6</course>
<desc>Speed 16.9 km/h Distance 0.76 km</desc>
<time>2011-07-19T19:51:14.38</time>
<name>155</name>
</trkpt>
<trkpt lat="39.024997" lon="-3.807353">
<ele>686.5</ele>
<speed>16.9</speed>
<course>5.4</course>
<desc>Speed 16.9 km/h Distance 0.76 km</desc>
<time>2011-07-19T19:51:15.38</time>
<name>156</name>
</trkpt>
<trkpt lat="39.025038" lon="-3.807348">
<ele>686.5</ele>
<speed>16.4</speed>
<course>4.4</course>
<desc>Speed 16.4 km/h Distance 0.77 km</desc>
<time>2011-07-19T19:51:16.38</time>
<name>157</name>
</trkpt>
<trkpt lat="39.025090" lon="-3.807343">
<ele>686.5</ele>
<speed>20.0</speed>
<course>4.5</course>
<desc>Speed 20.0 km/h Distance 0.77 km</desc>
<time>2011-07-19T19:51:17.37</time>
<name>158</name>
</trkpt>
<trkpt lat="39.025140" lon="-3.807338">
<ele>686.5</ele>
<speed>19.5</speed>
<course>4.5</course>
<desc>Speed 19.5 km/h Distance 0.78 km</desc>
<time>2011-07-19T19:51:18.38</time>
<name>159</name>
</trkpt>
<trkpt lat="39.025190" lon="-3.807333">
<ele>686.5</ele>
<speed>19.4</speed>
<course>1.3</course>
<desc>Speed 19.4 km/h Distance 0.78 km</desc>
<time>2011-07-19T19:51:19.38</time>
<name>160</name>
</trkpt>
<trkpt lat="39.025242" lon="-3.807332">
<ele>686.5</ele>
<speed>19.8</speed>
<course>0.9</course>
<desc>Speed 19.8 km/h Distance 0.79 km</desc>
<time>2011-07-19T19:51:20.38</time>
<name>161</name>
</trkpt>
<trkpt lat="39.025293" lon="-3.807332">
<ele>686.5</ele>
<speed>19.7</speed>
<course>358.8</course>
<desc>Speed 19.7 km/h Distance 0.80 km</desc>
<time>2011-07-19T19:51:21.38</time>
<name>162</name>
</trkpt>
<trkpt lat="39.025347" lon="-3.807333">
<ele>687.0</ele>
<speed>19.8</speed>
<course>354.5</course>
<desc>Speed 19.8 km/h Distance 0.80 km</desc>
<time>2011-07-19T19:51:22.38</time>
<name>163</name>
</trkpt>
<trkpt lat="39.025400" lon="-3.807340">
<ele>687.0</ele>
<speed>20.2</speed>
<course>353.1</course>
<desc>Speed 20.2 km/h Distance 0.81 km</desc>
<time>2011-07-19T19:51:23.38</time>
<name>164</name>
</trkpt>
<trkpt lat="39.025453" lon="-3.807348">
<ele>687.0</ele>
<speed>20.2</speed>
<course>350.3</course>
<desc>Speed 20.2 km/h Distance 0.81 km</desc>
<time>2011-07-19T19:51:24.38</time>
<name>165</name>
</trkpt>
<trkpt lat="39.025507" lon="-3.807360">
<ele>687.0</ele>
<speed>20.3</speed>
<course>347.3</course>
<desc>Speed 20.3 km/h Distance 0.82 km</desc>
<time>2011-07-19T19:51:25.38</time>
<name>166</name>
</trkpt>
<trkpt lat="39.025558" lon="-3.807375">
<ele>687.0</ele>
<speed>20.2</speed>
<course>347.7</course>
<desc>Speed 20.2 km/h Distance 0.83 km</desc>
<time>2011-07-19T19:51:26.38</time>
<name>167</name>
</trkpt>
<trkpt lat="39.025612" lon="-3.807390">
<ele>686.5</ele>
<speed>20.3</speed>
<course>344.6</course>
<desc>Speed 20.3 km/h Distance 0.83 km</desc>
<time>2011-07-19T19:51:27.38</time>
<name>168</name>
</trkpt>
<trkpt lat="39.025663" lon="-3.807408">
<ele>686.0</ele>
<speed>20.0</speed>
<course>345.5</course>
<desc>Speed 20.0 km/h Distance 0.84 km</desc>
<time>2011-07-19T19:51:28.38</time>
<name>169</name>
</trkpt>
<trkpt lat="39.025713" lon="-3.807425">
<ele>686.0</ele>
<speed>19.6</speed>
<course>347.3</course>
<desc>Speed 19.6 km/h Distance 0.84 km</desc>
<time>2011-07-19T19:51:29.38</time>
<name>170</name>
</trkpt>
<trkpt lat="39.025765" lon="-3.807440">
<ele>685.5</ele>
<speed>19.5</speed>
<course>344.6</course>
<desc>Speed 19.5 km/h Distance 0.85 km</desc>
<time>2011-07-19T19:51:30.38</time>
<name>171</name>
</trkpt>
<trkpt lat="39.025817" lon="-3.807458">
<ele>685.5</ele>
<speed>19.6</speed>
<course>342.7</course>
<desc>Speed 19.6 km/h Distance 0.86 km</desc>
<time>2011-07-19T19:51:31.37</time>
<name>172</name>
</trkpt>
<trkpt lat="39.025867" lon="-3.807478">
<ele>685.5</ele>
<speed>19.7</speed>
<course>342.8</course>
<desc>Speed 19.7 km/h Distance 0.86 km</desc>
<time>2011-07-19T19:51:32.38</time>
<name>173</name>
</trkpt>
<trkpt lat="39.025917" lon="-3.807498">
<ele>685.0</ele>
<speed>19.6</speed>
<course>340.8</course>
<desc>Speed 19.6 km/h Distance 0.87 km</desc>
<time>2011-07-19T19:51:33.38</time>
<name>174</name>
</trkpt>
<trkpt lat="39.025965" lon="-3.807520">
<ele>685.0</ele>
<speed>19.5</speed>
<course>342.2</course>
<desc>Speed 19.5 km/h Distance 0.87 km</desc>
<time>2011-07-19T19:51:34.37</time>
<name>175</name>
</trkpt>
<trkpt lat="39.026013" lon="-3.807540">
<ele>685.0</ele>
<speed>19.4</speed>
<course>341.6</course>
<desc>Speed 19.4 km/h Distance 0.88 km</desc>
<time>2011-07-19T19:51:35.38</time>
<name>176</name>
</trkpt>
<trkpt lat="39.026060" lon="-3.807560">
<ele>685.5</ele>
<speed>19.3</speed>
<course>340.2</course>
<desc>Speed 19.3 km/h Distance 0.88 km</desc>
<time>2011-07-19T19:51:36.38</time>
<name>177</name>
</trkpt>
<trkpt lat="39.026107" lon="-3.807582">
<ele>685.5</ele>
<speed>19.0</speed>
<course>341.6</course>
<desc>Speed 19.0 km/h Distance 0.89 km</desc>
<time>2011-07-19T19:51:37.37</time>
<name>178</name>
</trkpt>
<trkpt lat="39.026153" lon="-3.807602">
<ele>685.5</ele>
<speed>19.0</speed>
<course>345.0</course>
<desc>Speed 19.0 km/h Distance 0.89 km</desc>
<time>2011-07-19T19:51:38.38</time>
<name>179</name>
</trkpt>
<trkpt lat="39.026202" lon="-3.807618">
<ele>685.5</ele>
<speed>18.7</speed>
<course>344.5</course>
<desc>Speed 18.7 km/h Distance 0.90 km</desc>
<time>2011-07-19T19:51:39.38</time>
<name>180</name>
</trkpt>
<trkpt lat="39.026248" lon="-3.807635">
<ele>686.0</ele>
<speed>18.4</speed>
<course>338.8</course>
<desc>Speed 18.4 km/h Distance 0.91 km</desc>
<time>2011-07-19T19:51:40.38</time>
<name>181</name>
</trkpt>
<trkpt lat="39.026292" lon="-3.807657">
<ele>686.5</ele>
<speed>18.5</speed>
<course>333.9</course>
<desc>Speed 18.5 km/h Distance 0.91 km</desc>
<time>2011-07-19T19:51:41.37</time>
<name>182</name>
</trkpt>
<trkpt lat="39.026337" lon="-3.807685">
<ele>686.5</ele>
<speed>19.4</speed>
<course>334.8</course>
<desc>Speed 19.4 km/h Distance 0.92 km</desc>
<time>2011-07-19T19:51:42.38</time>
<name>183</name>
</trkpt>
<trkpt lat="39.026383" lon="-3.807713">
<ele>686.5</ele>
<speed>19.3</speed>
<course>339.5</course>
<desc>Speed 19.3 km/h Distance 0.92 km</desc>
<time>2011-07-19T19:51:43.40</time>
<name>184</name>
</trkpt>
<trkpt lat="39.026428" lon="-3.807735">
<ele>687.0</ele>
<speed>18.2</speed>
<course>340.3</course>
<desc>Speed 18.2 km/h Distance 0.93 km</desc>
<time>2011-07-19T19:51:44.38</time>
<name>185</name>
</trkpt>
<trkpt lat="39.026472" lon="-3.807755">
<ele>687.5</ele>
<speed>17.5</speed>
<course>338.1</course>
<desc>Speed 17.5 km/h Distance 0.93 km</desc>
<time>2011-07-19T19:51:45.38</time>
<name>186</name>
</trkpt>
<trkpt lat="39.026517" lon="-3.807778">
<ele>687.5</ele>
<speed>18.1</speed>
<course>334.4</course>
<desc>Speed 18.1 km/h Distance 0.94 km</desc>
<time>2011-07-19T19:51:46.38</time>
<name>187</name>
</trkpt>
<trkpt lat="39.026560" lon="-3.807805">
<ele>687.5</ele>
<speed>18.4</speed>
<course>334.4</course>
<desc>Speed 18.4 km/h Distance 0.94 km</desc>
<time>2011-07-19T19:51:47.38</time>
<name>188</name>
</trkpt>
<trkpt lat="39.026603" lon="-3.807832">
<ele>688.0</ele>
<speed>18.3</speed>
<course>339.4</course>
<desc>Speed 18.3 km/h Distance 0.95 km</desc>
<time>2011-07-19T19:51:48.37</time>
<name>189</name>
</trkpt>
<trkpt lat="39.026652" lon="-3.807855">
<ele>688.0</ele>
<speed>20.6</speed>
<course>340.1</course>
<desc>Speed 20.6 km/h Distance 0.95 km</desc>
<time>2011-07-19T19:51:49.37</time>
<name>190</name>
</trkpt>
<trkpt lat="39.026702" lon="-3.807878">
<ele>688.0</ele>
<speed>20.6</speed>
<course>342.0</course>
<desc>Speed 20.6 km/h Distance 0.96 km</desc>
<time>2011-07-19T19:51:50.38</time>
<name>191</name>
</trkpt>
<trkpt lat="39.026753" lon="-3.807900">
<ele>688.0</ele>
<speed>20.6</speed>
<course>343.3</course>
<desc>Speed 20.6 km/h Distance 0.97 km</desc>
<time>2011-07-19T19:51:51.37</time>
<name>192</name>
</trkpt>
<trkpt lat="39.026805" lon="-3.807920">
<ele>688.0</ele>
<speed>20.2</speed>
<course>341.4</course>
<desc>Speed 20.2 km/h Distance 0.97 km</desc>
<time>2011-07-19T19:51:52.37</time>
<name>193</name>
</trkpt>
<trkpt lat="39.026855" lon="-3.807942">
<ele>688.0</ele>
<speed>20.1</speed>
<course>343.6</course>
<desc>Speed 20.1 km/h Distance 0.98 km</desc>
<time>2011-07-19T19:51:53.38</time>
<name>194</name>
</trkpt>
<trkpt lat="39.026903" lon="-3.807960">
<ele>688.0</ele>
<speed>19.5</speed>
<course>344.1</course>
<desc>Speed 19.5 km/h Distance 0.98 km</desc>
<time>2011-07-19T19:51:54.38</time>
<name>195</name>
</trkpt>
<trkpt lat="39.026953" lon="-3.807978">
<ele>688.0</ele>
<speed>19.6</speed>
<course>340.8</course>
<desc>Speed 19.6 km/h Distance 0.99 km</desc>
<time>2011-07-19T19:51:55.37</time>
<name>196</name>
</trkpt>
<trkpt lat="39.027002" lon="-3.808000">
<ele>688.0</ele>
<speed>19.5</speed>
<course>343.2</course>
<desc>Speed 19.5 km/h Distance 1.00 km</desc>
<time>2011-07-19T19:51:56.37</time>
<name>197</name>
</trkpt>
<trkpt lat="39.027053" lon="-3.808020">
<ele>687.5</ele>
<speed>19.7</speed>
<course>343.3</course>
<desc>Speed 19.7 km/h Distance 1.00 km</desc>
<time>2011-07-19T19:51:57.38</time>
<name>198</name>
</trkpt>
<trkpt lat="39.027105" lon="-3.808040">
<ele>687.5</ele>
<speed>19.4</speed>
<course>344.5</course>
<desc>Speed 19.4 km/h Distance 1.01 km</desc>
<time>2011-07-19T19:51:58.37</time>
<name>199</name>
</trkpt>
<trkpt lat="39.027152" lon="-3.808057">
<ele>687.5</ele>
<speed>18.9</speed>
<course>343.6</course>
<desc>Speed 18.9 km/h Distance 1.01 km</desc>
<time>2011-07-19T19:51:59.38</time>
<name>200</name>
</trkpt>
<trkpt lat="39.027200" lon="-3.808075">
<ele>687.5</ele>
<speed>18.5</speed>
<course>345.0</course>
<desc>Speed 18.5 km/h Distance 1.02 km</desc>
<time>2011-07-19T19:52:00.38</time>
<name>201</name>
</trkpt>
<trkpt lat="39.027248" lon="-3.808092">
<ele>687.5</ele>
<speed>18.4</speed>
<course>343.6</course>
<desc>Speed 18.4 km/h Distance 1.02 km</desc>
<time>2011-07-19T19:52:01.38</time>
<name>202</name>
</trkpt>
<trkpt lat="39.027297" lon="-3.808110">
<ele>687.5</ele>
<speed>18.4</speed>
<course>342.4</course>
<desc>Speed 18.4 km/h Distance 1.03 km</desc>
<time>2011-07-19T19:52:02.38</time>
<name>203</name>
</trkpt>
<trkpt lat="39.027342" lon="-3.808128">
<ele>688.0</ele>
<speed>18.2</speed>
<course>346.0</course>
<desc>Speed 18.2 km/h Distance 1.03 km</desc>
<time>2011-07-19T19:52:03.38</time>
<name>204</name>
</trkpt>
<trkpt lat="39.027388" lon="-3.808143">
<ele>688.0</ele>
<speed>17.8</speed>
<course>346.0</course>
<desc>Speed 17.8 km/h Distance 1.04 km</desc>
<time>2011-07-19T19:52:04.38</time>
<name>205</name>
</trkpt>
<trkpt lat="39.027435" lon="-3.808158">
<ele>688.5</ele>
<speed>17.4</speed>
<course>343.3</course>
<desc>Speed 17.4 km/h Distance 1.05 km</desc>
<time>2011-07-19T19:52:05.37</time>
<name>206</name>
</trkpt>
<trkpt lat="39.027478" lon="-3.808175">
<ele>688.5</ele>
<speed>17.4</speed>
<course>341.8</course>
<desc>Speed 17.4 km/h Distance 1.05 km</desc>
<time>2011-07-19T19:52:06.38</time>
<name>207</name>
</trkpt>
<trkpt lat="39.027522" lon="-3.808193">
<ele>689.0</ele>
<speed>17.3</speed>
<course>345.0</course>
<desc>Speed 17.3 km/h Distance 1.06 km</desc>
<time>2011-07-19T19:52:07.37</time>
<name>208</name>
</trkpt>
<trkpt lat="39.027570" lon="-3.808210">
<ele>689.5</ele>
<speed>20.3</speed>
<course>348.6</course>
<desc>Speed 20.3 km/h Distance 1.06 km</desc>
<time>2011-07-19T19:52:08.37</time>
<name>209</name>
</trkpt>
<trkpt lat="39.027622" lon="-3.808223">
<ele>689.5</ele>
<speed>20.1</speed>
<course>350.0</course>
<desc>Speed 20.1 km/h Distance 1.07 km</desc>
<time>2011-07-19T19:52:09.38</time>
<name>210</name>
</trkpt>
<trkpt lat="39.027673" lon="-3.808235">
<ele>689.5</ele>
<speed>20.2</speed>
<course>350.0</course>
<desc>Speed 20.2 km/h Distance 1.07 km</desc>
<time>2011-07-19T19:52:10.37</time>
<name>211</name>
</trkpt>
<trkpt lat="39.027725" lon="-3.808247">
<ele>689.5</ele>
<speed>19.9</speed>
<course>349.0</course>
<desc>Speed 19.9 km/h Distance 1.08 km</desc>
<time>2011-07-19T19:52:11.37</time>
<name>212</name>
</trkpt>
<trkpt lat="39.027778" lon="-3.808260">
<ele>689.5</ele>
<speed>20.2</speed>
<course>348.6</course>
<desc>Speed 20.2 km/h Distance 1.08 km</desc>
<time>2011-07-19T19:52:12.38</time>
<name>213</name>
</trkpt>
<trkpt lat="39.027830" lon="-3.808273">
<ele>689.0</ele>
<speed>19.8</speed>
<course>345.9</course>
<desc>Speed 19.8 km/h Distance 1.09 km</desc>
<time>2011-07-19T19:52:13.37</time>
<name>214</name>
</trkpt>
<trkpt lat="39.027882" lon="-3.808290">
<ele>689.0</ele>
<speed>19.9</speed>
<course>344.6</course>
<desc>Speed 19.9 km/h Distance 1.10 km</desc>
<time>2011-07-19T19:52:14.38</time>
<name>215</name>
</trkpt>
<trkpt lat="39.027933" lon="-3.808308">
<ele>688.5</ele>
<speed>20.2</speed>
<course>347.8</course>
<desc>Speed 20.2 km/h Distance 1.10 km</desc>
<time>2011-07-19T19:52:15.37</time>
<name>216</name>
</trkpt>
<trkpt lat="39.027993" lon="-3.808325">
<ele>687.5</ele>
<speed>20.1</speed>
<course>345.8</course>
<desc>Speed 20.1 km/h Distance 1.11 km</desc>
<time>2011-07-19T19:52:16.37</time>
<name>217</name>
</trkpt>
<trkpt lat="39.028055" lon="-3.808345">
<ele>686.5</ele>
<speed>20.2</speed>
<course>343.3</course>
<desc>Speed 20.2 km/h Distance 1.12 km</desc>
<time>2011-07-19T19:52:17.38</time>
<name>218</name>
</trkpt>
<trkpt lat="39.028107" lon="-3.808365">
<ele>686.5</ele>
<speed>19.7</speed>
<course>344.1</course>
<desc>Speed 19.7 km/h Distance 1.12 km</desc>
<time>2011-07-19T19:52:18.37</time>
<name>219</name>
</trkpt>
<trkpt lat="39.028157" lon="-3.808383">
<ele>686.0</ele>
<speed>19.1</speed>
<course>344.2</course>
<desc>Speed 19.1 km/h Distance 1.13 km</desc>
<time>2011-07-19T19:52:19.37</time>
<name>220</name>
</trkpt>
<trkpt lat="39.028207" lon="-3.808402">
<ele>686.0</ele>
<speed>18.8</speed>
<course>344.2</course>
<desc>Speed 18.8 km/h Distance 1.13 km</desc>
<time>2011-07-19T19:52:20.37</time>
<name>221</name>
</trkpt>
<trkpt lat="39.028257" lon="-3.808420">
<ele>685.5</ele>
<speed>18.7</speed>
<course>340.2</course>
<desc>Speed 18.7 km/h Distance 1.14 km</desc>
<time>2011-07-19T19:52:21.37</time>
<name>222</name>
</trkpt>
<trkpt lat="39.028303" lon="-3.808442">
<ele>686.0</ele>
<speed>18.7</speed>
<course>340.8</course>
<desc>Speed 18.7 km/h Distance 1.15 km</desc>
<time>2011-07-19T19:52:22.37</time>
<name>223</name>
</trkpt>
<trkpt lat="39.028352" lon="-3.808463">
<ele>686.0</ele>
<speed>18.9</speed>
<course>345.9</course>
<desc>Speed 18.9 km/h Distance 1.15 km</desc>
<time>2011-07-19T19:52:23.38</time>
<name>224</name>
</trkpt>
<trkpt lat="39.028408" lon="-3.808482">
<ele>685.0</ele>
<speed>18.8</speed>
<course>340.2</course>
<desc>Speed 18.8 km/h Distance 1.16 km</desc>
<time>2011-07-19T19:52:24.38</time>
<name>225</name>
</trkpt>
<trkpt lat="39.028455" lon="-3.808503">
<ele>685.0</ele>
<speed>18.6</speed>
<course>338.1</course>
<desc>Speed 18.6 km/h Distance 1.16 km</desc>
<time>2011-07-19T19:52:25.37</time>
<name>226</name>
</trkpt>
<trkpt lat="39.028500" lon="-3.808527">
<ele>685.5</ele>
<speed>18.5</speed>
<course>339.5</course>
<desc>Speed 18.5 km/h Distance 1.17 km</desc>
<time>2011-07-19T19:52:26.37</time>
<name>227</name>
</trkpt>
<trkpt lat="39.028545" lon="-3.808548">
<ele>685.5</ele>
<speed>18.5</speed>
<course>340.2</course>
<desc>Speed 18.5 km/h Distance 1.17 km</desc>
<time>2011-07-19T19:52:27.37</time>
<name>228</name>
</trkpt>
<trkpt lat="39.028592" lon="-3.808570">
<ele>685.5</ele>
<speed>17.9</speed>
<course>340.9</course>
<desc>Speed 17.9 km/h Distance 1.18 km</desc>
<time>2011-07-19T19:52:28.37</time>
<name>229</name>
</trkpt>
<trkpt lat="39.028637" lon="-3.808590">
<ele>685.5</ele>
<speed>17.8</speed>
<course>338.8</course>
<desc>Speed 17.8 km/h Distance 1.18 km</desc>
<time>2011-07-19T19:52:29.38</time>
<name>230</name>
</trkpt>
<trkpt lat="39.028680" lon="-3.808612">
<ele>686.0</ele>
<speed>17.7</speed>
<course>336.5</course>
<desc>Speed 17.7 km/h Distance 1.19 km</desc>
<time>2011-07-19T19:52:30.37</time>
<name>231</name>
</trkpt>
<trkpt lat="39.028722" lon="-3.808635">
<ele>686.0</ele>
<speed>17.6</speed>
<course>340.3</course>
<desc>Speed 17.6 km/h Distance 1.19 km</desc>
<time>2011-07-19T19:52:31.38</time>
<name>232</name>
</trkpt>
<trkpt lat="39.028765" lon="-3.808655">
<ele>686.5</ele>
<speed>17.3</speed>
<course>341.8</course>
<desc>Speed 17.3 km/h Distance 1.20 km</desc>
<time>2011-07-19T19:52:32.37</time>
<name>233</name>
</trkpt>
<trkpt lat="39.028808" lon="-3.808673">
<ele>686.5</ele>
<speed>16.6</speed>
<course>340.9</course>
<desc>Speed 16.6 km/h Distance 1.21 km</desc>
<time>2011-07-19T19:52:33.39</time>
<name>234</name>
</trkpt>
<trkpt lat="39.028853" lon="-3.808693">
<ele>686.5</ele>
<speed>17.1</speed>
<course>339.5</course>
<desc>Speed 17.1 km/h Distance 1.21 km</desc>
<time>2011-07-19T19:52:34.38</time>
<name>235</name>
</trkpt>
<trkpt lat="39.028898" lon="-3.808715">
<ele>686.5</ele>
<speed>17.1</speed>
<course>345.0</course>
<desc>Speed 17.1 km/h Distance 1.22 km</desc>
<time>2011-07-19T19:52:35.37</time>
<name>236</name>
</trkpt>
<trkpt lat="39.028947" lon="-3.808732">
<ele>686.5</ele>
<speed>19.7</speed>
<course>344.6</course>
<desc>Speed 19.7 km/h Distance 1.22 km</desc>
<time>2011-07-19T19:52:36.37</time>
<name>237</name>
</trkpt>
<trkpt lat="39.028998" lon="-3.808750">
<ele>686.0</ele>
<speed>20.1</speed>
<course>347.7</course>
<desc>Speed 20.1 km/h Distance 1.23 km</desc>
<time>2011-07-19T19:52:37.38</time>
<name>238</name>
</trkpt>
<trkpt lat="39.029052" lon="-3.808765">
<ele>685.5</ele>
<speed>19.9</speed>
<course>348.7</course>
<desc>Speed 19.9 km/h Distance 1.23 km</desc>
<time>2011-07-19T19:52:38.37</time>
<name>239</name>
</trkpt>
<trkpt lat="39.029103" lon="-3.808778">
<ele>685.5</ele>
<speed>19.5</speed>
<course>352.9</course>
<desc>Speed 19.5 km/h Distance 1.24 km</desc>
<time>2011-07-19T19:52:39.38</time>
<name>240</name>
</trkpt>
<trkpt lat="39.029155" lon="-3.808787">
<ele>685.5</ele>
<speed>18.9</speed>
<course>358.5</course>
<desc>Speed 18.9 km/h Distance 1.25 km</desc>
<time>2011-07-19T19:52:40.37</time>
<name>241</name>
</trkpt>
<trkpt lat="39.029203" lon="-3.808788">
<ele>685.5</ele>
<speed>17.9</speed>
<course>4.6</course>
<desc>Speed 17.9 km/h Distance 1.25 km</desc>
<time>2011-07-19T19:52:41.37</time>
<name>242</name>
</trkpt>
<trkpt lat="39.029252" lon="-3.808783">
<ele>685.5</ele>
<speed>17.3</speed>
<course>4.8</course>
<desc>Speed 17.3 km/h Distance 1.26 km</desc>
<time>2011-07-19T19:52:42.38</time>
<name>243</name>
</trkpt>
<trkpt lat="39.029298" lon="-3.808778">
<ele>686.0</ele>
<speed>17.4</speed>
<course>7.8</course>
<desc>Speed 17.4 km/h Distance 1.26 km</desc>
<time>2011-07-19T19:52:43.39</time>
<name>244</name>
</trkpt>
<trkpt lat="39.029345" lon="-3.808770">
<ele>686.0</ele>
<speed>16.7</speed>
<course>11.9</course>
<desc>Speed 16.7 km/h Distance 1.27 km</desc>
<time>2011-07-19T19:52:44.38</time>
<name>245</name>
</trkpt>
<trkpt lat="39.029388" lon="-3.808758">
<ele>686.5</ele>
<speed>16.3</speed>
<course>10.5</course>
<desc>Speed 16.3 km/h Distance 1.27 km</desc>
<time>2011-07-19T19:52:45.38</time>
<name>246</name>
</trkpt>
<trkpt lat="39.029430" lon="-3.808748">
<ele>687.0</ele>
<speed>16.2</speed>
<course>3.4</course>
<desc>Speed 16.2 km/h Distance 1.28 km</desc>
<time>2011-07-19T19:52:46.37</time>
<name>247</name>
</trkpt>
<trkpt lat="39.029472" lon="-3.808745">
<ele>688.0</ele>
<speed>15.1</speed>
<course>5.5</course>
<desc>Speed 15.1 km/h Distance 1.28 km</desc>
<time>2011-07-19T19:52:47.38</time>
<name>248</name>
</trkpt>
<trkpt lat="39.029525" lon="-3.808738">
<ele>688.0</ele>
<speed>20.3</speed>
<course>4.3</course>
<desc>Speed 20.3 km/h Distance 1.29 km</desc>
<time>2011-07-19T19:52:48.37</time>
<name>249</name>
</trkpt>
<trkpt lat="39.029577" lon="-3.808733">
<ele>687.5</ele>
<speed>20.3</speed>
<course>2.7</course>
<desc>Speed 20.3 km/h Distance 1.29 km</desc>
<time>2011-07-19T19:52:49.38</time>
<name>250</name>
</trkpt>
<trkpt lat="39.029630" lon="-3.808730">
<ele>687.5</ele>
<speed>20.0</speed>
<course>2.9</course>
<desc>Speed 20.0 km/h Distance 1.30 km</desc>
<time>2011-07-19T19:52:50.37</time>
<name>251</name>
</trkpt>
<trkpt lat="39.029683" lon="-3.808727">
<ele>687.5</ele>
<speed>19.8</speed>
<course>1.2</course>
<desc>Speed 19.8 km/h Distance 1.30 km</desc>
<time>2011-07-19T19:52:51.37</time>
<name>252</name>
</trkpt>
<trkpt lat="39.029737" lon="-3.808725">
<ele>687.0</ele>
<speed>19.7</speed>
<course>1.5</course>
<desc>Speed 19.7 km/h Distance 1.31 km</desc>
<time>2011-07-19T19:52:52.37</time>
<name>253</name>
</trkpt>
<trkpt lat="39.029787" lon="-3.808723">
<ele>687.0</ele>
<speed>19.7</speed>
<course>3.0</course>
<desc>Speed 19.7 km/h Distance 1.32 km</desc>
<time>2011-07-19T19:52:53.37</time>
<name>254</name>
</trkpt>
<trkpt lat="39.029837" lon="-3.808720">
<ele>687.5</ele>
<speed>19.4</speed>
<course>1.3</course>
<desc>Speed 19.4 km/h Distance 1.32 km</desc>
<time>2011-07-19T19:52:54.38</time>
<name>255</name>
</trkpt>
<trkpt lat="39.029888" lon="-3.808718">
<ele>687.0</ele>
<speed>19.3</speed>
<course>0.0</course>
<desc>Speed 19.3 km/h Distance 1.33 km</desc>
<time>2011-07-19T19:52:55.37</time>
<name>256</name>
</trkpt>
<trkpt lat="39.029942" lon="-3.808718">
<ele>687.0</ele>
<speed>19.3</speed>
<course>0.9</course>
<desc>Speed 19.3 km/h Distance 1.33 km</desc>
<time>2011-07-19T19:52:56.37</time>
<name>257</name>
</trkpt>
<trkpt lat="39.029993" lon="-3.808718">
<ele>686.5</ele>
<speed>19.0</speed>
<course>358.5</course>
<desc>Speed 19.0 km/h Distance 1.34 km</desc>
<time>2011-07-19T19:52:57.37</time>
<name>258</name>
</trkpt>
<trkpt lat="39.030043" lon="-3.808720">
<ele>686.5</ele>
<speed>18.9</speed>
<course>358.5</course>
<desc>Speed 18.9 km/h Distance 1.34 km</desc>
<time>2011-07-19T19:52:58.37</time>
<name>259</name>
</trkpt>
<trkpt lat="39.030093" lon="-3.808722">
<ele>686.5</ele>
<speed>18.6</speed>
<course>3.0</course>
<desc>Speed 18.6 km/h Distance 1.35 km</desc>
<time>2011-07-19T19:52:59.38</time>
<name>260</name>
</trkpt>
<trkpt lat="39.030145" lon="-3.808718">
<ele>686.5</ele>
<speed>18.3</speed>
<course>3.0</course>
<desc>Speed 18.3 km/h Distance 1.36 km</desc>
<time>2011-07-19T19:53:00.38</time>
<name>261</name>
</trkpt>
<trkpt lat="39.030197" lon="-3.808715">
<ele>686.5</ele>
<speed>18.1</speed>
<course>0.0</course>
<desc>Speed 18.1 km/h Distance 1.36 km</desc>
<time>2011-07-19T19:53:01.56</time>
<name>262</name>
</trkpt>
<trkpt lat="39.030295" lon="-3.808715">
<ele>686.0</ele>
<speed>18.1</speed>
<course>2.9</course>
<desc>Speed 18.1 km/h Distance 1.37 km</desc>
<time>2011-07-19T19:53:03.37</time>
<name>263</name>
</trkpt>
<trkpt lat="39.030343" lon="-3.808712">
<ele>686.0</ele>
<speed>17.8</speed>
<course>4.6</course>
<desc>Speed 17.8 km/h Distance 1.38 km</desc>
<time>2011-07-19T19:53:04.38</time>
<name>264</name>
</trkpt>
<trkpt lat="39.030392" lon="-3.808707">
<ele>685.5</ele>
<speed>17.4</speed>
<course>0.0</course>
<desc>Speed 17.4 km/h Distance 1.38 km</desc>
<time>2011-07-19T19:53:05.38</time>
<name>265</name>
</trkpt>
<trkpt lat="39.030438" lon="-3.808707">
<ele>685.5</ele>
<speed>17.5</speed>
<course>0.0</course>
<desc>Speed 17.5 km/h Distance 1.39 km</desc>
<time>2011-07-19T19:53:06.37</time>
<name>266</name>
</trkpt>
<trkpt lat="39.030485" lon="-3.808707">
<ele>685.5</ele>
<speed>17.4</speed>
<course>0.6</course>
<desc>Speed 17.4 km/h Distance 1.39 km</desc>
<time>2011-07-19T19:53:07.37</time>
<name>267</name>
</trkpt>
<trkpt lat="39.030532" lon="-3.808707">
<ele>685.5</ele>
<speed>17.3</speed>
<course>0.0</course>
<desc>Speed 17.3 km/h Distance 1.40 km</desc>
<time>2011-07-19T19:53:08.38</time>
<name>268</name>
</trkpt>
<trkpt lat="39.030575" lon="-3.808707">
<ele>686.0</ele>
<speed>17.2</speed>
<course>358.5</course>
<desc>Speed 17.2 km/h Distance 1.40 km</desc>
<time>2011-07-19T19:53:09.37</time>
<name>269</name>
</trkpt>
<trkpt lat="39.030620" lon="-3.808708">
<ele>686.5</ele>
<speed>17.4</speed>
<course>357.0</course>
<desc>Speed 17.4 km/h Distance 1.41 km</desc>
<time>2011-07-19T19:53:10.37</time>
<name>270</name>
</trkpt>
<trkpt lat="39.030667" lon="-3.808712">
<ele>687.0</ele>
<speed>17.3</speed>
<course>2.4</course>
<desc>Speed 17.3 km/h Distance 1.41 km</desc>
<time>2011-07-19T19:53:11.37</time>
<name>271</name>
</trkpt>
<trkpt lat="39.030792" lon="-3.808705">
<ele>685.5</ele>
<speed>21.1</speed>
<course>1.3</course>
<desc>Speed 21.1 km/h Distance 1.43 km</desc>
<time>2011-07-19T19:53:13.37</time>
<name>272</name>
</trkpt>
<trkpt lat="39.030847" lon="-3.808703">
<ele>685.5</ele>
<speed>21.0</speed>
<course>0.8</course>
<desc>Speed 21.0 km/h Distance 1.43 km</desc>
<time>2011-07-19T19:53:14.37</time>
<name>273</name>
</trkpt>
<trkpt lat="39.030903" lon="-3.808703">
<ele>685.0</ele>
<speed>21.0</speed>
<course>0.8</course>
<desc>Speed 21.0 km/h Distance 1.44 km</desc>
<time>2011-07-19T19:53:15.37</time>
<name>274</name>
</trkpt>
<trkpt lat="39.030960" lon="-3.808703">
<ele>684.5</ele>
<speed>20.8</speed>
<course>358.7</course>
<desc>Speed 20.8 km/h Distance 1.45 km</desc>
<time>2011-07-19T19:53:16.37</time>
<name>275</name>
</trkpt>
<trkpt lat="39.031015" lon="-3.808705">
<ele>684.5</ele>
<speed>20.7</speed>
<course>2.5</course>
<desc>Speed 20.7 km/h Distance 1.45 km</desc>
<time>2011-07-19T19:53:17.37</time>
<name>276</name>
</trkpt>
<trkpt lat="39.031070" lon="-3.808702">
<ele>685.0</ele>
<speed>20.2</speed>
<course>1.2</course>
<desc>Speed 20.2 km/h Distance 1.46 km</desc>
<time>2011-07-19T19:53:18.37</time>
<name>277</name>
</trkpt>
<trkpt lat="39.031123" lon="-3.808700">
<ele>685.0</ele>
<speed>20.2</speed>
<course>1.3</course>
<desc>Speed 20.2 km/h Distance 1.46 km</desc>
<time>2011-07-19T19:53:19.37</time>
<name>278</name>
</trkpt>
<trkpt lat="39.031178" lon="-3.808698">
<ele>685.5</ele>
<speed>20.1</speed>
<course>0.0</course>
<desc>Speed 20.1 km/h Distance 1.47 km</desc>
<time>2011-07-19T19:53:20.37</time>
<name>279</name>
</trkpt>
<trkpt lat="39.031232" lon="-3.808698">
<ele>685.0</ele>
<speed>20.0</speed>
<course>358.6</course>
<desc>Speed 20.0 km/h Distance 1.48 km</desc>
<time>2011-07-19T19:53:21.37</time>
<name>280</name>
</trkpt>
<trkpt lat="39.031288" lon="-3.808700">
<ele>685.5</ele>
<speed>20.3</speed>
<course>358.8</course>
<desc>Speed 20.3 km/h Distance 1.48 km</desc>
<time>2011-07-19T19:53:22.37</time>
<name>281</name>
</trkpt>
<trkpt lat="39.031342" lon="-3.808702">
<ele>685.5</ele>
<speed>19.6</speed>
<course>351.9</course>
<desc>Speed 19.6 km/h Distance 1.49 km</desc>
<time>2011-07-19T19:53:23.37</time>
<name>282</name>
</trkpt>
<trkpt lat="39.031397" lon="-3.808712">
<ele>685.0</ele>
<speed>20.0</speed>
<course>340.7</course>
<desc>Speed 20.0 km/h Distance 1.50 km</desc>
<time>2011-07-19T19:53:24.37</time>
<name>283</name>
</trkpt>
<trkpt lat="39.031448" lon="-3.808735">
<ele>684.5</ele>
<speed>21.7</speed>
<course>329.1</course>
<desc>Speed 21.7 km/h Distance 1.50 km</desc>
<time>2011-07-19T19:53:25.37</time>
<name>284</name>
</trkpt>
<trkpt lat="39.031492" lon="-3.808768">
<ele>684.5</ele>
<speed>18.2</speed>
<course>333.5</course>
<desc>Speed 18.2 km/h Distance 1.51 km</desc>
<time>2011-07-19T19:53:26.37</time>
<name>285</name>
</trkpt>
<trkpt lat="39.031538" lon="-3.808798">
<ele>683.5</ele>
<speed>17.9</speed>
<course>329.8</course>
<desc>Speed 17.9 km/h Distance 1.51 km</desc>
<time>2011-07-19T19:53:27.37</time>
<name>286</name>
</trkpt>
<trkpt lat="39.031578" lon="-3.808828">
<ele>683.5</ele>
<speed>17.1</speed>
<course>330.5</course>
<desc>Speed 17.1 km/h Distance 1.52 km</desc>
<time>2011-07-19T19:53:28.37</time>
<name>287</name>
</trkpt>
<trkpt lat="39.031615" lon="-3.808855">
<ele>683.5</ele>
<speed>15.5</speed>
<course>335.3</course>
<desc>Speed 15.5 km/h Distance 1.52 km</desc>
<time>2011-07-19T19:53:29.37</time>
<name>288</name>
</trkpt>
<trkpt lat="39.031652" lon="-3.808877">
<ele>683.5</ele>
<speed>14.2</speed>
<course>336.6</course>
<desc>Speed 14.2 km/h Distance 1.53 km</desc>
<time>2011-07-19T19:53:30.37</time>
<name>289</name>
</trkpt>
<trkpt lat="39.031697" lon="-3.808902">
<ele>683.0</ele>
<speed>16.3</speed>
<course>326.9</course>
<desc>Speed 16.3 km/h Distance 1.53 km</desc>
<time>2011-07-19T19:53:31.37</time>
<name>290</name>
</trkpt>
<trkpt lat="39.031738" lon="-3.808937">
<ele>682.5</ele>
<speed>18.0</speed>
<course>324.5</course>
<desc>Speed 18.0 km/h Distance 1.54 km</desc>
<time>2011-07-19T19:53:32.37</time>
<name>291</name>
</trkpt>
<trkpt lat="39.031780" lon="-3.808975">
<ele>682.5</ele>
<speed>18.8</speed>
<course>325.5</course>
<desc>Speed 18.8 km/h Distance 1.54 km</desc>
<time>2011-07-19T19:53:33.38</time>
<name>292</name>
</trkpt>
<trkpt lat="39.031823" lon="-3.809013">
<ele>682.0</ele>
<speed>19.2</speed>
<course>319.9</course>
<desc>Speed 19.2 km/h Distance 1.55 km</desc>
<time>2011-07-19T19:53:34.37</time>
<name>293</name>
</trkpt>
<trkpt lat="39.031863" lon="-3.809057">
<ele>682.5</ele>
<speed>19.6</speed>
<course>314.6</course>
<desc>Speed 19.6 km/h Distance 1.56 km</desc>
<time>2011-07-19T19:53:35.37</time>
<name>294</name>
</trkpt>
<trkpt lat="39.031902" lon="-3.809107">
<ele>682.0</ele>
<speed>21.1</speed>
<course>314.0</course>
<desc>Speed 21.1 km/h Distance 1.56 km</desc>
<time>2011-07-19T19:53:36.37</time>
<name>295</name>
</trkpt>
<trkpt lat="39.031942" lon="-3.809160">
<ele>682.0</ele>
<speed>22.2</speed>
<course>313.1</course>
<desc>Speed 22.2 km/h Distance 1.57 km</desc>
<time>2011-07-19T19:53:37.37</time>
<name>296</name>
</trkpt>
<trkpt lat="39.031982" lon="-3.809215">
<ele>681.5</ele>
<speed>22.1</speed>
<course>316.1</course>
<desc>Speed 22.1 km/h Distance 1.57 km</desc>
<time>2011-07-19T19:53:38.37</time>
<name>297</name>
</trkpt>
<trkpt lat="39.032023" lon="-3.809267">
<ele>681.5</ele>
<speed>22.0</speed>
<course>315.2</course>
<desc>Speed 22.0 km/h Distance 1.58 km</desc>
<time>2011-07-19T19:53:39.37</time>
<name>298</name>
</trkpt>
<trkpt lat="39.032065" lon="-3.809320">
<ele>681.5</ele>
<speed>22.3</speed>
<course>314.0</course>
<desc>Speed 22.3 km/h Distance 1.59 km</desc>
<time>2011-07-19T19:53:40.37</time>
<name>299</name>
</trkpt>
<trkpt lat="39.032105" lon="-3.809373">
<ele>681.5</ele>
<speed>22.6</speed>
<course>312.3</course>
<desc>Speed 22.6 km/h Distance 1.59 km</desc>
<time>2011-07-19T19:53:41.37</time>
<name>300</name>
</trkpt>
<trkpt lat="39.032145" lon="-3.809430">
<ele>682.0</ele>
<speed>23.0</speed>
<course>309.0</course>
<desc>Speed 23.0 km/h Distance 1.60 km</desc>
<time>2011-07-19T19:53:42.37</time>
<name>301</name>
</trkpt>
<trkpt lat="39.032182" lon="-3.809488">
<ele>682.5</ele>
<speed>22.9</speed>
<course>309.4</course>
<desc>Speed 22.9 km/h Distance 1.61 km</desc>
<time>2011-07-19T19:53:43.39</time>
<name>302</name>
</trkpt>
<trkpt lat="39.032220" lon="-3.809548">
<ele>683.0</ele>
<speed>23.8</speed>
<course>309.4</course>
<desc>Speed 23.8 km/h Distance 1.61 km</desc>
<time>2011-07-19T19:53:44.37</time>
<name>303</name>
</trkpt>
<trkpt lat="39.032258" lon="-3.809608">
<ele>683.5</ele>
<speed>23.5</speed>
<course>320.4</course>
<desc>Speed 23.5 km/h Distance 1.62 km</desc>
<time>2011-07-19T19:53:45.37</time>
<name>304</name>
</trkpt>
<trkpt lat="39.032310" lon="-3.809663">
<ele>683.0</ele>
<speed>25.6</speed>
<course>321.3</course>
<desc>Speed 25.6 km/h Distance 1.63 km</desc>
<time>2011-07-19T19:53:46.37</time>
<name>305</name>
</trkpt>
<trkpt lat="39.032362" lon="-3.809717">
<ele>683.0</ele>
<speed>25.1</speed>
<course>320.4</course>
<desc>Speed 25.1 km/h Distance 1.64 km</desc>
<time>2011-07-19T19:53:47.36</time>
<name>306</name>
</trkpt>
<trkpt lat="39.032413" lon="-3.809772">
<ele>683.0</ele>
<speed>25.2</speed>
<course>319.5</course>
<desc>Speed 25.2 km/h Distance 1.64 km</desc>
<time>2011-07-19T19:53:48.37</time>
<name>307</name>
</trkpt>
<trkpt lat="39.032463" lon="-3.809827">
<ele>682.5</ele>
<speed>25.0</speed>
<course>322.2</course>
<desc>Speed 25.0 km/h Distance 1.65 km</desc>
<time>2011-07-19T19:53:49.37</time>
<name>308</name>
</trkpt>
<trkpt lat="39.032515" lon="-3.809878">
<ele>682.5</ele>
<speed>24.3</speed>
<course>318.3</course>
<desc>Speed 24.3 km/h Distance 1.66 km</desc>
<time>2011-07-19T19:53:50.37</time>
<name>309</name>
</trkpt>
<trkpt lat="39.032560" lon="-3.809930">
<ele>682.0</ele>
<speed>23.5</speed>
<course>316.7</course>
<desc>Speed 23.5 km/h Distance 1.66 km</desc>
<time>2011-07-19T19:53:51.36</time>
<name>310</name>
</trkpt>
<trkpt lat="39.032607" lon="-3.809987">
<ele>682.0</ele>
<speed>24.4</speed>
<course>314.8</course>
<desc>Speed 24.4 km/h Distance 1.67 km</desc>
<time>2011-07-19T19:53:52.36</time>
<name>311</name>
</trkpt>
<trkpt lat="39.032652" lon="-3.810045">
<ele>681.5</ele>
<speed>24.4</speed>
<course>312.1</course>
<desc>Speed 24.4 km/h Distance 1.68 km</desc>
<time>2011-07-19T19:53:53.37</time>
<name>312</name>
</trkpt>
<trkpt lat="39.032695" lon="-3.810107">
<ele>681.0</ele>
<speed>25.1</speed>
<course>313.2</course>
<desc>Speed 25.1 km/h Distance 1.69 km</desc>
<time>2011-07-19T19:53:54.37</time>
<name>313</name>
</trkpt>
<trkpt lat="39.032740" lon="-3.810168">
<ele>680.5</ele>
<speed>25.2</speed>
<course>311.8</course>
<desc>Speed 25.2 km/h Distance 1.69 km</desc>
<time>2011-07-19T19:53:55.37</time>
<name>314</name>
</trkpt>
<trkpt lat="39.032782" lon="-3.810228">
<ele>680.0</ele>
<speed>24.4</speed>
<course>313.4</course>
<desc>Speed 24.4 km/h Distance 1.70 km</desc>
<time>2011-07-19T19:53:56.37</time>
<name>315</name>
</trkpt>
<trkpt lat="39.032823" lon="-3.810285">
<ele>680.0</ele>
<speed>23.9</speed>
<course>313.4</course>
<desc>Speed 23.9 km/h Distance 1.71 km</desc>
<time>2011-07-19T19:53:57.36</time>
<name>316</name>
</trkpt>
<trkpt lat="39.032865" lon="-3.810342">
<ele>680.0</ele>
<speed>23.4</speed>
<course>314.3</course>
<desc>Speed 23.4 km/h Distance 1.71 km</desc>
<time>2011-07-19T19:53:58.37</time>
<name>317</name>
</trkpt>
<trkpt lat="39.032907" lon="-3.810397">
<ele>680.0</ele>
<speed>22.9</speed>
<course>315.2</course>
<desc>Speed 22.9 km/h Distance 1.72 km</desc>
<time>2011-07-19T19:53:59.37</time>
<name>318</name>
</trkpt>
<trkpt lat="39.032948" lon="-3.810450">
<ele>680.0</ele>
<speed>22.5</speed>
<course>316.3</course>
<desc>Speed 22.5 km/h Distance 1.73 km</desc>
<time>2011-07-19T19:54:00.37</time>
<name>319</name>
</trkpt>
<trkpt lat="39.032992" lon="-3.810503">
<ele>680.0</ele>
<speed>22.4</speed>
<course>314.9</course>
<desc>Speed 22.4 km/h Distance 1.73 km</desc>
<time>2011-07-19T19:54:01.37</time>
<name>320</name>
</trkpt>
<trkpt lat="39.033032" lon="-3.810555">
<ele>680.0</ele>
<speed>21.8</speed>
<course>314.0</course>
<desc>Speed 21.8 km/h Distance 1.74 km</desc>
<time>2011-07-19T19:54:02.37</time>
<name>321</name>
</trkpt>
<trkpt lat="39.033072" lon="-3.810608">
<ele>680.0</ele>
<speed>22.0</speed>
<course>312.8</course>
<desc>Speed 22.0 km/h Distance 1.75 km</desc>
<time>2011-07-19T19:54:03.37</time>
<name>322</name>
</trkpt>
<trkpt lat="39.033110" lon="-3.810662">
<ele>680.0</ele>
<speed>21.6</speed>
<course>311.5</course>
<desc>Speed 21.6 km/h Distance 1.75 km</desc>
<time>2011-07-19T19:54:04.36</time>
<name>323</name>
</trkpt>
<trkpt lat="39.033147" lon="-3.810715">
<ele>680.0</ele>
<speed>21.3</speed>
<course>312.4</course>
<desc>Speed 21.3 km/h Distance 1.76 km</desc>
<time>2011-07-19T19:54:05.36</time>
<name>324</name>
</trkpt>
<trkpt lat="39.033183" lon="-3.810767">
<ele>680.5</ele>
<speed>21.1</speed>
<course>311.5</course>
<desc>Speed 21.1 km/h Distance 1.76 km</desc>
<time>2011-07-19T19:54:06.37</time>
<name>325</name>
</trkpt>
<trkpt lat="39.033220" lon="-3.810820">
<ele>680.5</ele>
<speed>21.1</speed>
<course>312.4</course>
<desc>Speed 21.1 km/h Distance 1.77 km</desc>
<time>2011-07-19T19:54:07.37</time>
<name>326</name>
</trkpt>
<trkpt lat="39.033257" lon="-3.810872">
<ele>680.0</ele>
<speed>20.6</speed>
<course>312.4</course>
<desc>Speed 20.6 km/h Distance 1.78 km</desc>
<time>2011-07-19T19:54:08.37</time>
<name>327</name>
</trkpt>
<trkpt lat="39.033293" lon="-3.810923">
<ele>680.0</ele>
<speed>20.9</speed>
<course>310.2</course>
<desc>Speed 20.9 km/h Distance 1.78 km</desc>
<time>2011-07-19T19:54:09.36</time>
<name>328</name>
</trkpt>
<trkpt lat="39.033328" lon="-3.810977">
<ele>680.0</ele>
<speed>20.8</speed>
<course>313.4</course>
<desc>Speed 20.8 km/h Distance 1.79 km</desc>
<time>2011-07-19T19:54:10.36</time>
<name>329</name>
</trkpt>
<trkpt lat="39.033365" lon="-3.811027">
<ele>680.5</ele>
<speed>20.4</speed>
<course>319.2</course>
<desc>Speed 20.4 km/h Distance 1.79 km</desc>
<time>2011-07-19T19:54:11.37</time>
<name>330</name>
</trkpt>
<trkpt lat="39.033410" lon="-3.811077">
<ele>680.0</ele>
<speed>22.2</speed>
<course>320.2</course>
<desc>Speed 22.2 km/h Distance 1.80 km</desc>
<time>2011-07-19T19:54:12.37</time>
<name>331</name>
</trkpt>
<trkpt lat="39.033455" lon="-3.811125">
<ele>679.5</ele>
<speed>22.5</speed>
<course>318.3</course>
<desc>Speed 22.5 km/h Distance 1.81 km</desc>
<time>2011-07-19T19:54:13.36</time>
<name>332</name>
</trkpt>
<trkpt lat="39.033500" lon="-3.811177">
<ele>679.0</ele>
<speed>22.4</speed>
<course>318.1</course>
<desc>Speed 22.4 km/h Distance 1.81 km</desc>
<time>2011-07-19T19:54:14.36</time>
<name>333</name>
</trkpt>
<trkpt lat="39.033543" lon="-3.811227">
<ele>678.5</ele>
<speed>22.4</speed>
<course>317.2</course>
<desc>Speed 22.4 km/h Distance 1.82 km</desc>
<time>2011-07-19T19:54:15.37</time>
<name>334</name>
</trkpt>
<trkpt lat="39.033587" lon="-3.811278">
<ele>678.5</ele>
<speed>22.7</speed>
<course>315.4</course>
<desc>Speed 22.7 km/h Distance 1.83 km</desc>
<time>2011-07-19T19:54:16.36</time>
<name>335</name>
</trkpt>
<trkpt lat="39.033630" lon="-3.811333">
<ele>678.0</ele>
<speed>23.3</speed>
<course>315.4</course>
<desc>Speed 23.3 km/h Distance 1.83 km</desc>
<time>2011-07-19T19:54:17.37</time>
<name>336</name>
</trkpt>
<trkpt lat="39.033673" lon="-3.811388">
<ele>677.5</ele>
<speed>23.4</speed>
<course>315.4</course>
<desc>Speed 23.4 km/h Distance 1.84 km</desc>
<time>2011-07-19T19:54:18.36</time>
<name>337</name>
</trkpt>
<trkpt lat="39.033717" lon="-3.811443">
<ele>677.5</ele>
<speed>23.3</speed>
<course>313.4</course>
<desc>Speed 23.3 km/h Distance 1.85 km</desc>
<time>2011-07-19T19:54:19.36</time>
<name>338</name>
</trkpt>
<trkpt lat="39.033758" lon="-3.811500">
<ele>677.0</ele>
<speed>23.3</speed>
<course>315.2</course>
<desc>Speed 23.3 km/h Distance 1.85 km</desc>
<time>2011-07-19T19:54:20.36</time>
<name>339</name>
</trkpt>
<trkpt lat="39.033800" lon="-3.811553">
<ele>677.0</ele>
<speed>22.6</speed>
<course>319.0</course>
<desc>Speed 22.6 km/h Distance 1.86 km</desc>
<time>2011-07-19T19:54:21.36</time>
<name>340</name>
</trkpt>
<trkpt lat="39.033842" lon="-3.811600">
<ele>677.0</ele>
<speed>21.2</speed>
<course>321.1</course>
<desc>Speed 21.2 km/h Distance 1.87 km</desc>
<time>2011-07-19T19:54:22.37</time>
<name>341</name>
</trkpt>
<trkpt lat="39.033883" lon="-3.811643">
<ele>677.5</ele>
<speed>20.0</speed>
<course>317.6</course>
<desc>Speed 20.0 km/h Distance 1.87 km</desc>
<time>2011-07-19T19:54:23.36</time>
<name>342</name>
</trkpt>
<trkpt lat="39.033922" lon="-3.811688">
<ele>678.0</ele>
<speed>20.2</speed>
<course>314.6</course>
<desc>Speed 20.2 km/h Distance 1.88 km</desc>
<time>2011-07-19T19:54:24.36</time>
<name>343</name>
</trkpt>
<trkpt lat="39.033960" lon="-3.811738">
<ele>678.0</ele>
<speed>20.8</speed>
<course>311.9</course>
<desc>Speed 20.8 km/h Distance 1.88 km</desc>
<time>2011-07-19T19:54:25.37</time>
<name>344</name>
</trkpt>
<trkpt lat="39.033998" lon="-3.811793">
<ele>678.0</ele>
<speed>22.1</speed>
<course>312.8</course>
<desc>Speed 22.1 km/h Distance 1.89 km</desc>
<time>2011-07-19T19:54:26.36</time>
<name>345</name>
</trkpt>
<trkpt lat="39.034037" lon="-3.811847">
<ele>678.0</ele>
<speed>21.6</speed>
<course>321.2</course>
<desc>Speed 21.6 km/h Distance 1.90 km</desc>
<time>2011-07-19T19:54:27.37</time>
<name>346</name>
</trkpt>
<trkpt lat="39.034083" lon="-3.811895">
<ele>677.5</ele>
<speed>22.5</speed>
<course>323.1</course>
<desc>Speed 22.5 km/h Distance 1.90 km</desc>
<time>2011-07-19T19:54:28.37</time>
<name>347</name>
</trkpt>
<trkpt lat="39.034132" lon="-3.811942">
<ele>677.5</ele>
<speed>23.1</speed>
<course>323.1</course>
<desc>Speed 23.1 km/h Distance 1.91 km</desc>
<time>2011-07-19T19:54:29.36</time>
<name>348</name>
</trkpt>
<trkpt lat="39.034180" lon="-3.811988">
<ele>677.0</ele>
<speed>22.5</speed>
<course>325.3</course>
<desc>Speed 22.5 km/h Distance 1.92 km</desc>
<time>2011-07-19T19:54:30.37</time>
<name>349</name>
</trkpt>
<trkpt lat="39.034227" lon="-3.812030">
<ele>677.5</ele>
<speed>21.5</speed>
<course>321.2</course>
<desc>Speed 21.5 km/h Distance 1.92 km</desc>
<time>2011-07-19T19:54:31.37</time>
<name>350</name>
</trkpt>
<trkpt lat="39.034273" lon="-3.812078">
<ele>677.0</ele>
<speed>22.5</speed>
<course>308.5</course>
<desc>Speed 22.5 km/h Distance 1.93 km</desc>
<time>2011-07-19T19:54:32.37</time>
<name>351</name>
</trkpt>
<trkpt lat="39.034308" lon="-3.812135">
<ele>676.5</ele>
<speed>21.7</speed>
<course>312.8</course>
<desc>Speed 21.7 km/h Distance 1.94 km</desc>
<time>2011-07-19T19:54:33.37</time>
<name>352</name>
</trkpt>
<trkpt lat="39.034347" lon="-3.812188">
<ele>677.0</ele>
<speed>21.1</speed>
<course>313.4</course>
<desc>Speed 21.1 km/h Distance 1.94 km</desc>
<time>2011-07-19T19:54:34.37</time>
<name>353</name>
</trkpt>
<trkpt lat="39.034383" lon="-3.812238">
<ele>677.5</ele>
<speed>20.3</speed>
<course>319.1</course>
<desc>Speed 20.3 km/h Distance 1.95 km</desc>
<time>2011-07-19T19:54:35.37</time>
<name>354</name>
</trkpt>
<trkpt lat="39.034427" lon="-3.812287">
<ele>677.5</ele>
<speed>22.0</speed>
<course>322.2</course>
<desc>Speed 22.0 km/h Distance 1.96 km</desc>
<time>2011-07-19T19:54:36.37</time>
<name>355</name>
</trkpt>
<trkpt lat="39.034472" lon="-3.812332">
<ele>677.0</ele>
<speed>22.0</speed>
<course>321.2</course>
<desc>Speed 22.0 km/h Distance 1.96 km</desc>
<time>2011-07-19T19:54:37.37</time>
<name>356</name>
</trkpt>
<trkpt lat="39.034517" lon="-3.812378">
<ele>677.0</ele>
<speed>21.6</speed>
<course>322.2</course>
<desc>Speed 21.6 km/h Distance 1.97 km</desc>
<time>2011-07-19T19:54:38.36</time>
<name>357</name>
</trkpt>
<trkpt lat="39.034562" lon="-3.812423">
<ele>677.0</ele>
<speed>21.7</speed>
<course>318.0</course>
<desc>Speed 21.7 km/h Distance 1.97 km</desc>
<time>2011-07-19T19:54:39.37</time>
<name>358</name>
</trkpt>
<trkpt lat="39.034603" lon="-3.812472">
<ele>677.0</ele>
<speed>21.9</speed>
<course>317.0</course>
<desc>Speed 21.9 km/h Distance 1.98 km</desc>
<time>2011-07-19T19:54:40.37</time>
<name>359</name>
</trkpt>
<trkpt lat="39.034645" lon="-3.812522">
<ele>676.5</ele>
<speed>22.1</speed>
<course>317.0</course>
<desc>Speed 22.1 km/h Distance 1.99 km</desc>
<time>2011-07-19T19:54:41.37</time>
<name>360</name>
</trkpt>
<trkpt lat="39.034687" lon="-3.812572">
<ele>676.5</ele>
<speed>22.0</speed>
<course>318.0</course>
<desc>Speed 22.0 km/h Distance 1.99 km</desc>
<time>2011-07-19T19:54:42.37</time>
<name>361</name>
</trkpt>
<trkpt lat="39.034728" lon="-3.812620">
<ele>676.5</ele>
<speed>21.7</speed>
<course>319.0</course>
<desc>Speed 21.7 km/h Distance 2.00 km</desc>
<time>2011-07-19T19:54:43.39</time>
<name>362</name>
</trkpt>
<trkpt lat="39.034770" lon="-3.812667">
<ele>676.5</ele>
<speed>21.0</speed>
<course>321.1</course>
<desc>Speed 21.0 km/h Distance 2.01 km</desc>
<time>2011-07-19T19:54:44.37</time>
<name>363</name>
</trkpt>
<trkpt lat="39.034812" lon="-3.812710">
<ele>677.0</ele>
<speed>20.6</speed>
<course>319.9</course>
<desc>Speed 20.6 km/h Distance 2.01 km</desc>
<time>2011-07-19T19:54:45.37</time>
<name>364</name>
</trkpt>
<trkpt lat="39.034852" lon="-3.812753">
<ele>677.5</ele>
<speed>20.3</speed>
<course>318.8</course>
<desc>Speed 20.3 km/h Distance 2.02 km</desc>
<time>2011-07-19T19:54:46.37</time>
<name>365</name>
</trkpt>
<trkpt lat="39.034892" lon="-3.812798">
<ele>678.0</ele>
<speed>20.1</speed>
<course>322.2</course>
<desc>Speed 20.1 km/h Distance 2.02 km</desc>
<time>2011-07-19T19:54:47.36</time>
<name>366</name>
</trkpt>
<trkpt lat="39.034932" lon="-3.812838">
<ele>678.5</ele>
<speed>19.7</speed>
<course>321.0</course>
<desc>Speed 19.7 km/h Distance 2.03 km</desc>
<time>2011-07-19T19:54:48.36</time>
<name>367</name>
</trkpt>
<trkpt lat="39.034972" lon="-3.812880">
<ele>679.0</ele>
<speed>19.5</speed>
<course>317.6</course>
<desc>Speed 19.5 km/h Distance 2.03 km</desc>
<time>2011-07-19T19:54:49.37</time>
<name>368</name>
</trkpt>
<trkpt lat="39.035010" lon="-3.812925">
<ele>680.0</ele>
<speed>19.8</speed>
<course>317.6</course>
<desc>Speed 19.8 km/h Distance 2.04 km</desc>
<time>2011-07-19T19:54:50.36</time>
<name>369</name>
</trkpt>
<trkpt lat="39.035048" lon="-3.812970">
<ele>680.0</ele>
<speed>20.1</speed>
<course>316.6</course>
<desc>Speed 20.1 km/h Distance 2.05 km</desc>
<time>2011-07-19T19:54:51.36</time>
<name>370</name>
</trkpt>
<trkpt lat="39.035087" lon="-3.813017">
<ele>680.5</ele>
<speed>20.4</speed>
<course>315.6</course>
<desc>Speed 20.4 km/h Distance 2.05 km</desc>
<time>2011-07-19T19:54:52.36</time>
<name>371</name>
</trkpt>
<trkpt lat="39.035125" lon="-3.813065">
<ele>681.0</ele>
<speed>20.4</speed>
<course>316.6</course>
<desc>Speed 20.4 km/h Distance 2.06 km</desc>
<time>2011-07-19T19:54:53.36</time>
<name>372</name>
</trkpt>
<trkpt lat="39.035163" lon="-3.813112">
<ele>681.5</ele>
<speed>20.2</speed>
<course>324.2</course>
<desc>Speed 20.2 km/h Distance 2.06 km</desc>
<time>2011-07-19T19:54:54.36</time>
<name>373</name>
</trkpt>
<trkpt lat="39.035210" lon="-3.813155">
<ele>681.5</ele>
<speed>21.9</speed>
<course>327.5</course>
<desc>Speed 21.9 km/h Distance 2.07 km</desc>
<time>2011-07-19T19:54:55.37</time>
<name>374</name>
</trkpt>
<trkpt lat="39.035257" lon="-3.813193">
<ele>681.5</ele>
<speed>21.3</speed>
<course>325.4</course>
<desc>Speed 21.3 km/h Distance 2.08 km</desc>
<time>2011-07-19T19:54:56.36</time>
<name>375</name>
</trkpt>
<trkpt lat="39.035302" lon="-3.813233">
<ele>681.5</ele>
<speed>21.0</speed>
<course>326.5</course>
<desc>Speed 21.0 km/h Distance 2.08 km</desc>
<time>2011-07-19T19:54:57.36</time>
<name>376</name>
</trkpt>
<trkpt lat="39.035347" lon="-3.813272">
<ele>681.5</ele>
<speed>20.8</speed>
<course>322.2</course>
<desc>Speed 20.8 km/h Distance 2.09 km</desc>
<time>2011-07-19T19:54:58.36</time>
<name>377</name>
</trkpt>
<trkpt lat="39.035390" lon="-3.813315">
<ele>681.0</ele>
<speed>21.1</speed>
<course>323.2</course>
<desc>Speed 21.1 km/h Distance 2.09 km</desc>
<time>2011-07-19T19:54:59.36</time>
<name>378</name>
</trkpt>
<trkpt lat="39.035435" lon="-3.813358">
<ele>680.5</ele>
<speed>21.2</speed>
<course>321.1</course>
<desc>Speed 21.2 km/h Distance 2.10 km</desc>
<time>2011-07-19T19:55:00.36</time>
<name>379</name>
</trkpt>
<trkpt lat="39.035478" lon="-3.813403">
<ele>680.5</ele>
<speed>21.2</speed>
<course>322.2</course>
<desc>Speed 21.2 km/h Distance 2.11 km</desc>
<time>2011-07-19T19:55:01.36</time>
<name>380</name>
</trkpt>
<trkpt lat="39.035523" lon="-3.813448">
<ele>680.5</ele>
<speed>21.5</speed>
<course>321.1</course>
<desc>Speed 21.5 km/h Distance 2.11 km</desc>
<time>2011-07-19T19:55:02.36</time>
<name>381</name>
</trkpt>
<trkpt lat="39.035567" lon="-3.813493">
<ele>680.0</ele>
<speed>21.4</speed>
<course>318.0</course>
<desc>Speed 21.4 km/h Distance 2.12 km</desc>
<time>2011-07-19T19:55:03.36</time>
<name>382</name>
</trkpt>
<trkpt lat="39.035608" lon="-3.813542">
<ele>680.5</ele>
<speed>21.6</speed>
<course>320.1</course>
<desc>Speed 21.6 km/h Distance 2.13 km</desc>
<time>2011-07-19T19:55:04.36</time>
<name>383</name>
</trkpt>
<trkpt lat="39.035652" lon="-3.813588">
<ele>680.5</ele>
<speed>21.7</speed>
<course>319.1</course>
<desc>Speed 21.7 km/h Distance 2.13 km</desc>
<time>2011-07-19T19:55:05.36</time>
<name>384</name>
</trkpt>
<trkpt lat="39.035695" lon="-3.813637">
<ele>680.5</ele>
<speed>21.9</speed>
<course>318.0</course>
<desc>Speed 21.9 km/h Distance 2.14 km</desc>
<time>2011-07-19T19:55:06.36</time>
<name>385</name>
</trkpt>
<trkpt lat="39.035737" lon="-3.813685">
<ele>680.5</ele>
<speed>21.8</speed>
<course>318.1</course>
<desc>Speed 21.8 km/h Distance 2.15 km</desc>
<time>2011-07-19T19:55:07.37</time>
<name>386</name>
</trkpt>
<trkpt lat="39.035780" lon="-3.813735">
<ele>680.5</ele>
<speed>21.9</speed>
<course>318.0</course>
<desc>Speed 21.9 km/h Distance 2.15 km</desc>
<time>2011-07-19T19:55:08.36</time>
<name>387</name>
</trkpt>
<trkpt lat="39.035822" lon="-3.813783">
<ele>681.0</ele>
<speed>21.6</speed>
<course>318.0</course>
<desc>Speed 21.6 km/h Distance 2.16 km</desc>
<time>2011-07-19T19:55:09.36</time>
<name>388</name>
</trkpt>
<trkpt lat="39.035863" lon="-3.813832">
<ele>681.5</ele>
<speed>21.7</speed>
<course>317.0</course>
<desc>Speed 21.7 km/h Distance 2.16 km</desc>
<time>2011-07-19T19:55:10.35</time>
<name>389</name>
</trkpt>
<trkpt lat="39.035905" lon="-3.813882">
<ele>682.0</ele>
<speed>21.7</speed>
<course>324.1</course>
<desc>Speed 21.7 km/h Distance 2.17 km</desc>
<time>2011-07-19T19:55:11.36</time>
<name>390</name>
</trkpt>
<trkpt lat="39.035955" lon="-3.813928">
<ele>681.5</ele>
<speed>23.9</speed>
<course>325.9</course>
<desc>Speed 23.9 km/h Distance 2.18 km</desc>
<time>2011-07-19T19:55:12.36</time>
<name>391</name>
</trkpt>
<trkpt lat="39.036007" lon="-3.813973">
<ele>681.0</ele>
<speed>23.7</speed>
<course>324.9</course>
<desc>Speed 23.7 km/h Distance 2.18 km</desc>
<time>2011-07-19T19:55:13.37</time>
<name>392</name>
</trkpt>
<trkpt lat="39.036058" lon="-3.814020">
<ele>680.5</ele>
<speed>24.2</speed>
<course>322.2</course>
<desc>Speed 24.2 km/h Distance 2.19 km</desc>
<time>2011-07-19T19:55:14.36</time>
<name>393</name>
</trkpt>
<trkpt lat="39.036110" lon="-3.814072">
<ele>680.0</ele>
<speed>24.7</speed>
<course>319.5</course>
<desc>Speed 24.7 km/h Distance 2.20 km</desc>
<time>2011-07-19T19:55:15.36</time>
<name>394</name>
</trkpt>
<trkpt lat="39.036160" lon="-3.814127">
<ele>679.5</ele>
<speed>25.3</speed>
<course>317.7</course>
<desc>Speed 25.3 km/h Distance 2.21 km</desc>
<time>2011-07-19T19:55:16.36</time>
<name>395</name>
</trkpt>
<trkpt lat="39.036208" lon="-3.814183">
<ele>679.0</ele>
<speed>25.9</speed>
<course>314.5</course>
<desc>Speed 25.9 km/h Distance 2.21 km</desc>
<time>2011-07-19T19:55:17.36</time>
<name>396</name>
</trkpt>
<trkpt lat="39.036257" lon="-3.814247">
<ele>678.5</ele>
<speed>26.7</speed>
<course>313.8</course>
<desc>Speed 26.7 km/h Distance 2.22 km</desc>
<time>2011-07-19T19:55:18.37</time>
<name>397</name>
</trkpt>
<trkpt lat="39.036305" lon="-3.814312">
<ele>677.0</ele>
<speed>27.0</speed>
<course>314.3</course>
<desc>Speed 27.0 km/h Distance 2.23 km</desc>
<time>2011-07-19T19:55:19.36</time>
<name>398</name>
</trkpt>
<trkpt lat="39.036352" lon="-3.814373">
<ele>676.5</ele>
<speed>26.5</speed>
<course>315.0</course>
<desc>Speed 26.5 km/h Distance 2.24 km</desc>
<time>2011-07-19T19:55:20.36</time>
<name>399</name>
</trkpt>
<trkpt lat="39.036398" lon="-3.814433">
<ele>676.0</ele>
<speed>26.0</speed>
<course>317.7</course>
<desc>Speed 26.0 km/h Distance 2.24 km</desc>
<time>2011-07-19T19:55:21.36</time>
<name>400</name>
</trkpt>
<trkpt lat="39.036447" lon="-3.814490">
<ele>676.0</ele>
<speed>25.7</speed>
<course>317.7</course>
<desc>Speed 25.7 km/h Distance 2.25 km</desc>
<time>2011-07-19T19:55:22.36</time>
<name>401</name>
</trkpt>
<trkpt lat="39.036495" lon="-3.814547">
<ele>676.0</ele>
<speed>25.1</speed>
<course>319.4</course>
<desc>Speed 25.1 km/h Distance 2.26 km</desc>
<time>2011-07-19T19:55:23.36</time>
<name>402</name>
</trkpt>
<trkpt lat="39.036543" lon="-3.814600">
<ele>676.5</ele>
<speed>24.7</speed>
<course>320.2</course>
<desc>Speed 24.7 km/h Distance 2.27 km</desc>
<time>2011-07-19T19:55:24.36</time>
<name>403</name>
</trkpt>
<trkpt lat="39.036590" lon="-3.814650">
<ele>677.0</ele>
<speed>23.9</speed>
<course>321.2</course>
<desc>Speed 23.9 km/h Distance 2.27 km</desc>
<time>2011-07-19T19:55:25.36</time>
<name>404</name>
</trkpt>
<trkpt lat="39.036637" lon="-3.814698">
<ele>677.5</ele>
<speed>23.0</speed>
<course>321.2</course>
<desc>Speed 23.0 km/h Distance 2.28 km</desc>
<time>2011-07-19T19:55:26.36</time>
<name>405</name>
</trkpt>
<trkpt lat="39.036683" lon="-3.814747">
<ele>678.0</ele>
<speed>23.0</speed>
<course>318.1</course>
<desc>Speed 23.0 km/h Distance 2.29 km</desc>
<time>2011-07-19T19:55:27.36</time>
<name>406</name>
</trkpt>
<trkpt lat="39.036727" lon="-3.814797">
<ele>678.0</ele>
<speed>23.1</speed>
<course>316.3</course>
<desc>Speed 23.1 km/h Distance 2.29 km</desc>
<time>2011-07-19T19:55:28.36</time>
<name>407</name>
</trkpt>
<trkpt lat="39.036770" lon="-3.814850">
<ele>678.5</ele>
<speed>23.0</speed>
<course>319.1</course>
<desc>Speed 23.0 km/h Distance 2.30 km</desc>
<time>2011-07-19T19:55:29.36</time>
<name>408</name>
</trkpt>
<trkpt lat="39.036813" lon="-3.814898">
<ele>678.5</ele>
<speed>22.4</speed>
<course>318.0</course>
<desc>Speed 22.4 km/h Distance 2.30 km</desc>
<time>2011-07-19T19:55:30.36</time>
<name>409</name>
</trkpt>
<trkpt lat="39.036855" lon="-3.814947">
<ele>679.0</ele>
<speed>21.9</speed>
<course>318.0</course>
<desc>Speed 21.9 km/h Distance 2.31 km</desc>
<time>2011-07-19T19:55:31.36</time>
<name>410</name>
</trkpt>
<trkpt lat="39.036897" lon="-3.814995">
<ele>679.5</ele>
<speed>21.7</speed>
<course>318.1</course>
<desc>Speed 21.7 km/h Distance 2.32 km</desc>
<time>2011-07-19T19:55:32.36</time>
<name>411</name>
</trkpt>
<trkpt lat="39.036940" lon="-3.815045">
<ele>680.0</ele>
<speed>22.4</speed>
<course>316.1</course>
<desc>Speed 22.4 km/h Distance 2.32 km</desc>
<time>2011-07-19T19:55:33.36</time>
<name>412</name>
</trkpt>
<trkpt lat="39.036982" lon="-3.815097">
<ele>680.5</ele>
<speed>22.3</speed>
<course>317.2</course>
<desc>Speed 22.3 km/h Distance 2.33 km</desc>
<time>2011-07-19T19:55:34.36</time>
<name>413</name>
</trkpt>
<trkpt lat="39.037025" lon="-3.815148">
<ele>681.0</ele>
<speed>22.6</speed>
<course>324.9</course>
<desc>Speed 22.6 km/h Distance 2.34 km</desc>
<time>2011-07-19T19:55:35.36</time>
<name>414</name>
</trkpt>
<trkpt lat="39.037078" lon="-3.815197">
<ele>680.5</ele>
<speed>25.2</speed>
<course>323.0</course>
<desc>Speed 25.2 km/h Distance 2.34 km</desc>
<time>2011-07-19T19:55:36.36</time>
<name>415</name>
</trkpt>
<trkpt lat="39.037132" lon="-3.815248">
<ele>680.5</ele>
<speed>25.8</speed>
<course>324.8</course>
<desc>Speed 25.8 km/h Distance 2.35 km</desc>
<time>2011-07-19T19:55:37.36</time>
<name>416</name>
</trkpt>
<trkpt lat="39.037187" lon="-3.815298">
<ele>680.0</ele>
<speed>25.5</speed>
<course>324.0</course>
<desc>Speed 25.5 km/h Distance 2.36 km</desc>
<time>2011-07-19T19:55:38.36</time>
<name>417</name>
</trkpt>
<trkpt lat="39.037238" lon="-3.815347">
<ele>680.0</ele>
<speed>25.1</speed>
<course>324.0</course>
<desc>Speed 25.1 km/h Distance 2.37 km</desc>
<time>2011-07-19T19:55:39.36</time>
<name>418</name>
</trkpt>
<trkpt lat="39.037290" lon="-3.815395">
<ele>680.0</ele>
<speed>24.6</speed>
<course>322.2</course>
<desc>Speed 24.6 km/h Distance 2.37 km</desc>
<time>2011-07-19T19:55:40.36</time>
<name>419</name>
</trkpt>
<trkpt lat="39.037340" lon="-3.815445">
<ele>679.5</ele>
<speed>24.4</speed>
<course>323.1</course>
<desc>Speed 24.4 km/h Distance 2.38 km</desc>
<time>2011-07-19T19:55:41.36</time>
<name>420</name>
</trkpt>
<trkpt lat="39.037392" lon="-3.815495">
<ele>679.5</ele>
<speed>24.7</speed>
<course>323.1</course>
<desc>Speed 24.7 km/h Distance 2.39 km</desc>
<time>2011-07-19T19:55:42.36</time>
<name>421</name>
</trkpt>
<trkpt lat="39.037442" lon="-3.815543">
<ele>679.0</ele>
<speed>24.2</speed>
<course>322.2</course>
<desc>Speed 24.2 km/h Distance 2.39 km</desc>
<time>2011-07-19T19:55:43.38</time>
<name>422</name>
</trkpt>
<trkpt lat="39.037490" lon="-3.815592">
<ele>679.0</ele>
<speed>23.7</speed>
<course>323.1</course>
<desc>Speed 23.7 km/h Distance 2.40 km</desc>
<time>2011-07-19T19:55:44.36</time>
<name>423</name>
</trkpt>
<trkpt lat="39.037538" lon="-3.815638">
<ele>678.5</ele>
<speed>23.4</speed>
<course>321.2</course>
<desc>Speed 23.4 km/h Distance 2.41 km</desc>
<time>2011-07-19T19:55:45.36</time>
<name>424</name>
</trkpt>
<trkpt lat="39.037585" lon="-3.815687">
<ele>678.5</ele>
<speed>23.3</speed>
<course>323.1</course>
<desc>Speed 23.3 km/h Distance 2.41 km</desc>
<time>2011-07-19T19:55:46.36</time>
<name>425</name>
</trkpt>
<trkpt lat="39.037633" lon="-3.815733">
<ele>678.5</ele>
<speed>23.3</speed>
<course>322.2</course>
<desc>Speed 23.3 km/h Distance 2.42 km</desc>
<time>2011-07-19T19:55:47.36</time>
<name>426</name>
</trkpt>
<trkpt lat="39.037682" lon="-3.815782">
<ele>678.5</ele>
<speed>23.5</speed>
<course>323.1</course>
<desc>Speed 23.5 km/h Distance 2.43 km</desc>
<time>2011-07-19T19:55:48.36</time>
<name>427</name>
</trkpt>
<trkpt lat="39.037730" lon="-3.815828">
<ele>679.0</ele>
<speed>23.0</speed>
<course>322.2</course>
<desc>Speed 23.0 km/h Distance 2.43 km</desc>
<time>2011-07-19T19:55:49.36</time>
<name>428</name>
</trkpt>
<trkpt lat="39.037777" lon="-3.815875">
<ele>679.0</ele>
<speed>23.0</speed>
<course>321.2</course>
<desc>Speed 23.0 km/h Distance 2.44 km</desc>
<time>2011-07-19T19:55:50.36</time>
<name>429</name>
</trkpt>
<trkpt lat="39.037823" lon="-3.815923">
<ele>679.5</ele>
<speed>22.9</speed>
<course>322.2</course>
<desc>Speed 22.9 km/h Distance 2.45 km</desc>
<time>2011-07-19T19:55:51.36</time>
<name>430</name>
</trkpt>
<trkpt lat="39.037870" lon="-3.815970">
<ele>679.5</ele>
<speed>22.9</speed>
<course>321.2</course>
<desc>Speed 22.9 km/h Distance 2.45 km</desc>
<time>2011-07-19T19:55:52.36</time>
<name>431</name>
</trkpt>
<trkpt lat="39.037917" lon="-3.816018">
<ele>680.0</ele>
<speed>22.7</speed>
<course>321.1</course>
<desc>Speed 22.7 km/h Distance 2.46 km</desc>
<time>2011-07-19T19:55:53.36</time>
<name>432</name>
</trkpt>
<trkpt lat="39.037962" lon="-3.816065">
<ele>680.0</ele>
<speed>22.4</speed>
<course>321.1</course>
<desc>Speed 22.4 km/h Distance 2.47 km</desc>
<time>2011-07-19T19:55:54.36</time>
<name>433</name>
</trkpt>
<trkpt lat="39.038007" lon="-3.816112">
<ele>680.5</ele>
<speed>21.8</speed>
<course>321.1</course>
<desc>Speed 21.8 km/h Distance 2.47 km</desc>
<time>2011-07-19T19:55:55.36</time>
<name>434</name>
</trkpt>
<trkpt lat="39.038050" lon="-3.816157">
<ele>681.0</ele>
<speed>21.6</speed>
<course>320.1</course>
<desc>Speed 21.6 km/h Distance 2.48 km</desc>
<time>2011-07-19T19:55:56.36</time>
<name>435</name>
</trkpt>
<trkpt lat="39.038093" lon="-3.816203">
<ele>681.5</ele>
<speed>21.7</speed>
<course>319.1</course>
<desc>Speed 21.7 km/h Distance 2.49 km</desc>
<time>2011-07-19T19:55:57.36</time>
<name>436</name>
</trkpt>
<trkpt lat="39.038137" lon="-3.816252">
<ele>682.0</ele>
<speed>21.9</speed>
<course>317.0</course>
<desc>Speed 21.9 km/h Distance 2.49 km</desc>
<time>2011-07-19T19:55:58.36</time>
<name>437</name>
</trkpt>
<trkpt lat="39.038178" lon="-3.816302">
<ele>682.0</ele>
<speed>21.9</speed>
<course>318.0</course>
<desc>Speed 21.9 km/h Distance 2.50 km</desc>
<time>2011-07-19T19:55:59.36</time>
<name>438</name>
</trkpt>
<trkpt lat="39.038220" lon="-3.816350">
<ele>682.5</ele>
<speed>21.7</speed>
<course>317.0</course>
<desc>Speed 21.7 km/h Distance 2.51 km</desc>
<time>2011-07-19T19:56:00.36</time>
<name>439</name>
</trkpt>
<trkpt lat="39.038262" lon="-3.816400">
<ele>683.0</ele>
<speed>21.8</speed>
<course>316.8</course>
<desc>Speed 21.8 km/h Distance 2.51 km</desc>
<time>2011-07-19T19:56:01.36</time>
<name>440</name>
</trkpt>
<trkpt lat="39.038302" lon="-3.816448">
<ele>683.0</ele>
<speed>21.7</speed>
<course>324.0</course>
<desc>Speed 21.7 km/h Distance 2.52 km</desc>
<time>2011-07-19T19:56:02.36</time>
<name>441</name>
</trkpt>
<trkpt lat="39.038352" lon="-3.816495">
<ele>682.5</ele>
<speed>23.8</speed>
<course>324.1</course>
<desc>Speed 23.8 km/h Distance 2.52 km</desc>
<time>2011-07-19T19:56:03.36</time>
<name>442</name>
</trkpt>
<trkpt lat="39.038402" lon="-3.816542">
<ele>682.0</ele>
<speed>23.9</speed>
<course>324.1</course>
<desc>Speed 23.9 km/h Distance 2.53 km</desc>
<time>2011-07-19T19:56:04.36</time>
<name>443</name>
</trkpt>
<trkpt lat="39.038452" lon="-3.816588">
<ele>682.0</ele>
<speed>23.8</speed>
<course>325.0</course>
<desc>Speed 23.8 km/h Distance 2.54 km</desc>
<time>2011-07-19T19:56:05.36</time>
<name>444</name>
</trkpt>
<trkpt lat="39.038503" lon="-3.816635">
<ele>681.5</ele>
<speed>23.7</speed>
<course>324.1</course>
<desc>Speed 23.7 km/h Distance 2.55 km</desc>
<time>2011-07-19T19:56:06.36</time>
<name>445</name>
</trkpt>
<trkpt lat="39.038553" lon="-3.816682">
<ele>681.5</ele>
<speed>23.8</speed>
<course>325.0</course>
<desc>Speed 23.8 km/h Distance 2.55 km</desc>
<time>2011-07-19T19:56:07.36</time>
<name>446</name>
</trkpt>
<trkpt lat="39.038605" lon="-3.816728">
<ele>681.0</ele>
<speed>23.7</speed>
<course>324.1</course>
<desc>Speed 23.7 km/h Distance 2.56 km</desc>
<time>2011-07-19T19:56:08.36</time>
<name>447</name>
</trkpt>
<trkpt lat="39.038655" lon="-3.816775">
<ele>681.0</ele>
<speed>23.4</speed>
<course>325.0</course>
<desc>Speed 23.4 km/h Distance 2.57 km</desc>
<time>2011-07-19T19:56:09.36</time>
<name>448</name>
</trkpt>
<trkpt lat="39.038705" lon="-3.816820">
<ele>680.5</ele>
<speed>23.2</speed>
<course>322.2</course>
<desc>Speed 23.2 km/h Distance 2.57 km</desc>
<time>2011-07-19T19:56:10.36</time>
<name>449</name>
</trkpt>
<trkpt lat="39.038752" lon="-3.816867">
<ele>681.0</ele>
<speed>22.9</speed>
<course>324.2</course>
<desc>Speed 22.9 km/h Distance 2.58 km</desc>
<time>2011-07-19T19:56:11.36</time>
<name>450</name>
</trkpt>
<trkpt lat="39.038798" lon="-3.816910">
<ele>681.0</ele>
<speed>22.1</speed>
<course>323.2</course>
<desc>Speed 22.1 km/h Distance 2.59 km</desc>
<time>2011-07-19T19:56:12.36</time>
<name>451</name>
</trkpt>
<trkpt lat="39.038845" lon="-3.816955">
<ele>681.0</ele>
<speed>22.1</speed>
<course>324.2</course>
<desc>Speed 22.1 km/h Distance 2.59 km</desc>
<time>2011-07-19T19:56:13.36</time>
<name>452</name>
</trkpt>
<trkpt lat="39.038892" lon="-3.816998">
<ele>681.0</ele>
<speed>22.0</speed>
<course>323.2</course>
<desc>Speed 22.0 km/h Distance 2.60 km</desc>
<time>2011-07-19T19:56:14.36</time>
<name>453</name>
</trkpt>
<trkpt lat="39.038938" lon="-3.817043">
<ele>681.5</ele>
<speed>21.9</speed>
<course>319.2</course>
<desc>Speed 21.9 km/h Distance 2.61 km</desc>
<time>2011-07-19T19:56:15.36</time>
<name>454</name>
</trkpt>
<trkpt lat="39.038983" lon="-3.817093">
<ele>681.0</ele>
<speed>22.7</speed>
<course>319.2</course>
<desc>Speed 22.7 km/h Distance 2.61 km</desc>
<time>2011-07-19T19:56:16.36</time>
<name>455</name>
</trkpt>
<trkpt lat="39.039028" lon="-3.817143">
<ele>681.0</ele>
<speed>22.9</speed>
<course>320.2</course>
<desc>Speed 22.9 km/h Distance 2.62 km</desc>
<time>2011-07-19T19:56:17.36</time>
<name>456</name>
</trkpt>
<trkpt lat="39.039073" lon="-3.817192">
<ele>681.0</ele>
<speed>22.4</speed>
<course>318.1</course>
<desc>Speed 22.4 km/h Distance 2.63 km</desc>
<time>2011-07-19T19:56:18.36</time>
<name>457</name>
</trkpt>
<trkpt lat="39.039117" lon="-3.817242">
<ele>680.5</ele>
<speed>22.5</speed>
<course>318.1</course>
<desc>Speed 22.5 km/h Distance 2.63 km</desc>
<time>2011-07-19T19:56:19.36</time>
<name>458</name>
</trkpt>
<trkpt lat="39.039160" lon="-3.817292">
<ele>680.5</ele>
<speed>22.2</speed>
<course>319.1</course>
<desc>Speed 22.2 km/h Distance 2.64 km</desc>
<time>2011-07-19T19:56:20.36</time>
<name>459</name>
</trkpt>
<trkpt lat="39.039203" lon="-3.817340">
<ele>681.0</ele>
<speed>21.8</speed>
<course>322.2</course>
<desc>Speed 21.8 km/h Distance 2.64 km</desc>
<time>2011-07-19T19:56:21.36</time>
<name>460</name>
</trkpt>
<trkpt lat="39.039247" lon="-3.817383">
<ele>681.5</ele>
<speed>21.0</speed>
<course>331.9</course>
<desc>Speed 21.0 km/h Distance 2.65 km</desc>
<time>2011-07-19T19:56:22.36</time>
<name>461</name>
</trkpt>
<trkpt lat="39.039300" lon="-3.817420">
<ele>681.0</ele>
<speed>23.0</speed>
<course>329.0</course>
<desc>Speed 23.0 km/h Distance 2.66 km</desc>
<time>2011-07-19T19:56:23.36</time>
<name>462</name>
</trkpt>
<trkpt lat="39.039352" lon="-3.817460">
<ele>681.0</ele>
<speed>23.0</speed>
<course>329.0</course>
<desc>Speed 23.0 km/h Distance 2.66 km</desc>
<time>2011-07-19T19:56:24.36</time>
<name>463</name>
</trkpt>
<trkpt lat="39.039403" lon="-3.817500">
<ele>680.5</ele>
<speed>23.0</speed>
<course>327.9</course>
<desc>Speed 23.0 km/h Distance 2.67 km</desc>
<time>2011-07-19T19:56:25.59</time>
<name>464</name>
</trkpt>
<trkpt lat="39.039455" lon="-3.817542">
<ele>680.0</ele>
<speed>22.8</speed>
<course>327.1</course>
<desc>Speed 22.8 km/h Distance 2.68 km</desc>
<time>2011-07-19T19:56:26.45</time>
<name>465</name>
</trkpt>
<trkpt lat="39.039505" lon="-3.817583">
<ele>679.5</ele>
<speed>22.9</speed>
<course>326.1</course>
<desc>Speed 22.9 km/h Distance 2.68 km</desc>
<time>2011-07-19T19:56:27.45</time>
<name>466</name>
</trkpt>
<trkpt lat="39.039555" lon="-3.817627">
<ele>679.0</ele>
<speed>23.0</speed>
<course>327.1</course>
<desc>Speed 23.0 km/h Distance 2.69 km</desc>
<time>2011-07-19T19:56:28.45</time>
<name>467</name>
</trkpt>
<trkpt lat="39.039605" lon="-3.817668">
<ele>678.5</ele>
<speed>22.9</speed>
<course>322.2</course>
<desc>Speed 22.9 km/h Distance 2.70 km</desc>
<time>2011-07-19T19:56:29.45</time>
<name>468</name>
</trkpt>
<trkpt lat="39.039652" lon="-3.817715">
<ele>678.0</ele>
<speed>22.9</speed>
<course>324.1</course>
<desc>Speed 22.9 km/h Distance 2.70 km</desc>
<time>2011-07-19T19:56:30.45</time>
<name>469</name>
</trkpt>
<trkpt lat="39.039700" lon="-3.817760">
<ele>677.5</ele>
<speed>23.0</speed>
<course>322.2</course>
<desc>Speed 23.0 km/h Distance 2.71 km</desc>
<time>2011-07-19T19:56:31.45</time>
<name>470</name>
</trkpt>
<trkpt lat="39.039747" lon="-3.817807">
<ele>677.0</ele>
<speed>22.8</speed>
<course>322.2</course>
<desc>Speed 22.8 km/h Distance 2.72 km</desc>
<time>2011-07-19T19:56:32.45</time>
<name>471</name>
</trkpt>
<trkpt lat="39.039793" lon="-3.817853">
<ele>676.0</ele>
<speed>23.0</speed>
<course>321.1</course>
<desc>Speed 23.0 km/h Distance 2.72 km</desc>
<time>2011-07-19T19:56:33.45</time>
<name>472</name>
</trkpt>
<trkpt lat="39.039838" lon="-3.817900">
<ele>676.0</ele>
<speed>22.9</speed>
<course>319.2</course>
<desc>Speed 22.9 km/h Distance 2.73 km</desc>
<time>2011-07-19T19:56:34.45</time>
<name>473</name>
</trkpt>
<trkpt lat="39.039883" lon="-3.817950">
<ele>675.5</ele>
<speed>23.0</speed>
<course>318.3</course>
<desc>Speed 23.0 km/h Distance 2.74 km</desc>
<time>2011-07-19T19:56:35.45</time>
<name>474</name>
</trkpt>
<trkpt lat="39.039928" lon="-3.818002">
<ele>675.0</ele>
<speed>23.7</speed>
<course>320.2</course>
<desc>Speed 23.7 km/h Distance 2.74 km</desc>
<time>2011-07-19T19:56:36.45</time>
<name>475</name>
</trkpt>
<trkpt lat="39.039973" lon="-3.818050">
<ele>675.0</ele>
<speed>23.0</speed>
<course>321.1</course>
<desc>Speed 23.0 km/h Distance 2.75 km</desc>
<time>2011-07-19T19:56:37.45</time>
<name>476</name>
</trkpt>
<trkpt lat="39.040018" lon="-3.818097">
<ele>675.5</ele>
<speed>22.4</speed>
<course>320.1</course>
<desc>Speed 22.4 km/h Distance 2.76 km</desc>
<time>2011-07-19T19:56:38.45</time>
<name>477</name>
</trkpt>
<trkpt lat="39.040062" lon="-3.818143">
<ele>675.5</ele>
<speed>22.2</speed>
<course>321.1</course>
<desc>Speed 22.2 km/h Distance 2.76 km</desc>
<time>2011-07-19T19:56:39.45</time>
<name>478</name>
</trkpt>
<trkpt lat="39.040103" lon="-3.818187">
<ele>676.5</ele>
<speed>21.5</speed>
<course>323.3</course>
<desc>Speed 21.5 km/h Distance 2.77 km</desc>
<time>2011-07-19T19:56:40.45</time>
<name>479</name>
</trkpt>
<trkpt lat="39.040145" lon="-3.818227">
<ele>677.0</ele>
<speed>20.5</speed>
<course>324.4</course>
<desc>Speed 20.5 km/h Distance 2.77 km</desc>
<time>2011-07-19T19:56:41.45</time>
<name>480</name>
</trkpt>
<trkpt lat="39.040188" lon="-3.818267">
<ele>678.0</ele>
<speed>20.2</speed>
<course>323.3</course>
<desc>Speed 20.2 km/h Distance 2.78 km</desc>
<time>2011-07-19T19:56:42.45</time>
<name>481</name>
</trkpt>
<trkpt lat="39.040228" lon="-3.818305">
<ele>678.5</ele>
<speed>19.8</speed>
<course>323.4</course>
<desc>Speed 19.8 km/h Distance 2.79 km</desc>
<time>2011-07-19T19:56:43.47</time>
<name>482</name>
</trkpt>
<trkpt lat="39.040267" lon="-3.818342">
<ele>679.5</ele>
<speed>19.0</speed>
<course>326.0</course>
<desc>Speed 19.0 km/h Distance 2.79 km</desc>
<time>2011-07-19T19:56:44.45</time>
<name>483</name>
</trkpt>
<trkpt lat="39.040305" lon="-3.818375">
<ele>680.5</ele>
<speed>17.9</speed>
<course>336.1</course>
<desc>Speed 17.9 km/h Distance 2.80 km</desc>
<time>2011-07-19T19:56:45.45</time>
<name>484</name>
</trkpt>
<trkpt lat="39.040352" lon="-3.818402">
<ele>680.0</ele>
<speed>20.3</speed>
<course>335.3</course>
<desc>Speed 20.3 km/h Distance 2.80 km</desc>
<time>2011-07-19T19:56:46.45</time>
<name>485</name>
</trkpt>
<trkpt lat="39.040397" lon="-3.818428">
<ele>680.5</ele>
<speed>19.5</speed>
<course>334.8</course>
<desc>Speed 19.5 km/h Distance 2.81 km</desc>
<time>2011-07-19T19:56:47.45</time>
<name>486</name>
</trkpt>
<trkpt lat="39.040443" lon="-3.818457">
<ele>680.5</ele>
<speed>19.8</speed>
<course>332.6</course>
<desc>Speed 19.8 km/h Distance 2.81 km</desc>
<time>2011-07-19T19:56:48.45</time>
<name>487</name>
</trkpt>
<trkpt lat="39.040488" lon="-3.818487">
<ele>680.5</ele>
<speed>20.1</speed>
<course>331.3</course>
<desc>Speed 20.1 km/h Distance 2.82 km</desc>
<time>2011-07-19T19:56:49.45</time>
<name>488</name>
</trkpt>
<trkpt lat="39.040533" lon="-3.818518">
<ele>681.0</ele>
<speed>20.1</speed>
<course>331.3</course>
<desc>Speed 20.1 km/h Distance 2.83 km</desc>
<time>2011-07-19T19:56:50.45</time>
<name>489</name>
</trkpt>
<trkpt lat="39.040578" lon="-3.818550">
<ele>680.5</ele>
<speed>19.8</speed>
<course>333.9</course>
<desc>Speed 19.8 km/h Distance 2.83 km</desc>
<time>2011-07-19T19:56:51.45</time>
<name>490</name>
</trkpt>
<trkpt lat="39.040623" lon="-3.818578">
<ele>681.0</ele>
<speed>19.2</speed>
<course>332.6</course>
<desc>Speed 19.2 km/h Distance 2.84 km</desc>
<time>2011-07-19T19:56:52.45</time>
<name>491</name>
</trkpt>
<trkpt lat="39.040668" lon="-3.818608">
<ele>681.0</ele>
<speed>19.4</speed>
<course>332.2</course>
<desc>Speed 19.4 km/h Distance 2.84 km</desc>
<time>2011-07-19T19:56:53.45</time>
<name>492</name>
</trkpt>
<trkpt lat="39.040715" lon="-3.818640">
<ele>681.0</ele>
<speed>19.7</speed>
<course>332.6</course>
<desc>Speed 19.7 km/h Distance 2.85 km</desc>
<time>2011-07-19T19:56:54.45</time>
<name>493</name>
</trkpt>
<trkpt lat="39.040760" lon="-3.818670">
<ele>681.0</ele>
<speed>19.3</speed>
<course>332.6</course>
<desc>Speed 19.3 km/h Distance 2.85 km</desc>
<time>2011-07-19T19:56:55.45</time>
<name>494</name>
</trkpt>
<trkpt lat="39.040805" lon="-3.818700">
<ele>681.0</ele>
<speed>19.3</speed>
<course>332.2</course>
<desc>Speed 19.3 km/h Distance 2.86 km</desc>
<time>2011-07-19T19:56:56.45</time>
<name>495</name>
</trkpt>
<trkpt lat="39.040852" lon="-3.818732">
<ele>681.5</ele>
<speed>19.5</speed>
<course>330.1</course>
<desc>Speed 19.5 km/h Distance 2.87 km</desc>
<time>2011-07-19T19:56:57.45</time>
<name>496</name>
</trkpt>
<trkpt lat="39.040897" lon="-3.818765">
<ele>681.5</ele>
<speed>19.5</speed>
<course>330.4</course>
<desc>Speed 19.5 km/h Distance 2.87 km</desc>
<time>2011-07-19T19:56:58.45</time>
<name>497</name>
</trkpt>
<trkpt lat="39.040940" lon="-3.818797">
<ele>682.0</ele>
<speed>19.2</speed>
<course>330.1</course>
<desc>Speed 19.2 km/h Distance 2.88 km</desc>
<time>2011-07-19T19:56:59.45</time>
<name>498</name>
</trkpt>
<trkpt lat="39.040985" lon="-3.818830">
<ele>682.5</ele>
<speed>19.6</speed>
<course>328.9</course>
<desc>Speed 19.6 km/h Distance 2.88 km</desc>
<time>2011-07-19T19:57:00.45</time>
<name>499</name>
</trkpt>
<trkpt lat="39.041030" lon="-3.818865">
<ele>683.0</ele>
<speed>19.7</speed>
<course>326.7</course>
<desc>Speed 19.7 km/h Distance 2.89 km</desc>
<time>2011-07-19T19:57:01.45</time>
<name>500</name>
</trkpt>
<trkpt lat="39.041073" lon="-3.818902">
<ele>683.0</ele>
<speed>19.7</speed>
<course>323.3</course>
<desc>Speed 19.7 km/h Distance 2.89 km</desc>
<time>2011-07-19T19:57:02.45</time>
<name>501</name>
</trkpt>
<trkpt lat="39.041113" lon="-3.818940">
<ele>684.0</ele>
<speed>19.7</speed>
<course>321.0</course>
<desc>Speed 19.7 km/h Distance 2.90 km</desc>
<time>2011-07-19T19:57:03.45</time>
<name>502</name>
</trkpt>
<trkpt lat="39.041153" lon="-3.818982">
<ele>685.0</ele>
<speed>20.3</speed>
<course>323.2</course>
<desc>Speed 20.3 km/h Distance 2.91 km</desc>
<time>2011-07-19T19:57:04.45</time>
<name>503</name>
</trkpt>
<trkpt lat="39.041197" lon="-3.819023">
<ele>685.5</ele>
<speed>20.7</speed>
<course>330.0</course>
<desc>Speed 20.7 km/h Distance 2.91 km</desc>
<time>2011-07-19T19:57:05.45</time>
<name>504</name>
</trkpt>
<trkpt lat="39.041248" lon="-3.819062">
<ele>685.5</ele>
<speed>23.1</speed>
<course>328.4</course>
<desc>Speed 23.1 km/h Distance 2.92 km</desc>
<time>2011-07-19T19:57:06.45</time>
<name>505</name>
</trkpt>
<trkpt lat="39.041297" lon="-3.819100">
<ele>685.5</ele>
<speed>22.0</speed>
<course>331.5</course>
<desc>Speed 22.0 km/h Distance 2.92 km</desc>
<time>2011-07-19T19:57:07.45</time>
<name>506</name>
</trkpt>
<trkpt lat="39.041347" lon="-3.819135">
<ele>685.5</ele>
<speed>22.1</speed>
<course>327.3</course>
<desc>Speed 22.1 km/h Distance 2.93 km</desc>
<time>2011-07-19T19:57:08.45</time>
<name>507</name>
</trkpt>
<trkpt lat="39.041395" lon="-3.819175">
<ele>685.5</ele>
<speed>22.5</speed>
<course>326.3</course>
<desc>Speed 22.5 km/h Distance 2.94 km</desc>
<time>2011-07-19T19:57:09.45</time>
<name>508</name>
</trkpt>
<trkpt lat="39.041442" lon="-3.819215">
<ele>686.0</ele>
<speed>22.3</speed>
<course>327.3</course>
<desc>Speed 22.3 km/h Distance 2.94 km</desc>
<time>2011-07-19T19:57:10.45</time>
<name>509</name>
</trkpt>
<trkpt lat="39.041490" lon="-3.819255">
<ele>686.5</ele>
<speed>22.5</speed>
<course>326.1</course>
<desc>Speed 22.5 km/h Distance 2.95 km</desc>
<time>2011-07-19T19:57:11.45</time>
<name>510</name>
</trkpt>
<trkpt lat="39.041540" lon="-3.819298">
<ele>687.0</ele>
<speed>23.0</speed>
<course>325.3</course>
<desc>Speed 23.0 km/h Distance 2.96 km</desc>
<time>2011-07-19T19:57:12.45</time>
<name>511</name>
</trkpt>
<trkpt lat="39.041587" lon="-3.819340">
<ele>687.5</ele>
<speed>22.3</speed>
<course>325.2</course>
<desc>Speed 22.3 km/h Distance 2.96 km</desc>
<time>2011-07-19T19:57:13.45</time>
<name>512</name>
</trkpt>
<trkpt lat="39.041635" lon="-3.819383">
<ele>688.0</ele>
<speed>22.5</speed>
<course>327.3</course>
<desc>Speed 22.5 km/h Distance 2.97 km</desc>
<time>2011-07-19T19:57:14.45</time>
<name>513</name>
</trkpt>
<trkpt lat="39.041683" lon="-3.819423">
<ele>688.5</ele>
<speed>22.2</speed>
<course>324.2</course>
<desc>Speed 22.2 km/h Distance 2.98 km</desc>
<time>2011-07-19T19:57:15.45</time>
<name>514</name>
</trkpt>
<trkpt lat="39.041730" lon="-3.819467">
<ele>688.5</ele>
<speed>22.4</speed>
<course>326.1</course>
<desc>Speed 22.4 km/h Distance 2.98 km</desc>
<time>2011-07-19T19:57:16.45</time>
<name>515</name>
</trkpt>
<trkpt lat="39.041780" lon="-3.819510">
<ele>688.5</ele>
<speed>22.6</speed>
<course>323.2</course>
<desc>Speed 22.6 km/h Distance 2.99 km</desc>
<time>2011-07-19T19:57:17.45</time>
<name>516</name>
</trkpt>
<trkpt lat="39.041825" lon="-3.819553">
<ele>689.5</ele>
<speed>22.2</speed>
<course>329.3</course>
<desc>Speed 22.2 km/h Distance 2.99 km</desc>
<time>2011-07-19T19:57:18.44</time>
<name>517</name>
</trkpt>
<trkpt lat="39.041882" lon="-3.819597">
<ele>689.0</ele>
<speed>25.3</speed>
<course>328.9</course>
<desc>Speed 25.3 km/h Distance 3.00 km</desc>
<time>2011-07-19T19:57:19.45</time>
<name>518</name>
</trkpt>
<trkpt lat="39.041942" lon="-3.819643">
<ele>688.0</ele>
<speed>27.2</speed>
<course>329.6</course>
<desc>Speed 27.2 km/h Distance 3.01 km</desc>
<time>2011-07-19T19:57:20.45</time>
<name>519</name>
</trkpt>
<trkpt lat="39.042003" lon="-3.819690">
<ele>687.0</ele>
<speed>27.0</speed>
<course>330.5</course>
<desc>Speed 27.0 km/h Distance 3.02 km</desc>
<time>2011-07-19T19:57:21.45</time>
<name>520</name>
</trkpt>
<trkpt lat="39.042065" lon="-3.819735">
<ele>686.5</ele>
<speed>26.7</speed>
<course>332.3</course>
<desc>Speed 26.7 km/h Distance 3.03 km</desc>
<time>2011-07-19T19:57:22.45</time>
<name>521</name>
</trkpt>
<trkpt lat="39.042127" lon="-3.819777">
<ele>686.0</ele>
<speed>26.0</speed>
<course>330.8</course>
<desc>Speed 26.0 km/h Distance 3.03 km</desc>
<time>2011-07-19T19:57:23.44</time>
<name>522</name>
</trkpt>
<trkpt lat="39.042180" lon="-3.819815">
<ele>686.0</ele>
<speed>24.3</speed>
<course>331.6</course>
<desc>Speed 24.3 km/h Distance 3.04 km</desc>
<time>2011-07-19T19:57:24.45</time>
<name>523</name>
</trkpt>
<trkpt lat="39.042235" lon="-3.819853">
<ele>686.5</ele>
<speed>24.6</speed>
<course>330.8</course>
<desc>Speed 24.6 km/h Distance 3.05 km</desc>
<time>2011-07-19T19:57:25.45</time>
<name>524</name>
</trkpt>
<trkpt lat="39.042288" lon="-3.819892">
<ele>686.5</ele>
<speed>24.1</speed>
<course>333.0</course>
<desc>Speed 24.1 km/h Distance 3.05 km</desc>
<time>2011-07-19T19:57:26.45</time>
<name>525</name>
</trkpt>
<trkpt lat="39.042347" lon="-3.819930">
<ele>686.5</ele>
<speed>24.6</speed>
<course>326.8</course>
<desc>Speed 24.6 km/h Distance 3.06 km</desc>
<time>2011-07-19T19:57:27.45</time>
<name>526</name>
</trkpt>
<trkpt lat="39.042400" lon="-3.819975">
<ele>686.5</ele>
<speed>24.9</speed>
<course>323.9</course>
<desc>Speed 24.9 km/h Distance 3.07 km</desc>
<time>2011-07-19T19:57:28.45</time>
<name>527</name>
</trkpt>
<trkpt lat="39.042453" lon="-3.820025">
<ele>686.5</ele>
<speed>25.5</speed>
<course>326.5</course>
<desc>Speed 25.5 km/h Distance 3.08 km</desc>
<time>2011-07-19T19:57:29.45</time>
<name>528</name>
</trkpt>
<trkpt lat="39.042510" lon="-3.820073">
<ele>686.0</ele>
<speed>26.0</speed>
<course>326.3</course>
<desc>Speed 26.0 km/h Distance 3.08 km</desc>
<time>2011-07-19T19:57:30.45</time>
<name>529</name>
</trkpt>
<trkpt lat="39.042568" lon="-3.820123">
<ele>685.5</ele>
<speed>26.6</speed>
<course>323.1</course>
<desc>Speed 26.6 km/h Distance 3.09 km</desc>
<time>2011-07-19T19:57:31.45</time>
<name>530</name>
</trkpt>
<trkpt lat="39.042620" lon="-3.820173">
<ele>685.5</ele>
<speed>25.3</speed>
<course>324.8</course>
<desc>Speed 25.3 km/h Distance 3.10 km</desc>
<time>2011-07-19T19:57:32.45</time>
<name>531</name>
</trkpt>
<trkpt lat="39.042675" lon="-3.820223">
<ele>685.5</ele>
<speed>25.8</speed>
<course>324.8</course>
<desc>Speed 25.8 km/h Distance 3.11 km</desc>
<time>2011-07-19T19:57:33.45</time>
<name>532</name>
</trkpt>
<trkpt lat="39.042730" lon="-3.820273">
<ele>685.0</ele>
<speed>25.8</speed>
<course>319.5</course>
<desc>Speed 25.8 km/h Distance 3.11 km</desc>
<time>2011-07-19T19:57:34.45</time>
<name>533</name>
</trkpt>
<trkpt lat="39.042780" lon="-3.820328">
<ele>684.0</ele>
<speed>25.9</speed>
<course>319.6</course>
<desc>Speed 25.9 km/h Distance 3.12 km</desc>
<time>2011-07-19T19:57:35.45</time>
<name>534</name>
</trkpt>
<trkpt lat="39.042832" lon="-3.820385">
<ele>683.0</ele>
<speed>26.2</speed>
<course>318.7</course>
<desc>Speed 26.2 km/h Distance 3.13 km</desc>
<time>2011-07-19T19:57:36.45</time>
<name>535</name>
</trkpt>
<trkpt lat="39.042882" lon="-3.820442">
<ele>682.0</ele>
<speed>26.0</speed>
<course>318.5</course>
<desc>Speed 26.0 km/h Distance 3.14 km</desc>
<time>2011-07-19T19:57:37.45</time>
<name>536</name>
</trkpt>
<trkpt lat="39.042930" lon="-3.820497">
<ele>681.5</ele>
<speed>25.5</speed>
<course>319.5</course>
<desc>Speed 25.5 km/h Distance 3.14 km</desc>
<time>2011-07-19T19:57:38.45</time>
<name>537</name>
</trkpt>
<trkpt lat="39.042980" lon="-3.820552">
<ele>680.5</ele>
<speed>25.2</speed>
<course>319.4</course>
<desc>Speed 25.2 km/h Distance 3.15 km</desc>
<time>2011-07-19T19:57:39.45</time>
<name>538</name>
</trkpt>
<trkpt lat="39.043028" lon="-3.820605">
<ele>679.5</ele>
<speed>25.0</speed>
<course>319.4</course>
<desc>Speed 25.0 km/h Distance 3.16 km</desc>
<time>2011-07-19T19:57:40.45</time>
<name>539</name>
</trkpt>
<trkpt lat="39.043077" lon="-3.820658">
<ele>678.5</ele>
<speed>24.6</speed>
<course>320.3</course>
<desc>Speed 24.6 km/h Distance 3.16 km</desc>
<time>2011-07-19T19:57:41.44</time>
<name>540</name>
</trkpt>
<trkpt lat="39.043125" lon="-3.820710">
<ele>678.0</ele>
<speed>24.0</speed>
<course>320.2</course>
<desc>Speed 24.0 km/h Distance 3.17 km</desc>
<time>2011-07-19T19:57:42.45</time>
<name>541</name>
</trkpt>
<trkpt lat="39.043172" lon="-3.820760">
<ele>677.0</ele>
<speed>23.7</speed>
<course>318.3</course>
<desc>Speed 23.7 km/h Distance 3.18 km</desc>
<time>2011-07-19T19:57:43.47</time>
<name>542</name>
</trkpt>
<trkpt lat="39.043217" lon="-3.820812">
<ele>676.5</ele>
<speed>23.5</speed>
<course>319.2</course>
<desc>Speed 23.5 km/h Distance 3.18 km</desc>
<time>2011-07-19T19:57:44.44</time>
<name>543</name>
</trkpt>
<trkpt lat="39.043262" lon="-3.820862">
<ele>676.0</ele>
<speed>23.3</speed>
<course>318.3</course>
<desc>Speed 23.3 km/h Distance 3.19 km</desc>
<time>2011-07-19T19:57:45.45</time>
<name>544</name>
</trkpt>
<trkpt lat="39.043307" lon="-3.820913">
<ele>675.5</ele>
<speed>23.2</speed>
<course>319.1</course>
<desc>Speed 23.2 km/h Distance 3.20 km</desc>
<time>2011-07-19T19:57:46.45</time>
<name>545</name>
</trkpt>
<trkpt lat="39.043350" lon="-3.820962">
<ele>675.5</ele>
<speed>22.8</speed>
<course>319.1</course>
<desc>Speed 22.8 km/h Distance 3.20 km</desc>
<time>2011-07-19T19:57:47.45</time>
<name>546</name>
</trkpt>
<trkpt lat="39.043393" lon="-3.821010">
<ele>675.5</ele>
<speed>22.3</speed>
<course>318.0</course>
<desc>Speed 22.3 km/h Distance 3.21 km</desc>
<time>2011-07-19T19:57:48.45</time>
<name>547</name>
</trkpt>
<trkpt lat="39.043435" lon="-3.821058">
<ele>675.5</ele>
<speed>22.0</speed>
<course>320.0</course>
<desc>Speed 22.0 km/h Distance 3.22 km</desc>
<time>2011-07-19T19:57:49.44</time>
<name>548</name>
</trkpt>
<trkpt lat="39.043477" lon="-3.821103">
<ele>675.5</ele>
<speed>21.6</speed>
<course>319.0</course>
<desc>Speed 21.6 km/h Distance 3.22 km</desc>
<time>2011-07-19T19:57:50.45</time>
<name>549</name>
</trkpt>
<trkpt lat="39.043518" lon="-3.821150">
<ele>675.5</ele>
<speed>21.5</speed>
<course>319.0</course>
<desc>Speed 21.5 km/h Distance 3.23 km</desc>
<time>2011-07-19T19:57:51.44</time>
<name>550</name>
</trkpt>
<trkpt lat="39.043560" lon="-3.821197">
<ele>675.5</ele>
<speed>21.4</speed>
<course>319.0</course>
<desc>Speed 21.4 km/h Distance 3.24 km</desc>
<time>2011-07-19T19:57:52.44</time>
<name>551</name>
</trkpt>
<trkpt lat="39.043602" lon="-3.821243">
<ele>675.5</ele>
<speed>21.5</speed>
<course>317.8</course>
<desc>Speed 21.5 km/h Distance 3.24 km</desc>
<time>2011-07-19T19:57:53.44</time>
<name>552</name>
</trkpt>
<trkpt lat="39.043642" lon="-3.821290">
<ele>676.0</ele>
<speed>21.2</speed>
<course>319.0</course>
<desc>Speed 21.2 km/h Distance 3.25 km</desc>
<time>2011-07-19T19:57:54.45</time>
<name>553</name>
</trkpt>
<trkpt lat="39.043683" lon="-3.821337">
<ele>676.0</ele>
<speed>21.5</speed>
<course>316.8</course>
<desc>Speed 21.5 km/h Distance 3.25 km</desc>
<time>2011-07-19T19:57:55.44</time>
<name>554</name>
</trkpt>
<trkpt lat="39.043723" lon="-3.821385">
<ele>676.5</ele>
<speed>21.3</speed>
<course>320.0</course>
<desc>Speed 21.3 km/h Distance 3.26 km</desc>
<time>2011-07-19T19:57:56.44</time>
<name>555</name>
</trkpt>
<trkpt lat="39.043765" lon="-3.821430">
<ele>677.0</ele>
<speed>21.1</speed>
<course>318.9</course>
<desc>Speed 21.1 km/h Distance 3.27 km</desc>
<time>2011-07-19T19:57:57.44</time>
<name>556</name>
</trkpt>
<trkpt lat="39.043805" lon="-3.821475">
<ele>677.5</ele>
<speed>20.6</speed>
<course>329.0</course>
<desc>Speed 20.6 km/h Distance 3.27 km</desc>
<time>2011-07-19T19:57:58.44</time>
<name>557</name>
</trkpt>
<trkpt lat="39.043857" lon="-3.821515">
<ele>677.0</ele>
<speed>23.1</speed>
<course>326.2</course>
<desc>Speed 23.1 km/h Distance 3.28 km</desc>
<time>2011-07-19T19:57:59.45</time>
<name>558</name>
</trkpt>
<trkpt lat="39.043905" lon="-3.821557">
<ele>677.0</ele>
<speed>22.9</speed>
<course>328.1</course>
<desc>Speed 22.9 km/h Distance 3.29 km</desc>
<time>2011-07-19T19:58:00.44</time>
<name>559</name>
</trkpt>
<trkpt lat="39.043955" lon="-3.821597">
<ele>677.0</ele>
<speed>22.4</speed>
<course>328.4</course>
<desc>Speed 22.4 km/h Distance 3.29 km</desc>
<time>2011-07-19T19:58:01.44</time>
<name>560</name>
</trkpt>
<trkpt lat="39.044003" lon="-3.821635">
<ele>677.0</ele>
<speed>21.8</speed>
<course>328.6</course>
<desc>Speed 21.8 km/h Distance 3.30 km</desc>
<time>2011-07-19T19:58:02.44</time>
<name>561</name>
</trkpt>
<trkpt lat="39.044050" lon="-3.821672">
<ele>677.0</ele>
<speed>21.5</speed>
<course>328.6</course>
<desc>Speed 21.5 km/h Distance 3.30 km</desc>
<time>2011-07-19T19:58:03.45</time>
<name>562</name>
</trkpt>
<trkpt lat="39.044097" lon="-3.821708">
<ele>677.0</ele>
<speed>21.3</speed>
<course>326.5</course>
<desc>Speed 21.3 km/h Distance 3.31 km</desc>
<time>2011-07-19T19:58:04.44</time>
<name>563</name>
</trkpt>
<trkpt lat="39.044142" lon="-3.821747">
<ele>677.5</ele>
<speed>21.1</speed>
<course>324.3</course>
<desc>Speed 21.1 km/h Distance 3.32 km</desc>
<time>2011-07-19T19:58:05.44</time>
<name>564</name>
</trkpt>
<trkpt lat="39.044187" lon="-3.821788">
<ele>677.5</ele>
<speed>21.4</speed>
<course>325.3</course>
<desc>Speed 21.4 km/h Distance 3.32 km</desc>
<time>2011-07-19T19:58:06.44</time>
<name>565</name>
</trkpt>
<trkpt lat="39.044233" lon="-3.821830">
<ele>677.5</ele>
<speed>21.7</speed>
<course>324.2</course>
<desc>Speed 21.7 km/h Distance 3.33 km</desc>
<time>2011-07-19T19:58:07.44</time>
<name>566</name>
</trkpt>
<trkpt lat="39.044280" lon="-3.821873">
<ele>677.0</ele>
<speed>22.2</speed>
<course>320.2</course>
<desc>Speed 22.2 km/h Distance 3.33 km</desc>
<time>2011-07-19T19:58:08.44</time>
<name>567</name>
</trkpt>
<trkpt lat="39.044325" lon="-3.821922">
<ele>677.0</ele>
<speed>22.6</speed>
<course>320.2</course>
<desc>Speed 22.6 km/h Distance 3.34 km</desc>
<time>2011-07-19T19:58:09.44</time>
<name>568</name>
</trkpt>
<trkpt lat="39.044370" lon="-3.821970">
<ele>676.5</ele>
<speed>22.7</speed>
<course>317.2</course>
<desc>Speed 22.7 km/h Distance 3.35 km</desc>
<time>2011-07-19T19:58:10.44</time>
<name>569</name>
</trkpt>
<trkpt lat="39.044413" lon="-3.822022">
<ele>675.5</ele>
<speed>23.1</speed>
<course>315.2</course>
<desc>Speed 23.1 km/h Distance 3.35 km</desc>
<time>2011-07-19T19:58:11.44</time>
<name>570</name>
</trkpt>
<trkpt lat="39.044455" lon="-3.822075">
<ele>674.5</ele>
<speed>22.9</speed>
<course>314.0</course>
<desc>Speed 22.9 km/h Distance 3.36 km</desc>
<time>2011-07-19T19:58:12.44</time>
<name>571</name>
</trkpt>
<trkpt lat="39.044495" lon="-3.822128">
<ele>673.5</ele>
<speed>22.8</speed>
<course>302.0</course>
<desc>Speed 22.8 km/h Distance 3.37 km</desc>
<time>2011-07-19T19:58:13.44</time>
<name>572</name>
</trkpt>
<trkpt lat="39.044523" lon="-3.822187">
<ele>673.5</ele>
<speed>20.8</speed>
<course>297.9</course>
<desc>Speed 20.8 km/h Distance 3.37 km</desc>
<time>2011-07-19T19:58:14.44</time>
<name>573</name>
</trkpt>
<trkpt lat="39.044547" lon="-3.822243">
<ele>673.0</ele>
<speed>20.1</speed>
<course>297.9</course>
<desc>Speed 20.1 km/h Distance 3.38 km</desc>
<time>2011-07-19T19:58:15.44</time>
<name>574</name>
</trkpt>
<trkpt lat="39.044570" lon="-3.822300">
<ele>673.5</ele>
<speed>19.4</speed>
<course>298.6</course>
<desc>Speed 19.4 km/h Distance 3.38 km</desc>
<time>2011-07-19T19:58:16.44</time>
<name>575</name>
</trkpt>
<trkpt lat="39.044593" lon="-3.822355">
<ele>674.0</ele>
<speed>19.3</speed>
<course>312.4</course>
<desc>Speed 19.3 km/h Distance 3.39 km</desc>
<time>2011-07-19T19:58:17.44</time>
<name>576</name>
</trkpt>
<trkpt lat="39.044630" lon="-3.822407">
<ele>674.0</ele>
<speed>21.5</speed>
<course>312.4</course>
<desc>Speed 21.5 km/h Distance 3.40 km</desc>
<time>2011-07-19T19:58:18.44</time>
<name>577</name>
</trkpt>
<trkpt lat="39.044667" lon="-3.822458">
<ele>674.0</ele>
<speed>21.9</speed>
<course>311.9</course>
<desc>Speed 21.9 km/h Distance 3.40 km</desc>
<time>2011-07-19T19:58:19.44</time>
<name>578</name>
</trkpt>
<trkpt lat="39.044705" lon="-3.822513">
<ele>674.0</ele>
<speed>22.4</speed>
<course>311.9</course>
<desc>Speed 22.4 km/h Distance 3.41 km</desc>
<time>2011-07-19T19:58:20.44</time>
<name>579</name>
</trkpt>
<trkpt lat="39.044743" lon="-3.822568">
<ele>674.0</ele>
<speed>22.5</speed>
<course>311.9</course>
<desc>Speed 22.5 km/h Distance 3.41 km</desc>
<time>2011-07-19T19:58:21.44</time>
<name>580</name>
</trkpt>
<trkpt lat="39.044782" lon="-3.822623">
<ele>674.0</ele>
<speed>22.6</speed>
<course>311.1</course>
<desc>Speed 22.6 km/h Distance 3.42 km</desc>
<time>2011-07-19T19:58:22.44</time>
<name>581</name>
</trkpt>
<trkpt lat="39.044820" lon="-3.822680">
<ele>673.5</ele>
<speed>22.4</speed>
<course>312.4</course>
<desc>Speed 22.4 km/h Distance 3.43 km</desc>
<time>2011-07-19T19:58:23.44</time>
<name>582</name>
</trkpt>
<trkpt lat="39.044857" lon="-3.822732">
<ele>674.0</ele>
<speed>21.3</speed>
<course>313.4</course>
<desc>Speed 21.3 km/h Distance 3.43 km</desc>
<time>2011-07-19T19:58:24.44</time>
<name>583</name>
</trkpt>
<trkpt lat="39.044893" lon="-3.822782">
<ele>674.0</ele>
<speed>20.8</speed>
<course>311.1</course>
<desc>Speed 20.8 km/h Distance 3.44 km</desc>
<time>2011-07-19T19:58:25.44</time>
<name>584</name>
</trkpt>
<trkpt lat="39.044928" lon="-3.822833">
<ele>674.5</ele>
<speed>21.3</speed>
<course>310.6</course>
<desc>Speed 21.3 km/h Distance 3.45 km</desc>
<time>2011-07-19T19:58:26.44</time>
<name>585</name>
</trkpt>
<trkpt lat="39.044965" lon="-3.822888">
<ele>674.5</ele>
<speed>21.5</speed>
<course>310.2</course>
<desc>Speed 21.5 km/h Distance 3.45 km</desc>
<time>2011-07-19T19:58:27.44</time>
<name>586</name>
</trkpt>
<trkpt lat="39.045000" lon="-3.822942">
<ele>675.0</ele>
<speed>21.3</speed>
<course>310.2</course>
<desc>Speed 21.3 km/h Distance 3.46 km</desc>
<time>2011-07-19T19:58:28.44</time>
<name>587</name>
</trkpt>
<trkpt lat="39.045035" lon="-3.822995">
<ele>675.0</ele>
<speed>21.4</speed>
<course>309.3</course>
<desc>Speed 21.4 km/h Distance 3.46 km</desc>
<time>2011-07-19T19:58:29.44</time>
<name>588</name>
</trkpt>
<trkpt lat="39.045070" lon="-3.823050">
<ele>675.5</ele>
<speed>21.2</speed>
<course>310.2</course>
<desc>Speed 21.2 km/h Distance 3.47 km</desc>
<time>2011-07-19T19:58:30.44</time>
<name>589</name>
</trkpt>
<trkpt lat="39.045105" lon="-3.823103">
<ele>675.5</ele>
<speed>21.2</speed>
<course>309.3</course>
<desc>Speed 21.2 km/h Distance 3.48 km</desc>
<time>2011-07-19T19:58:31.44</time>
<name>590</name>
</trkpt>
<trkpt lat="39.045140" lon="-3.823158">
<ele>676.0</ele>
<speed>21.1</speed>
<course>310.2</course>
<desc>Speed 21.1 km/h Distance 3.48 km</desc>
<time>2011-07-19T19:58:32.44</time>
<name>591</name>
</trkpt>
<trkpt lat="39.045175" lon="-3.823212">
<ele>676.0</ele>
<speed>21.1</speed>
<course>309.3</course>
<desc>Speed 21.1 km/h Distance 3.49 km</desc>
<time>2011-07-19T19:58:33.45</time>
<name>592</name>
</trkpt>
<trkpt lat="39.045210" lon="-3.823267">
<ele>676.5</ele>
<speed>21.3</speed>
<course>308.0</course>
<desc>Speed 21.3 km/h Distance 3.49 km</desc>
<time>2011-07-19T19:58:34.44</time>
<name>593</name>
</trkpt>
<trkpt lat="39.045243" lon="-3.823322">
<ele>676.5</ele>
<speed>21.2</speed>
<course>305.7</course>
<desc>Speed 21.2 km/h Distance 3.50 km</desc>
<time>2011-07-19T19:58:35.45</time>
<name>594</name>
</trkpt>
<trkpt lat="39.045275" lon="-3.823378">
<ele>677.0</ele>
<speed>21.3</speed>
<course>304.9</course>
<desc>Speed 21.3 km/h Distance 3.51 km</desc>
<time>2011-07-19T19:58:36.44</time>
<name>595</name>
</trkpt>
<trkpt lat="39.045307" lon="-3.823437">
<ele>677.5</ele>
<speed>21.3</speed>
<course>306.6</course>
<desc>Speed 21.3 km/h Distance 3.51 km</desc>
<time>2011-07-19T19:58:37.44</time>
<name>596</name>
</trkpt>
<trkpt lat="39.045338" lon="-3.823492">
<ele>678.0</ele>
<speed>21.0</speed>
<course>305.0</course>
<desc>Speed 21.0 km/h Distance 3.52 km</desc>
<time>2011-07-19T19:58:38.44</time>
<name>597</name>
</trkpt>
<trkpt lat="39.045370" lon="-3.823550">
<ele>678.0</ele>
<speed>21.2</speed>
<course>304.3</course>
<desc>Speed 21.2 km/h Distance 3.52 km</desc>
<time>2011-07-19T19:58:39.44</time>
<name>598</name>
</trkpt>
<trkpt lat="39.045400" lon="-3.823607">
<ele>678.0</ele>
<speed>21.0</speed>
<course>303.5</course>
<desc>Speed 21.0 km/h Distance 3.53 km</desc>
<time>2011-07-19T19:58:40.44</time>
<name>599</name>
</trkpt>
<trkpt lat="39.045430" lon="-3.823665">
<ele>678.5</ele>
<speed>21.1</speed>
<course>302.8</course>
<desc>Speed 21.1 km/h Distance 3.54 km</desc>
<time>2011-07-19T19:58:41.44</time>
<name>600</name>
</trkpt>
<trkpt lat="39.045458" lon="-3.823722">
<ele>679.0</ele>
<speed>20.9</speed>
<course>303.5</course>
<desc>Speed 20.9 km/h Distance 3.54 km</desc>
<time>2011-07-19T19:58:42.48</time>
<name>601</name>
</trkpt>
<trkpt lat="39.045488" lon="-3.823780">
<ele>679.0</ele>
<speed>21.0</speed>
<course>301.3</course>
<desc>Speed 21.0 km/h Distance 3.55 km</desc>
<time>2011-07-19T19:58:43.46</time>
<name>602</name>
</trkpt>
<trkpt lat="39.045517" lon="-3.823840">
<ele>679.0</ele>
<speed>21.2</speed>
<course>299.8</course>
<desc>Speed 21.2 km/h Distance 3.55 km</desc>
<time>2011-07-19T19:58:44.44</time>
<name>603</name>
</trkpt>
<trkpt lat="39.045543" lon="-3.823900">
<ele>678.5</ele>
<speed>21.3</speed>
<course>281.2</course>
<desc>Speed 21.3 km/h Distance 3.56 km</desc>
<time>2011-07-19T19:58:45.44</time>
<name>604</name>
</trkpt>
<trkpt lat="39.045553" lon="-3.823965">
<ele>678.0</ele>
<speed>20.7</speed>
<course>271.9</course>
<desc>Speed 20.7 km/h Distance 3.57 km</desc>
<time>2011-07-19T19:58:46.44</time>
<name>605</name>
</trkpt>
<trkpt lat="39.045555" lon="-3.824028">
<ele>677.5</ele>
<speed>19.6</speed>
<course>254.0</course>
<desc>Speed 19.6 km/h Distance 3.57 km</desc>
<time>2011-07-19T19:58:47.44</time>
<name>606</name>
</trkpt>
<trkpt lat="39.045542" lon="-3.824088">
<ele>677.0</ele>
<speed>20.3</speed>
<course>253.6</course>
<desc>Speed 20.3 km/h Distance 3.58 km</desc>
<time>2011-07-19T19:58:48.44</time>
<name>607</name>
</trkpt>
<trkpt lat="39.045528" lon="-3.824147">
<ele>676.5</ele>
<speed>19.7</speed>
<course>252.2</course>
<desc>Speed 19.7 km/h Distance 3.58 km</desc>
<time>2011-07-19T19:58:49.44</time>
<name>608</name>
</trkpt>
<trkpt lat="39.045513" lon="-3.824207">
<ele>676.0</ele>
<speed>20.1</speed>
<course>248.0</course>
<desc>Speed 20.1 km/h Distance 3.59 km</desc>
<time>2011-07-19T19:58:50.44</time>
<name>609</name>
</trkpt>
<trkpt lat="39.045495" lon="-3.824265">
<ele>675.0</ele>
<speed>19.8</speed>
<course>243.8</course>
<desc>Speed 19.8 km/h Distance 3.59 km</desc>
<time>2011-07-19T19:58:51.44</time>
<name>610</name>
</trkpt>
<trkpt lat="39.045473" lon="-3.824322">
<ele>674.0</ele>
<speed>19.7</speed>
<course>243.1</course>
<desc>Speed 19.7 km/h Distance 3.60 km</desc>
<time>2011-07-19T19:58:52.45</time>
<name>611</name>
</trkpt>
<trkpt lat="39.045452" lon="-3.824377">
<ele>673.0</ele>
<speed>19.7</speed>
<course>232.9</course>
<desc>Speed 19.7 km/h Distance 3.60 km</desc>
<time>2011-07-19T19:58:53.44</time>
<name>612</name>
</trkpt>
<trkpt lat="39.045418" lon="-3.824433">
<ele>673.0</ele>
<speed>22.5</speed>
<course>234.3</course>
<desc>Speed 22.5 km/h Distance 3.61 km</desc>
<time>2011-07-19T19:58:54.44</time>
<name>613</name>
</trkpt>
<trkpt lat="39.045387" lon="-3.824490">
<ele>672.5</ele>
<speed>22.7</speed>
<course>236.5</course>
<desc>Speed 22.7 km/h Distance 3.62 km</desc>
<time>2011-07-19T19:58:55.44</time>
<name>614</name>
</trkpt>
<trkpt lat="39.045355" lon="-3.824552">
<ele>672.5</ele>
<speed>23.4</speed>
<course>237.9</course>
<desc>Speed 23.4 km/h Distance 3.62 km</desc>
<time>2011-07-19T19:58:56.44</time>
<name>615</name>
</trkpt>
<trkpt lat="39.045323" lon="-3.824617">
<ele>672.0</ele>
<speed>24.1</speed>
<course>239.3</course>
<desc>Speed 24.1 km/h Distance 3.63 km</desc>
<time>2011-07-19T19:58:57.45</time>
<name>616</name>
</trkpt>
<trkpt lat="39.045293" lon="-3.824682">
<ele>672.0</ele>
<speed>24.1</speed>
<course>237.9</course>
<desc>Speed 24.1 km/h Distance 3.64 km</desc>
<time>2011-07-19T19:58:58.44</time>
<name>617</name>
</trkpt>
<trkpt lat="39.045262" lon="-3.824747">
<ele>672.0</ele>
<speed>24.4</speed>
<course>241.9</course>
<desc>Speed 24.4 km/h Distance 3.64 km</desc>
<time>2011-07-19T19:58:59.44</time>
<name>618</name>
</trkpt>
<trkpt lat="39.045233" lon="-3.824815">
<ele>672.0</ele>
<speed>24.9</speed>
<course>239.9</course>
<desc>Speed 24.9 km/h Distance 3.65 km</desc>
<time>2011-07-19T19:59:00.44</time>
<name>619</name>
</trkpt>
<trkpt lat="39.045203" lon="-3.824882">
<ele>672.5</ele>
<speed>24.7</speed>
<course>236.5</course>
<desc>Speed 24.7 km/h Distance 3.66 km</desc>
<time>2011-07-19T19:59:01.44</time>
<name>620</name>
</trkpt>
<trkpt lat="39.045172" lon="-3.824943">
<ele>672.5</ele>
<speed>23.9</speed>
<course>238.8</course>
<desc>Speed 23.9 km/h Distance 3.66 km</desc>
<time>2011-07-19T19:59:02.43</time>
<name>621</name>
</trkpt>
<trkpt lat="39.045145" lon="-3.825000">
<ele>672.5</ele>
<speed>21.3</speed>
<course>242.1</course>
<desc>Speed 21.3 km/h Distance 3.67 km</desc>
<time>2011-07-19T19:59:03.44</time>
<name>622</name>
</trkpt>
<trkpt lat="39.045122" lon="-3.825057">
<ele>672.0</ele>
<speed>20.4</speed>
<course>246.2</course>
<desc>Speed 20.4 km/h Distance 3.67 km</desc>
<time>2011-07-19T19:59:04.44</time>
<name>623</name>
</trkpt>
<trkpt lat="39.045100" lon="-3.825120">
<ele>672.0</ele>
<speed>22.3</speed>
<course>247.8</course>
<desc>Speed 22.3 km/h Distance 3.68 km</desc>
<time>2011-07-19T19:59:05.44</time>
<name>624</name>
</trkpt>
<trkpt lat="39.045078" lon="-3.825188">
<ele>671.5</ele>
<speed>23.3</speed>
<course>248.9</course>
<desc>Speed 23.3 km/h Distance 3.69 km</desc>
<time>2011-07-19T19:59:06.44</time>
<name>625</name>
</trkpt>
<trkpt lat="39.045058" lon="-3.825255">
<ele>671.5</ele>
<speed>23.2</speed>
<course>245.2</course>
<desc>Speed 23.2 km/h Distance 3.69 km</desc>
<time>2011-07-19T19:59:07.44</time>
<name>626</name>
</trkpt>
<trkpt lat="39.045035" lon="-3.825320">
<ele>671.0</ele>
<speed>23.1</speed>
<course>243.7</course>
<desc>Speed 23.1 km/h Distance 3.70 km</desc>
<time>2011-07-19T19:59:08.43</time>
<name>627</name>
</trkpt>
<trkpt lat="39.045010" lon="-3.825385">
<ele>670.5</ele>
<speed>22.9</speed>
<course>242.4</course>
<desc>Speed 22.9 km/h Distance 3.70 km</desc>
<time>2011-07-19T19:59:09.44</time>
<name>628</name>
</trkpt>
<trkpt lat="39.044985" lon="-3.825447">
<ele>670.0</ele>
<speed>22.2</speed>
<course>243.4</course>
<desc>Speed 22.2 km/h Distance 3.71 km</desc>
<time>2011-07-19T19:59:10.44</time>
<name>629</name>
</trkpt>
<trkpt lat="39.044962" lon="-3.825507">
<ele>670.0</ele>
<speed>22.0</speed>
<course>241.8</course>
<desc>Speed 22.0 km/h Distance 3.72 km</desc>
<time>2011-07-19T19:59:11.43</time>
<name>630</name>
</trkpt>
<trkpt lat="39.044937" lon="-3.825567">
<ele>670.0</ele>
<speed>21.9</speed>
<course>240.4</course>
<desc>Speed 21.9 km/h Distance 3.72 km</desc>
<time>2011-07-19T19:59:12.44</time>
<name>631</name>
</trkpt>
<trkpt lat="39.044912" lon="-3.825623">
<ele>670.0</ele>
<speed>21.2</speed>
<course>236.4</course>
<desc>Speed 21.2 km/h Distance 3.73 km</desc>
<time>2011-07-19T19:59:13.45</time>
<name>632</name>
</trkpt>
<trkpt lat="39.044883" lon="-3.825678">
<ele>669.5</ele>
<speed>21.1</speed>
<course>238.7</course>
<desc>Speed 21.1 km/h Distance 3.73 km</desc>
<time>2011-07-19T19:59:14.44</time>
<name>633</name>
</trkpt>
<trkpt lat="39.044855" lon="-3.825738">
<ele>669.5</ele>
<speed>22.2</speed>
<course>242.2</course>
<desc>Speed 22.2 km/h Distance 3.74 km</desc>
<time>2011-07-19T19:59:15.44</time>
<name>634</name>
</trkpt>
<trkpt lat="39.044828" lon="-3.825803">
<ele>669.5</ele>
<speed>23.3</speed>
<course>243.3</course>
<desc>Speed 23.3 km/h Distance 3.75 km</desc>
<time>2011-07-19T19:59:16.44</time>
<name>635</name>
</trkpt>
<trkpt lat="39.044802" lon="-3.825872">
<ele>670.0</ele>
<speed>24.2</speed>
<course>245.8</course>
<desc>Speed 24.2 km/h Distance 3.75 km</desc>
<time>2011-07-19T19:59:17.43</time>
<name>636</name>
</trkpt>
<trkpt lat="39.044777" lon="-3.825943">
<ele>669.5</ele>
<speed>24.7</speed>
<course>241.3</course>
<desc>Speed 24.7 km/h Distance 3.76 km</desc>
<time>2011-07-19T19:59:18.44</time>
<name>637</name>
</trkpt>
<trkpt lat="39.044748" lon="-3.826010">
<ele>669.5</ele>
<speed>24.4</speed>
<course>242.5</course>
<desc>Speed 24.4 km/h Distance 3.77 km</desc>
<time>2011-07-19T19:59:19.44</time>
<name>638</name>
</trkpt>
<trkpt lat="39.044720" lon="-3.826080">
<ele>669.0</ele>
<speed>24.8</speed>
<course>241.7</course>
<desc>Speed 24.8 km/h Distance 3.77 km</desc>
<time>2011-07-19T19:59:20.43</time>
<name>639</name>
</trkpt>
<trkpt lat="39.044690" lon="-3.826152">
<ele>669.0</ele>
<speed>25.7</speed>
<course>243.5</course>
<desc>Speed 25.7 km/h Distance 3.78 km</desc>
<time>2011-07-19T19:59:21.44</time>
<name>640</name>
</trkpt>
<trkpt lat="39.044662" lon="-3.826225">
<ele>669.0</ele>
<speed>26.0</speed>
<course>243.3</course>
<desc>Speed 26.0 km/h Distance 3.79 km</desc>
<time>2011-07-19T19:59:22.44</time>
<name>641</name>
</trkpt>
<trkpt lat="39.044632" lon="-3.826302">
<ele>668.5</ele>
<speed>26.6</speed>
<course>243.8</course>
<desc>Speed 26.6 km/h Distance 3.79 km</desc>
<time>2011-07-19T19:59:23.44</time>
<name>642</name>
</trkpt>
<trkpt lat="39.044602" lon="-3.826380">
<ele>668.5</ele>
<speed>27.5</speed>
<course>245.9</course>
<desc>Speed 27.5 km/h Distance 3.80 km</desc>
<time>2011-07-19T19:59:24.44</time>
<name>643</name>
</trkpt>
<trkpt lat="39.044573" lon="-3.826462">
<ele>668.0</ele>
<speed>28.2</speed>
<course>246.3</course>
<desc>Speed 28.2 km/h Distance 3.81 km</desc>
<time>2011-07-19T19:59:25.45</time>
<name>644</name>
</trkpt>
<trkpt lat="39.044547" lon="-3.826540">
<ele>668.5</ele>
<speed>27.8</speed>
<course>242.5</course>
<desc>Speed 27.8 km/h Distance 3.82 km</desc>
<time>2011-07-19T19:59:26.44</time>
<name>645</name>
</trkpt>
<trkpt lat="39.044515" lon="-3.826618">
<ele>668.5</ele>
<speed>27.3</speed>
<course>243.8</course>
<desc>Speed 27.3 km/h Distance 3.82 km</desc>
<time>2011-07-19T19:59:27.44</time>
<name>646</name>
</trkpt>
<trkpt lat="39.044485" lon="-3.826697">
<ele>669.0</ele>
<speed>28.0</speed>
<course>246.3</course>
<desc>Speed 28.0 km/h Distance 3.83 km</desc>
<time>2011-07-19T19:59:28.44</time>
<name>647</name>
</trkpt>
<trkpt lat="39.044458" lon="-3.826775">
<ele>669.5</ele>
<speed>27.6</speed>
<course>239.8</course>
<desc>Speed 27.6 km/h Distance 3.84 km</desc>
<time>2011-07-19T19:59:29.44</time>
<name>648</name>
</trkpt>
<trkpt lat="39.044427" lon="-3.826845">
<ele>669.5</ele>
<speed>26.2</speed>
<course>241.5</course>
<desc>Speed 26.2 km/h Distance 3.85 km</desc>
<time>2011-07-19T19:59:30.44</time>
<name>649</name>
</trkpt>
<trkpt lat="39.044395" lon="-3.826920">
<ele>669.5</ele>
<speed>27.1</speed>
<course>243.3</course>
<desc>Speed 27.1 km/h Distance 3.85 km</desc>
<time>2011-07-19T19:59:31.44</time>
<name>650</name>
</trkpt>
<trkpt lat="39.044365" lon="-3.826997">
<ele>670.0</ele>
<speed>27.5</speed>
<course>242.0</course>
<desc>Speed 27.5 km/h Distance 3.86 km</desc>
<time>2011-07-19T19:59:32.44</time>
<name>651</name>
</trkpt>
<trkpt lat="39.044333" lon="-3.827073">
<ele>670.0</ele>
<speed>27.3</speed>
<course>241.5</course>
<desc>Speed 27.3 km/h Distance 3.87 km</desc>
<time>2011-07-19T19:59:33.43</time>
<name>652</name>
</trkpt>
<trkpt lat="39.044302" lon="-3.827148">
<ele>670.5</ele>
<speed>27.5</speed>
<course>242.0</course>
<desc>Speed 27.5 km/h Distance 3.88 km</desc>
<time>2011-07-19T19:59:34.46</time>
<name>653</name>
</trkpt>
<trkpt lat="39.044270" lon="-3.827225">
<ele>671.0</ele>
<speed>27.5</speed>
<course>240.2</course>
<desc>Speed 27.5 km/h Distance 3.88 km</desc>
<time>2011-07-19T19:59:35.44</time>
<name>654</name>
</trkpt>
<trkpt lat="39.044237" lon="-3.827300">
<ele>671.0</ele>
<speed>27.5</speed>
<course>245.8</course>
<desc>Speed 27.5 km/h Distance 3.89 km</desc>
<time>2011-07-19T19:59:36.44</time>
<name>655</name>
</trkpt>
<trkpt lat="39.044212" lon="-3.827372">
<ele>671.0</ele>
<speed>25.1</speed>
<course>246.8</course>
<desc>Speed 25.1 km/h Distance 3.90 km</desc>
<time>2011-07-19T19:59:37.44</time>
<name>656</name>
</trkpt>
<trkpt lat="39.044188" lon="-3.827442">
<ele>671.0</ele>
<speed>24.5</speed>
<course>246.8</course>
<desc>Speed 24.5 km/h Distance 3.90 km</desc>
<time>2011-07-19T19:59:38.44</time>
<name>657</name>
</trkpt>
<trkpt lat="39.044165" lon="-3.827512">
<ele>670.5</ele>
<speed>24.4</speed>
<course>243.3</course>
<desc>Speed 24.4 km/h Distance 3.91 km</desc>
<time>2011-07-19T19:59:39.44</time>
<name>658</name>
</trkpt>
<trkpt lat="39.044138" lon="-3.827580">
<ele>670.5</ele>
<speed>24.2</speed>
<course>242.8</course>
<desc>Speed 24.2 km/h Distance 3.92 km</desc>
<time>2011-07-19T19:59:40.49</time>
<name>659</name>
</trkpt>
<trkpt lat="39.044112" lon="-3.827647">
<ele>670.5</ele>
<speed>23.9</speed>
<course>241.3</course>
<desc>Speed 23.9 km/h Distance 3.92 km</desc>
<time>2011-07-19T19:59:41.44</time>
<name>660</name>
</trkpt>
<trkpt lat="39.044083" lon="-3.827713">
<ele>670.5</ele>
<speed>24.0</speed>
<course>244.8</course>
<desc>Speed 24.0 km/h Distance 3.93 km</desc>
<time>2011-07-19T19:59:42.44</time>
<name>661</name>
</trkpt>
<trkpt lat="39.044058" lon="-3.827782">
<ele>670.0</ele>
<speed>24.2</speed>
<course>241.9</course>
<desc>Speed 24.2 km/h Distance 3.94 km</desc>
<time>2011-07-19T19:59:43.46</time>
<name>662</name>
</trkpt>
<trkpt lat="39.044030" lon="-3.827850">
<ele>670.5</ele>
<speed>24.2</speed>
<course>242.8</course>
<desc>Speed 24.2 km/h Distance 3.94 km</desc>
<time>2011-07-19T19:59:44.44</time>
<name>663</name>
</trkpt>
<trkpt lat="39.044003" lon="-3.827917">
<ele>670.5</ele>
<speed>24.2</speed>
<course>241.3</course>
<desc>Speed 24.2 km/h Distance 3.95 km</desc>
<time>2011-07-19T19:59:45.44</time>
<name>664</name>
</trkpt>
<trkpt lat="39.043975" lon="-3.827983">
<ele>670.5</ele>
<speed>24.3</speed>
<course>241.3</course>
<desc>Speed 24.3 km/h Distance 3.96 km</desc>
<time>2011-07-19T19:59:46.44</time>
<name>665</name>
</trkpt>
<trkpt lat="39.043947" lon="-3.828050">
<ele>670.5</ele>
<speed>24.5</speed>
<course>241.9</course>
<desc>Speed 24.5 km/h Distance 3.96 km</desc>
<time>2011-07-19T19:59:47.44</time>
<name>666</name>
</trkpt>
<trkpt lat="39.043918" lon="-3.828118">
<ele>671.0</ele>
<speed>24.6</speed>
<course>241.9</course>
<desc>Speed 24.6 km/h Distance 3.97 km</desc>
<time>2011-07-19T19:59:48.44</time>
<name>667</name>
</trkpt>
<trkpt lat="39.043890" lon="-3.828187">
<ele>671.0</ele>
<speed>24.7</speed>
<course>240.7</course>
<desc>Speed 24.7 km/h Distance 3.98 km</desc>
<time>2011-07-19T19:59:49.43</time>
<name>668</name>
</trkpt>
<trkpt lat="39.043862" lon="-3.828252">
<ele>671.0</ele>
<speed>24.5</speed>
<course>240.7</course>
<desc>Speed 24.5 km/h Distance 3.98 km</desc>
<time>2011-07-19T19:59:50.43</time>
<name>669</name>
</trkpt>
<trkpt lat="39.043833" lon="-3.828317">
<ele>671.0</ele>
<speed>24.2</speed>
<course>239.9</course>
<desc>Speed 24.2 km/h Distance 3.99 km</desc>
<time>2011-07-19T19:59:51.44</time>
<name>670</name>
</trkpt>
<trkpt lat="39.043803" lon="-3.828383">
<ele>671.0</ele>
<speed>24.4</speed>
<course>241.3</course>
<desc>Speed 24.4 km/h Distance 4.00 km</desc>
<time>2011-07-19T19:59:52.44</time>
<name>671</name>
</trkpt>
<trkpt lat="39.043775" lon="-3.828450">
<ele>671.0</ele>
<speed>24.7</speed>
<course>240.5</course>
<desc>Speed 24.7 km/h Distance 4.00 km</desc>
<time>2011-07-19T19:59:53.43</time>
<name>672</name>
</trkpt>
<trkpt lat="39.043745" lon="-3.828518">
<ele>671.0</ele>
<speed>25.2</speed>
<course>238.6</course>
<desc>Speed 25.2 km/h Distance 4.01 km</desc>
<time>2011-07-19T19:59:54.43</time>
<name>673</name>
</trkpt>
<trkpt lat="39.043713" lon="-3.828585">
<ele>671.0</ele>
<speed>24.9</speed>
<course>235.3</course>
<desc>Speed 24.9 km/h Distance 4.02 km</desc>
<time>2011-07-19T19:59:55.45</time>
<name>674</name>
</trkpt>
<trkpt lat="39.043678" lon="-3.828650">
<ele>671.0</ele>
<speed>24.7</speed>
<course>234.6</course>
<desc>Speed 24.7 km/h Distance 4.02 km</desc>
<time>2011-07-19T19:59:56.43</time>
<name>675</name>
</trkpt>
<trkpt lat="39.043643" lon="-3.828713">
<ele>671.0</ele>
<speed>24.9</speed>
<course>235.3</course>
<desc>Speed 24.9 km/h Distance 4.03 km</desc>
<time>2011-07-19T19:59:57.43</time>
<name>676</name>
</trkpt>
<trkpt lat="39.043608" lon="-3.828778">
<ele>671.0</ele>
<speed>25.2</speed>
<course>235.3</course>
<desc>Speed 25.2 km/h Distance 4.04 km</desc>
<time>2011-07-19T19:59:58.43</time>
<name>677</name>
</trkpt>
<trkpt lat="39.043573" lon="-3.828843">
<ele>671.0</ele>
<speed>25.2</speed>
<course>233.3</course>
<desc>Speed 25.2 km/h Distance 4.04 km</desc>
<time>2011-07-19T19:59:59.43</time>
<name>678</name>
</trkpt>
<trkpt lat="39.043537" lon="-3.828907">
<ele>671.0</ele>
<speed>25.2</speed>
<course>233.3</course>
<desc>Speed 25.2 km/h Distance 4.05 km</desc>
<time>2011-07-19T20:00:00.43</time>
<name>679</name>
</trkpt>
<trkpt lat="39.043500" lon="-3.828970">
<ele>671.0</ele>
<speed>25.1</speed>
<course>234.6</course>
<desc>Speed 25.1 km/h Distance 4.06 km</desc>
<time>2011-07-19T20:00:01.43</time>
<name>680</name>
</trkpt>
<trkpt lat="39.043465" lon="-3.829033">
<ele>670.5</ele>
<speed>25.1</speed>
<course>229.4</course>
<desc>Speed 25.1 km/h Distance 4.06 km</desc>
<time>2011-07-19T20:00:02.43</time>
<name>681</name>
</trkpt>
<trkpt lat="39.043425" lon="-3.829093">
<ele>670.5</ele>
<speed>25.0</speed>
<course>228.6</course>
<desc>Speed 25.0 km/h Distance 4.07 km</desc>
<time>2011-07-19T20:00:03.43</time>
<name>682</name>
</trkpt>
<trkpt lat="39.043385" lon="-3.829152">
<ele>670.5</ele>
<speed>25.1</speed>
<course>230.6</course>
<desc>Speed 25.1 km/h Distance 4.08 km</desc>
<time>2011-07-19T20:00:04.43</time>
<name>683</name>
</trkpt>
<trkpt lat="39.043347" lon="-3.829212">
<ele>670.5</ele>
<speed>25.2</speed>
<course>230.6</course>
<desc>Speed 25.2 km/h Distance 4.08 km</desc>
<time>2011-07-19T20:00:05.43</time>
<name>684</name>
</trkpt>
<trkpt lat="39.043308" lon="-3.829272">
<ele>670.5</ele>
<speed>25.6</speed>
<course>229.8</course>
<desc>Speed 25.6 km/h Distance 4.09 km</desc>
<time>2011-07-19T20:00:06.43</time>
<name>685</name>
</trkpt>
<trkpt lat="39.043270" lon="-3.829330">
<ele>671.0</ele>
<speed>25.4</speed>
<course>228.9</course>
<desc>Speed 25.4 km/h Distance 4.10 km</desc>
<time>2011-07-19T20:00:07.44</time>
<name>686</name>
</trkpt>
<trkpt lat="39.043232" lon="-3.829387">
<ele>671.0</ele>
<speed>25.4</speed>
<course>229.8</course>
<desc>Speed 25.4 km/h Distance 4.10 km</desc>
<time>2011-07-19T20:00:08.43</time>
<name>687</name>
</trkpt>
<trkpt lat="39.043193" lon="-3.829445">
<ele>671.0</ele>
<speed>25.8</speed>
<course>231.3</course>
<desc>Speed 25.8 km/h Distance 4.11 km</desc>
<time>2011-07-19T20:00:09.43</time>
<name>688</name>
</trkpt>
<trkpt lat="39.043155" lon="-3.829507">
<ele>671.0</ele>
<speed>26.2</speed>
<course>230.9</course>
<desc>Speed 26.2 km/h Distance 4.12 km</desc>
<time>2011-07-19T20:00:10.43</time>
<name>689</name>
</trkpt>
<trkpt lat="39.043115" lon="-3.829570">
<ele>671.5</ele>
<speed>26.4</speed>
<course>230.1</course>
<desc>Speed 26.4 km/h Distance 4.13 km</desc>
<time>2011-07-19T20:00:11.44</time>
<name>690</name>
</trkpt>
<trkpt lat="39.043075" lon="-3.829632">
<ele>671.5</ele>
<speed>26.4</speed>
<course>235.8</course>
<desc>Speed 26.4 km/h Distance 4.13 km</desc>
<time>2011-07-19T20:00:12.43</time>
<name>691</name>
</trkpt>
<trkpt lat="39.043043" lon="-3.829692">
<ele>671.5</ele>
<speed>23.8</speed>
<course>234.4</course>
<desc>Speed 23.8 km/h Distance 4.14 km</desc>
<time>2011-07-19T20:00:13.43</time>
<name>692</name>
</trkpt>
<trkpt lat="39.043010" lon="-3.829752">
<ele>671.0</ele>
<speed>23.9</speed>
<course>235.2</course>
<desc>Speed 23.9 km/h Distance 4.14 km</desc>
<time>2011-07-19T20:00:14.43</time>
<name>693</name>
</trkpt>
<trkpt lat="39.042977" lon="-3.829813">
<ele>670.5</ele>
<speed>24.0</speed>
<course>237.9</course>
<desc>Speed 24.0 km/h Distance 4.15 km</desc>
<time>2011-07-19T20:00:15.43</time>
<name>694</name>
</trkpt>
<trkpt lat="39.042945" lon="-3.829878">
<ele>670.5</ele>
<speed>24.7</speed>
<course>237.2</course>
<desc>Speed 24.7 km/h Distance 4.16 km</desc>
<time>2011-07-19T20:00:16.43</time>
<name>695</name>
</trkpt>
<trkpt lat="39.042913" lon="-3.829942">
<ele>670.5</ele>
<speed>24.9</speed>
<course>233.8</course>
<desc>Speed 24.9 km/h Distance 4.16 km</desc>
<time>2011-07-19T20:00:17.43</time>
<name>696</name>
</trkpt>
<trkpt lat="39.042878" lon="-3.830003">
<ele>670.5</ele>
<speed>24.8</speed>
<course>234.6</course>
<desc>Speed 24.8 km/h Distance 4.17 km</desc>
<time>2011-07-19T20:00:18.43</time>
<name>697</name>
</trkpt>
<trkpt lat="39.042843" lon="-3.830067">
<ele>670.0</ele>
<speed>25.0</speed>
<course>235.9</course>
<desc>Speed 25.0 km/h Distance 4.18 km</desc>
<time>2011-07-19T20:00:19.43</time>
<name>698</name>
</trkpt>
<trkpt lat="39.042808" lon="-3.830133">
<ele>670.0</ele>
<speed>25.5</speed>
<course>237.2</course>
<desc>Speed 25.5 km/h Distance 4.18 km</desc>
<time>2011-07-19T20:00:20.43</time>
<name>699</name>
</trkpt>
<trkpt lat="39.042777" lon="-3.830197">
<ele>670.0</ele>
<speed>25.5</speed>
<course>235.2</course>
<desc>Speed 25.5 km/h Distance 4.19 km</desc>
<time>2011-07-19T20:00:21.43</time>
<name>700</name>
</trkpt>
<trkpt lat="39.042743" lon="-3.830258">
<ele>670.0</ele>
<speed>25.5</speed>
<course>234.6</course>
<desc>Speed 25.5 km/h Distance 4.20 km</desc>
<time>2011-07-19T20:00:22.43</time>
<name>701</name>
</trkpt>
<trkpt lat="39.042708" lon="-3.830322">
<ele>670.5</ele>
<speed>25.5</speed>
<course>235.9</course>
<desc>Speed 25.5 km/h Distance 4.20 km</desc>
<time>2011-07-19T20:00:23.43</time>
<name>702</name>
</trkpt>
<trkpt lat="39.042675" lon="-3.830385">
<ele>671.0</ele>
<speed>25.7</speed>
<course>234.7</course>
<desc>Speed 25.7 km/h Distance 4.21 km</desc>
<time>2011-07-19T20:00:24.43</time>
<name>703</name>
</trkpt>
<trkpt lat="39.042638" lon="-3.830452">
<ele>671.0</ele>
<speed>26.1</speed>
<course>236.6</course>
<desc>Speed 26.1 km/h Distance 4.22 km</desc>
<time>2011-07-19T20:00:25.43</time>
<name>704</name>
</trkpt>
<trkpt lat="39.042603" lon="-3.830520">
<ele>671.0</ele>
<speed>26.3</speed>
<course>234.7</course>
<desc>Speed 26.3 km/h Distance 4.23 km</desc>
<time>2011-07-19T20:00:26.43</time>
<name>705</name>
</trkpt>
<trkpt lat="39.042567" lon="-3.830587">
<ele>671.0</ele>
<speed>25.9</speed>
<course>235.9</course>
<desc>Speed 25.9 km/h Distance 4.23 km</desc>
<time>2011-07-19T20:00:27.43</time>
<name>706</name>
</trkpt>
<trkpt lat="39.042532" lon="-3.830653">
<ele>671.0</ele>
<speed>26.1</speed>
<course>253.0</course>
<desc>Speed 26.1 km/h Distance 4.24 km</desc>
<time>2011-07-19T20:00:28.43</time>
<name>707</name>
</trkpt>
<trkpt lat="39.042515" lon="-3.830723">
<ele>670.5</ele>
<speed>23.5</speed>
<course>271.7</course>
<desc>Speed 23.5 km/h Distance 4.25 km</desc>
<time>2011-07-19T20:00:29.43</time>
<name>708</name>
</trkpt>
<trkpt lat="39.042517" lon="-3.830797">
<ele>670.0</ele>
<speed>23.5</speed>
<course>276.5</course>
<desc>Speed 23.5 km/h Distance 4.25 km</desc>
<time>2011-07-19T20:00:30.43</time>
<name>709</name>
</trkpt>
<trkpt lat="39.042523" lon="-3.830872">
<ele>670.5</ele>
<speed>24.2</speed>
<course>289.8</course>
<desc>Speed 24.2 km/h Distance 4.26 km</desc>
<time>2011-07-19T20:00:31.42</time>
<name>710</name>
</trkpt>
<trkpt lat="39.042543" lon="-3.830943">
<ele>670.0</ele>
<speed>23.7</speed>
<course>293.2</course>
<desc>Speed 23.7 km/h Distance 4.26 km</desc>
<time>2011-07-19T20:00:32.43</time>
<name>711</name>
</trkpt>
<trkpt lat="39.042567" lon="-3.831013">
<ele>669.5</ele>
<speed>23.8</speed>
<course>293.2</course>
<desc>Speed 23.8 km/h Distance 4.27 km</desc>
<time>2011-07-19T20:00:33.43</time>
<name>712</name>
</trkpt>
<trkpt lat="39.042590" lon="-3.831083">
<ele>669.0</ele>
<speed>23.8</speed>
<course>289.8</course>
<desc>Speed 23.8 km/h Distance 4.28 km</desc>
<time>2011-07-19T20:00:34.43</time>
<name>713</name>
</trkpt>
<trkpt lat="39.042610" lon="-3.831155">
<ele>669.5</ele>
<speed>24.0</speed>
<course>291.7</course>
<desc>Speed 24.0 km/h Distance 4.28 km</desc>
<time>2011-07-19T20:00:35.43</time>
<name>714</name>
</trkpt>
<trkpt lat="39.042632" lon="-3.831225">
<ele>669.5</ele>
<speed>24.1</speed>
<course>291.7</course>
<desc>Speed 24.1 km/h Distance 4.29 km</desc>
<time>2011-07-19T20:00:36.43</time>
<name>715</name>
</trkpt>
<trkpt lat="39.042653" lon="-3.831295">
<ele>670.0</ele>
<speed>23.9</speed>
<course>289.8</course>
<desc>Speed 23.9 km/h Distance 4.30 km</desc>
<time>2011-07-19T20:00:37.43</time>
<name>716</name>
</trkpt>
<trkpt lat="39.042673" lon="-3.831367">
<ele>670.5</ele>
<speed>24.0</speed>
<course>288.2</course>
<desc>Speed 24.0 km/h Distance 4.30 km</desc>
<time>2011-07-19T20:00:38.43</time>
<name>717</name>
</trkpt>
<trkpt lat="39.042692" lon="-3.831438">
<ele>671.0</ele>
<speed>23.8</speed>
<course>287.8</course>
<desc>Speed 23.8 km/h Distance 4.31 km</desc>
<time>2011-07-19T20:00:39.43</time>
<name>718</name>
</trkpt>
<trkpt lat="39.042710" lon="-3.831512">
<ele>671.0</ele>
<speed>24.0</speed>
<course>287.5</course>
<desc>Speed 24.0 km/h Distance 4.32 km</desc>
<time>2011-07-19T20:00:40.43</time>
<name>719</name>
</trkpt>
<trkpt lat="39.042728" lon="-3.831587">
<ele>671.5</ele>
<speed>24.3</speed>
<course>302.8</course>
<desc>Speed 24.3 km/h Distance 4.32 km</desc>
<time>2011-07-19T20:00:41.43</time>
<name>720</name>
</trkpt>
<trkpt lat="39.042762" lon="-3.831653">
<ele>671.0</ele>
<speed>24.2</speed>
<course>303.4</course>
<desc>Speed 24.2 km/h Distance 4.33 km</desc>
<time>2011-07-19T20:00:42.43</time>
<name>721</name>
</trkpt>
<trkpt lat="39.042795" lon="-3.831718">
<ele>670.5</ele>
<speed>23.9</speed>
<course>302.8</course>
<desc>Speed 23.9 km/h Distance 4.34 km</desc>
<time>2011-07-19T20:00:43.45</time>
<name>722</name>
</trkpt>
<trkpt lat="39.042828" lon="-3.831785">
<ele>670.5</ele>
<speed>23.8</speed>
<course>303.4</course>
<desc>Speed 23.8 km/h Distance 4.34 km</desc>
<time>2011-07-19T20:00:44.43</time>
<name>723</name>
</trkpt>
<trkpt lat="39.042862" lon="-3.831850">
<ele>670.5</ele>
<speed>23.6</speed>
<course>300.1</course>
<desc>Speed 23.6 km/h Distance 4.35 km</desc>
<time>2011-07-19T20:00:45.43</time>
<name>724</name>
</trkpt>
<trkpt lat="39.042892" lon="-3.831917">
<ele>670.5</ele>
<speed>23.4</speed>
<course>302.1</course>
<desc>Speed 23.4 km/h Distance 4.36 km</desc>
<time>2011-07-19T20:00:46.43</time>
<name>725</name>
</trkpt>
<trkpt lat="39.042923" lon="-3.831982">
<ele>670.0</ele>
<speed>23.3</speed>
<course>298.1</course>
<desc>Speed 23.3 km/h Distance 4.36 km</desc>
<time>2011-07-19T20:00:47.43</time>
<name>726</name>
</trkpt>
<trkpt lat="39.042952" lon="-3.832050">
<ele>670.0</ele>
<speed>23.5</speed>
<course>298.7</course>
<desc>Speed 23.5 km/h Distance 4.37 km</desc>
<time>2011-07-19T20:00:48.43</time>
<name>727</name>
</trkpt>
<trkpt lat="39.042980" lon="-3.832117">
<ele>670.0</ele>
<speed>23.4</speed>
<course>298.7</course>
<desc>Speed 23.4 km/h Distance 4.38 km</desc>
<time>2011-07-19T20:00:49.43</time>
<name>728</name>
</trkpt>
<trkpt lat="39.043008" lon="-3.832183">
<ele>669.5</ele>
<speed>23.6</speed>
<course>296.1</course>
<desc>Speed 23.6 km/h Distance 4.38 km</desc>
<time>2011-07-19T20:00:50.43</time>
<name>729</name>
</trkpt>
<trkpt lat="39.043035" lon="-3.832253">
<ele>669.5</ele>
<speed>23.8</speed>
<course>298.1</course>
<desc>Speed 23.8 km/h Distance 4.39 km</desc>
<time>2011-07-19T20:00:51.43</time>
<name>730</name>
</trkpt>
<trkpt lat="39.043063" lon="-3.832322">
<ele>669.0</ele>
<speed>23.9</speed>
<course>294.2</course>
<desc>Speed 23.9 km/h Distance 4.40 km</desc>
<time>2011-07-19T20:00:52.43</time>
<name>731</name>
</trkpt>
<trkpt lat="39.043088" lon="-3.832393">
<ele>668.5</ele>
<speed>24.0</speed>
<course>293.2</course>
<desc>Speed 24.0 km/h Distance 4.40 km</desc>
<time>2011-07-19T20:00:53.43</time>
<name>732</name>
</trkpt>
<trkpt lat="39.043112" lon="-3.832463">
<ele>668.0</ele>
<speed>23.9</speed>
<course>294.2</course>
<desc>Speed 23.9 km/h Distance 4.41 km</desc>
<time>2011-07-19T20:00:54.43</time>
<name>733</name>
</trkpt>
<trkpt lat="39.043137" lon="-3.832535">
<ele>668.0</ele>
<speed>23.7</speed>
<course>293.7</course>
<desc>Speed 23.7 km/h Distance 4.42 km</desc>
<time>2011-07-19T20:00:55.43</time>
<name>734</name>
</trkpt>
<trkpt lat="39.043160" lon="-3.832603">
<ele>668.0</ele>
<speed>23.5</speed>
<course>294.7</course>
<desc>Speed 23.5 km/h Distance 4.42 km</desc>
<time>2011-07-19T20:00:56.43</time>
<name>735</name>
</trkpt>
<trkpt lat="39.043185" lon="-3.832673">
<ele>668.0</ele>
<speed>23.6</speed>
<course>295.2</course>
<desc>Speed 23.6 km/h Distance 4.43 km</desc>
<time>2011-07-19T20:00:57.42</time>
<name>736</name>
</trkpt>
<trkpt lat="39.043210" lon="-3.832742">
<ele>668.0</ele>
<speed>23.5</speed>
<course>293.2</course>
<desc>Speed 23.5 km/h Distance 4.44 km</desc>
<time>2011-07-19T20:00:58.43</time>
<name>737</name>
</trkpt>
<trkpt lat="39.043233" lon="-3.832812">
<ele>668.0</ele>
<speed>23.7</speed>
<course>293.2</course>
<desc>Speed 23.7 km/h Distance 4.44 km</desc>
<time>2011-07-19T20:00:59.43</time>
<name>738</name>
</trkpt>
<trkpt lat="39.043257" lon="-3.832882">
<ele>668.5</ele>
<speed>23.6</speed>
<course>291.3</course>
<desc>Speed 23.6 km/h Distance 4.45 km</desc>
<time>2011-07-19T20:01:00.43</time>
<name>739</name>
</trkpt>
<trkpt lat="39.043278" lon="-3.832953">
<ele>668.5</ele>
<speed>23.6</speed>
<course>289.3</course>
<desc>Speed 23.6 km/h Distance 4.46 km</desc>
<time>2011-07-19T20:01:01.43</time>
<name>740</name>
</trkpt>
<trkpt lat="39.043298" lon="-3.833027">
<ele>668.5</ele>
<speed>24.3</speed>
<course>290.8</course>
<desc>Speed 24.3 km/h Distance 4.46 km</desc>
<time>2011-07-19T20:01:02.43</time>
<name>741</name>
</trkpt>
<trkpt lat="39.043320" lon="-3.833100">
<ele>668.5</ele>
<speed>24.5</speed>
<course>288.9</course>
<desc>Speed 24.5 km/h Distance 4.47 km</desc>
<time>2011-07-19T20:01:03.43</time>
<name>742</name>
</trkpt>
<trkpt lat="39.043340" lon="-3.833175">
<ele>668.0</ele>
<speed>24.7</speed>
<course>290.4</course>
<desc>Speed 24.7 km/h Distance 4.48 km</desc>
<time>2011-07-19T20:01:04.43</time>
<name>743</name>
</trkpt>
<trkpt lat="39.043362" lon="-3.833250">
<ele>668.5</ele>
<speed>24.4</speed>
<course>291.3</course>
<desc>Speed 24.4 km/h Distance 4.48 km</desc>
<time>2011-07-19T20:01:05.43</time>
<name>744</name>
</trkpt>
<trkpt lat="39.043383" lon="-3.833322">
<ele>669.0</ele>
<speed>24.2</speed>
<course>307.2</course>
<desc>Speed 24.2 km/h Distance 4.49 km</desc>
<time>2011-07-19T20:01:06.43</time>
<name>745</name>
</trkpt>
<trkpt lat="39.043422" lon="-3.833387">
<ele>668.5</ele>
<speed>24.6</speed>
<course>311.1</course>
<desc>Speed 24.6 km/h Distance 4.50 km</desc>
<time>2011-07-19T20:01:07.43</time>
<name>746</name>
</trkpt>
<trkpt lat="39.043460" lon="-3.833443">
<ele>669.0</ele>
<speed>22.9</speed>
<course>320.3</course>
<desc>Speed 22.9 km/h Distance 4.51 km</desc>
<time>2011-07-19T20:01:08.43</time>
<name>747</name>
</trkpt>
<trkpt lat="39.043508" lon="-3.833495">
<ele>669.0</ele>
<speed>24.0</speed>
<course>320.2</course>
<desc>Speed 24.0 km/h Distance 4.51 km</desc>
<time>2011-07-19T20:01:09.43</time>
<name>748</name>
</trkpt>
<trkpt lat="39.043555" lon="-3.833545">
<ele>669.0</ele>
<speed>24.0</speed>
<course>319.3</course>
<desc>Speed 24.0 km/h Distance 4.52 km</desc>
<time>2011-07-19T20:01:10.43</time>
<name>749</name>
</trkpt>
<trkpt lat="39.043602" lon="-3.833597">
<ele>669.0</ele>
<speed>23.7</speed>
<course>319.2</course>
<desc>Speed 23.7 km/h Distance 4.53 km</desc>
<time>2011-07-19T20:01:11.43</time>
<name>750</name>
</trkpt>
<trkpt lat="39.043647" lon="-3.833647">
<ele>669.0</ele>
<speed>23.4</speed>
<course>318.3</course>
<desc>Speed 23.4 km/h Distance 4.53 km</desc>
<time>2011-07-19T20:01:12.43</time>
<name>751</name>
</trkpt>
<trkpt lat="39.043692" lon="-3.833698">
<ele>669.0</ele>
<speed>23.4</speed>
<course>318.3</course>
<desc>Speed 23.4 km/h Distance 4.54 km</desc>
<time>2011-07-19T20:01:13.43</time>
<name>752</name>
</trkpt>
<trkpt lat="39.043737" lon="-3.833750">
<ele>669.0</ele>
<speed>23.2</speed>
<course>317.2</course>
<desc>Speed 23.2 km/h Distance 4.55 km</desc>
<time>2011-07-19T20:01:14.43</time>
<name>753</name>
</trkpt>
<trkpt lat="39.043780" lon="-3.833802">
<ele>669.0</ele>
<speed>23.3</speed>
<course>317.2</course>
<desc>Speed 23.3 km/h Distance 4.55 km</desc>
<time>2011-07-19T20:01:15.43</time>
<name>754</name>
</trkpt>
<trkpt lat="39.043823" lon="-3.833853">
<ele>669.0</ele>
<speed>23.1</speed>
<course>319.1</course>
<desc>Speed 23.1 km/h Distance 4.56 km</desc>
<time>2011-07-19T20:01:16.43</time>
<name>755</name>
</trkpt>
<trkpt lat="39.043867" lon="-3.833902">
<ele>669.5</ele>
<speed>22.3</speed>
<course>319.1</course>
<desc>Speed 22.3 km/h Distance 4.57 km</desc>
<time>2011-07-19T20:01:17.43</time>
<name>756</name>
</trkpt>
<trkpt lat="39.043910" lon="-3.833950">
<ele>670.0</ele>
<speed>22.1</speed>
<course>318.0</course>
<desc>Speed 22.1 km/h Distance 4.57 km</desc>
<time>2011-07-19T20:01:18.42</time>
<name>757</name>
</trkpt>
<trkpt lat="39.043952" lon="-3.833998">
<ele>670.0</ele>
<speed>21.7</speed>
<course>319.0</course>
<desc>Speed 21.7 km/h Distance 4.58 km</desc>
<time>2011-07-19T20:01:19.42</time>
<name>758</name>
</trkpt>
<trkpt lat="39.043993" lon="-3.834045">
<ele>670.5</ele>
<speed>21.6</speed>
<course>318.0</course>
<desc>Speed 21.6 km/h Distance 4.58 km</desc>
<time>2011-07-19T20:01:20.42</time>
<name>759</name>
</trkpt>
<trkpt lat="39.044035" lon="-3.834093">
<ele>671.0</ele>
<speed>21.5</speed>
<course>317.0</course>
<desc>Speed 21.5 km/h Distance 4.59 km</desc>
<time>2011-07-19T20:01:21.42</time>
<name>760</name>
</trkpt>
<trkpt lat="39.044077" lon="-3.834143">
<ele>671.0</ele>
<speed>22.1</speed>
<course>311.1</course>
<desc>Speed 22.1 km/h Distance 4.60 km</desc>
<time>2011-07-19T20:01:22.42</time>
<name>761</name>
</trkpt>
<trkpt lat="39.044115" lon="-3.834200">
<ele>671.0</ele>
<speed>23.1</speed>
<course>297.8</course>
<desc>Speed 23.1 km/h Distance 4.60 km</desc>
<time>2011-07-19T20:01:23.43</time>
<name>762</name>
</trkpt>
<trkpt lat="39.044142" lon="-3.834265">
<ele>670.5</ele>
<speed>22.8</speed>
<course>295.2</course>
<desc>Speed 22.8 km/h Distance 4.61 km</desc>
<time>2011-07-19T20:01:24.42</time>
<name>763</name>
</trkpt>
<trkpt lat="39.044167" lon="-3.834333">
<ele>670.0</ele>
<speed>23.3</speed>
<course>293.2</course>
<desc>Speed 23.3 km/h Distance 4.62 km</desc>
<time>2011-07-19T20:01:25.42</time>
<name>764</name>
</trkpt>
<trkpt lat="39.044190" lon="-3.834403">
<ele>670.0</ele>
<speed>23.3</speed>
<course>296.9</course>
<desc>Speed 23.3 km/h Distance 4.62 km</desc>
<time>2011-07-19T20:01:26.42</time>
<name>765</name>
</trkpt>
<trkpt lat="39.044215" lon="-3.834467">
<ele>670.0</ele>
<speed>22.5</speed>
<course>296.9</course>
<desc>Speed 22.5 km/h Distance 4.63 km</desc>
<time>2011-07-19T20:01:27.42</time>
<name>766</name>
</trkpt>
<trkpt lat="39.044240" lon="-3.834530">
<ele>670.5</ele>
<speed>21.9</speed>
<course>296.0</course>
<desc>Speed 21.9 km/h Distance 4.63 km</desc>
<time>2011-07-19T20:01:28.42</time>
<name>767</name>
</trkpt>
<trkpt lat="39.044263" lon="-3.834592">
<ele>671.0</ele>
<speed>21.5</speed>
<course>294.8</course>
<desc>Speed 21.5 km/h Distance 4.64 km</desc>
<time>2011-07-19T20:01:29.42</time>
<name>768</name>
</trkpt>
<trkpt lat="39.044287" lon="-3.834657">
<ele>671.5</ele>
<speed>21.8</speed>
<course>293.8</course>
<desc>Speed 21.8 km/h Distance 4.65 km</desc>
<time>2011-07-19T20:01:30.42</time>
<name>769</name>
</trkpt>
<trkpt lat="39.044308" lon="-3.834720">
<ele>671.5</ele>
<speed>21.9</speed>
<course>295.4</course>
<desc>Speed 21.9 km/h Distance 4.65 km</desc>
<time>2011-07-19T20:01:31.42</time>
<name>770</name>
</trkpt>
<trkpt lat="39.044332" lon="-3.834783">
<ele>672.0</ele>
<speed>21.5</speed>
<course>293.8</course>
<desc>Speed 21.5 km/h Distance 4.66 km</desc>
<time>2011-07-19T20:01:32.42</time>
<name>771</name>
</trkpt>
<trkpt lat="39.044353" lon="-3.834847">
<ele>672.0</ele>
<speed>21.3</speed>
<course>292.7</course>
<desc>Speed 21.3 km/h Distance 4.67 km</desc>
<time>2011-07-19T20:01:33.42</time>
<name>772</name>
</trkpt>
<trkpt lat="39.044373" lon="-3.834908">
<ele>672.0</ele>
<speed>21.0</speed>
<course>292.7</course>
<desc>Speed 21.0 km/h Distance 4.67 km</desc>
<time>2011-07-19T20:01:34.42</time>
<name>773</name>
</trkpt>
<trkpt lat="39.044393" lon="-3.834970">
<ele>671.5</ele>
<speed>20.4</speed>
<course>290.2</course>
<desc>Speed 20.4 km/h Distance 4.68 km</desc>
<time>2011-07-19T20:01:35.42</time>
<name>774</name>
</trkpt>
<trkpt lat="39.044410" lon="-3.835028">
<ele>671.5</ele>
<speed>19.3</speed>
<course>287.3</course>
<desc>Speed 19.3 km/h Distance 4.68 km</desc>
<time>2011-07-19T20:01:36.42</time>
<name>775</name>
</trkpt>
<trkpt lat="39.044423" lon="-3.835083">
<ele>671.0</ele>
<speed>17.7</speed>
<course>288.9</course>
<desc>Speed 17.7 km/h Distance 4.69 km</desc>
<time>2011-07-19T20:01:37.42</time>
<name>776</name>
</trkpt>
<trkpt lat="39.044437" lon="-3.835133">
<ele>670.5</ele>
<speed>16.7</speed>
<course>286.9</course>
<desc>Speed 16.7 km/h Distance 4.69 km</desc>
<time>2011-07-19T20:01:38.42</time>
<name>777</name>
</trkpt>
<trkpt lat="39.044450" lon="-3.835190">
<ele>670.0</ele>
<speed>18.5</speed>
<course>287.8</course>
<desc>Speed 18.5 km/h Distance 4.70 km</desc>
<time>2011-07-19T20:01:39.42</time>
<name>778</name>
</trkpt>
<trkpt lat="39.044465" lon="-3.835250">
<ele>669.5</ele>
<speed>19.5</speed>
<course>287.4</course>
<desc>Speed 19.5 km/h Distance 4.70 km</desc>
<time>2011-07-19T20:01:40.42</time>
<name>779</name>
</trkpt>
<trkpt lat="39.044480" lon="-3.835312">
<ele>669.5</ele>
<speed>20.2</speed>
<course>285.2</course>
<desc>Speed 20.2 km/h Distance 4.71 km</desc>
<time>2011-07-19T20:01:41.42</time>
<name>780</name>
</trkpt>
<trkpt lat="39.044493" lon="-3.835375">
<ele>669.0</ele>
<speed>20.3</speed>
<course>287.4</course>
<desc>Speed 20.3 km/h Distance 4.71 km</desc>
<time>2011-07-19T20:01:42.42</time>
<name>781</name>
</trkpt>
<trkpt lat="39.044508" lon="-3.835437">
<ele>669.5</ele>
<speed>20.2</speed>
<course>287.8</course>
<desc>Speed 20.2 km/h Distance 4.72 km</desc>
<time>2011-07-19T20:01:43.44</time>
<name>782</name>
</trkpt>
<trkpt lat="39.044523" lon="-3.835497">
<ele>670.0</ele>
<speed>19.7</speed>
<course>287.8</course>
<desc>Speed 19.7 km/h Distance 4.72 km</desc>
<time>2011-07-19T20:01:44.42</time>
<name>783</name>
</trkpt>
<trkpt lat="39.044538" lon="-3.835557">
<ele>670.5</ele>
<speed>19.2</speed>
<course>299.6</course>
<desc>Speed 19.2 km/h Distance 4.73 km</desc>
<time>2011-07-19T20:01:45.42</time>
<name>784</name>
</trkpt>
<trkpt lat="39.044563" lon="-3.835613">
<ele>670.5</ele>
<speed>19.9</speed>
<course>297.9</course>
<desc>Speed 19.9 km/h Distance 4.74 km</desc>
<time>2011-07-19T20:01:46.42</time>
<name>785</name>
</trkpt>
<trkpt lat="39.044587" lon="-3.835670">
<ele>670.5</ele>
<speed>20.0</speed>
<course>297.2</course>
<desc>Speed 20.0 km/h Distance 4.74 km</desc>
<time>2011-07-19T20:01:47.42</time>
<name>786</name>
</trkpt>
<trkpt lat="39.044610" lon="-3.835728">
<ele>670.0</ele>
<speed>20.0</speed>
<course>294.9</course>
<desc>Speed 20.0 km/h Distance 4.75 km</desc>
<time>2011-07-19T20:01:48.42</time>
<name>787</name>
</trkpt>
<trkpt lat="39.044632" lon="-3.835788">
<ele>669.5</ele>
<speed>20.7</speed>
<course>294.3</course>
<desc>Speed 20.7 km/h Distance 4.75 km</desc>
<time>2011-07-19T20:01:49.43</time>
<name>788</name>
</trkpt>
<trkpt lat="39.044653" lon="-3.835850">
<ele>669.5</ele>
<speed>20.9</speed>
<course>296.0</course>
<desc>Speed 20.9 km/h Distance 4.76 km</desc>
<time>2011-07-19T20:01:50.42</time>
<name>789</name>
</trkpt>
<trkpt lat="39.044677" lon="-3.835912">
<ele>669.5</ele>
<speed>20.9</speed>
<course>294.9</course>
<desc>Speed 20.9 km/h Distance 4.76 km</desc>
<time>2011-07-19T20:01:51.42</time>
<name>790</name>
</trkpt>
<trkpt lat="39.044698" lon="-3.835972">
<ele>670.0</ele>
<speed>20.7</speed>
<course>294.9</course>
<desc>Speed 20.7 km/h Distance 4.77 km</desc>
<time>2011-07-19T20:01:52.42</time>
<name>791</name>
</trkpt>
<trkpt lat="39.044720" lon="-3.836032">
<ele>670.5</ele>
<speed>20.3</speed>
<course>294.9</course>
<desc>Speed 20.3 km/h Distance 4.78 km</desc>
<time>2011-07-19T20:01:53.42</time>
<name>792</name>
</trkpt>
<trkpt lat="39.044742" lon="-3.836092">
<ele>670.5</ele>
<speed>20.6</speed>
<course>292.7</course>
<desc>Speed 20.6 km/h Distance 4.78 km</desc>
<time>2011-07-19T20:01:54.42</time>
<name>793</name>
</trkpt>
<trkpt lat="39.044762" lon="-3.836153">
<ele>670.5</ele>
<speed>20.6</speed>
<course>292.7</course>
<desc>Speed 20.6 km/h Distance 4.79 km</desc>
<time>2011-07-19T20:01:55.42</time>
<name>794</name>
</trkpt>
<trkpt lat="39.044782" lon="-3.836215">
<ele>670.5</ele>
<speed>21.0</speed>
<course>288.7</course>
<desc>Speed 21.0 km/h Distance 4.79 km</desc>
<time>2011-07-19T20:01:56.42</time>
<name>795</name>
</trkpt>
<trkpt lat="39.044798" lon="-3.836278">
<ele>670.5</ele>
<speed>20.7</speed>
<course>290.9</course>
<desc>Speed 20.7 km/h Distance 4.80 km</desc>
<time>2011-07-19T20:01:57.43</time>
<name>796</name>
</trkpt>
<trkpt lat="39.044817" lon="-3.836340">
<ele>670.5</ele>
<speed>20.5</speed>
<course>292.7</course>
<desc>Speed 20.5 km/h Distance 4.80 km</desc>
<time>2011-07-19T20:01:58.42</time>
<name>797</name>
</trkpt>
<trkpt lat="39.044837" lon="-3.836402">
<ele>671.0</ele>
<speed>20.4</speed>
<course>290.9</course>
<desc>Speed 20.4 km/h Distance 4.81 km</desc>
<time>2011-07-19T20:01:59.42</time>
<name>798</name>
</trkpt>
<trkpt lat="39.044855" lon="-3.836463">
<ele>671.0</ele>
<speed>20.4</speed>
<course>289.2</course>
<desc>Speed 20.4 km/h Distance 4.82 km</desc>
<time>2011-07-19T20:02:00.42</time>
<name>799</name>
</trkpt>
<trkpt lat="39.044872" lon="-3.836525">
<ele>671.0</ele>
<speed>20.6</speed>
<course>290.4</course>
<desc>Speed 20.6 km/h Distance 4.82 km</desc>
<time>2011-07-19T20:02:01.42</time>
<name>800</name>
</trkpt>
<trkpt lat="39.044890" lon="-3.836588">
<ele>671.0</ele>
<speed>20.7</speed>
<course>290.4</course>
<desc>Speed 20.7 km/h Distance 4.83 km</desc>
<time>2011-07-19T20:02:02.42</time>
<name>801</name>
</trkpt>
<trkpt lat="39.044908" lon="-3.836652">
<ele>671.5</ele>
<speed>20.8</speed>
<course>290.4</course>
<desc>Speed 20.8 km/h Distance 4.83 km</desc>
<time>2011-07-19T20:02:03.42</time>
<name>802</name>
</trkpt>
<trkpt lat="39.044927" lon="-3.836715">
<ele>671.0</ele>
<speed>20.9</speed>
<course>288.3</course>
<desc>Speed 20.9 km/h Distance 4.84 km</desc>
<time>2011-07-19T20:02:04.42</time>
<name>803</name>
</trkpt>
<trkpt lat="39.044943" lon="-3.836780">
<ele>671.0</ele>
<speed>21.2</speed>
<course>286.5</course>
<desc>Speed 21.2 km/h Distance 4.85 km</desc>
<time>2011-07-19T20:02:05.42</time>
<name>804</name>
</trkpt>
<trkpt lat="39.044958" lon="-3.836845">
<ele>671.0</ele>
<speed>21.3</speed>
<course>287.8</course>
<desc>Speed 21.3 km/h Distance 4.85 km</desc>
<time>2011-07-19T20:02:06.42</time>
<name>805</name>
</trkpt>
<trkpt lat="39.044975" lon="-3.836912">
<ele>671.0</ele>
<speed>21.6</speed>
<course>287.8</course>
<desc>Speed 21.6 km/h Distance 4.86 km</desc>
<time>2011-07-19T20:02:07.42</time>
<name>806</name>
</trkpt>
<trkpt lat="39.044992" lon="-3.836978">
<ele>671.5</ele>
<speed>21.7</speed>
<course>287.4</course>
<desc>Speed 21.7 km/h Distance 4.86 km</desc>
<time>2011-07-19T20:02:08.42</time>
<name>807</name>
</trkpt>
<trkpt lat="39.045008" lon="-3.837047">
<ele>671.5</ele>
<speed>21.9</speed>
<course>285.8</course>
<desc>Speed 21.9 km/h Distance 4.87 km</desc>
<time>2011-07-19T20:02:09.42</time>
<name>808</name>
</trkpt>
<trkpt lat="39.045023" lon="-3.837115">
<ele>671.5</ele>
<speed>22.0</speed>
<course>285.8</course>
<desc>Speed 22.0 km/h Distance 4.88 km</desc>
<time>2011-07-19T20:02:10.42</time>
<name>809</name>
</trkpt>
<trkpt lat="39.045038" lon="-3.837183">
<ele>671.5</ele>
<speed>22.0</speed>
<course>284.1</course>
<desc>Speed 22.0 km/h Distance 4.88 km</desc>
<time>2011-07-19T20:02:11.42</time>
<name>810</name>
</trkpt>
<trkpt lat="39.045052" lon="-3.837252">
<ele>671.5</ele>
<speed>22.1</speed>
<course>285.8</course>
<desc>Speed 22.1 km/h Distance 4.89 km</desc>
<time>2011-07-19T20:02:12.42</time>
<name>811</name>
</trkpt>
<trkpt lat="39.045067" lon="-3.837320">
<ele>671.5</ele>
<speed>22.2</speed>
<course>287.0</course>
<desc>Speed 22.2 km/h Distance 4.89 km</desc>
<time>2011-07-19T20:02:13.42</time>
<name>812</name>
</trkpt>
<trkpt lat="39.045083" lon="-3.837390">
<ele>671.5</ele>
<speed>22.4</speed>
<course>285.1</course>
<desc>Speed 22.4 km/h Distance 4.90 km</desc>
<time>2011-07-19T20:02:14.42</time>
<name>813</name>
</trkpt>
<trkpt lat="39.045098" lon="-3.837462">
<ele>672.0</ele>
<speed>22.7</speed>
<course>295.2</course>
<desc>Speed 22.7 km/h Distance 4.91 km</desc>
<time>2011-07-19T20:02:15.42</time>
<name>814</name>
</trkpt>
<trkpt lat="39.045123" lon="-3.837530">
<ele>671.5</ele>
<speed>23.1</speed>
<course>295.8</course>
<desc>Speed 23.1 km/h Distance 4.91 km</desc>
<time>2011-07-19T20:02:16.42</time>
<name>815</name>
</trkpt>
<trkpt lat="39.045148" lon="-3.837597">
<ele>671.5</ele>
<speed>23.1</speed>
<course>295.2</course>
<desc>Speed 23.1 km/h Distance 4.92 km</desc>
<time>2011-07-19T20:02:17.42</time>
<name>816</name>
</trkpt>
<trkpt lat="39.045173" lon="-3.837665">
<ele>671.0</ele>
<speed>23.1</speed>
<course>294.7</course>
<desc>Speed 23.1 km/h Distance 4.93 km</desc>
<time>2011-07-19T20:02:18.42</time>
<name>817</name>
</trkpt>
<trkpt lat="39.045198" lon="-3.837735">
<ele>671.0</ele>
<speed>23.7</speed>
<course>294.7</course>
<desc>Speed 23.7 km/h Distance 4.93 km</desc>
<time>2011-07-19T20:02:19.42</time>
<name>818</name>
</trkpt>
<trkpt lat="39.045223" lon="-3.837805">
<ele>670.5</ele>
<speed>23.8</speed>
<course>292.3</course>
<desc>Speed 23.8 km/h Distance 4.94 km</desc>
<time>2011-07-19T20:02:20.42</time>
<name>819</name>
</trkpt>
<trkpt lat="39.045247" lon="-3.837878">
<ele>670.5</ele>
<speed>24.2</speed>
<course>292.7</course>
<desc>Speed 24.2 km/h Distance 4.95 km</desc>
<time>2011-07-19T20:02:21.42</time>
<name>820</name>
</trkpt>
<trkpt lat="39.045270" lon="-3.837950">
<ele>670.0</ele>
<speed>24.2</speed>
<course>292.3</course>
<desc>Speed 24.2 km/h Distance 4.95 km</desc>
<time>2011-07-19T20:02:22.42</time>
<name>821</name>
</trkpt>
<trkpt lat="39.045293" lon="-3.838023">
<ele>670.0</ele>
<speed>24.3</speed>
<course>292.3</course>
<desc>Speed 24.3 km/h Distance 4.96 km</desc>
<time>2011-07-19T20:02:23.42</time>
<name>822</name>
</trkpt>
<trkpt lat="39.045317" lon="-3.838097">
<ele>669.5</ele>
<speed>24.2</speed>
<course>292.7</course>
<desc>Speed 24.2 km/h Distance 4.97 km</desc>
<time>2011-07-19T20:02:24.41</time>
<name>823</name>
</trkpt>
<trkpt lat="39.045340" lon="-3.838168">
<ele>669.0</ele>
<speed>23.8</speed>
<course>291.7</course>
<desc>Speed 23.8 km/h Distance 4.97 km</desc>
<time>2011-07-19T20:02:25.42</time>
<name>824</name>
</trkpt>
<trkpt lat="39.045362" lon="-3.838238">
<ele>669.0</ele>
<speed>23.3</speed>
<course>290.6</course>
<desc>Speed 23.3 km/h Distance 4.98 km</desc>
<time>2011-07-19T20:02:26.42</time>
<name>825</name>
</trkpt>
<trkpt lat="39.045382" lon="-3.838307">
<ele>669.0</ele>
<speed>22.8</speed>
<course>290.6</course>
<desc>Speed 22.8 km/h Distance 4.99 km</desc>
<time>2011-07-19T20:02:27.43</time>
<name>826</name>
</trkpt>
<trkpt lat="39.045402" lon="-3.838375">
<ele>669.0</ele>
<speed>22.6</speed>
<course>288.6</course>
<desc>Speed 22.6 km/h Distance 4.99 km</desc>
<time>2011-07-19T20:02:28.42</time>
<name>827</name>
</trkpt>
<trkpt lat="39.045420" lon="-3.838445">
<ele>669.0</ele>
<speed>22.8</speed>
<course>290.7</course>
<desc>Speed 22.8 km/h Distance 5.00 km</desc>
<time>2011-07-19T20:02:29.42</time>
<name>828</name>
</trkpt>
<trkpt lat="39.045440" lon="-3.838513">
<ele>668.5</ele>
<speed>22.9</speed>
<course>288.2</course>
<desc>Speed 22.9 km/h Distance 5.01 km</desc>
<time>2011-07-19T20:02:30.42</time>
<name>829</name>
</trkpt>
<trkpt lat="39.045458" lon="-3.838585">
<ele>668.5</ele>
<speed>23.0</speed>
<course>288.2</course>
<desc>Speed 23.0 km/h Distance 5.01 km</desc>
<time>2011-07-19T20:02:31.42</time>
<name>830</name>
</trkpt>
<trkpt lat="39.045477" lon="-3.838657">
<ele>668.0</ele>
<speed>23.4</speed>
<course>288.2</course>
<desc>Speed 23.4 km/h Distance 5.02 km</desc>
<time>2011-07-19T20:02:32.42</time>
<name>831</name>
</trkpt>
<trkpt lat="39.045495" lon="-3.838728">
<ele>667.5</ele>
<speed>23.7</speed>
<course>286.3</course>
<desc>Speed 23.7 km/h Distance 5.02 km</desc>
<time>2011-07-19T20:02:33.42</time>
<name>832</name>
</trkpt>
<trkpt lat="39.045512" lon="-3.838802">
<ele>667.5</ele>
<speed>23.8</speed>
<course>287.8</course>
<desc>Speed 23.8 km/h Distance 5.03 km</desc>
<time>2011-07-19T20:02:34.42</time>
<name>833</name>
</trkpt>
<trkpt lat="39.045530" lon="-3.838875">
<ele>667.5</ele>
<speed>24.0</speed>
<course>286.0</course>
<desc>Speed 24.0 km/h Distance 5.04 km</desc>
<time>2011-07-19T20:02:35.42</time>
<name>834</name>
</trkpt>
<trkpt lat="39.045547" lon="-3.838950">
<ele>667.0</ele>
<speed>24.1</speed>
<course>286.0</course>
<desc>Speed 24.1 km/h Distance 5.04 km</desc>
<time>2011-07-19T20:02:36.42</time>
<name>835</name>
</trkpt>
<trkpt lat="39.045563" lon="-3.839025">
<ele>667.0</ele>
<speed>24.3</speed>
<course>282.9</course>
<desc>Speed 24.3 km/h Distance 5.05 km</desc>
<time>2011-07-19T20:02:37.42</time>
<name>836</name>
</trkpt>
<trkpt lat="39.045577" lon="-3.839100">
<ele>668.0</ele>
<speed>24.4</speed>
<course>286.0</course>
<desc>Speed 24.4 km/h Distance 5.06 km</desc>
<time>2011-07-19T20:02:38.42</time>
<name>837</name>
</trkpt>
<trkpt lat="39.045593" lon="-3.839175">
<ele>668.5</ele>
<speed>24.2</speed>
<course>284.4</course>
<desc>Speed 24.2 km/h Distance 5.06 km</desc>
<time>2011-07-19T20:02:39.42</time>
<name>838</name>
</trkpt>
<trkpt lat="39.045608" lon="-3.839250">
<ele>668.5</ele>
<speed>24.2</speed>
<course>284.1</course>
<desc>Speed 24.2 km/h Distance 5.07 km</desc>
<time>2011-07-19T20:02:40.42</time>
<name>839</name>
</trkpt>
<trkpt lat="39.045623" lon="-3.839327">
<ele>668.5</ele>
<speed>24.4</speed>
<course>282.9</course>
<desc>Speed 24.4 km/h Distance 5.08 km</desc>
<time>2011-07-19T20:02:41.42</time>
<name>840</name>
</trkpt>
<trkpt lat="39.045637" lon="-3.839402">
<ele>668.5</ele>
<speed>24.4</speed>
<course>284.1</course>
<desc>Speed 24.4 km/h Distance 5.09 km</desc>
<time>2011-07-19T20:02:42.42</time>
<name>841</name>
</trkpt>
<trkpt lat="39.045652" lon="-3.839478">
<ele>668.5</ele>
<speed>24.2</speed>
<course>283.2</course>
<desc>Speed 24.2 km/h Distance 5.09 km</desc>
<time>2011-07-19T20:02:43.44</time>
<name>842</name>
</trkpt>
<trkpt lat="39.045665" lon="-3.839552">
<ele>668.0</ele>
<speed>23.8</speed>
<course>282.9</course>
<desc>Speed 23.8 km/h Distance 5.10 km</desc>
<time>2011-07-19T20:02:44.42</time>
<name>843</name>
</trkpt>
<trkpt lat="39.045678" lon="-3.839627">
<ele>668.5</ele>
<speed>23.6</speed>
<course>283.5</course>
<desc>Speed 23.6 km/h Distance 5.11 km</desc>
<time>2011-07-19T20:02:45.42</time>
<name>844</name>
</trkpt>
<trkpt lat="39.045692" lon="-3.839698">
<ele>669.0</ele>
<speed>23.3</speed>
<course>281.3</course>
<desc>Speed 23.3 km/h Distance 5.11 km</desc>
<time>2011-07-19T20:02:46.42</time>
<name>845</name>
</trkpt>
<trkpt lat="39.045703" lon="-3.839773">
<ele>669.0</ele>
<speed>23.3</speed>
<course>280.0</course>
<desc>Speed 23.3 km/h Distance 5.12 km</desc>
<time>2011-07-19T20:02:47.42</time>
<name>846</name>
</trkpt>
<trkpt lat="39.045713" lon="-3.839847">
<ele>669.0</ele>
<speed>23.4</speed>
<course>281.6</course>
<desc>Speed 23.4 km/h Distance 5.12 km</desc>
<time>2011-07-19T20:02:48.42</time>
<name>847</name>
</trkpt>
<trkpt lat="39.045725" lon="-3.839920">
<ele>669.0</ele>
<speed>23.4</speed>
<course>278.1</course>
<desc>Speed 23.4 km/h Distance 5.13 km</desc>
<time>2011-07-19T20:02:49.42</time>
<name>848</name>
</trkpt>
<trkpt lat="39.045733" lon="-3.839995">
<ele>669.0</ele>
<speed>23.5</speed>
<course>278.1</course>
<desc>Speed 23.5 km/h Distance 5.14 km</desc>
<time>2011-07-19T20:02:50.42</time>
<name>849</name>
</trkpt>
<trkpt lat="39.045742" lon="-3.840070">
<ele>669.0</ele>
<speed>23.7</speed>
<course>279.7</course>
<desc>Speed 23.7 km/h Distance 5.14 km</desc>
<time>2011-07-19T20:02:51.42</time>
<name>850</name>
</trkpt>
<trkpt lat="39.045752" lon="-3.840145">
<ele>669.0</ele>
<speed>23.7</speed>
<course>276.5</course>
<desc>Speed 23.7 km/h Distance 5.15 km</desc>
<time>2011-07-19T20:02:52.42</time>
<name>851</name>
</trkpt>
<trkpt lat="39.045758" lon="-3.840220">
<ele>668.5</ele>
<speed>23.4</speed>
<course>278.3</course>
<desc>Speed 23.4 km/h Distance 5.16 km</desc>
<time>2011-07-19T20:02:53.42</time>
<name>852</name>
</trkpt>
<trkpt lat="39.045767" lon="-3.840293">
<ele>668.5</ele>
<speed>23.4</speed>
<course>276.5</course>
<desc>Speed 23.4 km/h Distance 5.16 km</desc>
<time>2011-07-19T20:02:54.42</time>
<name>853</name>
</trkpt>
<trkpt lat="39.045773" lon="-3.840368">
<ele>668.5</ele>
<speed>23.5</speed>
<course>276.7</course>
<desc>Speed 23.5 km/h Distance 5.17 km</desc>
<time>2011-07-19T20:02:55.42</time>
<name>854</name>
</trkpt>
<trkpt lat="39.045780" lon="-3.840442">
<ele>668.5</ele>
<speed>23.5</speed>
<course>278.1</course>
<desc>Speed 23.5 km/h Distance 5.18 km</desc>
<time>2011-07-19T20:02:56.42</time>
<name>855</name>
</trkpt>
<trkpt lat="39.045788" lon="-3.840517">
<ele>668.5</ele>
<speed>23.6</speed>
<course>276.5</course>
<desc>Speed 23.6 km/h Distance 5.18 km</desc>
<time>2011-07-19T20:02:57.42</time>
<name>856</name>
</trkpt>
<trkpt lat="39.045795" lon="-3.840592">
<ele>668.5</ele>
<speed>23.8</speed>
<course>276.5</course>
<desc>Speed 23.8 km/h Distance 5.19 km</desc>
<time>2011-07-19T20:02:58.42</time>
<name>857</name>
</trkpt>
<trkpt lat="39.045802" lon="-3.840667">
<ele>668.5</ele>
<speed>24.0</speed>
<course>274.7</course>
<desc>Speed 24.0 km/h Distance 5.20 km</desc>
<time>2011-07-19T20:02:59.42</time>
<name>858</name>
</trkpt>
<trkpt lat="39.045807" lon="-3.840745">
<ele>668.5</ele>
<speed>24.2</speed>
<course>276.4</course>
<desc>Speed 24.2 km/h Distance 5.20 km</desc>
<time>2011-07-19T20:03:00.42</time>
<name>859</name>
</trkpt>
<trkpt lat="39.045813" lon="-3.840822">
<ele>669.0</ele>
<speed>24.3</speed>
<course>276.3</course>
<desc>Speed 24.3 km/h Distance 5.21 km</desc>
<time>2011-07-19T20:03:01.42</time>
<name>860</name>
</trkpt>
<trkpt lat="39.045820" lon="-3.840900">
<ele>669.0</ele>
<speed>24.3</speed>
<course>274.8</course>
<desc>Speed 24.3 km/h Distance 5.22 km</desc>
<time>2011-07-19T20:03:02.42</time>
<name>861</name>
</trkpt>
<trkpt lat="39.045825" lon="-3.840977">
<ele>669.5</ele>
<speed>24.5</speed>
<course>274.7</course>
<desc>Speed 24.5 km/h Distance 5.22 km</desc>
<time>2011-07-19T20:03:03.42</time>
<name>862</name>
</trkpt>
<trkpt lat="39.045830" lon="-3.841055">
<ele>669.5</ele>
<speed>24.8</speed>
<course>274.6</course>
<desc>Speed 24.8 km/h Distance 5.23 km</desc>
<time>2011-07-19T20:03:04.42</time>
<name>863</name>
</trkpt>
<trkpt lat="39.045835" lon="-3.841135">
<ele>669.5</ele>
<speed>25.2</speed>
<course>276.1</course>
<desc>Speed 25.2 km/h Distance 5.24 km</desc>
<time>2011-07-19T20:03:05.41</time>
<name>864</name>
</trkpt>
<trkpt lat="39.045842" lon="-3.841215">
<ele>670.0</ele>
<speed>25.5</speed>
<course>274.5</course>
<desc>Speed 25.5 km/h Distance 5.24 km</desc>
<time>2011-07-19T20:03:06.42</time>
<name>865</name>
</trkpt>
<trkpt lat="39.045847" lon="-3.841297">
<ele>670.0</ele>
<speed>25.7</speed>
<course>282.4</course>
<desc>Speed 25.7 km/h Distance 5.25 km</desc>
<time>2011-07-19T20:03:07.41</time>
<name>866</name>
</trkpt>
<trkpt lat="39.045860" lon="-3.841375">
<ele>669.5</ele>
<speed>25.2</speed>
<course>282.4</course>
<desc>Speed 25.2 km/h Distance 5.26 km</desc>
<time>2011-07-19T20:03:08.42</time>
<name>867</name>
</trkpt>
<trkpt lat="39.045873" lon="-3.841453">
<ele>669.5</ele>
<speed>25.1</speed>
<course>283.9</course>
<desc>Speed 25.1 km/h Distance 5.26 km</desc>
<time>2011-07-19T20:03:09.42</time>
<name>868</name>
</trkpt>
<trkpt lat="39.045888" lon="-3.841532">
<ele>669.5</ele>
<speed>25.1</speed>
<course>283.9</course>
<desc>Speed 25.1 km/h Distance 5.27 km</desc>
<time>2011-07-19T20:03:10.42</time>
<name>869</name>
</trkpt>
<trkpt lat="39.045903" lon="-3.841610">
<ele>669.0</ele>
<speed>24.8</speed>
<course>280.9</course>
<desc>Speed 24.8 km/h Distance 5.28 km</desc>
<time>2011-07-19T20:03:11.42</time>
<name>870</name>
</trkpt>
<trkpt lat="39.045915" lon="-3.841688">
<ele>668.5</ele>
<speed>24.8</speed>
<course>286.0</course>
<desc>Speed 24.8 km/h Distance 5.29 km</desc>
<time>2011-07-19T20:03:12.41</time>
<name>871</name>
</trkpt>
<trkpt lat="39.045932" lon="-3.841763">
<ele>668.5</ele>
<speed>24.8</speed>
<course>284.1</course>
<desc>Speed 24.8 km/h Distance 5.29 km</desc>
<time>2011-07-19T20:03:13.41</time>
<name>872</name>
</trkpt>
<trkpt lat="39.045947" lon="-3.841840">
<ele>668.0</ele>
<speed>24.8</speed>
<course>282.9</course>
<desc>Speed 24.8 km/h Distance 5.30 km</desc>
<time>2011-07-19T20:03:14.42</time>
<name>873</name>
</trkpt>
<trkpt lat="39.045960" lon="-3.841915">
<ele>668.0</ele>
<speed>24.6</speed>
<course>282.6</course>
<desc>Speed 24.6 km/h Distance 5.31 km</desc>
<time>2011-07-19T20:03:15.41</time>
<name>874</name>
</trkpt>
<trkpt lat="39.045973" lon="-3.841992">
<ele>667.5</ele>
<speed>24.6</speed>
<course>282.9</course>
<desc>Speed 24.6 km/h Distance 5.31 km</desc>
<time>2011-07-19T20:03:16.42</time>
<name>875</name>
</trkpt>
<trkpt lat="39.045987" lon="-3.842067">
<ele>667.5</ele>
<speed>24.4</speed>
<course>279.5</course>
<desc>Speed 24.4 km/h Distance 5.32 km</desc>
<time>2011-07-19T20:03:17.41</time>
<name>876</name>
</trkpt>
<trkpt lat="39.045997" lon="-3.842143">
<ele>667.0</ele>
<speed>24.2</speed>
<course>281.3</course>
<desc>Speed 24.2 km/h Distance 5.33 km</desc>
<time>2011-07-19T20:03:18.42</time>
<name>877</name>
</trkpt>
<trkpt lat="39.046008" lon="-3.842218">
<ele>667.0</ele>
<speed>24.2</speed>
<course>279.7</course>
<desc>Speed 24.2 km/h Distance 5.33 km</desc>
<time>2011-07-19T20:03:19.41</time>
<name>878</name>
</trkpt>
<trkpt lat="39.046018" lon="-3.842293">
<ele>667.0</ele>
<speed>24.2</speed>
<course>281.1</course>
<desc>Speed 24.2 km/h Distance 5.34 km</desc>
<time>2011-07-19T20:03:20.41</time>
<name>879</name>
</trkpt>
<trkpt lat="39.046030" lon="-3.842370">
<ele>667.0</ele>
<speed>24.2</speed>
<course>278.1</course>
<desc>Speed 24.2 km/h Distance 5.35 km</desc>
<time>2011-07-19T20:03:21.41</time>
<name>880</name>
</trkpt>
<trkpt lat="39.046038" lon="-3.842445">
<ele>666.5</ele>
<speed>23.8</speed>
<course>278.3</course>
<desc>Speed 23.8 km/h Distance 5.35 km</desc>
<time>2011-07-19T20:03:22.41</time>
<name>881</name>
</trkpt>
<trkpt lat="39.046047" lon="-3.842518">
<ele>667.0</ele>
<speed>23.6</speed>
<course>278.1</course>
<desc>Speed 23.6 km/h Distance 5.36 km</desc>
<time>2011-07-19T20:03:23.41</time>
<name>882</name>
</trkpt>
<trkpt lat="39.046055" lon="-3.842593">
<ele>667.0</ele>
<speed>23.6</speed>
<course>280.0</course>
<desc>Speed 23.6 km/h Distance 5.37 km</desc>
<time>2011-07-19T20:03:24.41</time>
<name>883</name>
</trkpt>
<trkpt lat="39.046065" lon="-3.842667">
<ele>667.0</ele>
<speed>23.6</speed>
<course>278.1</course>
<desc>Speed 23.6 km/h Distance 5.37 km</desc>
<time>2011-07-19T20:03:25.41</time>
<name>884</name>
</trkpt>
<trkpt lat="39.046073" lon="-3.842742">
<ele>667.0</ele>
<speed>23.5</speed>
<course>276.7</course>
<desc>Speed 23.5 km/h Distance 5.38 km</desc>
<time>2011-07-19T20:03:26.42</time>
<name>885</name>
</trkpt>
<trkpt lat="39.046080" lon="-3.842815">
<ele>667.0</ele>
<speed>23.5</speed>
<course>276.5</course>
<desc>Speed 23.5 km/h Distance 5.38 km</desc>
<time>2011-07-19T20:03:27.41</time>
<name>886</name>
</trkpt>
<trkpt lat="39.046087" lon="-3.842890">
<ele>667.0</ele>
<speed>23.6</speed>
<course>276.4</course>
<desc>Speed 23.6 km/h Distance 5.39 km</desc>
<time>2011-07-19T20:03:28.41</time>
<name>887</name>
</trkpt>
<trkpt lat="39.046093" lon="-3.842967">
<ele>667.0</ele>
<speed>23.7</speed>
<course>276.5</course>
<desc>Speed 23.7 km/h Distance 5.40 km</desc>
<time>2011-07-19T20:03:29.41</time>
<name>888</name>
</trkpt>
<trkpt lat="39.046100" lon="-3.843042">
<ele>667.5</ele>
<speed>24.0</speed>
<course>276.4</course>
<desc>Speed 24.0 km/h Distance 5.40 km</desc>
<time>2011-07-19T20:03:30.42</time>
<name>889</name>
</trkpt>
<trkpt lat="39.046107" lon="-3.843118">
<ele>667.5</ele>
<speed>24.0</speed>
<course>274.8</course>
<desc>Speed 24.0 km/h Distance 5.41 km</desc>
<time>2011-07-19T20:03:31.42</time>
<name>890</name>
</trkpt>
<trkpt lat="39.046112" lon="-3.843195">
<ele>667.5</ele>
<speed>23.9</speed>
<course>276.5</course>
<desc>Speed 23.9 km/h Distance 5.42 km</desc>
<time>2011-07-19T20:03:32.41</time>
<name>891</name>
</trkpt>
<trkpt lat="39.046118" lon="-3.843270">
<ele>668.0</ele>
<speed>23.9</speed>
<course>276.4</course>
<desc>Speed 23.9 km/h Distance 5.42 km</desc>
<time>2011-07-19T20:03:33.42</time>
<name>892</name>
</trkpt>
<trkpt lat="39.046125" lon="-3.843347">
<ele>668.5</ele>
<speed>23.8</speed>
<course>275.0</course>
<desc>Speed 23.8 km/h Distance 5.43 km</desc>
<time>2011-07-19T20:03:34.41</time>
<name>893</name>
</trkpt>
<trkpt lat="39.046130" lon="-3.843420">
<ele>669.0</ele>
<speed>23.6</speed>
<course>274.9</course>
<desc>Speed 23.6 km/h Distance 5.44 km</desc>
<time>2011-07-19T20:03:35.41</time>
<name>894</name>
</trkpt>
<trkpt lat="39.046135" lon="-3.843495">
<ele>669.5</ele>
<speed>23.7</speed>
<course>274.8</course>
<desc>Speed 23.7 km/h Distance 5.44 km</desc>
<time>2011-07-19T20:03:36.42</time>
<name>895</name>
</trkpt>
<trkpt lat="39.046140" lon="-3.843572">
<ele>670.0</ele>
<speed>24.2</speed>
<course>273.2</course>
<desc>Speed 24.2 km/h Distance 5.45 km</desc>
<time>2011-07-19T20:03:37.41</time>
<name>896</name>
</trkpt>
<trkpt lat="39.046143" lon="-3.843648">
<ele>670.0</ele>
<speed>24.4</speed>
<course>274.7</course>
<desc>Speed 24.4 km/h Distance 5.46 km</desc>
<time>2011-07-19T20:03:38.41</time>
<name>897</name>
</trkpt>
<trkpt lat="39.046148" lon="-3.843727">
<ele>670.5</ele>
<speed>24.6</speed>
<course>281.3</course>
<desc>Speed 24.6 km/h Distance 5.46 km</desc>
<time>2011-07-19T20:03:39.41</time>
<name>898</name>
</trkpt>
<trkpt lat="39.046160" lon="-3.843802">
<ele>670.5</ele>
<speed>24.2</speed>
<course>281.1</course>
<desc>Speed 24.2 km/h Distance 5.47 km</desc>
<time>2011-07-19T20:03:40.41</time>
<name>899</name>
</trkpt>
<trkpt lat="39.046172" lon="-3.843878">
<ele>670.5</ele>
<speed>24.3</speed>
<course>283.2</course>
<desc>Speed 24.3 km/h Distance 5.48 km</desc>
<time>2011-07-19T20:03:41.42</time>
<name>900</name>
</trkpt>
<trkpt lat="39.046185" lon="-3.843952">
<ele>670.5</ele>
<speed>24.1</speed>
<course>281.3</course>
<desc>Speed 24.1 km/h Distance 5.48 km</desc>
<time>2011-07-19T20:03:42.41</time>
<name>901</name>
</trkpt>
<trkpt lat="39.046197" lon="-3.844027">
<ele>670.5</ele>
<speed>23.8</speed>
<course>281.6</course>
<desc>Speed 23.8 km/h Distance 5.49 km</desc>
<time>2011-07-19T20:03:43.43</time>
<name>902</name>
</trkpt>
<trkpt lat="39.046208" lon="-3.844100">
<ele>670.5</ele>
<speed>23.8</speed>
<course>279.7</course>
<desc>Speed 23.8 km/h Distance 5.50 km</desc>
<time>2011-07-19T20:03:44.41</time>
<name>903</name>
</trkpt>
<trkpt lat="39.046218" lon="-3.844175">
<ele>670.5</ele>
<speed>23.7</speed>
<course>280.0</course>
<desc>Speed 23.7 km/h Distance 5.50 km</desc>
<time>2011-07-19T20:03:45.42</time>
<name>904</name>
</trkpt>
<trkpt lat="39.046228" lon="-3.844248">
<ele>671.0</ele>
<speed>23.8</speed>
<course>279.7</course>
<desc>Speed 23.8 km/h Distance 5.51 km</desc>
<time>2011-07-19T20:03:46.41</time>
<name>905</name>
</trkpt>
<trkpt lat="39.046238" lon="-3.844323">
<ele>671.0</ele>
<speed>23.9</speed>
<course>279.7</course>
<desc>Speed 23.9 km/h Distance 5.52 km</desc>
<time>2011-07-19T20:03:47.41</time>
<name>906</name>
</trkpt>
<trkpt lat="39.046248" lon="-3.844398">
<ele>671.0</ele>
<speed>23.9</speed>
<course>274.8</course>
<desc>Speed 23.9 km/h Distance 5.52 km</desc>
<time>2011-07-19T20:03:48.41</time>
<name>907</name>
</trkpt>
<trkpt lat="39.046253" lon="-3.844475">
<ele>671.0</ele>
<speed>23.8</speed>
<course>278.0</course>
<desc>Speed 23.8 km/h Distance 5.53 km</desc>
<time>2011-07-19T20:03:49.42</time>
<name>908</name>
</trkpt>
<trkpt lat="39.046262" lon="-3.844552">
<ele>671.0</ele>
<speed>23.8</speed>
<course>278.1</course>
<desc>Speed 23.8 km/h Distance 5.54 km</desc>
<time>2011-07-19T20:03:50.41</time>
<name>909</name>
</trkpt>
<trkpt lat="39.046270" lon="-3.844627">
<ele>671.0</ele>
<speed>23.7</speed>
<course>278.3</course>
<desc>Speed 23.7 km/h Distance 5.54 km</desc>
<time>2011-07-19T20:03:51.41</time>
<name>910</name>
</trkpt>
<trkpt lat="39.046278" lon="-3.844700">
<ele>671.0</ele>
<speed>23.7</speed>
<course>288.2</course>
<desc>Speed 23.7 km/h Distance 5.55 km</desc>
<time>2011-07-19T20:03:52.41</time>
<name>911</name>
</trkpt>
<trkpt lat="39.046297" lon="-3.844772">
<ele>670.5</ele>
<speed>23.3</speed>
<course>286.7</course>
<desc>Speed 23.3 km/h Distance 5.56 km</desc>
<time>2011-07-19T20:03:53.42</time>
<name>912</name>
</trkpt>
<trkpt lat="39.046313" lon="-3.844843">
<ele>670.5</ele>
<speed>23.3</speed>
<course>286.3</course>
<desc>Speed 23.3 km/h Distance 5.56 km</desc>
<time>2011-07-19T20:03:54.41</time>
<name>913</name>
</trkpt>
<trkpt lat="39.046330" lon="-3.844917">
<ele>671.0</ele>
<speed>23.7</speed>
<course>288.2</course>
<desc>Speed 23.7 km/h Distance 5.57 km</desc>
<time>2011-07-19T20:03:55.41</time>
<name>914</name>
</trkpt>
<trkpt lat="39.046348" lon="-3.844988">
<ele>671.0</ele>
<speed>23.8</speed>
<course>286.3</course>
<desc>Speed 23.8 km/h Distance 5.58 km</desc>
<time>2011-07-19T20:03:56.41</time>
<name>915</name>
</trkpt>
<trkpt lat="39.046365" lon="-3.845062">
<ele>670.5</ele>
<speed>23.8</speed>
<course>286.3</course>
<desc>Speed 23.8 km/h Distance 5.58 km</desc>
<time>2011-07-19T20:03:57.42</time>
<name>916</name>
</trkpt>
<trkpt lat="39.046382" lon="-3.845135">
<ele>671.0</ele>
<speed>23.9</speed>
<course>286.7</course>
<desc>Speed 23.9 km/h Distance 5.59 km</desc>
<time>2011-07-19T20:03:58.41</time>
<name>917</name>
</trkpt>
<trkpt lat="39.046398" lon="-3.845207">
<ele>671.0</ele>
<speed>23.8</speed>
<course>286.3</course>
<desc>Speed 23.8 km/h Distance 5.60 km</desc>
<time>2011-07-19T20:03:59.41</time>
<name>918</name>
</trkpt>
<trkpt lat="39.046415" lon="-3.845280">
<ele>671.5</ele>
<speed>23.9</speed>
<course>286.3</course>
<desc>Speed 23.9 km/h Distance 5.60 km</desc>
<time>2011-07-19T20:04:00.41</time>
<name>919</name>
</trkpt>
<trkpt lat="39.046432" lon="-3.845353">
<ele>671.5</ele>
<speed>23.9</speed>
<course>286.7</course>
<desc>Speed 23.9 km/h Distance 5.61 km</desc>
<time>2011-07-19T20:04:01.42</time>
<name>920</name>
</trkpt>
<trkpt lat="39.046448" lon="-3.845425">
<ele>671.5</ele>
<speed>23.2</speed>
<course>285.8</course>
<desc>Speed 23.2 km/h Distance 5.61 km</desc>
<time>2011-07-19T20:04:02.41</time>
<name>921</name>
</trkpt>
<trkpt lat="39.046463" lon="-3.845493">
<ele>671.5</ele>
<speed>22.0</speed>
<course>278.6</course>
<desc>Speed 22.0 km/h Distance 5.62 km</desc>
<time>2011-07-19T20:04:03.41</time>
<name>922</name>
</trkpt>
<trkpt lat="39.046470" lon="-3.845550">
<ele>671.0</ele>
<speed>18.5</speed>
<course>241.6</course>
<desc>Speed 18.5 km/h Distance 5.63 km</desc>
<time>2011-07-19T20:04:04.41</time>
<name>923</name>
</trkpt>
<trkpt lat="39.046448" lon="-3.845602">
<ele>670.0</ele>
<speed>19.4</speed>
<course>213.1</course>
<desc>Speed 19.4 km/h Distance 5.63 km</desc>
<time>2011-07-19T20:04:05.41</time>
<name>924</name>
</trkpt>
<trkpt lat="39.046407" lon="-3.845637">
<ele>668.5</ele>
<speed>21.9</speed>
<course>179.4</course>
<desc>Speed 21.9 km/h Distance 5.64 km</desc>
<time>2011-07-19T20:04:06.41</time>
<name>925</name>
</trkpt>
<trkpt lat="39.046360" lon="-3.845637">
<ele>668.5</ele>
<speed>18.7</speed>
<course>178.5</course>
<desc>Speed 18.7 km/h Distance 5.64 km</desc>
<time>2011-07-19T20:04:07.41</time>
<name>926</name>
</trkpt>
<trkpt lat="39.046312" lon="-3.845635">
<ele>668.5</ele>
<speed>19.3</speed>
<course>176.9</course>
<desc>Speed 19.3 km/h Distance 5.65 km</desc>
<time>2011-07-19T20:04:08.41</time>
<name>927</name>
</trkpt>
<trkpt lat="39.046263" lon="-3.845632">
<ele>668.5</ele>
<speed>19.8</speed>
<course>175.4</course>
<desc>Speed 19.8 km/h Distance 5.65 km</desc>
<time>2011-07-19T20:04:09.41</time>
<name>928</name>
</trkpt>
<trkpt lat="39.046213" lon="-3.845627">
<ele>668.0</ele>
<speed>20.4</speed>
<course>171.4</course>
<desc>Speed 20.4 km/h Distance 5.66 km</desc>
<time>2011-07-19T20:04:10.42</time>
<name>929</name>
</trkpt>
<trkpt lat="39.046162" lon="-3.845617">
<ele>668.0</ele>
<speed>21.0</speed>
<course>169.7</course>
<desc>Speed 21.0 km/h Distance 5.66 km</desc>
<time>2011-07-19T20:04:11.41</time>
<name>930</name>
</trkpt>
<trkpt lat="39.046112" lon="-3.845605">
<ele>667.5</ele>
<speed>21.0</speed>
<course>165.1</course>
<desc>Speed 21.0 km/h Distance 5.67 km</desc>
<time>2011-07-19T20:04:12.41</time>
<name>931</name>
</trkpt>
<trkpt lat="39.046058" lon="-3.845587">
<ele>668.0</ele>
<speed>21.9</speed>
<course>162.5</course>
<desc>Speed 21.9 km/h Distance 5.68 km</desc>
<time>2011-07-19T20:04:13.41</time>
<name>932</name>
</trkpt>
<trkpt lat="39.046005" lon="-3.845565">
<ele>668.0</ele>
<speed>22.4</speed>
<course>160.7</course>
<desc>Speed 22.4 km/h Distance 5.68 km</desc>
<time>2011-07-19T20:04:14.41</time>
<name>933</name>
</trkpt>
<trkpt lat="39.045953" lon="-3.845542">
<ele>668.0</ele>
<speed>22.4</speed>
<course>158.8</course>
<desc>Speed 22.4 km/h Distance 5.69 km</desc>
<time>2011-07-19T20:04:15.41</time>
<name>934</name>
</trkpt>
<trkpt lat="39.045900" lon="-3.845515">
<ele>668.5</ele>
<speed>22.9</speed>
<course>161.2</course>
<desc>Speed 22.9 km/h Distance 5.69 km</desc>
<time>2011-07-19T20:04:16.41</time>
<name>935</name>
</trkpt>
<trkpt lat="39.045847" lon="-3.845492">
<ele>668.5</ele>
<speed>22.7</speed>
<course>155.7</course>
<desc>Speed 22.7 km/h Distance 5.70 km</desc>
<time>2011-07-19T20:04:17.41</time>
<name>936</name>
</trkpt>
<trkpt lat="39.045795" lon="-3.845462">
<ele>668.5</ele>
<speed>22.9</speed>
<course>153.0</course>
<desc>Speed 22.9 km/h Distance 5.71 km</desc>
<time>2011-07-19T20:04:18.42</time>
<name>937</name>
</trkpt>
<trkpt lat="39.045742" lon="-3.845427">
<ele>668.5</ele>
<speed>24.1</speed>
<course>150.8</course>
<desc>Speed 24.1 km/h Distance 5.71 km</desc>
<time>2011-07-19T20:04:19.41</time>
<name>938</name>
</trkpt>
<trkpt lat="39.045688" lon="-3.845388">
<ele>669.0</ele>
<speed>24.3</speed>
<course>153.0</course>
<desc>Speed 24.3 km/h Distance 5.72 km</desc>
<time>2011-07-19T20:04:20.41</time>
<name>939</name>
</trkpt>
<trkpt lat="39.045635" lon="-3.845353">
<ele>669.5</ele>
<speed>24.2</speed>
<course>155.9</course>
<desc>Speed 24.2 km/h Distance 5.73 km</desc>
<time>2011-07-19T20:04:21.41</time>
<name>940</name>
</trkpt>
<trkpt lat="39.045580" lon="-3.845322">
<ele>669.5</ele>
<speed>23.9</speed>
<course>157.0</course>
<desc>Speed 23.9 km/h Distance 5.73 km</desc>
<time>2011-07-19T20:04:22.41</time>
<name>941</name>
</trkpt>
<trkpt lat="39.045525" lon="-3.845292">
<ele>670.0</ele>
<speed>23.7</speed>
<course>158.8</course>
<desc>Speed 23.7 km/h Distance 5.74 km</desc>
<time>2011-07-19T20:04:23.41</time>
<name>942</name>
</trkpt>
<trkpt lat="39.045472" lon="-3.845265">
<ele>670.5</ele>
<speed>23.4</speed>
<course>160.6</course>
<desc>Speed 23.4 km/h Distance 5.75 km</desc>
<time>2011-07-19T20:04:24.41</time>
<name>943</name>
</trkpt>
<trkpt lat="39.045417" lon="-3.845240">
<ele>671.0</ele>
<speed>23.2</speed>
<course>159.4</course>
<desc>Speed 23.2 km/h Distance 5.75 km</desc>
<time>2011-07-19T20:04:25.41</time>
<name>944</name>
</trkpt>
<trkpt lat="39.045362" lon="-3.845213">
<ele>671.0</ele>
<speed>23.7</speed>
<course>149.8</course>
<desc>Speed 23.7 km/h Distance 5.76 km</desc>
<time>2011-07-19T20:04:26.41</time>
<name>945</name>
</trkpt>
<trkpt lat="39.045315" lon="-3.845178">
<ele>671.5</ele>
<speed>21.8</speed>
<course>146.3</course>
<desc>Speed 21.8 km/h Distance 5.77 km</desc>
<time>2011-07-19T20:04:27.41</time>
<name>946</name>
</trkpt>
<trkpt lat="39.045268" lon="-3.845138">
<ele>671.5</ele>
<speed>22.7</speed>
<course>145.2</course>
<desc>Speed 22.7 km/h Distance 5.77 km</desc>
<time>2011-07-19T20:04:28.41</time>
<name>947</name>
</trkpt>
<trkpt lat="39.045220" lon="-3.845095">
<ele>672.0</ele>
<speed>23.5</speed>
<course>133.4</course>
<desc>Speed 23.5 km/h Distance 5.78 km</desc>
<time>2011-07-19T20:04:29.41</time>
<name>948</name>
</trkpt>
<trkpt lat="39.045183" lon="-3.845045">
<ele>671.5</ele>
<speed>21.7</speed>
<course>131.9</course>
<desc>Speed 21.7 km/h Distance 5.78 km</desc>
<time>2011-07-19T20:04:30.41</time>
<name>949</name>
</trkpt>
<trkpt lat="39.045145" lon="-3.844990">
<ele>671.5</ele>
<speed>23.0</speed>
<course>131.1</course>
<desc>Speed 23.0 km/h Distance 5.79 km</desc>
<time>2011-07-19T20:04:31.41</time>
<name>950</name>
</trkpt>
<trkpt lat="39.045107" lon="-3.844933">
<ele>672.0</ele>
<speed>23.4</speed>
<course>129.4</course>
<desc>Speed 23.4 km/h Distance 5.80 km</desc>
<time>2011-07-19T20:04:32.41</time>
<name>951</name>
</trkpt>
<trkpt lat="39.045068" lon="-3.844873">
<ele>672.0</ele>
<speed>23.9</speed>
<course>128.2</course>
<desc>Speed 23.9 km/h Distance 5.80 km</desc>
<time>2011-07-19T20:04:33.41</time>
<name>952</name>
</trkpt>
<trkpt lat="39.045032" lon="-3.844813">
<ele>672.5</ele>
<speed>24.2</speed>
<course>123.5</course>
<desc>Speed 24.2 km/h Distance 5.81 km</desc>
<time>2011-07-19T20:04:34.41</time>
<name>953</name>
</trkpt>
<trkpt lat="39.045002" lon="-3.844755">
<ele>672.5</ele>
<speed>22.0</speed>
<course>122.8</course>
<desc>Speed 22.0 km/h Distance 5.82 km</desc>
<time>2011-07-19T20:04:35.41</time>
<name>954</name>
</trkpt>
<trkpt lat="39.044972" lon="-3.844695">
<ele>673.0</ele>
<speed>22.4</speed>
<course>122.8</course>
<desc>Speed 22.4 km/h Distance 5.82 km</desc>
<time>2011-07-19T20:04:36.42</time>
<name>955</name>
</trkpt>
<trkpt lat="39.044942" lon="-3.844635">
<ele>673.0</ele>
<speed>22.2</speed>
<course>124.3</course>
<desc>Speed 22.2 km/h Distance 5.83 km</desc>
<time>2011-07-19T20:04:37.41</time>
<name>956</name>
</trkpt>
<trkpt lat="39.044912" lon="-3.844578">
<ele>673.5</ele>
<speed>21.8</speed>
<course>123.5</course>
<desc>Speed 21.8 km/h Distance 5.84 km</desc>
<time>2011-07-19T20:04:38.41</time>
<name>957</name>
</trkpt>
<trkpt lat="39.044882" lon="-3.844520">
<ele>673.5</ele>
<speed>21.9</speed>
<course>126.6</course>
<desc>Speed 21.9 km/h Distance 5.84 km</desc>
<time>2011-07-19T20:04:39.41</time>
<name>958</name>
</trkpt>
<trkpt lat="39.044850" lon="-3.844465">
<ele>674.0</ele>
<speed>21.5</speed>
<course>124.3</course>
<desc>Speed 21.5 km/h Distance 5.85 km</desc>
<time>2011-07-19T20:04:40.42</time>
<name>959</name>
</trkpt>
<trkpt lat="39.044820" lon="-3.844408">
<ele>674.5</ele>
<speed>21.4</speed>
<course>126.6</course>
<desc>Speed 21.4 km/h Distance 5.85 km</desc>
<time>2011-07-19T20:04:41.41</time>
<name>960</name>
</trkpt>
<trkpt lat="39.044788" lon="-3.844353">
<ele>675.5</ele>
<speed>21.0</speed>
<course>125.9</course>
<desc>Speed 21.0 km/h Distance 5.86 km</desc>
<time>2011-07-19T20:04:42.41</time>
<name>961</name>
</trkpt>
<trkpt lat="39.044758" lon="-3.844300">
<ele>676.5</ele>
<speed>20.7</speed>
<course>128.3</course>
<desc>Speed 20.7 km/h Distance 5.86 km</desc>
<time>2011-07-19T20:04:43.43</time>
<name>962</name>
</trkpt>
<trkpt lat="39.044727" lon="-3.844248">
<ele>677.0</ele>
<speed>20.3</speed>
<course>128.6</course>
<desc>Speed 20.3 km/h Distance 5.87 km</desc>
<time>2011-07-19T20:04:44.41</time>
<name>963</name>
</trkpt>
<trkpt lat="39.044697" lon="-3.844200">
<ele>678.0</ele>
<speed>19.4</speed>
<course>130.6</course>
<desc>Speed 19.4 km/h Distance 5.88 km</desc>
<time>2011-07-19T20:04:45.41</time>
<name>964</name>
</trkpt>
<trkpt lat="39.044667" lon="-3.844155">
<ele>678.5</ele>
<speed>19.3</speed>
<course>132.2</course>
<desc>Speed 19.3 km/h Distance 5.88 km</desc>
<time>2011-07-19T20:04:46.41</time>
<name>965</name>
</trkpt>
<trkpt lat="39.044635" lon="-3.844110">
<ele>679.0</ele>
<speed>18.9</speed>
<course>134.4</course>
<desc>Speed 18.9 km/h Distance 5.89 km</desc>
<time>2011-07-19T20:04:47.41</time>
<name>966</name>
</trkpt>
<trkpt lat="39.044603" lon="-3.844068">
<ele>679.0</ele>
<speed>17.9</speed>
<course>131.7</course>
<desc>Speed 17.9 km/h Distance 5.89 km</desc>
<time>2011-07-19T20:04:48.41</time>
<name>967</name>
</trkpt>
<trkpt lat="39.044573" lon="-3.844025">
<ele>679.0</ele>
<speed>18.5</speed>
<course>134.4</course>
<desc>Speed 18.5 km/h Distance 5.90 km</desc>
<time>2011-07-19T20:04:49.41</time>
<name>968</name>
</trkpt>
<trkpt lat="39.044542" lon="-3.843983">
<ele>679.5</ele>
<speed>18.6</speed>
<course>133.3</course>
<desc>Speed 18.6 km/h Distance 5.90 km</desc>
<time>2011-07-19T20:04:50.41</time>
<name>969</name>
</trkpt>
<trkpt lat="39.044510" lon="-3.843940">
<ele>679.5</ele>
<speed>18.5</speed>
<course>137.0</course>
<desc>Speed 18.5 km/h Distance 5.91 km</desc>
<time>2011-07-19T20:04:51.41</time>
<name>970</name>
</trkpt>
<trkpt lat="39.044477" lon="-3.843900">
<ele>680.0</ele>
<speed>18.4</speed>
<course>134.4</course>
<desc>Speed 18.4 km/h Distance 5.91 km</desc>
<time>2011-07-19T20:04:52.41</time>
<name>971</name>
</trkpt>
<trkpt lat="39.044445" lon="-3.843858">
<ele>680.5</ele>
<speed>18.3</speed>
<course>139.5</course>
<desc>Speed 18.3 km/h Distance 5.92 km</desc>
<time>2011-07-19T20:04:53.41</time>
<name>972</name>
</trkpt>
<trkpt lat="39.044412" lon="-3.843822">
<ele>681.0</ele>
<speed>17.8</speed>
<course>136.8</course>
<desc>Speed 17.8 km/h Distance 5.92 km</desc>
<time>2011-07-19T20:04:54.41</time>
<name>973</name>
</trkpt>
<trkpt lat="39.044380" lon="-3.843783">
<ele>681.5</ele>
<speed>18.0</speed>
<course>124.9</course>
<desc>Speed 18.0 km/h Distance 5.93 km</desc>
<time>2011-07-19T20:04:55.41</time>
<name>974</name>
</trkpt>
<trkpt lat="39.044358" lon="-3.843743">
<ele>681.5</ele>
<speed>15.1</speed>
<course>120.7</course>
<desc>Speed 15.1 km/h Distance 5.93 km</desc>
<time>2011-07-19T20:04:56.41</time>
<name>975</name>
</trkpt>
<trkpt lat="39.044338" lon="-3.843700">
<ele>681.5</ele>
<speed>15.6</speed>
<course>121.7</course>
<desc>Speed 15.6 km/h Distance 5.93 km</desc>
<time>2011-07-19T20:04:57.41</time>
<name>976</name>
</trkpt>
<trkpt lat="39.044318" lon="-3.843658">
<ele>681.5</ele>
<speed>15.7</speed>
<course>119.8</course>
<desc>Speed 15.7 km/h Distance 5.94 km</desc>
<time>2011-07-19T20:04:58.41</time>
<name>977</name>
</trkpt>
<trkpt lat="39.044298" lon="-3.843613">
<ele>681.5</ele>
<speed>16.6</speed>
<course>125.8</course>
<desc>Speed 16.6 km/h Distance 5.94 km</desc>
<time>2011-07-19T20:04:59.41</time>
<name>978</name>
</trkpt>
<trkpt lat="39.044275" lon="-3.843572">
<ele>682.0</ele>
<speed>16.2</speed>
<course>121.8</course>
<desc>Speed 16.2 km/h Distance 5.95 km</desc>
<time>2011-07-19T20:05:00.41</time>
<name>979</name>
</trkpt>
<trkpt lat="39.044253" lon="-3.843527">
<ele>682.5</ele>
<speed>16.4</speed>
<course>122.8</course>
<desc>Speed 16.4 km/h Distance 5.95 km</desc>
<time>2011-07-19T20:05:01.41</time>
<name>980</name>
</trkpt>
<trkpt lat="39.044232" lon="-3.843483">
<ele>683.0</ele>
<speed>16.6</speed>
<course>124.7</course>
<desc>Speed 16.6 km/h Distance 5.96 km</desc>
<time>2011-07-19T20:05:02.40</time>
<name>981</name>
</trkpt>
<trkpt lat="39.044208" lon="-3.843440">
<ele>683.0</ele>
<speed>16.1</speed>
<course>126.0</course>
<desc>Speed 16.1 km/h Distance 5.96 km</desc>
<time>2011-07-19T20:05:03.41</time>
<name>982</name>
</trkpt>
<trkpt lat="39.044187" lon="-3.843402">
<ele>682.5</ele>
<speed>15.4</speed>
<course>121.7</course>
<desc>Speed 15.4 km/h Distance 5.97 km</desc>
<time>2011-07-19T20:05:04.41</time>
<name>983</name>
</trkpt>
<trkpt lat="39.044167" lon="-3.843360">
<ele>683.0</ele>
<speed>15.5</speed>
<course>126.9</course>
<desc>Speed 15.5 km/h Distance 5.97 km</desc>
<time>2011-07-19T20:05:05.40</time>
<name>984</name>
</trkpt>
<trkpt lat="39.044143" lon="-3.843320">
<ele>683.5</ele>
<speed>15.8</speed>
<course>124.9</course>
<desc>Speed 15.8 km/h Distance 5.97 km</desc>
<time>2011-07-19T20:05:06.41</time>
<name>985</name>
</trkpt>
<trkpt lat="39.044122" lon="-3.843280">
<ele>684.0</ele>
<speed>15.6</speed>
<course>127.3</course>
<desc>Speed 15.6 km/h Distance 5.98 km</desc>
<time>2011-07-19T20:05:07.40</time>
<name>986</name>
</trkpt>
<trkpt lat="39.044100" lon="-3.843243">
<ele>684.0</ele>
<speed>14.7</speed>
<course>105.6</course>
<desc>Speed 14.7 km/h Distance 5.98 km</desc>
<time>2011-07-19T20:05:08.41</time>
<name>987</name>
</trkpt>
<trkpt lat="39.044092" lon="-3.843205">
<ele>684.0</ele>
<speed>12.4</speed>
<course>105.0</course>
<desc>Speed 12.4 km/h Distance 5.99 km</desc>
<time>2011-07-19T20:05:09.41</time>
<name>988</name>
</trkpt>
<trkpt lat="39.044083" lon="-3.843165">
<ele>684.0</ele>
<speed>12.9</speed>
<course>121.6</course>
<desc>Speed 12.9 km/h Distance 5.99 km</desc>
<time>2011-07-19T20:05:10.42</time>
<name>989</name>
</trkpt>
<trkpt lat="39.044065" lon="-3.843127">
<ele>684.0</ele>
<speed>14.3</speed>
<course>119.5</course>
<desc>Speed 14.3 km/h Distance 5.99 km</desc>
<time>2011-07-19T20:05:11.41</time>
<name>990</name>
</trkpt>
<trkpt lat="39.044047" lon="-3.843085">
<ele>684.0</ele>
<speed>15.1</speed>
<course>122.8</course>
<desc>Speed 15.1 km/h Distance 6.00 km</desc>
<time>2011-07-19T20:05:12.41</time>
<name>991</name>
</trkpt>
<trkpt lat="39.044027" lon="-3.843045">
<ele>683.5</ele>
<speed>14.8</speed>
<course>127.3</course>
<desc>Speed 14.8 km/h Distance 6.00 km</desc>
<time>2011-07-19T20:05:13.40</time>
<name>992</name>
</trkpt>
<trkpt lat="39.044005" lon="-3.843008">
<ele>684.0</ele>
<speed>14.8</speed>
<course>128.1</course>
<desc>Speed 14.8 km/h Distance 6.01 km</desc>
<time>2011-07-19T20:05:14.40</time>
<name>993</name>
</trkpt>
<trkpt lat="39.043982" lon="-3.842970">
<ele>684.0</ele>
<speed>15.1</speed>
<course>124.9</course>
<desc>Speed 15.1 km/h Distance 6.01 km</desc>
<time>2011-07-19T20:05:15.40</time>
<name>994</name>
</trkpt>
<trkpt lat="39.043960" lon="-3.842930">
<ele>684.0</ele>
<speed>15.7</speed>
<course>123.8</course>
<desc>Speed 15.7 km/h Distance 6.01 km</desc>
<time>2011-07-19T20:05:16.40</time>
<name>995</name>
</trkpt>
<trkpt lat="39.043938" lon="-3.842888">
<ele>684.5</ele>
<speed>15.6</speed>
<course>123.8</course>
<desc>Speed 15.6 km/h Distance 6.02 km</desc>
<time>2011-07-19T20:05:17.40</time>
<name>996</name>
</trkpt>
<trkpt lat="39.043917" lon="-3.842847">
<ele>684.5</ele>
<speed>15.7</speed>
<course>121.6</course>
<desc>Speed 15.7 km/h Distance 6.02 km</desc>
<time>2011-07-19T20:05:18.41</time>
<name>997</name>
</trkpt>
<trkpt lat="39.043898" lon="-3.842808">
<ele>684.5</ele>
<speed>14.4</speed>
<course>105.6</course>
<desc>Speed 14.4 km/h Distance 6.03 km</desc>
<time>2011-07-19T20:05:19.41</time>
<name>998</name>
</trkpt>
<trkpt lat="39.043890" lon="-3.842770">
<ele>684.5</ele>
<speed>12.5</speed>
<course>77.9</course>
<desc>Speed 12.5 km/h Distance 6.03 km</desc>
<time>2011-07-19T20:05:20.41</time>
<name>999</name>
</trkpt>
<trkpt lat="39.043897" lon="-3.842730">
<ele>684.5</ele>
<speed>12.2</speed>
<course>128.5</course>
<desc>Speed 12.2 km/h Distance 6.03 km</desc>
<time>2011-07-19T20:05:21.41</time>
<name>1000</name>
</trkpt>
<trkpt lat="39.043875" lon="-3.842695">
<ele>685.0</ele>
<speed>14.1</speed>
<course>110.2</course>
<desc>Speed 14.1 km/h Distance 6.04 km</desc>
<time>2011-07-19T20:05:22.41</time>
<name>1001</name>
</trkpt>
<trkpt lat="39.043865" lon="-3.842660">
<ele>685.5</ele>
<speed>11.9</speed>
<course>107.0</course>
<desc>Speed 11.9 km/h Distance 6.04 km</desc>
<time>2011-07-19T20:05:23.41</time>
<name>1002</name>
</trkpt>
<trkpt lat="39.043857" lon="-3.842625">
<ele>685.5</ele>
<speed>11.8</speed>
<course>106.3</course>
<desc>Speed 11.8 km/h Distance 6.04 km</desc>
<time>2011-07-19T20:05:24.40</time>
<name>1003</name>
</trkpt>
<trkpt lat="39.043848" lon="-3.842588">
<ele>685.5</ele>
<speed>12.0</speed>
<course>128.6</course>
<desc>Speed 12.0 km/h Distance 6.05 km</desc>
<time>2011-07-19T20:05:25.40</time>
<name>1004</name>
</trkpt>
<trkpt lat="39.043827" lon="-3.842553">
<ele>686.0</ele>
<speed>14.3</speed>
<course>130.7</course>
<desc>Speed 14.3 km/h Distance 6.05 km</desc>
<time>2011-07-19T20:05:26.42</time>
<name>1005</name>
</trkpt>
<trkpt lat="39.043803" lon="-3.842518">
<ele>686.0</ele>
<speed>14.3</speed>
<course>132.0</course>
<desc>Speed 14.3 km/h Distance 6.05 km</desc>
<time>2011-07-19T20:05:27.41</time>
<name>1006</name>
</trkpt>
<trkpt lat="39.043780" lon="-3.842485">
<ele>686.0</ele>
<speed>14.0</speed>
<course>126.3</course>
<desc>Speed 14.0 km/h Distance 6.06 km</desc>
<time>2011-07-19T20:05:28.42</time>
<name>1007</name>
</trkpt>
<trkpt lat="39.043760" lon="-3.842450">
<ele>686.0</ele>
<speed>14.0</speed>
<course>113.2</course>
<desc>Speed 14.0 km/h Distance 6.06 km</desc>
<time>2011-07-19T20:05:29.41</time>
<name>1008</name>
</trkpt>
<trkpt lat="39.043748" lon="-3.842415">
<ele>685.5</ele>
<speed>11.9</speed>
<course>116.1</course>
<desc>Speed 11.9 km/h Distance 6.07 km</desc>
<time>2011-07-19T20:05:30.41</time>
<name>1009</name>
</trkpt>
<trkpt lat="39.043735" lon="-3.842380">
<ele>685.5</ele>
<speed>12.0</speed>
<course>116.1</course>
<desc>Speed 12.0 km/h Distance 6.07 km</desc>
<time>2011-07-19T20:05:31.41</time>
<name>1010</name>
</trkpt>
<trkpt lat="39.043722" lon="-3.842345">
<ele>685.0</ele>
<speed>12.1</speed>
<course>113.2</course>
<desc>Speed 12.1 km/h Distance 6.07 km</desc>
<time>2011-07-19T20:05:32.40</time>
<name>1011</name>
</trkpt>
<trkpt lat="39.043710" lon="-3.842310">
<ele>685.0</ele>
<speed>12.1</speed>
<course>115.4</course>
<desc>Speed 12.1 km/h Distance 6.08 km</desc>
<time>2011-07-19T20:05:33.41</time>
<name>1012</name>
</trkpt>
<trkpt lat="39.043698" lon="-3.842278">
<ele>685.0</ele>
<speed>11.6</speed>
<course>113.2</course>
<desc>Speed 11.6 km/h Distance 6.08 km</desc>
<time>2011-07-19T20:05:34.41</time>
<name>1013</name>
</trkpt>
<trkpt lat="39.043688" lon="-3.842248">
<ele>685.0</ele>
<speed>11.0</speed>
<course>118.4</course>
<desc>Speed 11.0 km/h Distance 6.08 km</desc>
<time>2011-07-19T20:05:35.40</time>
<name>1014</name>
</trkpt>
<trkpt lat="39.043675" lon="-3.842217">
<ele>684.5</ele>
<speed>11.3</speed>
<course>118.5</course>
<desc>Speed 11.3 km/h Distance 6.08 km</desc>
<time>2011-07-19T20:05:36.40</time>
<name>1015</name>
</trkpt>
<trkpt lat="39.043662" lon="-3.842185">
<ele>684.5</ele>
<speed>11.7</speed>
<course>124.1</course>
<desc>Speed 11.7 km/h Distance 6.09 km</desc>
<time>2011-07-19T20:05:37.41</time>
<name>1016</name>
</trkpt>
<trkpt lat="39.043645" lon="-3.842153">
<ele>684.5</ele>
<speed>12.5</speed>
<course>132.6</course>
<desc>Speed 12.5 km/h Distance 6.09 km</desc>
<time>2011-07-19T20:05:38.40</time>
<name>1017</name>
</trkpt>
<trkpt lat="39.043620" lon="-3.842118">
<ele>685.0</ele>
<speed>15.2</speed>
<course>132.6</course>
<desc>Speed 15.2 km/h Distance 6.10 km</desc>
<time>2011-07-19T20:05:39.41</time>
<name>1018</name>
</trkpt>
<trkpt lat="39.043595" lon="-3.842083">
<ele>685.0</ele>
<speed>15.1</speed>
<course>137.3</course>
<desc>Speed 15.1 km/h Distance 6.10 km</desc>
<time>2011-07-19T20:05:40.41</time>
<name>1019</name>
</trkpt>
<trkpt lat="39.043568" lon="-3.842052">
<ele>685.0</ele>
<speed>14.7</speed>
<course>137.3</course>
<desc>Speed 14.7 km/h Distance 6.10 km</desc>
<time>2011-07-19T20:05:41.41</time>
<name>1020</name>
</trkpt>
<trkpt lat="39.043542" lon="-3.842020">
<ele>685.5</ele>
<speed>14.5</speed>
<course>140.5</course>
<desc>Speed 14.5 km/h Distance 6.11 km</desc>
<time>2011-07-19T20:05:42.41</time>
<name>1021</name>
</trkpt>
<trkpt lat="39.043515" lon="-3.841992">
<ele>685.5</ele>
<speed>13.9</speed>
<course>138.7</course>
<desc>Speed 13.9 km/h Distance 6.11 km</desc>
<time>2011-07-19T20:05:43.42</time>
<name>1022</name>
</trkpt>
<trkpt lat="39.043490" lon="-3.841963">
<ele>685.5</ele>
<speed>14.2</speed>
<course>142.2</course>
<desc>Speed 14.2 km/h Distance 6.12 km</desc>
<time>2011-07-19T20:05:44.41</time>
<name>1023</name>
</trkpt>
<trkpt lat="39.043462" lon="-3.841935">
<ele>686.0</ele>
<speed>14.1</speed>
<course>140.6</course>
<desc>Speed 14.1 km/h Distance 6.12 km</desc>
<time>2011-07-19T20:05:45.40</time>
<name>1024</name>
</trkpt>
<trkpt lat="39.043433" lon="-3.841905">
<ele>686.5</ele>
<speed>14.8</speed>
<course>142.2</course>
<desc>Speed 14.8 km/h Distance 6.12 km</desc>
<time>2011-07-19T20:05:46.41</time>
<name>1025</name>
</trkpt>
<trkpt lat="39.043403" lon="-3.841875">
<ele>686.5</ele>
<speed>15.2</speed>
<course>140.7</course>
<desc>Speed 15.2 km/h Distance 6.13 km</desc>
<time>2011-07-19T20:05:47.41</time>
<name>1026</name>
</trkpt>
<trkpt lat="39.043373" lon="-3.841843">
<ele>686.5</ele>
<speed>15.2</speed>
<course>139.2</course>
<desc>Speed 15.2 km/h Distance 6.13 km</desc>
<time>2011-07-19T20:05:48.41</time>
<name>1027</name>
</trkpt>
<trkpt lat="39.043343" lon="-3.841810">
<ele>687.0</ele>
<speed>15.7</speed>
<course>142.2</course>
<desc>Speed 15.7 km/h Distance 6.14 km</desc>
<time>2011-07-19T20:05:49.40</time>
<name>1028</name>
</trkpt>
<trkpt lat="39.043313" lon="-3.841780">
<ele>687.5</ele>
<speed>15.0</speed>
<course>147.1</course>
<desc>Speed 15.0 km/h Distance 6.14 km</desc>
<time>2011-07-19T20:05:50.41</time>
<name>1029</name>
</trkpt>
<trkpt lat="39.043283" lon="-3.841755">
<ele>687.5</ele>
<speed>14.4</speed>
<course>148.8</course>
<desc>Speed 14.4 km/h Distance 6.14 km</desc>
<time>2011-07-19T20:05:51.41</time>
<name>1030</name>
</trkpt>
<trkpt lat="39.043253" lon="-3.841732">
<ele>688.0</ele>
<speed>14.1</speed>
<course>148.8</course>
<desc>Speed 14.1 km/h Distance 6.15 km</desc>
<time>2011-07-19T20:05:52.41</time>
<name>1031</name>
</trkpt>
<trkpt lat="39.043223" lon="-3.841708">
<ele>688.0</ele>
<speed>14.4</speed>
<course>150.2</course>
<desc>Speed 14.4 km/h Distance 6.15 km</desc>
<time>2011-07-19T20:05:53.41</time>
<name>1032</name>
</trkpt>
<trkpt lat="39.043192" lon="-3.841685">
<ele>688.5</ele>
<speed>14.3</speed>
<course>150.2</course>
<desc>Speed 14.3 km/h Distance 6.16 km</desc>
<time>2011-07-19T20:05:54.40</time>
<name>1033</name>
</trkpt>
<trkpt lat="39.043160" lon="-3.841662">
<ele>688.5</ele>
<speed>14.8</speed>
<course>153.9</course>
<desc>Speed 14.8 km/h Distance 6.16 km</desc>
<time>2011-07-19T20:05:55.41</time>
<name>1034</name>
</trkpt>
<trkpt lat="39.043128" lon="-3.841642">
<ele>689.0</ele>
<speed>14.4</speed>
<course>153.9</course>
<desc>Speed 14.4 km/h Distance 6.16 km</desc>
<time>2011-07-19T20:05:56.41</time>
<name>1035</name>
</trkpt>
<trkpt lat="39.043097" lon="-3.841622">
<ele>689.0</ele>
<speed>14.4</speed>
<course>156.9</course>
<desc>Speed 14.4 km/h Distance 6.17 km</desc>
<time>2011-07-19T20:05:57.41</time>
<name>1036</name>
</trkpt>
<trkpt lat="39.043063" lon="-3.841603">
<ele>689.0</ele>
<speed>14.6</speed>
<course>157.7</course>
<desc>Speed 14.6 km/h Distance 6.17 km</desc>
<time>2011-07-19T20:05:58.40</time>
<name>1037</name>
</trkpt>
<trkpt lat="39.043032" lon="-3.841587">
<ele>689.0</ele>
<speed>14.5</speed>
<course>164.7</course>
<desc>Speed 14.5 km/h Distance 6.18 km</desc>
<time>2011-07-19T20:05:59.41</time>
<name>1038</name>
</trkpt>
<trkpt lat="39.042998" lon="-3.841575">
<ele>689.0</ele>
<speed>14.3</speed>
<course>169.5</course>
<desc>Speed 14.3 km/h Distance 6.18 km</desc>
<time>2011-07-19T20:06:00.40</time>
<name>1039</name>
</trkpt>
<trkpt lat="39.042963" lon="-3.841567">
<ele>689.0</ele>
<speed>14.3</speed>
<course>169.5</course>
<desc>Speed 14.3 km/h Distance 6.18 km</desc>
<time>2011-07-19T20:06:01.40</time>
<name>1040</name>
</trkpt>
<trkpt lat="39.042928" lon="-3.841558">
<ele>688.5</ele>
<speed>14.5</speed>
<course>169.7</course>
<desc>Speed 14.5 km/h Distance 6.19 km</desc>
<time>2011-07-19T20:06:02.40</time>
<name>1041</name>
</trkpt>
<trkpt lat="39.042893" lon="-3.841550">
<ele>688.5</ele>
<speed>14.8</speed>
<course>170.1</course>
<desc>Speed 14.8 km/h Distance 6.19 km</desc>
<time>2011-07-19T20:06:03.41</time>
<name>1042</name>
</trkpt>
<trkpt lat="39.042857" lon="-3.841542">
<ele>688.0</ele>
<speed>15.3</speed>
<course>164.8</course>
<desc>Speed 15.3 km/h Distance 6.20 km</desc>
<time>2011-07-19T20:06:04.40</time>
<name>1043</name>
</trkpt>
<trkpt lat="39.042818" lon="-3.841528">
<ele>688.0</ele>
<speed>16.1</speed>
<course>162.0</course>
<desc>Speed 16.1 km/h Distance 6.20 km</desc>
<time>2011-07-19T20:06:05.40</time>
<name>1044</name>
</trkpt>
<trkpt lat="39.042778" lon="-3.841512">
<ele>687.5</ele>
<speed>16.9</speed>
<course>157.9</course>
<desc>Speed 16.9 km/h Distance 6.20 km</desc>
<time>2011-07-19T20:06:06.41</time>
<name>1045</name>
</trkpt>
<trkpt lat="39.042740" lon="-3.841492">
<ele>687.0</ele>
<speed>17.5</speed>
<course>156.5</course>
<desc>Speed 17.5 km/h Distance 6.21 km</desc>
<time>2011-07-19T20:06:07.40</time>
<name>1046</name>
</trkpt>
<trkpt lat="39.042698" lon="-3.841468">
<ele>687.0</ele>
<speed>18.3</speed>
<course>155.0</course>
<desc>Speed 18.3 km/h Distance 6.21 km</desc>
<time>2011-07-19T20:06:08.41</time>
<name>1047</name>
</trkpt>
<trkpt lat="39.042657" lon="-3.841443">
<ele>686.0</ele>
<speed>18.9</speed>
<course>151.7</course>
<desc>Speed 18.9 km/h Distance 6.22 km</desc>
<time>2011-07-19T20:06:09.40</time>
<name>1048</name>
</trkpt>
<trkpt lat="39.042613" lon="-3.841413">
<ele>685.5</ele>
<speed>20.2</speed>
<course>145.4</course>
<desc>Speed 20.2 km/h Distance 6.23 km</desc>
<time>2011-07-19T20:06:10.40</time>
<name>1049</name>
</trkpt>
<trkpt lat="39.042568" lon="-3.841373">
<ele>685.0</ele>
<speed>21.9</speed>
<course>142.2</course>
<desc>Speed 21.9 km/h Distance 6.23 km</desc>
<time>2011-07-19T20:06:11.40</time>
<name>1050</name>
</trkpt>
<trkpt lat="39.042525" lon="-3.841330">
<ele>685.0</ele>
<speed>22.4</speed>
<course>143.2</course>
<desc>Speed 22.4 km/h Distance 6.24 km</desc>
<time>2011-07-19T20:06:12.41</time>
<name>1051</name>
</trkpt>
<trkpt lat="39.042480" lon="-3.841287">
<ele>685.0</ele>
<speed>22.7</speed>
<course>144.2</course>
<desc>Speed 22.7 km/h Distance 6.24 km</desc>
<time>2011-07-19T20:06:13.40</time>
<name>1052</name>
</trkpt>
<trkpt lat="39.042433" lon="-3.841243">
<ele>684.5</ele>
<speed>23.3</speed>
<course>144.1</course>
<desc>Speed 23.3 km/h Distance 6.25 km</desc>
<time>2011-07-19T20:06:14.40</time>
<name>1053</name>
</trkpt>
<trkpt lat="39.042385" lon="-3.841198">
<ele>684.5</ele>
<speed>24.0</speed>
<course>141.2</course>
<desc>Speed 24.0 km/h Distance 6.26 km</desc>
<time>2011-07-19T20:06:15.40</time>
<name>1054</name>
</trkpt>
<trkpt lat="39.042337" lon="-3.841148">
<ele>684.0</ele>
<speed>25.1</speed>
<course>140.4</course>
<desc>Speed 25.1 km/h Distance 6.26 km</desc>
<time>2011-07-19T20:06:16.41</time>
<name>1055</name>
</trkpt>
<trkpt lat="39.042287" lon="-3.841095">
<ele>683.5</ele>
<speed>26.3</speed>
<course>142.2</course>
<desc>Speed 26.3 km/h Distance 6.27 km</desc>
<time>2011-07-19T20:06:17.40</time>
<name>1056</name>
</trkpt>
<trkpt lat="39.042235" lon="-3.841043">
<ele>683.0</ele>
<speed>26.2</speed>
<course>142.2</course>
<desc>Speed 26.2 km/h Distance 6.28 km</desc>
<time>2011-07-19T20:06:18.41</time>
<name>1057</name>
</trkpt>
<trkpt lat="39.042183" lon="-3.840992">
<ele>683.0</ele>
<speed>26.9</speed>
<course>140.5</course>
<desc>Speed 26.9 km/h Distance 6.29 km</desc>
<time>2011-07-19T20:06:19.40</time>
<name>1058</name>
</trkpt>
<trkpt lat="39.042130" lon="-3.840935">
<ele>682.5</ele>
<speed>27.7</speed>
<course>140.5</course>
<desc>Speed 27.7 km/h Distance 6.29 km</desc>
<time>2011-07-19T20:06:20.40</time>
<name>1059</name>
</trkpt>
<trkpt lat="39.042075" lon="-3.840877">
<ele>682.0</ele>
<speed>28.7</speed>
<course>139.0</course>
<desc>Speed 28.7 km/h Distance 6.30 km</desc>
<time>2011-07-19T20:06:21.40</time>
<name>1060</name>
</trkpt>
<trkpt lat="39.042020" lon="-3.840815">
<ele>681.5</ele>
<speed>29.8</speed>
<course>138.3</course>
<desc>Speed 29.8 km/h Distance 6.31 km</desc>
<time>2011-07-19T20:06:22.41</time>
<name>1061</name>
</trkpt>
<trkpt lat="39.041963" lon="-3.840750">
<ele>681.0</ele>
<speed>30.5</speed>
<course>136.9</course>
<desc>Speed 30.5 km/h Distance 6.32 km</desc>
<time>2011-07-19T20:06:23.41</time>
<name>1062</name>
</trkpt>
<trkpt lat="39.041907" lon="-3.840682">
<ele>680.0</ele>
<speed>31.6</speed>
<course>136.5</course>
<desc>Speed 31.6 km/h Distance 6.33 km</desc>
<time>2011-07-19T20:06:24.40</time>
<name>1063</name>
</trkpt>
<trkpt lat="39.041847" lon="-3.840608">
<ele>680.0</ele>
<speed>33.0</speed>
<course>135.0</course>
<desc>Speed 33.0 km/h Distance 6.34 km</desc>
<time>2011-07-19T20:06:25.40</time>
<name>1064</name>
</trkpt>
<trkpt lat="39.041788" lon="-3.840533">
<ele>679.5</ele>
<speed>33.7</speed>
<course>133.0</course>
<desc>Speed 33.7 km/h Distance 6.34 km</desc>
<time>2011-07-19T20:06:26.40</time>
<name>1065</name>
</trkpt>
<trkpt lat="39.041732" lon="-3.840455">
<ele>679.0</ele>
<speed>33.1</speed>
<course>129.1</course>
<desc>Speed 33.1 km/h Distance 6.35 km</desc>
<time>2011-07-19T20:06:27.40</time>
<name>1066</name>
</trkpt>
<trkpt lat="39.041683" lon="-3.840378">
<ele>678.5</ele>
<speed>31.0</speed>
<course>128.5</course>
<desc>Speed 31.0 km/h Distance 6.36 km</desc>
<time>2011-07-19T20:06:28.40</time>
<name>1067</name>
</trkpt>
<trkpt lat="39.041635" lon="-3.840300">
<ele>678.0</ele>
<speed>31.1</speed>
<course>126.9</course>
<desc>Speed 31.1 km/h Distance 6.37 km</desc>
<time>2011-07-19T20:06:29.40</time>
<name>1068</name>
</trkpt>
<trkpt lat="39.041588" lon="-3.840220">
<ele>677.5</ele>
<speed>31.4</speed>
<course>128.5</course>
<desc>Speed 31.4 km/h Distance 6.38 km</desc>
<time>2011-07-19T20:06:30.41</time>
<name>1069</name>
</trkpt>
<trkpt lat="39.041540" lon="-3.840142">
<ele>677.5</ele>
<speed>31.1</speed>
<course>128.7</course>
<desc>Speed 31.1 km/h Distance 6.39 km</desc>
<time>2011-07-19T20:06:31.40</time>
<name>1070</name>
</trkpt>
<trkpt lat="39.041493" lon="-3.840067">
<ele>677.0</ele>
<speed>30.0</speed>
<course>128.3</course>
<desc>Speed 30.0 km/h Distance 6.40 km</desc>
<time>2011-07-19T20:06:32.40</time>
<name>1071</name>
</trkpt>
<trkpt lat="39.041448" lon="-3.839993">
<ele>677.0</ele>
<speed>29.4</speed>
<course>129.3</course>
<desc>Speed 29.4 km/h Distance 6.40 km</desc>
<time>2011-07-19T20:06:33.40</time>
<name>1072</name>
</trkpt>
<trkpt lat="39.041402" lon="-3.839920">
<ele>677.0</ele>
<speed>29.4</speed>
<course>129.3</course>
<desc>Speed 29.4 km/h Distance 6.41 km</desc>
<time>2011-07-19T20:06:34.41</time>
<name>1073</name>
</trkpt>
<trkpt lat="39.041355" lon="-3.839847">
<ele>676.5</ele>
<speed>29.2</speed>
<course>126.2</course>
<desc>Speed 29.2 km/h Distance 6.42 km</desc>
<time>2011-07-19T20:06:35.40</time>
<name>1074</name>
</trkpt>
<trkpt lat="39.041313" lon="-3.839773">
<ele>676.5</ele>
<speed>28.4</speed>
<course>126.8</course>
<desc>Speed 28.4 km/h Distance 6.43 km</desc>
<time>2011-07-19T20:06:36.40</time>
<name>1075</name>
</trkpt>
<trkpt lat="39.041272" lon="-3.839702">
<ele>676.5</ele>
<speed>28.4</speed>
<course>127.3</course>
<desc>Speed 28.4 km/h Distance 6.44 km</desc>
<time>2011-07-19T20:06:37.40</time>
<name>1076</name>
</trkpt>
<trkpt lat="39.041228" lon="-3.839628">
<ele>676.5</ele>
<speed>28.9</speed>
<course>119.2</course>
<desc>Speed 28.9 km/h Distance 6.44 km</desc>
<time>2011-07-19T20:06:38.41</time>
<name>1077</name>
</trkpt>
<trkpt lat="39.041195" lon="-3.839552">
<ele>676.5</ele>
<speed>27.3</speed>
<course>119.2</course>
<desc>Speed 27.3 km/h Distance 6.45 km</desc>
<time>2011-07-19T20:06:39.40</time>
<name>1078</name>
</trkpt>
<trkpt lat="39.041162" lon="-3.839475">
<ele>676.5</ele>
<speed>27.5</speed>
<course>119.2</course>
<desc>Speed 27.5 km/h Distance 6.46 km</desc>
<time>2011-07-19T20:06:40.40</time>
<name>1079</name>
</trkpt>
<trkpt lat="39.041128" lon="-3.839398">
<ele>676.5</ele>
<speed>27.4</speed>
<course>121.0</course>
<desc>Speed 27.4 km/h Distance 6.47 km</desc>
<time>2011-07-19T20:06:41.40</time>
<name>1080</name>
</trkpt>
<trkpt lat="39.041093" lon="-3.839323">
<ele>676.5</ele>
<speed>27.1</speed>
<course>121.6</course>
<desc>Speed 27.1 km/h Distance 6.47 km</desc>
<time>2011-07-19T20:06:42.40</time>
<name>1081</name>
</trkpt>
<trkpt lat="39.041058" lon="-3.839250">
<ele>676.5</ele>
<speed>27.0</speed>
<course>120.4</course>
<desc>Speed 27.0 km/h Distance 6.48 km</desc>
<time>2011-07-19T20:06:43.42</time>
<name>1082</name>
</trkpt>
<trkpt lat="39.041023" lon="-3.839173">
<ele>676.0</ele>
<speed>27.8</speed>
<course>121.6</course>
<desc>Speed 27.8 km/h Distance 6.49 km</desc>
<time>2011-07-19T20:06:44.40</time>
<name>1083</name>
</trkpt>
<trkpt lat="39.040987" lon="-3.839097">
<ele>676.0</ele>
<speed>28.3</speed>
<course>120.4</course>
<desc>Speed 28.3 km/h Distance 6.50 km</desc>
<time>2011-07-19T20:06:45.40</time>
<name>1084</name>
</trkpt>
<trkpt lat="39.040952" lon="-3.839020">
<ele>676.0</ele>
<speed>28.0</speed>
<course>121.0</course>
<desc>Speed 28.0 km/h Distance 6.51 km</desc>
<time>2011-07-19T20:06:46.40</time>
<name>1085</name>
</trkpt>
<trkpt lat="39.040917" lon="-3.838945">
<ele>675.5</ele>
<speed>27.2</speed>
<course>124.0</course>
<desc>Speed 27.2 km/h Distance 6.51 km</desc>
<time>2011-07-19T20:06:47.40</time>
<name>1086</name>
</trkpt>
<trkpt lat="39.040880" lon="-3.838875">
<ele>675.5</ele>
<speed>26.3</speed>
<course>124.0</course>
<desc>Speed 26.3 km/h Distance 6.52 km</desc>
<time>2011-07-19T20:06:48.40</time>
<name>1087</name>
</trkpt>
<trkpt lat="39.040843" lon="-3.838805">
<ele>675.0</ele>
<speed>26.4</speed>
<course>122.2</course>
<desc>Speed 26.4 km/h Distance 6.53 km</desc>
<time>2011-07-19T20:06:49.40</time>
<name>1088</name>
</trkpt>
<trkpt lat="39.040808" lon="-3.838733">
<ele>675.0</ele>
<speed>26.9</speed>
<course>123.4</course>
<desc>Speed 26.9 km/h Distance 6.54 km</desc>
<time>2011-07-19T20:06:50.40</time>
<name>1089</name>
</trkpt>
<trkpt lat="39.040772" lon="-3.838662">
<ele>675.0</ele>
<speed>27.1</speed>
<course>122.2</course>
<desc>Speed 27.1 km/h Distance 6.54 km</desc>
<time>2011-07-19T20:06:51.40</time>
<name>1090</name>
</trkpt>
<trkpt lat="39.040737" lon="-3.838590">
<ele>674.5</ele>
<speed>26.7</speed>
<course>124.0</course>
<desc>Speed 26.7 km/h Distance 6.55 km</desc>
<time>2011-07-19T20:06:52.40</time>
<name>1091</name>
</trkpt>
<trkpt lat="39.040700" lon="-3.838520">
<ele>674.5</ele>
<speed>26.6</speed>
<course>122.8</course>
<desc>Speed 26.6 km/h Distance 6.56 km</desc>
<time>2011-07-19T20:06:53.40</time>
<name>1092</name>
</trkpt>
<trkpt lat="39.040665" lon="-3.838450">
<ele>674.5</ele>
<speed>26.2</speed>
<course>126.0</course>
<desc>Speed 26.2 km/h Distance 6.56 km</desc>
<time>2011-07-19T20:06:54.41</time>
<name>1093</name>
</trkpt>
<trkpt lat="39.040628" lon="-3.838385">
<ele>674.5</ele>
<speed>25.5</speed>
<course>127.2</course>
<desc>Speed 25.5 km/h Distance 6.57 km</desc>
<time>2011-07-19T20:06:55.40</time>
<name>1094</name>
</trkpt>
<trkpt lat="39.040590" lon="-3.838320">
<ele>674.0</ele>
<speed>26.0</speed>
<course>127.0</course>
<desc>Speed 26.0 km/h Distance 6.58 km</desc>
<time>2011-07-19T20:06:56.40</time>
<name>1095</name>
</trkpt>
<trkpt lat="39.040550" lon="-3.838252">
<ele>674.0</ele>
<speed>26.6</speed>
<course>127.0</course>
<desc>Speed 26.6 km/h Distance 6.59 km</desc>
<time>2011-07-19T20:06:57.40</time>
<name>1096</name>
</trkpt>
<trkpt lat="39.040510" lon="-3.838183">
<ele>673.5</ele>
<speed>26.9</speed>
<course>127.5</course>
<desc>Speed 26.9 km/h Distance 6.59 km</desc>
<time>2011-07-19T20:06:58.40</time>
<name>1097</name>
</trkpt>
<trkpt lat="39.040468" lon="-3.838113">
<ele>673.0</ele>
<speed>27.6</speed>
<course>126.8</course>
<desc>Speed 27.6 km/h Distance 6.60 km</desc>
<time>2011-07-19T20:06:59.40</time>
<name>1098</name>
</trkpt>
<trkpt lat="39.040427" lon="-3.838042">
<ele>673.0</ele>
<speed>28.4</speed>
<course>127.9</course>
<desc>Speed 28.4 km/h Distance 6.61 km</desc>
<time>2011-07-19T20:07:00.40</time>
<name>1099</name>
</trkpt>
<trkpt lat="39.040383" lon="-3.837970">
<ele>672.5</ele>
<speed>28.5</speed>
<course>129.6</course>
<desc>Speed 28.5 km/h Distance 6.62 km</desc>
<time>2011-07-19T20:07:01.40</time>
<name>1100</name>
</trkpt>
<trkpt lat="39.040338" lon="-3.837900">
<ele>672.0</ele>
<speed>28.3</speed>
<course>134.2</course>
<desc>Speed 28.3 km/h Distance 6.62 km</desc>
<time>2011-07-19T20:07:02.40</time>
<name>1101</name>
</trkpt>
<trkpt lat="39.040287" lon="-3.837832">
<ele>672.0</ele>
<speed>29.9</speed>
<course>137.4</course>
<desc>Speed 29.9 km/h Distance 6.63 km</desc>
<time>2011-07-19T20:07:03.40</time>
<name>1102</name>
</trkpt>
<trkpt lat="39.040232" lon="-3.837767">
<ele>671.5</ele>
<speed>29.8</speed>
<course>138.9</course>
<desc>Speed 29.8 km/h Distance 6.64 km</desc>
<time>2011-07-19T20:07:04.40</time>
<name>1103</name>
</trkpt>
<trkpt lat="39.040178" lon="-3.837707">
<ele>671.5</ele>
<speed>28.9</speed>
<course>143.8</course>
<desc>Speed 28.9 km/h Distance 6.65 km</desc>
<time>2011-07-19T20:07:05.40</time>
<name>1104</name>
</trkpt>
<trkpt lat="39.040120" lon="-3.837652">
<ele>671.0</ele>
<speed>29.5</speed>
<course>144.6</course>
<desc>Speed 29.5 km/h Distance 6.66 km</desc>
<time>2011-07-19T20:07:06.40</time>
<name>1105</name>
</trkpt>
<trkpt lat="39.040060" lon="-3.837597">
<ele>671.0</ele>
<speed>29.4</speed>
<course>145.4</course>
<desc>Speed 29.4 km/h Distance 6.66 km</desc>
<time>2011-07-19T20:07:07.40</time>
<name>1106</name>
</trkpt>
<trkpt lat="39.040000" lon="-3.837543">
<ele>670.5</ele>
<speed>29.2</speed>
<course>142.2</course>
<desc>Speed 29.2 km/h Distance 6.67 km</desc>
<time>2011-07-19T20:07:08.40</time>
<name>1107</name>
</trkpt>
<trkpt lat="39.039942" lon="-3.837485">
<ele>670.5</ele>
<speed>29.4</speed>
<course>140.6</course>
<desc>Speed 29.4 km/h Distance 6.68 km</desc>
<time>2011-07-19T20:07:09.40</time>
<name>1108</name>
</trkpt>
<trkpt lat="39.039885" lon="-3.837425">
<ele>670.0</ele>
<speed>29.7</speed>
<course>145.4</course>
<desc>Speed 29.7 km/h Distance 6.69 km</desc>
<time>2011-07-19T20:07:10.40</time>
<name>1109</name>
</trkpt>
<trkpt lat="39.039825" lon="-3.837372">
<ele>670.0</ele>
<speed>29.3</speed>
<course>152.0</course>
<desc>Speed 29.3 km/h Distance 6.70 km</desc>
<time>2011-07-19T20:07:11.40</time>
<name>1110</name>
</trkpt>
<trkpt lat="39.039762" lon="-3.837328">
<ele>670.0</ele>
<speed>29.0</speed>
<course>158.8</course>
<desc>Speed 29.0 km/h Distance 6.71 km</desc>
<time>2011-07-19T20:07:12.40</time>
<name>1111</name>
</trkpt>
<trkpt lat="39.039695" lon="-3.837295">
<ele>669.5</ele>
<speed>28.7</speed>
<course>160.7</course>
<desc>Speed 28.7 km/h Distance 6.71 km</desc>
<time>2011-07-19T20:07:13.40</time>
<name>1112</name>
</trkpt>
<trkpt lat="39.039628" lon="-3.837265">
<ele>669.5</ele>
<speed>29.1</speed>
<course>161.7</course>
<desc>Speed 29.1 km/h Distance 6.72 km</desc>
<time>2011-07-19T20:07:14.40</time>
<name>1113</name>
</trkpt>
<trkpt lat="39.039562" lon="-3.837237">
<ele>669.5</ele>
<speed>29.0</speed>
<course>160.7</course>
<desc>Speed 29.0 km/h Distance 6.73 km</desc>
<time>2011-07-19T20:07:15.40</time>
<name>1114</name>
</trkpt>
<trkpt lat="39.039495" lon="-3.837207">
<ele>669.0</ele>
<speed>28.4</speed>
<course>159.3</course>
<desc>Speed 28.4 km/h Distance 6.74 km</desc>
<time>2011-07-19T20:07:16.40</time>
<name>1115</name>
</trkpt>
<trkpt lat="39.039430" lon="-3.837175">
<ele>669.0</ele>
<speed>28.2</speed>
<course>159.3</course>
<desc>Speed 28.2 km/h Distance 6.74 km</desc>
<time>2011-07-19T20:07:17.40</time>
<name>1116</name>
</trkpt>
<trkpt lat="39.039365" lon="-3.837143">
<ele>669.0</ele>
<speed>27.8</speed>
<course>157.2</course>
<desc>Speed 27.8 km/h Distance 6.75 km</desc>
<time>2011-07-19T20:07:18.40</time>
<name>1117</name>
</trkpt>
<trkpt lat="39.039303" lon="-3.837110">
<ele>669.0</ele>
<speed>27.3</speed>
<course>150.0</course>
<desc>Speed 27.3 km/h Distance 6.76 km</desc>
<time>2011-07-19T20:07:19.40</time>
<name>1118</name>
</trkpt>
<trkpt lat="39.039245" lon="-3.837067">
<ele>668.5</ele>
<speed>26.9</speed>
<course>151.0</course>
<desc>Speed 26.9 km/h Distance 6.77 km</desc>
<time>2011-07-19T20:07:20.40</time>
<name>1119</name>
</trkpt>
<trkpt lat="39.039198" lon="-3.837033">
<ele>668.5</ele>
<speed>21.5</speed>
<course>164.8</course>
<desc>Speed 21.5 km/h Distance 6.77 km</desc>
<time>2011-07-19T20:07:21.39</time>
<name>1120</name>
</trkpt>
<trkpt lat="39.039160" lon="-3.837020">
<ele>668.0</ele>
<speed>16.5</speed>
<course>179.1</course>
<desc>Speed 16.5 km/h Distance 6.78 km</desc>
<time>2011-07-19T20:07:22.40</time>
<name>1121</name>
</trkpt>
<trkpt lat="39.039128" lon="-3.837020">
<ele>668.5</ele>
<speed>13.0</speed>
<course>211.4</course>
<desc>Speed 13.0 km/h Distance 6.78 km</desc>
<time>2011-07-19T20:07:23.40</time>
<name>1122</name>
</trkpt>
<trkpt lat="39.039105" lon="-3.837038">
<ele>669.0</ele>
<speed>11.9</speed>
<course>236.0</course>
<desc>Speed 11.9 km/h Distance 6.78 km</desc>
<time>2011-07-19T20:07:24.40</time>
<name>1123</name>
</trkpt>
<trkpt lat="39.039087" lon="-3.837073">
<ele>668.5</ele>
<speed>13.3</speed>
<course>234.0</course>
<desc>Speed 13.3 km/h Distance 6.79 km</desc>
<time>2011-07-19T20:07:25.40</time>
<name>1124</name>
</trkpt>
<trkpt lat="39.039065" lon="-3.837112">
<ele>668.5</ele>
<speed>15.2</speed>
<course>237.2</course>
<desc>Speed 15.2 km/h Distance 6.79 km</desc>
<time>2011-07-19T20:07:26.40</time>
<name>1125</name>
</trkpt>
<trkpt lat="39.039043" lon="-3.837155">
<ele>668.5</ele>
<speed>16.9</speed>
<course>244.2</course>
<desc>Speed 16.9 km/h Distance 6.80 km</desc>
<time>2011-07-19T20:07:27.40</time>
<name>1126</name>
</trkpt>
<trkpt lat="39.039023" lon="-3.837208">
<ele>668.5</ele>
<speed>18.3</speed>
<course>247.4</course>
<desc>Speed 18.3 km/h Distance 6.80 km</desc>
<time>2011-07-19T20:07:28.40</time>
<name>1127</name>
</trkpt>
<trkpt lat="39.039005" lon="-3.837265">
<ele>668.5</ele>
<speed>19.3</speed>
<course>245.6</course>
<desc>Speed 19.3 km/h Distance 6.81 km</desc>
<time>2011-07-19T20:07:29.40</time>
<name>1128</name>
</trkpt>
<trkpt lat="39.038985" lon="-3.837322">
<ele>668.5</ele>
<speed>19.4</speed>
<course>249.1</course>
<desc>Speed 19.4 km/h Distance 6.81 km</desc>
<time>2011-07-19T20:07:30.40</time>
<name>1129</name>
</trkpt>
<trkpt lat="39.038967" lon="-3.837383">
<ele>668.5</ele>
<speed>20.5</speed>
<course>247.3</course>
<desc>Speed 20.5 km/h Distance 6.82 km</desc>
<time>2011-07-19T20:07:31.40</time>
<name>1130</name>
</trkpt>
<trkpt lat="39.038947" lon="-3.837445">
<ele>668.0</ele>
<speed>21.3</speed>
<course>241.8</course>
<desc>Speed 21.3 km/h Distance 6.82 km</desc>
<time>2011-07-19T20:07:32.40</time>
<name>1131</name>
</trkpt>
<trkpt lat="39.038922" lon="-3.837505">
<ele>668.0</ele>
<speed>21.5</speed>
<course>239.4</course>
<desc>Speed 21.5 km/h Distance 6.83 km</desc>
<time>2011-07-19T20:07:33.40</time>
<name>1132</name>
</trkpt>
<trkpt lat="39.038893" lon="-3.837567">
<ele>668.5</ele>
<speed>22.1</speed>
<course>240.2</course>
<desc>Speed 22.1 km/h Distance 6.84 km</desc>
<time>2011-07-19T20:07:34.40</time>
<name>1133</name>
</trkpt>
<trkpt lat="39.038867" lon="-3.837627">
<ele>668.5</ele>
<speed>22.1</speed>
<course>237.2</course>
<desc>Speed 22.1 km/h Distance 6.84 km</desc>
<time>2011-07-19T20:07:35.40</time>
<name>1134</name>
</trkpt>
<trkpt lat="39.038837" lon="-3.837687">
<ele>668.5</ele>
<speed>22.0</speed>
<course>238.0</course>
<desc>Speed 22.0 km/h Distance 6.85 km</desc>
<time>2011-07-19T20:07:36.40</time>
<name>1135</name>
</trkpt>
<trkpt lat="39.038808" lon="-3.837745">
<ele>669.0</ele>
<speed>21.9</speed>
<course>237.2</course>
<desc>Speed 21.9 km/h Distance 6.85 km</desc>
<time>2011-07-19T20:07:37.40</time>
<name>1136</name>
</trkpt>
<trkpt lat="39.038778" lon="-3.837805">
<ele>669.0</ele>
<speed>21.9</speed>
<course>238.7</course>
<desc>Speed 21.9 km/h Distance 6.86 km</desc>
<time>2011-07-19T20:07:38.40</time>
<name>1137</name>
</trkpt>
<trkpt lat="39.038750" lon="-3.837865">
<ele>669.0</ele>
<speed>22.0</speed>
<course>237.2</course>
<desc>Speed 22.0 km/h Distance 6.87 km</desc>
<time>2011-07-19T20:07:39.40</time>
<name>1138</name>
</trkpt>
<trkpt lat="39.038720" lon="-3.837925">
<ele>669.0</ele>
<speed>22.0</speed>
<course>238.7</course>
<desc>Speed 22.0 km/h Distance 6.87 km</desc>
<time>2011-07-19T20:07:40.40</time>
<name>1139</name>
</trkpt>
<trkpt lat="39.038692" lon="-3.837985">
<ele>669.0</ele>
<speed>22.0</speed>
<course>239.4</course>
<desc>Speed 22.0 km/h Distance 6.88 km</desc>
<time>2011-07-19T20:07:41.40</time>
<name>1140</name>
</trkpt>
<trkpt lat="39.038663" lon="-3.838047">
<ele>669.0</ele>
<speed>22.3</speed>
<course>237.9</course>
<desc>Speed 22.3 km/h Distance 6.88 km</desc>
<time>2011-07-19T20:07:42.40</time>
<name>1141</name>
</trkpt>
<trkpt lat="39.038633" lon="-3.838108">
<ele>669.0</ele>
<speed>22.5</speed>
<course>235.8</course>
<desc>Speed 22.5 km/h Distance 6.89 km</desc>
<time>2011-07-19T20:07:43.42</time>
<name>1142</name>
</trkpt>
<trkpt lat="39.038602" lon="-3.838168">
<ele>669.5</ele>
<speed>22.6</speed>
<course>235.2</course>
<desc>Speed 22.6 km/h Distance 6.90 km</desc>
<time>2011-07-19T20:07:44.40</time>
<name>1143</name>
</trkpt>
<trkpt lat="39.038568" lon="-3.838230">
<ele>669.0</ele>
<speed>23.1</speed>
<course>237.2</course>
<desc>Speed 23.1 km/h Distance 6.90 km</desc>
<time>2011-07-19T20:07:45.40</time>
<name>1144</name>
</trkpt>
<trkpt lat="39.038537" lon="-3.838293">
<ele>669.5</ele>
<speed>23.4</speed>
<course>234.4</course>
<desc>Speed 23.4 km/h Distance 6.91 km</desc>
<time>2011-07-19T20:07:46.40</time>
<name>1145</name>
</trkpt>
<trkpt lat="39.038503" lon="-3.838353">
<ele>669.5</ele>
<speed>22.8</speed>
<course>233.7</course>
<desc>Speed 22.8 km/h Distance 6.92 km</desc>
<time>2011-07-19T20:07:47.40</time>
<name>1146</name>
</trkpt>
<trkpt lat="39.038470" lon="-3.838412">
<ele>669.5</ele>
<speed>22.5</speed>
<course>230.7</course>
<desc>Speed 22.5 km/h Distance 6.92 km</desc>
<time>2011-07-19T20:07:48.40</time>
<name>1147</name>
</trkpt>
<trkpt lat="39.038435" lon="-3.838467">
<ele>669.5</ele>
<speed>22.2</speed>
<course>232.0</course>
<desc>Speed 22.2 km/h Distance 6.93 km</desc>
<time>2011-07-19T20:07:49.40</time>
<name>1148</name>
</trkpt>
<trkpt lat="39.038402" lon="-3.838522">
<ele>669.5</ele>
<speed>22.0</speed>
<course>235.7</course>
<desc>Speed 22.0 km/h Distance 6.94 km</desc>
<time>2011-07-19T20:07:50.40</time>
<name>1149</name>
</trkpt>
<trkpt lat="39.038372" lon="-3.838578">
<ele>669.5</ele>
<speed>21.2</speed>
<course>238.8</course>
<desc>Speed 21.2 km/h Distance 6.94 km</desc>
<time>2011-07-19T20:07:51.40</time>
<name>1150</name>
</trkpt>
<trkpt lat="39.038345" lon="-3.838635">
<ele>669.5</ele>
<speed>20.8</speed>
<course>235.6</course>
<desc>Speed 20.8 km/h Distance 6.95 km</desc>
<time>2011-07-19T20:07:52.40</time>
<name>1151</name>
</trkpt>
<trkpt lat="39.038317" lon="-3.838688">
<ele>669.5</ele>
<speed>20.0</speed>
<course>234.1</course>
<desc>Speed 20.0 km/h Distance 6.95 km</desc>
<time>2011-07-19T20:07:53.39</time>
<name>1152</name>
</trkpt>
<trkpt lat="39.038287" lon="-3.838742">
<ele>669.5</ele>
<speed>20.7</speed>
<course>238.0</course>
<desc>Speed 20.7 km/h Distance 6.96 km</desc>
<time>2011-07-19T20:07:54.40</time>
<name>1153</name>
</trkpt>
<trkpt lat="39.038258" lon="-3.838800">
<ele>670.0</ele>
<speed>21.7</speed>
<course>237.9</course>
<desc>Speed 21.7 km/h Distance 6.96 km</desc>
<time>2011-07-19T20:07:55.40</time>
<name>1154</name>
</trkpt>
<trkpt lat="39.038228" lon="-3.838862">
<ele>669.5</ele>
<speed>22.5</speed>
<course>237.2</course>
<desc>Speed 22.5 km/h Distance 6.97 km</desc>
<time>2011-07-19T20:07:56.40</time>
<name>1155</name>
</trkpt>
<trkpt lat="39.038197" lon="-3.838925">
<ele>669.5</ele>
<speed>23.3</speed>
<course>236.6</course>
<desc>Speed 23.3 km/h Distance 6.98 km</desc>
<time>2011-07-19T20:07:57.40</time>
<name>1156</name>
</trkpt>
<trkpt lat="39.038163" lon="-3.838990">
<ele>669.5</ele>
<speed>24.6</speed>
<course>237.9</course>
<desc>Speed 24.6 km/h Distance 6.98 km</desc>
<time>2011-07-19T20:07:58.40</time>
<name>1157</name>
</trkpt>
<trkpt lat="39.038130" lon="-3.839058">
<ele>669.5</ele>
<speed>25.3</speed>
<course>235.4</course>
<desc>Speed 25.3 km/h Distance 6.99 km</desc>
<time>2011-07-19T20:07:59.40</time>
<name>1158</name>
</trkpt>
<trkpt lat="39.038093" lon="-3.839127">
<ele>670.0</ele>
<speed>25.6</speed>
<course>237.2</course>
<desc>Speed 25.6 km/h Distance 7.00 km</desc>
<time>2011-07-19T20:08:00.40</time>
<name>1159</name>
</trkpt>
<trkpt lat="39.038058" lon="-3.839197">
<ele>669.5</ele>
<speed>25.9</speed>
<course>237.8</course>
<desc>Speed 25.9 km/h Distance 7.00 km</desc>
<time>2011-07-19T20:08:01.40</time>
<name>1160</name>
</trkpt>
<trkpt lat="39.038023" lon="-3.839268">
<ele>669.5</ele>
<speed>26.2</speed>
<course>236.0</course>
<desc>Speed 26.2 km/h Distance 7.01 km</desc>
<time>2011-07-19T20:08:02.39</time>
<name>1161</name>
</trkpt>
<trkpt lat="39.037987" lon="-3.839338">
<ele>669.5</ele>
<speed>26.8</speed>
<course>237.2</course>
<desc>Speed 26.8 km/h Distance 7.02 km</desc>
<time>2011-07-19T20:08:03.40</time>
<name>1162</name>
</trkpt>
<trkpt lat="39.037950" lon="-3.839412">
<ele>669.5</ele>
<speed>27.1</speed>
<course>235.4</course>
<desc>Speed 27.1 km/h Distance 7.03 km</desc>
<time>2011-07-19T20:08:04.40</time>
<name>1163</name>
</trkpt>
<trkpt lat="39.037912" lon="-3.839483">
<ele>669.5</ele>
<speed>27.3</speed>
<course>237.2</course>
<desc>Speed 27.3 km/h Distance 7.03 km</desc>
<time>2011-07-19T20:08:05.40</time>
<name>1164</name>
</trkpt>
<trkpt lat="39.037875" lon="-3.839557">
<ele>669.5</ele>
<speed>27.3</speed>
<course>237.2</course>
<desc>Speed 27.3 km/h Distance 7.04 km</desc>
<time>2011-07-19T20:08:06.40</time>
<name>1165</name>
</trkpt>
<trkpt lat="39.037838" lon="-3.839630">
<ele>669.5</ele>
<speed>27.5</speed>
<course>237.8</course>
<desc>Speed 27.5 km/h Distance 7.05 km</desc>
<time>2011-07-19T20:08:07.40</time>
<name>1166</name>
</trkpt>
<trkpt lat="39.037802" lon="-3.839705">
<ele>669.5</ele>
<speed>27.6</speed>
<course>236.1</course>
<desc>Speed 27.6 km/h Distance 7.06 km</desc>
<time>2011-07-19T20:08:08.40</time>
<name>1167</name>
</trkpt>
<trkpt lat="39.037763" lon="-3.839778">
<ele>669.5</ele>
<speed>27.8</speed>
<course>236.7</course>
<desc>Speed 27.8 km/h Distance 7.06 km</desc>
<time>2011-07-19T20:08:09.41</time>
<name>1168</name>
</trkpt>
<trkpt lat="39.037725" lon="-3.839853">
<ele>669.5</ele>
<speed>27.6</speed>
<course>234.9</course>
<desc>Speed 27.6 km/h Distance 7.07 km</desc>
<time>2011-07-19T20:08:10.39</time>
<name>1169</name>
</trkpt>
<trkpt lat="39.037685" lon="-3.839927">
<ele>669.5</ele>
<speed>27.6</speed>
<course>235.4</course>
<desc>Speed 27.6 km/h Distance 7.08 km</desc>
<time>2011-07-19T20:08:11.38</time>
<name>1170</name>
</trkpt>
<trkpt lat="39.037647" lon="-3.839998">
<ele>669.5</ele>
<speed>27.4</speed>
<course>234.8</course>
<desc>Speed 27.4 km/h Distance 7.09 km</desc>
<time>2011-07-19T20:08:12.39</time>
<name>1171</name>
</trkpt>
<trkpt lat="39.037608" lon="-3.840068">
<ele>669.5</ele>
<speed>27.0</speed>
<course>237.0</course>
<desc>Speed 27.0 km/h Distance 7.10 km</desc>
<time>2011-07-19T20:08:13.38</time>
<name>1172</name>
</trkpt>
<trkpt lat="39.037498" lon="-3.840287">
<ele>669.5</ele>
<speed>27.1</speed>
<course>237.2</course>
<desc>Speed 27.1 km/h Distance 7.12 km</desc>
<time>2011-07-19T20:08:15.76</time>
<name>1173</name>
</trkpt>
<trkpt lat="39.037462" lon="-3.840360">
<ele>669.5</ele>
<speed>27.3</speed>
<course>239.6</course>
<desc>Speed 27.3 km/h Distance 7.13 km</desc>
<time>2011-07-19T20:08:16.76</time>
<name>1174</name>
</trkpt>
<trkpt lat="39.037427" lon="-3.840437">
<ele>669.0</ele>
<speed>27.6</speed>
<course>238.4</course>
<desc>Speed 27.6 km/h Distance 7.13 km</desc>
<time>2011-07-19T20:08:17.76</time>
<name>1175</name>
</trkpt>
<trkpt lat="39.037390" lon="-3.840513">
<ele>669.0</ele>
<speed>28.0</speed>
<course>238.4</course>
<desc>Speed 28.0 km/h Distance 7.14 km</desc>
<time>2011-07-19T20:08:18.76</time>
<name>1176</name>
</trkpt>
<trkpt lat="39.037353" lon="-3.840590">
<ele>669.0</ele>
<speed>28.0</speed>
<course>238.9</course>
<desc>Speed 28.0 km/h Distance 7.15 km</desc>
<time>2011-07-19T20:08:19.76</time>
<name>1177</name>
</trkpt>
<trkpt lat="39.037317" lon="-3.840668">
<ele>669.0</ele>
<speed>28.3</speed>
<course>240.1</course>
<desc>Speed 28.3 km/h Distance 7.16 km</desc>
<time>2011-07-19T20:08:20.75</time>
<name>1178</name>
</trkpt>
<trkpt lat="39.037282" lon="-3.840747">
<ele>669.0</ele>
<speed>28.3</speed>
<course>241.3</course>
<desc>Speed 28.3 km/h Distance 7.16 km</desc>
<time>2011-07-19T20:08:21.76</time>
<name>1179</name>
</trkpt>
<trkpt lat="39.037248" lon="-3.840825">
<ele>669.0</ele>
<speed>28.2</speed>
<course>243.5</course>
<desc>Speed 28.2 km/h Distance 7.17 km</desc>
<time>2011-07-19T20:08:22.76</time>
<name>1180</name>
</trkpt>
<trkpt lat="39.037217" lon="-3.840907">
<ele>669.0</ele>
<speed>28.2</speed>
<course>245.9</course>
<desc>Speed 28.2 km/h Distance 7.18 km</desc>
<time>2011-07-19T20:08:23.76</time>
<name>1181</name>
</trkpt>
<trkpt lat="39.037188" lon="-3.840988">
<ele>669.0</ele>
<speed>27.9</speed>
<course>253.1</course>
<desc>Speed 27.9 km/h Distance 7.19 km</desc>
<time>2011-07-19T20:08:24.76</time>
<name>1182</name>
</trkpt>
<trkpt lat="39.037168" lon="-3.841073">
<ele>669.0</ele>
<speed>27.6</speed>
<course>257.4</course>
<desc>Speed 27.6 km/h Distance 7.20 km</desc>
<time>2011-07-19T20:08:25.75</time>
<name>1183</name>
</trkpt>
<trkpt lat="39.037153" lon="-3.841160">
<ele>669.0</ele>
<speed>27.5</speed>
<course>260.0</course>
<desc>Speed 27.5 km/h Distance 7.20 km</desc>
<time>2011-07-19T20:08:26.76</time>
<name>1184</name>
</trkpt>
<trkpt lat="39.037142" lon="-3.841245">
<ele>669.0</ele>
<speed>27.1</speed>
<course>261.4</course>
<desc>Speed 27.1 km/h Distance 7.21 km</desc>
<time>2011-07-19T20:08:27.76</time>
<name>1185</name>
</trkpt>
<trkpt lat="39.037132" lon="-3.841330">
<ele>669.0</ele>
<speed>26.8</speed>
<course>259.8</course>
<desc>Speed 26.8 km/h Distance 7.22 km</desc>
<time>2011-07-19T20:08:28.77</time>
<name>1186</name>
</trkpt>
<trkpt lat="39.037120" lon="-3.841413">
<ele>669.0</ele>
<speed>26.2</speed>
<course>259.8</course>
<desc>Speed 26.2 km/h Distance 7.23 km</desc>
<time>2011-07-19T20:08:29.77</time>
<name>1187</name>
</trkpt>
<trkpt lat="39.037108" lon="-3.841497">
<ele>669.5</ele>
<speed>26.3</speed>
<course>259.8</course>
<desc>Speed 26.3 km/h Distance 7.23 km</desc>
<time>2011-07-19T20:08:30.77</time>
<name>1188</name>
</trkpt>
<trkpt lat="39.037097" lon="-3.841580">
<ele>669.5</ele>
<speed>26.5</speed>
<course>261.6</course>
<desc>Speed 26.5 km/h Distance 7.24 km</desc>
<time>2011-07-19T20:08:31.77</time>
<name>1189</name>
</trkpt>
<trkpt lat="39.037087" lon="-3.841667">
<ele>669.5</ele>
<speed>27.1</speed>
<course>260.2</course>
<desc>Speed 27.1 km/h Distance 7.25 km</desc>
<time>2011-07-19T20:08:32.77</time>
<name>1190</name>
</trkpt>
<trkpt lat="39.037075" lon="-3.841753">
<ele>669.5</ele>
<speed>27.4</speed>
<course>261.6</course>
<desc>Speed 27.4 km/h Distance 7.26 km</desc>
<time>2011-07-19T20:08:33.77</time>
<name>1191</name>
</trkpt>
<trkpt lat="39.037065" lon="-3.841840">
<ele>670.0</ele>
<speed>27.4</speed>
<course>260.2</course>
<desc>Speed 27.4 km/h Distance 7.26 km</desc>
<time>2011-07-19T20:08:34.76</time>
<name>1192</name>
</trkpt>
<trkpt lat="39.037053" lon="-3.841927">
<ele>670.0</ele>
<speed>27.5</speed>
<course>261.6</course>
<desc>Speed 27.5 km/h Distance 7.27 km</desc>
<time>2011-07-19T20:08:35.76</time>
<name>1193</name>
</trkpt>
<trkpt lat="39.037043" lon="-3.842013">
<ele>670.0</ele>
<speed>27.1</speed>
<course>260.8</course>
<desc>Speed 27.1 km/h Distance 7.28 km</desc>
<time>2011-07-19T20:08:36.75</time>
<name>1194</name>
</trkpt>
<trkpt lat="39.037012" lon="-3.842265">
<ele>670.0</ele>
<speed>26.2</speed>
<course>259.4</course>
<desc>Speed 26.2 km/h Distance 7.30 km</desc>
<time>2011-07-19T20:08:38.97</time>
<name>1195</name>
</trkpt>
<trkpt lat="39.037000" lon="-3.842345">
<ele>670.0</ele>
<speed>25.6</speed>
<course>260.9</course>
<desc>Speed 25.6 km/h Distance 7.31 km</desc>
<time>2011-07-19T20:08:39.97</time>
<name>1196</name>
</trkpt>
<trkpt lat="39.036990" lon="-3.842425">
<ele>670.0</ele>
<speed>25.3</speed>
<course>261.0</course>
<desc>Speed 25.3 km/h Distance 7.31 km</desc>
<time>2011-07-19T20:08:40.97</time>
<name>1197</name>
</trkpt>
<trkpt lat="39.036980" lon="-3.842507">
<ele>670.0</ele>
<speed>25.3</speed>
<course>260.9</course>
<desc>Speed 25.3 km/h Distance 7.32 km</desc>
<time>2011-07-19T20:08:41.99</time>
<name>1198</name>
</trkpt>
<trkpt lat="39.036970" lon="-3.842587">
<ele>670.0</ele>
<speed>25.3</speed>
<course>262.4</course>
<desc>Speed 25.3 km/h Distance 7.33 km</desc>
<time>2011-07-19T20:08:42.97</time>
<name>1199</name>
</trkpt>
<trkpt lat="39.036962" lon="-3.842667">
<ele>670.0</ele>
<speed>25.3</speed>
<course>262.5</course>
<desc>Speed 25.3 km/h Distance 7.34 km</desc>
<time>2011-07-19T20:08:43.98</time>
<name>1200</name>
</trkpt>
<trkpt lat="39.036953" lon="-3.842748">
<ele>670.0</ele>
<speed>25.3</speed>
<course>264.0</course>
<desc>Speed 25.3 km/h Distance 7.34 km</desc>
<time>2011-07-19T20:08:44.97</time>
<name>1201</name>
</trkpt>
<trkpt lat="39.036947" lon="-3.842830">
<ele>670.0</ele>
<speed>25.6</speed>
<course>262.5</course>
<desc>Speed 25.6 km/h Distance 7.35 km</desc>
<time>2011-07-19T20:08:45.97</time>
<name>1202</name>
</trkpt>
<trkpt lat="39.036938" lon="-3.842912">
<ele>669.5</ele>
<speed>25.6</speed>
<course>259.4</course>
<desc>Speed 25.6 km/h Distance 7.36 km</desc>
<time>2011-07-19T20:08:46.97</time>
<name>1203</name>
</trkpt>
<trkpt lat="39.036927" lon="-3.842992">
<ele>669.5</ele>
<speed>25.2</speed>
<course>260.7</course>
<desc>Speed 25.2 km/h Distance 7.36 km</desc>
<time>2011-07-19T20:08:47.97</time>
<name>1204</name>
</trkpt>
<trkpt lat="39.036917" lon="-3.843070">
<ele>669.5</ele>
<speed>24.8</speed>
<course>265.4</course>
<desc>Speed 24.8 km/h Distance 7.37 km</desc>
<time>2011-07-19T20:08:48.97</time>
<name>1205</name>
</trkpt>
<trkpt lat="39.036912" lon="-3.843150">
<ele>669.5</ele>
<speed>24.8</speed>
<course>263.7</course>
<desc>Speed 24.8 km/h Distance 7.38 km</desc>
<time>2011-07-19T20:08:49.97</time>
<name>1206</name>
</trkpt>
<trkpt lat="39.036905" lon="-3.843228">
<ele>669.5</ele>
<speed>24.7</speed>
<course>260.7</course>
<desc>Speed 24.7 km/h Distance 7.38 km</desc>
<time>2011-07-19T20:08:50.97</time>
<name>1207</name>
</trkpt>
<trkpt lat="39.036895" lon="-3.843307">
<ele>669.5</ele>
<speed>24.8</speed>
<course>262.2</course>
<desc>Speed 24.8 km/h Distance 7.39 km</desc>
<time>2011-07-19T20:08:51.97</time>
<name>1208</name>
</trkpt>
<trkpt lat="39.036887" lon="-3.843385">
<ele>669.5</ele>
<speed>24.5</speed>
<course>265.3</course>
<desc>Speed 24.5 km/h Distance 7.40 km</desc>
<time>2011-07-19T20:08:52.97</time>
<name>1209</name>
</trkpt>
<trkpt lat="39.036882" lon="-3.843463">
<ele>669.5</ele>
<speed>24.3</speed>
<course>263.6</course>
<desc>Speed 24.3 km/h Distance 7.40 km</desc>
<time>2011-07-19T20:08:53.97</time>
<name>1210</name>
</trkpt>
<trkpt lat="39.036875" lon="-3.843540">
<ele>669.5</ele>
<speed>24.1</speed>
<course>265.2</course>
<desc>Speed 24.1 km/h Distance 7.41 km</desc>
<time>2011-07-19T20:08:54.97</time>
<name>1211</name>
</trkpt>
<trkpt lat="39.036870" lon="-3.843617">
<ele>669.5</ele>
<speed>24.1</speed>
<course>265.3</course>
<desc>Speed 24.1 km/h Distance 7.42 km</desc>
<time>2011-07-19T20:08:55.97</time>
<name>1212</name>
</trkpt>
<trkpt lat="39.036865" lon="-3.843695">
<ele>669.5</ele>
<speed>24.1</speed>
<course>263.5</course>
<desc>Speed 24.1 km/h Distance 7.42 km</desc>
<time>2011-07-19T20:08:56.97</time>
<name>1213</name>
</trkpt>
<trkpt lat="39.036858" lon="-3.843770">
<ele>669.5</ele>
<speed>23.9</speed>
<course>265.2</course>
<desc>Speed 23.9 km/h Distance 7.43 km</desc>
<time>2011-07-19T20:08:57.97</time>
<name>1214</name>
</trkpt>
<trkpt lat="39.036853" lon="-3.843847">
<ele>669.5</ele>
<speed>23.9</speed>
<course>262.2</course>
<desc>Speed 23.9 km/h Distance 7.44 km</desc>
<time>2011-07-19T20:08:58.97</time>
<name>1215</name>
</trkpt>
<trkpt lat="39.036845" lon="-3.843925">
<ele>669.0</ele>
<speed>24.4</speed>
<course>262.2</course>
<desc>Speed 24.4 km/h Distance 7.44 km</desc>
<time>2011-07-19T20:08:59.97</time>
<name>1216</name>
</trkpt>
<trkpt lat="39.036837" lon="-3.844003">
<ele>669.0</ele>
<speed>24.7</speed>
<course>263.7</course>
<desc>Speed 24.7 km/h Distance 7.45 km</desc>
<time>2011-07-19T20:09:00.96</time>
<name>1217</name>
</trkpt>
<trkpt lat="39.036830" lon="-3.844082">
<ele>669.0</ele>
<speed>24.5</speed>
<course>260.5</course>
<desc>Speed 24.5 km/h Distance 7.46 km</desc>
<time>2011-07-19T20:09:01.97</time>
<name>1218</name>
</trkpt>
<trkpt lat="39.036820" lon="-3.844158">
<ele>669.0</ele>
<speed>24.3</speed>
<course>258.9</course>
<desc>Speed 24.3 km/h Distance 7.47 km</desc>
<time>2011-07-19T20:09:02.98</time>
<name>1219</name>
</trkpt>
<trkpt lat="39.036808" lon="-3.844235">
<ele>669.0</ele>
<speed>24.2</speed>
<course>258.9</course>
<desc>Speed 24.2 km/h Distance 7.47 km</desc>
<time>2011-07-19T20:09:03.97</time>
<name>1220</name>
</trkpt>
<trkpt lat="39.036797" lon="-3.844312">
<ele>669.0</ele>
<speed>24.4</speed>
<course>257.4</course>
<desc>Speed 24.4 km/h Distance 7.48 km</desc>
<time>2011-07-19T20:09:04.97</time>
<name>1221</name>
</trkpt>
<trkpt lat="39.036783" lon="-3.844388">
<ele>669.0</ele>
<speed>24.7</speed>
<course>257.6</course>
<desc>Speed 24.7 km/h Distance 7.49 km</desc>
<time>2011-07-19T20:09:05.97</time>
<name>1222</name>
</trkpt>
<trkpt lat="39.036770" lon="-3.844467">
<ele>669.0</ele>
<speed>24.8</speed>
<course>257.6</course>
<desc>Speed 24.8 km/h Distance 7.49 km</desc>
<time>2011-07-19T20:09:06.97</time>
<name>1223</name>
</trkpt>
<trkpt lat="39.036757" lon="-3.844545">
<ele>669.0</ele>
<speed>24.8</speed>
<course>260.5</course>
<desc>Speed 24.8 km/h Distance 7.50 km</desc>
<time>2011-07-19T20:09:07.97</time>
<name>1224</name>
</trkpt>
<trkpt lat="39.036747" lon="-3.844622">
<ele>669.0</ele>
<speed>24.7</speed>
<course>257.6</course>
<desc>Speed 24.7 km/h Distance 7.51 km</desc>
<time>2011-07-19T20:09:08.97</time>
<name>1225</name>
</trkpt>
<trkpt lat="39.036733" lon="-3.844700">
<ele>669.0</ele>
<speed>24.7</speed>
<course>257.6</course>
<desc>Speed 24.7 km/h Distance 7.51 km</desc>
<time>2011-07-19T20:09:09.97</time>
<name>1226</name>
</trkpt>
<trkpt lat="39.036720" lon="-3.844778">
<ele>669.0</ele>
<speed>24.8</speed>
<course>258.9</course>
<desc>Speed 24.8 km/h Distance 7.52 km</desc>
<time>2011-07-19T20:09:10.97</time>
<name>1227</name>
</trkpt>
<trkpt lat="39.036708" lon="-3.844855">
<ele>669.0</ele>
<speed>24.8</speed>
<course>257.6</course>
<desc>Speed 24.8 km/h Distance 7.53 km</desc>
<time>2011-07-19T20:09:11.97</time>
<name>1228</name>
</trkpt>
<trkpt lat="39.036695" lon="-3.844933">
<ele>669.0</ele>
<speed>24.7</speed>
<course>255.6</course>
<desc>Speed 24.7 km/h Distance 7.53 km</desc>
<time>2011-07-19T20:09:12.97</time>
<name>1229</name>
</trkpt>
<trkpt lat="39.036680" lon="-3.845008">
<ele>669.0</ele>
<speed>24.5</speed>
<course>255.6</course>
<desc>Speed 24.5 km/h Distance 7.54 km</desc>
<time>2011-07-19T20:09:13.97</time>
<name>1230</name>
</trkpt>
<trkpt lat="39.036665" lon="-3.845083">
<ele>669.0</ele>
<speed>24.3</speed>
<course>255.9</course>
<desc>Speed 24.3 km/h Distance 7.55 km</desc>
<time>2011-07-19T20:09:14.97</time>
<name>1231</name>
</trkpt>
<trkpt lat="39.036650" lon="-3.845160">
<ele>668.5</ele>
<speed>24.5</speed>
<course>255.9</course>
<desc>Speed 24.5 km/h Distance 7.55 km</desc>
<time>2011-07-19T20:09:15.97</time>
<name>1232</name>
</trkpt>
<trkpt lat="39.036635" lon="-3.845237">
<ele>668.5</ele>
<speed>24.8</speed>
<course>256.2</course>
<desc>Speed 24.8 km/h Distance 7.56 km</desc>
<time>2011-07-19T20:09:16.97</time>
<name>1233</name>
</trkpt>
<trkpt lat="39.036620" lon="-3.845315">
<ele>668.5</ele>
<speed>24.8</speed>
<course>257.1</course>
<desc>Speed 24.8 km/h Distance 7.57 km</desc>
<time>2011-07-19T20:09:17.97</time>
<name>1234</name>
</trkpt>
<trkpt lat="39.036607" lon="-3.845390">
<ele>668.5</ele>
<speed>24.2</speed>
<course>258.7</course>
<desc>Speed 24.2 km/h Distance 7.57 km</desc>
<time>2011-07-19T20:09:18.97</time>
<name>1235</name>
</trkpt>
<trkpt lat="39.036595" lon="-3.845465">
<ele>668.5</ele>
<speed>23.9</speed>
<course>257.1</course>
<desc>Speed 23.9 km/h Distance 7.58 km</desc>
<time>2011-07-19T20:09:19.97</time>
<name>1236</name>
</trkpt>
<trkpt lat="39.036582" lon="-3.845540">
<ele>668.5</ele>
<speed>24.0</speed>
<course>258.9</course>
<desc>Speed 24.0 km/h Distance 7.59 km</desc>
<time>2011-07-19T20:09:20.97</time>
<name>1237</name>
</trkpt>
<trkpt lat="39.036570" lon="-3.845617">
<ele>668.5</ele>
<speed>24.1</speed>
<course>257.1</course>
<desc>Speed 24.1 km/h Distance 7.59 km</desc>
<time>2011-07-19T20:09:21.97</time>
<name>1238</name>
</trkpt>
<trkpt lat="39.036557" lon="-3.845692">
<ele>668.5</ele>
<speed>24.3</speed>
<course>257.4</course>
<desc>Speed 24.3 km/h Distance 7.60 km</desc>
<time>2011-07-19T20:09:22.97</time>
<name>1239</name>
</trkpt>
<trkpt lat="39.036543" lon="-3.845768">
<ele>668.5</ele>
<speed>24.2</speed>
<course>257.1</course>
<desc>Speed 24.2 km/h Distance 7.61 km</desc>
<time>2011-07-19T20:09:23.96</time>
<name>1240</name>
</trkpt>
<trkpt lat="39.036530" lon="-3.845843">
<ele>668.5</ele>
<speed>24.1</speed>
<course>258.7</course>
<desc>Speed 24.1 km/h Distance 7.61 km</desc>
<time>2011-07-19T20:09:24.97</time>
<name>1241</name>
</trkpt>
<trkpt lat="39.036518" lon="-3.845918">
<ele>668.5</ele>
<speed>23.9</speed>
<course>256.8</course>
<desc>Speed 23.9 km/h Distance 7.62 km</desc>
<time>2011-07-19T20:09:25.96</time>
<name>1242</name>
</trkpt>
<trkpt lat="39.036505" lon="-3.845992">
<ele>669.0</ele>
<speed>23.6</speed>
<course>258.4</course>
<desc>Speed 23.6 km/h Distance 7.63 km</desc>
<time>2011-07-19T20:09:26.96</time>
<name>1243</name>
</trkpt>
<trkpt lat="39.036493" lon="-3.846065">
<ele>669.0</ele>
<speed>23.4</speed>
<course>258.4</course>
<desc>Speed 23.4 km/h Distance 7.63 km</desc>
<time>2011-07-19T20:09:27.97</time>
<name>1244</name>
</trkpt>
<trkpt lat="39.036482" lon="-3.846138">
<ele>669.0</ele>
<speed>23.4</speed>
<course>258.7</course>
<desc>Speed 23.4 km/h Distance 7.64 km</desc>
<time>2011-07-19T20:09:28.97</time>
<name>1245</name>
</trkpt>
<trkpt lat="39.036470" lon="-3.846213">
<ele>669.0</ele>
<speed>23.4</speed>
<course>257.9</course>
<desc>Speed 23.4 km/h Distance 7.65 km</desc>
<time>2011-07-19T20:09:29.97</time>
<name>1246</name>
</trkpt>
<trkpt lat="39.036458" lon="-3.846283">
<ele>669.5</ele>
<speed>22.5</speed>
<course>256.5</course>
<desc>Speed 22.5 km/h Distance 7.65 km</desc>
<time>2011-07-19T20:09:30.97</time>
<name>1247</name>
</trkpt>
<trkpt lat="39.036445" lon="-3.846355">
<ele>669.5</ele>
<speed>22.8</speed>
<course>259.8</course>
<desc>Speed 22.8 km/h Distance 7.66 km</desc>
<time>2011-07-19T20:09:31.97</time>
<name>1248</name>
</trkpt>
<trkpt lat="39.036435" lon="-3.846427">
<ele>669.5</ele>
<speed>22.8</speed>
<course>261.5</course>
<desc>Speed 22.8 km/h Distance 7.67 km</desc>
<time>2011-07-19T20:09:32.96</time>
<name>1249</name>
</trkpt>
<trkpt lat="39.036427" lon="-3.846498">
<ele>669.5</ele>
<speed>22.6</speed>
<course>261.5</course>
<desc>Speed 22.6 km/h Distance 7.67 km</desc>
<time>2011-07-19T20:09:33.97</time>
<name>1250</name>
</trkpt>
<trkpt lat="39.036418" lon="-3.846570">
<ele>669.5</ele>
<speed>22.6</speed>
<course>263.2</course>
<desc>Speed 22.6 km/h Distance 7.68 km</desc>
<time>2011-07-19T20:09:34.97</time>
<name>1251</name>
</trkpt>
<trkpt lat="39.036412" lon="-3.846642">
<ele>669.5</ele>
<speed>22.9</speed>
<course>261.7</course>
<desc>Speed 22.9 km/h Distance 7.68 km</desc>
<time>2011-07-19T20:09:35.97</time>
<name>1252</name>
</trkpt>
<trkpt lat="39.036403" lon="-3.846715">
<ele>669.5</ele>
<speed>23.2</speed>
<course>260.0</course>
<desc>Speed 23.2 km/h Distance 7.69 km</desc>
<time>2011-07-19T20:09:36.97</time>
<name>1253</name>
</trkpt>
<trkpt lat="39.036393" lon="-3.846788">
<ele>669.5</ele>
<speed>23.5</speed>
<course>260.0</course>
<desc>Speed 23.5 km/h Distance 7.70 km</desc>
<time>2011-07-19T20:09:37.97</time>
<name>1254</name>
</trkpt>
<trkpt lat="39.036383" lon="-3.846862">
<ele>669.5</ele>
<speed>23.5</speed>
<course>258.9</course>
<desc>Speed 23.5 km/h Distance 7.70 km</desc>
<time>2011-07-19T20:09:38.97</time>
<name>1255</name>
</trkpt>
<trkpt lat="39.036372" lon="-3.846938">
<ele>670.0</ele>
<speed>24.2</speed>
<course>258.9</course>
<desc>Speed 24.2 km/h Distance 7.71 km</desc>
<time>2011-07-19T20:09:39.97</time>
<name>1256</name>
</trkpt>
<trkpt lat="39.036360" lon="-3.847015">
<ele>669.5</ele>
<speed>24.4</speed>
<course>260.7</course>
<desc>Speed 24.4 km/h Distance 7.72 km</desc>
<time>2011-07-19T20:09:40.97</time>
<name>1257</name>
</trkpt>
<trkpt lat="39.036350" lon="-3.847093">
<ele>669.5</ele>
<speed>24.7</speed>
<course>262.2</course>
<desc>Speed 24.7 km/h Distance 7.72 km</desc>
<time>2011-07-19T20:09:41.99</time>
<name>1258</name>
</trkpt>
<trkpt lat="39.036342" lon="-3.847172">
<ele>669.5</ele>
<speed>24.5</speed>
<course>265.4</course>
<desc>Speed 24.5 km/h Distance 7.73 km</desc>
<time>2011-07-19T20:09:42.97</time>
<name>1259</name>
</trkpt>
<trkpt lat="39.036337" lon="-3.847252">
<ele>669.5</ele>
<speed>24.8</speed>
<course>263.6</course>
<desc>Speed 24.8 km/h Distance 7.74 km</desc>
<time>2011-07-19T20:09:43.97</time>
<name>1260</name>
</trkpt>
<trkpt lat="39.036330" lon="-3.847328">
<ele>669.5</ele>
<speed>24.5</speed>
<course>265.3</course>
<desc>Speed 24.5 km/h Distance 7.74 km</desc>
<time>2011-07-19T20:09:44.97</time>
<name>1261</name>
</trkpt>
<trkpt lat="39.036325" lon="-3.847407">
<ele>669.5</ele>
<speed>24.4</speed>
<course>265.3</course>
<desc>Speed 24.4 km/h Distance 7.75 km</desc>
<time>2011-07-19T20:09:45.97</time>
<name>1262</name>
</trkpt>
<trkpt lat="39.036320" lon="-3.847485">
<ele>669.5</ele>
<speed>24.3</speed>
<course>266.8</course>
<desc>Speed 24.3 km/h Distance 7.76 km</desc>
<time>2011-07-19T20:09:46.97</time>
<name>1263</name>
</trkpt>
<trkpt lat="39.036317" lon="-3.847562">
<ele>670.0</ele>
<speed>24.2</speed>
<course>263.7</course>
<desc>Speed 24.2 km/h Distance 7.77 km</desc>
<time>2011-07-19T20:09:47.97</time>
<name>1264</name>
</trkpt>
<trkpt lat="39.036310" lon="-3.847640">
<ele>670.0</ele>
<speed>24.2</speed>
<course>266.8</course>
<desc>Speed 24.2 km/h Distance 7.77 km</desc>
<time>2011-07-19T20:09:48.97</time>
<name>1265</name>
</trkpt>
<trkpt lat="39.036307" lon="-3.847717">
<ele>670.0</ele>
<speed>24.3</speed>
<course>265.3</course>
<desc>Speed 24.3 km/h Distance 7.78 km</desc>
<time>2011-07-19T20:09:49.97</time>
<name>1266</name>
</trkpt>
<trkpt lat="39.036302" lon="-3.847795">
<ele>669.5</ele>
<speed>24.4</speed>
<course>263.6</course>
<desc>Speed 24.4 km/h Distance 7.79 km</desc>
<time>2011-07-19T20:09:50.96</time>
<name>1267</name>
</trkpt>
<trkpt lat="39.036295" lon="-3.847872">
<ele>670.0</ele>
<speed>24.2</speed>
<course>265.2</course>
<desc>Speed 24.2 km/h Distance 7.79 km</desc>
<time>2011-07-19T20:09:51.97</time>
<name>1268</name>
</trkpt>
<trkpt lat="39.036290" lon="-3.847948">
<ele>670.0</ele>
<speed>24.0</speed>
<course>265.2</course>
<desc>Speed 24.0 km/h Distance 7.80 km</desc>
<time>2011-07-19T20:09:52.97</time>
<name>1269</name>
</trkpt>
<trkpt lat="39.036285" lon="-3.848025">
<ele>670.0</ele>
<speed>24.0</speed>
<course>265.2</course>
<desc>Speed 24.0 km/h Distance 7.81 km</desc>
<time>2011-07-19T20:09:53.97</time>
<name>1270</name>
</trkpt>
<trkpt lat="39.036280" lon="-3.848102">
<ele>670.0</ele>
<speed>24.0</speed>
<course>265.2</course>
<desc>Speed 24.0 km/h Distance 7.81 km</desc>
<time>2011-07-19T20:09:54.97</time>
<name>1271</name>
</trkpt>
<trkpt lat="39.036275" lon="-3.848178">
<ele>670.0</ele>
<speed>24.0</speed>
<course>263.7</course>
<desc>Speed 24.0 km/h Distance 7.82 km</desc>
<time>2011-07-19T20:09:55.96</time>
<name>1272</name>
</trkpt>
<trkpt lat="39.036268" lon="-3.848257">
<ele>670.0</ele>
<speed>24.0</speed>
<course>265.1</course>
<desc>Speed 24.0 km/h Distance 7.83 km</desc>
<time>2011-07-19T20:09:56.97</time>
<name>1273</name>
</trkpt>
<trkpt lat="39.036263" lon="-3.848332">
<ele>670.0</ele>
<speed>24.0</speed>
<course>265.2</course>
<desc>Speed 24.0 km/h Distance 7.83 km</desc>
<time>2011-07-19T20:09:57.97</time>
<name>1274</name>
</trkpt>
<trkpt lat="39.036258" lon="-3.848408">
<ele>670.0</ele>
<speed>23.9</speed>
<course>263.6</course>
<desc>Speed 23.9 km/h Distance 7.84 km</desc>
<time>2011-07-19T20:09:58.97</time>
<name>1275</name>
</trkpt>
<trkpt lat="39.036252" lon="-3.848485">
<ele>670.0</ele>
<speed>24.0</speed>
<course>266.9</course>
<desc>Speed 24.0 km/h Distance 7.85 km</desc>
<time>2011-07-19T20:09:59.97</time>
<name>1276</name>
</trkpt>
<trkpt lat="39.036248" lon="-3.848563">
<ele>670.0</ele>
<speed>24.2</speed>
<course>266.8</course>
<desc>Speed 24.2 km/h Distance 7.85 km</desc>
<time>2011-07-19T20:10:00.97</time>
<name>1277</name>
</trkpt>
<trkpt lat="39.036245" lon="-3.848640">
<ele>670.0</ele>
<speed>24.1</speed>
<course>265.2</course>
<desc>Speed 24.1 km/h Distance 7.86 km</desc>
<time>2011-07-19T20:10:01.97</time>
<name>1278</name>
</trkpt>
<trkpt lat="39.036240" lon="-3.848717">
<ele>670.0</ele>
<speed>24.2</speed>
<course>265.3</course>
<desc>Speed 24.2 km/h Distance 7.87 km</desc>
<time>2011-07-19T20:10:02.97</time>
<name>1279</name>
</trkpt>
<trkpt lat="39.036235" lon="-3.848795">
<ele>670.0</ele>
<speed>24.2</speed>
<course>265.2</course>
<desc>Speed 24.2 km/h Distance 7.87 km</desc>
<time>2011-07-19T20:10:03.97</time>
<name>1280</name>
</trkpt>
<trkpt lat="39.036230" lon="-3.848872">
<ele>670.5</ele>
<speed>24.1</speed>
<course>265.2</course>
<desc>Speed 24.1 km/h Distance 7.88 km</desc>
<time>2011-07-19T20:10:04.97</time>
<name>1281</name>
</trkpt>
<trkpt lat="39.036225" lon="-3.848948">
<ele>670.5</ele>
<speed>24.1</speed>
<course>263.6</course>
<desc>Speed 24.1 km/h Distance 7.89 km</desc>
<time>2011-07-19T20:10:05.97</time>
<name>1282</name>
</trkpt>
<trkpt lat="39.036218" lon="-3.849025">
<ele>670.5</ele>
<speed>24.2</speed>
<course>265.2</course>
<desc>Speed 24.2 km/h Distance 7.89 km</desc>
<time>2011-07-19T20:10:06.97</time>
<name>1283</name>
</trkpt>
<trkpt lat="39.036213" lon="-3.849102">
<ele>670.5</ele>
<speed>24.1</speed>
<course>265.2</course>
<desc>Speed 24.1 km/h Distance 7.90 km</desc>
<time>2011-07-19T20:10:07.96</time>
<name>1284</name>
</trkpt>
<trkpt lat="39.036208" lon="-3.849178">
<ele>670.5</ele>
<speed>23.9</speed>
<course>263.6</course>
<desc>Speed 23.9 km/h Distance 7.91 km</desc>
<time>2011-07-19T20:10:08.97</time>
<name>1285</name>
</trkpt>
<trkpt lat="39.036202" lon="-3.849255">
<ele>671.0</ele>
<speed>24.0</speed>
<course>266.9</course>
<desc>Speed 24.0 km/h Distance 7.91 km</desc>
<time>2011-07-19T20:10:09.97</time>
<name>1286</name>
</trkpt>
<trkpt lat="39.036198" lon="-3.849333">
<ele>671.0</ele>
<speed>24.2</speed>
<course>265.2</course>
<desc>Speed 24.2 km/h Distance 7.92 km</desc>
<time>2011-07-19T20:10:10.97</time>
<name>1287</name>
</trkpt>
<trkpt lat="39.036193" lon="-3.849410">
<ele>671.0</ele>
<speed>24.2</speed>
<course>265.3</course>
<desc>Speed 24.2 km/h Distance 7.93 km</desc>
<time>2011-07-19T20:10:11.97</time>
<name>1288</name>
</trkpt>
<trkpt lat="39.036188" lon="-3.849488">
<ele>671.0</ele>
<speed>24.4</speed>
<course>265.3</course>
<desc>Speed 24.4 km/h Distance 7.93 km</desc>
<time>2011-07-19T20:10:12.97</time>
<name>1289</name>
</trkpt>
<trkpt lat="39.036183" lon="-3.849567">
<ele>671.0</ele>
<speed>24.4</speed>
<course>265.3</course>
<desc>Speed 24.4 km/h Distance 7.94 km</desc>
<time>2011-07-19T20:10:13.97</time>
<name>1290</name>
</trkpt>
<trkpt lat="39.036178" lon="-3.849645">
<ele>671.0</ele>
<speed>24.5</speed>
<course>266.9</course>
<desc>Speed 24.5 km/h Distance 7.95 km</desc>
<time>2011-07-19T20:10:14.97</time>
<name>1291</name>
</trkpt>
<trkpt lat="39.036175" lon="-3.849723">
<ele>671.0</ele>
<speed>24.4</speed>
<course>265.3</course>
<desc>Speed 24.4 km/h Distance 7.95 km</desc>
<time>2011-07-19T20:10:15.97</time>
<name>1292</name>
</trkpt>
<trkpt lat="39.036170" lon="-3.849802">
<ele>671.0</ele>
<speed>24.7</speed>
<course>265.4</course>
<desc>Speed 24.7 km/h Distance 7.96 km</desc>
<time>2011-07-19T20:10:16.97</time>
<name>1293</name>
</trkpt>
<trkpt lat="39.036165" lon="-3.849882">
<ele>671.0</ele>
<speed>24.9</speed>
<course>266.9</course>
<desc>Speed 24.9 km/h Distance 7.97 km</desc>
<time>2011-07-19T20:10:17.96</time>
<name>1294</name>
</trkpt>
<trkpt lat="39.036162" lon="-3.849962">
<ele>671.0</ele>
<speed>25.2</speed>
<course>265.5</course>
<desc>Speed 25.2 km/h Distance 7.97 km</desc>
<time>2011-07-19T20:10:18.96</time>
<name>1295</name>
</trkpt>
<trkpt lat="39.036157" lon="-3.850043">
<ele>671.0</ele>
<speed>25.3</speed>
<course>265.5</course>
<desc>Speed 25.3 km/h Distance 7.98 km</desc>
<time>2011-07-19T20:10:19.96</time>
<name>1296</name>
</trkpt>
<trkpt lat="39.036152" lon="-3.850125">
<ele>670.5</ele>
<speed>25.5</speed>
<course>263.9</course>
<desc>Speed 25.5 km/h Distance 7.99 km</desc>
<time>2011-07-19T20:10:20.97</time>
<name>1297</name>
</trkpt>
<trkpt lat="39.036145" lon="-3.850205">
<ele>670.5</ele>
<speed>25.6</speed>
<course>264.1</course>
<desc>Speed 25.6 km/h Distance 7.99 km</desc>
<time>2011-07-19T20:10:21.96</time>
<name>1298</name>
</trkpt>
<trkpt lat="39.036138" lon="-3.850288">
<ele>670.5</ele>
<speed>25.6</speed>
<course>264.0</course>
<desc>Speed 25.6 km/h Distance 8.00 km</desc>
<time>2011-07-19T20:10:22.97</time>
<name>1299</name>
</trkpt>
<trkpt lat="39.036132" lon="-3.850370">
<ele>670.5</ele>
<speed>25.7</speed>
<course>265.5</course>
<desc>Speed 25.7 km/h Distance 8.01 km</desc>
<time>2011-07-19T20:10:23.96</time>
<name>1300</name>
</trkpt>
<trkpt lat="39.036127" lon="-3.850452">
<ele>670.5</ele>
<speed>25.7</speed>
<course>264.1</course>
<desc>Speed 25.7 km/h Distance 8.02 km</desc>
<time>2011-07-19T20:10:24.96</time>
<name>1301</name>
</trkpt>
<trkpt lat="39.036120" lon="-3.850535">
<ele>670.5</ele>
<speed>26.1</speed>
<course>265.7</course>
<desc>Speed 26.1 km/h Distance 8.02 km</desc>
<time>2011-07-19T20:10:25.96</time>
<name>1302</name>
</trkpt>
<trkpt lat="39.036115" lon="-3.850620">
<ele>670.5</ele>
<speed>26.5</speed>
<course>264.1</course>
<desc>Speed 26.5 km/h Distance 8.03 km</desc>
<time>2011-07-19T20:10:26.96</time>
<name>1303</name>
</trkpt>
<trkpt lat="39.036108" lon="-3.850703">
<ele>670.0</ele>
<speed>26.6</speed>
<course>262.8</course>
<desc>Speed 26.6 km/h Distance 8.04 km</desc>
<time>2011-07-19T20:10:27.96</time>
<name>1304</name>
</trkpt>
<trkpt lat="39.036100" lon="-3.850788">
<ele>670.0</ele>
<speed>26.7</speed>
<course>262.8</course>
<desc>Speed 26.7 km/h Distance 8.05 km</desc>
<time>2011-07-19T20:10:28.96</time>
<name>1305</name>
</trkpt>
<trkpt lat="39.036092" lon="-3.850873">
<ele>670.0</ele>
<speed>26.7</speed>
<course>265.8</course>
<desc>Speed 26.7 km/h Distance 8.05 km</desc>
<time>2011-07-19T20:10:29.96</time>
<name>1306</name>
</trkpt>
<trkpt lat="39.036087" lon="-3.850960">
<ele>670.0</ele>
<speed>27.1</speed>
<course>264.3</course>
<desc>Speed 27.1 km/h Distance 8.06 km</desc>
<time>2011-07-19T20:10:30.96</time>
<name>1307</name>
</trkpt>
<trkpt lat="39.036080" lon="-3.851047">
<ele>670.0</ele>
<speed>27.1</speed>
<course>264.3</course>
<desc>Speed 27.1 km/h Distance 8.07 km</desc>
<time>2011-07-19T20:10:31.96</time>
<name>1308</name>
</trkpt>
<trkpt lat="39.036073" lon="-3.851133">
<ele>670.0</ele>
<speed>27.0</speed>
<course>261.4</course>
<desc>Speed 27.0 km/h Distance 8.08 km</desc>
<time>2011-07-19T20:10:32.96</time>
<name>1309</name>
</trkpt>
<trkpt lat="39.036063" lon="-3.851218">
<ele>670.0</ele>
<speed>26.7</speed>
<course>262.7</course>
<desc>Speed 26.7 km/h Distance 8.08 km</desc>
<time>2011-07-19T20:10:33.96</time>
<name>1310</name>
</trkpt>
<trkpt lat="39.036055" lon="-3.851302">
<ele>670.0</ele>
<speed>26.6</speed>
<course>261.4</course>
<desc>Speed 26.6 km/h Distance 8.09 km</desc>
<time>2011-07-19T20:10:34.96</time>
<name>1311</name>
</trkpt>
<trkpt lat="39.036045" lon="-3.851387">
<ele>670.0</ele>
<speed>26.5</speed>
<course>262.7</course>
<desc>Speed 26.5 km/h Distance 8.10 km</desc>
<time>2011-07-19T20:10:35.96</time>
<name>1312</name>
</trkpt>
<trkpt lat="39.036037" lon="-3.851470">
<ele>670.0</ele>
<speed>26.3</speed>
<course>264.1</course>
<desc>Speed 26.3 km/h Distance 8.10 km</desc>
<time>2011-07-19T20:10:36.95</time>
<name>1313</name>
</trkpt>
<trkpt lat="39.036030" lon="-3.851553">
<ele>670.0</ele>
<speed>26.2</speed>
<course>264.2</course>
<desc>Speed 26.2 km/h Distance 8.11 km</desc>
<time>2011-07-19T20:10:37.96</time>
<name>1314</name>
</trkpt>
<trkpt lat="39.036023" lon="-3.851638">
<ele>670.0</ele>
<speed>26.4</speed>
<course>264.2</course>
<desc>Speed 26.4 km/h Distance 8.12 km</desc>
<time>2011-07-19T20:10:38.96</time>
<name>1315</name>
</trkpt>
<trkpt lat="39.036017" lon="-3.851723">
<ele>670.0</ele>
<speed>26.4</speed>
<course>265.6</course>
<desc>Speed 26.4 km/h Distance 8.13 km</desc>
<time>2011-07-19T20:10:39.96</time>
<name>1316</name>
</trkpt>
<trkpt lat="39.036012" lon="-3.851807">
<ele>670.0</ele>
<speed>26.4</speed>
<course>267.1</course>
<desc>Speed 26.4 km/h Distance 8.13 km</desc>
<time>2011-07-19T20:10:40.96</time>
<name>1317</name>
</trkpt>
<trkpt lat="39.036008" lon="-3.851892">
<ele>670.0</ele>
<speed>26.5</speed>
<course>267.1</course>
<desc>Speed 26.5 km/h Distance 8.14 km</desc>
<time>2011-07-19T20:10:41.98</time>
<name>1318</name>
</trkpt>
<trkpt lat="39.036005" lon="-3.851977">
<ele>670.0</ele>
<speed>26.6</speed>
<course>267.2</course>
<desc>Speed 26.6 km/h Distance 8.15 km</desc>
<time>2011-07-19T20:10:42.96</time>
<name>1319</name>
</trkpt>
<trkpt lat="39.036002" lon="-3.852063">
<ele>670.0</ele>
<speed>26.7</speed>
<course>267.1</course>
<desc>Speed 26.7 km/h Distance 8.16 km</desc>
<time>2011-07-19T20:10:43.96</time>
<name>1320</name>
</trkpt>
<trkpt lat="39.035998" lon="-3.852148">
<ele>670.0</ele>
<speed>26.8</speed>
<course>268.6</course>
<desc>Speed 26.8 km/h Distance 8.16 km</desc>
<time>2011-07-19T20:10:44.96</time>
<name>1321</name>
</trkpt>
<trkpt lat="39.035997" lon="-3.852233">
<ele>670.0</ele>
<speed>26.4</speed>
<course>270.0</course>
<desc>Speed 26.4 km/h Distance 8.17 km</desc>
<time>2011-07-19T20:10:45.96</time>
<name>1322</name>
</trkpt>
<trkpt lat="39.035997" lon="-3.852317">
<ele>669.5</ele>
<speed>26.3</speed>
<course>270.0</course>
<desc>Speed 26.3 km/h Distance 8.18 km</desc>
<time>2011-07-19T20:10:46.96</time>
<name>1323</name>
</trkpt>
<trkpt lat="39.035997" lon="-3.852403">
<ele>669.5</ele>
<speed>26.5</speed>
<course>272.9</course>
<desc>Speed 26.5 km/h Distance 8.19 km</desc>
<time>2011-07-19T20:10:47.96</time>
<name>1324</name>
</trkpt>
<trkpt lat="39.036000" lon="-3.852488">
<ele>669.5</ele>
<speed>27.0</speed>
<course>275.6</course>
<desc>Speed 27.0 km/h Distance 8.19 km</desc>
<time>2011-07-19T20:10:48.96</time>
<name>1325</name>
</trkpt>
<trkpt lat="39.036007" lon="-3.852577">
<ele>669.5</ele>
<speed>27.1</speed>
<course>275.8</course>
<desc>Speed 27.1 km/h Distance 8.20 km</desc>
<time>2011-07-19T20:10:49.97</time>
<name>1326</name>
</trkpt>
<trkpt lat="39.036013" lon="-3.852662">
<ele>669.5</ele>
<speed>26.9</speed>
<course>277.2</course>
<desc>Speed 26.9 km/h Distance 8.21 km</desc>
<time>2011-07-19T20:10:50.97</time>
<name>1327</name>
</trkpt>
<trkpt lat="39.036022" lon="-3.852747">
<ele>669.5</ele>
<speed>26.7</speed>
<course>280.2</course>
<desc>Speed 26.7 km/h Distance 8.22 km</desc>
<time>2011-07-19T20:10:51.96</time>
<name>1328</name>
</trkpt>
<trkpt lat="39.036033" lon="-3.852830">
<ele>669.5</ele>
<speed>26.3</speed>
<course>280.4</course>
<desc>Speed 26.3 km/h Distance 8.22 km</desc>
<time>2011-07-19T20:10:52.97</time>
<name>1329</name>
</trkpt>
<trkpt lat="39.036045" lon="-3.852912">
<ele>669.5</ele>
<speed>26.0</speed>
<course>278.8</course>
<desc>Speed 26.0 km/h Distance 8.23 km</desc>
<time>2011-07-19T20:10:53.96</time>
<name>1330</name>
</trkpt>
<trkpt lat="39.036055" lon="-3.852995">
<ele>669.5</ele>
<speed>26.1</speed>
<course>280.2</course>
<desc>Speed 26.1 km/h Distance 8.24 km</desc>
<time>2011-07-19T20:10:54.96</time>
<name>1331</name>
</trkpt>
<trkpt lat="39.036067" lon="-3.853078">
<ele>669.5</ele>
<speed>26.2</speed>
<course>281.9</course>
<desc>Speed 26.2 km/h Distance 8.24 km</desc>
<time>2011-07-19T20:10:55.97</time>
<name>1332</name>
</trkpt>
<trkpt lat="39.036080" lon="-3.853160">
<ele>669.5</ele>
<speed>26.3</speed>
<course>278.6</course>
<desc>Speed 26.3 km/h Distance 8.25 km</desc>
<time>2011-07-19T20:10:56.96</time>
<name>1333</name>
</trkpt>
<trkpt lat="39.036090" lon="-3.853245">
<ele>669.5</ele>
<speed>26.4</speed>
<course>278.8</course>
<desc>Speed 26.4 km/h Distance 8.26 km</desc>
<time>2011-07-19T20:10:57.96</time>
<name>1334</name>
</trkpt>
<trkpt lat="39.036100" lon="-3.853328">
<ele>669.5</ele>
<speed>26.4</speed>
<course>278.8</course>
<desc>Speed 26.4 km/h Distance 8.27 km</desc>
<time>2011-07-19T20:10:58.96</time>
<name>1335</name>
</trkpt>
<trkpt lat="39.036110" lon="-3.853412">
<ele>669.5</ele>
<speed>26.3</speed>
<course>278.6</course>
<desc>Speed 26.3 km/h Distance 8.27 km</desc>
<time>2011-07-19T20:10:59.95</time>
<name>1336</name>
</trkpt>
<trkpt lat="39.036120" lon="-3.853497">
<ele>669.0</ele>
<speed>26.5</speed>
<course>278.6</course>
<desc>Speed 26.5 km/h Distance 8.28 km</desc>
<time>2011-07-19T20:11:00.97</time>
<name>1337</name>
</trkpt>
<trkpt lat="39.036130" lon="-3.853582">
<ele>669.0</ele>
<speed>26.7</speed>
<course>280.2</course>
<desc>Speed 26.7 km/h Distance 8.29 km</desc>
<time>2011-07-19T20:11:01.97</time>
<name>1338</name>
</trkpt>
<trkpt lat="39.036142" lon="-3.853665">
<ele>669.0</ele>
<speed>26.8</speed>
<course>278.4</course>
<desc>Speed 26.8 km/h Distance 8.30 km</desc>
<time>2011-07-19T20:11:02.96</time>
<name>1339</name>
</trkpt>
<trkpt lat="39.036152" lon="-3.853752">
<ele>669.0</ele>
<speed>26.8</speed>
<course>278.6</course>
<desc>Speed 26.8 km/h Distance 8.30 km</desc>
<time>2011-07-19T20:11:03.96</time>
<name>1340</name>
</trkpt>
<trkpt lat="39.036162" lon="-3.853837">
<ele>669.0</ele>
<speed>27.0</speed>
<course>281.4</course>
<desc>Speed 27.0 km/h Distance 8.31 km</desc>
<time>2011-07-19T20:11:04.96</time>
<name>1341</name>
</trkpt>
<trkpt lat="39.036175" lon="-3.853922">
<ele>669.0</ele>
<speed>26.9</speed>
<course>280.2</course>
<desc>Speed 26.9 km/h Distance 8.32 km</desc>
<time>2011-07-19T20:11:05.96</time>
<name>1342</name>
</trkpt>
<trkpt lat="39.036187" lon="-3.854005">
<ele>669.0</ele>
<speed>26.6</speed>
<course>280.2</course>
<desc>Speed 26.6 km/h Distance 8.33 km</desc>
<time>2011-07-19T20:11:06.96</time>
<name>1343</name>
</trkpt>
<trkpt lat="39.036198" lon="-3.854088">
<ele>669.0</ele>
<speed>26.3</speed>
<course>281.9</course>
<desc>Speed 26.3 km/h Distance 8.33 km</desc>
<time>2011-07-19T20:11:07.96</time>
<name>1344</name>
</trkpt>
<trkpt lat="39.036212" lon="-3.854170">
<ele>669.5</ele>
<speed>26.1</speed>
<course>281.9</course>
<desc>Speed 26.1 km/h Distance 8.34 km</desc>
<time>2011-07-19T20:11:08.96</time>
<name>1345</name>
</trkpt>
<trkpt lat="39.036225" lon="-3.854252">
<ele>669.5</ele>
<speed>25.8</speed>
<course>282.1</course>
<desc>Speed 25.8 km/h Distance 8.35 km</desc>
<time>2011-07-19T20:11:09.96</time>
<name>1346</name>
</trkpt>
<trkpt lat="39.036238" lon="-3.854332">
<ele>669.5</ele>
<speed>25.3</speed>
<course>280.6</course>
<desc>Speed 25.3 km/h Distance 8.35 km</desc>
<time>2011-07-19T20:11:10.96</time>
<name>1347</name>
</trkpt>
<trkpt lat="39.036250" lon="-3.854412">
<ele>669.5</ele>
<speed>25.2</speed>
<course>282.4</course>
<desc>Speed 25.2 km/h Distance 8.36 km</desc>
<time>2011-07-19T20:11:11.96</time>
<name>1348</name>
</trkpt>
<trkpt lat="39.036263" lon="-3.854490">
<ele>669.5</ele>
<speed>25.2</speed>
<course>277.6</course>
<desc>Speed 25.2 km/h Distance 8.37 km</desc>
<time>2011-07-19T20:11:12.96</time>
<name>1349</name>
</trkpt>
<trkpt lat="39.036272" lon="-3.854570">
<ele>669.5</ele>
<speed>25.0</speed>
<course>273.1</course>
<desc>Speed 25.0 km/h Distance 8.38 km</desc>
<time>2011-07-19T20:11:13.96</time>
<name>1350</name>
</trkpt>
<trkpt lat="39.036275" lon="-3.854648">
<ele>669.5</ele>
<speed>24.4</speed>
<course>265.0</course>
<desc>Speed 24.4 km/h Distance 8.38 km</desc>
<time>2011-07-19T20:11:14.96</time>
<name>1351</name>
</trkpt>
<trkpt lat="39.036270" lon="-3.854722">
<ele>669.5</ele>
<speed>23.4</speed>
<course>258.4</course>
<desc>Speed 23.4 km/h Distance 8.39 km</desc>
<time>2011-07-19T20:11:15.96</time>
<name>1352</name>
</trkpt>
<trkpt lat="39.036258" lon="-3.854795">
<ele>669.5</ele>
<speed>23.0</speed>
<course>254.2</course>
<desc>Speed 23.0 km/h Distance 8.39 km</desc>
<time>2011-07-19T20:11:16.96</time>
<name>1353</name>
</trkpt>
<trkpt lat="39.036243" lon="-3.854863">
<ele>669.5</ele>
<speed>22.2</speed>
<course>266.3</course>
<desc>Speed 22.2 km/h Distance 8.40 km</desc>
<time>2011-07-19T20:11:17.96</time>
<name>1354</name>
</trkpt>
<trkpt lat="39.036240" lon="-3.854930">
<ele>669.5</ele>
<speed>20.8</speed>
<course>282.1</course>
<desc>Speed 20.8 km/h Distance 8.41 km</desc>
<time>2011-07-19T20:11:18.96</time>
<name>1355</name>
</trkpt>
<trkpt lat="39.036248" lon="-3.854980">
<ele>669.5</ele>
<speed>16.4</speed>
<course>315.8</course>
<desc>Speed 16.4 km/h Distance 8.41 km</desc>
<time>2011-07-19T20:11:19.96</time>
<name>1356</name>
</trkpt>
<trkpt lat="39.036268" lon="-3.855005">
<ele>668.5</ele>
<speed>10.8</speed>
<course>342.7</course>
<desc>Speed 10.8 km/h Distance 8.41 km</desc>
<time>2011-07-19T20:11:20.96</time>
<name>1357</name>
</trkpt>
<trkpt lat="39.036285" lon="-3.855012">
<ele>669.0</ele>
<speed>7.3</speed>
<course>3.2</course>
<desc>Speed 7.3 km/h Distance 8.42 km</desc>
<time>2011-07-19T20:11:21.97</time>
<name>1358</name>
</trkpt>
<trkpt lat="39.036307" lon="-3.855010">
<ele>669.0</ele>
<speed>8.5</speed>
<course>13.3</course>
<desc>Speed 8.5 km/h Distance 8.42 km</desc>
<time>2011-07-19T20:11:22.96</time>
<name>1359</name>
</trkpt>
<trkpt lat="39.036328" lon="-3.855003">
<ele>669.5</ele>
<speed>8.9</speed>
<course>9.5</course>
<desc>Speed 8.9 km/h Distance 8.42 km</desc>
<time>2011-07-19T20:11:23.96</time>
<name>1360</name>
</trkpt>
<trkpt lat="39.036352" lon="-3.854998">
<ele>669.5</ele>
<speed>9.6</speed>
<course>5.6</course>
<desc>Speed 9.6 km/h Distance 8.42 km</desc>
<time>2011-07-19T20:11:24.96</time>
<name>1361</name>
</trkpt>
<trkpt lat="39.036378" lon="-3.854995">
<ele>669.5</ele>
<speed>10.0</speed>
<course>11.7</course>
<desc>Speed 10.0 km/h Distance 8.43 km</desc>
<time>2011-07-19T20:11:25.95</time>
<name>1362</name>
</trkpt>
<trkpt lat="39.036403" lon="-3.854988">
<ele>669.5</ele>
<speed>10.5</speed>
<course>10.9</course>
<desc>Speed 10.5 km/h Distance 8.43 km</desc>
<time>2011-07-19T20:11:26.97</time>
<name>1363</name>
</trkpt>
<trkpt lat="39.036430" lon="-3.854982">
<ele>670.0</ele>
<speed>10.6</speed>
<course>5.4</course>
<desc>Speed 10.6 km/h Distance 8.43 km</desc>
<time>2011-07-19T20:11:27.96</time>
<name>1364</name>
</trkpt>
<trkpt lat="39.036458" lon="-3.854978">
<ele>670.0</ele>
<speed>11.7</speed>
<course>351.1</course>
<desc>Speed 11.7 km/h Distance 8.44 km</desc>
<time>2011-07-19T20:11:28.96</time>
<name>1365</name>
</trkpt>
<trkpt lat="39.036492" lon="-3.854985">
<ele>670.5</ele>
<speed>13.4</speed>
<course>351.9</course>
<desc>Speed 13.4 km/h Distance 8.44 km</desc>
<time>2011-07-19T20:11:29.96</time>
<name>1366</name>
</trkpt>
<trkpt lat="39.036528" lon="-3.854992">
<ele>670.5</ele>
<speed>14.5</speed>
<course>349.0</course>
<desc>Speed 14.5 km/h Distance 8.44 km</desc>
<time>2011-07-19T20:11:30.96</time>
<name>1367</name>
</trkpt>
<trkpt lat="39.036568" lon="-3.855002">
<ele>670.5</ele>
<speed>16.2</speed>
<course>348.1</course>
<desc>Speed 16.2 km/h Distance 8.45 km</desc>
<time>2011-07-19T20:11:31.96</time>
<name>1368</name>
</trkpt>
<trkpt lat="39.036612" lon="-3.855013">
<ele>670.0</ele>
<speed>17.6</speed>
<course>350.6</course>
<desc>Speed 17.6 km/h Distance 8.45 km</desc>
<time>2011-07-19T20:11:32.96</time>
<name>1369</name>
</trkpt>
<trkpt lat="39.036658" lon="-3.855023">
<ele>670.0</ele>
<speed>18.4</speed>
<course>346.5</course>
<desc>Speed 18.4 km/h Distance 8.46 km</desc>
<time>2011-07-19T20:11:33.96</time>
<name>1370</name>
</trkpt>
<trkpt lat="39.036707" lon="-3.855038">
<ele>670.0</ele>
<speed>19.8</speed>
<course>351.1</course>
<desc>Speed 19.8 km/h Distance 8.46 km</desc>
<time>2011-07-19T20:11:34.96</time>
<name>1371</name>
</trkpt>
<trkpt lat="39.036757" lon="-3.855048">
<ele>670.0</ele>
<speed>19.8</speed>
<course>355.6</course>
<desc>Speed 19.8 km/h Distance 8.47 km</desc>
<time>2011-07-19T20:11:35.96</time>
<name>1372</name>
</trkpt>
<trkpt lat="39.036807" lon="-3.855053">
<ele>670.0</ele>
<speed>20.2</speed>
<course>2.8</course>
<desc>Speed 20.2 km/h Distance 8.48 km</desc>
<time>2011-07-19T20:11:36.96</time>
<name>1373</name>
</trkpt>
<trkpt lat="39.036857" lon="-3.855050">
<ele>670.0</ele>
<speed>19.9</speed>
<course>7.6</course>
<desc>Speed 19.9 km/h Distance 8.48 km</desc>
<time>2011-07-19T20:11:37.96</time>
<name>1374</name>
</trkpt>
<trkpt lat="39.036905" lon="-3.855042">
<ele>670.5</ele>
<speed>19.7</speed>
<course>12.1</course>
<desc>Speed 19.7 km/h Distance 8.49 km</desc>
<time>2011-07-19T20:11:38.96</time>
<name>1375</name>
</trkpt>
<trkpt lat="39.036953" lon="-3.855028">
<ele>670.5</ele>
<speed>19.5</speed>
<course>21.2</course>
<desc>Speed 19.5 km/h Distance 8.49 km</desc>
<time>2011-07-19T20:11:39.96</time>
<name>1376</name>
</trkpt>
<trkpt lat="39.037000" lon="-3.855005">
<ele>670.5</ele>
<speed>20.0</speed>
<course>26.9</course>
<desc>Speed 20.0 km/h Distance 8.50 km</desc>
<time>2011-07-19T20:11:40.96</time>
<name>1377</name>
</trkpt>
<trkpt lat="39.037043" lon="-3.854977">
<ele>670.5</ele>
<speed>19.6</speed>
<course>31.9</course>
<desc>Speed 19.6 km/h Distance 8.50 km</desc>
<time>2011-07-19T20:11:41.98</time>
<name>1378</name>
</trkpt>
<trkpt lat="39.037085" lon="-3.854943">
<ele>671.0</ele>
<speed>19.3</speed>
<course>39.0</course>
<desc>Speed 19.3 km/h Distance 8.51 km</desc>
<time>2011-07-19T20:11:42.96</time>
<name>1379</name>
</trkpt>
<trkpt lat="39.037123" lon="-3.854903">
<ele>671.0</ele>
<speed>20.0</speed>
<course>41.3</course>
<desc>Speed 20.0 km/h Distance 8.51 km</desc>
<time>2011-07-19T20:11:43.96</time>
<name>1380</name>
</trkpt>
<trkpt lat="39.037162" lon="-3.854860">
<ele>671.0</ele>
<speed>20.5</speed>
<course>42.4</course>
<desc>Speed 20.5 km/h Distance 8.52 km</desc>
<time>2011-07-19T20:11:44.96</time>
<name>1381</name>
</trkpt>
<trkpt lat="39.037200" lon="-3.854815">
<ele>671.0</ele>
<speed>20.8</speed>
<course>44.7</course>
<desc>Speed 20.8 km/h Distance 8.53 km</desc>
<time>2011-07-19T20:11:45.96</time>
<name>1382</name>
</trkpt>
<trkpt lat="39.037237" lon="-3.854768">
<ele>671.5</ele>
<speed>20.5</speed>
<course>46.0</course>
<desc>Speed 20.5 km/h Distance 8.53 km</desc>
<time>2011-07-19T20:11:46.96</time>
<name>1383</name>
</trkpt>
<trkpt lat="39.037272" lon="-3.854722">
<ele>671.5</ele>
<speed>20.1</speed>
<course>48.4</course>
<desc>Speed 20.1 km/h Distance 8.54 km</desc>
<time>2011-07-19T20:11:47.96</time>
<name>1384</name>
</trkpt>
<trkpt lat="39.037305" lon="-3.854673">
<ele>671.5</ele>
<speed>20.2</speed>
<course>45.0</course>
<desc>Speed 20.2 km/h Distance 8.54 km</desc>
<time>2011-07-19T20:11:48.96</time>
<name>1385</name>
</trkpt>
<trkpt lat="39.037340" lon="-3.854628">
<ele>671.5</ele>
<speed>20.2</speed>
<course>44.7</course>
<desc>Speed 20.2 km/h Distance 8.55 km</desc>
<time>2011-07-19T20:11:49.96</time>
<name>1386</name>
</trkpt>
<trkpt lat="39.037377" lon="-3.854582">
<ele>671.5</ele>
<speed>20.1</speed>
<course>41.4</course>
<desc>Speed 20.1 km/h Distance 8.55 km</desc>
<time>2011-07-19T20:11:50.96</time>
<name>1387</name>
</trkpt>
<trkpt lat="39.037413" lon="-3.854540">
<ele>672.0</ele>
<speed>19.9</speed>
<course>39.0</course>
<desc>Speed 19.9 km/h Distance 8.56 km</desc>
<time>2011-07-19T20:11:51.96</time>
<name>1388</name>
</trkpt>
<trkpt lat="39.037452" lon="-3.854500">
<ele>672.0</ele>
<speed>19.9</speed>
<course>39.0</course>
<desc>Speed 19.9 km/h Distance 8.56 km</desc>
<time>2011-07-19T20:11:52.96</time>
<name>1389</name>
</trkpt>
<trkpt lat="39.037490" lon="-3.854460">
<ele>672.0</ele>
<speed>19.6</speed>
<course>41.4</course>
<desc>Speed 19.6 km/h Distance 8.57 km</desc>
<time>2011-07-19T20:11:53.96</time>
<name>1390</name>
</trkpt>
<trkpt lat="39.037527" lon="-3.854418">
<ele>672.0</ele>
<speed>19.8</speed>
<course>40.3</course>
<desc>Speed 19.8 km/h Distance 8.58 km</desc>
<time>2011-07-19T20:11:54.95</time>
<name>1391</name>
</trkpt>
<trkpt lat="39.037563" lon="-3.854378">
<ele>672.5</ele>
<speed>19.2</speed>
<course>39.1</course>
<desc>Speed 19.2 km/h Distance 8.58 km</desc>
<time>2011-07-19T20:11:55.96</time>
<name>1392</name>
</trkpt>
<trkpt lat="39.037600" lon="-3.854340">
<ele>672.5</ele>
<speed>19.0</speed>
<course>42.8</course>
<desc>Speed 19.0 km/h Distance 8.59 km</desc>
<time>2011-07-19T20:11:56.96</time>
<name>1393</name>
</trkpt>
<trkpt lat="39.037635" lon="-3.854298">
<ele>672.5</ele>
<speed>19.2</speed>
<course>43.9</course>
<desc>Speed 19.2 km/h Distance 8.59 km</desc>
<time>2011-07-19T20:11:57.96</time>
<name>1394</name>
</trkpt>
<trkpt lat="39.037670" lon="-3.854255">
<ele>673.0</ele>
<speed>19.3</speed>
<course>41.6</course>
<desc>Speed 19.3 km/h Distance 8.60 km</desc>
<time>2011-07-19T20:11:58.96</time>
<name>1395</name>
</trkpt>
<trkpt lat="39.037705" lon="-3.854215">
<ele>673.0</ele>
<speed>19.2</speed>
<course>41.4</course>
<desc>Speed 19.2 km/h Distance 8.60 km</desc>
<time>2011-07-19T20:11:59.97</time>
<name>1396</name>
</trkpt>
<trkpt lat="39.037742" lon="-3.854173">
<ele>673.0</ele>
<speed>19.3</speed>
<course>41.4</course>
<desc>Speed 19.3 km/h Distance 8.61 km</desc>
<time>2011-07-19T20:12:00.97</time>
<name>1397</name>
</trkpt>
<trkpt lat="39.037778" lon="-3.854132">
<ele>673.5</ele>
<speed>19.4</speed>
<course>41.4</course>
<desc>Speed 19.4 km/h Distance 8.61 km</desc>
<time>2011-07-19T20:12:01.97</time>
<name>1398</name>
</trkpt>
<trkpt lat="39.037815" lon="-3.854090">
<ele>673.5</ele>
<speed>19.7</speed>
<course>41.4</course>
<desc>Speed 19.7 km/h Distance 8.62 km</desc>
<time>2011-07-19T20:12:02.96</time>
<name>1399</name>
</trkpt>
<trkpt lat="39.037852" lon="-3.854048">
<ele>674.0</ele>
<speed>19.6</speed>
<course>41.4</course>
<desc>Speed 19.6 km/h Distance 8.62 km</desc>
<time>2011-07-19T20:12:03.96</time>
<name>1400</name>
</trkpt>
<trkpt lat="39.037888" lon="-3.854007">
<ele>674.0</ele>
<speed>19.8</speed>
<course>41.4</course>
<desc>Speed 19.8 km/h Distance 8.63 km</desc>
<time>2011-07-19T20:12:04.96</time>
<name>1401</name>
</trkpt>
<trkpt lat="39.037925" lon="-3.853965">
<ele>674.0</ele>
<speed>19.7</speed>
<course>41.4</course>
<desc>Speed 19.7 km/h Distance 8.63 km</desc>
<time>2011-07-19T20:12:05.96</time>
<name>1402</name>
</trkpt>
<trkpt lat="39.037962" lon="-3.853923">
<ele>674.5</ele>
<speed>19.9</speed>
<course>40.2</course>
<desc>Speed 19.9 km/h Distance 8.64 km</desc>
<time>2011-07-19T20:12:06.96</time>
<name>1403</name>
</trkpt>
<trkpt lat="39.038000" lon="-3.853882">
<ele>674.5</ele>
<speed>20.0</speed>
<course>40.2</course>
<desc>Speed 20.0 km/h Distance 8.65 km</desc>
<time>2011-07-19T20:12:07.96</time>
<name>1404</name>
</trkpt>
<trkpt lat="39.038038" lon="-3.853840">
<ele>675.0</ele>
<speed>20.0</speed>
<course>41.3</course>
<desc>Speed 20.0 km/h Distance 8.65 km</desc>
<time>2011-07-19T20:12:08.96</time>
<name>1405</name>
</trkpt>
<trkpt lat="39.038077" lon="-3.853797">
<ele>675.0</ele>
<speed>20.2</speed>
<course>41.3</course>
<desc>Speed 20.2 km/h Distance 8.66 km</desc>
<time>2011-07-19T20:12:09.96</time>
<name>1406</name>
</trkpt>
<trkpt lat="39.038115" lon="-3.853753">
<ele>675.5</ele>
<speed>20.5</speed>
<course>41.3</course>
<desc>Speed 20.5 km/h Distance 8.66 km</desc>
<time>2011-07-19T20:12:10.95</time>
<name>1407</name>
</trkpt>
<trkpt lat="39.038153" lon="-3.853710">
<ele>675.5</ele>
<speed>20.9</speed>
<course>41.1</course>
<desc>Speed 20.9 km/h Distance 8.67 km</desc>
<time>2011-07-19T20:12:11.95</time>
<name>1408</name>
</trkpt>
<trkpt lat="39.038193" lon="-3.853665">
<ele>675.5</ele>
<speed>21.0</speed>
<course>37.8</course>
<desc>Speed 21.0 km/h Distance 8.67 km</desc>
<time>2011-07-19T20:12:12.95</time>
<name>1409</name>
</trkpt>
<trkpt lat="39.038235" lon="-3.853623">
<ele>675.5</ele>
<speed>20.6</speed>
<course>35.5</course>
<desc>Speed 20.6 km/h Distance 8.68 km</desc>
<time>2011-07-19T20:12:13.96</time>
<name>1410</name>
</trkpt>
<trkpt lat="39.038275" lon="-3.853587">
<ele>675.5</ele>
<speed>20.2</speed>
<course>36.7</course>
<desc>Speed 20.2 km/h Distance 8.69 km</desc>
<time>2011-07-19T20:12:14.95</time>
<name>1411</name>
</trkpt>
<trkpt lat="39.038315" lon="-3.853548">
<ele>676.0</ele>
<speed>19.8</speed>
<course>33.1</course>
<desc>Speed 19.8 km/h Distance 8.69 km</desc>
<time>2011-07-19T20:12:15.96</time>
<name>1412</name>
</trkpt>
<trkpt lat="39.038357" lon="-3.853513">
<ele>676.0</ele>
<speed>19.6</speed>
<course>30.6</course>
<desc>Speed 19.6 km/h Distance 8.70 km</desc>
<time>2011-07-19T20:12:16.96</time>
<name>1413</name>
</trkpt>
<trkpt lat="39.038398" lon="-3.853482">
<ele>676.0</ele>
<speed>19.6</speed>
<course>30.2</course>
<desc>Speed 19.6 km/h Distance 8.70 km</desc>
<time>2011-07-19T20:12:17.96</time>
<name>1414</name>
</trkpt>
<trkpt lat="39.038438" lon="-3.853452">
<ele>677.0</ele>
<speed>18.5</speed>
<course>32.9</course>
<desc>Speed 18.5 km/h Distance 8.71 km</desc>
<time>2011-07-19T20:12:18.96</time>
<name>1415</name>
</trkpt>
<trkpt lat="39.038478" lon="-3.853418">
<ele>677.0</ele>
<speed>18.9</speed>
<course>32.9</course>
<desc>Speed 18.9 km/h Distance 8.71 km</desc>
<time>2011-07-19T20:12:19.96</time>
<name>1416</name>
</trkpt>
<trkpt lat="39.038518" lon="-3.853385">
<ele>677.5</ele>
<speed>19.3</speed>
<course>30.6</course>
<desc>Speed 19.3 km/h Distance 8.72 km</desc>
<time>2011-07-19T20:12:20.96</time>
<name>1417</name>
</trkpt>
<trkpt lat="39.038560" lon="-3.853353">
<ele>677.5</ele>
<speed>19.5</speed>
<course>26.1</course>
<desc>Speed 19.5 km/h Distance 8.72 km</desc>
<time>2011-07-19T20:12:21.96</time>
<name>1418</name>
</trkpt>
<trkpt lat="39.038605" lon="-3.853325">
<ele>678.0</ele>
<speed>19.9</speed>
<course>24.7</course>
<desc>Speed 19.9 km/h Distance 8.73 km</desc>
<time>2011-07-19T20:12:22.96</time>
<name>1419</name>
</trkpt>
<trkpt lat="39.038650" lon="-3.853298">
<ele>678.0</ele>
<speed>19.8</speed>
<course>24.2</course>
<desc>Speed 19.8 km/h Distance 8.73 km</desc>
<time>2011-07-19T20:12:23.95</time>
<name>1420</name>
</trkpt>
<trkpt lat="39.038693" lon="-3.853273">
<ele>678.5</ele>
<speed>18.9</speed>
<course>26.9</course>
<desc>Speed 18.9 km/h Distance 8.74 km</desc>
<time>2011-07-19T20:12:24.97</time>
<name>1421</name>
</trkpt>
<trkpt lat="39.038737" lon="-3.853245">
<ele>678.5</ele>
<speed>19.4</speed>
<course>32.7</course>
<desc>Speed 19.4 km/h Distance 8.74 km</desc>
<time>2011-07-19T20:12:25.96</time>
<name>1422</name>
</trkpt>
<trkpt lat="39.038775" lon="-3.853213">
<ele>679.0</ele>
<speed>18.5</speed>
<course>33.9</course>
<desc>Speed 18.5 km/h Distance 8.75 km</desc>
<time>2011-07-19T20:12:26.96</time>
<name>1423</name>
</trkpt>
<trkpt lat="39.038812" lon="-3.853182">
<ele>679.0</ele>
<speed>18.0</speed>
<course>31.3</course>
<desc>Speed 18.0 km/h Distance 8.75 km</desc>
<time>2011-07-19T20:12:27.96</time>
<name>1424</name>
</trkpt>
<trkpt lat="39.038850" lon="-3.853152">
<ele>679.5</ele>
<speed>17.4</speed>
<course>24.4</course>
<desc>Speed 17.4 km/h Distance 8.76 km</desc>
<time>2011-07-19T20:12:28.95</time>
<name>1425</name>
</trkpt>
<trkpt lat="39.038890" lon="-3.853128">
<ele>680.0</ele>
<speed>17.9</speed>
<course>22.8</course>
<desc>Speed 17.9 km/h Distance 8.76 km</desc>
<time>2011-07-19T20:12:29.95</time>
<name>1426</name>
</trkpt>
<trkpt lat="39.038930" lon="-3.853107">
<ele>680.0</ele>
<speed>17.2</speed>
<course>18.8</course>
<desc>Speed 17.2 km/h Distance 8.77 km</desc>
<time>2011-07-19T20:12:30.95</time>
<name>1427</name>
</trkpt>
<trkpt lat="39.038972" lon="-3.853088">
<ele>680.5</ele>
<speed>17.4</speed>
<course>21.2</course>
<desc>Speed 17.4 km/h Distance 8.77 km</desc>
<time>2011-07-19T20:12:31.96</time>
<name>1428</name>
</trkpt>
<trkpt lat="39.039012" lon="-3.853068">
<ele>681.5</ele>
<speed>17.3</speed>
<course>24.4</course>
<desc>Speed 17.3 km/h Distance 8.78 km</desc>
<time>2011-07-19T20:12:32.96</time>
<name>1429</name>
</trkpt>
<trkpt lat="39.039052" lon="-3.853045">
<ele>682.0</ele>
<speed>17.7</speed>
<course>27.4</course>
<desc>Speed 17.7 km/h Distance 8.78 km</desc>
<time>2011-07-19T20:12:33.96</time>
<name>1430</name>
</trkpt>
<trkpt lat="39.039092" lon="-3.853018">
<ele>682.5</ele>
<speed>18.0</speed>
<course>27.4</course>
<desc>Speed 18.0 km/h Distance 8.79 km</desc>
<time>2011-07-19T20:12:34.95</time>
<name>1431</name>
</trkpt>
<trkpt lat="39.039132" lon="-3.852992">
<ele>683.0</ele>
<speed>18.3</speed>
<course>28.8</course>
<desc>Speed 18.3 km/h Distance 8.79 km</desc>
<time>2011-07-19T20:12:35.95</time>
<name>1432</name>
</trkpt>
<trkpt lat="39.039172" lon="-3.852963">
<ele>683.5</ele>
<speed>18.3</speed>
<course>31.6</course>
<desc>Speed 18.3 km/h Distance 8.80 km</desc>
<time>2011-07-19T20:12:36.95</time>
<name>1433</name>
</trkpt>
<trkpt lat="39.039212" lon="-3.852932">
<ele>684.0</ele>
<speed>19.0</speed>
<course>30.2</course>
<desc>Speed 19.0 km/h Distance 8.80 km</desc>
<time>2011-07-19T20:12:37.96</time>
<name>1434</name>
</trkpt>
<trkpt lat="39.039252" lon="-3.852902">
<ele>684.0</ele>
<speed>18.5</speed>
<course>30.2</course>
<desc>Speed 18.5 km/h Distance 8.81 km</desc>
<time>2011-07-19T20:12:38.96</time>
<name>1435</name>
</trkpt>
<trkpt lat="39.039292" lon="-3.852872">
<ele>685.0</ele>
<speed>18.6</speed>
<course>25.0</course>
<desc>Speed 18.6 km/h Distance 8.81 km</desc>
<time>2011-07-19T20:12:39.96</time>
<name>1436</name>
</trkpt>
<trkpt lat="39.039333" lon="-3.852847">
<ele>685.5</ele>
<speed>18.3</speed>
<course>15.5</course>
<desc>Speed 18.3 km/h Distance 8.82 km</desc>
<time>2011-07-19T20:12:40.95</time>
<name>1437</name>
</trkpt>
<trkpt lat="39.039380" lon="-3.852830">
<ele>685.5</ele>
<speed>19.3</speed>
<course>12.5</course>
<desc>Speed 19.3 km/h Distance 8.83 km</desc>
<time>2011-07-19T20:12:41.98</time>
<name>1438</name>
</trkpt>
<trkpt lat="39.039427" lon="-3.852817">
<ele>686.0</ele>
<speed>19.0</speed>
<course>15.0</course>
<desc>Speed 19.0 km/h Distance 8.83 km</desc>
<time>2011-07-19T20:12:42.95</time>
<name>1439</name>
</trkpt>
<trkpt lat="39.039475" lon="-3.852800">
<ele>686.0</ele>
<speed>19.7</speed>
<course>14.0</course>
<desc>Speed 19.7 km/h Distance 8.84 km</desc>
<time>2011-07-19T20:12:43.95</time>
<name>1440</name>
</trkpt>
<trkpt lat="39.039522" lon="-3.852785">
<ele>686.5</ele>
<speed>19.2</speed>
<course>11.4</course>
<desc>Speed 19.2 km/h Distance 8.84 km</desc>
<time>2011-07-19T20:12:44.97</time>
<name>1441</name>
</trkpt>
<trkpt lat="39.039567" lon="-3.852773">
<ele>687.5</ele>
<speed>19.0</speed>
<course>9.4</course>
<desc>Speed 19.0 km/h Distance 8.85 km</desc>
<time>2011-07-19T20:12:45.95</time>
<name>1442</name>
</trkpt>
<trkpt lat="39.039613" lon="-3.852763">
<ele>688.0</ele>
<speed>18.8</speed>
<course>12.9</course>
<desc>Speed 18.8 km/h Distance 8.85 km</desc>
<time>2011-07-19T20:12:46.95</time>
<name>1443</name>
</trkpt>
<trkpt lat="39.039658" lon="-3.852750">
<ele>688.5</ele>
<speed>18.5</speed>
<course>16.6</course>
<desc>Speed 18.5 km/h Distance 8.86 km</desc>
<time>2011-07-19T20:12:47.95</time>
<name>1444</name>
</trkpt>
<trkpt lat="39.039702" lon="-3.852733">
<ele>690.0</ele>
<speed>17.9</speed>
<course>8.8</course>
<desc>Speed 17.9 km/h Distance 8.86 km</desc>
<time>2011-07-19T20:12:48.94</time>
<name>1445</name>
</trkpt>
<trkpt lat="39.039835" lon="-3.852707">
<ele>692.0</ele>
<speed>16.6</speed>
<course>348.2</course>
<desc>Speed 16.6 km/h Distance 8.88 km</desc>
<time>2011-07-19T20:12:51.03</time>
<name>1446</name>
</trkpt>
<trkpt lat="39.039878" lon="-3.852718">
<ele>692.5</ele>
<speed>17.6</speed>
<course>346.5</course>
<desc>Speed 17.6 km/h Distance 8.88 km</desc>
<time>2011-07-19T20:12:52.04</time>
<name>1447</name>
</trkpt>
<trkpt lat="39.039922" lon="-3.852732">
<ele>693.0</ele>
<speed>17.6</speed>
<course>356.4</course>
<desc>Speed 17.6 km/h Distance 8.89 km</desc>
<time>2011-07-19T20:12:53.03</time>
<name>1448</name>
</trkpt>
<trkpt lat="39.039963" lon="-3.852735">
<ele>694.0</ele>
<speed>17.2</speed>
<course>3.4</course>
<desc>Speed 17.2 km/h Distance 8.89 km</desc>
<time>2011-07-19T20:12:54.03</time>
<name>1449</name>
</trkpt>
<trkpt lat="39.040008" lon="-3.852732">
<ele>694.0</ele>
<speed>17.5</speed>
<course>3.4</course>
<desc>Speed 17.5 km/h Distance 8.90 km</desc>
<time>2011-07-19T20:12:55.04</time>
<name>1450</name>
</trkpt>
<trkpt lat="39.040052" lon="-3.852728">
<ele>694.5</ele>
<speed>17.0</speed>
<course>353.2</course>
<desc>Speed 17.0 km/h Distance 8.90 km</desc>
<time>2011-07-19T20:12:56.03</time>
<name>1451</name>
</trkpt>
<trkpt lat="39.040095" lon="-3.852735">
<ele>694.5</ele>
<speed>17.3</speed>
<course>341.6</course>
<desc>Speed 17.3 km/h Distance 8.91 km</desc>
<time>2011-07-19T20:12:57.03</time>
<name>1452</name>
</trkpt>
<trkpt lat="39.040130" lon="-3.852750">
<ele>695.0</ele>
<speed>15.0</speed>
<course>347.2</course>
<desc>Speed 15.0 km/h Distance 8.91 km</desc>
<time>2011-07-19T20:12:58.03</time>
<name>1453</name>
</trkpt>
<trkpt lat="39.040170" lon="-3.852762">
<ele>694.5</ele>
<speed>15.7</speed>
<course>0.4</course>
<desc>Speed 15.7 km/h Distance 8.91 km</desc>
<time>2011-07-19T20:12:59.03</time>
<name>1454</name>
</trkpt>
<trkpt lat="39.040208" lon="-3.852762">
<ele>695.0</ele>
<speed>15.2</speed>
<course>5.8</course>
<desc>Speed 15.2 km/h Distance 8.92 km</desc>
<time>2011-07-19T20:13:00.03</time>
<name>1455</name>
</trkpt>
<trkpt lat="39.040247" lon="-3.852757">
<ele>695.0</ele>
<speed>15.1</speed>
<course>1.8</course>
<desc>Speed 15.1 km/h Distance 8.92 km</desc>
<time>2011-07-19T20:13:01.04</time>
<name>1456</name>
</trkpt>
<trkpt lat="39.040288" lon="-3.852755">
<ele>695.0</ele>
<speed>16.1</speed>
<course>1.3</course>
<desc>Speed 16.1 km/h Distance 8.93 km</desc>
<time>2011-07-19T20:13:02.04</time>
<name>1457</name>
</trkpt>
<trkpt lat="39.040330" lon="-3.852753">
<ele>695.5</ele>
<speed>16.3</speed>
<course>353.1</course>
<desc>Speed 16.3 km/h Distance 8.93 km</desc>
<time>2011-07-19T20:13:03.04</time>
<name>1458</name>
</trkpt>
<trkpt lat="39.040373" lon="-3.852760">
<ele>695.5</ele>
<speed>16.7</speed>
<course>347.8</course>
<desc>Speed 16.7 km/h Distance 8.94 km</desc>
<time>2011-07-19T20:13:04.04</time>
<name>1459</name>
</trkpt>
<trkpt lat="39.040415" lon="-3.852772">
<ele>695.5</ele>
<speed>17.2</speed>
<course>345.0</course>
<desc>Speed 17.2 km/h Distance 8.94 km</desc>
<time>2011-07-19T20:13:05.04</time>
<name>1460</name>
</trkpt>
<trkpt lat="39.040458" lon="-3.852787">
<ele>695.5</ele>
<speed>17.3</speed>
<course>340.4</course>
<desc>Speed 17.3 km/h Distance 8.95 km</desc>
<time>2011-07-19T20:13:06.04</time>
<name>1461</name>
</trkpt>
<trkpt lat="39.040498" lon="-3.852805">
<ele>695.5</ele>
<speed>16.8</speed>
<course>333.7</course>
<desc>Speed 16.8 km/h Distance 8.95 km</desc>
<time>2011-07-19T20:13:07.04</time>
<name>1462</name>
</trkpt>
<trkpt lat="39.040535" lon="-3.852828">
<ele>696.0</ele>
<speed>16.3</speed>
<course>331.0</course>
<desc>Speed 16.3 km/h Distance 8.96 km</desc>
<time>2011-07-19T20:13:08.04</time>
<name>1463</name>
</trkpt>
<trkpt lat="39.040570" lon="-3.852853">
<ele>696.5</ele>
<speed>15.9</speed>
<course>332.1</course>
<desc>Speed 15.9 km/h Distance 8.96 km</desc>
<time>2011-07-19T20:13:09.04</time>
<name>1464</name>
</trkpt>
<trkpt lat="39.040607" lon="-3.852878">
<ele>696.5</ele>
<speed>15.9</speed>
<course>336.1</course>
<desc>Speed 15.9 km/h Distance 8.97 km</desc>
<time>2011-07-19T20:13:10.05</time>
<name>1465</name>
</trkpt>
<trkpt lat="39.040642" lon="-3.852898">
<ele>696.5</ele>
<speed>15.5</speed>
<course>340.6</course>
<desc>Speed 15.5 km/h Distance 8.97 km</desc>
<time>2011-07-19T20:13:11.04</time>
<name>1466</name>
</trkpt>
<trkpt lat="39.040678" lon="-3.852915">
<ele>696.5</ele>
<speed>15.1</speed>
<course>346.7</course>
<desc>Speed 15.1 km/h Distance 8.97 km</desc>
<time>2011-07-19T20:13:12.04</time>
<name>1467</name>
</trkpt>
<trkpt lat="39.040717" lon="-3.852927">
<ele>697.0</ele>
<speed>14.9</speed>
<course>353.8</course>
<desc>Speed 14.9 km/h Distance 8.98 km</desc>
<time>2011-07-19T20:13:13.04</time>
<name>1468</name>
</trkpt>
<trkpt lat="39.040753" lon="-3.852932">
<ele>697.5</ele>
<speed>14.3</speed>
<course>358.8</course>
<desc>Speed 14.3 km/h Distance 8.98 km</desc>
<time>2011-07-19T20:13:14.04</time>
<name>1469</name>
</trkpt>
<trkpt lat="39.040793" lon="-3.852933">
<ele>698.0</ele>
<speed>15.6</speed>
<course>0.0</course>
<desc>Speed 15.6 km/h Distance 8.99 km</desc>
<time>2011-07-19T20:13:15.04</time>
<name>1470</name>
</trkpt>
<trkpt lat="39.040832" lon="-3.852933">
<ele>698.0</ele>
<speed>15.0</speed>
<course>1.9</course>
<desc>Speed 15.0 km/h Distance 8.99 km</desc>
<time>2011-07-19T20:13:16.04</time>
<name>1471</name>
</trkpt>
<trkpt lat="39.040870" lon="-3.852932">
<ele>698.5</ele>
<speed>14.9</speed>
<course>0.0</course>
<desc>Speed 14.9 km/h Distance 9.00 km</desc>
<time>2011-07-19T20:13:17.04</time>
<name>1472</name>
</trkpt>
<trkpt lat="39.040910" lon="-3.852932">
<ele>699.0</ele>
<speed>15.5</speed>
<course>1.7</course>
<desc>Speed 15.5 km/h Distance 9.00 km</desc>
<time>2011-07-19T20:13:18.04</time>
<name>1473</name>
</trkpt>
<trkpt lat="39.040950" lon="-3.852930">
<ele>698.5</ele>
<speed>15.8</speed>
<course>1.2</course>
<desc>Speed 15.8 km/h Distance 9.00 km</desc>
<time>2011-07-19T20:13:19.04</time>
<name>1474</name>
</trkpt>
<trkpt lat="39.040990" lon="-3.852928">
<ele>698.5</ele>
<speed>15.4</speed>
<course>1.7</course>
<desc>Speed 15.4 km/h Distance 9.01 km</desc>
<time>2011-07-19T20:13:20.05</time>
<name>1475</name>
</trkpt>
<trkpt lat="39.041030" lon="-3.852927">
<ele>698.5</ele>
<speed>15.2</speed>
<course>1.2</course>
<desc>Speed 15.2 km/h Distance 9.01 km</desc>
<time>2011-07-19T20:13:21.04</time>
<name>1476</name>
</trkpt>
<trkpt lat="39.041070" lon="-3.852925">
<ele>698.5</ele>
<speed>15.2</speed>
<course>1.2</course>
<desc>Speed 15.2 km/h Distance 9.02 km</desc>
<time>2011-07-19T20:13:22.04</time>
<name>1477</name>
</trkpt>
<trkpt lat="39.041110" lon="-3.852923">
<ele>698.5</ele>
<speed>15.7</speed>
<course>358.2</course>
<desc>Speed 15.7 km/h Distance 9.02 km</desc>
<time>2011-07-19T20:13:23.04</time>
<name>1478</name>
</trkpt>
<trkpt lat="39.041152" lon="-3.852925">
<ele>698.5</ele>
<speed>16.2</speed>
<course>356.4</course>
<desc>Speed 16.2 km/h Distance 9.03 km</desc>
<time>2011-07-19T20:13:24.04</time>
<name>1479</name>
</trkpt>
<trkpt lat="39.041193" lon="-3.852928">
<ele>698.5</ele>
<speed>16.5</speed>
<course>353.0</course>
<desc>Speed 16.5 km/h Distance 9.03 km</desc>
<time>2011-07-19T20:13:25.04</time>
<name>1480</name>
</trkpt>
<trkpt lat="39.041235" lon="-3.852935">
<ele>698.5</ele>
<speed>16.6</speed>
<course>354.7</course>
<desc>Speed 16.6 km/h Distance 9.04 km</desc>
<time>2011-07-19T20:13:26.04</time>
<name>1481</name>
</trkpt>
<trkpt lat="39.041277" lon="-3.852940">
<ele>698.5</ele>
<speed>16.3</speed>
<course>352.4</course>
<desc>Speed 16.3 km/h Distance 9.04 km</desc>
<time>2011-07-19T20:13:27.04</time>
<name>1482</name>
</trkpt>
<trkpt lat="39.041315" lon="-3.852947">
<ele>698.5</ele>
<speed>15.2</speed>
<course>354.4</course>
<desc>Speed 15.2 km/h Distance 9.05 km</desc>
<time>2011-07-19T20:13:28.04</time>
<name>1483</name>
</trkpt>
<trkpt lat="39.041355" lon="-3.852952">
<ele>699.0</ele>
<speed>15.7</speed>
<course>354.4</course>
<desc>Speed 15.7 km/h Distance 9.05 km</desc>
<time>2011-07-19T20:13:29.04</time>
<name>1484</name>
</trkpt>
<trkpt lat="39.041395" lon="-3.852957">
<ele>699.0</ele>
<speed>15.7</speed>
<course>352.6</course>
<desc>Speed 15.7 km/h Distance 9.05 km</desc>
<time>2011-07-19T20:13:30.04</time>
<name>1485</name>
</trkpt>
<trkpt lat="39.041435" lon="-3.852963">
<ele>699.0</ele>
<speed>15.6</speed>
<course>350.0</course>
<desc>Speed 15.6 km/h Distance 9.06 km</desc>
<time>2011-07-19T20:13:31.04</time>
<name>1486</name>
</trkpt>
<trkpt lat="39.041472" lon="-3.852972">
<ele>699.0</ele>
<speed>15.2</speed>
<course>346.7</course>
<desc>Speed 15.2 km/h Distance 9.06 km</desc>
<time>2011-07-19T20:13:32.04</time>
<name>1487</name>
</trkpt>
<trkpt lat="39.041510" lon="-3.852983">
<ele>698.5</ele>
<speed>15.0</speed>
<course>348.1</course>
<desc>Speed 15.0 km/h Distance 9.07 km</desc>
<time>2011-07-19T20:13:33.04</time>
<name>1488</name>
</trkpt>
<trkpt lat="39.041547" lon="-3.852993">
<ele>699.0</ele>
<speed>14.6</speed>
<course>345.4</course>
<desc>Speed 14.6 km/h Distance 9.07 km</desc>
<time>2011-07-19T20:13:34.04</time>
<name>1489</name>
</trkpt>
<trkpt lat="39.041582" lon="-3.853005">
<ele>698.5</ele>
<speed>14.2</speed>
<course>340.8</course>
<desc>Speed 14.2 km/h Distance 9.08 km</desc>
<time>2011-07-19T20:13:35.04</time>
<name>1490</name>
</trkpt>
<trkpt lat="39.041615" lon="-3.853020">
<ele>698.5</ele>
<speed>14.1</speed>
<course>343.5</course>
<desc>Speed 14.1 km/h Distance 9.08 km</desc>
<time>2011-07-19T20:13:36.04</time>
<name>1491</name>
</trkpt>
<trkpt lat="39.041650" lon="-3.853033">
<ele>698.5</ele>
<speed>13.7</speed>
<course>337.7</course>
<desc>Speed 13.7 km/h Distance 9.08 km</desc>
<time>2011-07-19T20:13:37.04</time>
<name>1492</name>
</trkpt>
<trkpt lat="39.041682" lon="-3.853050">
<ele>698.5</ele>
<speed>13.4</speed>
<course>343.5</course>
<desc>Speed 13.4 km/h Distance 9.09 km</desc>
<time>2011-07-19T20:13:38.04</time>
<name>1493</name>
</trkpt>
<trkpt lat="39.041717" lon="-3.853063">
<ele>698.0</ele>
<speed>13.5</speed>
<course>343.5</course>
<desc>Speed 13.5 km/h Distance 9.09 km</desc>
<time>2011-07-19T20:13:39.04</time>
<name>1494</name>
</trkpt>
<trkpt lat="39.041752" lon="-3.853077">
<ele>697.5</ele>
<speed>13.5</speed>
<course>341.6</course>
<desc>Speed 13.5 km/h Distance 9.10 km</desc>
<time>2011-07-19T20:13:40.04</time>
<name>1495</name>
</trkpt>
<trkpt lat="39.041787" lon="-3.853092">
<ele>696.5</ele>
<speed>13.7</speed>
<course>340.8</course>
<desc>Speed 13.7 km/h Distance 9.10 km</desc>
<time>2011-07-19T20:13:41.06</time>
<name>1496</name>
</trkpt>
<trkpt lat="39.041820" lon="-3.853107">
<ele>697.0</ele>
<speed>13.6</speed>
<course>345.5</course>
<desc>Speed 13.6 km/h Distance 9.10 km</desc>
<time>2011-07-19T20:13:42.04</time>
<name>1497</name>
</trkpt>
<trkpt lat="39.041855" lon="-3.853118">
<ele>697.0</ele>
<speed>14.4</speed>
<course>348.0</course>
<desc>Speed 14.4 km/h Distance 9.11 km</desc>
<time>2011-07-19T20:13:43.03</time>
<name>1498</name>
</trkpt>
<trkpt lat="39.041892" lon="-3.853128">
<ele>696.5</ele>
<speed>14.6</speed>
<course>349.5</course>
<desc>Speed 14.6 km/h Distance 9.11 km</desc>
<time>2011-07-19T20:13:44.03</time>
<name>1499</name>
</trkpt>
<trkpt lat="39.041927" lon="-3.853137">
<ele>697.0</ele>
<speed>14.1</speed>
<course>351.3</course>
<desc>Speed 14.1 km/h Distance 9.12 km</desc>
<time>2011-07-19T20:13:45.03</time>
<name>1500</name>
</trkpt>
<trkpt lat="39.041960" lon="-3.853143">
<ele>697.0</ele>
<speed>13.7</speed>
<course>351.6</course>
<desc>Speed 13.7 km/h Distance 9.12 km</desc>
<time>2011-07-19T20:13:46.03</time>
<name>1501</name>
</trkpt>
<trkpt lat="39.041995" lon="-3.853150">
<ele>697.0</ele>
<speed>13.7</speed>
<course>358.3</course>
<desc>Speed 13.7 km/h Distance 9.12 km</desc>
<time>2011-07-19T20:13:47.03</time>
<name>1502</name>
</trkpt>
<trkpt lat="39.042030" lon="-3.853152">
<ele>697.0</ele>
<speed>13.6</speed>
<course>4.3</course>
<desc>Speed 13.6 km/h Distance 9.13 km</desc>
<time>2011-07-19T20:13:48.03</time>
<name>1503</name>
</trkpt>
<trkpt lat="39.042065" lon="-3.853148">
<ele>697.5</ele>
<speed>13.3</speed>
<course>19.1</course>
<desc>Speed 13.3 km/h Distance 9.13 km</desc>
<time>2011-07-19T20:13:49.03</time>
<name>1504</name>
</trkpt>
<trkpt lat="39.042095" lon="-3.853135">
<ele>698.0</ele>
<speed>12.5</speed>
<course>18.1</course>
<desc>Speed 12.5 km/h Distance 9.13 km</desc>
<time>2011-07-19T20:13:50.04</time>
<name>1505</name>
</trkpt>
<trkpt lat="39.042127" lon="-3.853122">
<ele>698.5</ele>
<speed>13.1</speed>
<course>13.9</course>
<desc>Speed 13.1 km/h Distance 9.14 km</desc>
<time>2011-07-19T20:13:51.03</time>
<name>1506</name>
</trkpt>
<trkpt lat="39.042158" lon="-3.853112">
<ele>698.5</ele>
<speed>13.2</speed>
<course>12.2</course>
<desc>Speed 13.2 km/h Distance 9.14 km</desc>
<time>2011-07-19T20:13:52.03</time>
<name>1507</name>
</trkpt>
<trkpt lat="39.042188" lon="-3.853103">
<ele>699.5</ele>
<speed>12.0</speed>
<course>13.1</course>
<desc>Speed 12.0 km/h Distance 9.15 km</desc>
<time>2011-07-19T20:13:53.03</time>
<name>1508</name>
</trkpt>
<trkpt lat="39.042222" lon="-3.853093">
<ele>699.5</ele>
<speed>13.4</speed>
<course>8.4</course>
<desc>Speed 13.4 km/h Distance 9.15 km</desc>
<time>2011-07-19T20:13:54.03</time>
<name>1509</name>
</trkpt>
<trkpt lat="39.042257" lon="-3.853087">
<ele>700.0</ele>
<speed>14.3</speed>
<course>4.3</course>
<desc>Speed 14.3 km/h Distance 9.15 km</desc>
<time>2011-07-19T20:13:55.04</time>
<name>1510</name>
</trkpt>
<trkpt lat="39.042292" lon="-3.853083">
<ele>700.0</ele>
<speed>14.4</speed>
<course>3.9</course>
<desc>Speed 14.4 km/h Distance 9.16 km</desc>
<time>2011-07-19T20:13:56.04</time>
<name>1511</name>
</trkpt>
<trkpt lat="39.042328" lon="-3.853080">
<ele>700.0</ele>
<speed>14.3</speed>
<course>4.1</course>
<desc>Speed 14.3 km/h Distance 9.16 km</desc>
<time>2011-07-19T20:13:57.05</time>
<name>1512</name>
</trkpt>
<trkpt lat="39.042367" lon="-3.853077">
<ele>699.5</ele>
<speed>14.5</speed>
<course>2.1</course>
<desc>Speed 14.5 km/h Distance 9.17 km</desc>
<time>2011-07-19T20:13:58.04</time>
<name>1513</name>
</trkpt>
<trkpt lat="39.042403" lon="-3.853075">
<ele>699.5</ele>
<speed>14.5</speed>
<course>1.7</course>
<desc>Speed 14.5 km/h Distance 9.17 km</desc>
<time>2011-07-19T20:13:59.04</time>
<name>1514</name>
</trkpt>
<trkpt lat="39.042440" lon="-3.853075">
<ele>699.5</ele>
<speed>14.5</speed>
<course>357.9</course>
<desc>Speed 14.5 km/h Distance 9.17 km</desc>
<time>2011-07-19T20:14:00.04</time>
<name>1515</name>
</trkpt>
<trkpt lat="39.042477" lon="-3.853077">
<ele>699.5</ele>
<speed>14.3</speed>
<course>359.0</course>
<desc>Speed 14.3 km/h Distance 9.18 km</desc>
<time>2011-07-19T20:14:01.04</time>
<name>1516</name>
</trkpt>
<trkpt lat="39.042513" lon="-3.853078">
<ele>699.5</ele>
<speed>14.1</speed>
<course>0.0</course>
<desc>Speed 14.1 km/h Distance 9.18 km</desc>
<time>2011-07-19T20:14:02.04</time>
<name>1517</name>
</trkpt>
<trkpt lat="39.042548" lon="-3.853078">
<ele>699.5</ele>
<speed>13.9</speed>
<course>1.7</course>
<desc>Speed 13.9 km/h Distance 9.19 km</desc>
<time>2011-07-19T20:14:03.04</time>
<name>1518</name>
</trkpt>
<trkpt lat="39.042583" lon="-3.853077">
<ele>699.5</ele>
<speed>13.8</speed>
<course>0.0</course>
<desc>Speed 13.8 km/h Distance 9.19 km</desc>
<time>2011-07-19T20:14:04.04</time>
<name>1519</name>
</trkpt>
<trkpt lat="39.042620" lon="-3.853077">
<ele>699.5</ele>
<speed>14.1</speed>
<course>0.0</course>
<desc>Speed 14.1 km/h Distance 9.19 km</desc>
<time>2011-07-19T20:14:05.04</time>
<name>1520</name>
</trkpt>
<trkpt lat="39.042655" lon="-3.853077">
<ele>699.5</ele>
<speed>13.9</speed>
<course>6.4</course>
<desc>Speed 13.9 km/h Distance 9.20 km</desc>
<time>2011-07-19T20:14:06.04</time>
<name>1521</name>
</trkpt>
<trkpt lat="39.042690" lon="-3.853072">
<ele>699.5</ele>
<speed>13.9</speed>
<course>13.2</course>
<desc>Speed 13.9 km/h Distance 9.20 km</desc>
<time>2011-07-19T20:14:07.04</time>
<name>1522</name>
</trkpt>
<trkpt lat="39.042723" lon="-3.853062">
<ele>699.5</ele>
<speed>13.8</speed>
<course>18.1</course>
<desc>Speed 13.8 km/h Distance 9.21 km</desc>
<time>2011-07-19T20:14:08.03</time>
<name>1523</name>
</trkpt>
<trkpt lat="39.042755" lon="-3.853048">
<ele>700.0</ele>
<speed>13.1</speed>
<course>24.2</course>
<desc>Speed 13.1 km/h Distance 9.21 km</desc>
<time>2011-07-19T20:14:09.04</time>
<name>1524</name>
</trkpt>
<trkpt lat="39.042787" lon="-3.853030">
<ele>700.0</ele>
<speed>13.3</speed>
<course>28.0</course>
<desc>Speed 13.3 km/h Distance 9.21 km</desc>
<time>2011-07-19T20:14:10.04</time>
<name>1525</name>
</trkpt>
<trkpt lat="39.042818" lon="-3.853008">
<ele>700.0</ele>
<speed>13.9</speed>
<course>18.4</course>
<desc>Speed 13.9 km/h Distance 9.22 km</desc>
<time>2011-07-19T20:14:11.04</time>
<name>1526</name>
</trkpt>
<trkpt lat="39.042853" lon="-3.852993">
<ele>700.0</ele>
<speed>14.7</speed>
<course>16.5</course>
<desc>Speed 14.7 km/h Distance 9.22 km</desc>
<time>2011-07-19T20:14:12.04</time>
<name>1527</name>
</trkpt>
<trkpt lat="39.042888" lon="-3.852980">
<ele>700.0</ele>
<speed>14.3</speed>
<course>18.4</course>
<desc>Speed 14.3 km/h Distance 9.23 km</desc>
<time>2011-07-19T20:14:13.04</time>
<name>1528</name>
</trkpt>
<trkpt lat="39.042923" lon="-3.852965">
<ele>700.0</ele>
<speed>14.5</speed>
<course>16.9</course>
<desc>Speed 14.5 km/h Distance 9.23 km</desc>
<time>2011-07-19T20:14:14.04</time>
<name>1529</name>
</trkpt>
<trkpt lat="39.042962" lon="-3.852950">
<ele>700.0</ele>
<speed>15.5</speed>
<course>14.5</course>
<desc>Speed 15.5 km/h Distance 9.23 km</desc>
<time>2011-07-19T20:14:15.04</time>
<name>1530</name>
</trkpt>
<trkpt lat="39.042997" lon="-3.852938">
<ele>700.0</ele>
<speed>14.8</speed>
<course>13.9</course>
<desc>Speed 14.8 km/h Distance 9.24 km</desc>
<time>2011-07-19T20:14:16.04</time>
<name>1531</name>
</trkpt>
<trkpt lat="39.043033" lon="-3.852927">
<ele>700.0</ele>
<speed>14.3</speed>
<course>13.2</course>
<desc>Speed 14.3 km/h Distance 9.24 km</desc>
<time>2011-07-19T20:14:17.04</time>
<name>1532</name>
</trkpt>
<trkpt lat="39.043067" lon="-3.852917">
<ele>700.0</ele>
<speed>13.6</speed>
<course>7.1</course>
<desc>Speed 13.6 km/h Distance 9.25 km</desc>
<time>2011-07-19T20:14:18.04</time>
<name>1533</name>
</trkpt>
<trkpt lat="39.043098" lon="-3.852912">
<ele>700.0</ele>
<speed>12.5</speed>
<course>9.9</course>
<desc>Speed 12.5 km/h Distance 9.25 km</desc>
<time>2011-07-19T20:14:19.04</time>
<name>1534</name>
</trkpt>
<trkpt lat="39.043128" lon="-3.852905">
<ele>700.0</ele>
<speed>11.6</speed>
<course>5.1</course>
<desc>Speed 11.6 km/h Distance 9.25 km</desc>
<time>2011-07-19T20:14:20.04</time>
<name>1535</name>
</trkpt>
<trkpt lat="39.043157" lon="-3.852902">
<ele>700.0</ele>
<speed>10.6</speed>
<course>8.8</course>
<desc>Speed 10.6 km/h Distance 9.26 km</desc>
<time>2011-07-19T20:14:21.04</time>
<name>1536</name>
</trkpt>
<trkpt lat="39.043182" lon="-3.852897">
<ele>700.0</ele>
<speed>10.2</speed>
<course>5.0</course>
<desc>Speed 10.2 km/h Distance 9.26 km</desc>
<time>2011-07-19T20:14:22.04</time>
<name>1537</name>
</trkpt>
<trkpt lat="39.043212" lon="-3.852893">
<ele>700.0</ele>
<speed>11.1</speed>
<course>2.5</course>
<desc>Speed 11.1 km/h Distance 9.26 km</desc>
<time>2011-07-19T20:14:23.04</time>
<name>1538</name>
</trkpt>
<trkpt lat="39.043242" lon="-3.852892">
<ele>699.5</ele>
<speed>11.8</speed>
<course>1.2</course>
<desc>Speed 11.8 km/h Distance 9.27 km</desc>
<time>2011-07-19T20:14:24.04</time>
<name>1539</name>
</trkpt>
<trkpt lat="39.043275" lon="-3.852892">
<ele>699.5</ele>
<speed>13.0</speed>
<course>358.3</course>
<desc>Speed 13.0 km/h Distance 9.27 km</desc>
<time>2011-07-19T20:14:25.04</time>
<name>1540</name>
</trkpt>
<trkpt lat="39.043312" lon="-3.852893">
<ele>699.5</ele>
<speed>14.2</speed>
<course>356.2</course>
<desc>Speed 14.2 km/h Distance 9.27 km</desc>
<time>2011-07-19T20:14:26.04</time>
<name>1541</name>
</trkpt>
<trkpt lat="39.043350" lon="-3.852897">
<ele>699.0</ele>
<speed>15.1</speed>
<course>352.6</course>
<desc>Speed 15.1 km/h Distance 9.28 km</desc>
<time>2011-07-19T20:14:27.04</time>
<name>1542</name>
</trkpt>
<trkpt lat="39.043390" lon="-3.852903">
<ele>699.0</ele>
<speed>15.2</speed>
<course>350.2</course>
<desc>Speed 15.2 km/h Distance 9.28 km</desc>
<time>2011-07-19T20:14:28.03</time>
<name>1543</name>
</trkpt>
<trkpt lat="39.043427" lon="-3.852912">
<ele>699.0</ele>
<speed>14.6</speed>
<course>349.5</course>
<desc>Speed 14.6 km/h Distance 9.29 km</desc>
<time>2011-07-19T20:14:29.04</time>
<name>1544</name>
</trkpt>
<trkpt lat="39.043462" lon="-3.852920">
<ele>699.0</ele>
<speed>13.9</speed>
<course>353.6</course>
<desc>Speed 13.9 km/h Distance 9.29 km</desc>
<time>2011-07-19T20:14:30.04</time>
<name>1545</name>
</trkpt>
<trkpt lat="39.043497" lon="-3.852925">
<ele>699.0</ele>
<speed>13.6</speed>
<course>4.3</course>
<desc>Speed 13.6 km/h Distance 9.29 km</desc>
<time>2011-07-19T20:14:31.04</time>
<name>1546</name>
</trkpt>
<trkpt lat="39.043532" lon="-3.852922">
<ele>698.5</ele>
<speed>13.6</speed>
<course>17.3</course>
<desc>Speed 13.6 km/h Distance 9.30 km</desc>
<time>2011-07-19T20:14:32.04</time>
<name>1547</name>
</trkpt>
<trkpt lat="39.043565" lon="-3.852908">
<ele>698.0</ele>
<speed>13.8</speed>
<course>25.0</course>
<desc>Speed 13.8 km/h Distance 9.30 km</desc>
<time>2011-07-19T20:14:33.04</time>
<name>1548</name>
</trkpt>
<trkpt lat="39.043598" lon="-3.852888">
<ele>698.0</ele>
<speed>13.9</speed>
<course>31.2</course>
<desc>Speed 13.9 km/h Distance 9.31 km</desc>
<time>2011-07-19T20:14:34.04</time>
<name>1549</name>
</trkpt>
<trkpt lat="39.043628" lon="-3.852865">
<ele>698.0</ele>
<speed>14.0</speed>
<course>29.8</course>
<desc>Speed 14.0 km/h Distance 9.31 km</desc>
<time>2011-07-19T20:14:35.04</time>
<name>1550</name>
</trkpt>
<trkpt lat="39.043660" lon="-3.852842">
<ele>698.0</ele>
<speed>14.2</speed>
<course>31.5</course>
<desc>Speed 14.2 km/h Distance 9.31 km</desc>
<time>2011-07-19T20:14:36.04</time>
<name>1551</name>
</trkpt>
<trkpt lat="39.043692" lon="-3.852817">
<ele>697.5</ele>
<speed>14.3</speed>
<course>31.5</course>
<desc>Speed 14.3 km/h Distance 9.32 km</desc>
<time>2011-07-19T20:14:37.04</time>
<name>1552</name>
</trkpt>
<trkpt lat="39.043723" lon="-3.852792">
<ele>697.0</ele>
<speed>14.8</speed>
<course>31.5</course>
<desc>Speed 14.8 km/h Distance 9.32 km</desc>
<time>2011-07-19T20:14:38.04</time>
<name>1553</name>
</trkpt>
<trkpt lat="39.043755" lon="-3.852767">
<ele>697.0</ele>
<speed>15.4</speed>
<course>34.9</course>
<desc>Speed 15.4 km/h Distance 9.33 km</desc>
<time>2011-07-19T20:14:39.02</time>
<name>1554</name>
</trkpt>
<trkpt lat="39.043788" lon="-3.852737">
<ele>696.5</ele>
<speed>16.3</speed>
<course>39.0</course>
<desc>Speed 16.3 km/h Distance 9.33 km</desc>
<time>2011-07-19T20:14:40.03</time>
<name>1555</name>
</trkpt>
<trkpt lat="39.043902" lon="-3.852618">
<ele>695.0</ele>
<speed>20.6</speed>
<course>40.0</course>
<desc>Speed 20.6 km/h Distance 9.35 km</desc>
<time>2011-07-19T20:14:42.16</time>
<name>1556</name>
</trkpt>
<trkpt lat="39.043943" lon="-3.852573">
<ele>694.0</ele>
<speed>21.5</speed>
<course>37.8</course>
<desc>Speed 21.5 km/h Distance 9.35 km</desc>
<time>2011-07-19T20:14:43.17</time>
<name>1557</name>
</trkpt>
<trkpt lat="39.043988" lon="-3.852528">
<ele>693.5</ele>
<speed>22.4</speed>
<course>35.9</course>
<desc>Speed 22.4 km/h Distance 9.36 km</desc>
<time>2011-07-19T20:14:44.16</time>
<name>1558</name>
</trkpt>
<trkpt lat="39.044037" lon="-3.852483">
<ele>692.5</ele>
<speed>23.8</speed>
<course>32.4</course>
<desc>Speed 23.8 km/h Distance 9.37 km</desc>
<time>2011-07-19T20:14:45.16</time>
<name>1559</name>
</trkpt>
<trkpt lat="39.044092" lon="-3.852438">
<ele>691.5</ele>
<speed>25.9</speed>
<course>29.5</course>
<desc>Speed 25.9 km/h Distance 9.37 km</desc>
<time>2011-07-19T20:14:46.16</time>
<name>1560</name>
</trkpt>
<trkpt lat="39.044153" lon="-3.852393">
<ele>690.5</ele>
<speed>28.3</speed>
<course>27.7</course>
<desc>Speed 28.3 km/h Distance 9.38 km</desc>
<time>2011-07-19T20:14:47.16</time>
<name>1561</name>
</trkpt>
<trkpt lat="39.044220" lon="-3.852348">
<ele>690.0</ele>
<speed>29.7</speed>
<course>25.2</course>
<desc>Speed 29.7 km/h Distance 9.39 km</desc>
<time>2011-07-19T20:14:48.17</time>
<name>1562</name>
</trkpt>
<trkpt lat="39.044292" lon="-3.852305">
<ele>689.0</ele>
<speed>31.7</speed>
<course>20.0</course>
<desc>Speed 31.7 km/h Distance 9.40 km</desc>
<time>2011-07-19T20:14:49.17</time>
<name>1563</name>
</trkpt>
<trkpt lat="39.044370" lon="-3.852268">
<ele>688.0</ele>
<speed>33.1</speed>
<course>20.0</course>
<desc>Speed 33.1 km/h Distance 9.41 km</desc>
<time>2011-07-19T20:14:50.17</time>
<name>1564</name>
</trkpt>
<trkpt lat="39.044452" lon="-3.852230">
<ele>687.0</ele>
<speed>34.5</speed>
<course>19.6</course>
<desc>Speed 34.5 km/h Distance 9.42 km</desc>
<time>2011-07-19T20:14:51.17</time>
<name>1565</name>
</trkpt>
<trkpt lat="39.044532" lon="-3.852193">
<ele>686.0</ele>
<speed>33.8</speed>
<course>20.8</course>
<desc>Speed 33.8 km/h Distance 9.43 km</desc>
<time>2011-07-19T20:14:52.17</time>
<name>1566</name>
</trkpt>
<trkpt lat="39.044607" lon="-3.852157">
<ele>685.5</ele>
<speed>31.6</speed>
<course>26.2</course>
<desc>Speed 31.6 km/h Distance 9.44 km</desc>
<time>2011-07-19T20:14:53.16</time>
<name>1567</name>
</trkpt>
<trkpt lat="39.044675" lon="-3.852113">
<ele>685.0</ele>
<speed>30.6</speed>
<course>31.2</course>
<desc>Speed 30.6 km/h Distance 9.44 km</desc>
<time>2011-07-19T20:14:54.16</time>
<name>1568</name>
</trkpt>
<trkpt lat="39.044743" lon="-3.852060">
<ele>684.5</ele>
<speed>31.6</speed>
<course>34.3</course>
<desc>Speed 31.6 km/h Distance 9.45 km</desc>
<time>2011-07-19T20:14:55.16</time>
<name>1569</name>
</trkpt>
<trkpt lat="39.044812" lon="-3.852000">
<ele>683.5</ele>
<speed>33.0</speed>
<course>35.1</course>
<desc>Speed 33.0 km/h Distance 9.46 km</desc>
<time>2011-07-19T20:14:56.17</time>
<name>1570</name>
</trkpt>
<trkpt lat="39.044882" lon="-3.851937">
<ele>683.0</ele>
<speed>33.8</speed>
<course>35.8</course>
<desc>Speed 33.8 km/h Distance 9.47 km</desc>
<time>2011-07-19T20:14:57.17</time>
<name>1571</name>
</trkpt>
<trkpt lat="39.044952" lon="-3.851872">
<ele>682.5</ele>
<speed>34.7</speed>
<course>38.5</course>
<desc>Speed 34.7 km/h Distance 9.48 km</desc>
<time>2011-07-19T20:14:58.16</time>
<name>1572</name>
</trkpt>
<trkpt lat="39.045022" lon="-3.851800">
<ele>682.0</ele>
<speed>36.0</speed>
<course>38.5</course>
<desc>Speed 36.0 km/h Distance 9.49 km</desc>
<time>2011-07-19T20:14:59.16</time>
<name>1573</name>
</trkpt>
<trkpt lat="39.045095" lon="-3.851725">
<ele>681.5</ele>
<speed>37.0</speed>
<course>35.3</course>
<desc>Speed 37.0 km/h Distance 9.50 km</desc>
<time>2011-07-19T20:15:00.18</time>
<name>1574</name>
</trkpt>
<trkpt lat="39.045172" lon="-3.851655">
<ele>680.5</ele>
<speed>37.2</speed>
<course>33.4</course>
<desc>Speed 37.2 km/h Distance 9.51 km</desc>
<time>2011-07-19T20:15:01.16</time>
<name>1575</name>
</trkpt>
<trkpt lat="39.045248" lon="-3.851590">
<ele>680.5</ele>
<speed>36.6</speed>
<course>30.9</course>
<desc>Speed 36.6 km/h Distance 9.52 km</desc>
<time>2011-07-19T20:15:02.16</time>
<name>1576</name>
</trkpt>
<trkpt lat="39.045328" lon="-3.851528">
<ele>680.0</ele>
<speed>36.9</speed>
<course>29.1</course>
<desc>Speed 36.9 km/h Distance 9.53 km</desc>
<time>2011-07-19T20:15:03.16</time>
<name>1577</name>
</trkpt>
<trkpt lat="39.045405" lon="-3.851473">
<ele>680.0</ele>
<speed>34.8</speed>
<course>27.6</course>
<desc>Speed 34.8 km/h Distance 9.54 km</desc>
<time>2011-07-19T20:15:04.16</time>
<name>1578</name>
</trkpt>
<trkpt lat="39.045477" lon="-3.851425">
<ele>680.0</ele>
<speed>32.0</speed>
<course>29.8</course>
<desc>Speed 32.0 km/h Distance 9.55 km</desc>
<time>2011-07-19T20:15:05.16</time>
<name>1579</name>
</trkpt>
<trkpt lat="39.045540" lon="-3.851378">
<ele>680.0</ele>
<speed>29.0</speed>
<course>33.6</course>
<desc>Speed 29.0 km/h Distance 9.56 km</desc>
<time>2011-07-19T20:15:06.16</time>
<name>1580</name>
</trkpt>
<trkpt lat="39.045598" lon="-3.851328">
<ele>680.0</ele>
<speed>27.1</speed>
<course>41.2</course>
<desc>Speed 27.1 km/h Distance 9.57 km</desc>
<time>2011-07-19T20:15:07.16</time>
<name>1581</name>
</trkpt>
<trkpt lat="39.045650" lon="-3.851270">
<ele>679.5</ele>
<speed>27.0</speed>
<course>38.7</course>
<desc>Speed 27.0 km/h Distance 9.58 km</desc>
<time>2011-07-19T20:15:08.16</time>
<name>1582</name>
</trkpt>
<trkpt lat="39.045702" lon="-3.851217">
<ele>679.5</ele>
<speed>26.5</speed>
<course>34.1</course>
<desc>Speed 26.5 km/h Distance 9.58 km</desc>
<time>2011-07-19T20:15:09.16</time>
<name>1583</name>
</trkpt>
<trkpt lat="39.045753" lon="-3.851172">
<ele>680.0</ele>
<speed>25.0</speed>
<course>48.9</course>
<desc>Speed 25.0 km/h Distance 9.59 km</desc>
<time>2011-07-19T20:15:10.16</time>
<name>1584</name>
</trkpt>
<trkpt lat="39.045792" lon="-3.851115">
<ele>679.5</ele>
<speed>23.0</speed>
<course>59.4</course>
<desc>Speed 23.0 km/h Distance 9.60 km</desc>
<time>2011-07-19T20:15:11.16</time>
<name>1585</name>
</trkpt>
<trkpt lat="39.045820" lon="-3.851053">
<ele>679.5</ele>
<speed>22.0</speed>
<course>66.3</course>
<desc>Speed 22.0 km/h Distance 9.60 km</desc>
<time>2011-07-19T20:15:12.16</time>
<name>1586</name>
</trkpt>
<trkpt lat="39.045843" lon="-3.850985">
<ele>678.5</ele>
<speed>23.1</speed>
<course>97.2</course>
<desc>Speed 23.1 km/h Distance 9.61 km</desc>
<time>2011-07-19T20:15:13.17</time>
<name>1587</name>
</trkpt>
<trkpt lat="39.045837" lon="-3.850917">
<ele>679.5</ele>
<speed>21.9</speed>
<course>88.3</course>
<desc>Speed 21.9 km/h Distance 9.61 km</desc>
<time>2011-07-19T20:15:14.16</time>
<name>1588</name>
</trkpt>
<trkpt lat="39.045838" lon="-3.850843">
<ele>679.0</ele>
<speed>22.3</speed>
<course>93.5</course>
<desc>Speed 22.3 km/h Distance 9.62 km</desc>
<time>2011-07-19T20:15:15.16</time>
<name>1589</name>
</trkpt>
<trkpt lat="39.045835" lon="-3.850773">
<ele>679.0</ele>
<speed>21.7</speed>
<course>104.4</course>
<desc>Speed 21.7 km/h Distance 9.63 km</desc>
<time>2011-07-19T20:15:16.16</time>
<name>1590</name>
</trkpt>
<trkpt lat="39.045822" lon="-3.850707">
<ele>678.5</ele>
<speed>21.3</speed>
<course>110.0</course>
<desc>Speed 21.3 km/h Distance 9.63 km</desc>
<time>2011-07-19T20:15:17.16</time>
<name>1591</name>
</trkpt>
<trkpt lat="39.045803" lon="-3.850642">
<ele>677.5</ele>
<speed>21.4</speed>
<course>117.6</course>
<desc>Speed 21.4 km/h Distance 9.64 km</desc>
<time>2011-07-19T20:15:18.16</time>
<name>1592</name>
</trkpt>
<trkpt lat="39.045778" lon="-3.850580">
<ele>677.0</ele>
<speed>21.8</speed>
<course>116.9</course>
<desc>Speed 21.8 km/h Distance 9.64 km</desc>
<time>2011-07-19T20:15:19.16</time>
<name>1593</name>
</trkpt>
<trkpt lat="39.045753" lon="-3.850517">
<ele>676.0</ele>
<speed>21.8</speed>
<course>119.8</course>
<desc>Speed 21.8 km/h Distance 9.65 km</desc>
<time>2011-07-19T20:15:20.16</time>
<name>1594</name>
</trkpt>
<trkpt lat="39.045727" lon="-3.850457">
<ele>676.0</ele>
<speed>21.7</speed>
<course>119.8</course>
<desc>Speed 21.7 km/h Distance 9.66 km</desc>
<time>2011-07-19T20:15:21.16</time>
<name>1595</name>
</trkpt>
<trkpt lat="39.045700" lon="-3.850397">
<ele>675.5</ele>
<speed>21.5</speed>
<course>119.1</course>
<desc>Speed 21.5 km/h Distance 9.66 km</desc>
<time>2011-07-19T20:15:22.16</time>
<name>1596</name>
</trkpt>
<trkpt lat="39.045673" lon="-3.850335">
<ele>675.5</ele>
<speed>21.9</speed>
<course>113.2</course>
<desc>Speed 21.9 km/h Distance 9.67 km</desc>
<time>2011-07-19T20:15:23.16</time>
<name>1597</name>
</trkpt>
<trkpt lat="39.045652" lon="-3.850270">
<ele>675.0</ele>
<speed>22.0</speed>
<course>102.1</course>
<desc>Speed 22.0 km/h Distance 9.68 km</desc>
<time>2011-07-19T20:15:24.16</time>
<name>1598</name>
</trkpt>
<trkpt lat="39.045640" lon="-3.850200">
<ele>675.0</ele>
<speed>22.1</speed>
<course>93.4</course>
<desc>Speed 22.1 km/h Distance 9.68 km</desc>
<time>2011-07-19T20:15:25.16</time>
<name>1599</name>
</trkpt>
<trkpt lat="39.045637" lon="-3.850128">
<ele>675.0</ele>
<speed>22.3</speed>
<course>90.0</course>
<desc>Speed 22.3 km/h Distance 9.69 km</desc>
<time>2011-07-19T20:15:26.16</time>
<name>1600</name>
</trkpt>
<trkpt lat="39.045637" lon="-3.850055">
<ele>674.5</ele>
<speed>22.8</speed>
<course>85.1</course>
<desc>Speed 22.8 km/h Distance 9.69 km</desc>
<time>2011-07-19T20:15:27.16</time>
<name>1601</name>
</trkpt>
<trkpt lat="39.045642" lon="-3.849980">
<ele>674.5</ele>
<speed>23.4</speed>
<course>83.6</course>
<desc>Speed 23.4 km/h Distance 9.70 km</desc>
<time>2011-07-19T20:15:28.16</time>
<name>1602</name>
</trkpt>
<trkpt lat="39.045648" lon="-3.849903">
<ele>674.0</ele>
<speed>23.8</speed>
<course>80.3</course>
<desc>Speed 23.8 km/h Distance 9.71 km</desc>
<time>2011-07-19T20:15:29.16</time>
<name>1603</name>
</trkpt>
<trkpt lat="39.045658" lon="-3.849828">
<ele>673.5</ele>
<speed>23.9</speed>
<course>81.9</course>
<desc>Speed 23.9 km/h Distance 9.71 km</desc>
<time>2011-07-19T20:15:30.17</time>
<name>1604</name>
</trkpt>
<trkpt lat="39.045667" lon="-3.849753">
<ele>673.0</ele>
<speed>23.3</speed>
<course>90.0</course>
<desc>Speed 23.3 km/h Distance 9.72 km</desc>
<time>2011-07-19T20:15:31.16</time>
<name>1605</name>
</trkpt>
<trkpt lat="39.045667" lon="-3.849682">
<ele>672.0</ele>
<speed>22.3</speed>
<course>119.8</course>
<desc>Speed 22.3 km/h Distance 9.73 km</desc>
<time>2011-07-19T20:15:32.16</time>
<name>1606</name>
</trkpt>
<trkpt lat="39.045640" lon="-3.849622">
<ele>672.0</ele>
<speed>21.6</speed>
<course>158.3</course>
<desc>Speed 21.6 km/h Distance 9.73 km</desc>
<time>2011-07-19T20:15:33.16</time>
<name>1607</name>
</trkpt>
<trkpt lat="39.045575" lon="-3.849588">
<ele>671.0</ele>
<speed>19.5</speed>
<course>190.0</course>
<desc>Speed 19.5 km/h Distance 9.74 km</desc>
<time>2011-07-19T20:15:35.16</time>
<name>1608</name>
</trkpt>
<trkpt lat="39.045523" lon="-3.849600">
<ele>672.5</ele>
<speed>21.4</speed>
<course>191.0</course>
<desc>Speed 21.4 km/h Distance 9.75 km</desc>
<time>2011-07-19T20:15:36.16</time>
<name>1609</name>
</trkpt>
<trkpt lat="39.045477" lon="-3.849612">
<ele>673.0</ele>
<speed>18.8</speed>
<course>189.8</course>
<desc>Speed 18.8 km/h Distance 9.75 km</desc>
<time>2011-07-19T20:15:37.16</time>
<name>1610</name>
</trkpt>
<trkpt lat="39.045432" lon="-3.849622">
<ele>673.5</ele>
<speed>18.0</speed>
<course>189.2</course>
<desc>Speed 18.0 km/h Distance 9.76 km</desc>
<time>2011-07-19T20:15:38.16</time>
<name>1611</name>
</trkpt>
<trkpt lat="39.045392" lon="-3.849630">
<ele>674.0</ele>
<speed>16.6</speed>
<course>189.2</course>
<desc>Speed 16.6 km/h Distance 9.76 km</desc>
<time>2011-07-19T20:15:39.16</time>
<name>1612</name>
</trkpt>
<trkpt lat="39.045352" lon="-3.849638">
<ele>674.0</ele>
<speed>15.7</speed>
<course>184.1</course>
<desc>Speed 15.7 km/h Distance 9.77 km</desc>
<time>2011-07-19T20:15:40.18</time>
<name>1613</name>
</trkpt>
<trkpt lat="39.045315" lon="-3.849642">
<ele>674.5</ele>
<speed>14.5</speed>
<course>184.3</course>
<desc>Speed 14.5 km/h Distance 9.77 km</desc>
<time>2011-07-19T20:15:41.16</time>
<name>1614</name>
</trkpt>
<trkpt lat="39.045280" lon="-3.849645">
<ele>675.0</ele>
<speed>13.6</speed>
<course>186.9</course>
<desc>Speed 13.6 km/h Distance 9.77 km</desc>
<time>2011-07-19T20:15:42.16</time>
<name>1615</name>
</trkpt>
<trkpt lat="39.045248" lon="-3.849650">
<ele>675.0</ele>
<speed>12.9</speed>
<course>186.8</course>
<desc>Speed 12.9 km/h Distance 9.78 km</desc>
<time>2011-07-19T20:15:43.16</time>
<name>1616</name>
</trkpt>
<trkpt lat="39.045215" lon="-3.849655">
<ele>675.5</ele>
<speed>13.0</speed>
<course>191.4</course>
<desc>Speed 13.0 km/h Distance 9.78 km</desc>
<time>2011-07-19T20:15:44.16</time>
<name>1617</name>
</trkpt>
<trkpt lat="39.045183" lon="-3.849663">
<ele>675.5</ele>
<speed>13.1</speed>
<course>185.3</course>
<desc>Speed 13.1 km/h Distance 9.78 km</desc>
<time>2011-07-19T20:15:45.16</time>
<name>1618</name>
</trkpt>
<trkpt lat="39.045157" lon="-3.849667">
<ele>675.0</ele>
<speed>12.7</speed>
<course>194.4</course>
<desc>Speed 12.7 km/h Distance 9.79 km</desc>
<time>2011-07-19T20:15:46.16</time>
<name>1619</name>
</trkpt>
<trkpt lat="39.045132" lon="-3.849675">
<ele>674.0</ele>
<speed>12.8</speed>
<course>196.3</course>
<desc>Speed 12.8 km/h Distance 9.79 km</desc>
<time>2011-07-19T20:15:47.16</time>
<name>1620</name>
</trkpt>
<trkpt lat="39.045105" lon="-3.849685">
<ele>673.5</ele>
<speed>12.6</speed>
<course>196.2</course>
<desc>Speed 12.6 km/h Distance 9.79 km</desc>
<time>2011-07-19T20:15:48.16</time>
<name>1621</name>
</trkpt>
<trkpt lat="39.045078" lon="-3.849695">
<ele>673.0</ele>
<speed>12.3</speed>
<course>198.8</course>
<desc>Speed 12.3 km/h Distance 9.80 km</desc>
<time>2011-07-19T20:15:49.16</time>
<name>1622</name>
</trkpt>
<trkpt lat="39.045052" lon="-3.849707">
<ele>673.0</ele>
<speed>12.2</speed>
<course>192.8</course>
<desc>Speed 12.2 km/h Distance 9.80 km</desc>
<time>2011-07-19T20:15:50.16</time>
<name>1623</name>
</trkpt>
<trkpt lat="39.045023" lon="-3.849715">
<ele>673.0</ele>
<speed>12.3</speed>
<course>191.6</course>
<desc>Speed 12.3 km/h Distance 9.80 km</desc>
<time>2011-07-19T20:15:51.16</time>
<name>1624</name>
</trkpt>
<trkpt lat="39.044992" lon="-3.849723">
<ele>673.5</ele>
<speed>13.3</speed>
<course>189.9</course>
<desc>Speed 13.3 km/h Distance 9.81 km</desc>
<time>2011-07-19T20:15:52.16</time>
<name>1625</name>
</trkpt>
<trkpt lat="39.044962" lon="-3.849730">
<ele>673.5</ele>
<speed>12.4</speed>
<course>189.9</course>
<desc>Speed 12.4 km/h Distance 9.81 km</desc>
<time>2011-07-19T20:15:53.16</time>
<name>1626</name>
</trkpt>
<trkpt lat="39.044932" lon="-3.849737">
<ele>674.0</ele>
<speed>12.3</speed>
<course>177.2</course>
<desc>Speed 12.3 km/h Distance 9.81 km</desc>
<time>2011-07-19T20:15:54.15</time>
<name>1627</name>
</trkpt>
<trkpt lat="39.044903" lon="-3.849735">
<ele>674.0</ele>
<speed>12.1</speed>
<course>180.0</course>
<desc>Speed 12.1 km/h Distance 9.82 km</desc>
<time>2011-07-19T20:15:55.16</time>
<name>1628</name>
</trkpt>
<trkpt lat="39.044873" lon="-3.849735">
<ele>674.5</ele>
<speed>11.7</speed>
<course>180.0</course>
<desc>Speed 11.7 km/h Distance 9.82 km</desc>
<time>2011-07-19T20:15:56.16</time>
<name>1629</name>
</trkpt>
<trkpt lat="39.044845" lon="-3.849735">
<ele>675.0</ele>
<speed>11.2</speed>
<course>182.8</course>
<desc>Speed 11.2 km/h Distance 9.82 km</desc>
<time>2011-07-19T20:15:57.16</time>
<name>1630</name>
</trkpt>
<trkpt lat="39.044817" lon="-3.849737">
<ele>675.5</ele>
<speed>11.5</speed>
<course>191.1</course>
<desc>Speed 11.5 km/h Distance 9.83 km</desc>
<time>2011-07-19T20:15:58.16</time>
<name>1631</name>
</trkpt>
<trkpt lat="39.044790" lon="-3.849743">
<ele>675.5</ele>
<speed>11.5</speed>
<course>196.2</course>
<desc>Speed 11.5 km/h Distance 9.83 km</desc>
<time>2011-07-19T20:15:59.16</time>
<name>1632</name>
</trkpt>
<trkpt lat="39.044763" lon="-3.849753">
<ele>676.0</ele>
<speed>11.0</speed>
<course>198.8</course>
<desc>Speed 11.0 km/h Distance 9.83 km</desc>
<time>2011-07-19T20:16:00.16</time>
<name>1633</name>
</trkpt>
<trkpt lat="39.044737" lon="-3.849765">
<ele>676.5</ele>
<speed>11.4</speed>
<course>199.7</course>
<desc>Speed 11.4 km/h Distance 9.84 km</desc>
<time>2011-07-19T20:16:01.16</time>
<name>1634</name>
</trkpt>
<trkpt lat="39.044715" lon="-3.849775">
<ele>676.5</ele>
<speed>10.1</speed>
<course>196.2</course>
<desc>Speed 10.1 km/h Distance 9.84 km</desc>
<time>2011-07-19T20:16:02.16</time>
<name>1635</name>
</trkpt>
<trkpt lat="39.044688" lon="-3.849785">
<ele>677.0</ele>
<speed>11.4</speed>
<course>194.6</course>
<desc>Speed 11.4 km/h Distance 9.84 km</desc>
<time>2011-07-19T20:16:03.16</time>
<name>1636</name>
</trkpt>
<trkpt lat="39.044658" lon="-3.849795">
<ele>677.0</ele>
<speed>11.9</speed>
<course>192.9</course>
<desc>Speed 11.9 km/h Distance 9.84 km</desc>
<time>2011-07-19T20:16:04.16</time>
<name>1637</name>
</trkpt>
<trkpt lat="39.044630" lon="-3.849803">
<ele>677.5</ele>
<speed>11.7</speed>
<course>193.8</course>
<desc>Speed 11.7 km/h Distance 9.85 km</desc>
<time>2011-07-19T20:16:05.16</time>
<name>1638</name>
</trkpt>
<trkpt lat="39.044603" lon="-3.849812">
<ele>678.0</ele>
<speed>11.7</speed>
<course>201.2</course>
<desc>Speed 11.7 km/h Distance 9.85 km</desc>
<time>2011-07-19T20:16:06.16</time>
<name>1639</name>
</trkpt>
<trkpt lat="39.044577" lon="-3.849825">
<ele>678.0</ele>
<speed>11.4</speed>
<course>202.5</course>
<desc>Speed 11.4 km/h Distance 9.85 km</desc>
<time>2011-07-19T20:16:07.16</time>
<name>1640</name>
</trkpt>
<trkpt lat="39.044552" lon="-3.849838">
<ele>678.5</ele>
<speed>11.0</speed>
<course>201.2</course>
<desc>Speed 11.0 km/h Distance 9.86 km</desc>
<time>2011-07-19T20:16:08.16</time>
<name>1641</name>
</trkpt>
<trkpt lat="39.044525" lon="-3.849852">
<ele>678.5</ele>
<speed>11.2</speed>
<course>188.2</course>
<desc>Speed 11.2 km/h Distance 9.86 km</desc>
<time>2011-07-19T20:16:09.16</time>
<name>1642</name>
</trkpt>
<trkpt lat="39.044498" lon="-3.849857">
<ele>679.0</ele>
<speed>11.2</speed>
<course>179.4</course>
<desc>Speed 11.2 km/h Distance 9.86 km</desc>
<time>2011-07-19T20:16:10.16</time>
<name>1643</name>
</trkpt>
<trkpt lat="39.044475" lon="-3.849857">
<ele>679.0</ele>
<speed>8.9</speed>
<course>182.8</course>
<desc>Speed 8.9 km/h Distance 9.87 km</desc>
<time>2011-07-19T20:16:11.16</time>
<name>1644</name>
</trkpt>
<trkpt lat="39.044447" lon="-3.849858">
<ele>679.5</ele>
<speed>11.7</speed>
<course>182.8</course>
<desc>Speed 11.7 km/h Distance 9.87 km</desc>
<time>2011-07-19T20:16:12.16</time>
<name>1645</name>
</trkpt>
<trkpt lat="39.044418" lon="-3.849860">
<ele>679.5</ele>
<speed>11.3</speed>
<course>167.1</course>
<desc>Speed 11.3 km/h Distance 9.87 km</desc>
<time>2011-07-19T20:16:13.16</time>
<name>1646</name>
</trkpt>
<trkpt lat="39.044390" lon="-3.849852">
<ele>680.0</ele>
<speed>11.2</speed>
<course>152.6</course>
<desc>Speed 11.2 km/h Distance 9.88 km</desc>
<time>2011-07-19T20:16:14.16</time>
<name>1647</name>
</trkpt>
<trkpt lat="39.044365" lon="-3.849835">
<ele>680.5</ele>
<speed>11.3</speed>
<course>140.1</course>
<desc>Speed 11.3 km/h Distance 9.88 km</desc>
<time>2011-07-19T20:16:15.16</time>
<name>1648</name>
</trkpt>
<trkpt lat="39.044343" lon="-3.849812">
<ele>680.5</ele>
<speed>11.3</speed>
<course>124.1</course>
<desc>Speed 11.3 km/h Distance 9.88 km</desc>
<time>2011-07-19T20:16:16.16</time>
<name>1649</name>
</trkpt>
<trkpt lat="39.044327" lon="-3.849780">
<ele>680.5</ele>
<speed>12.2</speed>
<course>117.8</course>
<desc>Speed 12.2 km/h Distance 9.88 km</desc>
<time>2011-07-19T20:16:17.16</time>
<name>1650</name>
</trkpt>
<trkpt lat="39.044312" lon="-3.849743">
<ele>680.5</ele>
<speed>12.7</speed>
<course>115.1</course>
<desc>Speed 12.7 km/h Distance 9.89 km</desc>
<time>2011-07-19T20:16:18.16</time>
<name>1651</name>
</trkpt>
<trkpt lat="39.044298" lon="-3.849707">
<ele>680.5</ele>
<speed>13.2</speed>
<course>113.2</course>
<desc>Speed 13.2 km/h Distance 9.89 km</desc>
<time>2011-07-19T20:16:19.17</time>
<name>1652</name>
</trkpt>
<trkpt lat="39.044285" lon="-3.849667">
<ele>680.0</ele>
<speed>13.4</speed>
<course>104.4</course>
<desc>Speed 13.4 km/h Distance 9.90 km</desc>
<time>2011-07-19T20:16:20.16</time>
<name>1653</name>
</trkpt>
<trkpt lat="39.044277" lon="-3.849625">
<ele>680.0</ele>
<speed>13.3</speed>
<course>103.9</course>
<desc>Speed 13.3 km/h Distance 9.90 km</desc>
<time>2011-07-19T20:16:21.16</time>
<name>1654</name>
</trkpt>
<trkpt lat="39.044268" lon="-3.849582">
<ele>680.0</ele>
<speed>14.3</speed>
<course>104.9</course>
<desc>Speed 14.3 km/h Distance 9.90 km</desc>
<time>2011-07-19T20:16:22.16</time>
<name>1655</name>
</trkpt>
<trkpt lat="39.044258" lon="-3.849533">
<ele>680.0</ele>
<speed>15.4</speed>
<course>105.4</course>
<desc>Speed 15.4 km/h Distance 9.91 km</desc>
<time>2011-07-19T20:16:23.16</time>
<name>1656</name>
</trkpt>
<trkpt lat="39.044248" lon="-3.849487">
<ele>679.5</ele>
<speed>15.3</speed>
<course>111.8</course>
<desc>Speed 15.3 km/h Distance 9.91 km</desc>
<time>2011-07-19T20:16:24.15</time>
<name>1657</name>
</trkpt>
<trkpt lat="39.044233" lon="-3.849438">
<ele>679.5</ele>
<speed>15.9</speed>
<course>114.7</course>
<desc>Speed 15.9 km/h Distance 9.92 km</desc>
<time>2011-07-19T20:16:25.15</time>
<name>1658</name>
</trkpt>
<trkpt lat="39.044217" lon="-3.849392">
<ele>679.5</ele>
<speed>16.1</speed>
<course>120.9</course>
<desc>Speed 16.1 km/h Distance 9.92 km</desc>
<time>2011-07-19T20:16:26.16</time>
<name>1659</name>
</trkpt>
<trkpt lat="39.044195" lon="-3.849345">
<ele>679.5</ele>
<speed>16.6</speed>
<course>124.6</course>
<desc>Speed 16.6 km/h Distance 9.93 km</desc>
<time>2011-07-19T20:16:27.16</time>
<name>1660</name>
</trkpt>
<trkpt lat="39.044170" lon="-3.849298">
<ele>679.5</ele>
<speed>17.6</speed>
<course>123.7</course>
<desc>Speed 17.6 km/h Distance 9.93 km</desc>
<time>2011-07-19T20:16:28.16</time>
<name>1661</name>
</trkpt>
<trkpt lat="39.044145" lon="-3.849250">
<ele>680.0</ele>
<speed>17.7</speed>
<course>129.6</course>
<desc>Speed 17.7 km/h Distance 9.94 km</desc>
<time>2011-07-19T20:16:29.16</time>
<name>1662</name>
</trkpt>
<trkpt lat="39.044115" lon="-3.849203">
<ele>680.0</ele>
<speed>18.2</speed>
<course>126.3</course>
<desc>Speed 18.2 km/h Distance 9.94 km</desc>
<time>2011-07-19T20:16:30.16</time>
<name>1663</name>
</trkpt>
<trkpt lat="39.044088" lon="-3.849157">
<ele>680.5</ele>
<speed>17.9</speed>
<course>130.1</course>
<desc>Speed 17.9 km/h Distance 9.95 km</desc>
<time>2011-07-19T20:16:31.15</time>
<name>1664</name>
</trkpt>
<trkpt lat="39.044060" lon="-3.849113">
<ele>680.5</ele>
<speed>17.6</speed>
<course>134.0</course>
<desc>Speed 17.6 km/h Distance 9.95 km</desc>
<time>2011-07-19T20:16:32.16</time>
<name>1665</name>
</trkpt>
<trkpt lat="39.044030" lon="-3.849073">
<ele>680.5</ele>
<speed>17.4</speed>
<course>130.6</course>
<desc>Speed 17.4 km/h Distance 9.96 km</desc>
<time>2011-07-19T20:16:33.16</time>
<name>1666</name>
</trkpt>
<trkpt lat="39.044003" lon="-3.849033">
<ele>680.5</ele>
<speed>16.1</speed>
<course>130.0</course>
<desc>Speed 16.1 km/h Distance 9.96 km</desc>
<time>2011-07-19T20:16:34.16</time>
<name>1667</name>
</trkpt>
<trkpt lat="39.043978" lon="-3.848995">
<ele>681.0</ele>
<speed>15.6</speed>
<course>133.6</course>
<desc>Speed 15.6 km/h Distance 9.96 km</desc>
<time>2011-07-19T20:16:35.15</time>
<name>1668</name>
</trkpt>
<trkpt lat="39.043950" lon="-3.848957">
<ele>681.0</ele>
<speed>16.5</speed>
<course>132.6</course>
<desc>Speed 16.5 km/h Distance 9.97 km</desc>
<time>2011-07-19T20:16:36.16</time>
<name>1669</name>
</trkpt>
<trkpt lat="39.043925" lon="-3.848922">
<ele>681.5</ele>
<speed>15.3</speed>
<course>134.5</course>
<desc>Speed 15.3 km/h Distance 9.97 km</desc>
<time>2011-07-19T20:16:37.16</time>
<name>1670</name>
</trkpt>
<trkpt lat="39.043898" lon="-3.848887">
<ele>681.5</ele>
<speed>15.2</speed>
<course>130.0</course>
<desc>Speed 15.2 km/h Distance 9.98 km</desc>
<time>2011-07-19T20:16:38.16</time>
<name>1671</name>
</trkpt>
<trkpt lat="39.043873" lon="-3.848848">
<ele>681.5</ele>
<speed>15.6</speed>
<course>133.1</course>
<desc>Speed 15.6 km/h Distance 9.98 km</desc>
<time>2011-07-19T20:16:39.16</time>
<name>1672</name>
</trkpt>
<trkpt lat="39.043847" lon="-3.848812">
<ele>681.5</ele>
<speed>15.8</speed>
<course>130.6</course>
<desc>Speed 15.8 km/h Distance 9.99 km</desc>
<time>2011-07-19T20:16:40.17</time>
<name>1673</name>
</trkpt>
<trkpt lat="39.043820" lon="-3.848772">
<ele>682.0</ele>
<speed>15.8</speed>
<course>126.9</course>
<desc>Speed 15.8 km/h Distance 9.99 km</desc>
<time>2011-07-19T20:16:41.16</time>
<name>1674</name>
</trkpt>
<trkpt lat="39.043797" lon="-3.848732">
<ele>682.0</ele>
<speed>15.6</speed>
<course>126.9</course>
<desc>Speed 15.6 km/h Distance 9.99 km</desc>
<time>2011-07-19T20:16:42.16</time>
<name>1675</name>
</trkpt>
<trkpt lat="39.043773" lon="-3.848692">
<ele>682.0</ele>
<speed>15.7</speed>
<course>120.7</course>
<desc>Speed 15.7 km/h Distance 10.00 km</desc>
<time>2011-07-19T20:16:43.15</time>
<name>1676</name>
</trkpt>
<trkpt lat="39.043753" lon="-3.848648">
<ele>681.5</ele>
<speed>15.7</speed>
<course>119.8</course>
<desc>Speed 15.7 km/h Distance 10.00 km</desc>
<time>2011-07-19T20:16:44.15</time>
<name>1677</name>
</trkpt>
<trkpt lat="39.043733" lon="-3.848603">
<ele>681.5</ele>
<speed>16.1</speed>
<course>117.7</course>
<desc>Speed 16.1 km/h Distance 10.01 km</desc>
<time>2011-07-19T20:16:45.15</time>
<name>1678</name>
</trkpt>
<trkpt lat="39.043715" lon="-3.848558">
<ele>681.0</ele>
<speed>15.9</speed>
<course>116.0</course>
<desc>Speed 15.9 km/h Distance 10.01 km</desc>
<time>2011-07-19T20:16:46.15</time>
<name>1679</name>
</trkpt>
<trkpt lat="39.043697" lon="-3.848510">
<ele>681.0</ele>
<speed>16.3</speed>
<course>112.6</course>
<desc>Speed 16.3 km/h Distance 10.02 km</desc>
<time>2011-07-19T20:16:47.16</time>
<name>1680</name>
</trkpt>
<trkpt lat="39.043680" lon="-3.848458">
<ele>680.5</ele>
<speed>17.4</speed>
<course>107.8</course>
<desc>Speed 17.4 km/h Distance 10.02 km</desc>
<time>2011-07-19T20:16:48.16</time>
<name>1681</name>
</trkpt>
<trkpt lat="39.043667" lon="-3.848405">
<ele>680.5</ele>
<speed>17.9</speed>
<course>106.9</course>
<desc>Speed 17.9 km/h Distance 10.03 km</desc>
<time>2011-07-19T20:16:49.15</time>
<name>1682</name>
</trkpt>
<trkpt lat="39.043653" lon="-3.848348">
<ele>680.0</ele>
<speed>18.4</speed>
<course>106.9</course>
<desc>Speed 18.4 km/h Distance 10.03 km</desc>
<time>2011-07-19T20:16:50.15</time>
<name>1683</name>
</trkpt>
<trkpt lat="39.043640" lon="-3.848292">
<ele>679.5</ele>
<speed>18.8</speed>
<course>106.4</course>
<desc>Speed 18.8 km/h Distance 10.04 km</desc>
<time>2011-07-19T20:16:51.15</time>
<name>1684</name>
</trkpt>
<trkpt lat="39.043627" lon="-3.848233">
<ele>679.0</ele>
<speed>18.7</speed>
<course>106.4</course>
<desc>Speed 18.7 km/h Distance 10.04 km</desc>
<time>2011-07-19T20:16:52.16</time>
<name>1685</name>
</trkpt>
<trkpt lat="39.043613" lon="-3.848175">
<ele>679.0</ele>
<speed>18.8</speed>
<course>102.1</course>
<desc>Speed 18.8 km/h Distance 10.05 km</desc>
<time>2011-07-19T20:16:53.15</time>
<name>1686</name>
</trkpt>
<trkpt lat="39.043603" lon="-3.848115">
<ele>679.0</ele>
<speed>19.3</speed>
<course>99.6</course>
<desc>Speed 19.3 km/h Distance 10.05 km</desc>
<time>2011-07-19T20:16:54.15</time>
<name>1687</name>
</trkpt>
<trkpt lat="39.043595" lon="-3.848052">
<ele>678.5</ele>
<speed>19.8</speed>
<course>126.2</course>
<desc>Speed 19.8 km/h Distance 10.06 km</desc>
<time>2011-07-19T20:16:55.15</time>
<name>1688</name>
</trkpt>
<trkpt lat="39.043560" lon="-3.847990">
<ele>679.5</ele>
<speed>23.8</speed>
<course>106.2</course>
<desc>Speed 23.8 km/h Distance 10.06 km</desc>
<time>2011-07-19T20:16:56.16</time>
<name>1689</name>
</trkpt>
<trkpt lat="39.043545" lon="-3.847923">
<ele>679.5</ele>
<speed>21.3</speed>
<course>110.0</course>
<desc>Speed 21.3 km/h Distance 10.07 km</desc>
<time>2011-07-19T20:16:57.15</time>
<name>1690</name>
</trkpt>
<trkpt lat="39.043527" lon="-3.847858">
<ele>679.0</ele>
<speed>21.5</speed>
<course>108.3</course>
<desc>Speed 21.5 km/h Distance 10.08 km</desc>
<time>2011-07-19T20:16:58.15</time>
<name>1691</name>
</trkpt>
<trkpt lat="39.043510" lon="-3.847793">
<ele>679.0</ele>
<speed>21.2</speed>
<course>108.7</course>
<desc>Speed 21.2 km/h Distance 10.08 km</desc>
<time>2011-07-19T20:16:59.15</time>
<name>1692</name>
</trkpt>
<trkpt lat="39.043493" lon="-3.847730">
<ele>679.0</ele>
<speed>20.6</speed>
<course>107.8</course>
<desc>Speed 20.6 km/h Distance 10.09 km</desc>
<time>2011-07-19T20:17:00.17</time>
<name>1693</name>
</trkpt>
<trkpt lat="39.043478" lon="-3.847670">
<ele>679.0</ele>
<speed>19.9</speed>
<course>104.1</course>
<desc>Speed 19.9 km/h Distance 10.09 km</desc>
<time>2011-07-19T20:17:01.15</time>
<name>1694</name>
</trkpt>
<trkpt lat="39.043467" lon="-3.847610">
<ele>678.5</ele>
<speed>19.0</speed>
<course>100.1</course>
<desc>Speed 19.0 km/h Distance 10.10 km</desc>
<time>2011-07-19T20:17:02.17</time>
<name>1695</name>
</trkpt>
<trkpt lat="39.043458" lon="-3.847550">
<ele>678.5</ele>
<speed>19.2</speed>
<course>101.8</course>
<desc>Speed 19.2 km/h Distance 10.10 km</desc>
<time>2011-07-19T20:17:03.15</time>
<name>1696</name>
</trkpt>
<trkpt lat="39.043448" lon="-3.847488">
<ele>678.5</ele>
<speed>19.5</speed>
<course>100.4</course>
<desc>Speed 19.5 km/h Distance 10.11 km</desc>
<time>2011-07-19T20:17:04.16</time>
<name>1697</name>
</trkpt>
<trkpt lat="39.043440" lon="-3.847430">
<ele>678.0</ele>
<speed>18.7</speed>
<course>97.1</course>
<desc>Speed 18.7 km/h Distance 10.11 km</desc>
<time>2011-07-19T20:17:05.15</time>
<name>1698</name>
</trkpt>
<trkpt lat="39.043435" lon="-3.847378">
<ele>677.5</ele>
<speed>16.6</speed>
<course>105.4</course>
<desc>Speed 16.6 km/h Distance 10.12 km</desc>
<time>2011-07-19T20:17:06.16</time>
<name>1699</name>
</trkpt>
<trkpt lat="39.043425" lon="-3.847332">
<ele>677.5</ele>
<speed>15.4</speed>
<course>112.5</course>
<desc>Speed 15.4 km/h Distance 10.12 km</desc>
<time>2011-07-19T20:17:07.16</time>
<name>1700</name>
</trkpt>
<trkpt lat="39.043410" lon="-3.847285">
<ele>677.5</ele>
<speed>15.5</speed>
<course>114.0</course>
<desc>Speed 15.5 km/h Distance 10.13 km</desc>
<time>2011-07-19T20:17:08.16</time>
<name>1701</name>
</trkpt>
<trkpt lat="39.043395" lon="-3.847242">
<ele>677.5</ele>
<speed>15.0</speed>
<course>117.8</course>
<desc>Speed 15.0 km/h Distance 10.13 km</desc>
<time>2011-07-19T20:17:09.16</time>
<name>1702</name>
</trkpt>
<trkpt lat="39.043380" lon="-3.847205">
<ele>677.5</ele>
<speed>13.0</speed>
<course>121.4</course>
<desc>Speed 13.0 km/h Distance 10.14 km</desc>
<time>2011-07-19T20:17:10.15</time>
<name>1703</name>
</trkpt>
<trkpt lat="39.043365" lon="-3.847173">
<ele>677.5</ele>
<speed>11.3</speed>
<course>131.5</course>
<desc>Speed 11.3 km/h Distance 10.14 km</desc>
<time>2011-07-19T20:17:11.15</time>
<name>1704</name>
</trkpt>
<trkpt lat="39.043347" lon="-3.847147">
<ele>678.0</ele>
<speed>10.9</speed>
<course>140.0</course>
<desc>Speed 10.9 km/h Distance 10.14 km</desc>
<time>2011-07-19T20:17:12.15</time>
<name>1705</name>
</trkpt>
<trkpt lat="39.043325" lon="-3.847123">
<ele>678.5</ele>
<speed>11.6</speed>
<course>151.3</course>
<desc>Speed 11.6 km/h Distance 10.15 km</desc>
<time>2011-07-19T20:17:13.16</time>
<name>1706</name>
</trkpt>
<trkpt lat="39.043297" lon="-3.847103">
<ele>679.0</ele>
<speed>13.3</speed>
<course>152.7</course>
<desc>Speed 13.3 km/h Distance 10.15 km</desc>
<time>2011-07-19T20:17:14.15</time>
<name>1707</name>
</trkpt>
<trkpt lat="39.043272" lon="-3.847087">
<ele>679.5</ele>
<speed>10.7</speed>
<course>148.3</course>
<desc>Speed 10.7 km/h Distance 10.15 km</desc>
<time>2011-07-19T20:17:15.15</time>
<name>1708</name>
</trkpt>
<trkpt lat="39.043255" lon="-3.847073">
<ele>680.0</ele>
<speed>8.1</speed>
<course>160.3</course>
<desc>Speed 8.1 km/h Distance 10.15 km</desc>
<time>2011-07-19T20:17:16.15</time>
<name>1709</name>
</trkpt>
<trkpt lat="39.043233" lon="-3.847063">
<ele>681.0</ele>
<speed>9.2</speed>
<course>163.3</course>
<desc>Speed 9.2 km/h Distance 10.16 km</desc>
<time>2011-07-19T20:17:17.16</time>
<name>1710</name>
</trkpt>
<trkpt lat="39.043212" lon="-3.847055">
<ele>682.0</ele>
<speed>8.2</speed>
<course>165.4</course>
<desc>Speed 8.2 km/h Distance 10.16 km</desc>
<time>2011-07-19T20:17:18.15</time>
<name>1711</name>
</trkpt>
<trkpt lat="39.043192" lon="-3.847048">
<ele>682.5</ele>
<speed>7.5</speed>
<course>165.4</course>
<desc>Speed 7.5 km/h Distance 10.16 km</desc>
<time>2011-07-19T20:17:19.16</time>
<name>1712</name>
</trkpt>
<trkpt lat="39.043172" lon="-3.847042">
<ele>683.0</ele>
<speed>7.8</speed>
<course>176.8</course>
<desc>Speed 7.8 km/h Distance 10.16 km</desc>
<time>2011-07-19T20:17:20.15</time>
<name>1713</name>
</trkpt>
<trkpt lat="39.043150" lon="-3.847040">
<ele>684.5</ele>
<speed>8.0</speed>
<course>175.9</course>
<desc>Speed 8.0 km/h Distance 10.17 km</desc>
<time>2011-07-19T20:17:21.15</time>
<name>1714</name>
</trkpt>
<trkpt lat="39.043133" lon="-3.847038">
<ele>685.0</ele>
<speed>6.3</speed>
<course>173.7</course>
<desc>Speed 6.3 km/h Distance 10.17 km</desc>
<time>2011-07-19T20:17:22.15</time>
<name>1715</name>
</trkpt>
<trkpt lat="39.043110" lon="-3.847035">
<ele>685.5</ele>
<speed>8.4</speed>
<course>172.6</course>
<desc>Speed 8.4 km/h Distance 10.17 km</desc>
<time>2011-07-19T20:17:23.15</time>
<name>1716</name>
</trkpt>
<trkpt lat="39.043090" lon="-3.847032">
<ele>686.0</ele>
<speed>7.2</speed>
<course>161.1</course>
<desc>Speed 7.2 km/h Distance 10.17 km</desc>
<time>2011-07-19T20:17:24.16</time>
<name>1717</name>
</trkpt>
<trkpt lat="39.043075" lon="-3.847025">
<ele>686.0</ele>
<speed>6.0</speed>
<course>165.4</course>
<desc>Speed 6.0 km/h Distance 10.17 km</desc>
<time>2011-07-19T20:17:25.15</time>
<name>1718</name>
</trkpt>
<trkpt lat="39.043055" lon="-3.847018">
<ele>686.5</ele>
<speed>7.1</speed>
<course>168.0</course>
<desc>Speed 7.1 km/h Distance 10.18 km</desc>
<time>2011-07-19T20:17:26.15</time>
<name>1719</name>
</trkpt>
<trkpt lat="39.043037" lon="-3.847013">
<ele>686.5</ele>
<speed>6.7</speed>
<course>167.4</course>
<desc>Speed 6.7 km/h Distance 10.18 km</desc>
<time>2011-07-19T20:17:27.15</time>
<name>1720</name>
</trkpt>
<trkpt lat="39.043013" lon="-3.847007">
<ele>686.5</ele>
<speed>9.3</speed>
<course>165.5</course>
<desc>Speed 9.3 km/h Distance 10.18 km</desc>
<time>2011-07-19T20:17:28.15</time>
<name>1721</name>
</trkpt>
<trkpt lat="39.042988" lon="-3.846998">
<ele>687.0</ele>
<speed>10.4</speed>
<course>151.4</course>
<desc>Speed 10.4 km/h Distance 10.18 km</desc>
<time>2011-07-19T20:17:29.16</time>
<name>1722</name>
</trkpt>
<trkpt lat="39.042972" lon="-3.846987">
<ele>687.0</ele>
<speed>7.8</speed>
<course>152.7</course>
<desc>Speed 7.8 km/h Distance 10.19 km</desc>
<time>2011-07-19T20:17:30.15</time>
<name>1723</name>
</trkpt>
<trkpt lat="39.042952" lon="-3.846973">
<ele>687.0</ele>
<speed>9.3</speed>
<course>147.7</course>
<desc>Speed 9.3 km/h Distance 10.19 km</desc>
<time>2011-07-19T20:17:31.16</time>
<name>1724</name>
</trkpt>
<trkpt lat="39.042933" lon="-3.846958">
<ele>687.0</ele>
<speed>8.4</speed>
<course>146.7</course>
<desc>Speed 8.4 km/h Distance 10.19 km</desc>
<time>2011-07-19T20:17:32.15</time>
<name>1725</name>
</trkpt>
<trkpt lat="39.042912" lon="-3.846940">
<ele>687.5</ele>
<speed>9.5</speed>
<course>146.3</course>
<desc>Speed 9.5 km/h Distance 10.19 km</desc>
<time>2011-07-19T20:17:33.15</time>
<name>1726</name>
</trkpt>
<trkpt lat="39.042888" lon="-3.846920">
<ele>688.0</ele>
<speed>10.2</speed>
<course>137.5</course>
<desc>Speed 10.2 km/h Distance 10.20 km</desc>
<time>2011-07-19T20:17:34.15</time>
<name>1727</name>
</trkpt>
<trkpt lat="39.042870" lon="-3.846898">
<ele>688.0</ele>
<speed>9.4</speed>
<course>137.8</course>
<desc>Speed 9.4 km/h Distance 10.20 km</desc>
<time>2011-07-19T20:17:35.15</time>
<name>1728</name>
</trkpt>
<trkpt lat="39.042850" lon="-3.846875">
<ele>688.5</ele>
<speed>10.4</speed>
<course>144.0</course>
<desc>Speed 10.4 km/h Distance 10.20 km</desc>
<time>2011-07-19T20:17:36.15</time>
<name>1729</name>
</trkpt>
<trkpt lat="39.042823" lon="-3.846850">
<ele>689.0</ele>
<speed>11.8</speed>
<course>127.2</course>
<desc>Speed 11.8 km/h Distance 10.21 km</desc>
<time>2011-07-19T20:17:37.15</time>
<name>1730</name>
</trkpt>
<trkpt lat="39.042807" lon="-3.846822">
<ele>688.5</ele>
<speed>10.7</speed>
<course>133.4</course>
<desc>Speed 10.7 km/h Distance 10.21 km</desc>
<time>2011-07-19T20:17:38.16</time>
<name>1731</name>
</trkpt>
<trkpt lat="39.042788" lon="-3.846797">
<ele>688.5</ele>
<speed>10.4</speed>
<course>140.2</course>
<desc>Speed 10.4 km/h Distance 10.21 km</desc>
<time>2011-07-19T20:17:39.15</time>
<name>1732</name>
</trkpt>
<trkpt lat="39.042765" lon="-3.846772">
<ele>689.0</ele>
<speed>11.8</speed>
<course>131.7</course>
<desc>Speed 11.8 km/h Distance 10.22 km</desc>
<time>2011-07-19T20:17:40.17</time>
<name>1733</name>
</trkpt>
<trkpt lat="39.042750" lon="-3.846750">
<ele>689.0</ele>
<speed>8.9</speed>
<course>127.7</course>
<desc>Speed 8.9 km/h Distance 10.22 km</desc>
<time>2011-07-19T20:17:41.15</time>
<name>1734</name>
</trkpt>
<trkpt lat="39.042735" lon="-3.846725">
<ele>689.0</ele>
<speed>9.4</speed>
<course>129.6</course>
<desc>Speed 9.4 km/h Distance 10.22 km</desc>
<time>2011-07-19T20:17:42.16</time>
<name>1735</name>
</trkpt>
<trkpt lat="39.042720" lon="-3.846702">
<ele>689.5</ele>
<speed>9.4</speed>
<course>127.2</course>
<desc>Speed 9.4 km/h Distance 10.22 km</desc>
<time>2011-07-19T20:17:43.16</time>
<name>1736</name>
</trkpt>
<trkpt lat="39.042703" lon="-3.846673">
<ele>690.0</ele>
<speed>10.2</speed>
<course>118.5</course>
<desc>Speed 10.2 km/h Distance 10.23 km</desc>
<time>2011-07-19T20:17:44.15</time>
<name>1737</name>
</trkpt>
<trkpt lat="39.042690" lon="-3.846642">
<ele>690.0</ele>
<speed>11.0</speed>
<course>115.4</course>
<desc>Speed 11.0 km/h Distance 10.23 km</desc>
<time>2011-07-19T20:17:45.15</time>
<name>1738</name>
</trkpt>
<trkpt lat="39.042678" lon="-3.846610">
<ele>690.0</ele>
<speed>11.2</speed>
<course>107.0</course>
<desc>Speed 11.2 km/h Distance 10.23 km</desc>
<time>2011-07-19T20:17:46.15</time>
<name>1739</name>
</trkpt>
<trkpt lat="39.042670" lon="-3.846575">
<ele>690.0</ele>
<speed>11.4</speed>
<course>106.3</course>
<desc>Speed 11.4 km/h Distance 10.24 km</desc>
<time>2011-07-19T20:17:47.16</time>
<name>1740</name>
</trkpt>
<trkpt lat="39.042662" lon="-3.846538">
<ele>690.0</ele>
<speed>11.5</speed>
<course>116.7</course>
<desc>Speed 11.5 km/h Distance 10.24 km</desc>
<time>2011-07-19T20:17:48.15</time>
<name>1741</name>
</trkpt>
<trkpt lat="39.042647" lon="-3.846500">
<ele>690.5</ele>
<speed>12.3</speed>
<course>108.6</course>
<desc>Speed 12.3 km/h Distance 10.24 km</desc>
<time>2011-07-19T20:17:49.16</time>
<name>1742</name>
</trkpt>
<trkpt lat="39.042637" lon="-3.846462">
<ele>690.5</ele>
<speed>12.5</speed>
<course>113.2</course>
<desc>Speed 12.5 km/h Distance 10.25 km</desc>
<time>2011-07-19T20:17:50.15</time>
<name>1743</name>
</trkpt>
<trkpt lat="39.042625" lon="-3.846427">
<ele>691.0</ele>
<speed>11.8</speed>
<course>116.1</course>
<desc>Speed 11.8 km/h Distance 10.25 km</desc>
<time>2011-07-19T20:17:51.15</time>
<name>1744</name>
</trkpt>
<trkpt lat="39.042612" lon="-3.846392">
<ele>691.5</ele>
<speed>11.9</speed>
<course>116.1</course>
<desc>Speed 11.9 km/h Distance 10.25 km</desc>
<time>2011-07-19T20:17:52.15</time>
<name>1745</name>
</trkpt>
<trkpt lat="39.042598" lon="-3.846357">
<ele>691.5</ele>
<speed>11.8</speed>
<course>110.2</course>
<desc>Speed 11.8 km/h Distance 10.26 km</desc>
<time>2011-07-19T20:17:53.15</time>
<name>1746</name>
</trkpt>
<trkpt lat="39.042588" lon="-3.846322">
<ele>691.5</ele>
<speed>11.5</speed>
<course>100.4</course>
<desc>Speed 11.5 km/h Distance 10.26 km</desc>
<time>2011-07-19T20:17:54.15</time>
<name>1747</name>
</trkpt>
<trkpt lat="39.042583" lon="-3.846287">
<ele>691.5</ele>
<speed>11.0</speed>
<course>108.7</course>
<desc>Speed 11.0 km/h Distance 10.26 km</desc>
<time>2011-07-19T20:17:55.15</time>
<name>1748</name>
</trkpt>
<trkpt lat="39.042575" lon="-3.846255">
<ele>691.5</ele>
<speed>10.4</speed>
<course>104.4</course>
<desc>Speed 10.4 km/h Distance 10.27 km</desc>
<time>2011-07-19T20:17:56.15</time>
<name>1749</name>
</trkpt>
<trkpt lat="39.042568" lon="-3.846222">
<ele>691.5</ele>
<speed>10.9</speed>
<course>109.3</course>
<desc>Speed 10.9 km/h Distance 10.27 km</desc>
<time>2011-07-19T20:17:57.15</time>
<name>1750</name>
</trkpt>
<trkpt lat="39.042558" lon="-3.846185">
<ele>691.5</ele>
<speed>11.9</speed>
<course>118.9</course>
<desc>Speed 11.9 km/h Distance 10.27 km</desc>
<time>2011-07-19T20:17:58.16</time>
<name>1751</name>
</trkpt>
<trkpt lat="39.042543" lon="-3.846150">
<ele>692.5</ele>
<speed>12.2</speed>
<course>111.4</course>
<desc>Speed 12.2 km/h Distance 10.28 km</desc>
<time>2011-07-19T20:17:59.15</time>
<name>1752</name>
</trkpt>
<trkpt lat="39.042532" lon="-3.846112">
<ele>692.5</ele>
<speed>12.7</speed>
<course>108.6</course>
<desc>Speed 12.7 km/h Distance 10.28 km</desc>
<time>2011-07-19T20:18:00.15</time>
<name>1753</name>
</trkpt>
<trkpt lat="39.042522" lon="-3.846073">
<ele>692.5</ele>
<speed>12.7</speed>
<course>115.8</course>
<desc>Speed 12.7 km/h Distance 10.28 km</desc>
<time>2011-07-19T20:18:01.15</time>
<name>1754</name>
</trkpt>
<trkpt lat="39.042507" lon="-3.846033">
<ele>693.0</ele>
<speed>12.9</speed>
<course>101.6</course>
<desc>Speed 12.9 km/h Distance 10.29 km</desc>
<time>2011-07-19T20:18:02.15</time>
<name>1755</name>
</trkpt>
<trkpt lat="39.042500" lon="-3.845992">
<ele>693.0</ele>
<speed>12.8</speed>
<course>99.5</course>
<desc>Speed 12.8 km/h Distance 10.29 km</desc>
<time>2011-07-19T20:18:03.15</time>
<name>1756</name>
</trkpt>
<trkpt lat="39.042495" lon="-3.845953">
<ele>693.0</ele>
<speed>12.6</speed>
<course>102.1</course>
<desc>Speed 12.6 km/h Distance 10.29 km</desc>
<time>2011-07-19T20:18:04.15</time>
<name>1757</name>
</trkpt>
<trkpt lat="39.042488" lon="-3.845913">
<ele>693.0</ele>
<speed>12.2</speed>
<course>107.0</course>
<desc>Speed 12.2 km/h Distance 10.30 km</desc>
<time>2011-07-19T20:18:05.15</time>
<name>1758</name>
</trkpt>
<trkpt lat="39.042480" lon="-3.845878">
<ele>693.0</ele>
<speed>11.8</speed>
<course>105.6</course>
<desc>Speed 11.8 km/h Distance 10.30 km</desc>
<time>2011-07-19T20:18:06.15</time>
<name>1759</name>
</trkpt>
<trkpt lat="39.042472" lon="-3.845840">
<ele>693.0</ele>
<speed>12.3</speed>
<course>105.0</course>
<desc>Speed 12.3 km/h Distance 10.30 km</desc>
<time>2011-07-19T20:18:07.16</time>
<name>1760</name>
</trkpt>
<trkpt lat="39.042463" lon="-3.845800">
<ele>693.0</ele>
<speed>12.5</speed>
<course>102.6</course>
<desc>Speed 12.5 km/h Distance 10.31 km</desc>
<time>2011-07-19T20:18:08.15</time>
<name>1761</name>
</trkpt>
<trkpt lat="39.042457" lon="-3.845762">
<ele>693.0</ele>
<speed>12.5</speed>
<course>102.1</course>
<desc>Speed 12.5 km/h Distance 10.31 km</desc>
<time>2011-07-19T20:18:09.15</time>
<name>1762</name>
</trkpt>
<trkpt lat="39.042450" lon="-3.845722">
<ele>693.0</ele>
<speed>12.3</speed>
<course>109.3</course>
<desc>Speed 12.3 km/h Distance 10.31 km</desc>
<time>2011-07-19T20:18:10.15</time>
<name>1763</name>
</trkpt>
<trkpt lat="39.042440" lon="-3.845685">
<ele>694.0</ele>
<speed>11.8</speed>
<course>93.3</course>
<desc>Speed 11.8 km/h Distance 10.32 km</desc>
<time>2011-07-19T20:18:11.15</time>
<name>1764</name>
</trkpt>
<trkpt lat="39.042438" lon="-3.845648">
<ele>694.5</ele>
<speed>11.5</speed>
<course>86.8</course>
<desc>Speed 11.5 km/h Distance 10.32 km</desc>
<time>2011-07-19T20:18:12.15</time>
<name>1765</name>
</trkpt>
<trkpt lat="39.042440" lon="-3.845610">
<ele>695.5</ele>
<speed>12.3</speed>
<course>86.8</course>
<desc>Speed 12.3 km/h Distance 10.32 km</desc>
<time>2011-07-19T20:18:13.16</time>
<name>1766</name>
</trkpt>
<trkpt lat="39.042442" lon="-3.845572">
<ele>696.0</ele>
<speed>12.0</speed>
<course>83.3</course>
<desc>Speed 12.0 km/h Distance 10.33 km</desc>
<time>2011-07-19T20:18:14.16</time>
<name>1767</name>
</trkpt>
<trkpt lat="39.042445" lon="-3.845535">
<ele>696.5</ele>
<speed>12.1</speed>
<course>75.0</course>
<desc>Speed 12.1 km/h Distance 10.33 km</desc>
<time>2011-07-19T20:18:15.16</time>
<name>1768</name>
</trkpt>
<trkpt lat="39.042453" lon="-3.845495">
<ele>697.0</ele>
<speed>12.5</speed>
<course>86.6</course>
<desc>Speed 12.5 km/h Distance 10.33 km</desc>
<time>2011-07-19T20:18:16.16</time>
<name>1769</name>
</trkpt>
<trkpt lat="39.042455" lon="-3.845458">
<ele>697.5</ele>
<speed>12.2</speed>
<course>83.3</course>
<desc>Speed 12.2 km/h Distance 10.34 km</desc>
<time>2011-07-19T20:18:17.15</time>
<name>1770</name>
</trkpt>
<trkpt lat="39.042458" lon="-3.845422">
<ele>698.0</ele>
<speed>11.8</speed>
<course>86.5</course>
<desc>Speed 11.8 km/h Distance 10.34 km</desc>
<time>2011-07-19T20:18:18.15</time>
<name>1771</name>
</trkpt>
<trkpt lat="39.042460" lon="-3.845387">
<ele>699.0</ele>
<speed>11.1</speed>
<course>90.0</course>
<desc>Speed 11.1 km/h Distance 10.34 km</desc>
<time>2011-07-19T20:18:19.15</time>
<name>1772</name>
</trkpt>
<trkpt lat="39.042460" lon="-3.845352">
<ele>699.5</ele>
<speed>11.2</speed>
<course>83.3</course>
<desc>Speed 11.2 km/h Distance 10.35 km</desc>
<time>2011-07-19T20:18:20.15</time>
<name>1773</name>
</trkpt>
<trkpt lat="39.042463" lon="-3.845315">
<ele>699.5</ele>
<speed>11.8</speed>
<course>90.0</course>
<desc>Speed 11.8 km/h Distance 10.35 km</desc>
<time>2011-07-19T20:18:21.15</time>
<name>1774</name>
</trkpt>
<trkpt lat="39.042463" lon="-3.845278">
<ele>700.0</ele>
<speed>12.0</speed>
<course>90.0</course>
<desc>Speed 12.0 km/h Distance 10.35 km</desc>
<time>2011-07-19T20:18:22.15</time>
<name>1775</name>
</trkpt>
<trkpt lat="39.042463" lon="-3.845238">
<ele>700.5</ele>
<speed>12.1</speed>
<course>86.9</course>
<desc>Speed 12.1 km/h Distance 10.36 km</desc>
<time>2011-07-19T20:18:23.15</time>
<name>1776</name>
</trkpt>
<trkpt lat="39.042465" lon="-3.845198">
<ele>700.5</ele>
<speed>12.6</speed>
<course>80.5</course>
<desc>Speed 12.6 km/h Distance 10.36 km</desc>
<time>2011-07-19T20:18:24.15</time>
<name>1777</name>
</trkpt>
<trkpt lat="39.042470" lon="-3.845160">
<ele>701.0</ele>
<speed>12.5</speed>
<course>83.6</course>
<desc>Speed 12.5 km/h Distance 10.36 km</desc>
<time>2011-07-19T20:18:25.14</time>
<name>1778</name>
</trkpt>
<trkpt lat="39.042473" lon="-3.845122">
<ele>701.5</ele>
<speed>12.3</speed>
<course>83.9</course>
<desc>Speed 12.3 km/h Distance 10.37 km</desc>
<time>2011-07-19T20:18:26.15</time>
<name>1779</name>
</trkpt>
<trkpt lat="39.042477" lon="-3.845082">
<ele>701.5</ele>
<speed>12.8</speed>
<course>87.2</course>
<desc>Speed 12.8 km/h Distance 10.37 km</desc>
<time>2011-07-19T20:18:27.15</time>
<name>1780</name>
</trkpt>
<trkpt lat="39.042478" lon="-3.845038">
<ele>702.0</ele>
<speed>13.4</speed>
<course>87.2</course>
<desc>Speed 13.4 km/h Distance 10.37 km</desc>
<time>2011-07-19T20:18:28.15</time>
<name>1781</name>
</trkpt>
<trkpt lat="39.042480" lon="-3.844995">
<ele>702.0</ele>
<speed>14.1</speed>
<course>95.1</course>
<desc>Speed 14.1 km/h Distance 10.38 km</desc>
<time>2011-07-19T20:18:29.16</time>
<name>1782</name>
</trkpt>
<trkpt lat="39.042477" lon="-3.844947">
<ele>702.0</ele>
<speed>14.8</speed>
<course>99.7</course>
<desc>Speed 14.8 km/h Distance 10.38 km</desc>
<time>2011-07-19T20:18:30.16</time>
<name>1783</name>
</trkpt>
<trkpt lat="39.042470" lon="-3.844897">
<ele>702.0</ele>
<speed>15.7</speed>
<course>97.3</course>
<desc>Speed 15.7 km/h Distance 10.39 km</desc>
<time>2011-07-19T20:18:31.15</time>
<name>1784</name>
</trkpt>
<trkpt lat="39.042465" lon="-3.844847">
<ele>702.0</ele>
<speed>15.6</speed>
<course>94.9</course>
<desc>Speed 15.6 km/h Distance 10.39 km</desc>
<time>2011-07-19T20:18:32.16</time>
<name>1785</name>
</trkpt>
<trkpt lat="39.042462" lon="-3.844797">
<ele>701.5</ele>
<speed>15.9</speed>
<course>92.5</course>
<desc>Speed 15.9 km/h Distance 10.40 km</desc>
<time>2011-07-19T20:18:33.14</time>
<name>1786</name>
</trkpt>
<trkpt lat="39.042460" lon="-3.844747">
<ele>702.0</ele>
<speed>15.7</speed>
<course>90.0</course>
<desc>Speed 15.7 km/h Distance 10.40 km</desc>
<time>2011-07-19T20:18:34.14</time>
<name>1787</name>
</trkpt>
<trkpt lat="39.042460" lon="-3.844692">
<ele>701.5</ele>
<speed>16.9</speed>
<course>92.2</course>
<desc>Speed 16.9 km/h Distance 10.40 km</desc>
<time>2011-07-19T20:18:35.14</time>
<name>1788</name>
</trkpt>
<trkpt lat="39.042458" lon="-3.844635">
<ele>701.0</ele>
<speed>17.5</speed>
<course>92.0</course>
<desc>Speed 17.5 km/h Distance 10.41 km</desc>
<time>2011-07-19T20:18:36.15</time>
<name>1789</name>
</trkpt>
<trkpt lat="39.042457" lon="-3.844573">
<ele>700.5</ele>
<speed>19.0</speed>
<course>90.0</course>
<desc>Speed 19.0 km/h Distance 10.41 km</desc>
<time>2011-07-19T20:18:37.14</time>
<name>1790</name>
</trkpt>
<trkpt lat="39.042457" lon="-3.844508">
<ele>700.5</ele>
<speed>20.2</speed>
<course>93.6</course>
<desc>Speed 20.2 km/h Distance 10.42 km</desc>
<time>2011-07-19T20:18:38.14</time>
<name>1791</name>
</trkpt>
<trkpt lat="39.042453" lon="-3.844440">
<ele>700.0</ele>
<speed>21.2</speed>
<course>95.3</course>
<desc>Speed 21.2 km/h Distance 10.43 km</desc>
<time>2011-07-19T20:18:39.14</time>
<name>1792</name>
</trkpt>
<trkpt lat="39.042448" lon="-3.844370">
<ele>699.5</ele>
<speed>21.7</speed>
<course>100.4</course>
<desc>Speed 21.7 km/h Distance 10.43 km</desc>
<time>2011-07-19T20:18:40.17</time>
<name>1793</name>
</trkpt>
<trkpt lat="39.042438" lon="-3.844300">
<ele>699.5</ele>
<speed>22.1</speed>
<course>107.0</course>
<desc>Speed 22.1 km/h Distance 10.44 km</desc>
<time>2011-07-19T20:18:41.15</time>
<name>1794</name>
</trkpt>
<trkpt lat="39.042422" lon="-3.844230">
<ele>699.0</ele>
<speed>22.6</speed>
<course>109.8</course>
<desc>Speed 22.6 km/h Distance 10.44 km</desc>
<time>2011-07-19T20:18:42.15</time>
<name>1795</name>
</trkpt>
<trkpt lat="39.042402" lon="-3.844158">
<ele>698.5</ele>
<speed>23.5</speed>
<course>105.6</course>
<desc>Speed 23.5 km/h Distance 10.45 km</desc>
<time>2011-07-19T20:18:43.15</time>
<name>1796</name>
</trkpt>
<trkpt lat="39.042385" lon="-3.844082">
<ele>698.0</ele>
<speed>24.6</speed>
<course>99.3</course>
<desc>Speed 24.6 km/h Distance 10.46 km</desc>
<time>2011-07-19T20:18:44.15</time>
<name>1797</name>
</trkpt>
<trkpt lat="39.042375" lon="-3.844003">
<ele>697.5</ele>
<speed>24.7</speed>
<course>101.9</course>
<desc>Speed 24.7 km/h Distance 10.47 km</desc>
<time>2011-07-19T20:18:45.15</time>
<name>1798</name>
</trkpt>
<trkpt lat="39.042362" lon="-3.843922">
<ele>697.0</ele>
<speed>25.4</speed>
<course>97.3</course>
<desc>Speed 25.4 km/h Distance 10.47 km</desc>
<time>2011-07-19T20:18:46.15</time>
<name>1799</name>
</trkpt>
<trkpt lat="39.042353" lon="-3.843838">
<ele>696.0</ele>
<speed>26.0</speed>
<course>85.6</course>
<desc>Speed 26.0 km/h Distance 10.48 km</desc>
<time>2011-07-19T20:18:47.15</time>
<name>1800</name>
</trkpt>
<trkpt lat="39.042358" lon="-3.843755">
<ele>696.0</ele>
<speed>26.1</speed>
<course>79.8</course>
<desc>Speed 26.1 km/h Distance 10.49 km</desc>
<time>2011-07-19T20:18:48.15</time>
<name>1801</name>
</trkpt>
<trkpt lat="39.042370" lon="-3.843672">
<ele>695.5</ele>
<speed>26.1</speed>
<course>73.9</course>
<desc>Speed 26.1 km/h Distance 10.49 km</desc>
<time>2011-07-19T20:18:49.15</time>
<name>1802</name>
</trkpt>
<trkpt lat="39.042388" lon="-3.843590">
<ele>695.0</ele>
<speed>26.6</speed>
<course>67.7</course>
<desc>Speed 26.6 km/h Distance 10.50 km</desc>
<time>2011-07-19T20:18:50.15</time>
<name>1803</name>
</trkpt>
<trkpt lat="39.042413" lon="-3.843512">
<ele>694.5</ele>
<speed>26.6</speed>
<course>69.8</course>
<desc>Speed 26.6 km/h Distance 10.51 km</desc>
<time>2011-07-19T20:18:51.15</time>
<name>1804</name>
</trkpt>
<trkpt lat="39.042437" lon="-3.843430">
<ele>694.5</ele>
<speed>27.0</speed>
<course>63.8</course>
<desc>Speed 27.0 km/h Distance 10.52 km</desc>
<time>2011-07-19T20:18:52.15</time>
<name>1805</name>
</trkpt>
<trkpt lat="39.042467" lon="-3.843352">
<ele>694.0</ele>
<speed>27.4</speed>
<course>56.6</course>
<desc>Speed 27.4 km/h Distance 10.52 km</desc>
<time>2011-07-19T20:18:53.15</time>
<name>1806</name>
</trkpt>
<trkpt lat="39.042505" lon="-3.843277">
<ele>693.5</ele>
<speed>27.9</speed>
<course>49.0</course>
<desc>Speed 27.9 km/h Distance 10.53 km</desc>
<time>2011-07-19T20:18:54.15</time>
<name>1807</name>
</trkpt>
<trkpt lat="39.042550" lon="-3.843210">
<ele>693.5</ele>
<speed>27.3</speed>
<course>39.6</course>
<desc>Speed 27.3 km/h Distance 10.54 km</desc>
<time>2011-07-19T20:18:55.16</time>
<name>1808</name>
</trkpt>
<trkpt lat="39.042600" lon="-3.843157">
<ele>694.0</ele>
<speed>26.3</speed>
<course>31.2</course>
<desc>Speed 26.3 km/h Distance 10.55 km</desc>
<time>2011-07-19T20:18:56.15</time>
<name>1809</name>
</trkpt>
<trkpt lat="39.042653" lon="-3.843115">
<ele>694.0</ele>
<speed>25.1</speed>
<course>20.1</course>
<desc>Speed 25.1 km/h Distance 10.55 km</desc>
<time>2011-07-19T20:18:57.15</time>
<name>1810</name>
</trkpt>
<trkpt lat="39.042710" lon="-3.843088">
<ele>695.0</ele>
<speed>24.0</speed>
<course>14.0</course>
<desc>Speed 24.0 km/h Distance 10.56 km</desc>
<time>2011-07-19T20:18:58.15</time>
<name>1811</name>
</trkpt>
<trkpt lat="39.042762" lon="-3.843072">
<ele>695.5</ele>
<speed>22.0</speed>
<course>8.8</course>
<desc>Speed 22.0 km/h Distance 10.57 km</desc>
<time>2011-07-19T20:18:59.16</time>
<name>1812</name>
</trkpt>
<trkpt lat="39.042812" lon="-3.843062">
<ele>696.5</ele>
<speed>20.4</speed>
<course>25.0</course>
<desc>Speed 20.4 km/h Distance 10.57 km</desc>
<time>2011-07-19T20:19:00.15</time>
<name>1813</name>
</trkpt>
<trkpt lat="39.042853" lon="-3.843037">
<ele>697.5</ele>
<speed>19.0</speed>
<course>37.8</course>
<desc>Speed 19.0 km/h Distance 10.58 km</desc>
<time>2011-07-19T20:19:01.15</time>
<name>1814</name>
</trkpt>
<trkpt lat="39.042892" lon="-3.842998">
<ele>697.5</ele>
<speed>19.5</speed>
<course>50.4</course>
<desc>Speed 19.5 km/h Distance 10.58 km</desc>
<time>2011-07-19T20:19:02.14</time>
<name>1815</name>
</trkpt>
<trkpt lat="39.042922" lon="-3.842952">
<ele>697.5</ele>
<speed>19.2</speed>
<course>62.8</course>
<desc>Speed 19.2 km/h Distance 10.59 km</desc>
<time>2011-07-19T20:19:03.14</time>
<name>1816</name>
</trkpt>
<trkpt lat="39.042945" lon="-3.842893">
<ele>697.0</ele>
<speed>20.1</speed>
<course>69.6</course>
<desc>Speed 20.1 km/h Distance 10.59 km</desc>
<time>2011-07-19T20:19:04.15</time>
<name>1817</name>
</trkpt>
<trkpt lat="39.042963" lon="-3.842830">
<ele>696.5</ele>
<speed>21.0</speed>
<course>74.6</course>
<desc>Speed 21.0 km/h Distance 10.60 km</desc>
<time>2011-07-19T20:19:05.15</time>
<name>1818</name>
</trkpt>
<trkpt lat="39.042978" lon="-3.842760">
<ele>696.0</ele>
<speed>22.6</speed>
<course>80.5</course>
<desc>Speed 22.6 km/h Distance 10.61 km</desc>
<time>2011-07-19T20:19:06.15</time>
<name>1819</name>
</trkpt>
<trkpt lat="39.042988" lon="-3.842683">
<ele>695.5</ele>
<speed>23.7</speed>
<course>77.9</course>
<desc>Speed 23.7 km/h Distance 10.61 km</desc>
<time>2011-07-19T20:19:07.15</time>
<name>1820</name>
</trkpt>
<trkpt lat="39.043002" lon="-3.842603">
<ele>695.0</ele>
<speed>25.3</speed>
<course>82.5</course>
<desc>Speed 25.3 km/h Distance 10.62 km</desc>
<time>2011-07-19T20:19:08.15</time>
<name>1821</name>
</trkpt>
<trkpt lat="39.043010" lon="-3.842522">
<ele>695.0</ele>
<speed>25.9</speed>
<course>77.2</course>
<desc>Speed 25.9 km/h Distance 10.63 km</desc>
<time>2011-07-19T20:19:09.15</time>
<name>1822</name>
</trkpt>
<trkpt lat="39.043025" lon="-3.842437">
<ele>694.5</ele>
<speed>26.8</speed>
<course>80.0</course>
<desc>Speed 26.8 km/h Distance 10.63 km</desc>
<time>2011-07-19T20:19:10.15</time>
<name>1823</name>
</trkpt>
<trkpt lat="39.043037" lon="-3.842352">
<ele>694.0</ele>
<speed>27.1</speed>
<course>81.7</course>
<desc>Speed 27.1 km/h Distance 10.64 km</desc>
<time>2011-07-19T20:19:11.15</time>
<name>1824</name>
</trkpt>
<trkpt lat="39.043047" lon="-3.842263">
<ele>694.0</ele>
<speed>27.5</speed>
<course>84.4</course>
<desc>Speed 27.5 km/h Distance 10.65 km</desc>
<time>2011-07-19T20:19:12.15</time>
<name>1825</name>
</trkpt>
<trkpt lat="39.043053" lon="-3.842175">
<ele>693.5</ele>
<speed>27.6</speed>
<course>87.3</course>
<desc>Speed 27.6 km/h Distance 10.66 km</desc>
<time>2011-07-19T20:19:13.15</time>
<name>1826</name>
</trkpt>
<trkpt lat="39.043057" lon="-3.842085">
<ele>693.5</ele>
<speed>27.9</speed>
<course>92.8</course>
<desc>Speed 27.9 km/h Distance 10.66 km</desc>
<time>2011-07-19T20:19:14.15</time>
<name>1827</name>
</trkpt>
<trkpt lat="39.043053" lon="-3.841997">
<ele>693.0</ele>
<speed>27.7</speed>
<course>82.9</course>
<desc>Speed 27.7 km/h Distance 10.67 km</desc>
<time>2011-07-19T20:19:15.15</time>
<name>1828</name>
</trkpt>
<trkpt lat="39.043062" lon="-3.841910">
<ele>692.5</ele>
<speed>27.0</speed>
<course>65.2</course>
<desc>Speed 27.0 km/h Distance 10.68 km</desc>
<time>2011-07-19T20:19:16.16</time>
<name>1829</name>
</trkpt>
<trkpt lat="39.043085" lon="-3.841845">
<ele>692.0</ele>
<speed>22.8</speed>
<course>43.4</course>
<desc>Speed 22.8 km/h Distance 10.69 km</desc>
<time>2011-07-19T20:19:17.15</time>
<name>1830</name>
</trkpt>
<trkpt lat="39.043123" lon="-3.841798">
<ele>690.5</ele>
<speed>20.7</speed>
<course>31.6</course>
<desc>Speed 20.7 km/h Distance 10.69 km</desc>
<time>2011-07-19T20:19:18.16</time>
<name>1831</name>
</trkpt>
<trkpt lat="39.043163" lon="-3.841767">
<ele>690.0</ele>
<speed>18.8</speed>
<course>1.5</course>
<desc>Speed 18.8 km/h Distance 10.70 km</desc>
<time>2011-07-19T20:19:19.15</time>
<name>1832</name>
</trkpt>
<trkpt lat="39.043213" lon="-3.841765">
<ele>689.0</ele>
<speed>19.9</speed>
<course>349.3</course>
<desc>Speed 19.9 km/h Distance 10.70 km</desc>
<time>2011-07-19T20:19:20.15</time>
<name>1833</name>
</trkpt>
<trkpt lat="39.043262" lon="-3.841777">
<ele>688.5</ele>
<speed>19.8</speed>
<course>334.3</course>
<desc>Speed 19.8 km/h Distance 10.71 km</desc>
<time>2011-07-19T20:19:21.15</time>
<name>1834</name>
</trkpt>
<trkpt lat="39.043310" lon="-3.841807">
<ele>688.0</ele>
<speed>20.8</speed>
<course>322.2</course>
<desc>Speed 20.8 km/h Distance 10.71 km</desc>
<time>2011-07-19T20:19:22.15</time>
<name>1835</name>
</trkpt>
<trkpt lat="39.043353" lon="-3.841850">
<ele>687.5</ele>
<speed>22.2</speed>
<course>316.1</course>
<desc>Speed 22.2 km/h Distance 10.72 km</desc>
<time>2011-07-19T20:19:23.15</time>
<name>1836</name>
</trkpt>
<trkpt lat="39.043395" lon="-3.841902">
<ele>687.0</ele>
<speed>23.0</speed>
<course>316.1</course>
<desc>Speed 23.0 km/h Distance 10.73 km</desc>
<time>2011-07-19T20:19:24.15</time>
<name>1837</name>
</trkpt>
<trkpt lat="39.043437" lon="-3.841953">
<ele>686.5</ele>
<speed>23.5</speed>
<course>316.5</course>
<desc>Speed 23.5 km/h Distance 10.73 km</desc>
<time>2011-07-19T20:19:25.15</time>
<name>1838</name>
</trkpt>
<trkpt lat="39.043482" lon="-3.842008">
<ele>686.0</ele>
<speed>24.5</speed>
<course>314.8</course>
<desc>Speed 24.5 km/h Distance 10.74 km</desc>
<time>2011-07-19T20:19:26.15</time>
<name>1839</name>
</trkpt>
<trkpt lat="39.043527" lon="-3.842067">
<ele>686.0</ele>
<speed>25.5</speed>
<course>314.3</course>
<desc>Speed 25.5 km/h Distance 10.75 km</desc>
<time>2011-07-19T20:19:27.15</time>
<name>1840</name>
</trkpt>
<trkpt lat="39.043573" lon="-3.842128">
<ele>685.5</ele>
<speed>26.6</speed>
<course>311.7</course>
<desc>Speed 26.6 km/h Distance 10.75 km</desc>
<time>2011-07-19T20:19:28.15</time>
<name>1841</name>
</trkpt>
<trkpt lat="39.043618" lon="-3.842193">
<ele>685.0</ele>
<speed>27.6</speed>
<course>311.0</course>
<desc>Speed 27.6 km/h Distance 10.76 km</desc>
<time>2011-07-19T20:19:29.15</time>
<name>1842</name>
</trkpt>
<trkpt lat="39.043663" lon="-3.842260">
<ele>684.5</ele>
<speed>27.3</speed>
<course>316.2</course>
<desc>Speed 27.3 km/h Distance 10.77 km</desc>
<time>2011-07-19T20:19:30.15</time>
<name>1843</name>
</trkpt>
<trkpt lat="39.043713" lon="-3.842322">
<ele>683.5</ele>
<speed>27.8</speed>
<course>313.8</course>
<desc>Speed 27.8 km/h Distance 10.78 km</desc>
<time>2011-07-19T20:19:31.15</time>
<name>1844</name>
</trkpt>
<trkpt lat="39.043762" lon="-3.842387">
<ele>683.0</ele>
<speed>27.8</speed>
<course>309.2</course>
<desc>Speed 27.8 km/h Distance 10.79 km</desc>
<time>2011-07-19T20:19:32.15</time>
<name>1845</name>
</trkpt>
<trkpt lat="39.043805" lon="-3.842455">
<ele>682.5</ele>
<speed>27.8</speed>
<course>309.2</course>
<desc>Speed 27.8 km/h Distance 10.79 km</desc>
<time>2011-07-19T20:19:33.15</time>
<name>1846</name>
</trkpt>
<trkpt lat="39.043848" lon="-3.842523">
<ele>682.0</ele>
<speed>27.1</speed>
<course>310.6</course>
<desc>Speed 27.1 km/h Distance 10.80 km</desc>
<time>2011-07-19T20:19:34.14</time>
<name>1847</name>
</trkpt>
<trkpt lat="39.043892" lon="-3.842588">
<ele>681.0</ele>
<speed>26.5</speed>
<course>309.5</course>
<desc>Speed 26.5 km/h Distance 10.81 km</desc>
<time>2011-07-19T20:19:35.15</time>
<name>1848</name>
</trkpt>
<trkpt lat="39.043933" lon="-3.842653">
<ele>680.5</ele>
<speed>26.6</speed>
<course>303.9</course>
<desc>Speed 26.6 km/h Distance 10.81 km</desc>
<time>2011-07-19T20:19:36.15</time>
<name>1849</name>
</trkpt>
<trkpt lat="39.043972" lon="-3.842727">
<ele>680.0</ele>
<speed>27.5</speed>
<course>299.9</course>
<desc>Speed 27.5 km/h Distance 10.82 km</desc>
<time>2011-07-19T20:19:37.15</time>
<name>1850</name>
</trkpt>
<trkpt lat="39.044007" lon="-3.842805">
<ele>679.5</ele>
<speed>28.3</speed>
<course>305.0</course>
<desc>Speed 28.3 km/h Distance 10.83 km</desc>
<time>2011-07-19T20:19:38.15</time>
<name>1851</name>
</trkpt>
<trkpt lat="39.044048" lon="-3.842882">
<ele>679.0</ele>
<speed>29.1</speed>
<course>304.4</course>
<desc>Speed 29.1 km/h Distance 10.84 km</desc>
<time>2011-07-19T20:19:39.15</time>
<name>1852</name>
</trkpt>
<trkpt lat="39.044090" lon="-3.842960">
<ele>678.5</ele>
<speed>29.9</speed>
<course>305.9</course>
<desc>Speed 29.9 km/h Distance 10.85 km</desc>
<time>2011-07-19T20:19:40.17</time>
<name>1853</name>
</trkpt>
<trkpt lat="39.044135" lon="-3.843040">
<ele>678.5</ele>
<speed>30.6</speed>
<course>306.5</course>
<desc>Speed 30.6 km/h Distance 10.86 km</desc>
<time>2011-07-19T20:19:41.15</time>
<name>1854</name>
</trkpt>
<trkpt lat="39.044180" lon="-3.843118">
<ele>678.0</ele>
<speed>30.8</speed>
<course>307.5</course>
<desc>Speed 30.8 km/h Distance 10.86 km</desc>
<time>2011-07-19T20:19:42.15</time>
<name>1855</name>
</trkpt>
<trkpt lat="39.044227" lon="-3.843197">
<ele>678.0</ele>
<speed>31.2</speed>
<course>306.8</course>
<desc>Speed 31.2 km/h Distance 10.87 km</desc>
<time>2011-07-19T20:19:43.15</time>
<name>1856</name>
</trkpt>
<trkpt lat="39.044275" lon="-3.843280">
<ele>677.5</ele>
<speed>31.8</speed>
<course>307.3</course>
<desc>Speed 31.8 km/h Distance 10.88 km</desc>
<time>2011-07-19T20:19:44.15</time>
<name>1857</name>
</trkpt>
<trkpt lat="39.044323" lon="-3.843362">
<ele>677.0</ele>
<speed>32.3</speed>
<course>308.1</course>
<desc>Speed 32.3 km/h Distance 10.89 km</desc>
<time>2011-07-19T20:19:45.14</time>
<name>1858</name>
</trkpt>
<trkpt lat="39.044375" lon="-3.843447">
<ele>676.5</ele>
<speed>33.6</speed>
<course>306.6</course>
<desc>Speed 33.6 km/h Distance 10.90 km</desc>
<time>2011-07-19T20:19:46.15</time>
<name>1859</name>
</trkpt>
<trkpt lat="39.044425" lon="-3.843533">
<ele>676.5</ele>
<speed>33.9</speed>
<course>307.5</course>
<desc>Speed 33.9 km/h Distance 10.91 km</desc>
<time>2011-07-19T20:19:47.14</time>
<name>1860</name>
</trkpt>
<trkpt lat="39.044477" lon="-3.843620">
<ele>676.0</ele>
<speed>34.3</speed>
<course>306.5</course>
<desc>Speed 34.3 km/h Distance 10.92 km</desc>
<time>2011-07-19T20:19:48.15</time>
<name>1861</name>
</trkpt>
<trkpt lat="39.044528" lon="-3.843710">
<ele>676.0</ele>
<speed>34.5</speed>
<course>309.3</course>
<desc>Speed 34.5 km/h Distance 10.93 km</desc>
<time>2011-07-19T20:19:49.15</time>
<name>1862</name>
</trkpt>
<trkpt lat="39.044583" lon="-3.843797">
<ele>675.5</ele>
<speed>34.8</speed>
<course>313.2</course>
<desc>Speed 34.8 km/h Distance 10.94 km</desc>
<time>2011-07-19T20:19:50.14</time>
<name>1863</name>
</trkpt>
<trkpt lat="39.044642" lon="-3.843877">
<ele>675.5</ele>
<speed>34.7</speed>
<course>314.8</course>
<desc>Speed 34.7 km/h Distance 10.95 km</desc>
<time>2011-07-19T20:19:51.14</time>
<name>1864</name>
</trkpt>
<trkpt lat="39.044703" lon="-3.843957">
<ele>675.0</ele>
<speed>35.0</speed>
<course>316.1</course>
<desc>Speed 35.0 km/h Distance 10.96 km</desc>
<time>2011-07-19T20:19:52.15</time>
<name>1865</name>
</trkpt>
<trkpt lat="39.044767" lon="-3.844035">
<ele>674.5</ele>
<speed>35.2</speed>
<course>313.4</course>
<desc>Speed 35.2 km/h Distance 10.97 km</desc>
<time>2011-07-19T20:19:53.14</time>
<name>1866</name>
</trkpt>
<trkpt lat="39.044827" lon="-3.844117">
<ele>674.5</ele>
<speed>35.3</speed>
<course>310.1</course>
<desc>Speed 35.3 km/h Distance 10.98 km</desc>
<time>2011-07-19T20:19:54.15</time>
<name>1867</name>
</trkpt>
<trkpt lat="39.044883" lon="-3.844203">
<ele>674.0</ele>
<speed>35.4</speed>
<course>307.3</course>
<desc>Speed 35.4 km/h Distance 10.99 km</desc>
<time>2011-07-19T20:19:55.15</time>
<name>1868</name>
</trkpt>
<trkpt lat="39.044937" lon="-3.844293">
<ele>673.5</ele>
<speed>35.0</speed>
<course>303.7</course>
<desc>Speed 35.0 km/h Distance 11.00 km</desc>
<time>2011-07-19T20:19:56.14</time>
<name>1869</name>
</trkpt>
<trkpt lat="39.044985" lon="-3.844387">
<ele>673.0</ele>
<speed>35.0</speed>
<course>302.3</course>
<desc>Speed 35.0 km/h Distance 11.01 km</desc>
<time>2011-07-19T20:19:57.14</time>
<name>1870</name>
</trkpt>
<trkpt lat="39.045032" lon="-3.844482">
<ele>673.0</ele>
<speed>35.1</speed>
<course>300.0</course>
<desc>Speed 35.1 km/h Distance 11.02 km</desc>
<time>2011-07-19T20:19:58.15</time>
<name>1871</name>
</trkpt>
<trkpt lat="39.045075" lon="-3.844578">
<ele>672.5</ele>
<speed>34.9</speed>
<course>302.8</course>
<desc>Speed 34.9 km/h Distance 11.02 km</desc>
<time>2011-07-19T20:19:59.14</time>
<name>1872</name>
</trkpt>
<trkpt lat="39.045122" lon="-3.844672">
<ele>672.0</ele>
<speed>34.5</speed>
<course>301.3</course>
<desc>Speed 34.5 km/h Distance 11.03 km</desc>
<time>2011-07-19T20:20:00.14</time>
<name>1873</name>
</trkpt>
<trkpt lat="39.045165" lon="-3.844763">
<ele>672.0</ele>
<speed>33.5</speed>
<course>301.8</course>
<desc>Speed 33.5 km/h Distance 11.04 km</desc>
<time>2011-07-19T20:20:01.15</time>
<name>1874</name>
</trkpt>
<trkpt lat="39.045208" lon="-3.844853">
<ele>672.0</ele>
<speed>32.8</speed>
<course>308.8</course>
<desc>Speed 32.8 km/h Distance 11.05 km</desc>
<time>2011-07-19T20:20:02.14</time>
<name>1875</name>
</trkpt>
<trkpt lat="39.045258" lon="-3.844933">
<ele>672.0</ele>
<speed>32.1</speed>
<course>311.6</course>
<desc>Speed 32.1 km/h Distance 11.06 km</desc>
<time>2011-07-19T20:20:03.14</time>
<name>1876</name>
</trkpt>
<trkpt lat="39.045310" lon="-3.845008">
<ele>672.0</ele>
<speed>30.9</speed>
<course>315.8</course>
<desc>Speed 30.9 km/h Distance 11.07 km</desc>
<time>2011-07-19T20:20:04.14</time>
<name>1877</name>
</trkpt>
<trkpt lat="39.045363" lon="-3.845075">
<ele>672.0</ele>
<speed>29.8</speed>
<course>324.6</course>
<desc>Speed 29.8 km/h Distance 11.08 km</desc>
<time>2011-07-19T20:20:05.15</time>
<name>1878</name>
</trkpt>
<trkpt lat="39.045423" lon="-3.845130">
<ele>671.5</ele>
<speed>29.3</speed>
<course>329.6</course>
<desc>Speed 29.3 km/h Distance 11.09 km</desc>
<time>2011-07-19T20:20:06.14</time>
<name>1879</name>
</trkpt>
<trkpt lat="39.045485" lon="-3.845177">
<ele>671.0</ele>
<speed>28.8</speed>
<course>331.4</course>
<desc>Speed 28.8 km/h Distance 11.09 km</desc>
<time>2011-07-19T20:20:07.14</time>
<name>1880</name>
</trkpt>
<trkpt lat="39.045547" lon="-3.845220">
<ele>671.0</ele>
<speed>28.0</speed>
<course>335.2</course>
<desc>Speed 28.0 km/h Distance 11.10 km</desc>
<time>2011-07-19T20:20:08.14</time>
<name>1881</name>
</trkpt>
<trkpt lat="39.045608" lon="-3.845257">
<ele>670.5</ele>
<speed>27.1</speed>
<course>338.8</course>
<desc>Speed 27.1 km/h Distance 11.11 km</desc>
<time>2011-07-19T20:20:09.15</time>
<name>1882</name>
</trkpt>
<trkpt lat="39.045672" lon="-3.845288">
<ele>670.5</ele>
<speed>27.1</speed>
<course>336.2</course>
<desc>Speed 27.1 km/h Distance 11.12 km</desc>
<time>2011-07-19T20:20:10.14</time>
<name>1883</name>
</trkpt>
<trkpt lat="39.045733" lon="-3.845323">
<ele>670.0</ele>
<speed>26.6</speed>
<course>333.6</course>
<desc>Speed 26.6 km/h Distance 11.13 km</desc>
<time>2011-07-19T20:20:11.14</time>
<name>1884</name>
</trkpt>
<trkpt lat="39.045793" lon="-3.845362">
<ele>670.0</ele>
<speed>26.1</speed>
<course>330.3</course>
<desc>Speed 26.1 km/h Distance 11.13 km</desc>
<time>2011-07-19T20:20:12.14</time>
<name>1885</name>
</trkpt>
<trkpt lat="39.045850" lon="-3.845403">
<ele>669.5</ele>
<speed>25.7</speed>
<course>328.7</course>
<desc>Speed 25.7 km/h Distance 11.14 km</desc>
<time>2011-07-19T20:20:13.15</time>
<name>1886</name>
</trkpt>
<trkpt lat="39.045903" lon="-3.845445">
<ele>669.5</ele>
<speed>25.1</speed>
<course>329.8</course>
<desc>Speed 25.1 km/h Distance 11.15 km</desc>
<time>2011-07-19T20:20:14.14</time>
<name>1887</name>
</trkpt>
<trkpt lat="39.045957" lon="-3.845485">
<ele>669.0</ele>
<speed>24.4</speed>
<course>337.6</course>
<desc>Speed 24.4 km/h Distance 11.15 km</desc>
<time>2011-07-19T20:20:15.14</time>
<name>1888</name>
</trkpt>
<trkpt lat="39.046013" lon="-3.845515">
<ele>669.0</ele>
<speed>23.8</speed>
<course>339.9</course>
<desc>Speed 23.8 km/h Distance 11.16 km</desc>
<time>2011-07-19T20:20:16.14</time>
<name>1889</name>
</trkpt>
<trkpt lat="39.046070" lon="-3.845542">
<ele>668.5</ele>
<speed>23.7</speed>
<course>344.7</course>
<desc>Speed 23.7 km/h Distance 11.17 km</desc>
<time>2011-07-19T20:20:17.14</time>
<name>1890</name>
</trkpt>
<trkpt lat="39.046127" lon="-3.845562">
<ele>668.0</ele>
<speed>23.6</speed>
<course>347.5</course>
<desc>Speed 23.6 km/h Distance 11.17 km</desc>
<time>2011-07-19T20:20:18.15</time>
<name>1891</name>
</trkpt>
<trkpt lat="39.046185" lon="-3.845578">
<ele>668.0</ele>
<speed>23.4</speed>
<course>352.5</course>
<desc>Speed 23.4 km/h Distance 11.18 km</desc>
<time>2011-07-19T20:20:19.14</time>
<name>1892</name>
</trkpt>
<trkpt lat="39.046243" lon="-3.845588">
<ele>667.5</ele>
<speed>22.9</speed>
<course>0.8</course>
<desc>Speed 22.9 km/h Distance 11.19 km</desc>
<time>2011-07-19T20:20:20.14</time>
<name>1893</name>
</trkpt>
<trkpt lat="39.046300" lon="-3.845588">
<ele>667.5</ele>
<speed>22.8</speed>
<course>0.8</course>
<desc>Speed 22.8 km/h Distance 11.19 km</desc>
<time>2011-07-19T20:20:21.14</time>
<name>1894</name>
</trkpt>
<trkpt lat="39.046357" lon="-3.845588">
<ele>667.5</ele>
<speed>22.6</speed>
<course>1.4</course>
<desc>Speed 22.6 km/h Distance 11.20 km</desc>
<time>2011-07-19T20:20:22.14</time>
<name>1895</name>
</trkpt>
<trkpt lat="39.046413" lon="-3.845587">
<ele>667.5</ele>
<speed>22.4</speed>
<course>4.3</course>
<desc>Speed 22.4 km/h Distance 11.21 km</desc>
<time>2011-07-19T20:20:23.15</time>
<name>1896</name>
</trkpt>
<trkpt lat="39.046467" lon="-3.845582">
<ele>667.5</ele>
<speed>21.1</speed>
<course>10.3</course>
<desc>Speed 21.1 km/h Distance 11.21 km</desc>
<time>2011-07-19T20:20:24.14</time>
<name>1897</name>
</trkpt>
<trkpt lat="39.046517" lon="-3.845570">
<ele>667.5</ele>
<speed>20.3</speed>
<course>353.5</course>
<desc>Speed 20.3 km/h Distance 11.22 km</desc>
<time>2011-07-19T20:20:25.14</time>
<name>1898</name>
</trkpt>
<trkpt lat="39.046562" lon="-3.845577">
<ele>667.5</ele>
<speed>18.3</speed>
<course>320.8</course>
<desc>Speed 18.3 km/h Distance 11.22 km</desc>
<time>2011-07-19T20:20:26.14</time>
<name>1899</name>
</trkpt>
<trkpt lat="39.046593" lon="-3.845610">
<ele>667.5</ele>
<speed>16.1</speed>
<course>300.9</course>
<desc>Speed 16.1 km/h Distance 11.23 km</desc>
<time>2011-07-19T20:20:27.14</time>
<name>1900</name>
</trkpt>
<trkpt lat="39.046615" lon="-3.845657">
<ele>667.5</ele>
<speed>16.6</speed>
<course>288.4</course>
<desc>Speed 16.6 km/h Distance 11.23 km</desc>
<time>2011-07-19T20:20:28.14</time>
<name>1901</name>
</trkpt>
<trkpt lat="39.046628" lon="-3.845708">
<ele>667.5</ele>
<speed>16.9</speed>
<course>285.3</course>
<desc>Speed 16.9 km/h Distance 11.24 km</desc>
<time>2011-07-19T20:20:29.14</time>
<name>1902</name>
</trkpt>
<trkpt lat="39.046640" lon="-3.845763">
<ele>667.0</ele>
<speed>17.7</speed>
<course>282.4</course>
<desc>Speed 17.7 km/h Distance 11.24 km</desc>
<time>2011-07-19T20:20:30.14</time>
<name>1903</name>
</trkpt>
<trkpt lat="39.046650" lon="-3.845822">
<ele>667.0</ele>
<speed>18.5</speed>
<course>278.1</course>
<desc>Speed 18.5 km/h Distance 11.25 km</desc>
<time>2011-07-19T20:20:31.15</time>
<name>1904</name>
</trkpt>
<trkpt lat="39.046657" lon="-3.845882">
<ele>667.0</ele>
<speed>18.9</speed>
<course>280.1</course>
<desc>Speed 18.9 km/h Distance 11.25 km</desc>
<time>2011-07-19T20:20:32.14</time>
<name>1905</name>
</trkpt>
<trkpt lat="39.046665" lon="-3.845942">
<ele>667.0</ele>
<speed>19.1</speed>
<course>284.1</course>
<desc>Speed 19.1 km/h Distance 11.26 km</desc>
<time>2011-07-19T20:20:33.14</time>
<name>1906</name>
</trkpt>
<trkpt lat="39.046677" lon="-3.846002">
<ele>667.0</ele>
<speed>19.3</speed>
<course>284.1</course>
<desc>Speed 19.3 km/h Distance 11.26 km</desc>
<time>2011-07-19T20:20:34.14</time>
<name>1907</name>
</trkpt>
<trkpt lat="39.046688" lon="-3.846062">
<ele>667.0</ele>
<speed>19.2</speed>
<course>286.0</course>
<desc>Speed 19.2 km/h Distance 11.27 km</desc>
<time>2011-07-19T20:20:35.14</time>
<name>1908</name>
</trkpt>
<trkpt lat="39.046702" lon="-3.846122">
<ele>666.5</ele>
<speed>19.2</speed>
<course>286.4</course>
<desc>Speed 19.2 km/h Distance 11.27 km</desc>
<time>2011-07-19T20:20:36.15</time>
<name>1909</name>
</trkpt>
<trkpt lat="39.046715" lon="-3.846180">
<ele>666.5</ele>
<speed>19.2</speed>
<course>285.6</course>
<desc>Speed 19.2 km/h Distance 11.28 km</desc>
<time>2011-07-19T20:20:37.14</time>
<name>1910</name>
</trkpt>
<trkpt lat="39.046728" lon="-3.846242">
<ele>666.5</ele>
<speed>19.7</speed>
<course>284.1</course>
<desc>Speed 19.7 km/h Distance 11.28 km</desc>
<time>2011-07-19T20:20:38.15</time>
<name>1911</name>
</trkpt>
<trkpt lat="39.046740" lon="-3.846302">
<ele>666.5</ele>
<speed>19.5</speed>
<course>286.0</course>
<desc>Speed 19.5 km/h Distance 11.29 km</desc>
<time>2011-07-19T20:20:39.14</time>
<name>1912</name>
</trkpt>
<trkpt lat="39.046753" lon="-3.846362">
<ele>666.0</ele>
<speed>19.3</speed>
<course>283.7</course>
<desc>Speed 19.3 km/h Distance 11.29 km</desc>
<time>2011-07-19T20:20:40.17</time>
<name>1913</name>
</trkpt>
<trkpt lat="39.046765" lon="-3.846423">
<ele>666.0</ele>
<speed>19.6</speed>
<course>285.2</course>
<desc>Speed 19.6 km/h Distance 11.30 km</desc>
<time>2011-07-19T20:20:41.14</time>
<name>1914</name>
</trkpt>
<trkpt lat="39.046778" lon="-3.846487">
<ele>665.5</ele>
<speed>20.3</speed>
<course>283.0</course>
<desc>Speed 20.3 km/h Distance 11.31 km</desc>
<time>2011-07-19T20:20:42.14</time>
<name>1915</name>
</trkpt>
<trkpt lat="39.046790" lon="-3.846552">
<ele>665.5</ele>
<speed>20.6</speed>
<course>286.2</course>
<desc>Speed 20.6 km/h Distance 11.31 km</desc>
<time>2011-07-19T20:20:43.14</time>
<name>1916</name>
</trkpt>
<trkpt lat="39.046805" lon="-3.846618">
<ele>665.5</ele>
<speed>21.6</speed>
<course>287.4</course>
<desc>Speed 21.6 km/h Distance 11.32 km</desc>
<time>2011-07-19T20:20:44.14</time>
<name>1917</name>
</trkpt>
<trkpt lat="39.046822" lon="-3.846687">
<ele>665.5</ele>
<speed>22.3</speed>
<course>287.0</course>
<desc>Speed 22.3 km/h Distance 11.32 km</desc>
<time>2011-07-19T20:20:45.14</time>
<name>1918</name>
</trkpt>
<trkpt lat="39.046838" lon="-3.846757">
<ele>665.0</ele>
<speed>22.8</speed>
<course>286.7</course>
<desc>Speed 22.8 km/h Distance 11.33 km</desc>
<time>2011-07-19T20:20:46.14</time>
<name>1919</name>
</trkpt>
<trkpt lat="39.046855" lon="-3.846828">
<ele>665.0</ele>
<speed>23.4</speed>
<course>286.7</course>
<desc>Speed 23.4 km/h Distance 11.34 km</desc>
<time>2011-07-19T20:20:47.14</time>
<name>1920</name>
</trkpt>
<trkpt lat="39.046872" lon="-3.846900">
<ele>665.0</ele>
<speed>23.6</speed>
<course>287.8</course>
<desc>Speed 23.6 km/h Distance 11.34 km</desc>
<time>2011-07-19T20:20:48.14</time>
<name>1921</name>
</trkpt>
<trkpt lat="39.046890" lon="-3.846973">
<ele>665.0</ele>
<speed>23.5</speed>
<course>288.6</course>
<desc>Speed 23.5 km/h Distance 11.35 km</desc>
<time>2011-07-19T20:20:49.14</time>
<name>1922</name>
</trkpt>
<trkpt lat="39.046908" lon="-3.847043">
<ele>665.0</ele>
<speed>23.5</speed>
<course>288.2</course>
<desc>Speed 23.5 km/h Distance 11.36 km</desc>
<time>2011-07-19T20:20:50.14</time>
<name>1923</name>
</trkpt>
<trkpt lat="39.046927" lon="-3.847115">
<ele>665.0</ele>
<speed>23.4</speed>
<course>290.2</course>
<desc>Speed 23.4 km/h Distance 11.36 km</desc>
<time>2011-07-19T20:20:51.14</time>
<name>1924</name>
</trkpt>
<trkpt lat="39.046947" lon="-3.847185">
<ele>665.0</ele>
<speed>23.3</speed>
<course>286.7</course>
<desc>Speed 23.3 km/h Distance 11.37 km</desc>
<time>2011-07-19T20:20:52.14</time>
<name>1925</name>
</trkpt>
<trkpt lat="39.046963" lon="-3.847257">
<ele>665.0</ele>
<speed>23.5</speed>
<course>288.2</course>
<desc>Speed 23.5 km/h Distance 11.38 km</desc>
<time>2011-07-19T20:20:53.14</time>
<name>1926</name>
</trkpt>
<trkpt lat="39.046982" lon="-3.847328">
<ele>665.0</ele>
<speed>23.4</speed>
<course>287.0</course>
<desc>Speed 23.4 km/h Distance 11.38 km</desc>
<time>2011-07-19T20:20:54.14</time>
<name>1927</name>
</trkpt>
<trkpt lat="39.046998" lon="-3.847398">
<ele>665.0</ele>
<speed>23.0</speed>
<course>289.1</course>
<desc>Speed 23.0 km/h Distance 11.39 km</desc>
<time>2011-07-19T20:20:55.14</time>
<name>1928</name>
</trkpt>
<trkpt lat="39.047017" lon="-3.847467">
<ele>665.0</ele>
<speed>22.5</speed>
<course>287.4</course>
<desc>Speed 22.5 km/h Distance 11.39 km</desc>
<time>2011-07-19T20:20:56.15</time>
<name>1929</name>
</trkpt>
<trkpt lat="39.047033" lon="-3.847535">
<ele>665.0</ele>
<speed>22.1</speed>
<course>290.0</course>
<desc>Speed 22.1 km/h Distance 11.40 km</desc>
<time>2011-07-19T20:20:57.14</time>
<name>1930</name>
</trkpt>
<trkpt lat="39.047052" lon="-3.847600">
<ele>665.0</ele>
<speed>21.7</speed>
<course>290.0</course>
<desc>Speed 21.7 km/h Distance 11.41 km</desc>
<time>2011-07-19T20:20:58.14</time>
<name>1931</name>
</trkpt>
<trkpt lat="39.047070" lon="-3.847665">
<ele>664.5</ele>
<speed>21.3</speed>
<course>290.4</course>
<desc>Speed 21.3 km/h Distance 11.41 km</desc>
<time>2011-07-19T20:20:59.14</time>
<name>1932</name>
</trkpt>
<trkpt lat="39.047088" lon="-3.847728">
<ele>665.0</ele>
<speed>21.1</speed>
<course>290.4</course>
<desc>Speed 21.1 km/h Distance 11.42 km</desc>
<time>2011-07-19T20:21:00.15</time>
<name>1933</name>
</trkpt>
<trkpt lat="39.047107" lon="-3.847792">
<ele>665.0</ele>
<speed>20.9</speed>
<course>290.9</course>
<desc>Speed 20.9 km/h Distance 11.42 km</desc>
<time>2011-07-19T20:21:01.14</time>
<name>1934</name>
</trkpt>
<trkpt lat="39.047125" lon="-3.847853">
<ele>665.0</ele>
<speed>20.8</speed>
<course>290.9</course>
<desc>Speed 20.8 km/h Distance 11.43 km</desc>
<time>2011-07-19T20:21:02.14</time>
<name>1935</name>
</trkpt>
<trkpt lat="39.047143" lon="-3.847915">
<ele>665.0</ele>
<speed>20.4</speed>
<course>293.2</course>
<desc>Speed 20.4 km/h Distance 11.44 km</desc>
<time>2011-07-19T20:21:03.14</time>
<name>1936</name>
</trkpt>
<trkpt lat="39.047163" lon="-3.847975">
<ele>665.0</ele>
<speed>20.3</speed>
<course>290.9</course>
<desc>Speed 20.3 km/h Distance 11.44 km</desc>
<time>2011-07-19T20:21:04.14</time>
<name>1937</name>
</trkpt>
<trkpt lat="39.047182" lon="-3.848037">
<ele>665.0</ele>
<speed>20.5</speed>
<course>288.7</course>
<desc>Speed 20.5 km/h Distance 11.45 km</desc>
<time>2011-07-19T20:21:05.14</time>
<name>1938</name>
</trkpt>
<trkpt lat="39.047198" lon="-3.848100">
<ele>665.0</ele>
<speed>20.8</speed>
<course>288.7</course>
<desc>Speed 20.8 km/h Distance 11.45 km</desc>
<time>2011-07-19T20:21:06.14</time>
<name>1939</name>
</trkpt>
<trkpt lat="39.047215" lon="-3.848163">
<ele>665.0</ele>
<speed>21.1</speed>
<course>291.6</course>
<desc>Speed 21.1 km/h Distance 11.46 km</desc>
<time>2011-07-19T20:21:07.14</time>
<name>1940</name>
</trkpt>
<trkpt lat="39.047235" lon="-3.848228">
<ele>665.0</ele>
<speed>21.5</speed>
<course>290.0</course>
<desc>Speed 21.5 km/h Distance 11.47 km</desc>
<time>2011-07-19T20:21:08.14</time>
<name>1941</name>
</trkpt>
<trkpt lat="39.047253" lon="-3.848293">
<ele>665.0</ele>
<speed>21.7</speed>
<course>290.0</course>
<desc>Speed 21.7 km/h Distance 11.47 km</desc>
<time>2011-07-19T20:21:09.14</time>
<name>1942</name>
</trkpt>
<trkpt lat="39.047272" lon="-3.848358">
<ele>665.0</ele>
<speed>21.7</speed>
<course>289.5</course>
<desc>Speed 21.7 km/h Distance 11.48 km</desc>
<time>2011-07-19T20:21:10.14</time>
<name>1943</name>
</trkpt>
<trkpt lat="39.047290" lon="-3.848425">
<ele>665.0</ele>
<speed>21.9</speed>
<course>293.2</course>
<desc>Speed 21.9 km/h Distance 11.48 km</desc>
<time>2011-07-19T20:21:11.14</time>
<name>1944</name>
</trkpt>
<trkpt lat="39.047312" lon="-3.848490">
<ele>665.0</ele>
<speed>22.1</speed>
<course>292.7</course>
<desc>Speed 22.1 km/h Distance 11.49 km</desc>
<time>2011-07-19T20:21:12.15</time>
<name>1945</name>
</trkpt>
<trkpt lat="39.047333" lon="-3.848557">
<ele>665.0</ele>
<speed>22.3</speed>
<course>292.7</course>
<desc>Speed 22.3 km/h Distance 11.50 km</desc>
<time>2011-07-19T20:21:13.14</time>
<name>1946</name>
</trkpt>
<trkpt lat="39.047355" lon="-3.848623">
<ele>665.5</ele>
<speed>22.3</speed>
<course>292.7</course>
<desc>Speed 22.3 km/h Distance 11.50 km</desc>
<time>2011-07-19T20:21:14.14</time>
<name>1947</name>
</trkpt>
<trkpt lat="39.047377" lon="-3.848690">
<ele>665.5</ele>
<speed>22.4</speed>
<course>293.2</course>
<desc>Speed 22.4 km/h Distance 11.51 km</desc>
<time>2011-07-19T20:21:15.14</time>
<name>1948</name>
</trkpt>
<trkpt lat="39.047398" lon="-3.848755">
<ele>665.5</ele>
<speed>22.2</speed>
<course>295.4</course>
<desc>Speed 22.2 km/h Distance 11.51 km</desc>
<time>2011-07-19T20:21:16.14</time>
<name>1949</name>
</trkpt>
<trkpt lat="39.047422" lon="-3.848818">
<ele>665.5</ele>
<speed>22.2</speed>
<course>291.1</course>
<desc>Speed 22.2 km/h Distance 11.52 km</desc>
<time>2011-07-19T20:21:17.14</time>
<name>1950</name>
</trkpt>
<trkpt lat="39.047442" lon="-3.848885">
<ele>665.5</ele>
<speed>22.0</speed>
<course>289.5</course>
<desc>Speed 22.0 km/h Distance 11.53 km</desc>
<time>2011-07-19T20:21:18.14</time>
<name>1951</name>
</trkpt>
<trkpt lat="39.047460" lon="-3.848952">
<ele>666.0</ele>
<speed>22.1</speed>
<course>287.8</course>
<desc>Speed 22.1 km/h Distance 11.53 km</desc>
<time>2011-07-19T20:21:19.14</time>
<name>1952</name>
</trkpt>
<trkpt lat="39.047477" lon="-3.849018">
<ele>666.0</ele>
<speed>22.0</speed>
<course>290.0</course>
<desc>Speed 22.0 km/h Distance 11.54 km</desc>
<time>2011-07-19T20:21:20.14</time>
<name>1953</name>
</trkpt>
<trkpt lat="39.047495" lon="-3.849083">
<ele>666.0</ele>
<speed>21.8</speed>
<course>287.4</course>
<desc>Speed 21.8 km/h Distance 11.54 km</desc>
<time>2011-07-19T20:21:21.14</time>
<name>1954</name>
</trkpt>
<trkpt lat="39.047512" lon="-3.849152">
<ele>666.0</ele>
<speed>21.9</speed>
<course>287.8</course>
<desc>Speed 21.9 km/h Distance 11.55 km</desc>
<time>2011-07-19T20:21:22.14</time>
<name>1955</name>
</trkpt>
<trkpt lat="39.047528" lon="-3.849218">
<ele>666.0</ele>
<speed>22.0</speed>
<course>285.8</course>
<desc>Speed 22.0 km/h Distance 11.56 km</desc>
<time>2011-07-19T20:21:23.14</time>
<name>1956</name>
</trkpt>
<trkpt lat="39.047543" lon="-3.849287">
<ele>666.0</ele>
<speed>21.9</speed>
<course>284.4</course>
<desc>Speed 21.9 km/h Distance 11.56 km</desc>
<time>2011-07-19T20:21:24.14</time>
<name>1957</name>
</trkpt>
<trkpt lat="39.047557" lon="-3.849353">
<ele>666.0</ele>
<speed>21.8</speed>
<course>284.1</course>
<desc>Speed 21.8 km/h Distance 11.57 km</desc>
<time>2011-07-19T20:21:25.14</time>
<name>1958</name>
</trkpt>
<trkpt lat="39.047570" lon="-3.849422">
<ele>666.0</ele>
<speed>21.8</speed>
<course>282.4</course>
<desc>Speed 21.8 km/h Distance 11.58 km</desc>
<time>2011-07-19T20:21:26.14</time>
<name>1959</name>
</trkpt>
<trkpt lat="39.047582" lon="-3.849490">
<ele>666.0</ele>
<speed>21.9</speed>
<course>280.7</course>
<desc>Speed 21.9 km/h Distance 11.58 km</desc>
<time>2011-07-19T20:21:27.14</time>
<name>1960</name>
</trkpt>
<trkpt lat="39.047592" lon="-3.849558">
<ele>666.0</ele>
<speed>21.9</speed>
<course>280.4</course>
<desc>Speed 21.9 km/h Distance 11.59 km</desc>
<time>2011-07-19T20:21:28.14</time>
<name>1961</name>
</trkpt>
<trkpt lat="39.047602" lon="-3.849628">
<ele>666.0</ele>
<speed>21.7</speed>
<course>277.2</course>
<desc>Speed 21.7 km/h Distance 11.59 km</desc>
<time>2011-07-19T20:21:29.14</time>
<name>1962</name>
</trkpt>
<trkpt lat="39.047608" lon="-3.849697">
<ele>666.0</ele>
<speed>21.6</speed>
<course>277.2</course>
<desc>Speed 21.6 km/h Distance 11.60 km</desc>
<time>2011-07-19T20:21:30.14</time>
<name>1963</name>
</trkpt>
<trkpt lat="39.047615" lon="-3.849765">
<ele>666.0</ele>
<speed>21.8</speed>
<course>278.7</course>
<desc>Speed 21.8 km/h Distance 11.61 km</desc>
<time>2011-07-19T20:21:31.14</time>
<name>1964</name>
</trkpt>
<trkpt lat="39.047623" lon="-3.849835">
<ele>666.0</ele>
<speed>21.9</speed>
<course>278.9</course>
<desc>Speed 21.9 km/h Distance 11.61 km</desc>
<time>2011-07-19T20:21:32.14</time>
<name>1965</name>
</trkpt>
<trkpt lat="39.047632" lon="-3.849903">
<ele>666.0</ele>
<speed>21.7</speed>
<course>280.7</course>
<desc>Speed 21.7 km/h Distance 11.62 km</desc>
<time>2011-07-19T20:21:33.14</time>
<name>1966</name>
</trkpt>
<trkpt lat="39.047642" lon="-3.849972">
<ele>666.0</ele>
<speed>21.5</speed>
<course>282.7</course>
<desc>Speed 21.5 km/h Distance 11.62 km</desc>
<time>2011-07-19T20:21:34.14</time>
<name>1967</name>
</trkpt>
<trkpt lat="39.047653" lon="-3.850038">
<ele>666.5</ele>
<speed>21.4</speed>
<course>282.7</course>
<desc>Speed 21.4 km/h Distance 11.63 km</desc>
<time>2011-07-19T20:21:35.14</time>
<name>1968</name>
</trkpt>
<trkpt lat="39.047665" lon="-3.850105">
<ele>666.5</ele>
<speed>21.4</speed>
<course>278.9</course>
<desc>Speed 21.4 km/h Distance 11.64 km</desc>
<time>2011-07-19T20:21:36.14</time>
<name>1969</name>
</trkpt>
<trkpt lat="39.047673" lon="-3.850173">
<ele>666.5</ele>
<speed>21.2</speed>
<course>277.5</course>
<desc>Speed 21.2 km/h Distance 11.64 km</desc>
<time>2011-07-19T20:21:37.14</time>
<name>1970</name>
</trkpt>
<trkpt lat="39.047680" lon="-3.850238">
<ele>666.5</ele>
<speed>20.6</speed>
<course>279.6</course>
<desc>Speed 20.6 km/h Distance 11.65 km</desc>
<time>2011-07-19T20:21:38.14</time>
<name>1971</name>
</trkpt>
<trkpt lat="39.047688" lon="-3.850302">
<ele>666.5</ele>
<speed>20.3</speed>
<course>285.2</course>
<desc>Speed 20.3 km/h Distance 11.65 km</desc>
<time>2011-07-19T20:21:39.14</time>
<name>1972</name>
</trkpt>
<trkpt lat="39.047702" lon="-3.850365">
<ele>666.5</ele>
<speed>20.2</speed>
<course>287.4</course>
<desc>Speed 20.2 km/h Distance 11.66 km</desc>
<time>2011-07-19T20:21:40.16</time>
<name>1973</name>
</trkpt>
<trkpt lat="39.047717" lon="-3.850427">
<ele>666.5</ele>
<speed>20.0</speed>
<course>286.0</course>
<desc>Speed 20.0 km/h Distance 11.66 km</desc>
<time>2011-07-19T20:21:41.14</time>
<name>1974</name>
</trkpt>
<trkpt lat="39.047730" lon="-3.850487">
<ele>666.5</ele>
<speed>19.7</speed>
<course>279.9</course>
<desc>Speed 19.7 km/h Distance 11.67 km</desc>
<time>2011-07-19T20:21:42.13</time>
<name>1975</name>
</trkpt>
<trkpt lat="39.047738" lon="-3.850548">
<ele>666.0</ele>
<speed>19.0</speed>
<course>246.2</course>
<desc>Speed 19.0 km/h Distance 11.67 km</desc>
<time>2011-07-19T20:21:43.13</time>
<name>1976</name>
</trkpt>
<trkpt lat="39.047718" lon="-3.850607">
<ele>666.0</ele>
<speed>19.7</speed>
<course>203.5</course>
<desc>Speed 19.7 km/h Distance 11.68 km</desc>
<time>2011-07-19T20:21:44.14</time>
<name>1977</name>
</trkpt>
<trkpt lat="39.047677" lon="-3.850630">
<ele>667.0</ele>
<speed>18.6</speed>
<course>211.0</course>
<desc>Speed 18.6 km/h Distance 11.68 km</desc>
<time>2011-07-19T20:21:45.14</time>
<name>1978</name>
</trkpt>
<trkpt lat="39.047640" lon="-3.850658">
<ele>667.5</ele>
<speed>17.2</speed>
<course>191.8</course>
<desc>Speed 17.2 km/h Distance 11.69 km</desc>
<time>2011-07-19T20:21:46.14</time>
<name>1979</name>
</trkpt>
<trkpt lat="39.047597" lon="-3.850670">
<ele>667.5</ele>
<speed>18.0</speed>
<course>181.6</course>
<desc>Speed 18.0 km/h Distance 11.69 km</desc>
<time>2011-07-19T20:21:47.14</time>
<name>1980</name>
</trkpt>
<trkpt lat="39.047553" lon="-3.850672">
<ele>667.5</ele>
<speed>17.8</speed>
<course>178.4</course>
<desc>Speed 17.8 km/h Distance 11.70 km</desc>
<time>2011-07-19T20:21:48.14</time>
<name>1981</name>
</trkpt>
<trkpt lat="39.047507" lon="-3.850670">
<ele>667.0</ele>
<speed>18.6</speed>
<course>186.1</course>
<desc>Speed 18.6 km/h Distance 11.70 km</desc>
<time>2011-07-19T20:21:49.14</time>
<name>1982</name>
</trkpt>
<trkpt lat="39.047458" lon="-3.850677">
<ele>667.0</ele>
<speed>19.8</speed>
<course>190.3</course>
<desc>Speed 19.8 km/h Distance 11.71 km</desc>
<time>2011-07-19T20:21:50.14</time>
<name>1983</name>
</trkpt>
<trkpt lat="39.047408" lon="-3.850688">
<ele>667.0</ele>
<speed>20.5</speed>
<course>188.5</course>
<desc>Speed 20.5 km/h Distance 11.72 km</desc>
<time>2011-07-19T20:21:51.14</time>
<name>1984</name>
</trkpt>
<trkpt lat="39.047357" lon="-3.850698">
<ele>667.0</ele>
<speed>21.2</speed>
<course>189.4</course>
<desc>Speed 21.2 km/h Distance 11.72 km</desc>
<time>2011-07-19T20:21:52.14</time>
<name>1985</name>
</trkpt>
<trkpt lat="39.047302" lon="-3.850710">
<ele>667.0</ele>
<speed>21.8</speed>
<course>191.0</course>
<desc>Speed 21.8 km/h Distance 11.73 km</desc>
<time>2011-07-19T20:21:53.14</time>
<name>1986</name>
</trkpt>
<trkpt lat="39.047248" lon="-3.850723">
<ele>667.5</ele>
<speed>22.1</speed>
<course>192.0</course>
<desc>Speed 22.1 km/h Distance 11.73 km</desc>
<time>2011-07-19T20:21:54.14</time>
<name>1987</name>
</trkpt>
<trkpt lat="39.047193" lon="-3.850738">
<ele>667.5</ele>
<speed>22.2</speed>
<course>192.3</course>
<desc>Speed 22.2 km/h Distance 11.74 km</desc>
<time>2011-07-19T20:21:55.14</time>
<name>1988</name>
</trkpt>
<trkpt lat="39.047140" lon="-3.850753">
<ele>667.0</ele>
<speed>22.2</speed>
<course>191.6</course>
<desc>Speed 22.2 km/h Distance 11.75 km</desc>
<time>2011-07-19T20:21:56.14</time>
<name>1989</name>
</trkpt>
<trkpt lat="39.047083" lon="-3.850768">
<ele>667.0</ele>
<speed>22.9</speed>
<course>191.6</course>
<desc>Speed 22.9 km/h Distance 11.75 km</desc>
<time>2011-07-19T20:21:57.14</time>
<name>1990</name>
</trkpt>
<trkpt lat="39.047027" lon="-3.850783">
<ele>667.0</ele>
<speed>23.5</speed>
<course>191.6</course>
<desc>Speed 23.5 km/h Distance 11.76 km</desc>
<time>2011-07-19T20:21:58.14</time>
<name>1991</name>
</trkpt>
<trkpt lat="39.046970" lon="-3.850798">
<ele>666.5</ele>
<speed>23.5</speed>
<course>192.5</course>
<desc>Speed 23.5 km/h Distance 11.77 km</desc>
<time>2011-07-19T20:21:59.14</time>
<name>1992</name>
</trkpt>
<trkpt lat="39.046912" lon="-3.850815">
<ele>666.5</ele>
<speed>23.8</speed>
<course>192.9</course>
<desc>Speed 23.8 km/h Distance 11.77 km</desc>
<time>2011-07-19T20:22:00.14</time>
<name>1993</name>
</trkpt>
<trkpt lat="39.046855" lon="-3.850832">
<ele>666.5</ele>
<speed>23.7</speed>
<course>194.5</course>
<desc>Speed 23.7 km/h Distance 11.78 km</desc>
<time>2011-07-19T20:22:01.14</time>
<name>1994</name>
</trkpt>
<trkpt lat="39.046800" lon="-3.850850">
<ele>666.5</ele>
<speed>23.0</speed>
<course>192.0</course>
<desc>Speed 23.0 km/h Distance 11.78 km</desc>
<time>2011-07-19T20:22:02.14</time>
<name>1995</name>
</trkpt>
<trkpt lat="39.046745" lon="-3.850865">
<ele>666.5</ele>
<speed>22.9</speed>
<course>190.7</course>
<desc>Speed 22.9 km/h Distance 11.79 km</desc>
<time>2011-07-19T20:22:03.14</time>
<name>1996</name>
</trkpt>
<trkpt lat="39.046690" lon="-3.850878">
<ele>667.0</ele>
<speed>22.4</speed>
<course>191.4</course>
<desc>Speed 22.4 km/h Distance 11.80 km</desc>
<time>2011-07-19T20:22:04.14</time>
<name>1997</name>
</trkpt>
<trkpt lat="39.046638" lon="-3.850892">
<ele>667.0</ele>
<speed>21.9</speed>
<course>189.7</course>
<desc>Speed 21.9 km/h Distance 11.80 km</desc>
<time>2011-07-19T20:22:05.14</time>
<name>1998</name>
</trkpt>
<trkpt lat="39.046585" lon="-3.850903">
<ele>667.0</ele>
<speed>21.3</speed>
<course>191.3</course>
<desc>Speed 21.3 km/h Distance 11.81 km</desc>
<time>2011-07-19T20:22:06.14</time>
<name>1999</name>
</trkpt>
<trkpt lat="39.046533" lon="-3.850917">
<ele>667.0</ele>
<speed>21.0</speed>
<course>190.0</course>
<desc>Speed 21.0 km/h Distance 11.82 km</desc>
<time>2011-07-19T20:22:07.14</time>
<name>2000</name>
</trkpt>
<trkpt lat="39.046482" lon="-3.850928">
<ele>667.5</ele>
<speed>20.6</speed>
<course>191.7</course>
<desc>Speed 20.6 km/h Distance 11.82 km</desc>
<time>2011-07-19T20:22:08.14</time>
<name>2001</name>
</trkpt>
<trkpt lat="39.046432" lon="-3.850942">
<ele>667.5</ele>
<speed>20.3</speed>
<course>188.8</course>
<desc>Speed 20.3 km/h Distance 11.83 km</desc>
<time>2011-07-19T20:22:09.14</time>
<name>2002</name>
</trkpt>
<trkpt lat="39.046382" lon="-3.850952">
<ele>667.5</ele>
<speed>20.2</speed>
<course>188.8</course>
<desc>Speed 20.2 km/h Distance 11.83 km</desc>
<time>2011-07-19T20:22:10.14</time>
<name>2003</name>
</trkpt>
<trkpt lat="39.046332" lon="-3.850962">
<ele>668.0</ele>
<speed>20.1</speed>
<course>189.2</course>
<desc>Speed 20.1 km/h Distance 11.84 km</desc>
<time>2011-07-19T20:22:11.14</time>
<name>2004</name>
</trkpt>
<trkpt lat="39.046283" lon="-3.850972">
<ele>668.0</ele>
<speed>19.7</speed>
<course>187.5</course>
<desc>Speed 19.7 km/h Distance 11.84 km</desc>
<time>2011-07-19T20:22:12.14</time>
<name>2005</name>
</trkpt>
<trkpt lat="39.046235" lon="-3.850980">
<ele>668.0</ele>
<speed>19.8</speed>
<course>187.3</course>
<desc>Speed 19.8 km/h Distance 11.85 km</desc>
<time>2011-07-19T20:22:13.14</time>
<name>2006</name>
</trkpt>
<trkpt lat="39.046185" lon="-3.850988">
<ele>668.0</ele>
<speed>20.1</speed>
<course>190.6</course>
<desc>Speed 20.1 km/h Distance 11.85 km</desc>
<time>2011-07-19T20:22:14.13</time>
<name>2007</name>
</trkpt>
<trkpt lat="39.046137" lon="-3.851000">
<ele>668.0</ele>
<speed>20.0</speed>
<course>188.8</course>
<desc>Speed 20.0 km/h Distance 11.86 km</desc>
<time>2011-07-19T20:22:15.14</time>
<name>2008</name>
</trkpt>
<trkpt lat="39.046087" lon="-3.851010">
<ele>668.0</ele>
<speed>20.0</speed>
<course>187.6</course>
<desc>Speed 20.0 km/h Distance 11.87 km</desc>
<time>2011-07-19T20:22:16.14</time>
<name>2009</name>
</trkpt>
<trkpt lat="39.046038" lon="-3.851018">
<ele>668.0</ele>
<speed>19.8</speed>
<course>190.3</course>
<desc>Speed 19.8 km/h Distance 11.87 km</desc>
<time>2011-07-19T20:22:17.14</time>
<name>2010</name>
</trkpt>
<trkpt lat="39.045988" lon="-3.851030">
<ele>668.0</ele>
<speed>20.2</speed>
<course>191.7</course>
<desc>Speed 20.2 km/h Distance 11.88 km</desc>
<time>2011-07-19T20:22:18.14</time>
<name>2011</name>
</trkpt>
<trkpt lat="39.045938" lon="-3.851043">
<ele>668.0</ele>
<speed>20.6</speed>
<course>195.0</course>
<desc>Speed 20.6 km/h Distance 11.88 km</desc>
<time>2011-07-19T20:22:19.14</time>
<name>2012</name>
</trkpt>
<trkpt lat="39.045890" lon="-3.851060">
<ele>668.5</ele>
<speed>20.0</speed>
<course>204.5</course>
<desc>Speed 20.0 km/h Distance 11.89 km</desc>
<time>2011-07-19T20:22:20.14</time>
<name>2013</name>
</trkpt>
<trkpt lat="39.045842" lon="-3.851088">
<ele>669.0</ele>
<speed>21.1</speed>
<course>223.3</course>
<desc>Speed 21.1 km/h Distance 11.89 km</desc>
<time>2011-07-19T20:22:21.14</time>
<name>2014</name>
</trkpt>
<trkpt lat="39.045787" lon="-3.851155">
<ele>669.5</ele>
<speed>19.4</speed>
<course>210.6</course>
<desc>Speed 19.4 km/h Distance 11.90 km</desc>
<time>2011-07-19T20:22:23.14</time>
<name>2015</name>
</trkpt>
<trkpt lat="39.045745" lon="-3.851187">
<ele>670.0</ele>
<speed>19.2</speed>
<course>215.4</course>
<desc>Speed 19.2 km/h Distance 11.91 km</desc>
<time>2011-07-19T20:22:24.14</time>
<name>2016</name>
</trkpt>
<trkpt lat="39.045705" lon="-3.851223">
<ele>670.5</ele>
<speed>19.7</speed>
<course>223.0</course>
<desc>Speed 19.7 km/h Distance 11.91 km</desc>
<time>2011-07-19T20:22:25.14</time>
<name>2017</name>
</trkpt>
<trkpt lat="39.045672" lon="-3.851263">
<ele>670.5</ele>
<speed>18.0</speed>
<course>217.8</course>
<desc>Speed 18.0 km/h Distance 11.92 km</desc>
<time>2011-07-19T20:22:26.13</time>
<name>2018</name>
</trkpt>
<trkpt lat="39.045637" lon="-3.851298">
<ele>671.0</ele>
<speed>18.2</speed>
<course>216.5</course>
<desc>Speed 18.2 km/h Distance 11.92 km</desc>
<time>2011-07-19T20:22:27.14</time>
<name>2019</name>
</trkpt>
<trkpt lat="39.045602" lon="-3.851332">
<ele>670.5</ele>
<speed>17.4</speed>
<course>210.6</course>
<desc>Speed 17.4 km/h Distance 11.93 km</desc>
<time>2011-07-19T20:22:28.14</time>
<name>2020</name>
</trkpt>
<trkpt lat="39.045567" lon="-3.851358">
<ele>670.5</ele>
<speed>17.2</speed>
<course>209.0</course>
<desc>Speed 17.2 km/h Distance 11.93 km</desc>
<time>2011-07-19T20:22:29.14</time>
<name>2021</name>
</trkpt>
<trkpt lat="39.045532" lon="-3.851383">
<ele>670.5</ele>
<speed>16.4</speed>
<course>208.6</course>
<desc>Speed 16.4 km/h Distance 11.94 km</desc>
<time>2011-07-19T20:22:30.14</time>
<name>2022</name>
</trkpt>
<trkpt lat="39.045498" lon="-3.851407">
<ele>670.5</ele>
<speed>15.9</speed>
<course>206.8</course>
<desc>Speed 15.9 km/h Distance 11.94 km</desc>
<time>2011-07-19T20:22:31.14</time>
<name>2023</name>
</trkpt>
<trkpt lat="39.045465" lon="-3.851428">
<ele>671.0</ele>
<speed>14.9</speed>
<course>207.4</course>
<desc>Speed 14.9 km/h Distance 11.95 km</desc>
<time>2011-07-19T20:22:32.14</time>
<name>2024</name>
</trkpt>
<trkpt lat="39.045430" lon="-3.851452">
<ele>671.0</ele>
<speed>15.5</speed>
<course>207.4</course>
<desc>Speed 15.5 km/h Distance 11.95 km</desc>
<time>2011-07-19T20:22:33.13</time>
<name>2025</name>
</trkpt>
<trkpt lat="39.045395" lon="-3.851475">
<ele>671.0</ele>
<speed>15.7</speed>
<course>211.9</course>
<desc>Speed 15.7 km/h Distance 11.95 km</desc>
<time>2011-07-19T20:22:34.13</time>
<name>2026</name>
</trkpt>
<trkpt lat="39.045362" lon="-3.851502">
<ele>671.0</ele>
<speed>16.0</speed>
<course>210.2</course>
<desc>Speed 16.0 km/h Distance 11.96 km</desc>
<time>2011-07-19T20:22:35.13</time>
<name>2027</name>
</trkpt>
<trkpt lat="39.045328" lon="-3.851527">
<ele>671.0</ele>
<speed>15.6</speed>
<course>207.9</course>
<desc>Speed 15.6 km/h Distance 11.96 km</desc>
<time>2011-07-19T20:22:36.14</time>
<name>2028</name>
</trkpt>
<trkpt lat="39.045292" lon="-3.851552">
<ele>671.5</ele>
<speed>16.1</speed>
<course>213.4</course>
<desc>Speed 16.1 km/h Distance 11.97 km</desc>
<time>2011-07-19T20:22:37.13</time>
<name>2029</name>
</trkpt>
<trkpt lat="39.045258" lon="-3.851580">
<ele>672.0</ele>
<speed>16.0</speed>
<course>217.8</course>
<desc>Speed 16.0 km/h Distance 11.97 km</desc>
<time>2011-07-19T20:22:38.13</time>
<name>2030</name>
</trkpt>
<trkpt lat="39.045230" lon="-3.851608">
<ele>672.0</ele>
<speed>14.4</speed>
<course>217.8</course>
<desc>Speed 14.4 km/h Distance 11.98 km</desc>
<time>2011-07-19T20:22:39.14</time>
<name>2031</name>
</trkpt>
<trkpt lat="39.045202" lon="-3.851637">
<ele>672.0</ele>
<speed>14.2</speed>
<course>214.6</course>
<desc>Speed 14.2 km/h Distance 11.98 km</desc>
<time>2011-07-19T20:22:40.16</time>
<name>2032</name>
</trkpt>
<trkpt lat="39.045172" lon="-3.851663">
<ele>672.0</ele>
<speed>14.8</speed>
<course>217.8</course>
<desc>Speed 14.8 km/h Distance 11.98 km</desc>
<time>2011-07-19T20:22:41.13</time>
<name>2033</name>
</trkpt>
<trkpt lat="39.045143" lon="-3.851692">
<ele>672.5</ele>
<speed>15.0</speed>
<course>219.6</course>
<desc>Speed 15.0 km/h Distance 11.99 km</desc>
<time>2011-07-19T20:22:42.14</time>
<name>2034</name>
</trkpt>
<trkpt lat="39.045118" lon="-3.851718">
<ele>672.5</ele>
<speed>13.6</speed>
<course>221.6</course>
<desc>Speed 13.6 km/h Distance 11.99 km</desc>
<time>2011-07-19T20:22:43.15</time>
<name>2035</name>
</trkpt>
<trkpt lat="39.045095" lon="-3.851745">
<ele>672.5</ele>
<speed>12.8</speed>
<course>217.9</course>
<desc>Speed 12.8 km/h Distance 11.99 km</desc>
<time>2011-07-19T20:22:44.13</time>
<name>2036</name>
</trkpt>
<trkpt lat="39.045072" lon="-3.851768">
<ele>673.0</ele>
<speed>12.0</speed>
<course>221.9</course>
<desc>Speed 12.0 km/h Distance 12.00 km</desc>
<time>2011-07-19T20:22:45.14</time>
<name>2037</name>
</trkpt>
<trkpt lat="39.045050" lon="-3.851793">
<ele>673.0</ele>
<speed>12.5</speed>
<course>222.2</course>
<desc>Speed 12.5 km/h Distance 12.00 km</desc>
<time>2011-07-19T20:22:46.13</time>
<name>2038</name>
</trkpt>
<trkpt lat="39.045030" lon="-3.851817">
<ele>673.5</ele>
<speed>11.0</speed>
<course>215.8</course>
<desc>Speed 11.0 km/h Distance 12.00 km</desc>
<time>2011-07-19T20:22:47.13</time>
<name>2039</name>
</trkpt>
<trkpt lat="39.045007" lon="-3.851838">
<ele>674.0</ele>
<speed>12.4</speed>
<course>219.8</course>
<desc>Speed 12.4 km/h Distance 12.01 km</desc>
<time>2011-07-19T20:22:48.14</time>
<name>2040</name>
</trkpt>
<trkpt lat="39.044983" lon="-3.851863">
<ele>674.0</ele>
<speed>12.8</speed>
<course>217.9</course>
<desc>Speed 12.8 km/h Distance 12.01 km</desc>
<time>2011-07-19T20:22:49.13</time>
<name>2041</name>
</trkpt>
<trkpt lat="39.044960" lon="-3.851887">
<ele>674.5</ele>
<speed>11.7</speed>
<course>215.6</course>
<desc>Speed 11.7 km/h Distance 12.01 km</desc>
<time>2011-07-19T20:22:50.13</time>
<name>2042</name>
</trkpt>
<trkpt lat="39.044938" lon="-3.851907">
<ele>674.5</ele>
<speed>10.8</speed>
<course>211.8</course>
<desc>Speed 10.8 km/h Distance 12.02 km</desc>
<time>2011-07-19T20:22:51.13</time>
<name>2043</name>
</trkpt>
<trkpt lat="39.044913" lon="-3.851927">
<ele>674.5</ele>
<speed>11.5</speed>
<course>210.2</course>
<desc>Speed 11.5 km/h Distance 12.02 km</desc>
<time>2011-07-19T20:22:52.13</time>
<name>2044</name>
</trkpt>
<trkpt lat="39.044887" lon="-3.851947">
<ele>675.0</ele>
<speed>12.5</speed>
<course>211.8</course>
<desc>Speed 12.5 km/h Distance 12.02 km</desc>
<time>2011-07-19T20:22:53.15</time>
<name>2045</name>
</trkpt>
<trkpt lat="39.044862" lon="-3.851967">
<ele>675.5</ele>
<speed>12.1</speed>
<course>211.8</course>
<desc>Speed 12.1 km/h Distance 12.03 km</desc>
<time>2011-07-19T20:22:54.13</time>
<name>2046</name>
</trkpt>
<trkpt lat="39.044837" lon="-3.851987">
<ele>675.5</ele>
<speed>11.4</speed>
<course>210.2</course>
<desc>Speed 11.4 km/h Distance 12.03 km</desc>
<time>2011-07-19T20:22:55.13</time>
<name>2047</name>
</trkpt>
<trkpt lat="39.044810" lon="-3.852007">
<ele>676.0</ele>
<speed>11.9</speed>
<course>213.9</course>
<desc>Speed 11.9 km/h Distance 12.03 km</desc>
<time>2011-07-19T20:22:56.13</time>
<name>2048</name>
</trkpt>
<trkpt lat="39.044785" lon="-3.852028">
<ele>676.5</ele>
<speed>11.7</speed>
<course>209.7</course>
<desc>Speed 11.7 km/h Distance 12.04 km</desc>
<time>2011-07-19T20:22:57.13</time>
<name>2049</name>
</trkpt>
<trkpt lat="39.044760" lon="-3.852047">
<ele>677.0</ele>
<speed>11.1</speed>
<course>207.4</course>
<desc>Speed 11.1 km/h Distance 12.04 km</desc>
<time>2011-07-19T20:22:58.13</time>
<name>2050</name>
</trkpt>
<trkpt lat="39.044735" lon="-3.852063">
<ele>677.5</ele>
<speed>11.5</speed>
<course>203.9</course>
<desc>Speed 11.5 km/h Distance 12.04 km</desc>
<time>2011-07-19T20:22:59.13</time>
<name>2051</name>
</trkpt>
<trkpt lat="39.044712" lon="-3.852077">
<ele>677.5</ele>
<speed>10.3</speed>
<course>202.5</course>
<desc>Speed 10.3 km/h Distance 12.05 km</desc>
<time>2011-07-19T20:23:00.13</time>
<name>2052</name>
</trkpt>
<trkpt lat="39.044687" lon="-3.852090">
<ele>677.5</ele>
<speed>10.9</speed>
<course>203.6</course>
<desc>Speed 10.9 km/h Distance 12.05 km</desc>
<time>2011-07-19T20:23:01.13</time>
<name>2053</name>
</trkpt>
<trkpt lat="39.044660" lon="-3.852105">
<ele>678.0</ele>
<speed>12.1</speed>
<course>209.0</course>
<desc>Speed 12.1 km/h Distance 12.05 km</desc>
<time>2011-07-19T20:23:02.14</time>
<name>2054</name>
</trkpt>
<trkpt lat="39.044637" lon="-3.852122">
<ele>678.5</ele>
<speed>10.3</speed>
<course>209.4</course>
<desc>Speed 10.3 km/h Distance 12.06 km</desc>
<time>2011-07-19T20:23:03.13</time>
<name>2055</name>
</trkpt>
<trkpt lat="39.044618" lon="-3.852135">
<ele>678.0</ele>
<speed>8.6</speed>
<course>202.5</course>
<desc>Speed 8.6 km/h Distance 12.06 km</desc>
<time>2011-07-19T20:23:04.14</time>
<name>2056</name>
</trkpt>
<trkpt lat="39.044593" lon="-3.852148">
<ele>678.5</ele>
<speed>10.3</speed>
<course>200.1</course>
<desc>Speed 10.3 km/h Distance 12.06 km</desc>
<time>2011-07-19T20:23:05.13</time>
<name>2057</name>
</trkpt>
<trkpt lat="39.044565" lon="-3.852162">
<ele>679.0</ele>
<speed>11.3</speed>
<course>198.4</course>
<desc>Speed 11.3 km/h Distance 12.06 km</desc>
<time>2011-07-19T20:23:06.13</time>
<name>2058</name>
</trkpt>
<trkpt lat="39.044542" lon="-3.852172">
<ele>679.0</ele>
<speed>8.7</speed>
<course>193.5</course>
<desc>Speed 8.7 km/h Distance 12.07 km</desc>
<time>2011-07-19T20:23:07.13</time>
<name>2059</name>
</trkpt>
<trkpt lat="39.044515" lon="-3.852180">
<ele>680.0</ele>
<speed>10.7</speed>
<course>196.3</course>
<desc>Speed 10.7 km/h Distance 12.07 km</desc>
<time>2011-07-19T20:23:08.13</time>
<name>2060</name>
</trkpt>
<trkpt lat="39.044488" lon="-3.852190">
<ele>680.0</ele>
<speed>10.8</speed>
<course>200.1</course>
<desc>Speed 10.8 km/h Distance 12.07 km</desc>
<time>2011-07-19T20:23:09.13</time>
<name>2061</name>
</trkpt>
<trkpt lat="39.044463" lon="-3.852202">
<ele>680.5</ele>
<speed>9.9</speed>
<course>200.0</course>
<desc>Speed 9.9 km/h Distance 12.08 km</desc>
<time>2011-07-19T20:23:10.13</time>
<name>2062</name>
</trkpt>
<trkpt lat="39.044438" lon="-3.852213">
<ele>681.0</ele>
<speed>10.0</speed>
<course>201.2</course>
<desc>Speed 10.0 km/h Distance 12.08 km</desc>
<time>2011-07-19T20:23:11.14</time>
<name>2063</name>
</trkpt>
<trkpt lat="39.044415" lon="-3.852225">
<ele>681.5</ele>
<speed>9.3</speed>
<course>203.9</course>
<desc>Speed 9.3 km/h Distance 12.08 km</desc>
<time>2011-07-19T20:23:12.13</time>
<name>2064</name>
</trkpt>
<trkpt lat="39.044392" lon="-3.852238">
<ele>682.0</ele>
<speed>9.1</speed>
<course>210.2</course>
<desc>Speed 9.1 km/h Distance 12.08 km</desc>
<time>2011-07-19T20:23:13.13</time>
<name>2065</name>
</trkpt>
<trkpt lat="39.044372" lon="-3.852253">
<ele>682.0</ele>
<speed>9.3</speed>
<course>208.3</course>
<desc>Speed 9.3 km/h Distance 12.09 km</desc>
<time>2011-07-19T20:23:14.13</time>
<name>2066</name>
</trkpt>
<trkpt lat="39.044350" lon="-3.852268">
<ele>682.5</ele>
<speed>9.6</speed>
<course>202.5</course>
<desc>Speed 9.6 km/h Distance 12.09 km</desc>
<time>2011-07-19T20:23:15.13</time>
<name>2067</name>
</trkpt>
<trkpt lat="39.044325" lon="-3.852282">
<ele>683.0</ele>
<speed>9.5</speed>
<course>203.9</course>
<desc>Speed 9.5 km/h Distance 12.09 km</desc>
<time>2011-07-19T20:23:16.13</time>
<name>2068</name>
</trkpt>
<trkpt lat="39.044302" lon="-3.852295">
<ele>683.0</ele>
<speed>9.9</speed>
<course>201.3</course>
<desc>Speed 9.9 km/h Distance 12.10 km</desc>
<time>2011-07-19T20:23:17.13</time>
<name>2069</name>
</trkpt>
<trkpt lat="39.044278" lon="-3.852307">
<ele>683.5</ele>
<speed>9.8</speed>
<course>198.4</course>
<desc>Speed 9.8 km/h Distance 12.10 km</desc>
<time>2011-07-19T20:23:18.13</time>
<name>2070</name>
</trkpt>
<trkpt lat="39.044255" lon="-3.852317">
<ele>684.0</ele>
<speed>9.7</speed>
<course>207.4</course>
<desc>Speed 9.7 km/h Distance 12.10 km</desc>
<time>2011-07-19T20:23:19.13</time>
<name>2071</name>
</trkpt>
<trkpt lat="39.044235" lon="-3.852330">
<ele>684.0</ele>
<speed>8.2</speed>
<course>211.9</course>
<desc>Speed 8.2 km/h Distance 12.10 km</desc>
<time>2011-07-19T20:23:20.14</time>
<name>2072</name>
</trkpt>
<trkpt lat="39.044218" lon="-3.852343">
<ele>684.5</ele>
<speed>8.1</speed>
<course>203.9</course>
<desc>Speed 8.1 km/h Distance 12.11 km</desc>
<time>2011-07-19T20:23:21.14</time>
<name>2073</name>
</trkpt>
<trkpt lat="39.044195" lon="-3.852357">
<ele>685.0</ele>
<speed>9.7</speed>
<course>205.5</course>
<desc>Speed 9.7 km/h Distance 12.11 km</desc>
<time>2011-07-19T20:23:22.13</time>
<name>2074</name>
</trkpt>
<trkpt lat="39.044173" lon="-3.852370">
<ele>685.5</ele>
<speed>9.2</speed>
<course>205.5</course>
<desc>Speed 9.2 km/h Distance 12.11 km</desc>
<time>2011-07-19T20:23:23.14</time>
<name>2075</name>
</trkpt>
<trkpt lat="39.044152" lon="-3.852383">
<ele>686.0</ele>
<speed>9.2</speed>
<course>205.5</course>
<desc>Speed 9.2 km/h Distance 12.11 km</desc>
<time>2011-07-19T20:23:24.13</time>
<name>2076</name>
</trkpt>
<trkpt lat="39.044130" lon="-3.852397">
<ele>686.5</ele>
<speed>9.1</speed>
<course>208.3</course>
<desc>Speed 9.1 km/h Distance 12.12 km</desc>
<time>2011-07-19T20:23:25.13</time>
<name>2077</name>
</trkpt>
<trkpt lat="39.044108" lon="-3.852412">
<ele>687.0</ele>
<speed>9.7</speed>
<course>209.0</course>
<desc>Speed 9.7 km/h Distance 12.12 km</desc>
<time>2011-07-19T20:23:26.13</time>
<name>2078</name>
</trkpt>
<trkpt lat="39.044085" lon="-3.852428">
<ele>687.5</ele>
<speed>9.6</speed>
<course>210.9</course>
<desc>Speed 9.6 km/h Distance 12.12 km</desc>
<time>2011-07-19T20:23:27.13</time>
<name>2079</name>
</trkpt>
<trkpt lat="39.044063" lon="-3.852445">
<ele>688.0</ele>
<speed>9.5</speed>
<course>215.5</course>
<desc>Speed 9.5 km/h Distance 12.13 km</desc>
<time>2011-07-19T20:23:28.13</time>
<name>2080</name>
</trkpt>
<trkpt lat="39.044043" lon="-3.852463">
<ele>688.0</ele>
<speed>9.5</speed>
<course>220.1</course>
<desc>Speed 9.5 km/h Distance 12.13 km</desc>
<time>2011-07-19T20:23:29.13</time>
<name>2081</name>
</trkpt>
<trkpt lat="39.044023" lon="-3.852485">
<ele>688.5</ele>
<speed>10.2</speed>
<course>224.7</course>
<desc>Speed 10.2 km/h Distance 12.13 km</desc>
<time>2011-07-19T20:23:30.13</time>
<name>2082</name>
</trkpt>
<trkpt lat="39.044005" lon="-3.852508">
<ele>689.0</ele>
<speed>9.8</speed>
<course>224.7</course>
<desc>Speed 9.8 km/h Distance 12.13 km</desc>
<time>2011-07-19T20:23:31.13</time>
<name>2083</name>
</trkpt>
<trkpt lat="39.043987" lon="-3.852532">
<ele>689.0</ele>
<speed>9.9</speed>
<course>220.3</course>
<desc>Speed 9.9 km/h Distance 12.14 km</desc>
<time>2011-07-19T20:23:32.13</time>
<name>2084</name>
</trkpt>
<trkpt lat="39.043968" lon="-3.852552">
<ele>689.5</ele>
<speed>9.4</speed>
<course>223.0</course>
<desc>Speed 9.4 km/h Distance 12.14 km</desc>
<time>2011-07-19T20:23:33.13</time>
<name>2085</name>
</trkpt>
<trkpt lat="39.043952" lon="-3.852572">
<ele>689.5</ele>
<speed>9.0</speed>
<course>220.3</course>
<desc>Speed 9.0 km/h Distance 12.14 km</desc>
<time>2011-07-19T20:23:34.14</time>
<name>2086</name>
</trkpt>
<trkpt lat="39.043933" lon="-3.852592">
<ele>690.0</ele>
<speed>9.1</speed>
<course>220.3</course>
<desc>Speed 9.1 km/h Distance 12.14 km</desc>
<time>2011-07-19T20:23:35.13</time>
<name>2087</name>
</trkpt>
<trkpt lat="39.043915" lon="-3.852612">
<ele>690.0</ele>
<speed>9.3</speed>
<course>217.9</course>
<desc>Speed 9.3 km/h Distance 12.15 km</desc>
<time>2011-07-19T20:23:36.13</time>
<name>2088</name>
</trkpt>
<trkpt lat="39.043897" lon="-3.852630">
<ele>690.0</ele>
<speed>8.8</speed>
<course>217.8</course>
<desc>Speed 8.8 km/h Distance 12.15 km</desc>
<time>2011-07-19T20:23:37.13</time>
<name>2089</name>
</trkpt>
<trkpt lat="39.043878" lon="-3.852648">
<ele>690.5</ele>
<speed>8.7</speed>
<course>215.2</course>
<desc>Speed 8.7 km/h Distance 12.15 km</desc>
<time>2011-07-19T20:23:38.13</time>
<name>2090</name>
</trkpt>
<trkpt lat="39.043860" lon="-3.852665">
<ele>691.0</ele>
<speed>8.5</speed>
<course>212.9</course>
<desc>Speed 8.5 km/h Distance 12.16 km</desc>
<time>2011-07-19T20:23:39.13</time>
<name>2091</name>
</trkpt>
<trkpt lat="39.043840" lon="-3.852682">
<ele>691.0</ele>
<speed>8.9</speed>
<course>208.2</course>
<desc>Speed 8.9 km/h Distance 12.16 km</desc>
<time>2011-07-19T20:23:40.15</time>
<name>2092</name>
</trkpt>
<trkpt lat="39.043818" lon="-3.852697">
<ele>691.5</ele>
<speed>8.9</speed>
<course>210.2</course>
<desc>Speed 8.9 km/h Distance 12.16 km</desc>
<time>2011-07-19T20:23:41.13</time>
<name>2093</name>
</trkpt>
<trkpt lat="39.043798" lon="-3.852712">
<ele>691.5</ele>
<speed>9.2</speed>
<course>210.9</course>
<desc>Speed 9.2 km/h Distance 12.16 km</desc>
<time>2011-07-19T20:23:42.13</time>
<name>2094</name>
</trkpt>
<trkpt lat="39.043777" lon="-3.852728">
<ele>691.5</ele>
<speed>9.5</speed>
<course>215.3</course>
<desc>Speed 9.5 km/h Distance 12.17 km</desc>
<time>2011-07-19T20:23:43.13</time>
<name>2095</name>
</trkpt>
<trkpt lat="39.043758" lon="-3.852745">
<ele>692.0</ele>
<speed>8.8</speed>
<course>214.9</course>
<desc>Speed 8.8 km/h Distance 12.17 km</desc>
<time>2011-07-19T20:23:44.13</time>
<name>2096</name>
</trkpt>
<trkpt lat="39.043742" lon="-3.852760">
<ele>692.0</ele>
<speed>8.0</speed>
<course>209.4</course>
<desc>Speed 8.0 km/h Distance 12.17 km</desc>
<time>2011-07-19T20:23:45.13</time>
<name>2097</name>
</trkpt>
<trkpt lat="39.043723" lon="-3.852773">
<ele>692.0</ele>
<speed>8.4</speed>
<course>208.3</course>
<desc>Speed 8.4 km/h Distance 12.17 km</desc>
<time>2011-07-19T20:23:46.13</time>
<name>2098</name>
</trkpt>
<trkpt lat="39.043702" lon="-3.852788">
<ele>692.0</ele>
<speed>9.4</speed>
<course>213.3</course>
<desc>Speed 9.4 km/h Distance 12.18 km</desc>
<time>2011-07-19T20:23:47.13</time>
<name>2099</name>
</trkpt>
<trkpt lat="39.043680" lon="-3.852807">
<ele>692.5</ele>
<speed>10.0</speed>
<course>203.9</course>
<desc>Speed 10.0 km/h Distance 12.18 km</desc>
<time>2011-07-19T20:23:48.13</time>
<name>2100</name>
</trkpt>
<trkpt lat="39.043657" lon="-3.852820">
<ele>692.5</ele>
<speed>10.1</speed>
<course>203.9</course>
<desc>Speed 10.1 km/h Distance 12.18 km</desc>
<time>2011-07-19T20:23:49.13</time>
<name>2101</name>
</trkpt>
<trkpt lat="39.043633" lon="-3.852833">
<ele>692.5</ele>
<speed>10.7</speed>
<course>204.9</course>
<desc>Speed 10.7 km/h Distance 12.18 km</desc>
<time>2011-07-19T20:23:50.13</time>
<name>2102</name>
</trkpt>
<trkpt lat="39.043608" lon="-3.852848">
<ele>692.5</ele>
<speed>11.1</speed>
<course>202.5</course>
<desc>Speed 11.1 km/h Distance 12.19 km</desc>
<time>2011-07-19T20:23:51.13</time>
<name>2103</name>
</trkpt>
<trkpt lat="39.043583" lon="-3.852862">
<ele>692.0</ele>
<speed>11.0</speed>
<course>196.3</course>
<desc>Speed 11.0 km/h Distance 12.19 km</desc>
<time>2011-07-19T20:23:52.13</time>
<name>2104</name>
</trkpt>
<trkpt lat="39.043557" lon="-3.852872">
<ele>692.0</ele>
<speed>11.1</speed>
<course>188.0</course>
<desc>Speed 11.1 km/h Distance 12.19 km</desc>
<time>2011-07-19T20:23:53.13</time>
<name>2105</name>
</trkpt>
<trkpt lat="39.043528" lon="-3.852877">
<ele>692.5</ele>
<speed>11.3</speed>
<course>178.8</course>
<desc>Speed 11.3 km/h Distance 12.20 km</desc>
<time>2011-07-19T20:23:54.13</time>
<name>2106</name>
</trkpt>
<trkpt lat="39.043502" lon="-3.852877">
<ele>692.0</ele>
<speed>10.8</speed>
<course>178.6</course>
<desc>Speed 10.8 km/h Distance 12.20 km</desc>
<time>2011-07-19T20:23:55.13</time>
<name>2107</name>
</trkpt>
<trkpt lat="39.043473" lon="-3.852875">
<ele>692.0</ele>
<speed>11.4</speed>
<course>175.3</course>
<desc>Speed 11.4 km/h Distance 12.20 km</desc>
<time>2011-07-19T20:23:56.13</time>
<name>2108</name>
</trkpt>
<trkpt lat="39.043443" lon="-3.852872">
<ele>692.0</ele>
<speed>12.0</speed>
<course>175.0</course>
<desc>Speed 12.0 km/h Distance 12.21 km</desc>
<time>2011-07-19T20:23:57.13</time>
<name>2109</name>
</trkpt>
<trkpt lat="39.043413" lon="-3.852868">
<ele>691.5</ele>
<speed>12.4</speed>
<course>178.1</course>
<desc>Speed 12.4 km/h Distance 12.21 km</desc>
<time>2011-07-19T20:23:58.13</time>
<name>2110</name>
</trkpt>
<trkpt lat="39.043383" lon="-3.852867">
<ele>691.5</ele>
<speed>12.3</speed>
<course>179.1</course>
<desc>Speed 12.3 km/h Distance 12.21 km</desc>
<time>2011-07-19T20:23:59.13</time>
<name>2111</name>
</trkpt>
<trkpt lat="39.043352" lon="-3.852867">
<ele>691.5</ele>
<speed>12.4</speed>
<course>177.7</course>
<desc>Speed 12.4 km/h Distance 12.22 km</desc>
<time>2011-07-19T20:24:00.13</time>
<name>2112</name>
</trkpt>
<trkpt lat="39.043320" lon="-3.852865">
<ele>691.5</ele>
<speed>12.6</speed>
<course>182.3</course>
<desc>Speed 12.6 km/h Distance 12.22 km</desc>
<time>2011-07-19T20:24:01.13</time>
<name>2113</name>
</trkpt>
<trkpt lat="39.043288" lon="-3.852867">
<ele>691.0</ele>
<speed>13.0</speed>
<course>181.7</course>
<desc>Speed 13.0 km/h Distance 12.22 km</desc>
<time>2011-07-19T20:24:02.13</time>
<name>2114</name>
</trkpt>
<trkpt lat="39.043252" lon="-3.852868">
<ele>691.0</ele>
<speed>14.3</speed>
<course>186.0</course>
<desc>Speed 14.3 km/h Distance 12.23 km</desc>
<time>2011-07-19T20:24:03.13</time>
<name>2115</name>
</trkpt>
<trkpt lat="39.043213" lon="-3.852873">
<ele>691.0</ele>
<speed>15.0</speed>
<course>187.4</course>
<desc>Speed 15.0 km/h Distance 12.23 km</desc>
<time>2011-07-19T20:24:04.13</time>
<name>2116</name>
</trkpt>
<trkpt lat="39.043173" lon="-3.852880">
<ele>690.5</ele>
<speed>16.1</speed>
<course>190.5</course>
<desc>Speed 16.1 km/h Distance 12.24 km</desc>
<time>2011-07-19T20:24:05.13</time>
<name>2117</name>
</trkpt>
<trkpt lat="39.043132" lon="-3.852890">
<ele>690.5</ele>
<speed>17.0</speed>
<course>193.4</course>
<desc>Speed 17.0 km/h Distance 12.24 km</desc>
<time>2011-07-19T20:24:06.13</time>
<name>2118</name>
</trkpt>
<trkpt lat="39.043088" lon="-3.852903">
<ele>690.0</ele>
<speed>17.6</speed>
<course>192.5</course>
<desc>Speed 17.6 km/h Distance 12.25 km</desc>
<time>2011-07-19T20:24:07.13</time>
<name>2119</name>
</trkpt>
<trkpt lat="39.043042" lon="-3.852917">
<ele>690.5</ele>
<speed>18.2</speed>
<course>196.9</course>
<desc>Speed 18.2 km/h Distance 12.25 km</desc>
<time>2011-07-19T20:24:08.13</time>
<name>2120</name>
</trkpt>
<trkpt lat="39.042995" lon="-3.852935">
<ele>690.5</ele>
<speed>18.6</speed>
<course>197.0</course>
<desc>Speed 18.6 km/h Distance 12.26 km</desc>
<time>2011-07-19T20:24:09.13</time>
<name>2121</name>
</trkpt>
<trkpt lat="39.042948" lon="-3.852953">
<ele>690.5</ele>
<speed>18.9</speed>
<course>199.1</course>
<desc>Speed 18.9 km/h Distance 12.26 km</desc>
<time>2011-07-19T20:24:10.13</time>
<name>2122</name>
</trkpt>
<trkpt lat="39.042903" lon="-3.852973">
<ele>690.5</ele>
<speed>19.0</speed>
<course>201.2</course>
<desc>Speed 19.0 km/h Distance 12.27 km</desc>
<time>2011-07-19T20:24:11.13</time>
<name>2123</name>
</trkpt>
<trkpt lat="39.042860" lon="-3.852995">
<ele>690.5</ele>
<speed>18.8</speed>
<course>199.0</course>
<desc>Speed 18.8 km/h Distance 12.27 km</desc>
<time>2011-07-19T20:24:12.13</time>
<name>2124</name>
</trkpt>
<trkpt lat="39.042815" lon="-3.853015">
<ele>690.5</ele>
<speed>18.5</speed>
<course>195.0</course>
<desc>Speed 18.5 km/h Distance 12.28 km</desc>
<time>2011-07-19T20:24:13.13</time>
<name>2125</name>
</trkpt>
<trkpt lat="39.042772" lon="-3.853030">
<ele>690.0</ele>
<speed>18.1</speed>
<course>187.8</course>
<desc>Speed 18.1 km/h Distance 12.28 km</desc>
<time>2011-07-19T20:24:14.13</time>
<name>2126</name>
</trkpt>
<trkpt lat="39.042725" lon="-3.853038">
<ele>690.5</ele>
<speed>18.8</speed>
<course>181.5</course>
<desc>Speed 18.8 km/h Distance 12.29 km</desc>
<time>2011-07-19T20:24:15.13</time>
<name>2127</name>
</trkpt>
<trkpt lat="39.042680" lon="-3.853040">
<ele>690.5</ele>
<speed>17.7</speed>
<course>180.0</course>
<desc>Speed 17.7 km/h Distance 12.29 km</desc>
<time>2011-07-19T20:24:16.13</time>
<name>2128</name>
</trkpt>
<trkpt lat="39.042637" lon="-3.853040">
<ele>690.5</ele>
<speed>17.4</speed>
<course>180.0</course>
<desc>Speed 17.4 km/h Distance 12.30 km</desc>
<time>2011-07-19T20:24:17.13</time>
<name>2129</name>
</trkpt>
<trkpt lat="39.042593" lon="-3.853040">
<ele>690.5</ele>
<speed>17.0</speed>
<course>179.4</course>
<desc>Speed 17.0 km/h Distance 12.30 km</desc>
<time>2011-07-19T20:24:18.13</time>
<name>2130</name>
</trkpt>
<trkpt lat="39.042552" lon="-3.853040">
<ele>690.0</ele>
<speed>16.6</speed>
<course>177.9</course>
<desc>Speed 16.6 km/h Distance 12.31 km</desc>
<time>2011-07-19T20:24:19.13</time>
<name>2131</name>
</trkpt>
<trkpt lat="39.042512" lon="-3.853038">
<ele>690.0</ele>
<speed>15.8</speed>
<course>178.8</course>
<desc>Speed 15.8 km/h Distance 12.31 km</desc>
<time>2011-07-19T20:24:20.13</time>
<name>2132</name>
</trkpt>
<trkpt lat="39.042472" lon="-3.853038">
<ele>690.0</ele>
<speed>16.3</speed>
<course>181.7</course>
<desc>Speed 16.3 km/h Distance 12.32 km</desc>
<time>2011-07-19T20:24:21.13</time>
<name>2133</name>
</trkpt>
<trkpt lat="39.042432" lon="-3.853040">
<ele>690.0</ele>
<speed>16.2</speed>
<course>181.8</course>
<desc>Speed 16.2 km/h Distance 12.32 km</desc>
<time>2011-07-19T20:24:22.13</time>
<name>2134</name>
</trkpt>
<trkpt lat="39.042390" lon="-3.853042">
<ele>690.0</ele>
<speed>16.7</speed>
<course>185.0</course>
<desc>Speed 16.7 km/h Distance 12.33 km</desc>
<time>2011-07-19T20:24:23.13</time>
<name>2135</name>
</trkpt>
<trkpt lat="39.042347" lon="-3.853047">
<ele>689.5</ele>
<speed>17.5</speed>
<course>186.5</course>
<desc>Speed 17.5 km/h Distance 12.33 km</desc>
<time>2011-07-19T20:24:24.13</time>
<name>2136</name>
</trkpt>
<trkpt lat="39.042302" lon="-3.853053">
<ele>689.5</ele>
<speed>18.1</speed>
<course>188.2</course>
<desc>Speed 18.1 km/h Distance 12.34 km</desc>
<time>2011-07-19T20:24:25.13</time>
<name>2137</name>
</trkpt>
<trkpt lat="39.042257" lon="-3.853062">
<ele>689.5</ele>
<speed>18.4</speed>
<course>195.6</course>
<desc>Speed 18.4 km/h Distance 12.34 km</desc>
<time>2011-07-19T20:24:26.13</time>
<name>2138</name>
</trkpt>
<trkpt lat="39.042215" lon="-3.853077">
<ele>689.5</ele>
<speed>17.9</speed>
<course>193.9</course>
<desc>Speed 17.9 km/h Distance 12.35 km</desc>
<time>2011-07-19T20:24:27.13</time>
<name>2139</name>
</trkpt>
<trkpt lat="39.042173" lon="-3.853090">
<ele>689.0</ele>
<speed>17.2</speed>
<course>192.2</course>
<desc>Speed 17.2 km/h Distance 12.35 km</desc>
<time>2011-07-19T20:24:28.13</time>
<name>2140</name>
</trkpt>
<trkpt lat="39.042132" lon="-3.853102">
<ele>689.0</ele>
<speed>17.2</speed>
<course>191.0</course>
<desc>Speed 17.2 km/h Distance 12.35 km</desc>
<time>2011-07-19T20:24:29.13</time>
<name>2141</name>
</trkpt>
<trkpt lat="39.042092" lon="-3.853112">
<ele>689.0</ele>
<speed>16.7</speed>
<course>183.1</course>
<desc>Speed 16.7 km/h Distance 12.36 km</desc>
<time>2011-07-19T20:24:30.13</time>
<name>2142</name>
</trkpt>
<trkpt lat="39.042047" lon="-3.853115">
<ele>689.0</ele>
<speed>18.0</speed>
<course>171.6</course>
<desc>Speed 18.0 km/h Distance 12.36 km</desc>
<time>2011-07-19T20:24:31.13</time>
<name>2143</name>
</trkpt>
<trkpt lat="39.042003" lon="-3.853107">
<ele>689.0</ele>
<speed>18.1</speed>
<course>168.2</course>
<desc>Speed 18.1 km/h Distance 12.37 km</desc>
<time>2011-07-19T20:24:32.13</time>
<name>2144</name>
</trkpt>
<trkpt lat="39.041960" lon="-3.853095">
<ele>689.0</ele>
<speed>17.9</speed>
<course>166.6</course>
<desc>Speed 17.9 km/h Distance 12.37 km</desc>
<time>2011-07-19T20:24:33.13</time>
<name>2145</name>
</trkpt>
<trkpt lat="39.041917" lon="-3.853082">
<ele>688.5</ele>
<speed>17.9</speed>
<course>166.5</course>
<desc>Speed 17.9 km/h Distance 12.38 km</desc>
<time>2011-07-19T20:24:34.13</time>
<name>2146</name>
</trkpt>
<trkpt lat="39.041873" lon="-3.853068">
<ele>688.5</ele>
<speed>18.0</speed>
<course>161.1</course>
<desc>Speed 18.0 km/h Distance 12.38 km</desc>
<time>2011-07-19T20:24:35.13</time>
<name>2147</name>
</trkpt>
<trkpt lat="39.041832" lon="-3.853050">
<ele>688.0</ele>
<speed>18.2</speed>
<course>153.7</course>
<desc>Speed 18.2 km/h Distance 12.39 km</desc>
<time>2011-07-19T20:24:36.13</time>
<name>2148</name>
</trkpt>
<trkpt lat="39.041795" lon="-3.853027">
<ele>687.5</ele>
<speed>16.6</speed>
<course>160.2</course>
<desc>Speed 16.6 km/h Distance 12.39 km</desc>
<time>2011-07-19T20:24:37.13</time>
<name>2149</name>
</trkpt>
<trkpt lat="39.041748" lon="-3.853005">
<ele>687.0</ele>
<speed>20.4</speed>
<course>160.8</course>
<desc>Speed 20.4 km/h Distance 12.40 km</desc>
<time>2011-07-19T20:24:38.13</time>
<name>2150</name>
</trkpt>
<trkpt lat="39.041700" lon="-3.852983">
<ele>686.5</ele>
<speed>20.8</speed>
<course>160.8</course>
<desc>Speed 20.8 km/h Distance 12.40 km</desc>
<time>2011-07-19T20:24:39.13</time>
<name>2151</name>
</trkpt>
<trkpt lat="39.041652" lon="-3.852962">
<ele>686.5</ele>
<speed>21.3</speed>
<course>161.4</course>
<desc>Speed 21.3 km/h Distance 12.41 km</desc>
<time>2011-07-19T20:24:40.15</time>
<name>2152</name>
</trkpt>
<trkpt lat="39.041602" lon="-3.852940">
<ele>686.0</ele>
<speed>22.0</speed>
<course>168.0</course>
<desc>Speed 22.0 km/h Distance 12.42 km</desc>
<time>2011-07-19T20:24:41.13</time>
<name>2153</name>
</trkpt>
<trkpt lat="39.041547" lon="-3.852925">
<ele>686.0</ele>
<speed>22.4</speed>
<course>170.6</course>
<desc>Speed 22.4 km/h Distance 12.42 km</desc>
<time>2011-07-19T20:24:42.13</time>
<name>2154</name>
</trkpt>
<trkpt lat="39.041492" lon="-3.852913">
<ele>685.5</ele>
<speed>22.5</speed>
<course>174.8</course>
<desc>Speed 22.5 km/h Distance 12.43 km</desc>
<time>2011-07-19T20:24:43.13</time>
<name>2155</name>
</trkpt>
<trkpt lat="39.041435" lon="-3.852907">
<ele>685.5</ele>
<speed>22.8</speed>
<course>173.7</course>
<desc>Speed 22.8 km/h Distance 12.44 km</desc>
<time>2011-07-19T20:24:44.13</time>
<name>2156</name>
</trkpt>
<trkpt lat="39.041377" lon="-3.852898">
<ele>685.0</ele>
<speed>23.2</speed>
<course>173.5</course>
<desc>Speed 23.2 km/h Distance 12.44 km</desc>
<time>2011-07-19T20:24:45.13</time>
<name>2157</name>
</trkpt>
<trkpt lat="39.041320" lon="-3.852890">
<ele>685.0</ele>
<speed>22.2</speed>
<course>173.5</course>
<desc>Speed 22.2 km/h Distance 12.45 km</desc>
<time>2011-07-19T20:24:46.14</time>
<name>2158</name>
</trkpt>
<trkpt lat="39.041263" lon="-3.852882">
<ele>685.0</ele>
<speed>22.9</speed>
<course>176.3</course>
<desc>Speed 22.9 km/h Distance 12.45 km</desc>
<time>2011-07-19T20:24:47.13</time>
<name>2159</name>
</trkpt>
<trkpt lat="39.041205" lon="-3.852877">
<ele>684.5</ele>
<speed>23.3</speed>
<course>180.0</course>
<desc>Speed 23.3 km/h Distance 12.46 km</desc>
<time>2011-07-19T20:24:48.13</time>
<name>2160</name>
</trkpt>
<trkpt lat="39.041147" lon="-3.852877">
<ele>684.5</ele>
<speed>23.3</speed>
<course>181.1</course>
<desc>Speed 23.3 km/h Distance 12.47 km</desc>
<time>2011-07-19T20:24:49.13</time>
<name>2161</name>
</trkpt>
<trkpt lat="39.041088" lon="-3.852878">
<ele>684.0</ele>
<speed>23.3</speed>
<course>182.5</course>
<desc>Speed 23.3 km/h Distance 12.47 km</desc>
<time>2011-07-19T20:24:50.14</time>
<name>2162</name>
</trkpt>
<trkpt lat="39.041030" lon="-3.852882">
<ele>683.5</ele>
<speed>23.6</speed>
<course>182.5</course>
<desc>Speed 23.6 km/h Distance 12.48 km</desc>
<time>2011-07-19T20:24:51.13</time>
<name>2163</name>
</trkpt>
<trkpt lat="39.040970" lon="-3.852885">
<ele>683.5</ele>
<speed>23.8</speed>
<course>181.4</course>
<desc>Speed 23.8 km/h Distance 12.49 km</desc>
<time>2011-07-19T20:24:52.13</time>
<name>2164</name>
</trkpt>
<trkpt lat="39.040913" lon="-3.852887">
<ele>683.0</ele>
<speed>23.0</speed>
<course>179.1</course>
<desc>Speed 23.0 km/h Distance 12.49 km</desc>
<time>2011-07-19T20:24:53.13</time>
<name>2165</name>
</trkpt>
<trkpt lat="39.040853" lon="-3.852885">
<ele>683.0</ele>
<speed>24.2</speed>
<course>174.6</course>
<desc>Speed 24.2 km/h Distance 12.50 km</desc>
<time>2011-07-19T20:24:54.13</time>
<name>2166</name>
</trkpt>
<trkpt lat="39.040798" lon="-3.852878">
<ele>682.5</ele>
<speed>21.8</speed>
<course>160.8</course>
<desc>Speed 21.8 km/h Distance 12.51 km</desc>
<time>2011-07-19T20:24:55.13</time>
<name>2167</name>
</trkpt>
<trkpt lat="39.040750" lon="-3.852857">
<ele>682.0</ele>
<speed>21.4</speed>
<course>155.2</course>
<desc>Speed 21.4 km/h Distance 12.51 km</desc>
<time>2011-07-19T20:24:56.13</time>
<name>2168</name>
</trkpt>
<trkpt lat="39.040697" lon="-3.852825">
<ele>682.0</ele>
<speed>23.4</speed>
<course>154.5</course>
<desc>Speed 23.4 km/h Distance 12.52 km</desc>
<time>2011-07-19T20:24:57.13</time>
<name>2169</name>
</trkpt>
<trkpt lat="39.040645" lon="-3.852793">
<ele>681.5</ele>
<speed>23.9</speed>
<course>154.1</course>
<desc>Speed 23.9 km/h Distance 12.52 km</desc>
<time>2011-07-19T20:24:58.13</time>
<name>2170</name>
</trkpt>
<trkpt lat="39.040592" lon="-3.852760">
<ele>681.0</ele>
<speed>24.3</speed>
<course>163.9</course>
<desc>Speed 24.3 km/h Distance 12.53 km</desc>
<time>2011-07-19T20:24:59.13</time>
<name>2171</name>
</trkpt>
<trkpt lat="39.040533" lon="-3.852738">
<ele>680.5</ele>
<speed>24.4</speed>
<course>168.7</course>
<desc>Speed 24.4 km/h Distance 12.54 km</desc>
<time>2011-07-19T20:25:00.13</time>
<name>2172</name>
</trkpt>
<trkpt lat="39.040475" lon="-3.852723">
<ele>680.0</ele>
<speed>24.2</speed>
<course>172.6</course>
<desc>Speed 24.2 km/h Distance 12.54 km</desc>
<time>2011-07-19T20:25:01.13</time>
<name>2173</name>
</trkpt>
<trkpt lat="39.040415" lon="-3.852713">
<ele>680.0</ele>
<speed>24.6</speed>
<course>182.4</course>
<desc>Speed 24.6 km/h Distance 12.55 km</desc>
<time>2011-07-19T20:25:02.13</time>
<name>2174</name>
</trkpt>
<trkpt lat="39.040353" lon="-3.852717">
<ele>679.5</ele>
<speed>24.4</speed>
<course>178.6</course>
<desc>Speed 24.4 km/h Distance 12.56 km</desc>
<time>2011-07-19T20:25:03.13</time>
<name>2175</name>
</trkpt>
<trkpt lat="39.040290" lon="-3.852715">
<ele>679.5</ele>
<speed>24.7</speed>
<course>171.6</course>
<desc>Speed 24.7 km/h Distance 12.57 km</desc>
<time>2011-07-19T20:25:04.13</time>
<name>2176</name>
</trkpt>
<trkpt lat="39.040228" lon="-3.852703">
<ele>678.5</ele>
<speed>25.0</speed>
<course>175.7</course>
<desc>Speed 25.0 km/h Distance 12.57 km</desc>
<time>2011-07-19T20:25:05.13</time>
<name>2177</name>
</trkpt>
<trkpt lat="39.040158" lon="-3.852697">
<ele>678.5</ele>
<speed>27.6</speed>
<course>177.5</course>
<desc>Speed 27.6 km/h Distance 12.58 km</desc>
<time>2011-07-19T20:25:06.13</time>
<name>2178</name>
</trkpt>
<trkpt lat="39.040098" lon="-3.852693">
<ele>677.5</ele>
<speed>23.9</speed>
<course>174.5</course>
<desc>Speed 23.9 km/h Distance 12.59 km</desc>
<time>2011-07-19T20:25:07.13</time>
<name>2179</name>
</trkpt>
<trkpt lat="39.040032" lon="-3.852685">
<ele>676.5</ele>
<speed>27.0</speed>
<course>171.0</course>
<desc>Speed 27.0 km/h Distance 12.59 km</desc>
<time>2011-07-19T20:25:08.13</time>
<name>2180</name>
</trkpt>
<trkpt lat="39.039958" lon="-3.852670">
<ele>676.5</ele>
<speed>28.8</speed>
<course>186.6</course>
<desc>Speed 28.8 km/h Distance 12.60 km</desc>
<time>2011-07-19T20:25:09.13</time>
<name>2181</name>
</trkpt>
<trkpt lat="39.039892" lon="-3.852680">
<ele>677.0</ele>
<speed>27.3</speed>
<course>191.2</course>
<desc>Speed 27.3 km/h Distance 12.61 km</desc>
<time>2011-07-19T20:25:10.14</time>
<name>2182</name>
</trkpt>
<trkpt lat="39.039820" lon="-3.852698">
<ele>678.0</ele>
<speed>28.7</speed>
<course>189.3</course>
<desc>Speed 28.7 km/h Distance 12.62 km</desc>
<time>2011-07-19T20:25:11.14</time>
<name>2183</name>
</trkpt>
<trkpt lat="39.039757" lon="-3.852712">
<ele>677.5</ele>
<speed>26.7</speed>
<course>194.5</course>
<desc>Speed 26.7 km/h Distance 12.63 km</desc>
<time>2011-07-19T20:25:12.13</time>
<name>2184</name>
</trkpt>
<trkpt lat="39.039687" lon="-3.852735">
<ele>678.5</ele>
<speed>28.2</speed>
<course>190.3</course>
<desc>Speed 28.2 km/h Distance 12.63 km</desc>
<time>2011-07-19T20:25:13.13</time>
<name>2185</name>
</trkpt>
<trkpt lat="39.039565" lon="-3.852763">
<ele>680.5</ele>
<speed>29.2</speed>
<course>191.0</course>
<desc>Speed 29.2 km/h Distance 12.65 km</desc>
<time>2011-07-19T20:25:15.14</time>
<name>2186</name>
</trkpt>
<trkpt lat="39.039498" lon="-3.852780">
<ele>680.0</ele>
<speed>26.2</speed>
<course>196.6</course>
<desc>Speed 26.2 km/h Distance 12.65 km</desc>
<time>2011-07-19T20:25:16.13</time>
<name>2187</name>
</trkpt>
<trkpt lat="39.039433" lon="-3.852805">
<ele>680.0</ele>
<speed>26.6</speed>
<course>206.1</course>
<desc>Speed 26.6 km/h Distance 12.66 km</desc>
<time>2011-07-19T20:25:17.12</time>
<name>2188</name>
</trkpt>
<trkpt lat="39.039370" lon="-3.852845">
<ele>681.0</ele>
<speed>27.5</speed>
<course>209.7</course>
<desc>Speed 27.5 km/h Distance 12.67 km</desc>
<time>2011-07-19T20:25:18.13</time>
<name>2189</name>
</trkpt>
<trkpt lat="39.039313" lon="-3.852887">
<ele>681.0</ele>
<speed>25.5</speed>
<course>208.3</course>
<desc>Speed 25.5 km/h Distance 12.68 km</desc>
<time>2011-07-19T20:25:19.12</time>
<name>2190</name>
</trkpt>
<trkpt lat="39.039253" lon="-3.852928">
<ele>681.0</ele>
<speed>25.9</speed>
<course>207.4</course>
<desc>Speed 25.9 km/h Distance 12.68 km</desc>
<time>2011-07-19T20:25:20.12</time>
<name>2191</name>
</trkpt>
<trkpt lat="39.039193" lon="-3.852968">
<ele>681.5</ele>
<speed>25.7</speed>
<course>206.4</course>
<desc>Speed 25.7 km/h Distance 12.69 km</desc>
<time>2011-07-19T20:25:21.12</time>
<name>2192</name>
</trkpt>
<trkpt lat="39.039133" lon="-3.853007">
<ele>681.5</ele>
<speed>25.7</speed>
<course>205.0</course>
<desc>Speed 25.7 km/h Distance 12.70 km</desc>
<time>2011-07-19T20:25:22.12</time>
<name>2193</name>
</trkpt>
<trkpt lat="39.039075" lon="-3.853042">
<ele>681.5</ele>
<speed>25.3</speed>
<course>201.2</course>
<desc>Speed 25.3 km/h Distance 12.71 km</desc>
<time>2011-07-19T20:25:23.12</time>
<name>2194</name>
</trkpt>
<trkpt lat="39.039015" lon="-3.853072">
<ele>681.5</ele>
<speed>25.2</speed>
<course>200.4</course>
<desc>Speed 25.2 km/h Distance 12.71 km</desc>
<time>2011-07-19T20:25:24.13</time>
<name>2195</name>
</trkpt>
<trkpt lat="39.038890" lon="-3.853132">
<ele>682.0</ele>
<speed>26.9</speed>
<course>210.8</course>
<desc>Speed 26.9 km/h Distance 12.73 km</desc>
<time>2011-07-19T20:25:26.12</time>
<name>2196</name>
</trkpt>
<trkpt lat="39.038775" lon="-3.853220">
<ele>682.0</ele>
<speed>26.5</speed>
<course>207.2</course>
<desc>Speed 26.5 km/h Distance 12.74 km</desc>
<time>2011-07-19T20:25:28.12</time>
<name>2197</name>
</trkpt>
<trkpt lat="39.038662" lon="-3.853295">
<ele>682.0</ele>
<speed>25.6</speed>
<course>206.3</course>
<desc>Speed 25.6 km/h Distance 12.76 km</desc>
<time>2011-07-19T20:25:30.12</time>
<name>2198</name>
</trkpt>
<trkpt lat="39.038547" lon="-3.853368">
<ele>682.0</ele>
<speed>25.6</speed>
<course>212.0</course>
<desc>Speed 25.6 km/h Distance 12.77 km</desc>
<time>2011-07-19T20:25:32.12</time>
<name>2199</name>
</trkpt>
<trkpt lat="39.038437" lon="-3.853457">
<ele>682.0</ele>
<speed>25.5</speed>
<course>212.1</course>
<desc>Speed 25.5 km/h Distance 12.79 km</desc>
<time>2011-07-19T20:25:34.16</time>
<name>2200</name>
</trkpt>
<trkpt lat="39.038323" lon="-3.853548">
<ele>682.0</ele>
<speed>26.4</speed>
<course>217.0</course>
<desc>Speed 26.4 km/h Distance 12.80 km</desc>
<time>2011-07-19T20:25:36.12</time>
<name>2201</name>
</trkpt>
<trkpt lat="39.038103" lon="-3.853762">
<ele>683.0</ele>
<speed>26.6</speed>
<course>220.4</course>
<desc>Speed 26.6 km/h Distance 12.83 km</desc>
<time>2011-07-19T20:25:39.18</time>
<name>2202</name>
</trkpt>
<trkpt lat="39.038052" lon="-3.853818">
<ele>683.5</ele>
<speed>26.5</speed>
<course>222.2</course>
<desc>Speed 26.5 km/h Distance 12.84 km</desc>
<time>2011-07-19T20:25:40.18</time>
<name>2203</name>
</trkpt>
<trkpt lat="39.038002" lon="-3.853877">
<ele>683.0</ele>
<speed>26.5</speed>
<course>218.7</course>
<desc>Speed 26.5 km/h Distance 12.85 km</desc>
<time>2011-07-19T20:25:41.17</time>
<name>2204</name>
</trkpt>
<trkpt lat="39.037948" lon="-3.853932">
<ele>683.0</ele>
<speed>26.9</speed>
<course>221.2</course>
<desc>Speed 26.9 km/h Distance 12.86 km</desc>
<time>2011-07-19T20:25:42.17</time>
<name>2205</name>
</trkpt>
<trkpt lat="39.037897" lon="-3.853990">
<ele>682.5</ele>
<speed>27.1</speed>
<course>220.4</course>
<desc>Speed 27.1 km/h Distance 12.86 km</desc>
<time>2011-07-19T20:25:43.17</time>
<name>2206</name>
</trkpt>
<trkpt lat="39.037845" lon="-3.854047">
<ele>682.5</ele>
<speed>27.3</speed>
<course>220.3</course>
<desc>Speed 27.3 km/h Distance 12.87 km</desc>
<time>2011-07-19T20:25:44.17</time>
<name>2207</name>
</trkpt>
<trkpt lat="39.037792" lon="-3.854105">
<ele>682.0</ele>
<speed>27.5</speed>
<course>222.1</course>
<desc>Speed 27.5 km/h Distance 12.88 km</desc>
<time>2011-07-19T20:25:45.17</time>
<name>2208</name>
</trkpt>
<trkpt lat="39.037740" lon="-3.854165">
<ele>682.0</ele>
<speed>27.7</speed>
<course>222.1</course>
<desc>Speed 27.7 km/h Distance 12.89 km</desc>
<time>2011-07-19T20:25:46.17</time>
<name>2209</name>
</trkpt>
<trkpt lat="39.037688" lon="-3.854225">
<ele>681.5</ele>
<speed>27.9</speed>
<course>222.1</course>
<desc>Speed 27.9 km/h Distance 12.89 km</desc>
<time>2011-07-19T20:25:47.17</time>
<name>2210</name>
</trkpt>
<trkpt lat="39.037637" lon="-3.854285">
<ele>681.0</ele>
<speed>28.0</speed>
<course>222.1</course>
<desc>Speed 28.0 km/h Distance 12.90 km</desc>
<time>2011-07-19T20:25:48.18</time>
<name>2211</name>
</trkpt>
<trkpt lat="39.037585" lon="-3.854345">
<ele>680.5</ele>
<speed>28.5</speed>
<course>220.3</course>
<desc>Speed 28.5 km/h Distance 12.91 km</desc>
<time>2011-07-19T20:25:49.18</time>
<name>2212</name>
</trkpt>
<trkpt lat="39.037530" lon="-3.854405">
<ele>680.5</ele>
<speed>28.5</speed>
<course>220.3</course>
<desc>Speed 28.5 km/h Distance 12.92 km</desc>
<time>2011-07-19T20:25:50.18</time>
<name>2213</name>
</trkpt>
<trkpt lat="39.037475" lon="-3.854465">
<ele>680.0</ele>
<speed>28.6</speed>
<course>219.5</course>
<desc>Speed 28.6 km/h Distance 12.93 km</desc>
<time>2011-07-19T20:25:51.18</time>
<name>2214</name>
</trkpt>
<trkpt lat="39.037420" lon="-3.854523">
<ele>680.0</ele>
<speed>28.7</speed>
<course>221.9</course>
<desc>Speed 28.7 km/h Distance 12.93 km</desc>
<time>2011-07-19T20:25:52.19</time>
<name>2215</name>
</trkpt>
<trkpt lat="39.037367" lon="-3.854585">
<ele>679.5</ele>
<speed>28.8</speed>
<course>225.3</course>
<desc>Speed 28.8 km/h Distance 12.94 km</desc>
<time>2011-07-19T20:25:53.18</time>
<name>2216</name>
</trkpt>
<trkpt lat="39.037317" lon="-3.854650">
<ele>679.0</ele>
<speed>28.8</speed>
<course>226.0</course>
<desc>Speed 28.8 km/h Distance 12.95 km</desc>
<time>2011-07-19T20:25:54.18</time>
<name>2217</name>
</trkpt>
<trkpt lat="39.037267" lon="-3.854717">
<ele>678.5</ele>
<speed>29.1</speed>
<course>226.7</course>
<desc>Speed 29.1 km/h Distance 12.96 km</desc>
<time>2011-07-19T20:25:55.18</time>
<name>2218</name>
</trkpt>
<trkpt lat="39.037217" lon="-3.854785">
<ele>678.0</ele>
<speed>29.2</speed>
<course>226.0</course>
<desc>Speed 29.2 km/h Distance 12.97 km</desc>
<time>2011-07-19T20:25:56.19</time>
<name>2219</name>
</trkpt>
<trkpt lat="39.037167" lon="-3.854852">
<ele>678.0</ele>
<speed>29.1</speed>
<course>220.3</course>
<desc>Speed 29.1 km/h Distance 12.97 km</desc>
<time>2011-07-19T20:25:57.18</time>
<name>2220</name>
</trkpt>
<trkpt lat="39.037112" lon="-3.854912">
<ele>677.5</ele>
<speed>29.1</speed>
<course>216.2</course>
<desc>Speed 29.1 km/h Distance 12.98 km</desc>
<time>2011-07-19T20:25:58.18</time>
<name>2221</name>
</trkpt>
<trkpt lat="39.037055" lon="-3.854965">
<ele>677.5</ele>
<speed>28.5</speed>
<course>206.1</course>
<desc>Speed 28.5 km/h Distance 12.99 km</desc>
<time>2011-07-19T20:25:59.18</time>
<name>2222</name>
</trkpt>
<trkpt lat="39.036992" lon="-3.855005">
<ele>677.0</ele>
<speed>28.3</speed>
<course>199.3</course>
<desc>Speed 28.3 km/h Distance 13.00 km</desc>
<time>2011-07-19T20:26:00.18</time>
<name>2223</name>
</trkpt>
<trkpt lat="39.036925" lon="-3.855035">
<ele>677.0</ele>
<speed>28.2</speed>
<course>191.0</course>
<desc>Speed 28.2 km/h Distance 13.00 km</desc>
<time>2011-07-19T20:26:01.18</time>
<name>2224</name>
</trkpt>
<trkpt lat="39.036858" lon="-3.855052">
<ele>677.0</ele>
<speed>27.9</speed>
<course>182.2</course>
<desc>Speed 27.9 km/h Distance 13.01 km</desc>
<time>2011-07-19T20:26:02.18</time>
<name>2225</name>
</trkpt>
<trkpt lat="39.036788" lon="-3.855055">
<ele>677.0</ele>
<speed>27.8</speed>
<course>176.7</course>
<desc>Speed 27.8 km/h Distance 13.02 km</desc>
<time>2011-07-19T20:26:03.18</time>
<name>2226</name>
</trkpt>
<trkpt lat="39.036720" lon="-3.855050">
<ele>676.5</ele>
<speed>27.7</speed>
<course>169.3</course>
<desc>Speed 27.7 km/h Distance 13.03 km</desc>
<time>2011-07-19T20:26:04.19</time>
<name>2227</name>
</trkpt>
<trkpt lat="39.036652" lon="-3.855033">
<ele>676.5</ele>
<speed>27.6</speed>
<course>167.6</course>
<desc>Speed 27.6 km/h Distance 13.04 km</desc>
<time>2011-07-19T20:26:05.18</time>
<name>2228</name>
</trkpt>
<trkpt lat="39.036587" lon="-3.855015">
<ele>676.5</ele>
<speed>27.1</speed>
<course>168.7</course>
<desc>Speed 27.1 km/h Distance 13.04 km</desc>
<time>2011-07-19T20:26:06.18</time>
<name>2229</name>
</trkpt>
<trkpt lat="39.036522" lon="-3.854998">
<ele>676.5</ele>
<speed>26.5</speed>
<course>169.6</course>
<desc>Speed 26.5 km/h Distance 13.05 km</desc>
<time>2011-07-19T20:26:07.18</time>
<name>2230</name>
</trkpt>
<trkpt lat="39.036458" lon="-3.854983">
<ele>676.5</ele>
<speed>25.6</speed>
<course>179.4</course>
<desc>Speed 25.6 km/h Distance 13.06 km</desc>
<time>2011-07-19T20:26:08.19</time>
<name>2231</name>
</trkpt>
<trkpt lat="39.036337" lon="-3.854982">
<ele>676.5</ele>
<speed>23.9</speed>
<course>183.9</course>
<desc>Speed 23.9 km/h Distance 13.07 km</desc>
<time>2011-07-19T20:26:10.18</time>
<name>2232</name>
</trkpt>
<trkpt lat="39.036280" lon="-3.854987">
<ele>676.0</ele>
<speed>22.8</speed>
<course>187.9</course>
<desc>Speed 22.8 km/h Distance 13.08 km</desc>
<time>2011-07-19T20:26:11.18</time>
<name>2233</name>
</trkpt>
<trkpt lat="39.036223" lon="-3.854997">
<ele>676.0</ele>
<speed>23.1</speed>
<course>197.0</course>
<desc>Speed 23.1 km/h Distance 13.08 km</desc>
<time>2011-07-19T20:26:12.19</time>
<name>2234</name>
</trkpt>
<trkpt lat="39.036168" lon="-3.855018">
<ele>676.0</ele>
<speed>23.5</speed>
<course>203.6</course>
<desc>Speed 23.5 km/h Distance 13.09 km</desc>
<time>2011-07-19T20:26:13.18</time>
<name>2235</name>
</trkpt>
<trkpt lat="39.036115" lon="-3.855048">
<ele>675.5</ele>
<speed>23.9</speed>
<course>209.9</course>
<desc>Speed 23.9 km/h Distance 13.10 km</desc>
<time>2011-07-19T20:26:14.18</time>
<name>2236</name>
</trkpt>
<trkpt lat="39.036063" lon="-3.855087">
<ele>675.5</ele>
<speed>24.0</speed>
<course>208.9</course>
<desc>Speed 24.0 km/h Distance 13.10 km</desc>
<time>2011-07-19T20:26:15.18</time>
<name>2237</name>
</trkpt>
<trkpt lat="39.036012" lon="-3.855123">
<ele>675.0</ele>
<speed>24.2</speed>
<course>207.8</course>
<desc>Speed 24.2 km/h Distance 13.11 km</desc>
<time>2011-07-19T20:26:16.18</time>
<name>2238</name>
</trkpt>
<trkpt lat="39.035960" lon="-3.855158">
<ele>675.0</ele>
<speed>24.2</speed>
<course>205.9</course>
<desc>Speed 24.2 km/h Distance 13.12 km</desc>
<time>2011-07-19T20:26:17.19</time>
<name>2239</name>
</trkpt>
<trkpt lat="39.035907" lon="-3.855192">
<ele>674.5</ele>
<speed>24.2</speed>
<course>200.1</course>
<desc>Speed 24.2 km/h Distance 13.12 km</desc>
<time>2011-07-19T20:26:18.18</time>
<name>2240</name>
</trkpt>
<trkpt lat="39.035850" lon="-3.855218">
<ele>674.5</ele>
<speed>24.0</speed>
<course>195.3</course>
<desc>Speed 24.0 km/h Distance 13.13 km</desc>
<time>2011-07-19T20:26:19.18</time>
<name>2241</name>
</trkpt>
<trkpt lat="39.035793" lon="-3.855238">
<ele>674.0</ele>
<speed>24.0</speed>
<course>192.5</course>
<desc>Speed 24.0 km/h Distance 13.14 km</desc>
<time>2011-07-19T20:26:20.18</time>
<name>2242</name>
</trkpt>
<trkpt lat="39.035735" lon="-3.855255">
<ele>674.0</ele>
<speed>24.6</speed>
<course>185.3</course>
<desc>Speed 24.6 km/h Distance 13.14 km</desc>
<time>2011-07-19T20:26:25.40</time>
<name>2243</name>
</trkpt>
<trkpt lat="39.035610" lon="-3.855270">
<ele>673.5</ele>
<speed>25.3</speed>
<course>184.7</course>
<desc>Speed 25.3 km/h Distance 13.16 km</desc>
<time>2011-07-19T20:26:27.32</time>
<name>2244</name>
</trkpt>
<trkpt lat="39.035547" lon="-3.855277">
<ele>673.5</ele>
<speed>25.5</speed>
<course>184.7</course>
<desc>Speed 25.5 km/h Distance 13.16 km</desc>
<time>2011-07-19T20:26:28.32</time>
<name>2245</name>
</trkpt>
<trkpt lat="39.035483" lon="-3.855283">
<ele>673.0</ele>
<speed>25.6</speed>
<course>183.5</course>
<desc>Speed 25.6 km/h Distance 13.17 km</desc>
<time>2011-07-19T20:26:29.33</time>
<name>2246</name>
</trkpt>
<trkpt lat="39.035418" lon="-3.855288">
<ele>673.0</ele>
<speed>25.7</speed>
<course>184.6</course>
<desc>Speed 25.7 km/h Distance 13.18 km</desc>
<time>2011-07-19T20:26:30.32</time>
<name>2247</name>
</trkpt>
<trkpt lat="39.035353" lon="-3.855295">
<ele>673.0</ele>
<speed>26.3</speed>
<course>183.5</course>
<desc>Speed 26.3 km/h Distance 13.19 km</desc>
<time>2011-07-19T20:26:31.32</time>
<name>2248</name>
</trkpt>
<trkpt lat="39.035288" lon="-3.855300">
<ele>672.5</ele>
<speed>26.3</speed>
<course>183.3</course>
<desc>Speed 26.3 km/h Distance 13.19 km</desc>
<time>2011-07-19T20:26:32.32</time>
<name>2249</name>
</trkpt>
<trkpt lat="39.035223" lon="-3.855305">
<ele>672.5</ele>
<speed>26.2</speed>
<course>181.0</course>
<desc>Speed 26.2 km/h Distance 13.20 km</desc>
<time>2011-07-19T20:26:33.33</time>
<name>2250</name>
</trkpt>
<trkpt lat="39.035158" lon="-3.855307">
<ele>672.0</ele>
<speed>26.2</speed>
<course>179.6</course>
<desc>Speed 26.2 km/h Distance 13.21 km</desc>
<time>2011-07-19T20:26:34.32</time>
<name>2251</name>
</trkpt>
<trkpt lat="39.035095" lon="-3.855307">
<ele>672.0</ele>
<speed>25.5</speed>
<course>179.2</course>
<desc>Speed 25.5 km/h Distance 13.21 km</desc>
<time>2011-07-19T20:26:35.32</time>
<name>2252</name>
</trkpt>
<trkpt lat="39.035033" lon="-3.855305">
<ele>672.0</ele>
<speed>24.8</speed>
<course>179.8</course>
<desc>Speed 24.8 km/h Distance 13.22 km</desc>
<time>2011-07-19T20:26:36.32</time>
<name>2253</name>
</trkpt>
<trkpt lat="39.034978" lon="-3.855305">
<ele>672.0</ele>
<speed>22.2</speed>
<course>182.7</course>
<desc>Speed 22.2 km/h Distance 13.23 km</desc>
<time>2011-07-19T20:26:37.32</time>
<name>2254</name>
</trkpt>
<trkpt lat="39.034925" lon="-3.855308">
<ele>672.0</ele>
<speed>21.9</speed>
<course>189.9</course>
<desc>Speed 21.9 km/h Distance 13.23 km</desc>
<time>2011-07-19T20:26:38.32</time>
<name>2255</name>
</trkpt>
<trkpt lat="39.034873" lon="-3.855320">
<ele>671.5</ele>
<speed>21.8</speed>
<course>186.6</course>
<desc>Speed 21.8 km/h Distance 13.24 km</desc>
<time>2011-07-19T20:26:39.32</time>
<name>2256</name>
</trkpt>
<trkpt lat="39.034818" lon="-3.855328">
<ele>671.5</ele>
<speed>23.3</speed>
<course>185.2</course>
<desc>Speed 23.3 km/h Distance 13.25 km</desc>
<time>2011-07-19T20:26:40.32</time>
<name>2257</name>
</trkpt>
<trkpt lat="39.034762" lon="-3.855335">
<ele>671.5</ele>
<speed>23.0</speed>
<course>183.9</course>
<desc>Speed 23.0 km/h Distance 13.25 km</desc>
<time>2011-07-19T20:26:41.32</time>
<name>2258</name>
</trkpt>
<trkpt lat="39.034705" lon="-3.855340">
<ele>671.5</ele>
<speed>23.1</speed>
<course>181.4</course>
<desc>Speed 23.1 km/h Distance 13.26 km</desc>
<time>2011-07-19T20:26:42.32</time>
<name>2259</name>
</trkpt>
<trkpt lat="39.034648" lon="-3.855342">
<ele>671.5</ele>
<speed>22.9</speed>
<course>182.6</course>
<desc>Speed 22.9 km/h Distance 13.26 km</desc>
<time>2011-07-19T20:26:43.34</time>
<name>2260</name>
</trkpt>
<trkpt lat="39.034592" lon="-3.855345">
<ele>671.5</ele>
<speed>23.1</speed>
<course>182.5</course>
<desc>Speed 23.1 km/h Distance 13.27 km</desc>
<time>2011-07-19T20:26:44.32</time>
<name>2261</name>
</trkpt>
<trkpt lat="39.034533" lon="-3.855348">
<ele>671.5</ele>
<speed>23.3</speed>
<course>183.8</course>
<desc>Speed 23.3 km/h Distance 13.28 km</desc>
<time>2011-07-19T20:26:45.32</time>
<name>2262</name>
</trkpt>
<trkpt lat="39.034475" lon="-3.855353">
<ele>671.5</ele>
<speed>23.3</speed>
<course>183.8</course>
<desc>Speed 23.3 km/h Distance 13.28 km</desc>
<time>2011-07-19T20:26:46.32</time>
<name>2263</name>
</trkpt>
<trkpt lat="39.034417" lon="-3.855358">
<ele>672.0</ele>
<speed>23.4</speed>
<course>182.6</course>
<desc>Speed 23.4 km/h Distance 13.29 km</desc>
<time>2011-07-19T20:26:47.32</time>
<name>2264</name>
</trkpt>
<trkpt lat="39.034360" lon="-3.855362">
<ele>672.0</ele>
<speed>23.1</speed>
<course>184.1</course>
<desc>Speed 23.1 km/h Distance 13.30 km</desc>
<time>2011-07-19T20:26:48.32</time>
<name>2265</name>
</trkpt>
<trkpt lat="39.034305" lon="-3.855367">
<ele>672.5</ele>
<speed>22.1</speed>
<course>184.4</course>
<desc>Speed 22.1 km/h Distance 13.30 km</desc>
<time>2011-07-19T20:26:49.32</time>
<name>2266</name>
</trkpt>
<trkpt lat="39.034253" lon="-3.855372">
<ele>672.5</ele>
<speed>20.7</speed>
<course>179.4</course>
<desc>Speed 20.7 km/h Distance 13.31 km</desc>
<time>2011-07-19T20:26:50.32</time>
<name>2267</name>
</trkpt>
<trkpt lat="39.034212" lon="-3.855372">
<ele>672.5</ele>
<speed>16.3</speed>
<course>157.7</course>
<desc>Speed 16.3 km/h Distance 13.31 km</desc>
<time>2011-07-19T20:26:51.32</time>
<name>2268</name>
</trkpt>
<trkpt lat="39.034183" lon="-3.855357">
<ele>672.5</ele>
<speed>12.7</speed>
<course>126.7</course>
<desc>Speed 12.7 km/h Distance 13.32 km</desc>
<time>2011-07-19T20:26:52.32</time>
<name>2269</name>
</trkpt>
<trkpt lat="39.034165" lon="-3.855325">
<ele>672.0</ele>
<speed>12.0</speed>
<course>95.7</course>
<desc>Speed 12.0 km/h Distance 13.32 km</desc>
<time>2011-07-19T20:26:53.32</time>
<name>2270</name>
</trkpt>
<trkpt lat="39.034162" lon="-3.855282">
<ele>672.0</ele>
<speed>13.5</speed>
<course>95.3</course>
<desc>Speed 13.5 km/h Distance 13.32 km</desc>
<time>2011-07-19T20:26:54.32</time>
<name>2271</name>
</trkpt>
<trkpt lat="39.034158" lon="-3.855235">
<ele>671.5</ele>
<speed>14.5</speed>
<course>85.3</course>
<desc>Speed 14.5 km/h Distance 13.33 km</desc>
<time>2011-07-19T20:26:55.32</time>
<name>2272</name>
</trkpt>
<trkpt lat="39.034162" lon="-3.855183">
<ele>671.5</ele>
<speed>16.1</speed>
<course>92.3</course>
<desc>Speed 16.1 km/h Distance 13.33 km</desc>
<time>2011-07-19T20:26:56.32</time>
<name>2273</name>
</trkpt>
<trkpt lat="39.034160" lon="-3.855130">
<ele>671.5</ele>
<speed>16.6</speed>
<course>87.8</course>
<desc>Speed 16.6 km/h Distance 13.34 km</desc>
<time>2011-07-19T20:26:57.32</time>
<name>2274</name>
</trkpt>
<trkpt lat="39.034162" lon="-3.855075">
<ele>671.5</ele>
<speed>17.5</speed>
<course>87.8</course>
<desc>Speed 17.5 km/h Distance 13.34 km</desc>
<time>2011-07-19T20:26:58.32</time>
<name>2275</name>
</trkpt>
<trkpt lat="39.034163" lon="-3.855018">
<ele>671.5</ele>
<speed>17.5</speed>
<course>96.5</course>
<desc>Speed 17.5 km/h Distance 13.35 km</desc>
<time>2011-07-19T20:26:59.32</time>
<name>2276</name>
</trkpt>
<trkpt lat="39.034158" lon="-3.854962">
<ele>671.5</ele>
<speed>18.2</speed>
<course>96.1</course>
<desc>Speed 18.2 km/h Distance 13.35 km</desc>
<time>2011-07-19T20:27:00.32</time>
<name>2277</name>
</trkpt>
<trkpt lat="39.034153" lon="-3.854902">
<ele>671.5</ele>
<speed>18.8</speed>
<course>96.0</course>
<desc>Speed 18.8 km/h Distance 13.36 km</desc>
<time>2011-07-19T20:27:01.32</time>
<name>2278</name>
</trkpt>
<trkpt lat="39.034148" lon="-3.854840">
<ele>671.5</ele>
<speed>19.1</speed>
<course>94.0</course>
<desc>Speed 19.1 km/h Distance 13.36 km</desc>
<time>2011-07-19T20:27:02.32</time>
<name>2279</name>
</trkpt>
<trkpt lat="39.034145" lon="-3.854778">
<ele>671.5</ele>
<speed>19.3</speed>
<course>97.9</course>
<desc>Speed 19.3 km/h Distance 13.37 km</desc>
<time>2011-07-19T20:27:03.32</time>
<name>2280</name>
</trkpt>
<trkpt lat="39.034138" lon="-3.854717">
<ele>671.5</ele>
<speed>19.6</speed>
<course>96.0</course>
<desc>Speed 19.6 km/h Distance 13.37 km</desc>
<time>2011-07-19T20:27:04.32</time>
<name>2281</name>
</trkpt>
<trkpt lat="39.034133" lon="-3.854655">
<ele>671.5</ele>
<speed>19.6</speed>
<course>97.9</course>
<desc>Speed 19.6 km/h Distance 13.38 km</desc>
<time>2011-07-19T20:27:05.32</time>
<name>2282</name>
</trkpt>
<trkpt lat="39.034127" lon="-3.854593">
<ele>671.5</ele>
<speed>19.2</speed>
<course>98.1</course>
<desc>Speed 19.2 km/h Distance 13.38 km</desc>
<time>2011-07-19T20:27:06.32</time>
<name>2283</name>
</trkpt>
<trkpt lat="39.034120" lon="-3.854533">
<ele>671.5</ele>
<speed>19.2</speed>
<course>97.7</course>
<desc>Speed 19.2 km/h Distance 13.39 km</desc>
<time>2011-07-19T20:27:07.32</time>
<name>2284</name>
</trkpt>
<trkpt lat="39.034113" lon="-3.854470">
<ele>671.0</ele>
<speed>19.6</speed>
<course>93.9</course>
<desc>Speed 19.6 km/h Distance 13.39 km</desc>
<time>2011-07-19T20:27:08.31</time>
<name>2285</name>
</trkpt>
<trkpt lat="39.034110" lon="-3.854407">
<ele>671.0</ele>
<speed>20.0</speed>
<course>91.9</course>
<desc>Speed 20.0 km/h Distance 13.40 km</desc>
<time>2011-07-19T20:27:09.32</time>
<name>2286</name>
</trkpt>
<trkpt lat="39.034108" lon="-3.854342">
<ele>671.0</ele>
<speed>20.4</speed>
<course>95.7</course>
<desc>Speed 20.4 km/h Distance 13.41 km</desc>
<time>2011-07-19T20:27:10.32</time>
<name>2287</name>
</trkpt>
<trkpt lat="39.034103" lon="-3.854277">
<ele>671.0</ele>
<speed>20.1</speed>
<course>97.7</course>
<desc>Speed 20.1 km/h Distance 13.41 km</desc>
<time>2011-07-19T20:27:11.32</time>
<name>2288</name>
</trkpt>
<trkpt lat="39.034097" lon="-3.854213">
<ele>670.5</ele>
<speed>20.0</speed>
<course>94.0</course>
<desc>Speed 20.0 km/h Distance 13.42 km</desc>
<time>2011-07-19T20:27:12.32</time>
<name>2289</name>
</trkpt>
<trkpt lat="39.034093" lon="-3.854152">
<ele>670.5</ele>
<speed>19.7</speed>
<course>93.8</course>
<desc>Speed 19.7 km/h Distance 13.42 km</desc>
<time>2011-07-19T20:27:13.32</time>
<name>2290</name>
</trkpt>
<trkpt lat="39.034090" lon="-3.854087">
<ele>670.5</ele>
<speed>20.0</speed>
<course>95.8</course>
<desc>Speed 20.0 km/h Distance 13.43 km</desc>
<time>2011-07-19T20:27:14.32</time>
<name>2291</name>
</trkpt>
<trkpt lat="39.034085" lon="-3.854023">
<ele>670.0</ele>
<speed>19.8</speed>
<course>93.9</course>
<desc>Speed 19.8 km/h Distance 13.43 km</desc>
<time>2011-07-19T20:27:15.32</time>
<name>2292</name>
</trkpt>
<trkpt lat="39.034082" lon="-3.853960">
<ele>670.0</ele>
<speed>20.1</speed>
<course>92.0</course>
<desc>Speed 20.1 km/h Distance 13.44 km</desc>
<time>2011-07-19T20:27:16.32</time>
<name>2293</name>
</trkpt>
<trkpt lat="39.034080" lon="-3.853898">
<ele>670.0</ele>
<speed>19.2</speed>
<course>98.4</course>
<desc>Speed 19.2 km/h Distance 13.44 km</desc>
<time>2011-07-19T20:27:17.32</time>
<name>2294</name>
</trkpt>
<trkpt lat="39.034073" lon="-3.853840">
<ele>670.5</ele>
<speed>18.3</speed>
<course>103.2</course>
<desc>Speed 18.3 km/h Distance 13.45 km</desc>
<time>2011-07-19T20:27:18.32</time>
<name>2295</name>
</trkpt>
<trkpt lat="39.034063" lon="-3.853785">
<ele>670.0</ele>
<speed>17.5</speed>
<course>112.6</course>
<desc>Speed 17.5 km/h Distance 13.45 km</desc>
<time>2011-07-19T20:27:19.32</time>
<name>2296</name>
</trkpt>
<trkpt lat="39.034047" lon="-3.853733">
<ele>670.5</ele>
<speed>17.5</speed>
<course>123.7</course>
<desc>Speed 17.5 km/h Distance 13.46 km</desc>
<time>2011-07-19T20:27:20.32</time>
<name>2297</name>
</trkpt>
<trkpt lat="39.034022" lon="-3.853685">
<ele>670.5</ele>
<speed>18.1</speed>
<course>126.1</course>
<desc>Speed 18.1 km/h Distance 13.46 km</desc>
<time>2011-07-19T20:27:21.32</time>
<name>2298</name>
</trkpt>
<trkpt lat="39.033993" lon="-3.853635">
<ele>670.5</ele>
<speed>19.1</speed>
<course>124.4</course>
<desc>Speed 19.1 km/h Distance 13.47 km</desc>
<time>2011-07-19T20:27:22.32</time>
<name>2299</name>
</trkpt>
<trkpt lat="39.033965" lon="-3.853582">
<ele>670.5</ele>
<speed>19.8</speed>
<course>125.9</course>
<desc>Speed 19.8 km/h Distance 13.47 km</desc>
<time>2011-07-19T20:27:23.33</time>
<name>2300</name>
</trkpt>
<trkpt lat="39.033935" lon="-3.853528">
<ele>671.0</ele>
<speed>20.3</speed>
<course>127.4</course>
<desc>Speed 20.3 km/h Distance 13.48 km</desc>
<time>2011-07-19T20:27:24.32</time>
<name>2301</name>
</trkpt>
<trkpt lat="39.033903" lon="-3.853475">
<ele>671.0</ele>
<speed>21.2</speed>
<course>125.7</course>
<desc>Speed 21.2 km/h Distance 13.49 km</desc>
<time>2011-07-19T20:27:25.32</time>
<name>2302</name>
</trkpt>
<trkpt lat="39.033872" lon="-3.853418">
<ele>671.0</ele>
<speed>21.3</speed>
<course>124.3</course>
<desc>Speed 21.3 km/h Distance 13.49 km</desc>
<time>2011-07-19T20:27:26.32</time>
<name>2303</name>
</trkpt>
<trkpt lat="39.033842" lon="-3.853362">
<ele>671.5</ele>
<speed>21.5</speed>
<course>125.7</course>
<desc>Speed 21.5 km/h Distance 13.50 km</desc>
<time>2011-07-19T20:27:27.32</time>
<name>2304</name>
</trkpt>
<trkpt lat="39.033810" lon="-3.853305">
<ele>671.5</ele>
<speed>21.5</speed>
<course>127.4</course>
<desc>Speed 21.5 km/h Distance 13.50 km</desc>
<time>2011-07-19T20:27:28.32</time>
<name>2305</name>
</trkpt>
<trkpt lat="39.033778" lon="-3.853252">
<ele>671.5</ele>
<speed>21.0</speed>
<course>125.7</course>
<desc>Speed 21.0 km/h Distance 13.51 km</desc>
<time>2011-07-19T20:27:29.32</time>
<name>2306</name>
</trkpt>
<trkpt lat="39.033747" lon="-3.853195">
<ele>671.5</ele>
<speed>21.8</speed>
<course>127.1</course>
<desc>Speed 21.8 km/h Distance 13.52 km</desc>
<time>2011-07-19T20:27:30.32</time>
<name>2307</name>
</trkpt>
<trkpt lat="39.033713" lon="-3.853138">
<ele>672.0</ele>
<speed>22.1</speed>
<course>127.1</course>
<desc>Speed 22.1 km/h Distance 13.52 km</desc>
<time>2011-07-19T20:27:31.32</time>
<name>2308</name>
</trkpt>
<trkpt lat="39.033680" lon="-3.853082">
<ele>672.0</ele>
<speed>22.0</speed>
<course>124.9</course>
<desc>Speed 22.0 km/h Distance 13.53 km</desc>
<time>2011-07-19T20:27:32.31</time>
<name>2309</name>
</trkpt>
<trkpt lat="39.033648" lon="-3.853023">
<ele>672.0</ele>
<speed>21.9</speed>
<course>128.0</course>
<desc>Speed 21.9 km/h Distance 13.53 km</desc>
<time>2011-07-19T20:27:33.32</time>
<name>2310</name>
</trkpt>
<trkpt lat="39.033615" lon="-3.852968">
<ele>672.0</ele>
<speed>22.1</speed>
<course>125.7</course>
<desc>Speed 22.1 km/h Distance 13.54 km</desc>
<time>2011-07-19T20:27:34.32</time>
<name>2311</name>
</trkpt>
<trkpt lat="39.033583" lon="-3.852912">
<ele>672.0</ele>
<speed>21.7</speed>
<course>122.0</course>
<desc>Speed 21.7 km/h Distance 13.55 km</desc>
<time>2011-07-19T20:27:35.35</time>
<name>2312</name>
</trkpt>
<trkpt lat="39.033555" lon="-3.852853">
<ele>672.0</ele>
<speed>21.5</speed>
<course>125.9</course>
<desc>Speed 21.5 km/h Distance 13.55 km</desc>
<time>2011-07-19T20:27:36.32</time>
<name>2313</name>
</trkpt>
<trkpt lat="39.033525" lon="-3.852800">
<ele>672.0</ele>
<speed>20.6</speed>
<course>143.5</course>
<desc>Speed 20.6 km/h Distance 13.56 km</desc>
<time>2011-07-19T20:27:37.32</time>
<name>2314</name>
</trkpt>
<trkpt lat="39.033490" lon="-3.852767">
<ele>670.0</ele>
<speed>16.6</speed>
<course>181.9</course>
<desc>Speed 16.6 km/h Distance 13.56 km</desc>
<time>2011-07-19T20:27:38.32</time>
<name>2315</name>
</trkpt>
<trkpt lat="39.033373" lon="-3.852772">
<ele>669.0</ele>
<speed>21.0</speed>
<course>184.0</course>
<desc>Speed 21.0 km/h Distance 13.58 km</desc>
<time>2011-07-19T20:27:40.32</time>
<name>2316</name>
</trkpt>
<trkpt lat="39.033318" lon="-3.852777">
<ele>669.0</ele>
<speed>21.9</speed>
<course>184.0</course>
<desc>Speed 21.9 km/h Distance 13.58 km</desc>
<time>2011-07-19T20:27:41.32</time>
<name>2317</name>
</trkpt>
<trkpt lat="39.033263" lon="-3.852782">
<ele>669.0</ele>
<speed>22.2</speed>
<course>183.9</course>
<desc>Speed 22.2 km/h Distance 13.59 km</desc>
<time>2011-07-19T20:27:42.32</time>
<name>2318</name>
</trkpt>
<trkpt lat="39.033207" lon="-3.852787">
<ele>668.5</ele>
<speed>22.8</speed>
<course>181.1</course>
<desc>Speed 22.8 km/h Distance 13.59 km</desc>
<time>2011-07-19T20:27:43.34</time>
<name>2319</name>
</trkpt>
<trkpt lat="39.033148" lon="-3.852788">
<ele>668.5</ele>
<speed>23.2</speed>
<course>182.5</course>
<desc>Speed 23.2 km/h Distance 13.60 km</desc>
<time>2011-07-19T20:27:44.32</time>
<name>2320</name>
</trkpt>
<trkpt lat="39.033088" lon="-3.852792">
<ele>668.5</ele>
<speed>23.7</speed>
<course>183.8</course>
<desc>Speed 23.7 km/h Distance 13.61 km</desc>
<time>2011-07-19T20:27:45.32</time>
<name>2321</name>
</trkpt>
<trkpt lat="39.033028" lon="-3.852797">
<ele>668.5</ele>
<speed>23.9</speed>
<course>183.6</course>
<desc>Speed 23.9 km/h Distance 13.61 km</desc>
<time>2011-07-19T20:27:46.32</time>
<name>2322</name>
</trkpt>
<trkpt lat="39.032968" lon="-3.852802">
<ele>669.0</ele>
<speed>24.0</speed>
<course>184.9</course>
<desc>Speed 24.0 km/h Distance 13.62 km</desc>
<time>2011-07-19T20:27:47.32</time>
<name>2323</name>
</trkpt>
<trkpt lat="39.032908" lon="-3.852808">
<ele>669.0</ele>
<speed>24.0</speed>
<course>185.1</course>
<desc>Speed 24.0 km/h Distance 13.63 km</desc>
<time>2011-07-19T20:27:48.31</time>
<name>2324</name>
</trkpt>
<trkpt lat="39.032850" lon="-3.852815">
<ele>669.0</ele>
<speed>24.0</speed>
<course>183.8</course>
<desc>Speed 24.0 km/h Distance 13.63 km</desc>
<time>2011-07-19T20:27:49.32</time>
<name>2325</name>
</trkpt>
<trkpt lat="39.032790" lon="-3.852820">
<ele>669.0</ele>
<speed>24.0</speed>
<course>183.7</course>
<desc>Speed 24.0 km/h Distance 13.64 km</desc>
<time>2011-07-19T20:27:50.32</time>
<name>2326</name>
</trkpt>
<trkpt lat="39.032730" lon="-3.852825">
<ele>669.0</ele>
<speed>24.2</speed>
<course>182.5</course>
<desc>Speed 24.2 km/h Distance 13.65 km</desc>
<time>2011-07-19T20:27:51.32</time>
<name>2327</name>
</trkpt>
<trkpt lat="39.032670" lon="-3.852828">
<ele>669.0</ele>
<speed>24.2</speed>
<course>185.0</course>
<desc>Speed 24.2 km/h Distance 13.65 km</desc>
<time>2011-07-19T20:27:52.32</time>
<name>2328</name>
</trkpt>
<trkpt lat="39.032610" lon="-3.852835">
<ele>669.0</ele>
<speed>24.3</speed>
<course>188.6</course>
<desc>Speed 24.3 km/h Distance 13.66 km</desc>
<time>2011-07-19T20:27:53.32</time>
<name>2329</name>
</trkpt>
<trkpt lat="39.032550" lon="-3.852847">
<ele>669.0</ele>
<speed>24.7</speed>
<course>191.0</course>
<desc>Speed 24.7 km/h Distance 13.67 km</desc>
<time>2011-07-19T20:27:54.32</time>
<name>2330</name>
</trkpt>
<trkpt lat="39.032490" lon="-3.852862">
<ele>669.0</ele>
<speed>24.6</speed>
<course>188.6</course>
<desc>Speed 24.6 km/h Distance 13.67 km</desc>
<time>2011-07-19T20:27:55.31</time>
<name>2331</name>
</trkpt>
<trkpt lat="39.032430" lon="-3.852873">
<ele>669.5</ele>
<speed>24.6</speed>
<course>187.2</course>
<desc>Speed 24.6 km/h Distance 13.68 km</desc>
<time>2011-07-19T20:27:56.32</time>
<name>2332</name>
</trkpt>
<trkpt lat="39.032368" lon="-3.852883">
<ele>669.5</ele>
<speed>24.5</speed>
<course>186.1</course>
<desc>Speed 24.5 km/h Distance 13.69 km</desc>
<time>2011-07-19T20:27:57.32</time>
<name>2333</name>
</trkpt>
<trkpt lat="39.032308" lon="-3.852892">
<ele>669.5</ele>
<speed>24.6</speed>
<course>184.8</course>
<desc>Speed 24.6 km/h Distance 13.69 km</desc>
<time>2011-07-19T20:27:58.32</time>
<name>2334</name>
</trkpt>
<trkpt lat="39.032247" lon="-3.852898">
<ele>669.5</ele>
<speed>25.2</speed>
<course>184.6</course>
<desc>Speed 25.2 km/h Distance 13.70 km</desc>
<time>2011-07-19T20:27:59.32</time>
<name>2335</name>
</trkpt>
<trkpt lat="39.032182" lon="-3.852905">
<ele>670.0</ele>
<speed>25.9</speed>
<course>184.7</course>
<desc>Speed 25.9 km/h Distance 13.71 km</desc>
<time>2011-07-19T20:28:00.32</time>
<name>2336</name>
</trkpt>
<trkpt lat="39.032118" lon="-3.852912">
<ele>669.5</ele>
<speed>26.2</speed>
<course>184.4</course>
<desc>Speed 26.2 km/h Distance 13.72 km</desc>
<time>2011-07-19T20:28:01.32</time>
<name>2337</name>
</trkpt>
<trkpt lat="39.032052" lon="-3.852918">
<ele>669.5</ele>
<speed>26.6</speed>
<course>183.3</course>
<desc>Speed 26.6 km/h Distance 13.72 km</desc>
<time>2011-07-19T20:28:02.32</time>
<name>2338</name>
</trkpt>
<trkpt lat="39.031985" lon="-3.852923">
<ele>669.5</ele>
<speed>26.9</speed>
<course>183.4</course>
<desc>Speed 26.9 km/h Distance 13.73 km</desc>
<time>2011-07-19T20:28:03.32</time>
<name>2339</name>
</trkpt>
<trkpt lat="39.031918" lon="-3.852928">
<ele>669.5</ele>
<speed>27.0</speed>
<course>183.4</course>
<desc>Speed 27.0 km/h Distance 13.74 km</desc>
<time>2011-07-19T20:28:04.32</time>
<name>2340</name>
</trkpt>
<trkpt lat="39.031852" lon="-3.852933">
<ele>669.5</ele>
<speed>27.0</speed>
<course>184.4</course>
<desc>Speed 27.0 km/h Distance 13.75 km</desc>
<time>2011-07-19T20:28:05.32</time>
<name>2341</name>
</trkpt>
<trkpt lat="39.031785" lon="-3.852940">
<ele>669.5</ele>
<speed>26.9</speed>
<course>183.3</course>
<desc>Speed 26.9 km/h Distance 13.75 km</desc>
<time>2011-07-19T20:28:06.32</time>
<name>2342</name>
</trkpt>
<trkpt lat="39.031718" lon="-3.852945">
<ele>669.5</ele>
<speed>26.9</speed>
<course>183.3</course>
<desc>Speed 26.9 km/h Distance 13.76 km</desc>
<time>2011-07-19T20:28:07.32</time>
<name>2343</name>
</trkpt>
<trkpt lat="39.031652" lon="-3.852950">
<ele>669.5</ele>
<speed>26.7</speed>
<course>184.4</course>
<desc>Speed 26.7 km/h Distance 13.77 km</desc>
<time>2011-07-19T20:28:08.32</time>
<name>2344</name>
</trkpt>
<trkpt lat="39.031585" lon="-3.852957">
<ele>669.5</ele>
<speed>27.0</speed>
<course>184.4</course>
<desc>Speed 27.0 km/h Distance 13.78 km</desc>
<time>2011-07-19T20:28:09.32</time>
<name>2345</name>
</trkpt>
<trkpt lat="39.031518" lon="-3.852963">
<ele>669.5</ele>
<speed>26.7</speed>
<course>183.5</course>
<desc>Speed 26.7 km/h Distance 13.78 km</desc>
<time>2011-07-19T20:28:10.32</time>
<name>2346</name>
</trkpt>
<trkpt lat="39.031453" lon="-3.852968">
<ele>669.5</ele>
<speed>26.4</speed>
<course>184.6</course>
<desc>Speed 26.4 km/h Distance 13.79 km</desc>
<time>2011-07-19T20:28:11.32</time>
<name>2347</name>
</trkpt>
<trkpt lat="39.031388" lon="-3.852975">
<ele>669.5</ele>
<speed>26.5</speed>
<course>183.3</course>
<desc>Speed 26.5 km/h Distance 13.80 km</desc>
<time>2011-07-19T20:28:12.31</time>
<name>2348</name>
</trkpt>
<trkpt lat="39.031323" lon="-3.852980">
<ele>669.5</ele>
<speed>26.3</speed>
<course>184.5</course>
<desc>Speed 26.3 km/h Distance 13.80 km</desc>
<time>2011-07-19T20:28:13.32</time>
<name>2349</name>
</trkpt>
<trkpt lat="39.031258" lon="-3.852987">
<ele>669.5</ele>
<speed>26.5</speed>
<course>184.4</course>
<desc>Speed 26.5 km/h Distance 13.81 km</desc>
<time>2011-07-19T20:28:14.32</time>
<name>2350</name>
</trkpt>
<trkpt lat="39.031192" lon="-3.852993">
<ele>669.5</ele>
<speed>26.7</speed>
<course>184.5</course>
<desc>Speed 26.7 km/h Distance 13.82 km</desc>
<time>2011-07-19T20:28:15.34</time>
<name>2351</name>
</trkpt>
<trkpt lat="39.031127" lon="-3.853000">
<ele>669.5</ele>
<speed>26.6</speed>
<course>184.4</course>
<desc>Speed 26.6 km/h Distance 13.83 km</desc>
<time>2011-07-19T20:28:16.31</time>
<name>2352</name>
</trkpt>
<trkpt lat="39.031060" lon="-3.853007">
<ele>670.0</ele>
<speed>26.6</speed>
<course>184.6</course>
<desc>Speed 26.6 km/h Distance 13.83 km</desc>
<time>2011-07-19T20:28:17.32</time>
<name>2353</name>
</trkpt>
<trkpt lat="39.030995" lon="-3.853013">
<ele>670.0</ele>
<speed>26.4</speed>
<course>185.5</course>
<desc>Speed 26.4 km/h Distance 13.84 km</desc>
<time>2011-07-19T20:28:18.31</time>
<name>2354</name>
</trkpt>
<trkpt lat="39.030928" lon="-3.853022">
<ele>670.0</ele>
<speed>26.2</speed>
<course>185.7</course>
<desc>Speed 26.2 km/h Distance 13.85 km</desc>
<time>2011-07-19T20:28:19.32</time>
<name>2355</name>
</trkpt>
<trkpt lat="39.030863" lon="-3.853030">
<ele>670.0</ele>
<speed>26.1</speed>
<course>194.9</course>
<desc>Speed 26.1 km/h Distance 13.86 km</desc>
<time>2011-07-19T20:28:20.31</time>
<name>2356</name>
</trkpt>
<trkpt lat="39.030800" lon="-3.853052">
<ele>670.0</ele>
<speed>26.2</speed>
<course>203.9</course>
<desc>Speed 26.2 km/h Distance 13.86 km</desc>
<time>2011-07-19T20:28:21.32</time>
<name>2357</name>
</trkpt>
<trkpt lat="39.030742" lon="-3.853085">
<ele>670.0</ele>
<speed>25.4</speed>
<course>206.7</course>
<desc>Speed 25.4 km/h Distance 13.87 km</desc>
<time>2011-07-19T20:28:22.31</time>
<name>2358</name>
</trkpt>
<trkpt lat="39.030685" lon="-3.853122">
<ele>670.5</ele>
<speed>25.3</speed>
<course>199.5</course>
<desc>Speed 25.3 km/h Distance 13.88 km</desc>
<time>2011-07-19T20:28:23.32</time>
<name>2359</name>
</trkpt>
<trkpt lat="39.030627" lon="-3.853148">
<ele>670.5</ele>
<speed>25.2</speed>
<course>190.7</course>
<desc>Speed 25.2 km/h Distance 13.88 km</desc>
<time>2011-07-19T20:28:24.31</time>
<name>2360</name>
</trkpt>
<trkpt lat="39.030565" lon="-3.853163">
<ele>670.5</ele>
<speed>25.0</speed>
<course>183.5</course>
<desc>Speed 25.0 km/h Distance 13.89 km</desc>
<time>2011-07-19T20:28:25.32</time>
<name>2361</name>
</trkpt>
<trkpt lat="39.030503" lon="-3.853168">
<ele>670.5</ele>
<speed>24.9</speed>
<course>183.6</course>
<desc>Speed 24.9 km/h Distance 13.90 km</desc>
<time>2011-07-19T20:28:26.32</time>
<name>2362</name>
</trkpt>
<trkpt lat="39.030442" lon="-3.853173">
<ele>670.5</ele>
<speed>25.0</speed>
<course>183.6</course>
<desc>Speed 25.0 km/h Distance 13.91 km</desc>
<time>2011-07-19T20:28:27.32</time>
<name>2363</name>
</trkpt>
<trkpt lat="39.030380" lon="-3.853178">
<ele>670.5</ele>
<speed>24.9</speed>
<course>183.6</course>
<desc>Speed 24.9 km/h Distance 13.91 km</desc>
<time>2011-07-19T20:28:28.31</time>
<name>2364</name>
</trkpt>
<trkpt lat="39.030317" lon="-3.853183">
<ele>671.0</ele>
<speed>25.0</speed>
<course>182.5</course>
<desc>Speed 25.0 km/h Distance 13.92 km</desc>
<time>2011-07-19T20:28:29.32</time>
<name>2365</name>
</trkpt>
<trkpt lat="39.030255" lon="-3.853187">
<ele>671.0</ele>
<speed>24.9</speed>
<course>181.4</course>
<desc>Speed 24.9 km/h Distance 13.93 km</desc>
<time>2011-07-19T20:28:30.32</time>
<name>2366</name>
</trkpt>
<trkpt lat="39.030193" lon="-3.853188">
<ele>671.0</ele>
<speed>25.1</speed>
<course>183.6</course>
<desc>Speed 25.1 km/h Distance 13.93 km</desc>
<time>2011-07-19T20:28:31.32</time>
<name>2367</name>
</trkpt>
<trkpt lat="39.030130" lon="-3.853193">
<ele>671.0</ele>
<speed>25.2</speed>
<course>183.6</course>
<desc>Speed 25.2 km/h Distance 13.94 km</desc>
<time>2011-07-19T20:28:32.31</time>
<name>2368</name>
</trkpt>
<trkpt lat="39.030068" lon="-3.853198">
<ele>671.0</ele>
<speed>24.8</speed>
<course>184.7</course>
<desc>Speed 24.8 km/h Distance 13.95 km</desc>
<time>2011-07-19T20:28:33.31</time>
<name>2369</name>
</trkpt>
<trkpt lat="39.030005" lon="-3.853205">
<ele>671.0</ele>
<speed>25.1</speed>
<course>186.0</course>
<desc>Speed 25.1 km/h Distance 13.95 km</desc>
<time>2011-07-19T20:28:34.32</time>
<name>2370</name>
</trkpt>
<trkpt lat="39.029943" lon="-3.853213">
<ele>671.0</ele>
<speed>25.2</speed>
<course>186.0</course>
<desc>Speed 25.2 km/h Distance 13.96 km</desc>
<time>2011-07-19T20:28:35.31</time>
<name>2371</name>
</trkpt>
<trkpt lat="39.029882" lon="-3.853222">
<ele>671.0</ele>
<speed>25.1</speed>
<course>183.6</course>
<desc>Speed 25.1 km/h Distance 13.97 km</desc>
<time>2011-07-19T20:28:36.31</time>
<name>2372</name>
</trkpt>
<trkpt lat="39.029820" lon="-3.853227">
<ele>671.0</ele>
<speed>25.3</speed>
<course>183.6</course>
<desc>Speed 25.3 km/h Distance 13.97 km</desc>
<time>2011-07-19T20:28:37.31</time>
<name>2373</name>
</trkpt>
<trkpt lat="39.029757" lon="-3.853232">
<ele>671.0</ele>
<speed>25.2</speed>
<course>183.6</course>
<desc>Speed 25.2 km/h Distance 13.98 km</desc>
<time>2011-07-19T20:28:38.32</time>
<name>2374</name>
</trkpt>
<trkpt lat="39.029695" lon="-3.853237">
<ele>671.0</ele>
<speed>25.2</speed>
<course>184.8</course>
<desc>Speed 25.2 km/h Distance 13.99 km</desc>
<time>2011-07-19T20:28:39.32</time>
<name>2375</name>
</trkpt>
<trkpt lat="39.029633" lon="-3.853243">
<ele>671.0</ele>
<speed>25.1</speed>
<course>183.6</course>
<desc>Speed 25.1 km/h Distance 14.00 km</desc>
<time>2011-07-19T20:28:40.31</time>
<name>2376</name>
</trkpt>
<trkpt lat="39.029570" lon="-3.853248">
<ele>671.0</ele>
<speed>25.0</speed>
<course>183.6</course>
<desc>Speed 25.0 km/h Distance 14.00 km</desc>
<time>2011-07-19T20:28:41.31</time>
<name>2377</name>
</trkpt>
<trkpt lat="39.029508" lon="-3.853253">
<ele>671.0</ele>
<speed>24.9</speed>
<course>184.8</course>
<desc>Speed 24.9 km/h Distance 14.01 km</desc>
<time>2011-07-19T20:28:42.32</time>
<name>2378</name>
</trkpt>
<trkpt lat="39.029447" lon="-3.853260">
<ele>671.5</ele>
<speed>24.6</speed>
<course>185.0</course>
<desc>Speed 24.6 km/h Distance 14.02 km</desc>
<time>2011-07-19T20:28:43.33</time>
<name>2379</name>
</trkpt>
<trkpt lat="39.029387" lon="-3.853267">
<ele>671.5</ele>
<speed>24.4</speed>
<course>183.8</course>
<desc>Speed 24.4 km/h Distance 14.02 km</desc>
<time>2011-07-19T20:28:44.31</time>
<name>2380</name>
</trkpt>
<trkpt lat="39.029327" lon="-3.853272">
<ele>671.5</ele>
<speed>24.3</speed>
<course>185.0</course>
<desc>Speed 24.3 km/h Distance 14.03 km</desc>
<time>2011-07-19T20:28:45.31</time>
<name>2381</name>
</trkpt>
<trkpt lat="39.029267" lon="-3.853278">
<ele>671.5</ele>
<speed>24.2</speed>
<course>186.0</course>
<desc>Speed 24.2 km/h Distance 14.04 km</desc>
<time>2011-07-19T20:28:46.31</time>
<name>2382</name>
</trkpt>
<trkpt lat="39.029205" lon="-3.853287">
<ele>671.5</ele>
<speed>24.4</speed>
<course>186.1</course>
<desc>Speed 24.4 km/h Distance 14.04 km</desc>
<time>2011-07-19T20:28:47.32</time>
<name>2383</name>
</trkpt>
<trkpt lat="39.029145" lon="-3.853295">
<ele>672.0</ele>
<speed>23.8</speed>
<course>182.5</course>
<desc>Speed 23.8 km/h Distance 14.05 km</desc>
<time>2011-07-19T20:28:48.31</time>
<name>2384</name>
</trkpt>
<trkpt lat="39.029087" lon="-3.853298">
<ele>672.0</ele>
<speed>23.4</speed>
<course>180.9</course>
<desc>Speed 23.4 km/h Distance 14.06 km</desc>
<time>2011-07-19T20:28:49.31</time>
<name>2385</name>
</trkpt>
<trkpt lat="39.029027" lon="-3.853300">
<ele>672.0</ele>
<speed>23.9</speed>
<course>182.3</course>
<desc>Speed 23.9 km/h Distance 14.06 km</desc>
<time>2011-07-19T20:28:50.31</time>
<name>2386</name>
</trkpt>
<trkpt lat="39.028963" lon="-3.853303">
<ele>672.0</ele>
<speed>24.7</speed>
<course>182.4</course>
<desc>Speed 24.7 km/h Distance 14.07 km</desc>
<time>2011-07-19T20:28:51.32</time>
<name>2387</name>
</trkpt>
<trkpt lat="39.028902" lon="-3.853307">
<ele>672.0</ele>
<speed>24.6</speed>
<course>182.3</course>
<desc>Speed 24.6 km/h Distance 14.08 km</desc>
<time>2011-07-19T20:28:52.31</time>
<name>2388</name>
</trkpt>
<trkpt lat="39.028838" lon="-3.853310">
<ele>672.0</ele>
<speed>24.8</speed>
<course>183.6</course>
<desc>Speed 24.8 km/h Distance 14.08 km</desc>
<time>2011-07-19T20:28:53.31</time>
<name>2389</name>
</trkpt>
<trkpt lat="39.028775" lon="-3.853315">
<ele>672.0</ele>
<speed>25.0</speed>
<course>183.6</course>
<desc>Speed 25.0 km/h Distance 14.09 km</desc>
<time>2011-07-19T20:28:54.31</time>
<name>2390</name>
</trkpt>
<trkpt lat="39.028712" lon="-3.853320">
<ele>672.0</ele>
<speed>25.2</speed>
<course>182.2</course>
<desc>Speed 25.2 km/h Distance 14.10 km</desc>
<time>2011-07-19T20:28:55.32</time>
<name>2391</name>
</trkpt>
<trkpt lat="39.028647" lon="-3.853323">
<ele>672.0</ele>
<speed>25.5</speed>
<course>182.2</course>
<desc>Speed 25.5 km/h Distance 14.11 km</desc>
<time>2011-07-19T20:28:56.31</time>
<name>2392</name>
</trkpt>
<trkpt lat="39.028582" lon="-3.853327">
<ele>672.0</ele>
<speed>26.1</speed>
<course>183.2</course>
<desc>Speed 26.1 km/h Distance 14.11 km</desc>
<time>2011-07-19T20:28:57.31</time>
<name>2393</name>
</trkpt>
<trkpt lat="39.028513" lon="-3.853332">
<ele>671.5</ele>
<speed>27.0</speed>
<course>179.8</course>
<desc>Speed 27.0 km/h Distance 14.12 km</desc>
<time>2011-07-19T20:28:58.31</time>
<name>2394</name>
</trkpt>
<trkpt lat="39.028445" lon="-3.853332">
<ele>671.5</ele>
<speed>27.4</speed>
<course>176.7</course>
<desc>Speed 27.4 km/h Distance 14.13 km</desc>
<time>2011-07-19T20:28:59.32</time>
<name>2395</name>
</trkpt>
<trkpt lat="39.028375" lon="-3.853327">
<ele>671.5</ele>
<speed>27.5</speed>
<course>169.0</course>
<desc>Speed 27.5 km/h Distance 14.14 km</desc>
<time>2011-07-19T20:29:00.31</time>
<name>2396</name>
</trkpt>
<trkpt lat="39.028308" lon="-3.853310">
<ele>671.5</ele>
<speed>27.5</speed>
<course>161.3</course>
<desc>Speed 27.5 km/h Distance 14.14 km</desc>
<time>2011-07-19T20:29:01.31</time>
<name>2397</name>
</trkpt>
<trkpt lat="39.028243" lon="-3.853282">
<ele>671.5</ele>
<speed>27.2</speed>
<course>153.6</course>
<desc>Speed 27.2 km/h Distance 14.15 km</desc>
<time>2011-07-19T20:29:02.31</time>
<name>2398</name>
</trkpt>
<trkpt lat="39.028183" lon="-3.853243">
<ele>671.5</ele>
<speed>26.6</speed>
<course>153.6</course>
<desc>Speed 26.6 km/h Distance 14.16 km</desc>
<time>2011-07-19T20:29:03.31</time>
<name>2399</name>
</trkpt>
<trkpt lat="39.028123" lon="-3.853205">
<ele>672.0</ele>
<speed>26.1</speed>
<course>155.6</course>
<desc>Speed 26.1 km/h Distance 14.17 km</desc>
<time>2011-07-19T20:29:04.31</time>
<name>2400</name>
</trkpt>
<trkpt lat="39.028063" lon="-3.853170">
<ele>672.0</ele>
<speed>26.2</speed>
<course>156.1</course>
<desc>Speed 26.2 km/h Distance 14.17 km</desc>
<time>2011-07-19T20:29:05.32</time>
<name>2401</name>
</trkpt>
<trkpt lat="39.028005" lon="-3.853137">
<ele>672.0</ele>
<speed>26.0</speed>
<course>157.7</course>
<desc>Speed 26.0 km/h Distance 14.18 km</desc>
<time>2011-07-19T20:29:06.31</time>
<name>2402</name>
</trkpt>
<trkpt lat="39.027945" lon="-3.853105">
<ele>671.5</ele>
<speed>26.1</speed>
<course>160.4</course>
<desc>Speed 26.1 km/h Distance 14.19 km</desc>
<time>2011-07-19T20:29:07.31</time>
<name>2403</name>
</trkpt>
<trkpt lat="39.027883" lon="-3.853077">
<ele>671.5</ele>
<speed>26.4</speed>
<course>160.9</course>
<desc>Speed 26.4 km/h Distance 14.19 km</desc>
<time>2011-07-19T20:29:08.31</time>
<name>2404</name>
</trkpt>
<trkpt lat="39.027823" lon="-3.853050">
<ele>671.5</ele>
<speed>25.8</speed>
<course>162.5</course>
<desc>Speed 25.8 km/h Distance 14.20 km</desc>
<time>2011-07-19T20:29:09.31</time>
<name>2405</name>
</trkpt>
<trkpt lat="39.027762" lon="-3.853025">
<ele>672.0</ele>
<speed>25.7</speed>
<course>163.2</course>
<desc>Speed 25.7 km/h Distance 14.21 km</desc>
<time>2011-07-19T20:29:10.31</time>
<name>2406</name>
</trkpt>
<trkpt lat="39.027702" lon="-3.853002">
<ele>672.0</ele>
<speed>25.4</speed>
<course>163.2</course>
<desc>Speed 25.4 km/h Distance 14.22 km</desc>
<time>2011-07-19T20:29:11.31</time>
<name>2407</name>
</trkpt>
<trkpt lat="39.027642" lon="-3.852978">
<ele>672.0</ele>
<speed>24.8</speed>
<course>163.9</course>
<desc>Speed 24.8 km/h Distance 14.22 km</desc>
<time>2011-07-19T20:29:12.31</time>
<name>2408</name>
</trkpt>
<trkpt lat="39.027583" lon="-3.852957">
<ele>672.0</ele>
<speed>24.7</speed>
<course>165.5</course>
<desc>Speed 24.7 km/h Distance 14.23 km</desc>
<time>2011-07-19T20:29:13.31</time>
<name>2409</name>
</trkpt>
<trkpt lat="39.027523" lon="-3.852937">
<ele>672.0</ele>
<speed>25.0</speed>
<course>169.6</course>
<desc>Speed 25.0 km/h Distance 14.24 km</desc>
<time>2011-07-19T20:29:14.31</time>
<name>2410</name>
</trkpt>
<trkpt lat="39.027460" lon="-3.852922">
<ele>672.0</ele>
<speed>25.3</speed>
<course>169.3</course>
<desc>Speed 25.3 km/h Distance 14.24 km</desc>
<time>2011-07-19T20:29:15.31</time>
<name>2411</name>
</trkpt>
<trkpt lat="39.027398" lon="-3.852907">
<ele>672.0</ele>
<speed>25.2</speed>
<course>171.6</course>
<desc>Speed 25.2 km/h Distance 14.25 km</desc>
<time>2011-07-19T20:29:16.31</time>
<name>2412</name>
</trkpt>
<trkpt lat="39.027337" lon="-3.852895">
<ele>672.0</ele>
<speed>25.1</speed>
<course>170.5</course>
<desc>Speed 25.1 km/h Distance 14.26 km</desc>
<time>2011-07-19T20:29:17.31</time>
<name>2413</name>
</trkpt>
<trkpt lat="39.027275" lon="-3.852882">
<ele>672.0</ele>
<speed>24.7</speed>
<course>170.5</course>
<desc>Speed 24.7 km/h Distance 14.26 km</desc>
<time>2011-07-19T20:29:18.31</time>
<name>2414</name>
</trkpt>
<trkpt lat="39.027213" lon="-3.852868">
<ele>672.5</ele>
<speed>24.7</speed>
<course>169.3</course>
<desc>Speed 24.7 km/h Distance 14.27 km</desc>
<time>2011-07-19T20:29:19.31</time>
<name>2415</name>
</trkpt>
<trkpt lat="39.027152" lon="-3.852853">
<ele>672.5</ele>
<speed>24.4</speed>
<course>169.0</course>
<desc>Speed 24.4 km/h Distance 14.28 km</desc>
<time>2011-07-19T20:29:20.31</time>
<name>2416</name>
</trkpt>
<trkpt lat="39.027092" lon="-3.852838">
<ele>672.5</ele>
<speed>24.2</speed>
<course>165.1</course>
<desc>Speed 24.2 km/h Distance 14.29 km</desc>
<time>2011-07-19T20:29:21.31</time>
<name>2417</name>
</trkpt>
<trkpt lat="39.027033" lon="-3.852818">
<ele>672.5</ele>
<speed>24.3</speed>
<course>162.3</course>
<desc>Speed 24.3 km/h Distance 14.29 km</desc>
<time>2011-07-19T20:29:22.31</time>
<name>2418</name>
</trkpt>
<trkpt lat="39.026977" lon="-3.852795">
<ele>672.5</ele>
<speed>24.2</speed>
<course>162.3</course>
<desc>Speed 24.2 km/h Distance 14.30 km</desc>
<time>2011-07-19T20:29:23.31</time>
<name>2419</name>
</trkpt>
<trkpt lat="39.026920" lon="-3.852772">
<ele>672.5</ele>
<speed>23.7</speed>
<course>160.5</course>
<desc>Speed 23.7 km/h Distance 14.31 km</desc>
<time>2011-07-19T20:29:24.31</time>
<name>2420</name>
</trkpt>
<trkpt lat="39.026865" lon="-3.852747">
<ele>672.5</ele>
<speed>23.6</speed>
<course>158.2</course>
<desc>Speed 23.6 km/h Distance 14.31 km</desc>
<time>2011-07-19T20:29:25.31</time>
<name>2421</name>
</trkpt>
<trkpt lat="39.026810" lon="-3.852718">
<ele>672.5</ele>
<speed>23.8</speed>
<course>158.2</course>
<desc>Speed 23.8 km/h Distance 14.32 km</desc>
<time>2011-07-19T20:29:26.31</time>
<name>2422</name>
</trkpt>
<trkpt lat="39.026755" lon="-3.852690">
<ele>672.5</ele>
<speed>23.8</speed>
<course>156.4</course>
<desc>Speed 23.8 km/h Distance 14.33 km</desc>
<time>2011-07-19T20:29:27.31</time>
<name>2423</name>
</trkpt>
<trkpt lat="39.026702" lon="-3.852660">
<ele>672.5</ele>
<speed>24.0</speed>
<course>154.8</course>
<desc>Speed 24.0 km/h Distance 14.33 km</desc>
<time>2011-07-19T20:29:28.31</time>
<name>2424</name>
</trkpt>
<trkpt lat="39.026647" lon="-3.852627">
<ele>672.5</ele>
<speed>24.1</speed>
<course>153.7</course>
<desc>Speed 24.1 km/h Distance 14.34 km</desc>
<time>2011-07-19T20:29:29.31</time>
<name>2425</name>
</trkpt>
<trkpt lat="39.026592" lon="-3.852592">
<ele>672.5</ele>
<speed>24.6</speed>
<course>154.8</course>
<desc>Speed 24.6 km/h Distance 14.35 km</desc>
<time>2011-07-19T20:29:30.31</time>
<name>2426</name>
</trkpt>
<trkpt lat="39.026537" lon="-3.852558">
<ele>672.0</ele>
<speed>25.1</speed>
<course>153.3</course>
<desc>Speed 25.1 km/h Distance 14.35 km</desc>
<time>2011-07-19T20:29:31.31</time>
<name>2427</name>
</trkpt>
<trkpt lat="39.026480" lon="-3.852522">
<ele>672.0</ele>
<speed>25.3</speed>
<course>155.0</course>
<desc>Speed 25.3 km/h Distance 14.36 km</desc>
<time>2011-07-19T20:29:32.31</time>
<name>2428</name>
</trkpt>
<trkpt lat="39.026422" lon="-3.852487">
<ele>672.0</ele>
<speed>25.8</speed>
<course>154.0</course>
<desc>Speed 25.8 km/h Distance 14.37 km</desc>
<time>2011-07-19T20:29:33.31</time>
<name>2429</name>
</trkpt>
<trkpt lat="39.026363" lon="-3.852450">
<ele>671.5</ele>
<speed>26.1</speed>
<course>152.0</course>
<desc>Speed 26.1 km/h Distance 14.37 km</desc>
<time>2011-07-19T20:29:34.31</time>
<name>2430</name>
</trkpt>
<trkpt lat="39.026305" lon="-3.852410">
<ele>671.5</ele>
<speed>26.9</speed>
<course>150.5</course>
<desc>Speed 26.9 km/h Distance 14.38 km</desc>
<time>2011-07-19T20:29:35.31</time>
<name>2431</name>
</trkpt>
<trkpt lat="39.026243" lon="-3.852365">
<ele>671.0</ele>
<speed>28.3</speed>
<course>148.7</course>
<desc>Speed 28.3 km/h Distance 14.39 km</desc>
<time>2011-07-19T20:29:36.31</time>
<name>2432</name>
</trkpt>
<trkpt lat="39.026182" lon="-3.852317">
<ele>670.5</ele>
<speed>28.9</speed>
<course>149.3</course>
<desc>Speed 28.9 km/h Distance 14.40 km</desc>
<time>2011-07-19T20:29:37.31</time>
<name>2433</name>
</trkpt>
<trkpt lat="39.026118" lon="-3.852268">
<ele>670.5</ele>
<speed>29.1</speed>
<course>150.5</course>
<desc>Speed 29.1 km/h Distance 14.40 km</desc>
<time>2011-07-19T20:29:38.31</time>
<name>2434</name>
</trkpt>
<trkpt lat="39.026057" lon="-3.852223">
<ele>670.5</ele>
<speed>28.7</speed>
<course>152.9</course>
<desc>Speed 28.7 km/h Distance 14.41 km</desc>
<time>2011-07-19T20:29:39.31</time>
<name>2435</name>
</trkpt>
<trkpt lat="39.025993" lon="-3.852182">
<ele>670.5</ele>
<speed>28.5</speed>
<course>153.3</course>
<desc>Speed 28.5 km/h Distance 14.42 km</desc>
<time>2011-07-19T20:29:40.31</time>
<name>2436</name>
</trkpt>
<trkpt lat="39.025932" lon="-3.852142">
<ele>670.5</ele>
<speed>27.7</speed>
<course>154.2</course>
<desc>Speed 27.7 km/h Distance 14.43 km</desc>
<time>2011-07-19T20:29:41.31</time>
<name>2437</name>
</trkpt>
<trkpt lat="39.025870" lon="-3.852103">
<ele>670.5</ele>
<speed>27.4</speed>
<course>153.6</course>
<desc>Speed 27.4 km/h Distance 14.44 km</desc>
<time>2011-07-19T20:29:42.31</time>
<name>2438</name>
</trkpt>
<trkpt lat="39.025810" lon="-3.852065">
<ele>670.5</ele>
<speed>26.9</speed>
<course>151.6</course>
<desc>Speed 26.9 km/h Distance 14.44 km</desc>
<time>2011-07-19T20:29:43.33</time>
<name>2439</name>
</trkpt>
<trkpt lat="39.025755" lon="-3.852027">
<ele>670.5</ele>
<speed>25.5</speed>
<course>154.8</course>
<desc>Speed 25.5 km/h Distance 14.45 km</desc>
<time>2011-07-19T20:29:44.31</time>
<name>2440</name>
</trkpt>
<trkpt lat="39.025700" lon="-3.851993">
<ele>671.0</ele>
<speed>24.3</speed>
<course>153.4</course>
<desc>Speed 24.3 km/h Distance 14.46 km</desc>
<time>2011-07-19T20:29:45.31</time>
<name>2441</name>
</trkpt>
<trkpt lat="39.025648" lon="-3.851960">
<ele>671.0</ele>
<speed>23.7</speed>
<course>152.2</course>
<desc>Speed 23.7 km/h Distance 14.46 km</desc>
<time>2011-07-19T20:29:46.31</time>
<name>2442</name>
</trkpt>
<trkpt lat="39.025597" lon="-3.851925">
<ele>671.0</ele>
<speed>23.7</speed>
<course>153.4</course>
<desc>Speed 23.7 km/h Distance 14.47 km</desc>
<time>2011-07-19T20:29:47.31</time>
<name>2443</name>
</trkpt>
<trkpt lat="39.025545" lon="-3.851892">
<ele>671.0</ele>
<speed>24.1</speed>
<course>158.2</course>
<desc>Speed 24.1 km/h Distance 14.48 km</desc>
<time>2011-07-19T20:29:48.30</time>
<name>2444</name>
</trkpt>
<trkpt lat="39.025490" lon="-3.851863">
<ele>671.0</ele>
<speed>24.3</speed>
<course>159.4</course>
<desc>Speed 24.3 km/h Distance 14.48 km</desc>
<time>2011-07-19T20:29:49.31</time>
<name>2445</name>
</trkpt>
<trkpt lat="39.025435" lon="-3.851837">
<ele>671.0</ele>
<speed>24.7</speed>
<course>160.9</course>
<desc>Speed 24.7 km/h Distance 14.49 km</desc>
<time>2011-07-19T20:29:50.31</time>
<name>2446</name>
</trkpt>
<trkpt lat="39.025375" lon="-3.851810">
<ele>671.0</ele>
<speed>25.2</speed>
<course>160.9</course>
<desc>Speed 25.2 km/h Distance 14.50 km</desc>
<time>2011-07-19T20:29:51.31</time>
<name>2447</name>
</trkpt>
<trkpt lat="39.025315" lon="-3.851783">
<ele>670.5</ele>
<speed>25.5</speed>
<course>157.1</course>
<desc>Speed 25.5 km/h Distance 14.50 km</desc>
<time>2011-07-19T20:29:52.31</time>
<name>2448</name>
</trkpt>
<trkpt lat="39.025257" lon="-3.851752">
<ele>670.5</ele>
<speed>26.0</speed>
<course>155.6</course>
<desc>Speed 26.0 km/h Distance 14.51 km</desc>
<time>2011-07-19T20:29:53.31</time>
<name>2449</name>
</trkpt>
<trkpt lat="39.025197" lon="-3.851717">
<ele>670.5</ele>
<speed>26.1</speed>
<course>154.4</course>
<desc>Speed 26.1 km/h Distance 14.52 km</desc>
<time>2011-07-19T20:29:54.31</time>
<name>2450</name>
</trkpt>
<trkpt lat="39.025140" lon="-3.851682">
<ele>670.5</ele>
<speed>25.7</speed>
<course>156.1</course>
<desc>Speed 25.7 km/h Distance 14.53 km</desc>
<time>2011-07-19T20:29:55.31</time>
<name>2451</name>
</trkpt>
<trkpt lat="39.025082" lon="-3.851648">
<ele>670.5</ele>
<speed>25.6</speed>
<course>156.7</course>
<desc>Speed 25.6 km/h Distance 14.53 km</desc>
<time>2011-07-19T20:29:56.31</time>
<name>2452</name>
</trkpt>
<trkpt lat="39.025022" lon="-3.851615">
<ele>670.5</ele>
<speed>25.8</speed>
<course>157.7</course>
<desc>Speed 25.8 km/h Distance 14.54 km</desc>
<time>2011-07-19T20:29:57.31</time>
<name>2453</name>
</trkpt>
<trkpt lat="39.024962" lon="-3.851583">
<ele>670.5</ele>
<speed>26.0</speed>
<course>156.1</course>
<desc>Speed 26.0 km/h Distance 14.55 km</desc>
<time>2011-07-19T20:29:58.31</time>
<name>2454</name>
</trkpt>
<trkpt lat="39.024903" lon="-3.851550">
<ele>670.5</ele>
<speed>25.8</speed>
<course>157.1</course>
<desc>Speed 25.8 km/h Distance 14.55 km</desc>
<time>2011-07-19T20:29:59.31</time>
<name>2455</name>
</trkpt>
<trkpt lat="39.024845" lon="-3.851518">
<ele>670.5</ele>
<speed>25.5</speed>
<course>157.1</course>
<desc>Speed 25.5 km/h Distance 14.56 km</desc>
<time>2011-07-19T20:30:00.31</time>
<name>2456</name>
</trkpt>
<trkpt lat="39.024787" lon="-3.851487">
<ele>670.5</ele>
<speed>25.5</speed>
<course>154.4</course>
<desc>Speed 25.5 km/h Distance 14.57 km</desc>
<time>2011-07-19T20:30:01.31</time>
<name>2457</name>
</trkpt>
<trkpt lat="39.024730" lon="-3.851452">
<ele>670.5</ele>
<speed>24.9</speed>
<course>155.4</course>
<desc>Speed 24.9 km/h Distance 14.57 km</desc>
<time>2011-07-19T20:30:02.31</time>
<name>2458</name>
</trkpt>
<trkpt lat="39.024673" lon="-3.851418">
<ele>670.5</ele>
<speed>24.7</speed>
<course>157.1</course>
<desc>Speed 24.7 km/h Distance 14.58 km</desc>
<time>2011-07-19T20:30:03.31</time>
<name>2459</name>
</trkpt>
<trkpt lat="39.024615" lon="-3.851387">
<ele>670.5</ele>
<speed>25.1</speed>
<course>154.4</course>
<desc>Speed 25.1 km/h Distance 14.59 km</desc>
<time>2011-07-19T20:30:04.31</time>
<name>2460</name>
</trkpt>
<trkpt lat="39.024558" lon="-3.851352">
<ele>670.5</ele>
<speed>25.3</speed>
<course>153.3</course>
<desc>Speed 25.3 km/h Distance 14.60 km</desc>
<time>2011-07-19T20:30:05.31</time>
<name>2461</name>
</trkpt>
<trkpt lat="39.024502" lon="-3.851315">
<ele>670.5</ele>
<speed>25.5</speed>
<course>155.0</course>
<desc>Speed 25.5 km/h Distance 14.60 km</desc>
<time>2011-07-19T20:30:06.31</time>
<name>2462</name>
</trkpt>
<trkpt lat="39.024443" lon="-3.851280">
<ele>670.0</ele>
<speed>26.0</speed>
<course>158.8</course>
<desc>Speed 26.0 km/h Distance 14.61 km</desc>
<time>2011-07-19T20:30:07.31</time>
<name>2463</name>
</trkpt>
<trkpt lat="39.024380" lon="-3.851248">
<ele>670.0</ele>
<speed>26.6</speed>
<course>160.9</course>
<desc>Speed 26.6 km/h Distance 14.62 km</desc>
<time>2011-07-19T20:30:08.30</time>
<name>2464</name>
</trkpt>
<trkpt lat="39.024317" lon="-3.851220">
<ele>670.0</ele>
<speed>26.9</speed>
<course>163.0</course>
<desc>Speed 26.9 km/h Distance 14.63 km</desc>
<time>2011-07-19T20:30:09.31</time>
<name>2465</name>
</trkpt>
<trkpt lat="39.024253" lon="-3.851195">
<ele>670.0</ele>
<speed>26.9</speed>
<course>165.5</course>
<desc>Speed 26.9 km/h Distance 14.63 km</desc>
<time>2011-07-19T20:30:10.31</time>
<name>2466</name>
</trkpt>
<trkpt lat="39.024188" lon="-3.851173">
<ele>669.5</ele>
<speed>26.9</speed>
<course>166.9</course>
<desc>Speed 26.9 km/h Distance 14.64 km</desc>
<time>2011-07-19T20:30:11.31</time>
<name>2467</name>
</trkpt>
<trkpt lat="39.024122" lon="-3.851153">
<ele>669.5</ele>
<speed>27.5</speed>
<course>168.2</course>
<desc>Speed 27.5 km/h Distance 14.65 km</desc>
<time>2011-07-19T20:30:12.31</time>
<name>2468</name>
</trkpt>
<trkpt lat="39.024053" lon="-3.851135">
<ele>669.5</ele>
<speed>28.0</speed>
<course>169.3</course>
<desc>Speed 28.0 km/h Distance 14.66 km</desc>
<time>2011-07-19T20:30:13.31</time>
<name>2469</name>
</trkpt>
<trkpt lat="39.023985" lon="-3.851118">
<ele>669.5</ele>
<speed>28.0</speed>
<course>171.6</course>
<desc>Speed 28.0 km/h Distance 14.66 km</desc>
<time>2011-07-19T20:30:14.31</time>
<name>2470</name>
</trkpt>
<trkpt lat="39.023915" lon="-3.851105">
<ele>669.5</ele>
<speed>27.7</speed>
<course>173.5</course>
<desc>Speed 27.7 km/h Distance 14.67 km</desc>
<time>2011-07-19T20:30:15.31</time>
<name>2471</name>
</trkpt>
<trkpt lat="39.023847" lon="-3.851095">
<ele>669.5</ele>
<speed>27.6</speed>
<course>177.7</course>
<desc>Speed 27.6 km/h Distance 14.68 km</desc>
<time>2011-07-19T20:30:16.30</time>
<name>2472</name>
</trkpt>
<trkpt lat="39.023778" lon="-3.851092">
<ele>669.5</ele>
<speed>27.3</speed>
<course>181.2</course>
<desc>Speed 27.3 km/h Distance 14.69 km</desc>
<time>2011-07-19T20:30:17.29</time>
<name>2473</name>
</trkpt>
<trkpt lat="39.023712" lon="-3.851093">
<ele>669.5</ele>
<speed>27.0</speed>
<course>181.9</course>
<desc>Speed 27.0 km/h Distance 14.69 km</desc>
<time>2011-07-19T20:30:18.43</time>
<name>2474</name>
</trkpt>
<trkpt lat="39.023517" lon="-3.851102">
<ele>669.5</ele>
<speed>25.8</speed>
<course>177.8</course>
<desc>Speed 25.8 km/h Distance 14.72 km</desc>
<time>2011-07-19T20:30:20.65</time>
<name>2475</name>
</trkpt>
<trkpt lat="39.023452" lon="-3.851098">
<ele>669.5</ele>
<speed>25.9</speed>
<course>175.4</course>
<desc>Speed 25.9 km/h Distance 14.72 km</desc>
<time>2011-07-19T20:30:21.65</time>
<name>2476</name>
</trkpt>
<trkpt lat="39.023388" lon="-3.851092">
<ele>669.5</ele>
<speed>26.0</speed>
<course>175.4</course>
<desc>Speed 26.0 km/h Distance 14.73 km</desc>
<time>2011-07-19T20:30:22.65</time>
<name>2477</name>
</trkpt>
<trkpt lat="39.023323" lon="-3.851085">
<ele>670.0</ele>
<speed>25.9</speed>
<course>173.2</course>
<desc>Speed 25.9 km/h Distance 14.74 km</desc>
<time>2011-07-19T20:30:23.65</time>
<name>2478</name>
</trkpt>
<trkpt lat="39.023258" lon="-3.851075">
<ele>670.0</ele>
<speed>25.9</speed>
<course>175.3</course>
<desc>Speed 25.9 km/h Distance 14.74 km</desc>
<time>2011-07-19T20:30:24.65</time>
<name>2479</name>
</trkpt>
<trkpt lat="39.023195" lon="-3.851068">
<ele>669.5</ele>
<speed>25.7</speed>
<course>177.7</course>
<desc>Speed 25.7 km/h Distance 14.75 km</desc>
<time>2011-07-19T20:30:25.65</time>
<name>2480</name>
</trkpt>
<trkpt lat="39.023132" lon="-3.851065">
<ele>669.5</ele>
<speed>25.6</speed>
<course>176.4</course>
<desc>Speed 25.6 km/h Distance 14.76 km</desc>
<time>2011-07-19T20:30:26.65</time>
<name>2481</name>
</trkpt>
<trkpt lat="39.023068" lon="-3.851060">
<ele>669.5</ele>
<speed>25.8</speed>
<course>175.3</course>
<desc>Speed 25.8 km/h Distance 14.77 km</desc>
<time>2011-07-19T20:30:27.65</time>
<name>2482</name>
</trkpt>
<trkpt lat="39.023005" lon="-3.851053">
<ele>669.5</ele>
<speed>25.6</speed>
<course>175.3</course>
<desc>Speed 25.6 km/h Distance 14.77 km</desc>
<time>2011-07-19T20:30:28.65</time>
<name>2483</name>
</trkpt>
<trkpt lat="39.022942" lon="-3.851047">
<ele>670.0</ele>
<speed>25.3</speed>
<course>171.4</course>
<desc>Speed 25.3 km/h Distance 14.78 km</desc>
<time>2011-07-19T20:30:29.65</time>
<name>2484</name>
</trkpt>
<trkpt lat="39.022882" lon="-3.851035">
<ele>670.0</ele>
<speed>24.3</speed>
<course>155.2</course>
<desc>Speed 24.3 km/h Distance 14.79 km</desc>
<time>2011-07-19T20:30:30.65</time>
<name>2485</name>
</trkpt>
<trkpt lat="39.022828" lon="-3.851003">
<ele>670.0</ele>
<speed>23.1</speed>
<course>142.2</course>
<desc>Speed 23.1 km/h Distance 14.79 km</desc>
<time>2011-07-19T20:30:31.65</time>
<name>2486</name>
</trkpt>
<trkpt lat="39.022783" lon="-3.850958">
<ele>670.5</ele>
<speed>22.8</speed>
<course>132.8</course>
<desc>Speed 22.8 km/h Distance 14.80 km</desc>
<time>2011-07-19T20:30:32.65</time>
<name>2487</name>
</trkpt>
<trkpt lat="39.022745" lon="-3.850905">
<ele>671.0</ele>
<speed>22.7</speed>
<course>129.8</course>
<desc>Speed 22.7 km/h Distance 14.81 km</desc>
<time>2011-07-19T20:30:33.65</time>
<name>2488</name>
</trkpt>
<trkpt lat="39.022708" lon="-3.850848">
<ele>671.0</ele>
<speed>22.6</speed>
<course>129.0</course>
<desc>Speed 22.6 km/h Distance 14.81 km</desc>
<time>2011-07-19T20:30:34.65</time>
<name>2489</name>
</trkpt>
<trkpt lat="39.022672" lon="-3.850790">
<ele>671.0</ele>
<speed>23.0</speed>
<course>124.8</course>
<desc>Speed 23.0 km/h Distance 14.82 km</desc>
<time>2011-07-19T20:30:35.65</time>
<name>2490</name>
</trkpt>
<trkpt lat="39.022638" lon="-3.850728">
<ele>671.0</ele>
<speed>23.3</speed>
<course>123.4</course>
<desc>Speed 23.3 km/h Distance 14.82 km</desc>
<time>2011-07-19T20:30:36.65</time>
<name>2491</name>
</trkpt>
<trkpt lat="39.022605" lon="-3.850663">
<ele>671.0</ele>
<speed>24.2</speed>
<course>121.5</course>
<desc>Speed 24.2 km/h Distance 14.83 km</desc>
<time>2011-07-19T20:30:37.65</time>
<name>2492</name>
</trkpt>
<trkpt lat="39.022572" lon="-3.850593">
<ele>671.0</ele>
<speed>24.7</speed>
<course>116.4</course>
<desc>Speed 24.7 km/h Distance 14.84 km</desc>
<time>2011-07-19T20:30:38.65</time>
<name>2493</name>
</trkpt>
<trkpt lat="39.022543" lon="-3.850520">
<ele>671.0</ele>
<speed>25.3</speed>
<course>113.2</course>
<desc>Speed 25.3 km/h Distance 14.85 km</desc>
<time>2011-07-19T20:30:39.65</time>
<name>2494</name>
</trkpt>
<trkpt lat="39.022518" lon="-3.850445">
<ele>671.0</ele>
<speed>25.5</speed>
<course>108.6</course>
<desc>Speed 25.5 km/h Distance 14.85 km</desc>
<time>2011-07-19T20:30:40.65</time>
<name>2495</name>
</trkpt>
<trkpt lat="39.022498" lon="-3.850368">
<ele>671.0</ele>
<speed>25.3</speed>
<course>105.3</course>
<desc>Speed 25.3 km/h Distance 14.86 km</desc>
<time>2011-07-19T20:30:41.65</time>
<name>2496</name>
</trkpt>
<trkpt lat="39.022482" lon="-3.850290">
<ele>671.0</ele>
<speed>25.2</speed>
<course>102.4</course>
<desc>Speed 25.2 km/h Distance 14.87 km</desc>
<time>2011-07-19T20:30:42.67</time>
<name>2497</name>
</trkpt>
<trkpt lat="39.022468" lon="-3.850212">
<ele>671.0</ele>
<speed>24.8</speed>
<course>97.8</course>
<desc>Speed 24.8 km/h Distance 14.87 km</desc>
<time>2011-07-19T20:30:43.65</time>
<name>2498</name>
</trkpt>
<trkpt lat="39.022460" lon="-3.850133">
<ele>671.0</ele>
<speed>25.0</speed>
<course>94.5</course>
<desc>Speed 25.0 km/h Distance 14.88 km</desc>
<time>2011-07-19T20:30:44.65</time>
<name>2499</name>
</trkpt>
<trkpt lat="39.022455" lon="-3.850052">
<ele>671.0</ele>
<speed>25.2</speed>
<course>93.1</course>
<desc>Speed 25.2 km/h Distance 14.89 km</desc>
<time>2011-07-19T20:30:45.65</time>
<name>2500</name>
</trkpt>
<trkpt lat="39.022452" lon="-3.849972">
<ele>671.0</ele>
<speed>25.4</speed>
<course>90.0</course>
<desc>Speed 25.4 km/h Distance 14.89 km</desc>
<time>2011-07-19T20:30:46.65</time>
<name>2501</name>
</trkpt>
<trkpt lat="39.022452" lon="-3.849890">
<ele>671.0</ele>
<speed>25.5</speed>
<course>91.5</course>
<desc>Speed 25.5 km/h Distance 14.90 km</desc>
<time>2011-07-19T20:30:47.65</time>
<name>2502</name>
</trkpt>
<trkpt lat="39.022450" lon="-3.849807">
<ele>671.0</ele>
<speed>25.7</speed>
<course>94.4</course>
<desc>Speed 25.7 km/h Distance 14.91 km</desc>
<time>2011-07-19T20:30:48.65</time>
<name>2503</name>
</trkpt>
<trkpt lat="39.022445" lon="-3.849723">
<ele>671.5</ele>
<speed>26.3</speed>
<course>95.8</course>
<desc>Speed 26.3 km/h Distance 14.92 km</desc>
<time>2011-07-19T20:30:49.65</time>
<name>2504</name>
</trkpt>
<trkpt lat="39.022438" lon="-3.849638">
<ele>671.5</ele>
<speed>26.6</speed>
<course>94.2</course>
<desc>Speed 26.6 km/h Distance 14.92 km</desc>
<time>2011-07-19T20:30:50.65</time>
<name>2505</name>
</trkpt>
<trkpt lat="39.022433" lon="-3.849552">
<ele>671.5</ele>
<speed>27.0</speed>
<course>95.7</course>
<desc>Speed 27.0 km/h Distance 14.93 km</desc>
<time>2011-07-19T20:30:51.65</time>
<name>2506</name>
</trkpt>
<trkpt lat="39.022427" lon="-3.849465">
<ele>671.5</ele>
<speed>27.3</speed>
<course>94.2</course>
<desc>Speed 27.3 km/h Distance 14.94 km</desc>
<time>2011-07-19T20:30:52.66</time>
<name>2507</name>
</trkpt>
<trkpt lat="39.022422" lon="-3.849377">
<ele>671.5</ele>
<speed>27.2</speed>
<course>92.8</course>
<desc>Speed 27.2 km/h Distance 14.95 km</desc>
<time>2011-07-19T20:30:53.64</time>
<name>2508</name>
</trkpt>
<trkpt lat="39.022418" lon="-3.849288">
<ele>671.5</ele>
<speed>27.4</speed>
<course>94.2</course>
<desc>Speed 27.4 km/h Distance 14.95 km</desc>
<time>2011-07-19T20:30:54.65</time>
<name>2509</name>
</trkpt>
<trkpt lat="39.022413" lon="-3.849202">
<ele>671.5</ele>
<speed>27.2</speed>
<course>92.8</course>
<desc>Speed 27.2 km/h Distance 14.96 km</desc>
<time>2011-07-19T20:30:55.65</time>
<name>2510</name>
</trkpt>
<trkpt lat="39.022410" lon="-3.849115">
<ele>671.5</ele>
<speed>27.3</speed>
<course>92.7</course>
<desc>Speed 27.3 km/h Distance 14.97 km</desc>
<time>2011-07-19T20:30:56.65</time>
<name>2511</name>
</trkpt>
<trkpt lat="39.022407" lon="-3.849025">
<ele>671.5</ele>
<speed>27.8</speed>
<course>91.4</course>
<desc>Speed 27.8 km/h Distance 14.98 km</desc>
<time>2011-07-19T20:30:57.65</time>
<name>2512</name>
</trkpt>
<trkpt lat="39.022405" lon="-3.848938">
<ele>671.5</ele>
<speed>27.3</speed>
<course>90.0</course>
<desc>Speed 27.3 km/h Distance 14.98 km</desc>
<time>2011-07-19T20:30:58.65</time>
<name>2513</name>
</trkpt>
<trkpt lat="39.022405" lon="-3.848852">
<ele>671.5</ele>
<speed>27.0</speed>
<course>85.6</course>
<desc>Speed 27.0 km/h Distance 14.99 km</desc>
<time>2011-07-19T20:30:59.65</time>
<name>2514</name>
</trkpt>
<trkpt lat="39.022410" lon="-3.848768">
<ele>672.0</ele>
<speed>25.8</speed>
<course>83.9</course>
<desc>Speed 25.8 km/h Distance 15.00 km</desc>
<time>2011-07-19T20:31:00.65</time>
<name>2515</name>
</trkpt>
<trkpt lat="39.022417" lon="-3.848688">
<ele>672.0</ele>
<speed>25.0</speed>
<course>82.2</course>
<desc>Speed 25.0 km/h Distance 15.01 km</desc>
<time>2011-07-19T20:31:01.65</time>
<name>2516</name>
</trkpt>
<trkpt lat="39.022425" lon="-3.848610">
<ele>672.0</ele>
<speed>24.6</speed>
<course>81.9</course>
<desc>Speed 24.6 km/h Distance 15.01 km</desc>
<time>2011-07-19T20:31:02.65</time>
<name>2517</name>
</trkpt>
<trkpt lat="39.022433" lon="-3.848535">
<ele>672.0</ele>
<speed>23.7</speed>
<course>78.4</course>
<desc>Speed 23.7 km/h Distance 15.02 km</desc>
<time>2011-07-19T20:31:03.65</time>
<name>2518</name>
</trkpt>
<trkpt lat="39.022445" lon="-3.848462">
<ele>672.0</ele>
<speed>23.1</speed>
<course>78.2</course>
<desc>Speed 23.1 km/h Distance 15.03 km</desc>
<time>2011-07-19T20:31:04.65</time>
<name>2519</name>
</trkpt>
<trkpt lat="39.022457" lon="-3.848390">
<ele>672.0</ele>
<speed>23.2</speed>
<course>78.7</course>
<desc>Speed 23.2 km/h Distance 15.03 km</desc>
<time>2011-07-19T20:31:05.65</time>
<name>2520</name>
</trkpt>
<trkpt lat="39.022468" lon="-3.848315">
<ele>672.0</ele>
<speed>23.3</speed>
<course>78.2</course>
<desc>Speed 23.3 km/h Distance 15.04 km</desc>
<time>2011-07-19T20:31:06.65</time>
<name>2521</name>
</trkpt>
<trkpt lat="39.022480" lon="-3.848243">
<ele>672.0</ele>
<speed>23.2</speed>
<course>76.8</course>
<desc>Speed 23.2 km/h Distance 15.05 km</desc>
<time>2011-07-19T20:31:07.65</time>
<name>2522</name>
</trkpt>
<trkpt lat="39.022493" lon="-3.848170">
<ele>672.0</ele>
<speed>23.4</speed>
<course>75.3</course>
<desc>Speed 23.4 km/h Distance 15.05 km</desc>
<time>2011-07-19T20:31:08.65</time>
<name>2523</name>
</trkpt>
<trkpt lat="39.022508" lon="-3.848097">
<ele>672.0</ele>
<speed>23.4</speed>
<course>76.8</course>
<desc>Speed 23.4 km/h Distance 15.06 km</desc>
<time>2011-07-19T20:31:09.65</time>
<name>2524</name>
</trkpt>
<trkpt lat="39.022522" lon="-3.848023">
<ele>672.0</ele>
<speed>23.4</speed>
<course>73.3</course>
<desc>Speed 23.4 km/h Distance 15.06 km</desc>
<time>2011-07-19T20:31:10.65</time>
<name>2525</name>
</trkpt>
<trkpt lat="39.022538" lon="-3.847952">
<ele>672.0</ele>
<speed>23.4</speed>
<course>76.5</course>
<desc>Speed 23.4 km/h Distance 15.07 km</desc>
<time>2011-07-19T20:31:11.65</time>
<name>2526</name>
</trkpt>
<trkpt lat="39.022552" lon="-3.847880">
<ele>672.0</ele>
<speed>23.2</speed>
<course>74.9</course>
<desc>Speed 23.2 km/h Distance 15.08 km</desc>
<time>2011-07-19T20:31:12.65</time>
<name>2527</name>
</trkpt>
<trkpt lat="39.022567" lon="-3.847808">
<ele>672.0</ele>
<speed>22.9</speed>
<course>74.6</course>
<desc>Speed 22.9 km/h Distance 15.08 km</desc>
<time>2011-07-19T20:31:13.65</time>
<name>2528</name>
</trkpt>
<trkpt lat="39.022582" lon="-3.847738">
<ele>672.0</ele>
<speed>22.6</speed>
<course>74.6</course>
<desc>Speed 22.6 km/h Distance 15.09 km</desc>
<time>2011-07-19T20:31:14.65</time>
<name>2529</name>
</trkpt>
<trkpt lat="39.022597" lon="-3.847668">
<ele>672.0</ele>
<speed>22.5</speed>
<course>74.2</course>
<desc>Speed 22.5 km/h Distance 15.10 km</desc>
<time>2011-07-19T20:31:15.65</time>
<name>2530</name>
</trkpt>
<trkpt lat="39.022612" lon="-3.847600">
<ele>672.0</ele>
<speed>22.4</speed>
<course>74.2</course>
<desc>Speed 22.4 km/h Distance 15.10 km</desc>
<time>2011-07-19T20:31:16.65</time>
<name>2531</name>
</trkpt>
<trkpt lat="39.022627" lon="-3.847532">
<ele>672.0</ele>
<speed>21.7</speed>
<course>79.1</course>
<desc>Speed 21.7 km/h Distance 15.11 km</desc>
<time>2011-07-19T20:31:17.65</time>
<name>2532</name>
</trkpt>
<trkpt lat="39.022637" lon="-3.847465">
<ele>672.0</ele>
<speed>21.5</speed>
<course>84.6</course>
<desc>Speed 21.5 km/h Distance 15.11 km</desc>
<time>2011-07-19T20:31:18.65</time>
<name>2533</name>
</trkpt>
<trkpt lat="39.022642" lon="-3.847397">
<ele>672.0</ele>
<speed>21.4</speed>
<course>82.8</course>
<desc>Speed 21.4 km/h Distance 15.12 km</desc>
<time>2011-07-19T20:31:19.65</time>
<name>2534</name>
</trkpt>
<trkpt lat="39.022648" lon="-3.847328">
<ele>672.0</ele>
<speed>21.5</speed>
<course>83.0</course>
<desc>Speed 21.5 km/h Distance 15.13 km</desc>
<time>2011-07-19T20:31:20.65</time>
<name>2535</name>
</trkpt>
<trkpt lat="39.022655" lon="-3.847258">
<ele>672.0</ele>
<speed>21.8</speed>
<course>84.6</course>
<desc>Speed 21.8 km/h Distance 15.13 km</desc>
<time>2011-07-19T20:31:21.65</time>
<name>2536</name>
</trkpt>
<trkpt lat="39.022660" lon="-3.847190">
<ele>672.0</ele>
<speed>21.4</speed>
<course>86.4</course>
<desc>Speed 21.4 km/h Distance 15.14 km</desc>
<time>2011-07-19T20:31:22.65</time>
<name>2537</name>
</trkpt>
<trkpt lat="39.022663" lon="-3.847122">
<ele>672.0</ele>
<speed>21.6</speed>
<course>86.4</course>
<desc>Speed 21.6 km/h Distance 15.14 km</desc>
<time>2011-07-19T20:31:23.65</time>
<name>2538</name>
</trkpt>
<trkpt lat="39.022667" lon="-3.847053">
<ele>672.0</ele>
<speed>21.1</speed>
<course>88.2</course>
<desc>Speed 21.1 km/h Distance 15.15 km</desc>
<time>2011-07-19T20:31:24.65</time>
<name>2539</name>
</trkpt>
<trkpt lat="39.022668" lon="-3.846987">
<ele>672.0</ele>
<speed>20.8</speed>
<course>86.4</course>
<desc>Speed 20.8 km/h Distance 15.16 km</desc>
<time>2011-07-19T20:31:25.64</time>
<name>2540</name>
</trkpt>
<trkpt lat="39.022672" lon="-3.846918">
<ele>672.0</ele>
<speed>21.3</speed>
<course>88.2</course>
<desc>Speed 21.3 km/h Distance 15.16 km</desc>
<time>2011-07-19T20:31:26.65</time>
<name>2541</name>
</trkpt>
<trkpt lat="39.022673" lon="-3.846850">
<ele>672.0</ele>
<speed>21.5</speed>
<course>91.8</course>
<desc>Speed 21.5 km/h Distance 15.17 km</desc>
<time>2011-07-19T20:31:27.65</time>
<name>2542</name>
</trkpt>
<trkpt lat="39.022672" lon="-3.846780">
<ele>671.5</ele>
<speed>21.8</speed>
<course>91.7</course>
<desc>Speed 21.8 km/h Distance 15.17 km</desc>
<time>2011-07-19T20:31:28.65</time>
<name>2543</name>
</trkpt>
<trkpt lat="39.022670" lon="-3.846708">
<ele>671.5</ele>
<speed>21.9</speed>
<course>91.7</course>
<desc>Speed 21.9 km/h Distance 15.18 km</desc>
<time>2011-07-19T20:31:29.65</time>
<name>2544</name>
</trkpt>
<trkpt lat="39.022668" lon="-3.846637">
<ele>671.0</ele>
<speed>22.2</speed>
<course>90.0</course>
<desc>Speed 22.2 km/h Distance 15.19 km</desc>
<time>2011-07-19T20:31:30.65</time>
<name>2545</name>
</trkpt>
<trkpt lat="39.022668" lon="-3.846565">
<ele>671.5</ele>
<speed>22.5</speed>
<course>90.0</course>
<desc>Speed 22.5 km/h Distance 15.19 km</desc>
<time>2011-07-19T20:31:31.65</time>
<name>2546</name>
</trkpt>
<trkpt lat="39.022668" lon="-3.846492">
<ele>671.0</ele>
<speed>22.6</speed>
<course>93.4</course>
<desc>Speed 22.6 km/h Distance 15.20 km</desc>
<time>2011-07-19T20:31:32.65</time>
<name>2547</name>
</trkpt>
<trkpt lat="39.022665" lon="-3.846420">
<ele>671.0</ele>
<speed>22.7</speed>
<course>91.7</course>
<desc>Speed 22.7 km/h Distance 15.21 km</desc>
<time>2011-07-19T20:31:33.65</time>
<name>2548</name>
</trkpt>
<trkpt lat="39.022663" lon="-3.846347">
<ele>671.0</ele>
<speed>22.7</speed>
<course>91.6</course>
<desc>Speed 22.7 km/h Distance 15.21 km</desc>
<time>2011-07-19T20:31:34.65</time>
<name>2549</name>
</trkpt>
<trkpt lat="39.022662" lon="-3.846272">
<ele>671.0</ele>
<speed>23.2</speed>
<course>91.7</course>
<desc>Speed 23.2 km/h Distance 15.22 km</desc>
<time>2011-07-19T20:31:35.65</time>
<name>2550</name>
</trkpt>
<trkpt lat="39.022660" lon="-3.846198">
<ele>671.0</ele>
<speed>23.4</speed>
<course>90.0</course>
<desc>Speed 23.4 km/h Distance 15.22 km</desc>
<time>2011-07-19T20:31:36.65</time>
<name>2551</name>
</trkpt>
<trkpt lat="39.022660" lon="-3.846122">
<ele>671.0</ele>
<speed>23.6</speed>
<course>90.0</course>
<desc>Speed 23.6 km/h Distance 15.23 km</desc>
<time>2011-07-19T20:31:37.65</time>
<name>2552</name>
</trkpt>
<trkpt lat="39.022660" lon="-3.846047">
<ele>671.0</ele>
<speed>23.8</speed>
<course>88.4</course>
<desc>Speed 23.8 km/h Distance 15.24 km</desc>
<time>2011-07-19T20:31:38.65</time>
<name>2553</name>
</trkpt>
<trkpt lat="39.022662" lon="-3.845968">
<ele>671.0</ele>
<speed>24.2</speed>
<course>88.4</course>
<desc>Speed 24.2 km/h Distance 15.24 km</desc>
<time>2011-07-19T20:31:39.65</time>
<name>2554</name>
</trkpt>
<trkpt lat="39.022663" lon="-3.845892">
<ele>671.0</ele>
<speed>24.2</speed>
<course>90.0</course>
<desc>Speed 24.2 km/h Distance 15.25 km</desc>
<time>2011-07-19T20:31:40.65</time>
<name>2555</name>
</trkpt>
<trkpt lat="39.022663" lon="-3.845813">
<ele>670.5</ele>
<speed>24.4</speed>
<course>86.9</course>
<desc>Speed 24.4 km/h Distance 15.26 km</desc>
<time>2011-07-19T20:31:41.65</time>
<name>2556</name>
</trkpt>
<trkpt lat="39.022667" lon="-3.845735">
<ele>670.5</ele>
<speed>24.6</speed>
<course>88.4</course>
<desc>Speed 24.6 km/h Distance 15.26 km</desc>
<time>2011-07-19T20:31:42.66</time>
<name>2557</name>
</trkpt>
<trkpt lat="39.022668" lon="-3.845657">
<ele>671.0</ele>
<speed>24.4</speed>
<course>90.0</course>
<desc>Speed 24.4 km/h Distance 15.27 km</desc>
<time>2011-07-19T20:31:43.65</time>
<name>2558</name>
</trkpt>
<trkpt lat="39.022668" lon="-3.845577">
<ele>671.0</ele>
<speed>24.6</speed>
<course>91.6</course>
<desc>Speed 24.6 km/h Distance 15.28 km</desc>
<time>2011-07-19T20:31:44.65</time>
<name>2559</name>
</trkpt>
<trkpt lat="39.022667" lon="-3.845498">
<ele>671.0</ele>
<speed>24.8</speed>
<course>97.8</course>
<desc>Speed 24.8 km/h Distance 15.28 km</desc>
<time>2011-07-19T20:31:45.65</time>
<name>2560</name>
</trkpt>
<trkpt lat="39.022658" lon="-3.845420">
<ele>671.0</ele>
<speed>24.2</speed>
<course>101.6</course>
<desc>Speed 24.2 km/h Distance 15.29 km</desc>
<time>2011-07-19T20:31:46.64</time>
<name>2561</name>
</trkpt>
<trkpt lat="39.022647" lon="-3.845347">
<ele>671.0</ele>
<speed>23.5</speed>
<course>103.2</course>
<desc>Speed 23.5 km/h Distance 15.30 km</desc>
<time>2011-07-19T20:31:47.65</time>
<name>2562</name>
</trkpt>
<trkpt lat="39.022633" lon="-3.845273">
<ele>671.0</ele>
<speed>23.4</speed>
<course>100.0</course>
<desc>Speed 23.4 km/h Distance 15.30 km</desc>
<time>2011-07-19T20:31:48.64</time>
<name>2563</name>
</trkpt>
<trkpt lat="39.022623" lon="-3.845200">
<ele>671.0</ele>
<speed>23.2</speed>
<course>103.2</course>
<desc>Speed 23.2 km/h Distance 15.31 km</desc>
<time>2011-07-19T20:31:49.65</time>
<name>2564</name>
</trkpt>
<trkpt lat="39.022610" lon="-3.845127">
<ele>671.0</ele>
<speed>23.3</speed>
<course>106.7</course>
<desc>Speed 23.3 km/h Distance 15.32 km</desc>
<time>2011-07-19T20:31:50.65</time>
<name>2565</name>
</trkpt>
<trkpt lat="39.022593" lon="-3.845055">
<ele>671.0</ele>
<speed>23.3</speed>
<course>107.0</course>
<desc>Speed 23.3 km/h Distance 15.32 km</desc>
<time>2011-07-19T20:31:51.65</time>
<name>2566</name>
</trkpt>
<trkpt lat="39.022577" lon="-3.844985">
<ele>671.0</ele>
<speed>23.2</speed>
<course>110.2</course>
<desc>Speed 23.2 km/h Distance 15.33 km</desc>
<time>2011-07-19T20:31:52.65</time>
<name>2567</name>
</trkpt>
<trkpt lat="39.022557" lon="-3.844915">
<ele>671.5</ele>
<speed>23.4</speed>
<course>108.6</course>
<desc>Speed 23.4 km/h Distance 15.34 km</desc>
<time>2011-07-19T20:31:53.65</time>
<name>2568</name>
</trkpt>
<trkpt lat="39.022538" lon="-3.844845">
<ele>671.5</ele>
<speed>22.9</speed>
<course>106.7</course>
<desc>Speed 22.9 km/h Distance 15.34 km</desc>
<time>2011-07-19T20:31:54.65</time>
<name>2569</name>
</trkpt>
<trkpt lat="39.022522" lon="-3.844773">
<ele>671.5</ele>
<speed>23.3</speed>
<course>107.0</course>
<desc>Speed 23.3 km/h Distance 15.35 km</desc>
<time>2011-07-19T20:31:55.65</time>
<name>2570</name>
</trkpt>
<trkpt lat="39.022505" lon="-3.844703">
<ele>671.5</ele>
<speed>22.9</speed>
<course>109.1</course>
<desc>Speed 22.9 km/h Distance 15.36 km</desc>
<time>2011-07-19T20:31:56.65</time>
<name>2571</name>
</trkpt>
<trkpt lat="39.022487" lon="-3.844635">
<ele>671.5</ele>
<speed>22.4</speed>
<course>107.4</course>
<desc>Speed 22.4 km/h Distance 15.36 km</desc>
<time>2011-07-19T20:31:57.65</time>
<name>2572</name>
</trkpt>
<trkpt lat="39.022470" lon="-3.844567">
<ele>671.5</ele>
<speed>22.1</speed>
<course>100.4</course>
<desc>Speed 22.1 km/h Distance 15.37 km</desc>
<time>2011-07-19T20:31:58.65</time>
<name>2573</name>
</trkpt>
<trkpt lat="39.022460" lon="-3.844497">
<ele>671.5</ele>
<speed>22.0</speed>
<course>93.6</course>
<desc>Speed 22.0 km/h Distance 15.37 km</desc>
<time>2011-07-19T20:31:59.65</time>
<name>2574</name>
</trkpt>
<trkpt lat="39.022457" lon="-3.844428">
<ele>671.5</ele>
<speed>21.6</speed>
<course>95.3</course>
<desc>Speed 21.6 km/h Distance 15.38 km</desc>
<time>2011-07-19T20:32:00.65</time>
<name>2575</name>
</trkpt>
<trkpt lat="39.022452" lon="-3.844358">
<ele>671.5</ele>
<speed>21.5</speed>
<course>97.2</course>
<desc>Speed 21.5 km/h Distance 15.39 km</desc>
<time>2011-07-19T20:32:01.65</time>
<name>2576</name>
</trkpt>
<trkpt lat="39.022445" lon="-3.844290">
<ele>671.5</ele>
<speed>21.6</speed>
<course>95.4</course>
<desc>Speed 21.6 km/h Distance 15.39 km</desc>
<time>2011-07-19T20:32:02.65</time>
<name>2577</name>
</trkpt>
<trkpt lat="39.022440" lon="-3.844222">
<ele>671.5</ele>
<speed>21.6</speed>
<course>90.0</course>
<desc>Speed 21.6 km/h Distance 15.40 km</desc>
<time>2011-07-19T20:32:03.65</time>
<name>2578</name>
</trkpt>
<trkpt lat="39.022440" lon="-3.844152">
<ele>671.5</ele>
<speed>21.7</speed>
<course>90.0</course>
<desc>Speed 21.7 km/h Distance 15.40 km</desc>
<time>2011-07-19T20:32:04.65</time>
<name>2579</name>
</trkpt>
<trkpt lat="39.022440" lon="-3.844080">
<ele>671.5</ele>
<speed>22.1</speed>
<course>81.3</course>
<desc>Speed 22.1 km/h Distance 15.41 km</desc>
<time>2011-07-19T20:32:05.65</time>
<name>2580</name>
</trkpt>
<trkpt lat="39.022448" lon="-3.844010">
<ele>672.0</ele>
<speed>22.4</speed>
<course>71.4</course>
<desc>Speed 22.4 km/h Distance 15.42 km</desc>
<time>2011-07-19T20:32:06.65</time>
<name>2581</name>
</trkpt>
<trkpt lat="39.022467" lon="-3.843940">
<ele>672.0</ele>
<speed>22.6</speed>
<course>69.4</course>
<desc>Speed 22.6 km/h Distance 15.42 km</desc>
<time>2011-07-19T20:32:07.64</time>
<name>2582</name>
</trkpt>
<trkpt lat="39.022487" lon="-3.843872">
<ele>671.5</ele>
<speed>23.1</speed>
<course>80.0</course>
<desc>Speed 23.1 km/h Distance 15.43 km</desc>
<time>2011-07-19T20:32:08.64</time>
<name>2583</name>
</trkpt>
<trkpt lat="39.022497" lon="-3.843798">
<ele>672.0</ele>
<speed>23.1</speed>
<course>88.4</course>
<desc>Speed 23.1 km/h Distance 15.44 km</desc>
<time>2011-07-19T20:32:09.64</time>
<name>2584</name>
</trkpt>
<trkpt lat="39.022498" lon="-3.843723">
<ele>672.0</ele>
<speed>23.2</speed>
<course>88.3</course>
<desc>Speed 23.2 km/h Distance 15.44 km</desc>
<time>2011-07-19T20:32:10.65</time>
<name>2585</name>
</trkpt>
<trkpt lat="39.022500" lon="-3.843650">
<ele>672.0</ele>
<speed>23.0</speed>
<course>88.3</course>
<desc>Speed 23.0 km/h Distance 15.45 km</desc>
<time>2011-07-19T20:32:11.64</time>
<name>2586</name>
</trkpt>
<trkpt lat="39.022502" lon="-3.843578">
<ele>672.0</ele>
<speed>22.4</speed>
<course>88.3</course>
<desc>Speed 22.4 km/h Distance 15.46 km</desc>
<time>2011-07-19T20:32:12.64</time>
<name>2587</name>
</trkpt>
<trkpt lat="39.022503" lon="-3.843507">
<ele>672.0</ele>
<speed>22.3</speed>
<course>91.7</course>
<desc>Speed 22.3 km/h Distance 15.46 km</desc>
<time>2011-07-19T20:32:13.64</time>
<name>2588</name>
</trkpt>
<trkpt lat="39.022502" lon="-3.843435">
<ele>672.0</ele>
<speed>22.1</speed>
<course>98.7</course>
<desc>Speed 22.1 km/h Distance 15.47 km</desc>
<time>2011-07-19T20:32:14.65</time>
<name>2589</name>
</trkpt>
<trkpt lat="39.022493" lon="-3.843365">
<ele>672.0</ele>
<speed>21.7</speed>
<course>102.1</course>
<desc>Speed 21.7 km/h Distance 15.47 km</desc>
<time>2011-07-19T20:32:15.64</time>
<name>2590</name>
</trkpt>
<trkpt lat="39.022482" lon="-3.843295">
<ele>671.5</ele>
<speed>21.9</speed>
<course>107.4</course>
<desc>Speed 21.9 km/h Distance 15.48 km</desc>
<time>2011-07-19T20:32:16.65</time>
<name>2591</name>
</trkpt>
<trkpt lat="39.022465" lon="-3.843227">
<ele>671.5</ele>
<speed>22.1</speed>
<course>109.5</course>
<desc>Speed 22.1 km/h Distance 15.49 km</desc>
<time>2011-07-19T20:32:17.65</time>
<name>2592</name>
</trkpt>
<trkpt lat="39.022447" lon="-3.843160">
<ele>671.5</ele>
<speed>21.9</speed>
<course>110.0</course>
<desc>Speed 21.9 km/h Distance 15.49 km</desc>
<time>2011-07-19T20:32:18.65</time>
<name>2593</name>
</trkpt>
<trkpt lat="39.022428" lon="-3.843095">
<ele>671.5</ele>
<speed>21.6</speed>
<course>111.6</course>
<desc>Speed 21.6 km/h Distance 15.50 km</desc>
<time>2011-07-19T20:32:19.64</time>
<name>2594</name>
</trkpt>
<trkpt lat="39.022408" lon="-3.843030">
<ele>671.0</ele>
<speed>21.4</speed>
<course>112.1</course>
<desc>Speed 21.4 km/h Distance 15.50 km</desc>
<time>2011-07-19T20:32:20.64</time>
<name>2595</name>
</trkpt>
<trkpt lat="39.022388" lon="-3.842967">
<ele>671.0</ele>
<speed>21.4</speed>
<course>113.8</course>
<desc>Speed 21.4 km/h Distance 15.51 km</desc>
<time>2011-07-19T20:32:21.64</time>
<name>2596</name>
</trkpt>
<trkpt lat="39.022367" lon="-3.842903">
<ele>671.0</ele>
<speed>21.3</speed>
<course>114.3</course>
<desc>Speed 21.3 km/h Distance 15.52 km</desc>
<time>2011-07-19T20:32:22.65</time>
<name>2597</name>
</trkpt>
<trkpt lat="39.022345" lon="-3.842842">
<ele>671.0</ele>
<speed>21.2</speed>
<course>116.6</course>
<desc>Speed 21.2 km/h Distance 15.52 km</desc>
<time>2011-07-19T20:32:23.64</time>
<name>2598</name>
</trkpt>
<trkpt lat="39.022322" lon="-3.842782">
<ele>671.0</ele>
<speed>21.3</speed>
<course>119.8</course>
<desc>Speed 21.3 km/h Distance 15.53 km</desc>
<time>2011-07-19T20:32:24.64</time>
<name>2599</name>
</trkpt>
<trkpt lat="39.022295" lon="-3.842722">
<ele>671.0</ele>
<speed>21.3</speed>
<course>122.0</course>
<desc>Speed 21.3 km/h Distance 15.53 km</desc>
<time>2011-07-19T20:32:25.64</time>
<name>2600</name>
</trkpt>
<trkpt lat="39.022267" lon="-3.842663">
<ele>671.0</ele>
<speed>21.4</speed>
<course>122.0</course>
<desc>Speed 21.4 km/h Distance 15.54 km</desc>
<time>2011-07-19T20:32:26.64</time>
<name>2601</name>
</trkpt>
<trkpt lat="39.022238" lon="-3.842605">
<ele>670.5</ele>
<speed>21.6</speed>
<course>124.3</course>
<desc>Speed 21.6 km/h Distance 15.55 km</desc>
<time>2011-07-19T20:32:27.64</time>
<name>2602</name>
</trkpt>
<trkpt lat="39.022208" lon="-3.842548">
<ele>670.5</ele>
<speed>21.7</speed>
<course>124.9</course>
<desc>Speed 21.7 km/h Distance 15.55 km</desc>
<time>2011-07-19T20:32:28.64</time>
<name>2603</name>
</trkpt>
<trkpt lat="39.022177" lon="-3.842490">
<ele>671.0</ele>
<speed>21.9</speed>
<course>127.1</course>
<desc>Speed 21.9 km/h Distance 15.56 km</desc>
<time>2011-07-19T20:32:29.64</time>
<name>2604</name>
</trkpt>
<trkpt lat="39.022143" lon="-3.842433">
<ele>671.0</ele>
<speed>22.0</speed>
<course>125.7</course>
<desc>Speed 22.0 km/h Distance 15.56 km</desc>
<time>2011-07-19T20:32:30.64</time>
<name>2605</name>
</trkpt>
<trkpt lat="39.022112" lon="-3.842377">
<ele>671.0</ele>
<speed>22.3</speed>
<course>126.3</course>
<desc>Speed 22.3 km/h Distance 15.57 km</desc>
<time>2011-07-19T20:32:31.64</time>
<name>2606</name>
</trkpt>
<trkpt lat="39.022078" lon="-3.842318">
<ele>671.0</ele>
<speed>22.4</speed>
<course>127.1</course>
<desc>Speed 22.4 km/h Distance 15.58 km</desc>
<time>2011-07-19T20:32:32.64</time>
<name>2607</name>
</trkpt>
<trkpt lat="39.022045" lon="-3.842262">
<ele>671.0</ele>
<speed>22.2</speed>
<course>126.3</course>
<desc>Speed 22.2 km/h Distance 15.58 km</desc>
<time>2011-07-19T20:32:33.64</time>
<name>2608</name>
</trkpt>
<trkpt lat="39.022012" lon="-3.842203">
<ele>671.0</ele>
<speed>22.3</speed>
<course>126.3</course>
<desc>Speed 22.3 km/h Distance 15.59 km</desc>
<time>2011-07-19T20:32:34.64</time>
<name>2609</name>
</trkpt>
<trkpt lat="39.021978" lon="-3.842145">
<ele>671.0</ele>
<speed>22.4</speed>
<course>125.6</course>
<desc>Speed 22.4 km/h Distance 15.59 km</desc>
<time>2011-07-19T20:32:35.64</time>
<name>2610</name>
</trkpt>
<trkpt lat="39.021945" lon="-3.842085">
<ele>671.0</ele>
<speed>23.0</speed>
<course>127.7</course>
<desc>Speed 23.0 km/h Distance 15.60 km</desc>
<time>2011-07-19T20:32:36.64</time>
<name>2611</name>
</trkpt>
<trkpt lat="39.021910" lon="-3.842027">
<ele>671.0</ele>
<speed>23.1</speed>
<course>125.6</course>
<desc>Speed 23.1 km/h Distance 15.61 km</desc>
<time>2011-07-19T20:32:37.64</time>
<name>2612</name>
</trkpt>
<trkpt lat="39.021877" lon="-3.841967">
<ele>671.0</ele>
<speed>23.2</speed>
<course>126.1</course>
<desc>Speed 23.2 km/h Distance 15.61 km</desc>
<time>2011-07-19T20:32:38.64</time>
<name>2613</name>
</trkpt>
<trkpt lat="39.021842" lon="-3.841905">
<ele>671.0</ele>
<speed>23.0</speed>
<course>126.3</course>
<desc>Speed 23.0 km/h Distance 15.62 km</desc>
<time>2011-07-19T20:32:39.64</time>
<name>2614</name>
</trkpt>
<trkpt lat="39.021808" lon="-3.841847">
<ele>671.0</ele>
<speed>23.0</speed>
<course>125.6</course>
<desc>Speed 23.0 km/h Distance 15.63 km</desc>
<time>2011-07-19T20:32:40.64</time>
<name>2615</name>
</trkpt>
<trkpt lat="39.021775" lon="-3.841787">
<ele>671.0</ele>
<speed>22.9</speed>
<course>124.2</course>
<desc>Speed 22.9 km/h Distance 15.63 km</desc>
<time>2011-07-19T20:32:41.64</time>
<name>2616</name>
</trkpt>
<trkpt lat="39.021743" lon="-3.841727">
<ele>670.5</ele>
<speed>22.7</speed>
<course>124.2</course>
<desc>Speed 22.7 km/h Distance 15.64 km</desc>
<time>2011-07-19T20:32:42.66</time>
<name>2617</name>
</trkpt>
<trkpt lat="39.021712" lon="-3.841667">
<ele>670.5</ele>
<speed>22.3</speed>
<course>123.5</course>
<desc>Speed 22.3 km/h Distance 15.65 km</desc>
<time>2011-07-19T20:32:43.64</time>
<name>2618</name>
</trkpt>
<trkpt lat="39.021682" lon="-3.841608">
<ele>670.0</ele>
<speed>22.0</speed>
<course>126.5</course>
<desc>Speed 22.0 km/h Distance 15.65 km</desc>
<time>2011-07-19T20:32:44.64</time>
<name>2619</name>
</trkpt>
<trkpt lat="39.021650" lon="-3.841553">
<ele>670.5</ele>
<speed>21.5</speed>
<course>131.1</course>
<desc>Speed 21.5 km/h Distance 15.66 km</desc>
<time>2011-07-19T20:32:45.64</time>
<name>2620</name>
</trkpt>
<trkpt lat="39.021615" lon="-3.841502">
<ele>670.5</ele>
<speed>21.2</speed>
<course>132.0</course>
<desc>Speed 21.2 km/h Distance 15.66 km</desc>
<time>2011-07-19T20:32:46.65</time>
<name>2621</name>
</trkpt>
<trkpt lat="39.021580" lon="-3.841452">
<ele>670.5</ele>
<speed>20.8</speed>
<course>129.7</course>
<desc>Speed 20.8 km/h Distance 15.67 km</desc>
<time>2011-07-19T20:32:47.64</time>
<name>2622</name>
</trkpt>
<trkpt lat="39.021547" lon="-3.841400">
<ele>670.5</ele>
<speed>20.8</speed>
<course>133.0</course>
<desc>Speed 20.8 km/h Distance 15.68 km</desc>
<time>2011-07-19T20:32:48.64</time>
<name>2623</name>
</trkpt>
<trkpt lat="39.021512" lon="-3.841352">
<ele>670.5</ele>
<speed>20.6</speed>
<course>133.0</course>
<desc>Speed 20.6 km/h Distance 15.68 km</desc>
<time>2011-07-19T20:32:49.65</time>
<name>2624</name>
</trkpt>
<trkpt lat="39.021477" lon="-3.841303">
<ele>670.5</ele>
<speed>20.5</speed>
<course>132.0</course>
<desc>Speed 20.5 km/h Distance 15.69 km</desc>
<time>2011-07-19T20:32:50.64</time>
<name>2625</name>
</trkpt>
<trkpt lat="39.021442" lon="-3.841253">
<ele>670.5</ele>
<speed>20.7</speed>
<course>132.0</course>
<desc>Speed 20.7 km/h Distance 15.69 km</desc>
<time>2011-07-19T20:32:51.64</time>
<name>2626</name>
</trkpt>
<trkpt lat="39.021407" lon="-3.841203">
<ele>670.5</ele>
<speed>21.0</speed>
<course>132.0</course>
<desc>Speed 21.0 km/h Distance 15.70 km</desc>
<time>2011-07-19T20:32:52.64</time>
<name>2627</name>
</trkpt>
<trkpt lat="39.021372" lon="-3.841153">
<ele>670.5</ele>
<speed>21.1</speed>
<course>131.1</course>
<desc>Speed 21.1 km/h Distance 15.70 km</desc>
<time>2011-07-19T20:32:53.64</time>
<name>2628</name>
</trkpt>
<trkpt lat="39.021337" lon="-3.841102">
<ele>670.5</ele>
<speed>21.1</speed>
<course>132.0</course>
<desc>Speed 21.1 km/h Distance 15.71 km</desc>
<time>2011-07-19T20:32:54.64</time>
<name>2629</name>
</trkpt>
<trkpt lat="39.021302" lon="-3.841052">
<ele>670.5</ele>
<speed>21.1</speed>
<course>129.7</course>
<desc>Speed 21.1 km/h Distance 15.72 km</desc>
<time>2011-07-19T20:32:55.64</time>
<name>2630</name>
</trkpt>
<trkpt lat="39.021268" lon="-3.841000">
<ele>670.5</ele>
<speed>21.1</speed>
<course>126.5</course>
<desc>Speed 21.1 km/h Distance 15.72 km</desc>
<time>2011-07-19T20:32:56.64</time>
<name>2631</name>
</trkpt>
<trkpt lat="39.021237" lon="-3.840945">
<ele>670.5</ele>
<speed>21.2</speed>
<course>124.3</course>
<desc>Speed 21.2 km/h Distance 15.73 km</desc>
<time>2011-07-19T20:32:57.64</time>
<name>2632</name>
</trkpt>
<trkpt lat="39.021207" lon="-3.840888">
<ele>670.5</ele>
<speed>21.2</speed>
<course>122.8</course>
<desc>Speed 21.2 km/h Distance 15.73 km</desc>
<time>2011-07-19T20:32:58.64</time>
<name>2633</name>
</trkpt>
<trkpt lat="39.021178" lon="-3.840832">
<ele>670.5</ele>
<speed>21.1</speed>
<course>125.1</course>
<desc>Speed 21.1 km/h Distance 15.74 km</desc>
<time>2011-07-19T20:32:59.64</time>
<name>2634</name>
</trkpt>
<trkpt lat="39.021148" lon="-3.840777">
<ele>670.5</ele>
<speed>20.9</speed>
<course>125.1</course>
<desc>Speed 20.9 km/h Distance 15.75 km</desc>
<time>2011-07-19T20:33:00.64</time>
<name>2635</name>
</trkpt>
<trkpt lat="39.021118" lon="-3.840722">
<ele>670.5</ele>
<speed>20.9</speed>
<course>123.5</course>
<desc>Speed 20.9 km/h Distance 15.75 km</desc>
<time>2011-07-19T20:33:01.64</time>
<name>2636</name>
</trkpt>
<trkpt lat="39.021090" lon="-3.840667">
<ele>670.5</ele>
<speed>20.8</speed>
<course>122.8</course>
<desc>Speed 20.8 km/h Distance 15.76 km</desc>
<time>2011-07-19T20:33:02.64</time>
<name>2637</name>
</trkpt>
<trkpt lat="39.021062" lon="-3.840610">
<ele>670.5</ele>
<speed>20.6</speed>
<course>124.4</course>
<desc>Speed 20.6 km/h Distance 15.76 km</desc>
<time>2011-07-19T20:33:03.64</time>
<name>2638</name>
</trkpt>
<trkpt lat="39.021033" lon="-3.840557">
<ele>670.5</ele>
<speed>20.3</speed>
<course>124.4</course>
<desc>Speed 20.3 km/h Distance 15.77 km</desc>
<time>2011-07-19T20:33:04.64</time>
<name>2639</name>
</trkpt>
<trkpt lat="39.021005" lon="-3.840503">
<ele>670.5</ele>
<speed>20.0</speed>
<course>124.4</course>
<desc>Speed 20.0 km/h Distance 15.77 km</desc>
<time>2011-07-19T20:33:05.64</time>
<name>2640</name>
</trkpt>
<trkpt lat="39.020977" lon="-3.840450">
<ele>670.5</ele>
<speed>20.1</speed>
<course>127.7</course>
<desc>Speed 20.1 km/h Distance 15.78 km</desc>
<time>2011-07-19T20:33:06.64</time>
<name>2641</name>
</trkpt>
<trkpt lat="39.020947" lon="-3.840400">
<ele>670.5</ele>
<speed>20.0</speed>
<course>126.8</course>
<desc>Speed 20.0 km/h Distance 15.78 km</desc>
<time>2011-07-19T20:33:07.64</time>
<name>2642</name>
</trkpt>
<trkpt lat="39.020917" lon="-3.840348">
<ele>670.5</ele>
<speed>19.9</speed>
<course>121.1</course>
<desc>Speed 19.9 km/h Distance 15.79 km</desc>
<time>2011-07-19T20:33:08.64</time>
<name>2643</name>
</trkpt>
<trkpt lat="39.020892" lon="-3.840295">
<ele>670.5</ele>
<speed>19.6</speed>
<course>118.6</course>
<desc>Speed 19.6 km/h Distance 15.80 km</desc>
<time>2011-07-19T20:33:09.64</time>
<name>2644</name>
</trkpt>
<trkpt lat="39.020868" lon="-3.840240">
<ele>670.5</ele>
<speed>19.4</speed>
<course>119.4</course>
<desc>Speed 19.4 km/h Distance 15.80 km</desc>
<time>2011-07-19T20:33:10.64</time>
<name>2645</name>
</trkpt>
<trkpt lat="39.020845" lon="-3.840187">
<ele>670.5</ele>
<speed>19.1</speed>
<course>120.2</course>
<desc>Speed 19.1 km/h Distance 15.81 km</desc>
<time>2011-07-19T20:33:11.64</time>
<name>2646</name>
</trkpt>
<trkpt lat="39.020822" lon="-3.840135">
<ele>670.5</ele>
<speed>18.9</speed>
<course>121.1</course>
<desc>Speed 18.9 km/h Distance 15.81 km</desc>
<time>2011-07-19T20:33:12.64</time>
<name>2647</name>
</trkpt>
<trkpt lat="39.020797" lon="-3.840082">
<ele>671.0</ele>
<speed>18.9</speed>
<course>117.6</course>
<desc>Speed 18.9 km/h Distance 15.82 km</desc>
<time>2011-07-19T20:33:13.64</time>
<name>2648</name>
</trkpt>
<trkpt lat="39.020775" lon="-3.840028">
<ele>670.5</ele>
<speed>18.7</speed>
<course>113.2</course>
<desc>Speed 18.7 km/h Distance 15.82 km</desc>
<time>2011-07-19T20:33:14.64</time>
<name>2649</name>
</trkpt>
<trkpt lat="39.020757" lon="-3.839973">
<ele>670.5</ele>
<speed>18.8</speed>
<course>112.6</course>
<desc>Speed 18.8 km/h Distance 15.83 km</desc>
<time>2011-07-19T20:33:15.64</time>
<name>2650</name>
</trkpt>
<trkpt lat="39.020738" lon="-3.839917">
<ele>670.5</ele>
<speed>19.0</speed>
<course>110.2</course>
<desc>Speed 19.0 km/h Distance 15.83 km</desc>
<time>2011-07-19T20:33:16.64</time>
<name>2651</name>
</trkpt>
<trkpt lat="39.020722" lon="-3.839858">
<ele>670.5</ele>
<speed>19.1</speed>
<course>109.3</course>
<desc>Speed 19.1 km/h Distance 15.84 km</desc>
<time>2011-07-19T20:33:17.64</time>
<name>2652</name>
</trkpt>
<trkpt lat="39.020707" lon="-3.839803">
<ele>670.5</ele>
<speed>18.6</speed>
<course>111.3</course>
<desc>Speed 18.6 km/h Distance 15.84 km</desc>
<time>2011-07-19T20:33:18.64</time>
<name>2653</name>
</trkpt>
<trkpt lat="39.020690" lon="-3.839748">
<ele>670.5</ele>
<speed>18.3</speed>
<course>113.8</course>
<desc>Speed 18.3 km/h Distance 15.85 km</desc>
<time>2011-07-19T20:33:19.64</time>
<name>2654</name>
</trkpt>
<trkpt lat="39.020670" lon="-3.839690">
<ele>670.5</ele>
<speed>19.4</speed>
<course>117.9</course>
<desc>Speed 19.4 km/h Distance 15.85 km</desc>
<time>2011-07-19T20:33:20.64</time>
<name>2655</name>
</trkpt>
<trkpt lat="39.020647" lon="-3.839633">
<ele>670.0</ele>
<speed>19.9</speed>
<course>114.9</course>
<desc>Speed 19.9 km/h Distance 15.86 km</desc>
<time>2011-07-19T20:33:21.64</time>
<name>2656</name>
</trkpt>
<trkpt lat="39.020625" lon="-3.839573">
<ele>670.5</ele>
<speed>20.6</speed>
<course>114.3</course>
<desc>Speed 20.6 km/h Distance 15.87 km</desc>
<time>2011-07-19T20:33:22.64</time>
<name>2657</name>
</trkpt>
<trkpt lat="39.020603" lon="-3.839512">
<ele>670.0</ele>
<speed>21.2</speed>
<course>116.9</course>
<desc>Speed 21.2 km/h Distance 15.87 km</desc>
<time>2011-07-19T20:33:23.64</time>
<name>2658</name>
</trkpt>
<trkpt lat="39.020578" lon="-3.839448">
<ele>670.0</ele>
<speed>21.9</speed>
<course>118.5</course>
<desc>Speed 21.9 km/h Distance 15.88 km</desc>
<time>2011-07-19T20:33:24.64</time>
<name>2659</name>
</trkpt>
<trkpt lat="39.020552" lon="-3.839385">
<ele>670.0</ele>
<speed>22.5</speed>
<course>119.9</course>
<desc>Speed 22.5 km/h Distance 15.88 km</desc>
<time>2011-07-19T20:33:25.64</time>
<name>2660</name>
</trkpt>
<trkpt lat="39.020523" lon="-3.839322">
<ele>670.0</ele>
<speed>22.8</speed>
<course>121.4</course>
<desc>Speed 22.8 km/h Distance 15.89 km</desc>
<time>2011-07-19T20:33:26.64</time>
<name>2661</name>
</trkpt>
<trkpt lat="39.020493" lon="-3.839258">
<ele>670.0</ele>
<speed>23.0</speed>
<course>121.4</course>
<desc>Speed 23.0 km/h Distance 15.90 km</desc>
<time>2011-07-19T20:33:27.64</time>
<name>2662</name>
</trkpt>
<trkpt lat="39.020463" lon="-3.839195">
<ele>670.5</ele>
<speed>23.1</speed>
<course>121.4</course>
<desc>Speed 23.1 km/h Distance 15.90 km</desc>
<time>2011-07-19T20:33:28.63</time>
<name>2663</name>
</trkpt>
<trkpt lat="39.020433" lon="-3.839132">
<ele>670.5</ele>
<speed>23.3</speed>
<course>122.1</course>
<desc>Speed 23.3 km/h Distance 15.91 km</desc>
<time>2011-07-19T20:33:29.64</time>
<name>2664</name>
</trkpt>
<trkpt lat="39.020402" lon="-3.839067">
<ele>670.5</ele>
<speed>23.6</speed>
<course>120.7</course>
<desc>Speed 23.6 km/h Distance 15.92 km</desc>
<time>2011-07-19T20:33:30.64</time>
<name>2665</name>
</trkpt>
<trkpt lat="39.020372" lon="-3.839002">
<ele>670.5</ele>
<speed>23.8</speed>
<course>121.4</course>
<desc>Speed 23.8 km/h Distance 15.92 km</desc>
<time>2011-07-19T20:33:31.64</time>
<name>2666</name>
</trkpt>
<trkpt lat="39.020340" lon="-3.838935">
<ele>671.0</ele>
<speed>23.8</speed>
<course>122.8</course>
<desc>Speed 23.8 km/h Distance 15.93 km</desc>
<time>2011-07-19T20:33:32.64</time>
<name>2667</name>
</trkpt>
<trkpt lat="39.020308" lon="-3.838872">
<ele>671.0</ele>
<speed>23.3</speed>
<course>125.6</course>
<desc>Speed 23.3 km/h Distance 15.94 km</desc>
<time>2011-07-19T20:33:33.64</time>
<name>2668</name>
</trkpt>
<trkpt lat="39.020275" lon="-3.838812">
<ele>671.0</ele>
<speed>23.4</speed>
<course>122.8</course>
<desc>Speed 23.4 km/h Distance 15.94 km</desc>
<time>2011-07-19T20:33:34.64</time>
<name>2669</name>
</trkpt>
<trkpt lat="39.020243" lon="-3.838748">
<ele>671.5</ele>
<speed>23.2</speed>
<course>122.8</course>
<desc>Speed 23.2 km/h Distance 15.95 km</desc>
<time>2011-07-19T20:33:35.64</time>
<name>2670</name>
</trkpt>
<trkpt lat="39.020212" lon="-3.838685">
<ele>671.5</ele>
<speed>23.4</speed>
<course>120.7</course>
<desc>Speed 23.4 km/h Distance 15.95 km</desc>
<time>2011-07-19T20:33:36.64</time>
<name>2671</name>
</trkpt>
<trkpt lat="39.020182" lon="-3.838620">
<ele>671.5</ele>
<speed>23.3</speed>
<course>115.8</course>
<desc>Speed 23.3 km/h Distance 15.96 km</desc>
<time>2011-07-19T20:33:37.64</time>
<name>2672</name>
</trkpt>
<trkpt lat="39.020157" lon="-3.838553">
<ele>671.5</ele>
<speed>23.3</speed>
<course>116.7</course>
<desc>Speed 23.3 km/h Distance 15.97 km</desc>
<time>2011-07-19T20:33:38.64</time>
<name>2673</name>
</trkpt>
<trkpt lat="39.020130" lon="-3.838485">
<ele>671.5</ele>
<speed>23.2</speed>
<course>114.2</course>
<desc>Speed 23.2 km/h Distance 15.97 km</desc>
<time>2011-07-19T20:33:39.64</time>
<name>2674</name>
</trkpt>
<trkpt lat="39.020107" lon="-3.838418">
<ele>671.5</ele>
<speed>23.0</speed>
<course>114.8</course>
<desc>Speed 23.0 km/h Distance 15.98 km</desc>
<time>2011-07-19T20:33:40.64</time>
<name>2675</name>
</trkpt>
<trkpt lat="39.020083" lon="-3.838353">
<ele>671.5</ele>
<speed>22.3</speed>
<course>113.2</course>
<desc>Speed 22.3 km/h Distance 15.99 km</desc>
<time>2011-07-19T20:33:41.64</time>
<name>2676</name>
</trkpt>
<trkpt lat="39.020062" lon="-3.838288">
<ele>671.5</ele>
<speed>22.1</speed>
<course>110.0</course>
<desc>Speed 22.1 km/h Distance 15.99 km</desc>
<time>2011-07-19T20:33:42.66</time>
<name>2677</name>
</trkpt>
<trkpt lat="39.020043" lon="-3.838223">
<ele>671.5</ele>
<speed>21.6</speed>
<course>104.8</course>
<desc>Speed 21.6 km/h Distance 16.00 km</desc>
<time>2011-07-19T20:33:43.64</time>
<name>2678</name>
</trkpt>
<trkpt lat="39.020030" lon="-3.838158">
<ele>671.5</ele>
<speed>20.9</speed>
<course>103.0</course>
<desc>Speed 20.9 km/h Distance 16.00 km</desc>
<time>2011-07-19T20:33:44.64</time>
<name>2679</name>
</trkpt>
<trkpt lat="39.020018" lon="-3.838093">
<ele>672.0</ele>
<speed>20.6</speed>
<course>101.5</course>
<desc>Speed 20.6 km/h Distance 16.01 km</desc>
<time>2011-07-19T20:33:45.64</time>
<name>2680</name>
</trkpt>
<trkpt lat="39.020008" lon="-3.838030">
<ele>672.0</ele>
<speed>20.0</speed>
<course>97.9</course>
<desc>Speed 20.0 km/h Distance 16.02 km</desc>
<time>2011-07-19T20:33:46.64</time>
<name>2681</name>
</trkpt>
<trkpt lat="39.020002" lon="-3.837968">
<ele>672.0</ele>
<speed>19.4</speed>
<course>100.1</course>
<desc>Speed 19.4 km/h Distance 16.02 km</desc>
<time>2011-07-19T20:33:47.64</time>
<name>2682</name>
</trkpt>
<trkpt lat="39.019993" lon="-3.837908">
<ele>672.0</ele>
<speed>19.2</speed>
<course>97.9</course>
<desc>Speed 19.2 km/h Distance 16.03 km</desc>
<time>2011-07-19T20:33:48.64</time>
<name>2683</name>
</trkpt>
<trkpt lat="39.019987" lon="-3.837847">
<ele>672.0</ele>
<speed>19.1</speed>
<course>94.1</course>
<desc>Speed 19.1 km/h Distance 16.03 km</desc>
<time>2011-07-19T20:33:49.64</time>
<name>2684</name>
</trkpt>
<trkpt lat="39.019983" lon="-3.837787">
<ele>672.0</ele>
<speed>18.9</speed>
<course>94.0</course>
<desc>Speed 18.9 km/h Distance 16.04 km</desc>
<time>2011-07-19T20:33:50.64</time>
<name>2685</name>
</trkpt>
<trkpt lat="39.019980" lon="-3.837725">
<ele>671.5</ele>
<speed>19.1</speed>
<course>92.0</course>
<desc>Speed 19.1 km/h Distance 16.04 km</desc>
<time>2011-07-19T20:33:51.64</time>
<name>2686</name>
</trkpt>
<trkpt lat="39.019978" lon="-3.837665">
<ele>671.5</ele>
<speed>18.8</speed>
<course>88.0</course>
<desc>Speed 18.8 km/h Distance 16.05 km</desc>
<time>2011-07-19T20:33:52.64</time>
<name>2687</name>
</trkpt>
<trkpt lat="39.019980" lon="-3.837605">
<ele>671.5</ele>
<speed>18.6</speed>
<course>85.9</course>
<desc>Speed 18.6 km/h Distance 16.05 km</desc>
<time>2011-07-19T20:33:53.64</time>
<name>2688</name>
</trkpt>
<trkpt lat="39.019983" lon="-3.837545">
<ele>671.5</ele>
<speed>18.8</speed>
<course>85.9</course>
<desc>Speed 18.8 km/h Distance 16.06 km</desc>
<time>2011-07-19T20:33:54.64</time>
<name>2689</name>
</trkpt>
<trkpt lat="39.019987" lon="-3.837485">
<ele>671.5</ele>
<speed>18.7</speed>
<course>88.0</course>
<desc>Speed 18.7 km/h Distance 16.06 km</desc>
<time>2011-07-19T20:33:55.64</time>
<name>2690</name>
</trkpt>
<trkpt lat="39.019988" lon="-3.837425">
<ele>671.5</ele>
<speed>18.4</speed>
<course>81.6</course>
<desc>Speed 18.4 km/h Distance 16.07 km</desc>
<time>2011-07-19T20:33:56.64</time>
<name>2691</name>
</trkpt>
<trkpt lat="39.019995" lon="-3.837367">
<ele>671.5</ele>
<speed>18.5</speed>
<course>77.2</course>
<desc>Speed 18.5 km/h Distance 16.07 km</desc>
<time>2011-07-19T20:33:57.64</time>
<name>2692</name>
</trkpt>
<trkpt lat="39.020005" lon="-3.837310">
<ele>671.5</ele>
<speed>18.4</speed>
<course>77.6</course>
<desc>Speed 18.4 km/h Distance 16.08 km</desc>
<time>2011-07-19T20:33:58.64</time>
<name>2693</name>
</trkpt>
<trkpt lat="39.020015" lon="-3.837252">
<ele>671.5</ele>
<speed>18.3</speed>
<course>76.8</course>
<desc>Speed 18.3 km/h Distance 16.08 km</desc>
<time>2011-07-19T20:33:59.64</time>
<name>2694</name>
</trkpt>
<trkpt lat="39.020025" lon="-3.837197">
<ele>671.5</ele>
<speed>17.7</speed>
<course>79.0</course>
<desc>Speed 17.7 km/h Distance 16.09 km</desc>
<time>2011-07-19T20:34:00.63</time>
<name>2695</name>
</trkpt>
<trkpt lat="39.020033" lon="-3.837142">
<ele>671.5</ele>
<speed>17.4</speed>
<course>81.1</course>
<desc>Speed 17.4 km/h Distance 16.09 km</desc>
<time>2011-07-19T20:34:01.64</time>
<name>2696</name>
</trkpt>
<trkpt lat="39.020040" lon="-3.837087">
<ele>671.5</ele>
<speed>17.2</speed>
<course>80.9</course>
<desc>Speed 17.2 km/h Distance 16.10 km</desc>
<time>2011-07-19T20:34:02.64</time>
<name>2697</name>
</trkpt>
<trkpt lat="39.020047" lon="-3.837033">
<ele>671.5</ele>
<speed>17.1</speed>
<course>80.9</course>
<desc>Speed 17.1 km/h Distance 16.10 km</desc>
<time>2011-07-19T20:34:03.64</time>
<name>2698</name>
</trkpt>
<trkpt lat="39.020053" lon="-3.836980">
<ele>671.5</ele>
<speed>17.0</speed>
<course>80.9</course>
<desc>Speed 17.0 km/h Distance 16.11 km</desc>
<time>2011-07-19T20:34:04.64</time>
<name>2699</name>
</trkpt>
<trkpt lat="39.020060" lon="-3.836927">
<ele>671.5</ele>
<speed>17.1</speed>
<course>79.0</course>
<desc>Speed 17.1 km/h Distance 16.11 km</desc>
<time>2011-07-19T20:34:05.64</time>
<name>2700</name>
</trkpt>
<trkpt lat="39.020068" lon="-3.836872">
<ele>671.5</ele>
<speed>17.0</speed>
<course>78.6</course>
<desc>Speed 17.0 km/h Distance 16.12 km</desc>
<time>2011-07-19T20:34:06.63</time>
<name>2701</name>
</trkpt>
<trkpt lat="39.020077" lon="-3.836818">
<ele>671.5</ele>
<speed>16.9</speed>
<course>78.6</course>
<desc>Speed 16.9 km/h Distance 16.12 km</desc>
<time>2011-07-19T20:34:07.64</time>
<name>2702</name>
</trkpt>
<trkpt lat="39.020085" lon="-3.836765">
<ele>671.5</ele>
<speed>17.1</speed>
<course>76.4</course>
<desc>Speed 17.1 km/h Distance 16.13 km</desc>
<time>2011-07-19T20:34:08.64</time>
<name>2703</name>
</trkpt>
<trkpt lat="39.020095" lon="-3.836712">
<ele>671.5</ele>
<speed>17.0</speed>
<course>78.6</course>
<desc>Speed 17.0 km/h Distance 16.13 km</desc>
<time>2011-07-19T20:34:09.64</time>
<name>2704</name>
</trkpt>
<trkpt lat="39.020103" lon="-3.836658">
<ele>671.5</ele>
<speed>16.9</speed>
<course>83.1</course>
<desc>Speed 16.9 km/h Distance 16.14 km</desc>
<time>2011-07-19T20:34:10.65</time>
<name>2705</name>
</trkpt>
<trkpt lat="39.020108" lon="-3.836605">
<ele>671.5</ele>
<speed>16.9</speed>
<course>85.4</course>
<desc>Speed 16.9 km/h Distance 16.14 km</desc>
<time>2011-07-19T20:34:11.64</time>
<name>2706</name>
</trkpt>
<trkpt lat="39.020112" lon="-3.836552">
<ele>671.5</ele>
<speed>16.6</speed>
<course>83.3</course>
<desc>Speed 16.6 km/h Distance 16.15 km</desc>
<time>2011-07-19T20:34:12.64</time>
<name>2707</name>
</trkpt>
<trkpt lat="39.020117" lon="-3.836497">
<ele>671.5</ele>
<speed>17.6</speed>
<course>85.7</course>
<desc>Speed 17.6 km/h Distance 16.15 km</desc>
<time>2011-07-19T20:34:13.64</time>
<name>2708</name>
</trkpt>
<trkpt lat="39.020120" lon="-3.836440">
<ele>671.5</ele>
<speed>17.6</speed>
<course>79.6</course>
<desc>Speed 17.6 km/h Distance 16.16 km</desc>
<time>2011-07-19T20:34:14.64</time>
<name>2709</name>
</trkpt>
<trkpt lat="39.020128" lon="-3.836382">
<ele>671.5</ele>
<speed>18.3</speed>
<course>79.3</course>
<desc>Speed 18.3 km/h Distance 16.16 km</desc>
<time>2011-07-19T20:34:15.64</time>
<name>2710</name>
</trkpt>
<trkpt lat="39.020137" lon="-3.836325">
<ele>672.0</ele>
<speed>18.3</speed>
<course>79.9</course>
<desc>Speed 18.3 km/h Distance 16.17 km</desc>
<time>2011-07-19T20:34:16.64</time>
<name>2711</name>
</trkpt>
<trkpt lat="39.020145" lon="-3.836265">
<ele>671.5</ele>
<speed>18.7</speed>
<course>79.9</course>
<desc>Speed 18.7 km/h Distance 16.17 km</desc>
<time>2011-07-19T20:34:17.63</time>
<name>2712</name>
</trkpt>
<trkpt lat="39.020153" lon="-3.836205">
<ele>672.0</ele>
<speed>18.9</speed>
<course>83.9</course>
<desc>Speed 18.9 km/h Distance 16.18 km</desc>
<time>2011-07-19T20:34:18.63</time>
<name>2713</name>
</trkpt>
<trkpt lat="39.020158" lon="-3.836145">
<ele>672.0</ele>
<speed>18.9</speed>
<course>81.6</course>
<desc>Speed 18.9 km/h Distance 16.18 km</desc>
<time>2011-07-19T20:34:19.63</time>
<name>2714</name>
</trkpt>
<trkpt lat="39.020165" lon="-3.836087">
<ele>672.0</ele>
<speed>18.6</speed>
<course>79.9</course>
<desc>Speed 18.6 km/h Distance 16.19 km</desc>
<time>2011-07-19T20:34:20.64</time>
<name>2715</name>
</trkpt>
<trkpt lat="39.020173" lon="-3.836027">
<ele>672.0</ele>
<speed>18.9</speed>
<course>81.9</course>
<desc>Speed 18.9 km/h Distance 16.19 km</desc>
<time>2011-07-19T20:34:21.63</time>
<name>2716</name>
</trkpt>
<trkpt lat="39.020180" lon="-3.835967">
<ele>672.0</ele>
<speed>19.0</speed>
<course>76.3</course>
<desc>Speed 19.0 km/h Distance 16.20 km</desc>
<time>2011-07-19T20:34:22.63</time>
<name>2717</name>
</trkpt>
<trkpt lat="39.020192" lon="-3.835905">
<ele>672.0</ele>
<speed>19.3</speed>
<course>78.2</course>
<desc>Speed 19.3 km/h Distance 16.20 km</desc>
<time>2011-07-19T20:34:23.63</time>
<name>2718</name>
</trkpt>
<trkpt lat="39.020202" lon="-3.835843">
<ele>672.5</ele>
<speed>19.8</speed>
<course>80.1</course>
<desc>Speed 19.8 km/h Distance 16.21 km</desc>
<time>2011-07-19T20:34:24.64</time>
<name>2719</name>
</trkpt>
<trkpt lat="39.020210" lon="-3.835782">
<ele>672.5</ele>
<speed>19.8</speed>
<course>80.4</course>
<desc>Speed 19.8 km/h Distance 16.21 km</desc>
<time>2011-07-19T20:34:25.63</time>
<name>2720</name>
</trkpt>
<trkpt lat="39.020218" lon="-3.835718">
<ele>672.5</ele>
<speed>19.6</speed>
<course>77.9</course>
<desc>Speed 19.6 km/h Distance 16.22 km</desc>
<time>2011-07-19T20:34:26.63</time>
<name>2721</name>
</trkpt>
<trkpt lat="39.020228" lon="-3.835658">
<ele>672.5</ele>
<speed>19.0</speed>
<course>81.9</course>
<desc>Speed 19.0 km/h Distance 16.22 km</desc>
<time>2011-07-19T20:34:27.63</time>
<name>2722</name>
</trkpt>
<trkpt lat="39.020235" lon="-3.835598">
<ele>672.5</ele>
<speed>18.9</speed>
<course>81.6</course>
<desc>Speed 18.9 km/h Distance 16.23 km</desc>
<time>2011-07-19T20:34:28.64</time>
<name>2723</name>
</trkpt>
<trkpt lat="39.020242" lon="-3.835540">
<ele>672.5</ele>
<speed>18.5</speed>
<course>81.6</course>
<desc>Speed 18.5 km/h Distance 16.23 km</desc>
<time>2011-07-19T20:34:29.63</time>
<name>2724</name>
</trkpt>
<trkpt lat="39.020248" lon="-3.835482">
<ele>672.5</ele>
<speed>18.4</speed>
<course>83.7</course>
<desc>Speed 18.4 km/h Distance 16.24 km</desc>
<time>2011-07-19T20:34:30.63</time>
<name>2725</name>
</trkpt>
<trkpt lat="39.020253" lon="-3.835423">
<ele>672.5</ele>
<speed>18.1</speed>
<course>81.4</course>
<desc>Speed 18.1 km/h Distance 16.24 km</desc>
<time>2011-07-19T20:34:31.65</time>
<name>2726</name>
</trkpt>
<trkpt lat="39.020260" lon="-3.835367">
<ele>672.5</ele>
<speed>17.9</speed>
<course>83.3</course>
<desc>Speed 17.9 km/h Distance 16.25 km</desc>
<time>2011-07-19T20:34:32.63</time>
<name>2727</name>
</trkpt>
<trkpt lat="39.020265" lon="-3.835312">
<ele>672.5</ele>
<speed>17.5</speed>
<course>81.4</course>
<desc>Speed 17.5 km/h Distance 16.25 km</desc>
<time>2011-07-19T20:34:33.64</time>
<name>2728</name>
</trkpt>
<trkpt lat="39.020272" lon="-3.835255">
<ele>672.5</ele>
<speed>17.6</speed>
<course>85.5</course>
<desc>Speed 17.6 km/h Distance 16.26 km</desc>
<time>2011-07-19T20:34:34.63</time>
<name>2729</name>
</trkpt>
<trkpt lat="39.020275" lon="-3.835200">
<ele>672.5</ele>
<speed>17.3</speed>
<course>85.5</course>
<desc>Speed 17.3 km/h Distance 16.26 km</desc>
<time>2011-07-19T20:34:35.64</time>
<name>2730</name>
</trkpt>
<trkpt lat="39.020278" lon="-3.835145">
<ele>673.0</ele>
<speed>17.1</speed>
<course>87.7</course>
<desc>Speed 17.1 km/h Distance 16.27 km</desc>
<time>2011-07-19T20:34:36.64</time>
<name>2731</name>
</trkpt>
<trkpt lat="39.020280" lon="-3.835092">
<ele>673.0</ele>
<speed>17.0</speed>
<course>83.3</course>
<desc>Speed 17.0 km/h Distance 16.27 km</desc>
<time>2011-07-19T20:34:37.64</time>
<name>2732</name>
</trkpt>
<trkpt lat="39.020285" lon="-3.835037">
<ele>673.0</ele>
<speed>17.3</speed>
<course>80.9</course>
<desc>Speed 17.3 km/h Distance 16.28 km</desc>
<time>2011-07-19T20:34:38.64</time>
<name>2733</name>
</trkpt>
<trkpt lat="39.020292" lon="-3.834983">
<ele>673.0</ele>
<speed>17.0</speed>
<course>85.4</course>
<desc>Speed 17.0 km/h Distance 16.28 km</desc>
<time>2011-07-19T20:34:39.64</time>
<name>2734</name>
</trkpt>
<trkpt lat="39.020295" lon="-3.834930">
<ele>673.0</ele>
<speed>17.0</speed>
<course>85.4</course>
<desc>Speed 17.0 km/h Distance 16.29 km</desc>
<time>2011-07-19T20:34:40.64</time>
<name>2735</name>
</trkpt>
<trkpt lat="39.020298" lon="-3.834877">
<ele>673.0</ele>
<speed>16.9</speed>
<course>83.3</course>
<desc>Speed 16.9 km/h Distance 16.29 km</desc>
<time>2011-07-19T20:34:41.64</time>
<name>2736</name>
</trkpt>
<trkpt lat="39.020303" lon="-3.834822">
<ele>673.0</ele>
<speed>17.2</speed>
<course>85.5</course>
<desc>Speed 17.2 km/h Distance 16.30 km</desc>
<time>2011-07-19T20:34:42.66</time>
<name>2737</name>
</trkpt>
<trkpt lat="39.020307" lon="-3.834767">
<ele>673.5</ele>
<speed>17.2</speed>
<course>85.5</course>
<desc>Speed 17.2 km/h Distance 16.30 km</desc>
<time>2011-07-19T20:34:43.64</time>
<name>2738</name>
</trkpt>
<trkpt lat="39.020310" lon="-3.834712">
<ele>673.5</ele>
<speed>17.2</speed>
<course>85.4</course>
<desc>Speed 17.2 km/h Distance 16.31 km</desc>
<time>2011-07-19T20:34:44.64</time>
<name>2739</name>
</trkpt>
<trkpt lat="39.020313" lon="-3.834658">
<ele>673.5</ele>
<speed>16.9</speed>
<course>85.5</course>
<desc>Speed 16.9 km/h Distance 16.31 km</desc>
<time>2011-07-19T20:34:45.64</time>
<name>2740</name>
</trkpt>
<trkpt lat="39.020317" lon="-3.834603">
<ele>673.5</ele>
<speed>17.0</speed>
<course>85.4</course>
<desc>Speed 17.0 km/h Distance 16.32 km</desc>
<time>2011-07-19T20:34:46.64</time>
<name>2741</name>
</trkpt>
<trkpt lat="39.020320" lon="-3.834550">
<ele>673.5</ele>
<speed>16.8</speed>
<course>85.5</course>
<desc>Speed 16.8 km/h Distance 16.32 km</desc>
<time>2011-07-19T20:34:47.64</time>
<name>2742</name>
</trkpt>
<trkpt lat="39.020323" lon="-3.834495">
<ele>673.5</ele>
<speed>17.0</speed>
<course>87.8</course>
<desc>Speed 17.0 km/h Distance 16.33 km</desc>
<time>2011-07-19T20:34:48.64</time>
<name>2743</name>
</trkpt>
<trkpt lat="39.020325" lon="-3.834440">
<ele>673.5</ele>
<speed>17.1</speed>
<course>87.8</course>
<desc>Speed 17.1 km/h Distance 16.33 km</desc>
<time>2011-07-19T20:34:49.64</time>
<name>2744</name>
</trkpt>
<trkpt lat="39.020327" lon="-3.834385">
<ele>674.0</ele>
<speed>17.2</speed>
<course>87.8</course>
<desc>Speed 17.2 km/h Distance 16.33 km</desc>
<time>2011-07-19T20:34:50.63</time>
<name>2745</name>
</trkpt>
<trkpt lat="39.020328" lon="-3.834330">
<ele>674.0</ele>
<speed>17.2</speed>
<course>94.6</course>
<desc>Speed 17.2 km/h Distance 16.34 km</desc>
<time>2011-07-19T20:34:51.64</time>
<name>2746</name>
</trkpt>
<trkpt lat="39.020325" lon="-3.834277">
<ele>674.0</ele>
<speed>17.2</speed>
<course>90.0</course>
<desc>Speed 17.2 km/h Distance 16.34 km</desc>
<time>2011-07-19T20:34:52.64</time>
<name>2747</name>
</trkpt>
<trkpt lat="39.020325" lon="-3.834220">
<ele>674.0</ele>
<speed>17.6</speed>
<course>90.0</course>
<desc>Speed 17.6 km/h Distance 16.35 km</desc>
<time>2011-07-19T20:34:53.64</time>
<name>2748</name>
</trkpt>
<trkpt lat="39.020325" lon="-3.834162">
<ele>674.0</ele>
<speed>18.1</speed>
<course>90.0</course>
<desc>Speed 18.1 km/h Distance 16.35 km</desc>
<time>2011-07-19T20:34:54.63</time>
<name>2749</name>
</trkpt>
<trkpt lat="39.020325" lon="-3.834105">
<ele>674.0</ele>
<speed>17.9</speed>
<course>92.1</course>
<desc>Speed 17.9 km/h Distance 16.36 km</desc>
<time>2011-07-19T20:34:55.63</time>
<name>2750</name>
</trkpt>
<trkpt lat="39.020323" lon="-3.834047">
<ele>674.0</ele>
<speed>17.8</speed>
<course>94.2</course>
<desc>Speed 17.8 km/h Distance 16.36 km</desc>
<time>2011-07-19T20:34:56.64</time>
<name>2751</name>
</trkpt>
<trkpt lat="39.020320" lon="-3.833988">
<ele>674.0</ele>
<speed>18.3</speed>
<course>92.1</course>
<desc>Speed 18.3 km/h Distance 16.37 km</desc>
<time>2011-07-19T20:34:57.64</time>
<name>2752</name>
</trkpt>
<trkpt lat="39.020318" lon="-3.833930">
<ele>674.0</ele>
<speed>18.6</speed>
<course>88.0</course>
<desc>Speed 18.6 km/h Distance 16.37 km</desc>
<time>2011-07-19T20:34:58.64</time>
<name>2753</name>
</trkpt>
<trkpt lat="39.020320" lon="-3.833868">
<ele>674.0</ele>
<speed>19.2</speed>
<course>90.0</course>
<desc>Speed 19.2 km/h Distance 16.38 km</desc>
<time>2011-07-19T20:34:59.63</time>
<name>2754</name>
</trkpt>
<trkpt lat="39.020320" lon="-3.833807">
<ele>674.0</ele>
<speed>19.4</speed>
<course>90.0</course>
<desc>Speed 19.4 km/h Distance 16.38 km</desc>
<time>2011-07-19T20:35:00.63</time>
<name>2755</name>
</trkpt>
<trkpt lat="39.020320" lon="-3.833745">
<ele>674.5</ele>
<speed>19.5</speed>
<course>93.9</course>
<desc>Speed 19.5 km/h Distance 16.39 km</desc>
<time>2011-07-19T20:35:01.63</time>
<name>2756</name>
</trkpt>
<trkpt lat="39.020317" lon="-3.833682">
<ele>674.5</ele>
<speed>19.7</speed>
<course>93.9</course>
<desc>Speed 19.7 km/h Distance 16.40 km</desc>
<time>2011-07-19T20:35:02.63</time>
<name>2757</name>
</trkpt>
<trkpt lat="39.020313" lon="-3.833618">
<ele>674.5</ele>
<speed>19.7</speed>
<course>92.0</course>
<desc>Speed 19.7 km/h Distance 16.40 km</desc>
<time>2011-07-19T20:35:03.64</time>
<name>2758</name>
</trkpt>
<trkpt lat="39.020312" lon="-3.833558">
<ele>674.5</ele>
<speed>19.2</speed>
<course>92.0</course>
<desc>Speed 19.2 km/h Distance 16.41 km</desc>
<time>2011-07-19T20:35:04.63</time>
<name>2759</name>
</trkpt>
<trkpt lat="39.020310" lon="-3.833498">
<ele>674.5</ele>
<speed>19.0</speed>
<course>90.0</course>
<desc>Speed 19.0 km/h Distance 16.41 km</desc>
<time>2011-07-19T20:35:05.64</time>
<name>2760</name>
</trkpt>
<trkpt lat="39.020310" lon="-3.833438">
<ele>674.5</ele>
<speed>18.6</speed>
<course>90.0</course>
<desc>Speed 18.6 km/h Distance 16.42 km</desc>
<time>2011-07-19T20:35:06.63</time>
<name>2761</name>
</trkpt>
<trkpt lat="39.020310" lon="-3.833382">
<ele>675.0</ele>
<speed>18.0</speed>
<course>92.2</course>
<desc>Speed 18.0 km/h Distance 16.42 km</desc>
<time>2011-07-19T20:35:07.63</time>
<name>2762</name>
</trkpt>
<trkpt lat="39.020308" lon="-3.833325">
<ele>675.0</ele>
<speed>17.8</speed>
<course>92.2</course>
<desc>Speed 17.8 km/h Distance 16.43 km</desc>
<time>2011-07-19T20:35:08.63</time>
<name>2763</name>
</trkpt>
<trkpt lat="39.020307" lon="-3.833270">
<ele>675.0</ele>
<speed>17.5</speed>
<course>87.8</course>
<desc>Speed 17.5 km/h Distance 16.43 km</desc>
<time>2011-07-19T20:35:09.63</time>
<name>2764</name>
</trkpt>
<trkpt lat="39.020308" lon="-3.833213">
<ele>675.0</ele>
<speed>17.3</speed>
<course>92.3</course>
<desc>Speed 17.3 km/h Distance 16.44 km</desc>
<time>2011-07-19T20:35:10.64</time>
<name>2765</name>
</trkpt>
<trkpt lat="39.020307" lon="-3.833160">
<ele>675.0</ele>
<speed>17.1</speed>
<course>90.0</course>
<desc>Speed 17.1 km/h Distance 16.44 km</desc>
<time>2011-07-19T20:35:11.63</time>
<name>2766</name>
</trkpt>
<trkpt lat="39.020307" lon="-3.833105">
<ele>675.0</ele>
<speed>17.0</speed>
<course>92.2</course>
<desc>Speed 17.0 km/h Distance 16.45 km</desc>
<time>2011-07-19T20:35:12.63</time>
<name>2767</name>
</trkpt>
<trkpt lat="39.020305" lon="-3.833050">
<ele>675.0</ele>
<speed>16.9</speed>
<course>94.6</course>
<desc>Speed 16.9 km/h Distance 16.45 km</desc>
<time>2011-07-19T20:35:13.63</time>
<name>2768</name>
</trkpt>
<trkpt lat="39.020302" lon="-3.832997">
<ele>675.0</ele>
<speed>16.8</speed>
<course>94.6</course>
<desc>Speed 16.8 km/h Distance 16.45 km</desc>
<time>2011-07-19T20:35:14.63</time>
<name>2769</name>
</trkpt>
<trkpt lat="39.020298" lon="-3.832943">
<ele>675.0</ele>
<speed>16.7</speed>
<course>96.9</course>
<desc>Speed 16.7 km/h Distance 16.46 km</desc>
<time>2011-07-19T20:35:15.64</time>
<name>2770</name>
</trkpt>
<trkpt lat="39.020293" lon="-3.832890">
<ele>675.0</ele>
<speed>16.5</speed>
<course>99.7</course>
<desc>Speed 16.5 km/h Distance 16.46 km</desc>
<time>2011-07-19T20:35:16.63</time>
<name>2771</name>
</trkpt>
<trkpt lat="39.020287" lon="-3.832840">
<ele>675.0</ele>
<speed>16.2</speed>
<course>103.6</course>
<desc>Speed 16.2 km/h Distance 16.47 km</desc>
<time>2011-07-19T20:35:17.63</time>
<name>2772</name>
</trkpt>
<trkpt lat="39.020277" lon="-3.832787">
<ele>675.0</ele>
<speed>17.0</speed>
<course>106.2</course>
<desc>Speed 17.0 km/h Distance 16.47 km</desc>
<time>2011-07-19T20:35:18.64</time>
<name>2773</name>
</trkpt>
<trkpt lat="39.020265" lon="-3.832735">
<ele>675.5</ele>
<speed>17.0</speed>
<course>108.4</course>
<desc>Speed 17.0 km/h Distance 16.48 km</desc>
<time>2011-07-19T20:35:19.63</time>
<name>2774</name>
</trkpt>
<trkpt lat="39.020252" lon="-3.832683">
<ele>675.5</ele>
<speed>17.0</speed>
<course>105.7</course>
<desc>Speed 17.0 km/h Distance 16.48 km</desc>
<time>2011-07-19T20:35:20.64</time>
<name>2775</name>
</trkpt>
<trkpt lat="39.020240" lon="-3.832630">
<ele>676.0</ele>
<speed>17.2</speed>
<course>103.6</course>
<desc>Speed 17.2 km/h Distance 16.49 km</desc>
<time>2011-07-19T20:35:21.63</time>
<name>2776</name>
</trkpt>
<trkpt lat="39.020230" lon="-3.832577">
<ele>676.0</ele>
<speed>17.5</speed>
<course>103.2</course>
<desc>Speed 17.5 km/h Distance 16.49 km</desc>
<time>2011-07-19T20:35:22.63</time>
<name>2777</name>
</trkpt>
<trkpt lat="39.020220" lon="-3.832522">
<ele>676.0</ele>
<speed>17.2</speed>
<course>104.4</course>
<desc>Speed 17.2 km/h Distance 16.50 km</desc>
<time>2011-07-19T20:35:23.64</time>
<name>2778</name>
</trkpt>
<trkpt lat="39.020210" lon="-3.832472">
<ele>676.5</ele>
<speed>16.7</speed>
<course>105.7</course>
<desc>Speed 16.7 km/h Distance 16.50 km</desc>
<time>2011-07-19T20:35:24.63</time>
<name>2779</name>
</trkpt>
<trkpt lat="39.020198" lon="-3.832418">
<ele>676.5</ele>
<speed>16.7</speed>
<course>103.6</course>
<desc>Speed 16.7 km/h Distance 16.51 km</desc>
<time>2011-07-19T20:35:25.63</time>
<name>2780</name>
</trkpt>
<trkpt lat="39.020188" lon="-3.832365">
<ele>676.5</ele>
<speed>17.2</speed>
<course>105.7</course>
<desc>Speed 17.2 km/h Distance 16.51 km</desc>
<time>2011-07-19T20:35:26.63</time>
<name>2781</name>
</trkpt>
<trkpt lat="39.020177" lon="-3.832312">
<ele>676.5</ele>
<speed>17.4</speed>
<course>107.8</course>
<desc>Speed 17.4 km/h Distance 16.52 km</desc>
<time>2011-07-19T20:35:27.63</time>
<name>2782</name>
</trkpt>
<trkpt lat="39.020163" lon="-3.832258">
<ele>676.5</ele>
<speed>17.5</speed>
<course>105.7</course>
<desc>Speed 17.5 km/h Distance 16.52 km</desc>
<time>2011-07-19T20:35:28.63</time>
<name>2783</name>
</trkpt>
<trkpt lat="39.020152" lon="-3.832205">
<ele>676.5</ele>
<speed>17.5</speed>
<course>102.8</course>
<desc>Speed 17.5 km/h Distance 16.53 km</desc>
<time>2011-07-19T20:35:29.63</time>
<name>2784</name>
</trkpt>
<trkpt lat="39.020142" lon="-3.832148">
<ele>676.5</ele>
<speed>17.7</speed>
<course>105.3</course>
<desc>Speed 17.7 km/h Distance 16.53 km</desc>
<time>2011-07-19T20:35:30.64</time>
<name>2785</name>
</trkpt>
<trkpt lat="39.020130" lon="-3.832093">
<ele>677.0</ele>
<speed>17.9</speed>
<course>105.3</course>
<desc>Speed 17.9 km/h Distance 16.54 km</desc>
<time>2011-07-19T20:35:31.63</time>
<name>2786</name>
</trkpt>
<trkpt lat="39.020118" lon="-3.832038">
<ele>677.0</ele>
<speed>17.8</speed>
<course>104.8</course>
<desc>Speed 17.8 km/h Distance 16.54 km</desc>
<time>2011-07-19T20:35:32.63</time>
<name>2787</name>
</trkpt>
<trkpt lat="39.020107" lon="-3.831982">
<ele>677.0</ele>
<speed>18.1</speed>
<course>104.8</course>
<desc>Speed 18.1 km/h Distance 16.55 km</desc>
<time>2011-07-19T20:35:33.63</time>
<name>2788</name>
</trkpt>
<trkpt lat="39.020095" lon="-3.831925">
<ele>677.0</ele>
<speed>18.3</speed>
<course>102.4</course>
<desc>Speed 18.3 km/h Distance 16.55 km</desc>
<time>2011-07-19T20:35:34.63</time>
<name>2789</name>
</trkpt>
<trkpt lat="39.020085" lon="-3.831867">
<ele>677.5</ele>
<speed>18.2</speed>
<course>102.8</course>
<desc>Speed 18.2 km/h Distance 16.56 km</desc>
<time>2011-07-19T20:35:35.63</time>
<name>2790</name>
</trkpt>
<trkpt lat="39.020075" lon="-3.831810">
<ele>677.0</ele>
<speed>18.2</speed>
<course>104.8</course>
<desc>Speed 18.2 km/h Distance 16.56 km</desc>
<time>2011-07-19T20:35:36.62</time>
<name>2791</name>
</trkpt>
<trkpt lat="39.020063" lon="-3.831753">
<ele>677.5</ele>
<speed>18.3</speed>
<course>104.8</course>
<desc>Speed 18.3 km/h Distance 16.57 km</desc>
<time>2011-07-19T20:35:37.63</time>
<name>2792</name>
</trkpt>
<trkpt lat="39.020052" lon="-3.831697">
<ele>677.5</ele>
<speed>18.5</speed>
<course>102.4</course>
<desc>Speed 18.5 km/h Distance 16.57 km</desc>
<time>2011-07-19T20:35:38.63</time>
<name>2793</name>
</trkpt>
<trkpt lat="39.020042" lon="-3.831638">
<ele>677.5</ele>
<speed>18.5</speed>
<course>104.4</course>
<desc>Speed 18.5 km/h Distance 16.58 km</desc>
<time>2011-07-19T20:35:39.63</time>
<name>2794</name>
</trkpt>
<trkpt lat="39.020030" lon="-3.831580">
<ele>677.5</ele>
<speed>18.8</speed>
<course>106.4</course>
<desc>Speed 18.8 km/h Distance 16.58 km</desc>
<time>2011-07-19T20:35:40.63</time>
<name>2795</name>
</trkpt>
<trkpt lat="39.020017" lon="-3.831522">
<ele>678.0</ele>
<speed>18.8</speed>
<course>104.4</course>
<desc>Speed 18.8 km/h Distance 16.59 km</desc>
<time>2011-07-19T20:35:41.63</time>
<name>2796</name>
</trkpt>
<trkpt lat="39.020005" lon="-3.831463">
<ele>678.0</ele>
<speed>18.6</speed>
<course>105.3</course>
<desc>Speed 18.6 km/h Distance 16.59 km</desc>
<time>2011-07-19T20:35:42.65</time>
<name>2797</name>
</trkpt>
<trkpt lat="39.019993" lon="-3.831408">
<ele>678.0</ele>
<speed>17.9</speed>
<course>104.4</course>
<desc>Speed 17.9 km/h Distance 16.60 km</desc>
<time>2011-07-19T20:35:43.63</time>
<name>2798</name>
</trkpt>
<trkpt lat="39.019982" lon="-3.831350">
<ele>678.0</ele>
<speed>18.4</speed>
<course>107.3</course>
<desc>Speed 18.4 km/h Distance 16.60 km</desc>
<time>2011-07-19T20:35:44.63</time>
<name>2799</name>
</trkpt>
<trkpt lat="39.019968" lon="-3.831295">
<ele>678.0</ele>
<speed>18.1</speed>
<course>107.3</course>
<desc>Speed 18.1 km/h Distance 16.61 km</desc>
<time>2011-07-19T20:35:45.63</time>
<name>2800</name>
</trkpt>
<trkpt lat="39.019955" lon="-3.831240">
<ele>678.0</ele>
<speed>17.9</speed>
<course>109.9</course>
<desc>Speed 17.9 km/h Distance 16.61 km</desc>
<time>2011-07-19T20:35:46.63</time>
<name>2801</name>
</trkpt>
<trkpt lat="39.019940" lon="-3.831187">
<ele>678.0</ele>
<speed>17.7</speed>
<course>107.3</course>
<desc>Speed 17.7 km/h Distance 16.62 km</desc>
<time>2011-07-19T20:35:47.63</time>
<name>2802</name>
</trkpt>
<trkpt lat="39.019927" lon="-3.831132">
<ele>678.5</ele>
<speed>17.7</speed>
<course>105.7</course>
<desc>Speed 17.7 km/h Distance 16.62 km</desc>
<time>2011-07-19T20:35:48.63</time>
<name>2803</name>
</trkpt>
<trkpt lat="39.019915" lon="-3.831078">
<ele>678.5</ele>
<speed>17.7</speed>
<course>107.3</course>
<desc>Speed 17.7 km/h Distance 16.63 km</desc>
<time>2011-07-19T20:35:49.63</time>
<name>2804</name>
</trkpt>
<trkpt lat="39.019902" lon="-3.831023">
<ele>678.5</ele>
<speed>17.6</speed>
<course>105.3</course>
<desc>Speed 17.6 km/h Distance 16.63 km</desc>
<time>2011-07-19T20:35:50.63</time>
<name>2805</name>
</trkpt>
<trkpt lat="39.019890" lon="-3.830968">
<ele>678.5</ele>
<speed>17.7</speed>
<course>102.8</course>
<desc>Speed 17.7 km/h Distance 16.64 km</desc>
<time>2011-07-19T20:35:51.63</time>
<name>2806</name>
</trkpt>
<trkpt lat="39.019880" lon="-3.830912">
<ele>678.5</ele>
<speed>17.7</speed>
<course>105.3</course>
<desc>Speed 17.7 km/h Distance 16.64 km</desc>
<time>2011-07-19T20:35:52.63</time>
<name>2807</name>
</trkpt>
<trkpt lat="39.019868" lon="-3.830857">
<ele>678.5</ele>
<speed>17.9</speed>
<course>102.8</course>
<desc>Speed 17.9 km/h Distance 16.65 km</desc>
<time>2011-07-19T20:35:53.63</time>
<name>2808</name>
</trkpt>
<trkpt lat="39.019858" lon="-3.830800">
<ele>678.5</ele>
<speed>17.9</speed>
<course>100.7</course>
<desc>Speed 17.9 km/h Distance 16.65 km</desc>
<time>2011-07-19T20:35:54.63</time>
<name>2809</name>
</trkpt>
<trkpt lat="39.019850" lon="-3.830743">
<ele>678.5</ele>
<speed>18.2</speed>
<course>100.1</course>
<desc>Speed 18.2 km/h Distance 16.66 km</desc>
<time>2011-07-19T20:35:55.63</time>
<name>2810</name>
</trkpt>
<trkpt lat="39.019842" lon="-3.830683">
<ele>678.5</ele>
<speed>18.6</speed>
<course>96.0</course>
<desc>Speed 18.6 km/h Distance 16.66 km</desc>
<time>2011-07-19T20:35:56.63</time>
<name>2811</name>
</trkpt>
<trkpt lat="39.019837" lon="-3.830622">
<ele>678.5</ele>
<speed>18.9</speed>
<course>98.1</course>
<desc>Speed 18.9 km/h Distance 16.67 km</desc>
<time>2011-07-19T20:35:57.63</time>
<name>2812</name>
</trkpt>
<trkpt lat="39.019830" lon="-3.830562">
<ele>678.0</ele>
<speed>18.8</speed>
<course>96.0</course>
<desc>Speed 18.8 km/h Distance 16.67 km</desc>
<time>2011-07-19T20:35:58.63</time>
<name>2813</name>
</trkpt>
<trkpt lat="39.019825" lon="-3.830500">
<ele>678.0</ele>
<speed>18.9</speed>
<course>98.1</course>
<desc>Speed 18.9 km/h Distance 16.68 km</desc>
<time>2011-07-19T20:35:59.63</time>
<name>2814</name>
</trkpt>
<trkpt lat="39.019818" lon="-3.830440">
<ele>678.0</ele>
<speed>18.9</speed>
<course>98.1</course>
<desc>Speed 18.9 km/h Distance 16.68 km</desc>
<time>2011-07-19T20:36:00.63</time>
<name>2815</name>
</trkpt>
<trkpt lat="39.019812" lon="-3.830380">
<ele>678.0</ele>
<speed>19.1</speed>
<course>99.6</course>
<desc>Speed 19.1 km/h Distance 16.69 km</desc>
<time>2011-07-19T20:36:01.63</time>
<name>2816</name>
</trkpt>
<trkpt lat="39.019803" lon="-3.830317">
<ele>678.0</ele>
<speed>19.5</speed>
<course>101.8</course>
<desc>Speed 19.5 km/h Distance 16.69 km</desc>
<time>2011-07-19T20:36:02.63</time>
<name>2817</name>
</trkpt>
<trkpt lat="39.019793" lon="-3.830255">
<ele>678.0</ele>
<speed>19.7</speed>
<course>101.8</course>
<desc>Speed 19.7 km/h Distance 16.70 km</desc>
<time>2011-07-19T20:36:03.63</time>
<name>2818</name>
</trkpt>
<trkpt lat="39.019783" lon="-3.830193">
<ele>678.0</ele>
<speed>19.8</speed>
<course>105.6</course>
<desc>Speed 19.8 km/h Distance 16.70 km</desc>
<time>2011-07-19T20:36:04.63</time>
<name>2819</name>
</trkpt>
<trkpt lat="39.019770" lon="-3.830132">
<ele>678.0</ele>
<speed>19.7</speed>
<course>105.2</course>
<desc>Speed 19.7 km/h Distance 16.71 km</desc>
<time>2011-07-19T20:36:05.63</time>
<name>2820</name>
</trkpt>
<trkpt lat="39.019757" lon="-3.830068">
<ele>677.5</ele>
<speed>20.1</speed>
<course>109.2</course>
<desc>Speed 20.1 km/h Distance 16.72 km</desc>
<time>2011-07-19T20:36:06.63</time>
<name>2821</name>
</trkpt>
<trkpt lat="39.019740" lon="-3.830007">
<ele>677.5</ele>
<speed>20.3</speed>
<course>110.4</course>
<desc>Speed 20.3 km/h Distance 16.72 km</desc>
<time>2011-07-19T20:36:07.63</time>
<name>2822</name>
</trkpt>
<trkpt lat="39.019722" lon="-3.829943">
<ele>677.5</ele>
<speed>20.8</speed>
<course>110.4</course>
<desc>Speed 20.8 km/h Distance 16.73 km</desc>
<time>2011-07-19T20:36:08.63</time>
<name>2823</name>
</trkpt>
<trkpt lat="39.019703" lon="-3.829880">
<ele>677.0</ele>
<speed>21.2</speed>
<course>110.4</course>
<desc>Speed 21.2 km/h Distance 16.73 km</desc>
<time>2011-07-19T20:36:09.63</time>
<name>2824</name>
</trkpt>
<trkpt lat="39.019685" lon="-3.829817">
<ele>677.0</ele>
<speed>21.3</speed>
<course>111.6</course>
<desc>Speed 21.3 km/h Distance 16.74 km</desc>
<time>2011-07-19T20:36:10.63</time>
<name>2825</name>
</trkpt>
<trkpt lat="39.019665" lon="-3.829752">
<ele>677.0</ele>
<speed>21.3</speed>
<course>112.1</course>
<desc>Speed 21.3 km/h Distance 16.74 km</desc>
<time>2011-07-19T20:36:11.63</time>
<name>2826</name>
</trkpt>
<trkpt lat="39.019645" lon="-3.829688">
<ele>676.5</ele>
<speed>21.6</speed>
<course>112.7</course>
<desc>Speed 21.6 km/h Distance 16.75 km</desc>
<time>2011-07-19T20:36:12.63</time>
<name>2827</name>
</trkpt>
<trkpt lat="39.019623" lon="-3.829622">
<ele>676.5</ele>
<speed>22.0</speed>
<course>111.1</course>
<desc>Speed 22.0 km/h Distance 16.76 km</desc>
<time>2011-07-19T20:36:13.63</time>
<name>2828</name>
</trkpt>
<trkpt lat="39.019603" lon="-3.829555">
<ele>676.5</ele>
<speed>22.4</speed>
<course>112.2</course>
<desc>Speed 22.4 km/h Distance 16.76 km</desc>
<time>2011-07-19T20:36:14.63</time>
<name>2829</name>
</trkpt>
<trkpt lat="39.019582" lon="-3.829487">
<ele>676.0</ele>
<speed>23.0</speed>
<course>111.7</course>
<desc>Speed 23.0 km/h Distance 16.77 km</desc>
<time>2011-07-19T20:36:15.63</time>
<name>2830</name>
</trkpt>
<trkpt lat="39.019560" lon="-3.829417">
<ele>676.0</ele>
<speed>23.3</speed>
<course>109.8</course>
<desc>Speed 23.3 km/h Distance 16.78 km</desc>
<time>2011-07-19T20:36:16.63</time>
<name>2831</name>
</trkpt>
<trkpt lat="39.019540" lon="-3.829345">
<ele>676.0</ele>
<speed>23.7</speed>
<course>109.3</course>
<desc>Speed 23.7 km/h Distance 16.78 km</desc>
<time>2011-07-19T20:36:17.63</time>
<name>2832</name>
</trkpt>
<trkpt lat="39.019520" lon="-3.829272">
<ele>676.0</ele>
<speed>24.0</speed>
<course>107.8</course>
<desc>Speed 24.0 km/h Distance 16.79 km</desc>
<time>2011-07-19T20:36:18.63</time>
<name>2833</name>
</trkpt>
<trkpt lat="39.019502" lon="-3.829198">
<ele>676.0</ele>
<speed>24.2</speed>
<course>109.3</course>
<desc>Speed 24.2 km/h Distance 16.80 km</desc>
<time>2011-07-19T20:36:19.63</time>
<name>2834</name>
</trkpt>
<trkpt lat="39.019482" lon="-3.829125">
<ele>675.5</ele>
<speed>24.2</speed>
<course>109.3</course>
<desc>Speed 24.2 km/h Distance 16.80 km</desc>
<time>2011-07-19T20:36:20.63</time>
<name>2835</name>
</trkpt>
<trkpt lat="39.019462" lon="-3.829052">
<ele>675.5</ele>
<speed>24.1</speed>
<course>107.8</course>
<desc>Speed 24.1 km/h Distance 16.81 km</desc>
<time>2011-07-19T20:36:21.63</time>
<name>2836</name>
</trkpt>
<trkpt lat="39.019443" lon="-3.828978">
<ele>675.5</ele>
<speed>24.0</speed>
<course>107.8</course>
<desc>Speed 24.0 km/h Distance 16.82 km</desc>
<time>2011-07-19T20:36:22.63</time>
<name>2837</name>
</trkpt>
<trkpt lat="39.019425" lon="-3.828905">
<ele>675.5</ele>
<speed>23.9</speed>
<course>108.2</course>
<desc>Speed 23.9 km/h Distance 16.82 km</desc>
<time>2011-07-19T20:36:23.63</time>
<name>2838</name>
</trkpt>
<trkpt lat="39.019407" lon="-3.828833">
<ele>675.0</ele>
<speed>23.8</speed>
<course>107.8</course>
<desc>Speed 23.8 km/h Distance 16.83 km</desc>
<time>2011-07-19T20:36:24.63</time>
<name>2839</name>
</trkpt>
<trkpt lat="39.019388" lon="-3.828760">
<ele>675.0</ele>
<speed>23.7</speed>
<course>108.2</course>
<desc>Speed 23.7 km/h Distance 16.84 km</desc>
<time>2011-07-19T20:36:25.62</time>
<name>2840</name>
</trkpt>
<trkpt lat="39.019370" lon="-3.828688">
<ele>675.0</ele>
<speed>23.5</speed>
<course>108.2</course>
<desc>Speed 23.5 km/h Distance 16.84 km</desc>
<time>2011-07-19T20:36:26.62</time>
<name>2841</name>
</trkpt>
<trkpt lat="39.019352" lon="-3.828617">
<ele>675.0</ele>
<speed>23.4</speed>
<course>108.6</course>
<desc>Speed 23.4 km/h Distance 16.85 km</desc>
<time>2011-07-19T20:36:27.63</time>
<name>2842</name>
</trkpt>
<trkpt lat="39.019333" lon="-3.828547">
<ele>674.5</ele>
<speed>23.1</speed>
<course>110.6</course>
<desc>Speed 23.1 km/h Distance 16.86 km</desc>
<time>2011-07-19T20:36:28.63</time>
<name>2843</name>
</trkpt>
<trkpt lat="39.019313" lon="-3.828478">
<ele>674.5</ele>
<speed>22.8</speed>
<course>107.4</course>
<desc>Speed 22.8 km/h Distance 16.86 km</desc>
<time>2011-07-19T20:36:29.63</time>
<name>2844</name>
</trkpt>
<trkpt lat="39.019297" lon="-3.828410">
<ele>674.5</ele>
<speed>22.4</speed>
<course>105.8</course>
<desc>Speed 22.4 km/h Distance 16.87 km</desc>
<time>2011-07-19T20:36:30.63</time>
<name>2845</name>
</trkpt>
<trkpt lat="39.019282" lon="-3.828342">
<ele>674.5</ele>
<speed>22.1</speed>
<course>107.8</course>
<desc>Speed 22.1 km/h Distance 16.87 km</desc>
<time>2011-07-19T20:36:31.63</time>
<name>2846</name>
</trkpt>
<trkpt lat="39.019265" lon="-3.828275">
<ele>674.5</ele>
<speed>21.9</speed>
<course>107.8</course>
<desc>Speed 21.9 km/h Distance 16.88 km</desc>
<time>2011-07-19T20:36:32.63</time>
<name>2847</name>
</trkpt>
<trkpt lat="39.019248" lon="-3.828208">
<ele>674.5</ele>
<speed>21.7</speed>
<course>110.0</course>
<desc>Speed 21.7 km/h Distance 16.89 km</desc>
<time>2011-07-19T20:36:33.63</time>
<name>2848</name>
</trkpt>
<trkpt lat="39.019230" lon="-3.828143">
<ele>674.5</ele>
<speed>21.5</speed>
<course>108.3</course>
<desc>Speed 21.5 km/h Distance 16.89 km</desc>
<time>2011-07-19T20:36:34.63</time>
<name>2849</name>
</trkpt>
<trkpt lat="39.019213" lon="-3.828078">
<ele>674.5</ele>
<speed>21.3</speed>
<course>108.3</course>
<desc>Speed 21.3 km/h Distance 16.90 km</desc>
<time>2011-07-19T20:36:35.63</time>
<name>2850</name>
</trkpt>
<trkpt lat="39.019197" lon="-3.828013">
<ele>674.5</ele>
<speed>21.2</speed>
<course>110.4</course>
<desc>Speed 21.2 km/h Distance 16.90 km</desc>
<time>2011-07-19T20:36:36.63</time>
<name>2851</name>
</trkpt>
<trkpt lat="39.019178" lon="-3.827950">
<ele>674.5</ele>
<speed>21.1</speed>
<course>110.4</course>
<desc>Speed 21.1 km/h Distance 16.91 km</desc>
<time>2011-07-19T20:36:37.63</time>
<name>2852</name>
</trkpt>
<trkpt lat="39.019160" lon="-3.827887">
<ele>675.0</ele>
<speed>20.9</speed>
<course>109.2</course>
<desc>Speed 20.9 km/h Distance 16.92 km</desc>
<time>2011-07-19T20:36:38.62</time>
<name>2853</name>
</trkpt>
<trkpt lat="39.019143" lon="-3.827825">
<ele>675.0</ele>
<speed>20.6</speed>
<course>110.9</course>
<desc>Speed 20.6 km/h Distance 16.92 km</desc>
<time>2011-07-19T20:36:39.63</time>
<name>2854</name>
</trkpt>
<trkpt lat="39.019125" lon="-3.827763">
<ele>675.0</ele>
<speed>20.5</speed>
<course>109.2</course>
<desc>Speed 20.5 km/h Distance 16.93 km</desc>
<time>2011-07-19T20:36:40.62</time>
<name>2855</name>
</trkpt>
<trkpt lat="39.019108" lon="-3.827702">
<ele>675.0</ele>
<speed>20.4</speed>
<course>110.9</course>
<desc>Speed 20.4 km/h Distance 16.93 km</desc>
<time>2011-07-19T20:36:41.63</time>
<name>2856</name>
</trkpt>
<trkpt lat="39.019090" lon="-3.827640">
<ele>675.0</ele>
<speed>20.4</speed>
<course>114.9</course>
<desc>Speed 20.4 km/h Distance 16.94 km</desc>
<time>2011-07-19T20:36:42.65</time>
<name>2857</name>
</trkpt>
<trkpt lat="39.019068" lon="-3.827580">
<ele>675.0</ele>
<speed>20.3</speed>
<course>117.9</course>
<desc>Speed 20.3 km/h Distance 16.94 km</desc>
<time>2011-07-19T20:36:43.62</time>
<name>2858</name>
</trkpt>
<trkpt lat="39.019045" lon="-3.827523">
<ele>675.5</ele>
<speed>20.4</speed>
<course>114.9</course>
<desc>Speed 20.4 km/h Distance 16.95 km</desc>
<time>2011-07-19T20:36:44.63</time>
<name>2859</name>
</trkpt>
<trkpt lat="39.019023" lon="-3.827463">
<ele>675.5</ele>
<speed>20.4</speed>
<course>114.9</course>
<desc>Speed 20.4 km/h Distance 16.96 km</desc>
<time>2011-07-19T20:36:45.63</time>
<name>2860</name>
</trkpt>
<trkpt lat="39.019002" lon="-3.827403">
<ele>675.5</ele>
<speed>20.3</speed>
<course>113.8</course>
<desc>Speed 20.3 km/h Distance 16.96 km</desc>
<time>2011-07-19T20:36:46.63</time>
<name>2861</name>
</trkpt>
<trkpt lat="39.018982" lon="-3.827345">
<ele>675.5</ele>
<speed>20.3</speed>
<course>115.6</course>
<desc>Speed 20.3 km/h Distance 16.97 km</desc>
<time>2011-07-19T20:36:47.63</time>
<name>2862</name>
</trkpt>
<trkpt lat="39.018960" lon="-3.827287">
<ele>675.5</ele>
<speed>20.1</speed>
<course>116.2</course>
<desc>Speed 20.1 km/h Distance 16.97 km</desc>
<time>2011-07-19T20:36:48.62</time>
<name>2863</name>
</trkpt>
<trkpt lat="39.018938" lon="-3.827230">
<ele>675.5</ele>
<speed>19.9</speed>
<course>121.1</course>
<desc>Speed 19.9 km/h Distance 16.98 km</desc>
<time>2011-07-19T20:36:49.63</time>
<name>2864</name>
</trkpt>
<trkpt lat="39.018913" lon="-3.827177">
<ele>676.0</ele>
<speed>19.5</speed>
<course>121.9</course>
<desc>Speed 19.5 km/h Distance 16.98 km</desc>
<time>2011-07-19T20:36:50.63</time>
<name>2865</name>
</trkpt>
<trkpt lat="39.018888" lon="-3.827125">
<ele>676.0</ele>
<speed>18.7</speed>
<course>125.4</course>
<desc>Speed 18.7 km/h Distance 16.99 km</desc>
<time>2011-07-19T20:36:51.63</time>
<name>2866</name>
</trkpt>
<trkpt lat="39.018862" lon="-3.827077">
<ele>676.0</ele>
<speed>18.7</speed>
<course>122.8</course>
<desc>Speed 18.7 km/h Distance 16.99 km</desc>
<time>2011-07-19T20:36:52.63</time>
<name>2867</name>
</trkpt>
<trkpt lat="39.018837" lon="-3.827027">
<ele>676.0</ele>
<speed>18.5</speed>
<course>118.4</course>
<desc>Speed 18.5 km/h Distance 17.00 km</desc>
<time>2011-07-19T20:36:53.63</time>
<name>2868</name>
</trkpt>
<trkpt lat="39.018815" lon="-3.826975">
<ele>676.0</ele>
<speed>18.4</speed>
<course>123.7</course>
<desc>Speed 18.4 km/h Distance 17.00 km</desc>
<time>2011-07-19T20:36:54.63</time>
<name>2869</name>
</trkpt>
<trkpt lat="39.018790" lon="-3.826927">
<ele>676.5</ele>
<speed>18.1</speed>
<course>123.7</course>
<desc>Speed 18.1 km/h Distance 17.01 km</desc>
<time>2011-07-19T20:36:55.63</time>
<name>2870</name>
</trkpt>
<trkpt lat="39.018765" lon="-3.826878">
<ele>676.5</ele>
<speed>18.1</speed>
<course>121.0</course>
<desc>Speed 18.1 km/h Distance 17.01 km</desc>
<time>2011-07-19T20:36:56.62</time>
<name>2871</name>
</trkpt>
<trkpt lat="39.018742" lon="-3.826828">
<ele>677.0</ele>
<speed>18.3</speed>
<course>125.4</course>
<desc>Speed 18.3 km/h Distance 17.02 km</desc>
<time>2011-07-19T20:36:57.62</time>
<name>2872</name>
</trkpt>
<trkpt lat="39.018715" lon="-3.826780">
<ele>677.0</ele>
<speed>18.4</speed>
<course>124.6</course>
<desc>Speed 18.4 km/h Distance 17.02 km</desc>
<time>2011-07-19T20:36:58.63</time>
<name>2873</name>
</trkpt>
<trkpt lat="39.018690" lon="-3.826733">
<ele>677.0</ele>
<speed>17.7</speed>
<course>126.3</course>
<desc>Speed 17.7 km/h Distance 17.03 km</desc>
<time>2011-07-19T20:36:59.62</time>
<name>2874</name>
</trkpt>
<trkpt lat="39.018663" lon="-3.826687">
<ele>677.0</ele>
<speed>18.0</speed>
<course>123.6</course>
<desc>Speed 18.0 km/h Distance 17.03 km</desc>
<time>2011-07-19T20:37:00.63</time>
<name>2875</name>
</trkpt>
<trkpt lat="39.018638" lon="-3.826638">
<ele>677.0</ele>
<speed>18.0</speed>
<course>127.0</course>
<desc>Speed 18.0 km/h Distance 17.04 km</desc>
<time>2011-07-19T20:37:01.63</time>
<name>2876</name>
</trkpt>
<trkpt lat="39.018610" lon="-3.826590">
<ele>677.0</ele>
<speed>18.8</speed>
<course>122.8</course>
<desc>Speed 18.8 km/h Distance 17.04 km</desc>
<time>2011-07-19T20:37:02.63</time>
<name>2877</name>
</trkpt>
<trkpt lat="39.018587" lon="-3.826543">
<ele>676.5</ele>
<speed>17.2</speed>
<course>131.6</course>
<desc>Speed 17.2 km/h Distance 17.05 km</desc>
<time>2011-07-19T20:37:03.63</time>
<name>2878</name>
</trkpt>
<trkpt lat="39.018553" lon="-3.826495">
<ele>676.5</ele>
<speed>20.0</speed>
<course>125.2</course>
<desc>Speed 20.0 km/h Distance 17.05 km</desc>
<time>2011-07-19T20:37:04.63</time>
<name>2879</name>
</trkpt>
<trkpt lat="39.018525" lon="-3.826443">
<ele>676.5</ele>
<speed>19.4</speed>
<course>121.1</course>
<desc>Speed 19.4 km/h Distance 17.06 km</desc>
<time>2011-07-19T20:37:05.63</time>
<name>2880</name>
</trkpt>
<trkpt lat="39.018500" lon="-3.826390">
<ele>676.5</ele>
<speed>19.2</speed>
<course>114.4</course>
<desc>Speed 19.2 km/h Distance 17.07 km</desc>
<time>2011-07-19T20:37:06.63</time>
<name>2881</name>
</trkpt>
<trkpt lat="39.018480" lon="-3.826333">
<ele>676.5</ele>
<speed>19.4</speed>
<course>110.2</course>
<desc>Speed 19.4 km/h Distance 17.07 km</desc>
<time>2011-07-19T20:37:07.63</time>
<name>2882</name>
</trkpt>
<trkpt lat="39.018463" lon="-3.826275">
<ele>676.5</ele>
<speed>19.3</speed>
<course>104.1</course>
<desc>Speed 19.3 km/h Distance 17.08 km</desc>
<time>2011-07-19T20:37:08.62</time>
<name>2883</name>
</trkpt>
<trkpt lat="39.018452" lon="-3.826215">
<ele>676.5</ele>
<speed>19.4</speed>
<course>107.8</course>
<desc>Speed 19.4 km/h Distance 17.08 km</desc>
<time>2011-07-19T20:37:09.63</time>
<name>2884</name>
</trkpt>
<trkpt lat="39.018437" lon="-3.826155">
<ele>676.5</ele>
<speed>19.2</speed>
<course>108.3</course>
<desc>Speed 19.2 km/h Distance 17.09 km</desc>
<time>2011-07-19T20:37:10.63</time>
<name>2885</name>
</trkpt>
<trkpt lat="39.018422" lon="-3.826097">
<ele>676.5</ele>
<speed>19.2</speed>
<course>106.0</course>
<desc>Speed 19.2 km/h Distance 17.09 km</desc>
<time>2011-07-19T20:37:11.62</time>
<name>2886</name>
</trkpt>
<trkpt lat="39.018408" lon="-3.826037">
<ele>676.5</ele>
<speed>19.2</speed>
<course>102.1</course>
<desc>Speed 19.2 km/h Distance 17.10 km</desc>
<time>2011-07-19T20:37:12.62</time>
<name>2887</name>
</trkpt>
<trkpt lat="39.018398" lon="-3.825977">
<ele>676.5</ele>
<speed>19.1</speed>
<course>104.1</course>
<desc>Speed 19.1 km/h Distance 17.10 km</desc>
<time>2011-07-19T20:37:13.63</time>
<name>2888</name>
</trkpt>
<trkpt lat="39.018387" lon="-3.825917">
<ele>676.5</ele>
<speed>19.3</speed>
<course>97.9</course>
<desc>Speed 19.3 km/h Distance 17.11 km</desc>
<time>2011-07-19T20:37:14.63</time>
<name>2889</name>
</trkpt>
<trkpt lat="39.018380" lon="-3.825855">
<ele>676.5</ele>
<speed>19.3</speed>
<course>97.9</course>
<desc>Speed 19.3 km/h Distance 17.11 km</desc>
<time>2011-07-19T20:37:15.63</time>
<name>2890</name>
</trkpt>
<trkpt lat="39.018373" lon="-3.825793">
<ele>676.5</ele>
<speed>19.3</speed>
<course>100.1</course>
<desc>Speed 19.3 km/h Distance 17.12 km</desc>
<time>2011-07-19T20:37:16.63</time>
<name>2891</name>
</trkpt>
<trkpt lat="39.018365" lon="-3.825733">
<ele>676.5</ele>
<speed>19.2</speed>
<course>97.9</course>
<desc>Speed 19.2 km/h Distance 17.12 km</desc>
<time>2011-07-19T20:37:17.62</time>
<name>2892</name>
</trkpt>
<trkpt lat="39.018358" lon="-3.825672">
<ele>676.5</ele>
<speed>19.4</speed>
<course>95.8</course>
<desc>Speed 19.4 km/h Distance 17.13 km</desc>
<time>2011-07-19T20:37:18.63</time>
<name>2893</name>
</trkpt>
<trkpt lat="39.018353" lon="-3.825608">
<ele>676.5</ele>
<speed>19.6</speed>
<course>92.0</course>
<desc>Speed 19.6 km/h Distance 17.14 km</desc>
<time>2011-07-19T20:37:19.63</time>
<name>2894</name>
</trkpt>
<trkpt lat="39.018352" lon="-3.825547">
<ele>676.5</ele>
<speed>19.6</speed>
<course>91.9</course>
<desc>Speed 19.6 km/h Distance 17.14 km</desc>
<time>2011-07-19T20:37:20.62</time>
<name>2895</name>
</trkpt>
<trkpt lat="39.018350" lon="-3.825483">
<ele>676.5</ele>
<speed>19.7</speed>
<course>90.0</course>
<desc>Speed 19.7 km/h Distance 17.15 km</desc>
<time>2011-07-19T20:37:21.62</time>
<name>2896</name>
</trkpt>
<trkpt lat="39.018350" lon="-3.825420">
<ele>676.0</ele>
<speed>19.8</speed>
<course>90.0</course>
<desc>Speed 19.8 km/h Distance 17.15 km</desc>
<time>2011-07-19T20:37:22.63</time>
<name>2897</name>
</trkpt>
<trkpt lat="39.018350" lon="-3.825357">
<ele>676.0</ele>
<speed>19.6</speed>
<course>90.0</course>
<desc>Speed 19.6 km/h Distance 17.16 km</desc>
<time>2011-07-19T20:37:23.63</time>
<name>2898</name>
</trkpt>
<trkpt lat="39.018350" lon="-3.825295">
<ele>676.0</ele>
<speed>19.3</speed>
<course>90.0</course>
<desc>Speed 19.3 km/h Distance 17.16 km</desc>
<time>2011-07-19T20:37:24.62</time>
<name>2899</name>
</trkpt>
<trkpt lat="39.018350" lon="-3.825233">
<ele>676.0</ele>
<speed>19.2</speed>
<course>90.0</course>
<desc>Speed 19.2 km/h Distance 17.17 km</desc>
<time>2011-07-19T20:37:25.62</time>
<name>2900</name>
</trkpt>
<trkpt lat="39.018350" lon="-3.825172">
<ele>676.0</ele>
<speed>19.0</speed>
<course>88.0</course>
<desc>Speed 19.0 km/h Distance 17.17 km</desc>
<time>2011-07-19T20:37:26.63</time>
<name>2901</name>
</trkpt>
<trkpt lat="39.018352" lon="-3.825112">
<ele>676.0</ele>
<speed>18.7</speed>
<course>88.0</course>
<desc>Speed 18.7 km/h Distance 17.18 km</desc>
<time>2011-07-19T20:37:27.63</time>
<name>2902</name>
</trkpt>
<trkpt lat="39.018353" lon="-3.825052">
<ele>676.0</ele>
<speed>18.5</speed>
<course>90.0</course>
<desc>Speed 18.5 km/h Distance 17.18 km</desc>
<time>2011-07-19T20:37:28.62</time>
<name>2903</name>
</trkpt>
<trkpt lat="39.018353" lon="-3.824993">
<ele>676.0</ele>
<speed>18.4</speed>
<course>90.0</course>
<desc>Speed 18.4 km/h Distance 17.19 km</desc>
<time>2011-07-19T20:37:29.62</time>
<name>2904</name>
</trkpt>
<trkpt lat="39.018353" lon="-3.824935">
<ele>676.0</ele>
<speed>18.2</speed>
<course>90.0</course>
<desc>Speed 18.2 km/h Distance 17.19 km</desc>
<time>2011-07-19T20:37:30.62</time>
<name>2905</name>
</trkpt>
<trkpt lat="39.018353" lon="-3.824877">
<ele>676.0</ele>
<speed>18.2</speed>
<course>90.0</course>
<desc>Speed 18.2 km/h Distance 17.20 km</desc>
<time>2011-07-19T20:37:31.63</time>
<name>2906</name>
</trkpt>
<trkpt lat="39.018353" lon="-3.824818">
<ele>676.0</ele>
<speed>18.4</speed>
<course>90.0</course>
<desc>Speed 18.4 km/h Distance 17.20 km</desc>
<time>2011-07-19T20:37:32.62</time>
<name>2907</name>
</trkpt>
<trkpt lat="39.018353" lon="-3.824758">
<ele>676.0</ele>
<speed>18.5</speed>
<course>88.0</course>
<desc>Speed 18.5 km/h Distance 17.21 km</desc>
<time>2011-07-19T20:37:33.62</time>
<name>2908</name>
</trkpt>
<trkpt lat="39.018355" lon="-3.824698">
<ele>676.0</ele>
<speed>18.6</speed>
<course>90.0</course>
<desc>Speed 18.6 km/h Distance 17.21 km</desc>
<time>2011-07-19T20:37:34.62</time>
<name>2909</name>
</trkpt>
<trkpt lat="39.018355" lon="-3.824638">
<ele>676.0</ele>
<speed>18.7</speed>
<course>85.9</course>
<desc>Speed 18.7 km/h Distance 17.22 km</desc>
<time>2011-07-19T20:37:35.62</time>
<name>2910</name>
</trkpt>
<trkpt lat="39.018358" lon="-3.824578">
<ele>676.0</ele>
<speed>18.6</speed>
<course>87.8</course>
<desc>Speed 18.6 km/h Distance 17.22 km</desc>
<time>2011-07-19T20:37:36.62</time>
<name>2911</name>
</trkpt>
<trkpt lat="39.018360" lon="-3.824522">
<ele>676.0</ele>
<speed>18.1</speed>
<course>85.8</course>
<desc>Speed 18.1 km/h Distance 17.23 km</desc>
<time>2011-07-19T20:37:37.62</time>
<name>2912</name>
</trkpt>
<trkpt lat="39.018363" lon="-3.824463">
<ele>676.0</ele>
<speed>18.1</speed>
<course>92.0</course>
<desc>Speed 18.1 km/h Distance 17.23 km</desc>
<time>2011-07-19T20:37:38.62</time>
<name>2913</name>
</trkpt>
<trkpt lat="39.018362" lon="-3.824403">
<ele>676.0</ele>
<speed>18.6</speed>
<course>94.1</course>
<desc>Speed 18.6 km/h Distance 17.24 km</desc>
<time>2011-07-19T20:37:39.62</time>
<name>2914</name>
</trkpt>
<trkpt lat="39.018358" lon="-3.824343">
<ele>676.5</ele>
<speed>18.9</speed>
<course>90.0</course>
<desc>Speed 18.9 km/h Distance 17.24 km</desc>
<time>2011-07-19T20:37:40.63</time>
<name>2915</name>
</trkpt>
<trkpt lat="39.018358" lon="-3.824285">
<ele>676.0</ele>
<speed>18.3</speed>
<course>90.0</course>
<desc>Speed 18.3 km/h Distance 17.25 km</desc>
<time>2011-07-19T20:37:41.62</time>
<name>2916</name>
</trkpt>
<trkpt lat="39.018358" lon="-3.824227">
<ele>676.0</ele>
<speed>18.2</speed>
<course>92.1</course>
<desc>Speed 18.2 km/h Distance 17.25 km</desc>
<time>2011-07-19T20:37:42.64</time>
<name>2917</name>
</trkpt>
<trkpt lat="39.018357" lon="-3.824168">
<ele>676.5</ele>
<speed>18.0</speed>
<course>94.5</course>
<desc>Speed 18.0 km/h Distance 17.26 km</desc>
<time>2011-07-19T20:37:43.65</time>
<name>2918</name>
</trkpt>
<trkpt lat="39.018353" lon="-3.824113">
<ele>676.5</ele>
<speed>17.2</speed>
<course>98.1</course>
<desc>Speed 17.2 km/h Distance 17.26 km</desc>
<time>2011-07-19T20:37:44.62</time>
<name>2919</name>
</trkpt>
<trkpt lat="39.018348" lon="-3.824068">
<ele>676.5</ele>
<speed>14.3</speed>
<course>129.3</course>
<desc>Speed 14.3 km/h Distance 17.27 km</desc>
<time>2011-07-19T20:37:45.63</time>
<name>2920</name>
</trkpt>
<trkpt lat="39.018325" lon="-3.824032">
<ele>676.5</ele>
<speed>14.7</speed>
<course>160.7</course>
<desc>Speed 14.7 km/h Distance 17.27 km</desc>
<time>2011-07-19T20:37:46.63</time>
<name>2921</name>
</trkpt>
<trkpt lat="39.018292" lon="-3.824017">
<ele>675.0</ele>
<speed>13.6</speed>
<course>191.1</course>
<desc>Speed 13.6 km/h Distance 17.28 km</desc>
<time>2011-07-19T20:37:47.63</time>
<name>2922</name>
</trkpt>
<trkpt lat="39.018272" lon="-3.824022">
<ele>674.5</ele>
<speed>8.2</speed>
<course>193.2</course>
<desc>Speed 8.2 km/h Distance 17.28 km</desc>
<time>2011-07-19T20:37:48.62</time>
<name>2923</name>
</trkpt>
<trkpt lat="39.018238" lon="-3.824032">
<ele>674.5</ele>
<speed>14.0</speed>
<course>179.1</course>
<desc>Speed 14.0 km/h Distance 17.28 km</desc>
<time>2011-07-19T20:37:49.63</time>
<name>2924</name>
</trkpt>
<trkpt lat="39.018207" lon="-3.824032">
<ele>674.5</ele>
<speed>12.2</speed>
<course>106.5</course>
<desc>Speed 12.2 km/h Distance 17.29 km</desc>
<time>2011-07-19T20:37:50.63</time>
<name>2925</name>
</trkpt>
<trkpt lat="39.018202" lon="-3.824010">
<ele>674.5</ele>
<speed>2.8</speed>
<course>54.9</course>
<desc>Speed 2.8 km/h Distance 17.29 km</desc>
<time>2011-07-19T20:37:52.63</time>
<name>2926</name>
</trkpt>
<trkpt lat="39.018212" lon="-3.823992">
<ele>675.0</ele>
<speed>7.0</speed>
<course>314.1</course>
<desc>Speed 7.0 km/h Distance 17.29 km</desc>
<time>2011-07-19T20:37:53.63</time>
<name>2927</name>
</trkpt>
<trkpt lat="39.018227" lon="-3.824012">
<ele>675.5</ele>
<speed>8.5</speed>
<course>335.6</course>
<desc>Speed 8.5 km/h Distance 17.29 km</desc>
<time>2011-07-19T20:37:54.63</time>
<name>2928</name>
</trkpt>
<trkpt lat="39.018247" lon="-3.824023">
<ele>676.5</ele>
<speed>8.7</speed>
<course>337.5</course>
<desc>Speed 8.7 km/h Distance 17.30 km</desc>
<time>2011-07-19T20:37:55.63</time>
<name>2929</name>
</trkpt>
<trkpt lat="39.018272" lon="-3.824037">
<ele>677.0</ele>
<speed>10.0</speed>
<course>332.6</course>
<desc>Speed 10.0 km/h Distance 17.30 km</desc>
<time>2011-07-19T20:37:56.62</time>
<name>2930</name>
</trkpt>
<trkpt lat="39.018292" lon="-3.824050">
<ele>678.0</ele>
<speed>9.6</speed>
<course>331.2</course>
<desc>Speed 9.6 km/h Distance 17.30 km</desc>
<time>2011-07-19T20:37:57.63</time>
<name>2931</name>
</trkpt>
<trkpt lat="39.018308" lon="-3.824062">
<ele>680.0</ele>
<speed>8.0</speed>
<course>344.5</course>
<desc>Speed 8.0 km/h Distance 17.30 km</desc>
<time>2011-07-19T20:37:58.62</time>
<name>2932</name>
</trkpt>
<trkpt lat="39.018332" lon="-3.824070">
<ele>681.0</ele>
<speed>9.3</speed>
<course>14.4</course>
<desc>Speed 9.3 km/h Distance 17.31 km</desc>
<time>2011-07-19T20:37:59.62</time>
<name>2933</name>
</trkpt>
<trkpt lat="39.018357" lon="-3.824062">
<ele>681.5</ele>
<speed>10.7</speed>
<course>50.1</course>
<desc>Speed 10.7 km/h Distance 17.31 km</desc>
<time>2011-07-19T20:38:00.63</time>
<name>2934</name>
</trkpt>
<trkpt lat="39.018378" lon="-3.824028">
<ele>682.0</ele>
<speed>13.3</speed>
<course>54.0</course>
<desc>Speed 13.3 km/h Distance 17.31 km</desc>
<time>2011-07-19T20:38:01.62</time>
<name>2935</name>
</trkpt>
<trkpt lat="39.018400" lon="-3.823990">
<ele>682.0</ele>
<speed>15.4</speed>
<course>75.1</course>
<desc>Speed 15.4 km/h Distance 17.32 km</desc>
<time>2011-07-19T20:38:02.62</time>
<name>2936</name>
</trkpt>
<trkpt lat="39.018410" lon="-3.823942">
<ele>682.0</ele>
<speed>15.1</speed>
<course>94.7</course>
<desc>Speed 15.1 km/h Distance 17.32 km</desc>
<time>2011-07-19T20:38:03.62</time>
<name>2937</name>
</trkpt>
<trkpt lat="39.018407" lon="-3.823890">
<ele>682.0</ele>
<speed>15.8</speed>
<course>92.3</course>
<desc>Speed 15.8 km/h Distance 17.32 km</desc>
<time>2011-07-19T20:38:04.63</time>
<name>2938</name>
</trkpt>
<trkpt lat="39.018405" lon="-3.823837">
<ele>682.0</ele>
<speed>16.2</speed>
<course>96.9</course>
<desc>Speed 16.2 km/h Distance 17.33 km</desc>
<time>2011-07-19T20:38:05.62</time>
<name>2939</name>
</trkpt>
<trkpt lat="39.018400" lon="-3.823783">
<ele>682.0</ele>
<speed>16.0</speed>
<course>59.1</course>
<desc>Speed 16.0 km/h Distance 17.33 km</desc>
<time>2011-07-19T20:38:06.62</time>
<name>2940</name>
</trkpt>
<trkpt lat="39.018422" lon="-3.823737">
<ele>681.0</ele>
<speed>17.3</speed>
<course>114.4</course>
<desc>Speed 17.3 km/h Distance 17.34 km</desc>
<time>2011-07-19T20:38:07.62</time>
<name>2941</name>
</trkpt>
<trkpt lat="39.018402" lon="-3.823680">
<ele>681.0</ele>
<speed>19.0</speed>
<course>115.3</course>
<desc>Speed 19.0 km/h Distance 17.34 km</desc>
<time>2011-07-19T20:38:08.62</time>
<name>2942</name>
</trkpt>
<trkpt lat="39.018383" lon="-3.823630">
<ele>680.5</ele>
<speed>17.2</speed>
<course>135.2</course>
<desc>Speed 17.2 km/h Distance 17.35 km</desc>
<time>2011-07-19T20:38:09.63</time>
<name>2943</name>
</trkpt>
<trkpt lat="39.018353" lon="-3.823592">
<ele>681.5</ele>
<speed>16.8</speed>
<course>151.2</course>
<desc>Speed 16.8 km/h Distance 17.35 km</desc>
<time>2011-07-19T20:38:10.62</time>
<name>2944</name>
</trkpt>
<trkpt lat="39.018313" lon="-3.823563">
<ele>682.0</ele>
<speed>18.1</speed>
<course>154.7</course>
<desc>Speed 18.1 km/h Distance 17.36 km</desc>
<time>2011-07-19T20:38:11.62</time>
<name>2945</name>
</trkpt>
<trkpt lat="39.018275" lon="-3.823540">
<ele>682.5</ele>
<speed>16.6</speed>
<course>161.1</course>
<desc>Speed 16.6 km/h Distance 17.36 km</desc>
<time>2011-07-19T20:38:12.62</time>
<name>2946</name>
</trkpt>
<trkpt lat="39.018233" lon="-3.823522">
<ele>683.0</ele>
<speed>18.0</speed>
<course>166.8</course>
<desc>Speed 18.0 km/h Distance 17.37 km</desc>
<time>2011-07-19T20:38:13.62</time>
<name>2947</name>
</trkpt>
<trkpt lat="39.018183" lon="-3.823507">
<ele>683.0</ele>
<speed>19.9</speed>
<course>169.3</course>
<desc>Speed 19.9 km/h Distance 17.37 km</desc>
<time>2011-07-19T20:38:14.62</time>
<name>2948</name>
</trkpt>
<trkpt lat="39.018128" lon="-3.823493">
<ele>683.0</ele>
<speed>20.8</speed>
<course>172.9</course>
<desc>Speed 20.8 km/h Distance 17.38 km</desc>
<time>2011-07-19T20:38:15.64</time>
<name>2949</name>
</trkpt>
<trkpt lat="39.018077" lon="-3.823485">
<ele>683.0</ele>
<speed>20.5</speed>
<course>171.7</course>
<desc>Speed 20.5 km/h Distance 17.39 km</desc>
<time>2011-07-19T20:38:16.61</time>
<name>2950</name>
</trkpt>
<trkpt lat="39.018023" lon="-3.823475">
<ele>683.0</ele>
<speed>20.4</speed>
<course>170.4</course>
<desc>Speed 20.4 km/h Distance 17.39 km</desc>
<time>2011-07-19T20:38:17.63</time>
<name>2951</name>
</trkpt>
<trkpt lat="39.017970" lon="-3.823463">
<ele>683.0</ele>
<speed>20.6</speed>
<course>166.9</course>
<desc>Speed 20.6 km/h Distance 17.40 km</desc>
<time>2011-07-19T20:38:18.63</time>
<name>2952</name>
</trkpt>
<trkpt lat="39.017920" lon="-3.823448">
<ele>683.0</ele>
<speed>20.1</speed>
<course>165.5</course>
<desc>Speed 20.1 km/h Distance 17.40 km</desc>
<time>2011-07-19T20:38:19.63</time>
<name>2953</name>
</trkpt>
<trkpt lat="39.017870" lon="-3.823432">
<ele>683.0</ele>
<speed>20.4</speed>
<course>165.0</course>
<desc>Speed 20.4 km/h Distance 17.41 km</desc>
<time>2011-07-19T20:38:20.63</time>
<name>2954</name>
</trkpt>
<trkpt lat="39.017822" lon="-3.823415">
<ele>683.0</ele>
<speed>19.8</speed>
<course>165.9</course>
<desc>Speed 19.8 km/h Distance 17.42 km</desc>
<time>2011-07-19T20:38:21.63</time>
<name>2955</name>
</trkpt>
<trkpt lat="39.017770" lon="-3.823398">
<ele>683.0</ele>
<speed>20.0</speed>
<course>165.1</course>
<desc>Speed 20.0 km/h Distance 17.42 km</desc>
<time>2011-07-19T20:38:22.63</time>
<name>2956</name>
</trkpt>
<trkpt lat="39.017717" lon="-3.823380">
<ele>683.0</ele>
<speed>20.2</speed>
<course>165.5</course>
<desc>Speed 20.2 km/h Distance 17.43 km</desc>
<time>2011-07-19T20:38:23.62</time>
<name>2957</name>
</trkpt>
<trkpt lat="39.017667" lon="-3.823363">
<ele>683.0</ele>
<speed>19.7</speed>
<course>166.4</course>
<desc>Speed 19.7 km/h Distance 17.43 km</desc>
<time>2011-07-19T20:38:24.63</time>
<name>2958</name>
</trkpt>
<trkpt lat="39.017613" lon="-3.823347">
<ele>683.0</ele>
<speed>20.2</speed>
<course>166.9</course>
<desc>Speed 20.2 km/h Distance 17.44 km</desc>
<time>2011-07-19T20:38:25.63</time>
<name>2959</name>
</trkpt>
<trkpt lat="39.017563" lon="-3.823332">
<ele>682.5</ele>
<speed>19.9</speed>
<course>167.3</course>
<desc>Speed 19.9 km/h Distance 17.44 km</desc>
<time>2011-07-19T20:38:26.63</time>
<name>2960</name>
</trkpt>
<trkpt lat="39.017512" lon="-3.823317">
<ele>682.5</ele>
<speed>20.4</speed>
<course>167.7</course>
<desc>Speed 20.4 km/h Distance 17.45 km</desc>
<time>2011-07-19T20:38:27.63</time>
<name>2961</name>
</trkpt>
<trkpt lat="39.017458" lon="-3.823302">
<ele>683.0</ele>
<speed>20.5</speed>
<course>166.4</course>
<desc>Speed 20.5 km/h Distance 17.46 km</desc>
<time>2011-07-19T20:38:28.62</time>
<name>2962</name>
</trkpt>
<trkpt lat="39.017405" lon="-3.823285">
<ele>683.5</ele>
<speed>20.6</speed>
<course>163.7</course>
<desc>Speed 20.6 km/h Distance 17.46 km</desc>
<time>2011-07-19T20:38:29.63</time>
<name>2963</name>
</trkpt>
<trkpt lat="39.017352" lon="-3.823265">
<ele>683.5</ele>
<speed>20.4</speed>
<course>163.0</course>
<desc>Speed 20.4 km/h Distance 17.47 km</desc>
<time>2011-07-19T20:38:30.63</time>
<name>2964</name>
</trkpt>
<trkpt lat="39.017297" lon="-3.823243">
<ele>684.5</ele>
<speed>21.0</speed>
<course>162.0</course>
<desc>Speed 21.0 km/h Distance 17.48 km</desc>
<time>2011-07-19T20:38:31.63</time>
<name>2965</name>
</trkpt>
<trkpt lat="39.017245" lon="-3.823222">
<ele>684.5</ele>
<speed>20.1</speed>
<course>163.8</course>
<desc>Speed 20.1 km/h Distance 17.48 km</desc>
<time>2011-07-19T20:38:32.63</time>
<name>2966</name>
</trkpt>
<trkpt lat="39.017192" lon="-3.823202">
<ele>685.0</ele>
<speed>21.2</speed>
<course>165.1</course>
<desc>Speed 21.2 km/h Distance 17.49 km</desc>
<time>2011-07-19T20:38:33.63</time>
<name>2967</name>
</trkpt>
<trkpt lat="39.017138" lon="-3.823183">
<ele>685.0</ele>
<speed>21.1</speed>
<course>168.0</course>
<desc>Speed 21.1 km/h Distance 17.49 km</desc>
<time>2011-07-19T20:38:34.62</time>
<name>2968</name>
</trkpt>
<trkpt lat="39.017083" lon="-3.823168">
<ele>685.0</ele>
<speed>21.9</speed>
<course>168.0</course>
<desc>Speed 21.9 km/h Distance 17.50 km</desc>
<time>2011-07-19T20:38:35.63</time>
<name>2969</name>
</trkpt>
<trkpt lat="39.017028" lon="-3.823153">
<ele>685.0</ele>
<speed>22.1</speed>
<course>166.4</course>
<desc>Speed 22.1 km/h Distance 17.51 km</desc>
<time>2011-07-19T20:38:36.62</time>
<name>2970</name>
</trkpt>
<trkpt lat="39.016975" lon="-3.823137">
<ele>685.0</ele>
<speed>21.7</speed>
<course>168.0</course>
<desc>Speed 21.7 km/h Distance 17.51 km</desc>
<time>2011-07-19T20:38:37.63</time>
<name>2971</name>
</trkpt>
<trkpt lat="39.016920" lon="-3.823122">
<ele>685.0</ele>
<speed>22.1</speed>
<course>169.0</course>
<desc>Speed 22.1 km/h Distance 17.52 km</desc>
<time>2011-07-19T20:38:38.63</time>
<name>2972</name>
</trkpt>
<trkpt lat="39.016860" lon="-3.823107">
<ele>686.0</ele>
<speed>23.7</speed>
<course>165.9</course>
<desc>Speed 23.7 km/h Distance 17.53 km</desc>
<time>2011-07-19T20:38:39.63</time>
<name>2973</name>
</trkpt>
<trkpt lat="39.016803" lon="-3.823088">
<ele>686.0</ele>
<speed>23.0</speed>
<course>164.7</course>
<desc>Speed 23.0 km/h Distance 17.53 km</desc>
<time>2011-07-19T20:38:40.63</time>
<name>2974</name>
</trkpt>
<trkpt lat="39.016747" lon="-3.823068">
<ele>686.5</ele>
<speed>23.0</speed>
<course>163.0</course>
<desc>Speed 23.0 km/h Distance 17.54 km</desc>
<time>2011-07-19T20:38:41.63</time>
<name>2975</name>
</trkpt>
<trkpt lat="39.016692" lon="-3.823047">
<ele>686.0</ele>
<speed>23.4</speed>
<course>164.7</course>
<desc>Speed 23.4 km/h Distance 17.55 km</desc>
<time>2011-07-19T20:38:42.64</time>
<name>2976</name>
</trkpt>
<trkpt lat="39.016635" lon="-3.823027">
<ele>686.5</ele>
<speed>24.2</speed>
<course>165.9</course>
<desc>Speed 24.2 km/h Distance 17.55 km</desc>
<time>2011-07-19T20:38:43.64</time>
<name>2977</name>
</trkpt>
<trkpt lat="39.016578" lon="-3.823008">
<ele>686.0</ele>
<speed>23.4</speed>
<course>167.5</course>
<desc>Speed 23.4 km/h Distance 17.56 km</desc>
<time>2011-07-19T20:38:44.63</time>
<name>2978</name>
</trkpt>
<trkpt lat="39.016520" lon="-3.822992">
<ele>685.5</ele>
<speed>23.9</speed>
<course>167.5</course>
<desc>Speed 23.9 km/h Distance 17.56 km</desc>
<time>2011-07-19T20:38:45.63</time>
<name>2979</name>
</trkpt>
<trkpt lat="39.016462" lon="-3.822975">
<ele>685.5</ele>
<speed>24.1</speed>
<course>167.5</course>
<desc>Speed 24.1 km/h Distance 17.57 km</desc>
<time>2011-07-19T20:38:46.63</time>
<name>2980</name>
</trkpt>
<trkpt lat="39.016403" lon="-3.822958">
<ele>684.5</ele>
<speed>23.7</speed>
<course>164.9</course>
<desc>Speed 23.7 km/h Distance 17.58 km</desc>
<time>2011-07-19T20:38:47.63</time>
<name>2981</name>
</trkpt>
<trkpt lat="39.016322" lon="-3.822930">
<ele>683.0</ele>
<speed>24.1</speed>
<course>164.7</course>
<desc>Speed 24.1 km/h Distance 17.59 km</desc>
<time>2011-07-19T20:38:49.63</time>
<name>2982</name>
</trkpt>
<trkpt lat="39.016265" lon="-3.822910">
<ele>683.0</ele>
<speed>23.7</speed>
<course>167.5</course>
<desc>Speed 23.7 km/h Distance 17.59 km</desc>
<time>2011-07-19T20:38:50.63</time>
<name>2983</name>
</trkpt>
<trkpt lat="39.016207" lon="-3.822893">
<ele>682.5</ele>
<speed>24.1</speed>
<course>167.5</course>
<desc>Speed 24.1 km/h Distance 17.60 km</desc>
<time>2011-07-19T20:38:51.63</time>
<name>2984</name>
</trkpt>
<trkpt lat="39.016148" lon="-3.822877">
<ele>682.5</ele>
<speed>23.9</speed>
<course>168.4</course>
<desc>Speed 23.9 km/h Distance 17.61 km</desc>
<time>2011-07-19T20:38:52.62</time>
<name>2985</name>
</trkpt>
<trkpt lat="39.016092" lon="-3.822862">
<ele>683.0</ele>
<speed>23.9</speed>
<course>166.6</course>
<desc>Speed 23.9 km/h Distance 17.61 km</desc>
<time>2011-07-19T20:38:53.63</time>
<name>2986</name>
</trkpt>
<trkpt lat="39.016032" lon="-3.822843">
<ele>683.0</ele>
<speed>24.2</speed>
<course>165.1</course>
<desc>Speed 24.2 km/h Distance 17.62 km</desc>
<time>2011-07-19T20:38:54.63</time>
<name>2987</name>
</trkpt>
<trkpt lat="39.015973" lon="-3.822823">
<ele>682.5</ele>
<speed>24.1</speed>
<course>165.5</course>
<desc>Speed 24.1 km/h Distance 17.63 km</desc>
<time>2011-07-19T20:38:55.63</time>
<name>2988</name>
</trkpt>
<trkpt lat="39.015913" lon="-3.822803">
<ele>682.5</ele>
<speed>24.7</speed>
<course>166.6</course>
<desc>Speed 24.7 km/h Distance 17.63 km</desc>
<time>2011-07-19T20:38:56.63</time>
<name>2989</name>
</trkpt>
<trkpt lat="39.015853" lon="-3.822785">
<ele>682.5</ele>
<speed>25.1</speed>
<course>167.0</course>
<desc>Speed 25.1 km/h Distance 17.64 km</desc>
<time>2011-07-19T20:38:57.63</time>
<name>2990</name>
</trkpt>
<trkpt lat="39.015792" lon="-3.822767">
<ele>682.5</ele>
<speed>24.7</speed>
<course>165.5</course>
<desc>Speed 24.7 km/h Distance 17.65 km</desc>
<time>2011-07-19T20:38:58.63</time>
<name>2991</name>
</trkpt>
<trkpt lat="39.015732" lon="-3.822747">
<ele>682.5</ele>
<speed>24.4</speed>
<course>163.6</course>
<desc>Speed 24.4 km/h Distance 17.66 km</desc>
<time>2011-07-19T20:38:59.63</time>
<name>2992</name>
</trkpt>
<trkpt lat="39.015670" lon="-3.822723">
<ele>682.0</ele>
<speed>24.7</speed>
<course>163.2</course>
<desc>Speed 24.7 km/h Distance 17.66 km</desc>
<time>2011-07-19T20:39:00.63</time>
<name>2993</name>
</trkpt>
<trkpt lat="39.015610" lon="-3.822700">
<ele>682.0</ele>
<speed>24.6</speed>
<course>164.7</course>
<desc>Speed 24.6 km/h Distance 17.67 km</desc>
<time>2011-07-19T20:39:01.63</time>
<name>2994</name>
</trkpt>
<trkpt lat="39.015548" lon="-3.822678">
<ele>682.0</ele>
<speed>25.3</speed>
<course>164.7</course>
<desc>Speed 25.3 km/h Distance 17.68 km</desc>
<time>2011-07-19T20:39:02.63</time>
<name>2995</name>
</trkpt>
<trkpt lat="39.015487" lon="-3.822657">
<ele>681.5</ele>
<speed>25.1</speed>
<course>164.3</course>
<desc>Speed 25.1 km/h Distance 17.68 km</desc>
<time>2011-07-19T20:39:03.63</time>
<name>2996</name>
</trkpt>
<trkpt lat="39.015427" lon="-3.822635">
<ele>681.0</ele>
<speed>24.2</speed>
<course>167.5</course>
<desc>Speed 24.2 km/h Distance 17.69 km</desc>
<time>2011-07-19T20:39:04.62</time>
<name>2997</name>
</trkpt>
<trkpt lat="39.015380" lon="-3.822622">
<ele>681.5</ele>
<speed>19.0</speed>
<course>170.5</course>
<desc>Speed 19.0 km/h Distance 17.70 km</desc>
<time>2011-07-19T20:39:05.62</time>
<name>2998</name>
</trkpt>
<trkpt lat="39.015348" lon="-3.822615">
<ele>682.5</ele>
<speed>12.4</speed>
<course>227.4</course>
<desc>Speed 12.4 km/h Distance 17.70 km</desc>
<time>2011-07-19T20:39:06.62</time>
<name>2999</name>
</trkpt>
<trkpt lat="39.015332" lon="-3.822638">
<ele>683.0</ele>
<speed>8.4</speed>
<course>221.6</course>
<desc>Speed 8.4 km/h Distance 17.70 km</desc>
<time>2011-07-19T20:39:08.63</time>
<name>3000</name>
</trkpt>
<trkpt lat="39.015308" lon="-3.822665">
<ele>684.0</ele>
<speed>12.4</speed>
<course>236.1</course>
<desc>Speed 12.4 km/h Distance 17.71 km</desc>
<time>2011-07-19T20:39:09.62</time>
<name>3001</name>
</trkpt>
<trkpt lat="39.015288" lon="-3.822703">
<ele>684.5</ele>
<speed>14.4</speed>
<course>246.8</course>
<desc>Speed 14.4 km/h Distance 17.71 km</desc>
<time>2011-07-19T20:39:10.62</time>
<name>3002</name>
</trkpt>
<trkpt lat="39.015273" lon="-3.822748">
<ele>685.0</ele>
<speed>15.4</speed>
<course>246.1</course>
<desc>Speed 15.4 km/h Distance 17.71 km</desc>
<time>2011-07-19T20:39:11.63</time>
<name>3003</name>
</trkpt>
<trkpt lat="39.015257" lon="-3.822797">
<ele>685.0</ele>
<speed>16.4</speed>
<course>246.8</course>
<desc>Speed 16.4 km/h Distance 17.72 km</desc>
<time>2011-07-19T20:39:12.63</time>
<name>3004</name>
</trkpt>
<trkpt lat="39.015240" lon="-3.822847">
<ele>685.5</ele>
<speed>17.2</speed>
<course>264.6</course>
<desc>Speed 17.2 km/h Distance 17.72 km</desc>
<time>2011-07-19T20:39:13.63</time>
<name>3005</name>
</trkpt>
<trkpt lat="39.015237" lon="-3.822892">
<ele>685.5</ele>
<speed>14.7</speed>
<course>257.5</course>
<desc>Speed 14.7 km/h Distance 17.73 km</desc>
<time>2011-07-19T20:39:14.63</time>
<name>3006</name>
</trkpt>
<trkpt lat="39.015228" lon="-3.822940">
<ele>685.5</ele>
<speed>15.5</speed>
<course>250.9</course>
<desc>Speed 15.5 km/h Distance 17.73 km</desc>
<time>2011-07-19T20:39:15.63</time>
<name>3007</name>
</trkpt>
<trkpt lat="39.015217" lon="-3.822983">
<ele>689.5</ele>
<speed>15.5</speed>
<course>262.4</course>
<desc>Speed 15.5 km/h Distance 17.74 km</desc>
<time>2011-07-19T20:39:16.63</time>
<name>3008</name>
</trkpt>
<trkpt lat="39.015212" lon="-3.823032">
<ele>689.5</ele>
<speed>15.8</speed>
<course>270.0</course>
<desc>Speed 15.8 km/h Distance 17.74 km</desc>
<time>2011-07-19T20:39:17.63</time>
<name>3009</name>
</trkpt>
<trkpt lat="39.015212" lon="-3.823083">
<ele>689.5</ele>
<speed>16.1</speed>
<course>289.8</course>
<desc>Speed 16.1 km/h Distance 17.74 km</desc>
<time>2011-07-19T20:39:18.63</time>
<name>3010</name>
</trkpt>
<trkpt lat="39.015223" lon="-3.823125">
<ele>690.0</ele>
<speed>14.2</speed>
<course>280.8</course>
<desc>Speed 14.2 km/h Distance 17.75 km</desc>
<time>2011-07-19T20:39:19.62</time>
<name>3011</name>
</trkpt>
<trkpt lat="39.015230" lon="-3.823170">
<ele>690.0</ele>
<speed>13.9</speed>
<course>253.3</course>
<desc>Speed 13.9 km/h Distance 17.75 km</desc>
<time>2011-07-19T20:39:20.63</time>
<name>3012</name>
</trkpt>
<trkpt lat="39.015218" lon="-3.823220">
<ele>690.0</ele>
<speed>16.7</speed>
<course>241.1</course>
<desc>Speed 16.7 km/h Distance 17.76 km</desc>
<time>2011-07-19T20:39:21.63</time>
<name>3013</name>
</trkpt>
<trkpt lat="39.015198" lon="-3.823267">
<ele>690.5</ele>
<speed>15.8</speed>
<course>248.2</course>
<desc>Speed 15.8 km/h Distance 17.76 km</desc>
<time>2011-07-19T20:39:22.63</time>
<name>3014</name>
</trkpt>
<trkpt lat="39.015183" lon="-3.823315">
<ele>690.5</ele>
<speed>15.4</speed>
<course>241.6</course>
<desc>Speed 15.4 km/h Distance 17.77 km</desc>
<time>2011-07-19T20:39:23.63</time>
<name>3015</name>
</trkpt>
<trkpt lat="39.015162" lon="-3.823367">
<ele>690.5</ele>
<speed>17.5</speed>
<course>241.4</course>
<desc>Speed 17.5 km/h Distance 17.77 km</desc>
<time>2011-07-19T20:39:24.63</time>
<name>3016</name>
</trkpt>
<trkpt lat="39.015138" lon="-3.823422">
<ele>691.5</ele>
<speed>17.6</speed>
<course>244.9</course>
<desc>Speed 17.6 km/h Distance 17.78 km</desc>
<time>2011-07-19T20:39:25.63</time>
<name>3017</name>
</trkpt>
<trkpt lat="39.015118" lon="-3.823477">
<ele>692.0</ele>
<speed>18.1</speed>
<course>240.4</course>
<desc>Speed 18.1 km/h Distance 17.78 km</desc>
<time>2011-07-19T20:39:26.63</time>
<name>3018</name>
</trkpt>
<trkpt lat="39.015093" lon="-3.823533">
<ele>692.5</ele>
<speed>18.8</speed>
<course>241.4</course>
<desc>Speed 18.8 km/h Distance 17.79 km</desc>
<time>2011-07-19T20:39:27.63</time>
<name>3019</name>
</trkpt>
<trkpt lat="39.015070" lon="-3.823588">
<ele>693.5</ele>
<speed>18.6</speed>
<course>247.4</course>
<desc>Speed 18.6 km/h Distance 17.79 km</desc>
<time>2011-07-19T20:39:28.62</time>
<name>3020</name>
</trkpt>
<trkpt lat="39.015052" lon="-3.823645">
<ele>694.5</ele>
<speed>17.6</speed>
<course>257.6</course>
<desc>Speed 17.6 km/h Distance 17.80 km</desc>
<time>2011-07-19T20:39:29.62</time>
<name>3021</name>
</trkpt>
<trkpt lat="39.015042" lon="-3.823703">
<ele>694.5</ele>
<speed>18.0</speed>
<course>243.4</course>
<desc>Speed 18.0 km/h Distance 17.80 km</desc>
<time>2011-07-19T20:39:30.64</time>
<name>3022</name>
</trkpt>
<trkpt lat="39.015018" lon="-3.823763">
<ele>695.0</ele>
<speed>19.6</speed>
<course>245.1</course>
<desc>Speed 19.6 km/h Distance 17.81 km</desc>
<time>2011-07-19T20:39:31.63</time>
<name>3023</name>
</trkpt>
<trkpt lat="39.014997" lon="-3.823823">
<ele>695.0</ele>
<speed>20.0</speed>
<course>243.4</course>
<desc>Speed 20.0 km/h Distance 17.81 km</desc>
<time>2011-07-19T20:39:32.63</time>
<name>3024</name>
</trkpt>
<trkpt lat="39.014973" lon="-3.823883">
<ele>695.5</ele>
<speed>20.3</speed>
<course>241.8</course>
<desc>Speed 20.3 km/h Distance 17.82 km</desc>
<time>2011-07-19T20:39:33.63</time>
<name>3025</name>
</trkpt>
<trkpt lat="39.014948" lon="-3.823943">
<ele>696.0</ele>
<speed>20.5</speed>
<course>235.7</course>
<desc>Speed 20.5 km/h Distance 17.83 km</desc>
<time>2011-07-19T20:39:34.63</time>
<name>3026</name>
</trkpt>
<trkpt lat="39.014918" lon="-3.824000">
<ele>696.0</ele>
<speed>20.3</speed>
<course>240.2</course>
<desc>Speed 20.3 km/h Distance 17.83 km</desc>
<time>2011-07-19T20:39:35.62</time>
<name>3027</name>
</trkpt>
<trkpt lat="39.014892" lon="-3.824060">
<ele>696.5</ele>
<speed>20.7</speed>
<course>242.4</course>
<desc>Speed 20.7 km/h Distance 17.84 km</desc>
<time>2011-07-19T20:39:36.62</time>
<name>3028</name>
</trkpt>
<trkpt lat="39.014867" lon="-3.824122">
<ele>696.5</ele>
<speed>21.1</speed>
<course>246.8</course>
<desc>Speed 21.1 km/h Distance 17.84 km</desc>
<time>2011-07-19T20:39:37.61</time>
<name>3029</name>
</trkpt>
<trkpt lat="39.014845" lon="-3.824187">
<ele>696.5</ele>
<speed>21.5</speed>
<course>250.5</course>
<desc>Speed 21.5 km/h Distance 17.85 km</desc>
<time>2011-07-19T20:39:38.62</time>
<name>3030</name>
</trkpt>
<trkpt lat="39.014827" lon="-3.824253">
<ele>695.0</ele>
<speed>21.0</speed>
<course>234.9</course>
<desc>Speed 21.0 km/h Distance 17.86 km</desc>
<time>2011-07-19T20:39:39.62</time>
<name>3031</name>
</trkpt>
<trkpt lat="39.014797" lon="-3.824308">
<ele>695.5</ele>
<speed>19.4</speed>
<course>221.3</course>
<desc>Speed 19.4 km/h Distance 17.86 km</desc>
<time>2011-07-19T20:39:40.63</time>
<name>3032</name>
</trkpt>
<trkpt lat="39.014758" lon="-3.824352">
<ele>697.0</ele>
<speed>18.7</speed>
<course>196.2</course>
<desc>Speed 18.7 km/h Distance 17.87 km</desc>
<time>2011-07-19T20:39:41.63</time>
<name>3033</name>
</trkpt>
<trkpt lat="39.014652" lon="-3.824392">
<ele>697.0</ele>
<speed>17.4</speed>
<course>177.2</course>
<desc>Speed 17.4 km/h Distance 17.88 km</desc>
<time>2011-07-19T20:39:43.63</time>
<name>3034</name>
</trkpt>
<trkpt lat="39.014600" lon="-3.824388">
<ele>697.5</ele>
<speed>20.0</speed>
<course>162.1</course>
<desc>Speed 20.0 km/h Distance 17.89 km</desc>
<time>2011-07-19T20:39:44.63</time>
<name>3035</name>
</trkpt>
<trkpt lat="39.014560" lon="-3.824372">
<ele>696.5</ele>
<speed>16.3</speed>
<course>171.3</course>
<desc>Speed 16.3 km/h Distance 17.89 km</desc>
<time>2011-07-19T20:39:45.62</time>
<name>3036</name>
</trkpt>
<trkpt lat="39.014442" lon="-3.824348">
<ele>696.5</ele>
<speed>22.1</speed>
<course>172.5</course>
<desc>Speed 22.1 km/h Distance 17.90 km</desc>
<time>2011-07-19T20:39:47.62</time>
<name>3037</name>
</trkpt>
<trkpt lat="39.014383" lon="-3.824338">
<ele>697.0</ele>
<speed>22.4</speed>
<course>166.9</course>
<desc>Speed 22.4 km/h Distance 17.91 km</desc>
<time>2011-07-19T20:39:48.62</time>
<name>3038</name>
</trkpt>
<trkpt lat="39.014333" lon="-3.824323">
<ele>696.0</ele>
<speed>20.6</speed>
<course>133.1</course>
<desc>Speed 20.6 km/h Distance 17.92 km</desc>
<time>2011-07-19T20:39:49.63</time>
<name>3039</name>
</trkpt>
<trkpt lat="39.014307" lon="-3.824287">
<ele>694.5</ele>
<speed>17.0</speed>
<course>126.9</course>
<desc>Speed 17.0 km/h Distance 17.92 km</desc>
<time>2011-07-19T20:39:50.62</time>
<name>3040</name>
</trkpt>
<trkpt lat="39.014283" lon="-3.824247">
<ele>692.5</ele>
<speed>17.6</speed>
<course>61.1</course>
<desc>Speed 17.6 km/h Distance 17.92 km</desc>
<time>2011-07-19T20:39:51.63</time>
<name>3041</name>
</trkpt>
<trkpt lat="39.014298" lon="-3.824212">
<ele>691.5</ele>
<speed>13.2</speed>
<course>75.6</course>
<desc>Speed 13.2 km/h Distance 17.93 km</desc>
<time>2011-07-19T20:39:52.62</time>
<name>3042</name>
</trkpt>
<trkpt lat="39.014307" lon="-3.824170">
<ele>690.5</ele>
<speed>14.8</speed>
<course>75.1</course>
<desc>Speed 14.8 km/h Distance 17.93 km</desc>
<time>2011-07-19T20:39:53.62</time>
<name>3043</name>
</trkpt>
<trkpt lat="39.014317" lon="-3.824122">
<ele>689.5</ele>
<speed>16.8</speed>
<course>73.3</course>
<desc>Speed 16.8 km/h Distance 17.94 km</desc>
<time>2011-07-19T20:39:54.62</time>
<name>3044</name>
</trkpt>
<trkpt lat="39.014328" lon="-3.824072">
<ele>688.0</ele>
<speed>17.7</speed>
<course>101.0</course>
<desc>Speed 17.7 km/h Distance 17.94 km</desc>
<time>2011-07-19T20:39:55.63</time>
<name>3045</name>
</trkpt>
<trkpt lat="39.014320" lon="-3.824017">
<ele>687.5</ele>
<speed>19.5</speed>
<course>70.7</course>
<desc>Speed 19.5 km/h Distance 17.95 km</desc>
<time>2011-07-19T20:39:56.63</time>
<name>3046</name>
</trkpt>
<trkpt lat="39.014335" lon="-3.823962">
<ele>685.5</ele>
<speed>19.4</speed>
<course>75.2</course>
<desc>Speed 19.4 km/h Distance 17.95 km</desc>
<time>2011-07-19T20:39:57.62</time>
<name>3047</name>
</trkpt>
<trkpt lat="39.014347" lon="-3.823905">
<ele>683.5</ele>
<speed>19.5</speed>
<course>68.7</course>
<desc>Speed 19.5 km/h Distance 17.96 km</desc>
<time>2011-07-19T20:39:58.63</time>
<name>3048</name>
</trkpt>
<trkpt lat="39.014363" lon="-3.823850">
<ele>682.0</ele>
<speed>20.0</speed>
<course>79.6</course>
<desc>Speed 20.0 km/h Distance 17.96 km</desc>
<time>2011-07-19T20:39:59.62</time>
<name>3049</name>
</trkpt>
<trkpt lat="39.014372" lon="-3.823792">
<ele>681.0</ele>
<speed>19.8</speed>
<course>77.6</course>
<desc>Speed 19.8 km/h Distance 17.97 km</desc>
<time>2011-07-19T20:40:00.62</time>
<name>3050</name>
</trkpt>
<trkpt lat="39.014382" lon="-3.823733">
<ele>679.5</ele>
<speed>20.1</speed>
<course>77.9</course>
<desc>Speed 20.1 km/h Distance 17.97 km</desc>
<time>2011-07-19T20:40:01.61</time>
<name>3051</name>
</trkpt>
<trkpt lat="39.014392" lon="-3.823673">
<ele>679.0</ele>
<speed>20.4</speed>
<course>80.1</course>
<desc>Speed 20.4 km/h Distance 17.98 km</desc>
<time>2011-07-19T20:40:02.62</time>
<name>3052</name>
</trkpt>
<trkpt lat="39.014400" lon="-3.823612">
<ele>678.5</ele>
<speed>20.6</speed>
<course>80.1</course>
<desc>Speed 20.6 km/h Distance 17.98 km</desc>
<time>2011-07-19T20:40:03.62</time>
<name>3053</name>
</trkpt>
<trkpt lat="39.014408" lon="-3.823550">
<ele>678.0</ele>
<speed>20.2</speed>
<course>76.7</course>
<desc>Speed 20.2 km/h Distance 17.99 km</desc>
<time>2011-07-19T20:40:04.62</time>
<name>3054</name>
</trkpt>
<trkpt lat="39.014420" lon="-3.823487">
<ele>677.0</ele>
<speed>20.5</speed>
<course>76.7</course>
<desc>Speed 20.5 km/h Distance 17.99 km</desc>
<time>2011-07-19T20:40:05.62</time>
<name>3055</name>
</trkpt>
<trkpt lat="39.014432" lon="-3.823423">
<ele>676.5</ele>
<speed>20.4</speed>
<course>72.6</course>
<desc>Speed 20.4 km/h Distance 18.00 km</desc>
<time>2011-07-19T20:40:06.62</time>
<name>3056</name>
</trkpt>
<trkpt lat="39.014447" lon="-3.823362">
<ele>676.0</ele>
<speed>20.4</speed>
<course>69.1</course>
<desc>Speed 20.4 km/h Distance 18.00 km</desc>
<time>2011-07-19T20:40:07.62</time>
<name>3057</name>
</trkpt>
<trkpt lat="39.014465" lon="-3.823300">
<ele>675.0</ele>
<speed>20.3</speed>
<course>65.6</course>
<desc>Speed 20.3 km/h Distance 18.01 km</desc>
<time>2011-07-19T20:40:08.62</time>
<name>3058</name>
</trkpt>
<trkpt lat="39.014485" lon="-3.823243">
<ele>674.5</ele>
<speed>20.7</speed>
<course>61.8</course>
<desc>Speed 20.7 km/h Distance 18.01 km</desc>
<time>2011-07-19T20:40:09.62</time>
<name>3059</name>
</trkpt>
<trkpt lat="39.014510" lon="-3.823183">
<ele>674.0</ele>
<speed>21.5</speed>
<course>49.4</course>
<desc>Speed 21.5 km/h Distance 18.02 km</desc>
<time>2011-07-19T20:40:10.63</time>
<name>3060</name>
</trkpt>
<trkpt lat="39.014547" lon="-3.823128">
<ele>673.5</ele>
<speed>23.7</speed>
<course>56.5</course>
<desc>Speed 23.7 km/h Distance 18.03 km</desc>
<time>2011-07-19T20:40:11.61</time>
<name>3061</name>
</trkpt>
<trkpt lat="39.014577" lon="-3.823070">
<ele>672.5</ele>
<speed>22.0</speed>
<course>84.2</course>
<desc>Speed 22.0 km/h Distance 18.03 km</desc>
<time>2011-07-19T20:40:12.61</time>
<name>3062</name>
</trkpt>
<trkpt lat="39.014582" lon="-3.823007">
<ele>672.0</ele>
<speed>20.2</speed>
<course>82.3</course>
<desc>Speed 20.2 km/h Distance 18.04 km</desc>
<time>2011-07-19T20:40:13.62</time>
<name>3063</name>
</trkpt>
<trkpt lat="39.014588" lon="-3.822943">
<ele>672.0</ele>
<speed>20.4</speed>
<course>82.3</course>
<desc>Speed 20.4 km/h Distance 18.04 km</desc>
<time>2011-07-19T20:40:14.62</time>
<name>3064</name>
</trkpt>
<trkpt lat="39.014595" lon="-3.822880">
<ele>671.5</ele>
<speed>20.3</speed>
<course>82.3</course>
<desc>Speed 20.3 km/h Distance 18.05 km</desc>
<time>2011-07-19T20:40:15.62</time>
<name>3065</name>
</trkpt>
<trkpt lat="39.014602" lon="-3.822817">
<ele>671.0</ele>
<speed>20.3</speed>
<course>84.2</course>
<desc>Speed 20.3 km/h Distance 18.06 km</desc>
<time>2011-07-19T20:40:16.62</time>
<name>3066</name>
</trkpt>
<trkpt lat="39.014607" lon="-3.822753">
<ele>671.0</ele>
<speed>20.3</speed>
<course>58.8</course>
<desc>Speed 20.3 km/h Distance 18.06 km</desc>
<time>2011-07-19T20:40:17.62</time>
<name>3067</name>
</trkpt>
<trkpt lat="39.014662" lon="-3.822637">
<ele>669.5</ele>
<speed>23.4</speed>
<course>80.6</course>
<desc>Speed 23.4 km/h Distance 18.07 km</desc>
<time>2011-07-19T20:40:19.63</time>
<name>3068</name>
</trkpt>
<trkpt lat="39.014670" lon="-3.822572">
<ele>669.5</ele>
<speed>21.6</speed>
<course>77.6</course>
<desc>Speed 21.6 km/h Distance 18.08 km</desc>
<time>2011-07-19T20:40:20.62</time>
<name>3069</name>
</trkpt>
<trkpt lat="39.014682" lon="-3.822503">
<ele>669.0</ele>
<speed>21.9</speed>
<course>75.9</course>
<desc>Speed 21.9 km/h Distance 18.08 km</desc>
<time>2011-07-19T20:40:21.62</time>
<name>3070</name>
</trkpt>
<trkpt lat="39.014695" lon="-3.822435">
<ele>669.0</ele>
<speed>21.8</speed>
<course>75.2</course>
<desc>Speed 21.8 km/h Distance 18.09 km</desc>
<time>2011-07-19T20:40:22.63</time>
<name>3071</name>
</trkpt>
<trkpt lat="39.014708" lon="-3.822370">
<ele>669.0</ele>
<speed>21.6</speed>
<course>75.2</course>
<desc>Speed 21.6 km/h Distance 18.10 km</desc>
<time>2011-07-19T20:40:23.62</time>
<name>3072</name>
</trkpt>
<trkpt lat="39.014722" lon="-3.822305">
<ele>669.0</ele>
<speed>21.4</speed>
<course>78.8</course>
<desc>Speed 21.4 km/h Distance 18.10 km</desc>
<time>2011-07-19T20:40:24.62</time>
<name>3073</name>
</trkpt>
<trkpt lat="39.014732" lon="-3.822240">
<ele>668.5</ele>
<speed>20.9</speed>
<course>78.5</course>
<desc>Speed 20.9 km/h Distance 18.11 km</desc>
<time>2011-07-19T20:40:25.62</time>
<name>3074</name>
</trkpt>
<trkpt lat="39.014742" lon="-3.822177">
<ele>668.5</ele>
<speed>20.3</speed>
<course>80.1</course>
<desc>Speed 20.3 km/h Distance 18.11 km</desc>
<time>2011-07-19T20:40:26.62</time>
<name>3075</name>
</trkpt>
<trkpt lat="39.014750" lon="-3.822115">
<ele>668.5</ele>
<speed>19.5</speed>
<course>79.9</course>
<desc>Speed 19.5 km/h Distance 18.12 km</desc>
<time>2011-07-19T20:40:27.61</time>
<name>3076</name>
</trkpt>
<trkpt lat="39.014758" lon="-3.822055">
<ele>668.5</ele>
<speed>19.0</speed>
<course>79.6</course>
<desc>Speed 19.0 km/h Distance 18.12 km</desc>
<time>2011-07-19T20:40:28.61</time>
<name>3077</name>
</trkpt>
<trkpt lat="39.014767" lon="-3.821997">
<ele>668.5</ele>
<speed>18.7</speed>
<course>79.3</course>
<desc>Speed 18.7 km/h Distance 18.13 km</desc>
<time>2011-07-19T20:40:29.61</time>
<name>3078</name>
</trkpt>
<trkpt lat="39.014775" lon="-3.821940">
<ele>668.5</ele>
<speed>18.3</speed>
<course>83.7</course>
<desc>Speed 18.3 km/h Distance 18.13 km</desc>
<time>2011-07-19T20:40:30.61</time>
<name>3079</name>
</trkpt>
<trkpt lat="39.014780" lon="-3.821882">
<ele>668.5</ele>
<speed>18.3</speed>
<course>77.2</course>
<desc>Speed 18.3 km/h Distance 18.14 km</desc>
<time>2011-07-19T20:40:31.61</time>
<name>3080</name>
</trkpt>
<trkpt lat="39.014790" lon="-3.821825">
<ele>668.5</ele>
<speed>18.3</speed>
<course>87.9</course>
<desc>Speed 18.3 km/h Distance 18.14 km</desc>
<time>2011-07-19T20:40:32.61</time>
<name>3081</name>
</trkpt>
<trkpt lat="39.014792" lon="-3.821767">
<ele>668.5</ele>
<speed>18.6</speed>
<course>88.0</course>
<desc>Speed 18.6 km/h Distance 18.15 km</desc>
<time>2011-07-19T20:40:33.60</time>
<name>3082</name>
</trkpt>
<trkpt lat="39.014793" lon="-3.821705">
<ele>668.5</ele>
<speed>19.0</speed>
<course>86.0</course>
<desc>Speed 19.0 km/h Distance 18.15 km</desc>
<time>2011-07-19T20:40:34.60</time>
<name>3083</name>
</trkpt>
<trkpt lat="39.014797" lon="-3.821643">
<ele>668.5</ele>
<speed>19.4</speed>
<course>76.3</course>
<desc>Speed 19.4 km/h Distance 18.16 km</desc>
<time>2011-07-19T20:40:35.61</time>
<name>3084</name>
</trkpt>
<trkpt lat="39.014808" lon="-3.821582">
<ele>668.5</ele>
<speed>20.2</speed>
<course>73.0</course>
<desc>Speed 20.2 km/h Distance 18.17 km</desc>
<time>2011-07-19T20:40:36.62</time>
<name>3085</name>
</trkpt>
<trkpt lat="39.014823" lon="-3.821518">
<ele>668.0</ele>
<speed>20.9</speed>
<course>78.5</course>
<desc>Speed 20.9 km/h Distance 18.17 km</desc>
<time>2011-07-19T20:40:37.61</time>
<name>3086</name>
</trkpt>
<trkpt lat="39.014833" lon="-3.821455">
<ele>668.0</ele>
<speed>20.6</speed>
<course>77.0</course>
<desc>Speed 20.6 km/h Distance 18.18 km</desc>
<time>2011-07-19T20:40:38.61</time>
<name>3087</name>
</trkpt>
<trkpt lat="39.014845" lon="-3.821390">
<ele>668.0</ele>
<speed>21.1</speed>
<course>78.5</course>
<desc>Speed 21.1 km/h Distance 18.18 km</desc>
<time>2011-07-19T20:40:39.61</time>
<name>3088</name>
</trkpt>
<trkpt lat="39.014855" lon="-3.821327">
<ele>668.5</ele>
<speed>21.0</speed>
<course>77.0</course>
<desc>Speed 21.0 km/h Distance 18.19 km</desc>
<time>2011-07-19T20:40:40.61</time>
<name>3089</name>
</trkpt>
<trkpt lat="39.014867" lon="-3.821262">
<ele>668.0</ele>
<speed>21.0</speed>
<course>81.1</course>
<desc>Speed 21.0 km/h Distance 18.19 km</desc>
<time>2011-07-19T20:40:41.61</time>
<name>3090</name>
</trkpt>
<trkpt lat="39.014875" lon="-3.821193">
<ele>668.0</ele>
<speed>21.3</speed>
<course>82.7</course>
<desc>Speed 21.3 km/h Distance 18.20 km</desc>
<time>2011-07-19T20:40:42.63</time>
<name>3091</name>
</trkpt>
<trkpt lat="39.014882" lon="-3.821127">
<ele>668.0</ele>
<speed>21.4</speed>
<course>77.6</course>
<desc>Speed 21.4 km/h Distance 18.21 km</desc>
<time>2011-07-19T20:40:43.61</time>
<name>3092</name>
</trkpt>
<trkpt lat="39.014893" lon="-3.821058">
<ele>668.0</ele>
<speed>21.6</speed>
<course>79.3</course>
<desc>Speed 21.6 km/h Distance 18.21 km</desc>
<time>2011-07-19T20:40:44.62</time>
<name>3093</name>
</trkpt>
<trkpt lat="39.014903" lon="-3.820990">
<ele>668.0</ele>
<speed>21.5</speed>
<course>86.4</course>
<desc>Speed 21.5 km/h Distance 18.22 km</desc>
<time>2011-07-19T20:40:45.61</time>
<name>3094</name>
</trkpt>
<trkpt lat="39.014907" lon="-3.820922">
<ele>668.0</ele>
<speed>21.6</speed>
<course>83.0</course>
<desc>Speed 21.6 km/h Distance 18.22 km</desc>
<time>2011-07-19T20:40:46.61</time>
<name>3095</name>
</trkpt>
<trkpt lat="39.014913" lon="-3.820852">
<ele>668.0</ele>
<speed>21.5</speed>
<course>59.3</course>
<desc>Speed 21.5 km/h Distance 18.23 km</desc>
<time>2011-07-19T20:40:47.61</time>
<name>3096</name>
</trkpt>
<trkpt lat="39.014943" lon="-3.820787">
<ele>667.0</ele>
<speed>23.5</speed>
<course>48.6</course>
<desc>Speed 23.5 km/h Distance 18.24 km</desc>
<time>2011-07-19T20:40:48.62</time>
<name>3097</name>
</trkpt>
<trkpt lat="39.014987" lon="-3.820723">
<ele>666.5</ele>
<speed>26.7</speed>
<course>56.6</course>
<desc>Speed 26.7 km/h Distance 18.24 km</desc>
<time>2011-07-19T20:40:49.61</time>
<name>3098</name>
</trkpt>
<trkpt lat="39.015020" lon="-3.820658">
<ele>666.0</ele>
<speed>23.9</speed>
<course>83.0</course>
<desc>Speed 23.9 km/h Distance 18.25 km</desc>
<time>2011-07-19T20:40:50.61</time>
<name>3099</name>
</trkpt>
<trkpt lat="39.015027" lon="-3.820588">
<ele>666.0</ele>
<speed>22.0</speed>
<course>74.6</course>
<desc>Speed 22.0 km/h Distance 18.26 km</desc>
<time>2011-07-19T20:40:51.61</time>
<name>3100</name>
</trkpt>
<trkpt lat="39.015042" lon="-3.820518">
<ele>666.0</ele>
<speed>22.9</speed>
<course>80.0</course>
<desc>Speed 22.9 km/h Distance 18.26 km</desc>
<time>2011-07-19T20:40:52.61</time>
<name>3101</name>
</trkpt>
<trkpt lat="39.015052" lon="-3.820445">
<ele>666.0</ele>
<speed>23.0</speed>
<course>81.7</course>
<desc>Speed 23.0 km/h Distance 18.27 km</desc>
<time>2011-07-19T20:40:53.61</time>
<name>3102</name>
</trkpt>
<trkpt lat="39.015060" lon="-3.820372">
<ele>666.0</ele>
<speed>23.2</speed>
<course>91.6</course>
<desc>Speed 23.2 km/h Distance 18.28 km</desc>
<time>2011-07-19T20:40:54.62</time>
<name>3103</name>
</trkpt>
<trkpt lat="39.015058" lon="-3.820297">
<ele>666.0</ele>
<speed>23.1</speed>
<course>76.8</course>
<desc>Speed 23.1 km/h Distance 18.28 km</desc>
<time>2011-07-19T20:40:55.61</time>
<name>3104</name>
</trkpt>
<trkpt lat="39.015072" lon="-3.820223">
<ele>666.0</ele>
<speed>23.1</speed>
<course>99.7</course>
<desc>Speed 23.1 km/h Distance 18.29 km</desc>
<time>2011-07-19T20:40:56.60</time>
<name>3105</name>
</trkpt>
<trkpt lat="39.015062" lon="-3.820148">
<ele>666.0</ele>
<speed>23.0</speed>
<course>104.1</course>
<desc>Speed 23.0 km/h Distance 18.30 km</desc>
<time>2011-07-19T20:40:57.61</time>
<name>3106</name>
</trkpt>
<trkpt lat="39.015047" lon="-3.820072">
<ele>666.5</ele>
<speed>22.8</speed>
<course>106.0</course>
<desc>Speed 22.8 km/h Distance 18.30 km</desc>
<time>2011-07-19T20:40:58.62</time>
<name>3107</name>
</trkpt>
<trkpt lat="39.015030" lon="-3.819997">
<ele>667.0</ele>
<speed>22.6</speed>
<course>100.0</course>
<desc>Speed 22.6 km/h Distance 18.31 km</desc>
<time>2011-07-19T20:40:59.61</time>
<name>3108</name>
</trkpt>
<trkpt lat="39.015020" lon="-3.819923">
<ele>667.5</ele>
<speed>22.5</speed>
<course>84.9</course>
<desc>Speed 22.5 km/h Distance 18.32 km</desc>
<time>2011-07-19T20:41:00.61</time>
<name>3109</name>
</trkpt>
<trkpt lat="39.015025" lon="-3.819852">
<ele>667.5</ele>
<speed>22.6</speed>
<course>57.9</course>
<desc>Speed 22.6 km/h Distance 18.32 km</desc>
<time>2011-07-19T20:41:01.61</time>
<name>3110</name>
</trkpt>
<trkpt lat="39.015057" lon="-3.819787">
<ele>667.5</ele>
<speed>24.4</speed>
<course>55.9</course>
<desc>Speed 24.4 km/h Distance 18.33 km</desc>
<time>2011-07-19T20:41:02.60</time>
<name>3111</name>
</trkpt>
<trkpt lat="39.015090" lon="-3.819723">
<ele>667.0</ele>
<speed>24.7</speed>
<course>81.1</course>
<desc>Speed 24.7 km/h Distance 18.33 km</desc>
<time>2011-07-19T20:41:03.61</time>
<name>3112</name>
</trkpt>
<trkpt lat="39.015098" lon="-3.819655">
<ele>667.0</ele>
<speed>21.6</speed>
<course>79.3</course>
<desc>Speed 21.6 km/h Distance 18.34 km</desc>
<time>2011-07-19T20:41:04.61</time>
<name>3113</name>
</trkpt>
<trkpt lat="39.015108" lon="-3.819587">
<ele>667.0</ele>
<speed>21.7</speed>
<course>77.0</course>
<desc>Speed 21.7 km/h Distance 18.35 km</desc>
<time>2011-07-19T20:41:05.61</time>
<name>3114</name>
</trkpt>
<trkpt lat="39.015120" lon="-3.819522">
<ele>667.0</ele>
<speed>21.2</speed>
<course>77.3</course>
<desc>Speed 21.2 km/h Distance 18.35 km</desc>
<time>2011-07-19T20:41:06.61</time>
<name>3115</name>
</trkpt>
<trkpt lat="39.015132" lon="-3.819455">
<ele>667.0</ele>
<speed>21.1</speed>
<course>55.2</course>
<desc>Speed 21.1 km/h Distance 18.36 km</desc>
<time>2011-07-19T20:41:07.61</time>
<name>3116</name>
</trkpt>
<trkpt lat="39.015165" lon="-3.819393">
<ele>666.5</ele>
<speed>23.8</speed>
<course>72.2</course>
<desc>Speed 23.8 km/h Distance 18.36 km</desc>
<time>2011-07-19T20:41:08.61</time>
<name>3117</name>
</trkpt>
<trkpt lat="39.015182" lon="-3.819327">
<ele>666.5</ele>
<speed>21.7</speed>
<course>91.8</course>
<desc>Speed 21.7 km/h Distance 18.37 km</desc>
<time>2011-07-19T20:41:09.61</time>
<name>3118</name>
</trkpt>
<trkpt lat="39.015180" lon="-3.819257">
<ele>666.5</ele>
<speed>21.5</speed>
<course>97.0</course>
<desc>Speed 21.5 km/h Distance 18.38 km</desc>
<time>2011-07-19T20:41:10.60</time>
<name>3119</name>
</trkpt>
<trkpt lat="39.015173" lon="-3.819187">
<ele>666.5</ele>
<speed>21.6</speed>
<course>100.2</course>
<desc>Speed 21.6 km/h Distance 18.38 km</desc>
<time>2011-07-19T20:41:11.61</time>
<name>3120</name>
</trkpt>
<trkpt lat="39.015163" lon="-3.819115">
<ele>667.0</ele>
<speed>21.6</speed>
<course>84.7</course>
<desc>Speed 21.6 km/h Distance 18.39 km</desc>
<time>2011-07-19T20:41:12.60</time>
<name>3121</name>
</trkpt>
<trkpt lat="39.015168" lon="-3.819045">
<ele>666.5</ele>
<speed>21.6</speed>
<course>103.5</course>
<desc>Speed 21.6 km/h Distance 18.40 km</desc>
<time>2011-07-19T20:41:13.61</time>
<name>3122</name>
</trkpt>
<trkpt lat="39.015155" lon="-3.818973">
<ele>667.0</ele>
<speed>21.5</speed>
<course>91.8</course>
<desc>Speed 21.5 km/h Distance 18.40 km</desc>
<time>2011-07-19T20:41:14.60</time>
<name>3123</name>
</trkpt>
<trkpt lat="39.015153" lon="-3.818907">
<ele>667.5</ele>
<speed>21.1</speed>
<course>77.9</course>
<desc>Speed 21.1 km/h Distance 18.41 km</desc>
<time>2011-07-19T20:41:15.61</time>
<name>3124</name>
</trkpt>
<trkpt lat="39.015163" lon="-3.818847">
<ele>667.5</ele>
<speed>20.7</speed>
<course>58.1</course>
<desc>Speed 20.7 km/h Distance 18.41 km</desc>
<time>2011-07-19T20:41:16.61</time>
<name>3125</name>
</trkpt>
<trkpt lat="39.015188" lon="-3.818795">
<ele>668.0</ele>
<speed>20.2</speed>
<course>45.6</course>
<desc>Speed 20.2 km/h Distance 18.42 km</desc>
<time>2011-07-19T20:41:17.61</time>
<name>3126</name>
</trkpt>
<trkpt lat="39.015220" lon="-3.818753">
<ele>667.5</ele>
<speed>20.6</speed>
<course>33.9</course>
<desc>Speed 20.6 km/h Distance 18.42 km</desc>
<time>2011-07-19T20:41:18.61</time>
<name>3127</name>
</trkpt>
<trkpt lat="39.015257" lon="-3.818722">
<ele>667.5</ele>
<speed>20.2</speed>
<course>22.7</course>
<desc>Speed 20.2 km/h Distance 18.43 km</desc>
<time>2011-07-19T20:41:19.61</time>
<name>3128</name>
</trkpt>
<trkpt lat="39.015300" lon="-3.818698">
<ele>667.5</ele>
<speed>20.8</speed>
<course>17.0</course>
<desc>Speed 20.8 km/h Distance 18.43 km</desc>
<time>2011-07-19T20:41:20.61</time>
<name>3129</name>
</trkpt>
<trkpt lat="39.015347" lon="-3.818680">
<ele>667.0</ele>
<speed>21.0</speed>
<course>18.4</course>
<desc>Speed 21.0 km/h Distance 18.44 km</desc>
<time>2011-07-19T20:41:21.61</time>
<name>3130</name>
</trkpt>
<trkpt lat="39.015393" lon="-3.818660">
<ele>666.5</ele>
<speed>20.4</speed>
<course>18.2</course>
<desc>Speed 20.4 km/h Distance 18.44 km</desc>
<time>2011-07-19T20:41:22.61</time>
<name>3131</name>
</trkpt>
<trkpt lat="39.015437" lon="-3.818642">
<ele>667.0</ele>
<speed>20.1</speed>
<course>17.6</course>
<desc>Speed 20.1 km/h Distance 18.45 km</desc>
<time>2011-07-19T20:41:23.61</time>
<name>3132</name>
</trkpt>
<trkpt lat="39.015482" lon="-3.818623">
<ele>667.0</ele>
<speed>20.0</speed>
<course>14.5</course>
<desc>Speed 20.0 km/h Distance 18.45 km</desc>
<time>2011-07-19T20:41:24.61</time>
<name>3133</name>
</trkpt>
<trkpt lat="39.015527" lon="-3.818608">
<ele>667.5</ele>
<speed>19.6</speed>
<course>15.1</course>
<desc>Speed 19.6 km/h Distance 18.46 km</desc>
<time>2011-07-19T20:41:25.61</time>
<name>3134</name>
</trkpt>
<trkpt lat="39.015570" lon="-3.818593">
<ele>668.0</ele>
<speed>19.5</speed>
<course>22.0</course>
<desc>Speed 19.5 km/h Distance 18.46 km</desc>
<time>2011-07-19T20:41:26.78</time>
<name>3135</name>
</trkpt>
<trkpt lat="39.015657" lon="-3.818548">
<ele>668.0</ele>
<speed>19.0</speed>
<course>29.9</course>
<desc>Speed 19.0 km/h Distance 18.48 km</desc>
<time>2011-07-19T20:41:28.60</time>
<name>3136</name>
</trkpt>
<trkpt lat="39.015695" lon="-3.818520">
<ele>668.0</ele>
<speed>18.2</speed>
<course>32.2</course>
<desc>Speed 18.2 km/h Distance 18.48 km</desc>
<time>2011-07-19T20:41:29.61</time>
<name>3137</name>
</trkpt>
<trkpt lat="39.015730" lon="-3.818492">
<ele>668.5</ele>
<speed>17.1</speed>
<course>33.7</course>
<desc>Speed 17.1 km/h Distance 18.48 km</desc>
<time>2011-07-19T20:41:30.60</time>
<name>3138</name>
</trkpt>
<trkpt lat="39.015765" lon="-3.818462">
<ele>667.5</ele>
<speed>17.2</speed>
<course>39.4</course>
<desc>Speed 17.2 km/h Distance 18.49 km</desc>
<time>2011-07-19T20:41:31.61</time>
<name>3139</name>
</trkpt>
<trkpt lat="39.015793" lon="-3.818432">
<ele>667.5</ele>
<speed>15.7</speed>
<course>36.3</course>
<desc>Speed 15.7 km/h Distance 18.49 km</desc>
<time>2011-07-19T20:41:32.61</time>
<name>3140</name>
</trkpt>
<trkpt lat="39.015823" lon="-3.818403">
<ele>667.5</ele>
<speed>14.8</speed>
<course>33.9</course>
<desc>Speed 14.8 km/h Distance 18.50 km</desc>
<time>2011-07-19T20:41:33.60</time>
<name>3141</name>
</trkpt>
<trkpt lat="39.015848" lon="-3.818382">
<ele>668.0</ele>
<speed>12.9</speed>
<course>73.4</course>
<desc>Speed 12.9 km/h Distance 18.50 km</desc>
<time>2011-07-19T20:41:34.60</time>
<name>3142</name>
</trkpt>
<trkpt lat="39.015853" lon="-3.818360">
<ele>668.5</ele>
<speed>6.7</speed>
<course>42.2</course>
<desc>Speed 6.7 km/h Distance 18.50 km</desc>
<time>2011-07-19T20:41:35.61</time>
<name>3143</name>
</trkpt>
<trkpt lat="39.015863" lon="-3.818348">
<ele>669.0</ele>
<speed>5.4</speed>
<course>34.3</course>
<desc>Speed 5.4 km/h Distance 18.50 km</desc>
<time>2011-07-19T20:41:36.61</time>
<name>3144</name>
</trkpt>
<trkpt lat="39.015877" lon="-3.818337">
<ele>669.5</ele>
<speed>6.7</speed>
<course>22.7</course>
<desc>Speed 6.7 km/h Distance 18.51 km</desc>
<time>2011-07-19T20:41:37.61</time>
<name>3145</name>
</trkpt>
<trkpt lat="39.015898" lon="-3.818325">
<ele>669.0</ele>
<speed>9.1</speed>
<course>26.6</course>
<desc>Speed 9.1 km/h Distance 18.51 km</desc>
<time>2011-07-19T20:41:38.60</time>
<name>3146</name>
</trkpt>
<trkpt lat="39.015922" lon="-3.818310">
<ele>669.0</ele>
<speed>10.1</speed>
<course>45.5</course>
<desc>Speed 10.1 km/h Distance 18.51 km</desc>
<time>2011-07-19T20:41:39.61</time>
<name>3147</name>
</trkpt>
<trkpt lat="39.015943" lon="-3.818282">
<ele>669.0</ele>
<speed>12.4</speed>
<course>39.5</course>
<desc>Speed 12.4 km/h Distance 18.52 km</desc>
<time>2011-07-19T20:41:40.60</time>
<name>3148</name>
</trkpt>
<trkpt lat="39.015972" lon="-3.818252">
<ele>669.0</ele>
<speed>14.7</speed>
<course>35.0</course>
<desc>Speed 14.7 km/h Distance 18.52 km</desc>
<time>2011-07-19T20:41:41.60</time>
<name>3149</name>
</trkpt>
<trkpt lat="39.016005" lon="-3.818222">
<ele>668.5</ele>
<speed>16.1</speed>
<course>37.8</course>
<desc>Speed 16.1 km/h Distance 18.52 km</desc>
<time>2011-07-19T20:41:42.63</time>
<name>3150</name>
</trkpt>
<trkpt lat="39.016037" lon="-3.818190">
<ele>668.5</ele>
<speed>15.8</speed>
<course>45.6</course>
<desc>Speed 15.8 km/h Distance 18.53 km</desc>
<time>2011-07-19T20:41:43.61</time>
<name>3151</name>
</trkpt>
<trkpt lat="39.016063" lon="-3.818155">
<ele>668.5</ele>
<speed>15.1</speed>
<course>36.5</course>
<desc>Speed 15.1 km/h Distance 18.53 km</desc>
<time>2011-07-19T20:41:44.61</time>
<name>3152</name>
</trkpt>
<trkpt lat="39.016098" lon="-3.818122">
<ele>669.0</ele>
<speed>17.7</speed>
<course>46.4</course>
<desc>Speed 17.7 km/h Distance 18.54 km</desc>
<time>2011-07-19T20:41:45.61</time>
<name>3153</name>
</trkpt>
<trkpt lat="39.016127" lon="-3.818083">
<ele>669.5</ele>
<speed>16.5</speed>
<course>27.8</course>
<desc>Speed 16.5 km/h Distance 18.54 km</desc>
<time>2011-07-19T20:41:46.60</time>
<name>3154</name>
</trkpt>
<trkpt lat="39.016173" lon="-3.818052">
<ele>670.5</ele>
<speed>20.6</speed>
<course>28.2</course>
<desc>Speed 20.6 km/h Distance 18.55 km</desc>
<time>2011-07-19T20:41:47.61</time>
<name>3155</name>
</trkpt>
<trkpt lat="39.016222" lon="-3.818018">
<ele>670.5</ele>
<speed>22.5</speed>
<course>36.6</course>
<desc>Speed 22.5 km/h Distance 18.55 km</desc>
<time>2011-07-19T20:41:48.60</time>
<name>3156</name>
</trkpt>
<trkpt lat="39.016260" lon="-3.817982">
<ele>670.5</ele>
<speed>18.6</speed>
<course>36.6</course>
<desc>Speed 18.6 km/h Distance 18.56 km</desc>
<time>2011-07-19T20:41:49.60</time>
<name>3157</name>
</trkpt>
<trkpt lat="39.016298" lon="-3.817945">
<ele>670.5</ele>
<speed>19.6</speed>
<course>43.0</course>
<desc>Speed 19.6 km/h Distance 18.56 km</desc>
<time>2011-07-19T20:41:50.61</time>
<name>3158</name>
</trkpt>
<trkpt lat="39.016332" lon="-3.817905">
<ele>670.5</ele>
<speed>17.9</speed>
<course>49.9</course>
<desc>Speed 17.9 km/h Distance 18.57 km</desc>
<time>2011-07-19T20:41:51.61</time>
<name>3159</name>
</trkpt>
<trkpt lat="39.016360" lon="-3.817862">
<ele>670.5</ele>
<speed>17.6</speed>
<course>53.4</course>
<desc>Speed 17.6 km/h Distance 18.57 km</desc>
<time>2011-07-19T20:41:52.61</time>
<name>3160</name>
</trkpt>
<trkpt lat="39.016385" lon="-3.817818">
<ele>670.5</ele>
<speed>17.1</speed>
<course>59.7</course>
<desc>Speed 17.1 km/h Distance 18.58 km</desc>
<time>2011-07-19T20:41:53.61</time>
<name>3161</name>
</trkpt>
<trkpt lat="39.016402" lon="-3.817782">
<ele>670.5</ele>
<speed>13.6</speed>
<course>61.1</course>
<desc>Speed 13.6 km/h Distance 18.58 km</desc>
<time>2011-07-19T20:41:54.61</time>
<name>3162</name>
</trkpt>
<trkpt lat="39.016412" lon="-3.817758">
<ele>671.0</ele>
<speed>10.3</speed>
<course>21.3</course>
<desc>Speed 10.3 km/h Distance 18.59 km</desc>
<time>2011-07-19T20:41:55.61</time>
<name>3163</name>
</trkpt>
<trkpt lat="39.016432" lon="-3.817748">
<ele>671.0</ele>
<speed>9.5</speed>
<course>0.6</course>
<desc>Speed 9.5 km/h Distance 18.59 km</desc>
<time>2011-07-19T20:41:56.61</time>
<name>3164</name>
</trkpt>
<trkpt lat="39.016455" lon="-3.817748">
<ele>671.0</ele>
<speed>9.6</speed>
<course>6.3</course>
<desc>Speed 9.6 km/h Distance 18.59 km</desc>
<time>2011-07-19T20:41:57.60</time>
<name>3165</name>
</trkpt>
<trkpt lat="39.016478" lon="-3.817745">
<ele>671.5</ele>
<speed>9.5</speed>
<course>12.6</course>
<desc>Speed 9.5 km/h Distance 18.59 km</desc>
<time>2011-07-19T20:41:58.60</time>
<name>3166</name>
</trkpt>
<trkpt lat="39.016502" lon="-3.817738">
<ele>671.5</ele>
<speed>10.0</speed>
<course>31.8</course>
<desc>Speed 10.0 km/h Distance 18.60 km</desc>
<time>2011-07-19T20:41:59.60</time>
<name>3167</name>
</trkpt>
<trkpt lat="39.016518" lon="-3.817725">
<ele>671.5</ele>
<speed>7.5</speed>
<course>49.3</course>
<desc>Speed 7.5 km/h Distance 18.60 km</desc>
<time>2011-07-19T20:42:00.60</time>
<name>3168</name>
</trkpt>
<trkpt lat="39.016532" lon="-3.817705">
<ele>671.0</ele>
<speed>8.9</speed>
<course>71.0</course>
<desc>Speed 8.9 km/h Distance 18.60 km</desc>
<time>2011-07-19T20:42:01.60</time>
<name>3169</name>
</trkpt>
<trkpt lat="39.016538" lon="-3.817680">
<ele>671.5</ele>
<speed>8.7</speed>
<course>75.6</course>
<desc>Speed 8.7 km/h Distance 18.60 km</desc>
<time>2011-07-19T20:42:02.62</time>
<name>3170</name>
</trkpt>
<trkpt lat="39.016545" lon="-3.817647">
<ele>672.0</ele>
<speed>11.0</speed>
<course>77.4</course>
<desc>Speed 11.0 km/h Distance 18.61 km</desc>
<time>2011-07-19T20:42:03.60</time>
<name>3171</name>
</trkpt>
<trkpt lat="39.016552" lon="-3.817608">
<ele>672.5</ele>
<speed>12.1</speed>
<course>69.4</course>
<desc>Speed 12.1 km/h Distance 18.61 km</desc>
<time>2011-07-19T20:42:04.60</time>
<name>3172</name>
</trkpt>
<trkpt lat="39.016563" lon="-3.817568">
<ele>672.0</ele>
<speed>13.4</speed>
<course>72.8</course>
<desc>Speed 13.4 km/h Distance 18.61 km</desc>
<time>2011-07-19T20:42:05.60</time>
<name>3173</name>
</trkpt>
<trkpt lat="39.016573" lon="-3.817527">
<ele>672.5</ele>
<speed>13.7</speed>
<course>59.5</course>
<desc>Speed 13.7 km/h Distance 18.62 km</desc>
<time>2011-07-19T20:42:06.60</time>
<name>3174</name>
</trkpt>
<trkpt lat="39.016592" lon="-3.817487">
<ele>671.0</ele>
<speed>14.1</speed>
<course>69.1</course>
<desc>Speed 14.1 km/h Distance 18.62 km</desc>
<time>2011-07-19T20:42:07.61</time>
<name>3175</name>
</trkpt>
<trkpt lat="39.016605" lon="-3.817442">
<ele>671.0</ele>
<speed>14.9</speed>
<course>62.3</course>
<desc>Speed 14.9 km/h Distance 18.62 km</desc>
<time>2011-07-19T20:42:08.60</time>
<name>3176</name>
</trkpt>
<trkpt lat="39.016623" lon="-3.817397">
<ele>670.5</ele>
<speed>15.7</speed>
<course>57.2</course>
<desc>Speed 15.7 km/h Distance 18.63 km</desc>
<time>2011-07-19T20:42:09.60</time>
<name>3177</name>
</trkpt>
<trkpt lat="39.016647" lon="-3.817350">
<ele>670.5</ele>
<speed>17.0</speed>
<course>77.1</course>
<desc>Speed 17.0 km/h Distance 18.63 km</desc>
<time>2011-07-19T20:42:10.61</time>
<name>3178</name>
</trkpt>
<trkpt lat="39.016655" lon="-3.817303">
<ele>670.5</ele>
<speed>15.0</speed>
<course>73.5</course>
<desc>Speed 15.0 km/h Distance 18.64 km</desc>
<time>2011-07-19T20:42:11.60</time>
<name>3179</name>
</trkpt>
<trkpt lat="39.016665" lon="-3.817260">
<ele>671.0</ele>
<speed>14.2</speed>
<course>42.0</course>
<desc>Speed 14.2 km/h Distance 18.64 km</desc>
<time>2011-07-19T20:42:12.61</time>
<name>3180</name>
</trkpt>
<trkpt lat="39.016697" lon="-3.817223">
<ele>671.0</ele>
<speed>16.9</speed>
<course>81.2</course>
<desc>Speed 16.9 km/h Distance 18.65 km</desc>
<time>2011-07-19T20:42:13.60</time>
<name>3181</name>
</trkpt>
<trkpt lat="39.016702" lon="-3.817182">
<ele>671.0</ele>
<speed>13.1</speed>
<course>72.2</course>
<desc>Speed 13.1 km/h Distance 18.65 km</desc>
<time>2011-07-19T20:42:14.60</time>
<name>3182</name>
</trkpt>
<trkpt lat="39.016712" lon="-3.817142">
<ele>671.0</ele>
<speed>13.0</speed>
<course>65.9</course>
<desc>Speed 13.0 km/h Distance 18.65 km</desc>
<time>2011-07-19T20:42:15.60</time>
<name>3183</name>
</trkpt>
<trkpt lat="39.016725" lon="-3.817103">
<ele>671.0</ele>
<speed>12.9</speed>
<course>101.6</course>
<desc>Speed 12.9 km/h Distance 18.66 km</desc>
<time>2011-07-19T20:42:16.60</time>
<name>3184</name>
</trkpt>
<trkpt lat="39.016718" lon="-3.817062">
<ele>671.0</ele>
<speed>13.3</speed>
<course>59.7</course>
<desc>Speed 13.3 km/h Distance 18.66 km</desc>
<time>2011-07-19T20:42:17.61</time>
<name>3185</name>
</trkpt>
<trkpt lat="39.016735" lon="-3.817025">
<ele>671.0</ele>
<speed>13.4</speed>
<course>44.2</course>
<desc>Speed 13.4 km/h Distance 18.66 km</desc>
<time>2011-07-19T20:42:18.62</time>
<name>3186</name>
</trkpt>
<trkpt lat="39.016762" lon="-3.816992">
<ele>670.5</ele>
<speed>15.0</speed>
<course>50.1</course>
<desc>Speed 15.0 km/h Distance 18.67 km</desc>
<time>2011-07-19T20:42:19.60</time>
<name>3187</name>
</trkpt>
<trkpt lat="39.016783" lon="-3.816958">
<ele>670.5</ele>
<speed>13.3</speed>
<course>47.1</course>
<desc>Speed 13.3 km/h Distance 18.67 km</desc>
<time>2011-07-19T20:42:20.61</time>
<name>3188</name>
</trkpt>
<trkpt lat="39.016805" lon="-3.816928">
<ele>670.0</ele>
<speed>13.0</speed>
<course>50.2</course>
<desc>Speed 13.0 km/h Distance 18.68 km</desc>
<time>2011-07-19T20:42:21.61</time>
<name>3189</name>
</trkpt>
<trkpt lat="39.016823" lon="-3.816900">
<ele>670.0</ele>
<speed>11.4</speed>
<course>77.2</course>
<desc>Speed 11.4 km/h Distance 18.68 km</desc>
<time>2011-07-19T20:42:22.60</time>
<name>3190</name>
</trkpt>
<trkpt lat="39.016828" lon="-3.816872">
<ele>670.5</ele>
<speed>8.9</speed>
<course>57.3</course>
<desc>Speed 8.9 km/h Distance 18.68 km</desc>
<time>2011-07-19T20:42:23.60</time>
<name>3191</name>
</trkpt>
<trkpt lat="39.016837" lon="-3.816855">
<ele>671.5</ele>
<speed>6.2</speed>
<course>168.0</course>
<desc>Speed 6.2 km/h Distance 18.68 km</desc>
<time>2011-07-19T20:42:24.61</time>
<name>3192</name>
</trkpt>
<trkpt lat="39.016818" lon="-3.816850">
<ele>671.0</ele>
<speed>6.9</speed>
<course>356.2</course>
<desc>Speed 6.9 km/h Distance 18.69 km</desc>
<time>2011-07-19T20:42:25.61</time>
<name>3193</name>
</trkpt>
<trkpt lat="39.016833" lon="-3.816852">
<ele>671.0</ele>
<speed>6.5</speed>
<course>343.4</course>
<desc>Speed 6.5 km/h Distance 18.69 km</desc>
<time>2011-07-19T20:42:26.61</time>
<name>3194</name>
</trkpt>
<trkpt lat="39.016855" lon="-3.816860">
<ele>671.0</ele>
<speed>8.2</speed>
<course>343.4</course>
<desc>Speed 8.2 km/h Distance 18.69 km</desc>
<time>2011-07-19T20:42:27.60</time>
<name>3195</name>
</trkpt>
<trkpt lat="39.016877" lon="-3.816868">
<ele>671.5</ele>
<speed>9.0</speed>
<course>344.5</course>
<desc>Speed 9.0 km/h Distance 18.69 km</desc>
<time>2011-07-19T20:42:28.61</time>
<name>3196</name>
</trkpt>
<trkpt lat="39.016900" lon="-3.816877">
<ele>671.5</ele>
<speed>9.4</speed>
<course>341.6</course>
<desc>Speed 9.4 km/h Distance 18.69 km</desc>
<time>2011-07-19T20:42:29.60</time>
<name>3197</name>
</trkpt>
<trkpt lat="39.016923" lon="-3.816887">
<ele>671.5</ele>
<speed>9.2</speed>
<course>337.0</course>
<desc>Speed 9.2 km/h Distance 18.70 km</desc>
<time>2011-07-19T20:42:30.61</time>
<name>3198</name>
</trkpt>
<trkpt lat="39.016942" lon="-3.816897">
<ele>672.0</ele>
<speed>9.3</speed>
<course>338.8</course>
<desc>Speed 9.3 km/h Distance 18.70 km</desc>
<time>2011-07-19T20:42:31.61</time>
<name>3199</name>
</trkpt>
<trkpt lat="39.016962" lon="-3.816907">
<ele>672.5</ele>
<speed>9.1</speed>
<course>342.7</course>
<desc>Speed 9.1 km/h Distance 18.70 km</desc>
<time>2011-07-19T20:42:32.60</time>
<name>3200</name>
</trkpt>
<trkpt lat="39.016978" lon="-3.816913">
<ele>673.0</ele>
<speed>8.4</speed>
<course>355.3</course>
<desc>Speed 8.4 km/h Distance 18.70 km</desc>
<time>2011-07-19T20:42:33.60</time>
<name>3201</name>
</trkpt>
<trkpt lat="39.016990" lon="-3.816915">
<ele>673.5</ele>
<speed>6.6</speed>
<course>23.0</course>
<desc>Speed 6.6 km/h Distance 18.71 km</desc>
<time>2011-07-19T20:42:34.60</time>
<name>3202</name>
</trkpt>
<trkpt lat="39.016993" lon="-3.816913">
<ele>674.5</ele>
<speed>3.7</speed>
<course>30.4</course>
<desc>Speed 3.7 km/h Distance 18.71 km</desc>
<time>2011-07-19T20:42:35.60</time>
<name>3203</name>
</trkpt>
<trkpt lat="39.017000" lon="-3.816908">
<ele>674.5</ele>
<speed>4.8</speed>
<course>337.0</course>
<desc>Speed 4.8 km/h Distance 18.71 km</desc>
<time>2011-07-19T20:42:36.61</time>
<name>3204</name>
</trkpt>
<trkpt lat="39.017003" lon="-3.816910">
<ele>674.5</ele>
<speed>2.2</speed>
<course>157.0</course>
<desc>Speed 2.2 km/h Distance 18.71 km</desc>
<time>2011-07-19T20:42:37.60</time>
<name>3205</name>
</trkpt>
<trkpt lat="39.017000" lon="-3.816908">
<ele>674.5</ele>
<speed>0.3</speed>
<course>167.4</course>
<desc>Speed 0.3 km/h Distance 18.71 km</desc>
<time>2011-07-19T20:42:38.61</time>
<name>3206</name>
</trkpt>
<trkpt lat="39.016998" lon="-3.816908">
<ele>674.5</ele>
<speed>0.4</speed>
<course>142.8</course>
<desc>Speed 0.4 km/h Distance 18.71 km</desc>
<time>2011-07-19T20:42:39.60</time>
<name>3207</name>
</trkpt>
<trkpt lat="39.016997" lon="-3.816907">
<ele>674.5</ele>
<speed>0.3</speed>
<course>167.4</course>
<desc>Speed 0.3 km/h Distance 18.71 km</desc>
<time>2011-07-19T20:42:40.61</time>
<name>3208</name>
</trkpt>
<trkpt lat="39.016995" lon="-3.816907">
<ele>675.0</ele>
<speed>0.4</speed>
<course>167.4</course>
<desc>Speed 0.4 km/h Distance 18.71 km</desc>
<time>2011-07-19T20:42:41.61</time>
<name>3209</name>
</trkpt>
<trkpt lat="39.016993" lon="-3.816907">
<ele>675.0</ele>
<speed>0.1</speed>
<course>167.4</course>
<desc>Speed 0.1 km/h Distance 18.71 km</desc>
<time>2011-07-19T20:42:42.63</time>
<name>3210</name>
</trkpt>
<trkpt lat="39.016993" lon="-3.816907">
<ele>674.5</ele>
<speed>0.1</speed>
<course>167.4</course>
<desc>Speed 0.1 km/h Distance 18.71 km</desc>
<time>2011-07-19T20:42:43.61</time>
<name>3211</name>
</trkpt>
<trkpt lat="39.016992" lon="-3.816907">
<ele>674.5</ele>
<speed>0.0</speed>
<course>167.4</course>
<desc>Speed 0.0 km/h Distance 18.71 km</desc>
<time>2011-07-19T20:42:44.61</time>
<name>3212</name>
</trkpt>
<trkpt lat="39.016992" lon="-3.816907">
<ele>674.5</ele>
<speed>0.2</speed>
<course>167.4</course>
<desc>Speed 0.2 km/h Distance 18.71 km</desc>
<time>2011-07-19T20:42:45.60</time>
<name>3213</name>
</trkpt>
<trkpt lat="39.016992" lon="-3.816907">
<ele>674.5</ele>
<speed>0.1</speed>
<course>142.8</course>
<desc>Speed 0.1 km/h Distance 18.71 km</desc>
<time>2011-07-19T20:42:46.61</time>
<name>3214</name>
</trkpt>
<trkpt lat="39.016990" lon="-3.816905">
<ele>674.5</ele>
<speed>0.5</speed>
<course>90.0</course>
<desc>Speed 0.5 km/h Distance 18.71 km</desc>
<time>2011-07-19T20:42:47.61</time>
<name>3215</name>
</trkpt>
<trkpt lat="39.016990" lon="-3.816903">
<ele>674.5</ele>
<speed>0.9</speed>
<course>322.8</course>
<desc>Speed 0.9 km/h Distance 18.71 km</desc>
<time>2011-07-19T20:42:48.61</time>
<name>3216</name>
</trkpt>
<trkpt lat="39.016992" lon="-3.816905">
<ele>674.0</ele>
<speed>1.0</speed>
<course>322.8</course>
<desc>Speed 1.0 km/h Distance 18.71 km</desc>
<time>2011-07-19T20:42:49.61</time>
<name>3217</name>
</trkpt>
<trkpt lat="39.016992" lon="-3.816905">
<ele>674.0</ele>
<speed>0.4</speed>
<course>90.0</course>
<desc>Speed 0.4 km/h Distance 18.71 km</desc>
<time>2011-07-19T20:42:50.61</time>
<name>3218</name>
</trkpt>
<trkpt lat="39.016992" lon="-3.816903">
<ele>674.0</ele>
<speed>0.5</speed>
<course>90.0</course>
<desc>Speed 0.5 km/h Distance 18.71 km</desc>
<time>2011-07-19T20:42:51.61</time>
<name>3219</name>
</trkpt>
<trkpt lat="39.016992" lon="-3.816903">
<ele>674.0</ele>
<speed>0.1</speed>
<course>90.0</course>
<desc>Speed 0.1 km/h Distance 18.71 km</desc>
<time>2011-07-19T20:42:52.61</time>
<name>3220</name>
</trkpt>
<trkpt lat="39.016992" lon="-3.816903">
<ele>674.0</ele>
<speed>0.1</speed>
<course>15.7</course>
<desc>Speed 0.1 km/h Distance 18.71 km</desc>
<time>2011-07-19T20:42:53.61</time>
<name>3221</name>
</trkpt>
<trkpt lat="39.016997" lon="-3.816902">
<ele>672.5</ele>
<speed>1.6</speed>
<course>142.3</course>
<desc>Speed 1.6 km/h Distance 18.71 km</desc>
<time>2011-07-19T20:42:54.61</time>
<name>3222</name>
</trkpt>
<trkpt lat="39.016988" lon="-3.816893">
<ele>673.0</ele>
<speed>4.7</speed>
<course>18.8</course>
<desc>Speed 4.7 km/h Distance 18.71 km</desc>
<time>2011-07-19T20:42:55.61</time>
<name>3223</name>
</trkpt>
<trkpt lat="39.016992" lon="-3.816892">
<ele>671.5</ele>
<speed>0.8</speed>
<course>142.8</course>
<desc>Speed 0.8 km/h Distance 18.71 km</desc>
<time>2011-07-19T20:42:56.61</time>
<name>3224</name>
</trkpt>
<trkpt lat="39.016990" lon="-3.816890">
<ele>672.5</ele>
<speed>1.5</speed>
<course>37.2</course>
<desc>Speed 1.5 km/h Distance 18.71 km</desc>
<time>2011-07-19T20:42:57.61</time>
<name>3225</name>
</trkpt>
<trkpt lat="39.016992" lon="-3.816888">
<ele>672.5</ele>
<speed>0.6</speed>
<course>90.0</course>
<desc>Speed 0.6 km/h Distance 18.71 km</desc>
<time>2011-07-19T20:42:58.60</time>
<name>3226</name>
</trkpt>
<trkpt lat="39.016992" lon="-3.816887">
<ele>672.5</ele>
<speed>0.6</speed>
<course>37.2</course>
<desc>Speed 0.6 km/h Distance 18.71 km</desc>
<time>2011-07-19T20:42:59.61</time>
<name>3227</name>
</trkpt>
<trkpt lat="39.016995" lon="-3.816883">
<ele>672.0</ele>
<speed>1.2</speed>
<course>90.0</course>
<desc>Speed 1.2 km/h Distance 18.71 km</desc>
<time>2011-07-19T20:43:00.60</time>
<name>3228</name>
</trkpt>
<trkpt lat="39.016995" lon="-3.816880">
<ele>672.5</ele>
<speed>0.9</speed>
<course>37.2</course>
<desc>Speed 0.9 km/h Distance 18.71 km</desc>
<time>2011-07-19T20:43:01.61</time>
<name>3229</name>
</trkpt>
<trkpt lat="39.016998" lon="-3.816877">
<ele>672.5</ele>
<speed>0.2</speed>
<course>90.0</course>
<desc>Speed 0.2 km/h Distance 18.71 km</desc>
<time>2011-07-19T20:43:02.60</time>
<name>3230</name>
</trkpt>
<trkpt lat="39.016998" lon="-3.816875">
<ele>672.5</ele>
<speed>0.3</speed>
<course>23.0</course>
<desc>Speed 0.3 km/h Distance 18.71 km</desc>
<time>2011-07-19T20:43:03.60</time>
<name>3231</name>
</trkpt>
<trkpt lat="39.017002" lon="-3.816873">
<ele>672.0</ele>
<speed>0.2</speed>
<course>37.2</course>
<desc>Speed 0.2 km/h Distance 18.71 km</desc>
<time>2011-07-19T20:43:04.61</time>
<name>3232</name>
</trkpt>
<trkpt lat="39.017005" lon="-3.816870">
<ele>671.5</ele>
<speed>0.6</speed>
<course>37.2</course>
<desc>Speed 0.6 km/h Distance 18.71 km</desc>
<time>2011-07-19T20:43:05.61</time>
<name>3233</name>
</trkpt>
<trkpt lat="39.017007" lon="-3.816868">
<ele>671.5</ele>
<speed>0.2</speed>
<course>37.2</course>
<desc>Speed 0.2 km/h Distance 18.71 km</desc>
<time>2011-07-19T20:43:06.67</time>
<name>3234</name>
</trkpt>
<trkpt lat="39.017008" lon="-3.816867">
<ele>671.0</ele>
<speed>0.4</speed>
<course>12.6</course>
<desc>Speed 0.4 km/h Distance 18.71 km</desc>
<time>2011-07-19T20:43:08.60</time>
<name>3235</name>
</trkpt>
<trkpt lat="39.017010" lon="-3.816867">
<ele>671.0</ele>
<speed>0.3</speed>
<course>90.0</course>
<desc>Speed 0.3 km/h Distance 18.71 km</desc>
<time>2011-07-19T20:43:09.60</time>
<name>3236</name>
</trkpt>
<trkpt lat="39.017010" lon="-3.816865">
<ele>671.0</ele>
<speed>0.2</speed>
<course>142.8</course>
<desc>Speed 0.2 km/h Distance 18.71 km</desc>
<time>2011-07-19T20:43:10.60</time>
<name>3237</name>
</trkpt>
<trkpt lat="39.017008" lon="-3.816863">
<ele>671.0</ele>
<speed>1.0</speed>
<course>12.6</course>
<desc>Speed 1.0 km/h Distance 18.72 km</desc>
<time>2011-07-19T20:43:11.69</time>
<name>3238</name>
</trkpt>
<trkpt lat="39.017013" lon="-3.816862">
<ele>669.5</ele>
<speed>0.6</speed>
<course>12.6</course>
<desc>Speed 0.6 km/h Distance 18.72 km</desc>
<time>2011-07-19T20:43:13.60</time>
<name>3239</name>
</trkpt>
<trkpt lat="39.017015" lon="-3.816862">
<ele>669.0</ele>
<speed>0.3</speed>
<course>12.6</course>
<desc>Speed 0.3 km/h Distance 18.72 km</desc>
<time>2011-07-19T20:43:14.60</time>
<name>3240</name>
</trkpt>
</trkseg>
</trk>
</gpx>
